<?xml version="1.0" encoding="UTF-8" standalone="no" ?>
<gpx xmlns="http://www.topografix.com/GPX/1/1" xmlns:xsi="http://www.w3.org/2001/XMLSchema-instance" xsi:schemaLocation="http://www.topografix.com/GPX/1/1 http://www.topografix.com/GPX/1/1/gpx.xsd" version="1.1" creator="VisuGPX - https://www.visugpx.com">
  <metadata>
    <name>Versailles Mantes à  la marche édition 2023</name>
    <desc><![CDATA[86 ème édition de cette marche mythique]]></desc>
  </metadata>
  <trk>
    <name><![CDATA[SityTrail - Versailles Mantes à  la marche édition 2023]]></name>
    <trkseg>
      <trkpt lat="48.80381" lon="2.12524">
        <ele>130</ele>
        <time>2023-01-28T22:56:39.945Z</time>
      </trkpt>
      <trkpt lat="48.80381" lon="2.12524">
        <ele>130</ele>
        <time>2023-01-28T22:56:39.945Z</time>
      </trkpt>
      <trkpt lat="48.80485" lon="2.12515">
        <ele>133</ele>
        <time>2023-01-28T23:01:08.626Z</time>
      </trkpt>
      <trkpt lat="48.80475" lon="2.12422">
        <ele>136</ele>
        <time>2023-01-28T23:01:48.788Z</time>
      </trkpt>
      <trkpt lat="48.80491" lon="2.12444">
        <ele>136</ele>
        <time>2023-01-28T23:02:04.794Z</time>
      </trkpt>
      <trkpt lat="48.80474" lon="2.12398">
        <ele>137</ele>
        <time>2023-01-28T23:02:09.300Z</time>
      </trkpt>
      <trkpt lat="48.80473" lon="2.12389">
        <ele>137</ele>
        <time>2023-01-28T23:02:13.406Z</time>
      </trkpt>
      <trkpt lat="48.80475" lon="2.1238">
        <ele>137</ele>
        <time>2023-01-28T23:02:18.009Z</time>
      </trkpt>
      <trkpt lat="48.80476" lon="2.12375">
        <ele>139</ele>
        <time>2023-01-28T23:02:22.513Z</time>
      </trkpt>
      <trkpt lat="48.80476" lon="2.12367">
        <ele>139</ele>
        <time>2023-01-28T23:02:27.017Z</time>
      </trkpt>
      <trkpt lat="48.80476" lon="2.12358">
        <ele>139</ele>
        <time>2023-01-28T23:02:31.022Z</time>
      </trkpt>
      <trkpt lat="48.80477" lon="2.12349">
        <ele>139</ele>
        <time>2023-01-28T23:02:35.625Z</time>
      </trkpt>
      <trkpt lat="48.80477" lon="2.1234">
        <ele>142</ele>
        <time>2023-01-28T23:02:39.629Z</time>
      </trkpt>
      <trkpt lat="48.80478" lon="2.12331">
        <ele>142</ele>
        <time>2023-01-28T23:02:44.131Z</time>
      </trkpt>
      <trkpt lat="48.80479" lon="2.12322">
        <ele>142</ele>
        <time>2023-01-28T23:02:48.334Z</time>
      </trkpt>
      <trkpt lat="48.80483" lon="2.12313">
        <ele>145</ele>
        <time>2023-01-28T23:02:52.856Z</time>
      </trkpt>
      <trkpt lat="48.80489" lon="2.12303">
        <ele>145</ele>
        <time>2023-01-28T23:02:57.378Z</time>
      </trkpt>
      <trkpt lat="48.80493" lon="2.12294">
        <ele>145</ele>
        <time>2023-01-28T23:03:01.480Z</time>
      </trkpt>
      <trkpt lat="48.80497" lon="2.12288">
        <ele>148</ele>
        <time>2023-01-28T23:03:05.589Z</time>
      </trkpt>
      <trkpt lat="48.805" lon="2.12285">
        <ele>148</ele>
        <time>2023-01-28T23:03:10.106Z</time>
      </trkpt>
      <trkpt lat="48.80502" lon="2.12283">
        <ele>148</ele>
        <time>2023-01-28T23:03:14.124Z</time>
      </trkpt>
      <trkpt lat="48.80505" lon="2.12281">
        <ele>148</ele>
        <time>2023-01-28T23:03:18.138Z</time>
      </trkpt>
      <trkpt lat="48.80511" lon="2.12279">
        <ele>148</ele>
        <time>2023-01-28T23:03:22.151Z</time>
      </trkpt>
      <trkpt lat="48.8052" lon="2.12282">
        <ele>149</ele>
        <time>2023-01-28T23:03:26.164Z</time>
      </trkpt>
      <trkpt lat="48.80527" lon="2.12295">
        <ele>146</ele>
        <time>2023-01-28T23:03:30.176Z</time>
      </trkpt>
      <trkpt lat="48.80532" lon="2.12309">
        <ele>146</ele>
        <time>2023-01-28T23:03:34.689Z</time>
      </trkpt>
      <trkpt lat="48.80538" lon="2.12316">
        <ele>146</ele>
        <time>2023-01-28T23:03:39.223Z</time>
      </trkpt>
      <trkpt lat="48.80544" lon="2.12321">
        <ele>141</ele>
        <time>2023-01-28T23:03:43.309Z</time>
      </trkpt>
      <trkpt lat="48.80548" lon="2.12327">
        <ele>141</ele>
        <time>2023-01-28T23:03:47.317Z</time>
      </trkpt>
      <trkpt lat="48.80552" lon="2.1233">
        <ele>141</ele>
        <time>2023-01-28T23:03:51.326Z</time>
      </trkpt>
      <trkpt lat="48.80557" lon="2.12332">
        <ele>141</ele>
        <time>2023-01-28T23:03:55.835Z</time>
      </trkpt>
      <trkpt lat="48.80561" lon="2.12336">
        <ele>141</ele>
        <time>2023-01-28T23:03:59.943Z</time>
      </trkpt>
      <trkpt lat="48.80567" lon="2.12341">
        <ele>141</ele>
        <time>2023-01-28T23:04:04.486Z</time>
      </trkpt>
      <trkpt lat="48.80574" lon="2.12346">
        <ele>138</ele>
        <time>2023-01-28T23:04:09.163Z</time>
      </trkpt>
      <trkpt lat="48.80582" lon="2.12347">
        <ele>138</ele>
        <time>2023-01-28T23:04:12.771Z</time>
      </trkpt>
      <trkpt lat="48.80589" lon="2.12346">
        <ele>138</ele>
        <time>2023-01-28T23:04:16.881Z</time>
      </trkpt>
      <trkpt lat="48.80595" lon="2.12345">
        <ele>138</ele>
        <time>2023-01-28T23:04:20.889Z</time>
      </trkpt>
      <trkpt lat="48.80603" lon="2.12345">
        <ele>137</ele>
        <time>2023-01-28T23:04:26Z</time>
      </trkpt>
      <trkpt lat="48.80608" lon="2.12346">
        <ele>137</ele>
        <time>2023-01-28T23:04:30.109Z</time>
      </trkpt>
      <trkpt lat="48.80614" lon="2.12347">
        <ele>137</ele>
        <time>2023-01-28T23:04:34.118Z</time>
      </trkpt>
      <trkpt lat="48.80619" lon="2.12347">
        <ele>137</ele>
        <time>2023-01-28T23:04:38.629Z</time>
      </trkpt>
      <trkpt lat="48.80623" lon="2.12347">
        <ele>137</ele>
        <time>2023-01-28T23:04:42.638Z</time>
      </trkpt>
      <trkpt lat="48.80628" lon="2.12352">
        <ele>135</ele>
        <time>2023-01-28T23:04:46.647Z</time>
      </trkpt>
      <trkpt lat="48.80632" lon="2.1236">
        <ele>135</ele>
        <time>2023-01-28T23:04:51.157Z</time>
      </trkpt>
      <trkpt lat="48.80637" lon="2.12367">
        <ele>135</ele>
        <time>2023-01-28T23:04:55.667Z</time>
      </trkpt>
      <trkpt lat="48.80642" lon="2.12372">
        <ele>135</ele>
        <time>2023-01-28T23:04:59.675Z</time>
      </trkpt>
      <trkpt lat="48.80648" lon="2.12378">
        <ele>135</ele>
        <time>2023-01-28T23:05:04.185Z</time>
      </trkpt>
      <trkpt lat="48.80657" lon="2.12386">
        <ele>132</ele>
        <time>2023-01-28T23:05:08.709Z</time>
      </trkpt>
      <trkpt lat="48.80663" lon="2.12389">
        <ele>132</ele>
        <time>2023-01-28T23:05:12.303Z</time>
      </trkpt>
      <trkpt lat="48.80668" lon="2.12392">
        <ele>132</ele>
        <time>2023-01-28T23:05:16.315Z</time>
      </trkpt>
      <trkpt lat="48.80674" lon="2.12394">
        <ele>132</ele>
        <time>2023-01-28T23:05:20.824Z</time>
      </trkpt>
      <trkpt lat="48.80682" lon="2.12396">
        <ele>129</ele>
        <time>2023-01-28T23:05:24.830Z</time>
      </trkpt>
      <trkpt lat="48.80691" lon="2.12396">
        <ele>129</ele>
        <time>2023-01-28T23:05:29.336Z</time>
      </trkpt>
      <trkpt lat="48.80698" lon="2.12396">
        <ele>129</ele>
        <time>2023-01-28T23:05:33.441Z</time>
      </trkpt>
      <trkpt lat="48.80704" lon="2.12396">
        <ele>129</ele>
        <time>2023-01-28T23:05:37.947Z</time>
      </trkpt>
      <trkpt lat="48.80709" lon="2.12396">
        <ele>129</ele>
        <time>2023-01-28T23:05:41.955Z</time>
      </trkpt>
      <trkpt lat="48.80714" lon="2.12399">
        <ele>129</ele>
        <time>2023-01-28T23:05:46.463Z</time>
      </trkpt>
      <trkpt lat="48.80719" lon="2.12404">
        <ele>129</ele>
        <time>2023-01-28T23:05:50.470Z</time>
      </trkpt>
      <trkpt lat="48.80724" lon="2.12412">
        <ele>129</ele>
        <time>2023-01-28T23:05:54.978Z</time>
      </trkpt>
      <trkpt lat="48.8073" lon="2.12407">
        <ele>129</ele>
        <time>2023-01-28T23:05:58.984Z</time>
      </trkpt>
      <trkpt lat="48.80736" lon="2.1241">
        <ele>129</ele>
        <time>2023-01-28T23:06:03.488Z</time>
      </trkpt>
      <trkpt lat="48.8074" lon="2.12416">
        <ele>129</ele>
        <time>2023-01-28T23:06:07.491Z</time>
      </trkpt>
      <trkpt lat="48.80744" lon="2.12424">
        <ele>129</ele>
        <time>2023-01-28T23:06:11.994Z</time>
      </trkpt>
      <trkpt lat="48.80748" lon="2.12431">
        <ele>130</ele>
        <time>2023-01-28T23:06:15.998Z</time>
      </trkpt>
      <trkpt lat="48.80752" lon="2.12436">
        <ele>130</ele>
        <time>2023-01-28T23:06:20.502Z</time>
      </trkpt>
      <trkpt lat="48.80758" lon="2.12438">
        <ele>130</ele>
        <time>2023-01-28T23:06:24.504Z</time>
      </trkpt>
      <trkpt lat="48.80766" lon="2.12443">
        <ele>131</ele>
        <time>2023-01-28T23:06:29.020Z</time>
      </trkpt>
      <trkpt lat="48.80775" lon="2.1245">
        <ele>131</ele>
        <time>2023-01-28T23:06:33.108Z</time>
      </trkpt>
      <trkpt lat="48.80782" lon="2.12457">
        <ele>131</ele>
        <time>2023-01-28T23:06:37.110Z</time>
      </trkpt>
      <trkpt lat="48.80789" lon="2.12465">
        <ele>131</ele>
        <time>2023-01-28T23:06:41.613Z</time>
      </trkpt>
      <trkpt lat="48.80795" lon="2.1247">
        <ele>132</ele>
        <time>2023-01-28T23:06:46.135Z</time>
      </trkpt>
      <trkpt lat="48.80803" lon="2.12467">
        <ele>132</ele>
        <time>2023-01-28T23:06:50.296Z</time>
      </trkpt>
      <trkpt lat="48.8081" lon="2.12468">
        <ele>132</ele>
        <time>2023-01-28T23:06:54.536Z</time>
      </trkpt>
      <trkpt lat="48.80818" lon="2.12472">
        <ele>132</ele>
        <time>2023-01-28T23:06:58.557Z</time>
      </trkpt>
      <trkpt lat="48.80825" lon="2.12476">
        <ele>131</ele>
        <time>2023-01-28T23:07:02.836Z</time>
      </trkpt>
      <trkpt lat="48.80833" lon="2.12478">
        <ele>131</ele>
        <time>2023-01-28T23:07:07.476Z</time>
      </trkpt>
      <trkpt lat="48.80839" lon="2.12477">
        <ele>131</ele>
        <time>2023-01-28T23:07:12.276Z</time>
      </trkpt>
      <trkpt lat="48.80845" lon="2.1248">
        <ele>131</ele>
        <time>2023-01-28T23:07:16.438Z</time>
      </trkpt>
      <trkpt lat="48.80851" lon="2.12486">
        <ele>131</ele>
        <time>2023-01-28T23:07:21.397Z</time>
      </trkpt>
      <trkpt lat="48.80857" lon="2.12489">
        <ele>129</ele>
        <time>2023-01-28T23:07:25.936Z</time>
      </trkpt>
      <trkpt lat="48.80862" lon="2.12493">
        <ele>129</ele>
        <time>2023-01-28T23:07:30.471Z</time>
      </trkpt>
      <trkpt lat="48.80868" lon="2.12495">
        <ele>129</ele>
        <time>2023-01-28T23:07:34.553Z</time>
      </trkpt>
      <trkpt lat="48.80873" lon="2.12499">
        <ele>129</ele>
        <time>2023-01-28T23:07:38.592Z</time>
      </trkpt>
      <trkpt lat="48.80879" lon="2.12503">
        <ele>129</ele>
        <time>2023-01-28T23:07:43.350Z</time>
      </trkpt>
      <trkpt lat="48.80885" lon="2.12509">
        <ele>129</ele>
        <time>2023-01-28T23:07:47.989Z</time>
      </trkpt>
      <trkpt lat="48.80891" lon="2.12515">
        <ele>127</ele>
        <time>2023-01-28T23:07:52.248Z</time>
      </trkpt>
      <trkpt lat="48.80898" lon="2.1252">
        <ele>127</ele>
        <time>2023-01-28T23:07:56.708Z</time>
      </trkpt>
      <trkpt lat="48.80905" lon="2.12522">
        <ele>126</ele>
        <time>2023-01-28T23:08:01.007Z</time>
      </trkpt>
      <trkpt lat="48.80912" lon="2.12527">
        <ele>126</ele>
        <time>2023-01-28T23:08:05.587Z</time>
      </trkpt>
      <trkpt lat="48.80919" lon="2.12534">
        <ele>126</ele>
        <time>2023-01-28T23:08:09.836Z</time>
      </trkpt>
      <trkpt lat="48.80926" lon="2.12538">
        <ele>126</ele>
        <time>2023-01-28T23:08:14.467Z</time>
      </trkpt>
      <trkpt lat="48.80932" lon="2.1254">
        <ele>125</ele>
        <time>2023-01-28T23:08:18.807Z</time>
      </trkpt>
      <trkpt lat="48.80938" lon="2.12544">
        <ele>123</ele>
        <time>2023-01-28T23:08:23.326Z</time>
      </trkpt>
      <trkpt lat="48.80943" lon="2.12549">
        <ele>123</ele>
        <time>2023-01-28T23:08:27.324Z</time>
      </trkpt>
      <trkpt lat="48.80948" lon="2.12556">
        <ele>123</ele>
        <time>2023-01-28T23:08:31.779Z</time>
      </trkpt>
      <trkpt lat="48.80955" lon="2.12559">
        <ele>123</ele>
        <time>2023-01-28T23:08:35.654Z</time>
      </trkpt>
      <trkpt lat="48.80963" lon="2.12557">
        <ele>123</ele>
        <time>2023-01-28T23:08:41.171Z</time>
      </trkpt>
      <trkpt lat="48.8097" lon="2.12555">
        <ele>123</ele>
        <time>2023-01-28T23:08:45.625Z</time>
      </trkpt>
      <trkpt lat="48.80975" lon="2.12555">
        <ele>123</ele>
        <time>2023-01-28T23:08:49.548Z</time>
      </trkpt>
      <trkpt lat="48.80977" lon="2.12562">
        <ele>123</ele>
        <time>2023-01-28T23:08:54.045Z</time>
      </trkpt>
      <trkpt lat="48.80978" lon="2.12574">
        <ele>123</ele>
        <time>2023-01-28T23:08:58.123Z</time>
      </trkpt>
      <trkpt lat="48.80982" lon="2.12585">
        <ele>123</ele>
        <time>2023-01-28T23:09:02.641Z</time>
      </trkpt>
      <trkpt lat="48.80988" lon="2.12591">
        <ele>124</ele>
        <time>2023-01-28T23:09:07.122Z</time>
      </trkpt>
      <trkpt lat="48.80995" lon="2.12596">
        <ele>124</ele>
        <time>2023-01-28T23:09:11.438Z</time>
      </trkpt>
      <trkpt lat="48.81004" lon="2.12601">
        <ele>125</ele>
        <time>2023-01-28T23:09:15.918Z</time>
      </trkpt>
      <trkpt lat="48.81009" lon="2.12606">
        <ele>125</ele>
        <time>2023-01-28T23:09:20.378Z</time>
      </trkpt>
      <trkpt lat="48.81017" lon="2.12608">
        <ele>125</ele>
        <time>2023-01-28T23:09:24.836Z</time>
      </trkpt>
      <trkpt lat="48.81025" lon="2.12612">
        <ele>125</ele>
        <time>2023-01-28T23:09:29.117Z</time>
      </trkpt>
      <trkpt lat="48.81033" lon="2.12617">
        <ele>125</ele>
        <time>2023-01-28T23:09:33.357Z</time>
      </trkpt>
      <trkpt lat="48.81041" lon="2.12618">
        <ele>125</ele>
        <time>2023-01-28T23:09:38.015Z</time>
      </trkpt>
      <trkpt lat="48.81048" lon="2.1262">
        <ele>125</ele>
        <time>2023-01-28T23:09:42.434Z</time>
      </trkpt>
      <trkpt lat="48.81054" lon="2.12622">
        <ele>125</ele>
        <time>2023-01-28T23:09:46.393Z</time>
      </trkpt>
      <trkpt lat="48.81059" lon="2.12624">
        <ele>125</ele>
        <time>2023-01-28T23:09:51.024Z</time>
      </trkpt>
      <trkpt lat="48.81062" lon="2.12629">
        <ele>124</ele>
        <time>2023-01-28T23:09:55.227Z</time>
      </trkpt>
      <trkpt lat="48.81067" lon="2.12634">
        <ele>124</ele>
        <time>2023-01-28T23:09:59.184Z</time>
      </trkpt>
      <trkpt lat="48.81074" lon="2.12637">
        <ele>124</ele>
        <time>2023-01-28T23:10:03.785Z</time>
      </trkpt>
      <trkpt lat="48.81083" lon="2.12638">
        <ele>124</ele>
        <time>2023-01-28T23:10:08.280Z</time>
      </trkpt>
      <trkpt lat="48.81092" lon="2.12635">
        <ele>124</ele>
        <time>2023-01-28T23:10:12.762Z</time>
      </trkpt>
      <trkpt lat="48.81101" lon="2.12632">
        <ele>125</ele>
        <time>2023-01-28T23:10:16.836Z</time>
      </trkpt>
      <trkpt lat="48.81108" lon="2.12631">
        <ele>125</ele>
        <time>2023-01-28T23:10:21.396Z</time>
      </trkpt>
      <trkpt lat="48.81115" lon="2.12634">
        <ele>125</ele>
        <time>2023-01-28T23:10:25.908Z</time>
      </trkpt>
      <trkpt lat="48.81121" lon="2.1264">
        <ele>125</ele>
        <time>2023-01-28T23:10:29.836Z</time>
      </trkpt>
      <trkpt lat="48.81126" lon="2.1265">
        <ele>125</ele>
        <time>2023-01-28T23:10:34.349Z</time>
      </trkpt>
      <trkpt lat="48.81132" lon="2.12659">
        <ele>124</ele>
        <time>2023-01-28T23:10:38.836Z</time>
      </trkpt>
      <trkpt lat="48.81138" lon="2.12665">
        <ele>124</ele>
        <time>2023-01-28T23:10:43.464Z</time>
      </trkpt>
      <trkpt lat="48.81143" lon="2.12672">
        <ele>124</ele>
        <time>2023-01-28T23:10:48.022Z</time>
      </trkpt>
      <trkpt lat="48.81149" lon="2.12676">
        <ele>124</ele>
        <time>2023-01-28T23:10:52.220Z</time>
      </trkpt>
      <trkpt lat="48.81156" lon="2.12679">
        <ele>123</ele>
        <time>2023-01-28T23:10:56.738Z</time>
      </trkpt>
      <trkpt lat="48.81163" lon="2.1268">
        <ele>123</ele>
        <time>2023-01-28T23:11:01.276Z</time>
      </trkpt>
      <trkpt lat="48.8117" lon="2.12681">
        <ele>124</ele>
        <time>2023-01-28T23:11:05.353Z</time>
      </trkpt>
      <trkpt lat="48.81176" lon="2.12682">
        <ele>124</ele>
        <time>2023-01-28T23:11:09.770Z</time>
      </trkpt>
      <trkpt lat="48.81183" lon="2.12683">
        <ele>124</ele>
        <time>2023-01-28T23:11:14.481Z</time>
      </trkpt>
      <trkpt lat="48.81191" lon="2.12686">
        <ele>124</ele>
        <time>2023-01-28T23:11:18.946Z</time>
      </trkpt>
      <trkpt lat="48.81199" lon="2.12689">
        <ele>124</ele>
        <time>2023-01-28T23:11:23.606Z</time>
      </trkpt>
      <trkpt lat="48.81206" lon="2.12693">
        <ele>124</ele>
        <time>2023-01-28T23:11:27.699Z</time>
      </trkpt>
      <trkpt lat="48.81213" lon="2.12695">
        <ele>126</ele>
        <time>2023-01-28T23:11:32.256Z</time>
      </trkpt>
      <trkpt lat="48.81218" lon="2.12697">
        <ele>126</ele>
        <time>2023-01-28T23:11:36.811Z</time>
      </trkpt>
      <trkpt lat="48.81224" lon="2.12702">
        <ele>126</ele>
        <time>2023-01-28T23:11:40.869Z</time>
      </trkpt>
      <trkpt lat="48.81229" lon="2.1271">
        <ele>127</ele>
        <time>2023-01-28T23:11:45.546Z</time>
      </trkpt>
      <trkpt lat="48.81234" lon="2.12717">
        <ele>127</ele>
        <time>2023-01-28T23:11:49.623Z</time>
      </trkpt>
      <trkpt lat="48.8124" lon="2.1272">
        <ele>128</ele>
        <time>2023-01-28T23:11:54.183Z</time>
      </trkpt>
      <trkpt lat="48.81246" lon="2.12725">
        <ele>128</ele>
        <time>2023-01-28T23:11:58.059Z</time>
      </trkpt>
      <trkpt lat="48.81251" lon="2.12732">
        <ele>128</ele>
        <time>2023-01-28T23:12:02.723Z</time>
      </trkpt>
      <trkpt lat="48.81259" lon="2.12736">
        <ele>128</ele>
        <time>2023-01-28T23:12:06.714Z</time>
      </trkpt>
      <trkpt lat="48.81267" lon="2.12739">
        <ele>129</ele>
        <time>2023-01-28T23:12:10.733Z</time>
      </trkpt>
      <trkpt lat="48.81275" lon="2.12744">
        <ele>129</ele>
        <time>2023-01-28T23:12:15.231Z</time>
      </trkpt>
      <trkpt lat="48.81281" lon="2.12747">
        <ele>129</ele>
        <time>2023-01-28T23:12:19.309Z</time>
      </trkpt>
      <trkpt lat="48.81287" lon="2.12751">
        <ele>129</ele>
        <time>2023-01-28T23:12:23.836Z</time>
      </trkpt>
      <trkpt lat="48.81292" lon="2.12751">
        <ele>130</ele>
        <time>2023-01-28T23:12:28.301Z</time>
      </trkpt>
      <trkpt lat="48.81299" lon="2.12753">
        <ele>130</ele>
        <time>2023-01-28T23:12:32.257Z</time>
      </trkpt>
      <trkpt lat="48.81304" lon="2.12758">
        <ele>130</ele>
        <time>2023-01-28T23:12:36.813Z</time>
      </trkpt>
      <trkpt lat="48.81311" lon="2.1276">
        <ele>130</ele>
        <time>2023-01-28T23:12:40.770Z</time>
      </trkpt>
      <trkpt lat="48.81317" lon="2.12763">
        <ele>130</ele>
        <time>2023-01-28T23:12:45.327Z</time>
      </trkpt>
      <trkpt lat="48.81323" lon="2.12767">
        <ele>129</ele>
        <time>2023-01-28T23:12:49.921Z</time>
      </trkpt>
      <trkpt lat="48.8133" lon="2.1277">
        <ele>129</ele>
        <time>2023-01-28T23:12:53.957Z</time>
      </trkpt>
      <trkpt lat="48.81337" lon="2.12774">
        <ele>129</ele>
        <time>2023-01-28T23:12:57.836Z</time>
      </trkpt>
      <trkpt lat="48.81343" lon="2.12782">
        <ele>129</ele>
        <time>2023-01-28T23:13:02.346Z</time>
      </trkpt>
      <trkpt lat="48.81348" lon="2.12792">
        <ele>129</ele>
        <time>2023-01-28T23:13:06.422Z</time>
      </trkpt>
      <trkpt lat="48.81355" lon="2.128">
        <ele>129</ele>
        <time>2023-01-28T23:13:10.497Z</time>
      </trkpt>
      <trkpt lat="48.81361" lon="2.12805">
        <ele>129</ele>
        <time>2023-01-28T23:13:15.162Z</time>
      </trkpt>
      <trkpt lat="48.81368" lon="2.12807">
        <ele>129</ele>
        <time>2023-01-28T23:13:19.245Z</time>
      </trkpt>
      <trkpt lat="48.81374" lon="2.12814">
        <ele>129</ele>
        <time>2023-01-28T23:13:23.917Z</time>
      </trkpt>
      <trkpt lat="48.8138" lon="2.12819">
        <ele>131</ele>
        <time>2023-01-28T23:13:28.582Z</time>
      </trkpt>
      <trkpt lat="48.81385" lon="2.12824">
        <ele>131</ele>
        <time>2023-01-28T23:13:32.426Z</time>
      </trkpt>
      <trkpt lat="48.81391" lon="2.12829">
        <ele>131</ele>
        <time>2023-01-28T23:13:36.982Z</time>
      </trkpt>
      <trkpt lat="48.81399" lon="2.12828">
        <ele>131</ele>
        <time>2023-01-28T23:13:41.539Z</time>
      </trkpt>
      <trkpt lat="48.81407" lon="2.12825">
        <ele>133</ele>
        <time>2023-01-28T23:13:45.973Z</time>
      </trkpt>
      <trkpt lat="48.81415" lon="2.12827">
        <ele>133</ele>
        <time>2023-01-28T23:13:50.528Z</time>
      </trkpt>
      <trkpt lat="48.81422" lon="2.12829">
        <ele>133</ele>
        <time>2023-01-28T23:13:55.203Z</time>
      </trkpt>
      <trkpt lat="48.8143" lon="2.12826">
        <ele>133</ele>
        <time>2023-01-28T23:13:59.757Z</time>
      </trkpt>
      <trkpt lat="48.81437" lon="2.12827">
        <ele>134</ele>
        <time>2023-01-28T23:14:04.432Z</time>
      </trkpt>
      <trkpt lat="48.81441" lon="2.12836">
        <ele>134</ele>
        <time>2023-01-28T23:14:08.921Z</time>
      </trkpt>
      <trkpt lat="48.81446" lon="2.12844">
        <ele>134</ele>
        <time>2023-01-28T23:14:13.423Z</time>
      </trkpt>
      <trkpt lat="48.81451" lon="2.12853">
        <ele>134</ele>
        <time>2023-01-28T23:14:18.218Z</time>
      </trkpt>
      <trkpt lat="48.81454" lon="2.12862">
        <ele>134</ele>
        <time>2023-01-28T23:14:22.415Z</time>
      </trkpt>
      <trkpt lat="48.81458" lon="2.12865">
        <ele>133</ele>
        <time>2023-01-28T23:14:26.916Z</time>
      </trkpt>
      <trkpt lat="48.81464" lon="2.12863">
        <ele>133</ele>
        <time>2023-01-28T23:14:30.924Z</time>
      </trkpt>
      <trkpt lat="48.81468" lon="2.12864">
        <ele>133</ele>
        <time>2023-01-28T23:14:34.934Z</time>
      </trkpt>
      <trkpt lat="48.81474" lon="2.1286">
        <ele>133</ele>
        <time>2023-01-28T23:14:38.945Z</time>
      </trkpt>
      <trkpt lat="48.81481" lon="2.12858">
        <ele>133</ele>
        <time>2023-01-28T23:14:44.059Z</time>
      </trkpt>
      <trkpt lat="48.81487" lon="2.12854">
        <ele>133</ele>
        <time>2023-01-28T23:14:48.067Z</time>
      </trkpt>
      <trkpt lat="48.81494" lon="2.1285">
        <ele>133</ele>
        <time>2023-01-28T23:14:52.580Z</time>
      </trkpt>
      <trkpt lat="48.81497" lon="2.12849">
        <ele>133</ele>
        <time>2023-01-28T23:14:57.102Z</time>
      </trkpt>
      <trkpt lat="48.81502" lon="2.12846">
        <ele>133</ele>
        <time>2023-01-28T23:15:01.110Z</time>
      </trkpt>
      <trkpt lat="48.81509" lon="2.12843">
        <ele>133</ele>
        <time>2023-01-28T23:15:05.113Z</time>
      </trkpt>
      <trkpt lat="48.81516" lon="2.12843">
        <ele>133</ele>
        <time>2023-01-28T23:15:09.616Z</time>
      </trkpt>
      <trkpt lat="48.81522" lon="2.12842">
        <ele>133</ele>
        <time>2023-01-28T23:15:14.017Z</time>
      </trkpt>
      <trkpt lat="48.81531" lon="2.12837">
        <ele>133</ele>
        <time>2023-01-28T23:15:18.217Z</time>
      </trkpt>
      <trkpt lat="48.81538" lon="2.12829">
        <ele>133</ele>
        <time>2023-01-28T23:15:22.398Z</time>
      </trkpt>
      <trkpt lat="48.81543" lon="2.12812">
        <ele>133</ele>
        <time>2023-01-28T23:15:26.920Z</time>
      </trkpt>
      <trkpt lat="48.81548" lon="2.12796">
        <ele>133</ele>
        <time>2023-01-28T23:15:30.943Z</time>
      </trkpt>
      <trkpt lat="48.81552" lon="2.12784">
        <ele>133</ele>
        <time>2023-01-28T23:15:34.984Z</time>
      </trkpt>
      <trkpt lat="48.81556" lon="2.12772">
        <ele>133</ele>
        <time>2023-01-28T23:15:39.836Z</time>
      </trkpt>
      <trkpt lat="48.81559" lon="2.1276">
        <ele>133</ele>
        <time>2023-01-28T23:15:44.624Z</time>
      </trkpt>
      <trkpt lat="48.81558" lon="2.12745">
        <ele>133</ele>
        <time>2023-01-28T23:15:49.146Z</time>
      </trkpt>
      <trkpt lat="48.8156" lon="2.12734">
        <ele>132</ele>
        <time>2023-01-28T23:15:53.222Z</time>
      </trkpt>
      <trkpt lat="48.81563" lon="2.12724">
        <ele>132</ele>
        <time>2023-01-28T23:15:57.836Z</time>
      </trkpt>
      <trkpt lat="48.81566" lon="2.12713">
        <ele>132</ele>
        <time>2023-01-28T23:16:02.358Z</time>
      </trkpt>
      <trkpt lat="48.81568" lon="2.12702">
        <ele>132</ele>
        <time>2023-01-28T23:16:07.033Z</time>
      </trkpt>
      <trkpt lat="48.81572" lon="2.12691">
        <ele>131</ele>
        <time>2023-01-28T23:16:11.349Z</time>
      </trkpt>
      <trkpt lat="48.81578" lon="2.12683">
        <ele>131</ele>
        <time>2023-01-28T23:16:15.836Z</time>
      </trkpt>
      <trkpt lat="48.81586" lon="2.12674">
        <ele>131</ele>
        <time>2023-01-28T23:16:20.460Z</time>
      </trkpt>
      <trkpt lat="48.81592" lon="2.12665">
        <ele>131</ele>
        <time>2023-01-28T23:16:25.136Z</time>
      </trkpt>
      <trkpt lat="48.81594" lon="2.12658">
        <ele>131</ele>
        <time>2023-01-28T23:16:29.214Z</time>
      </trkpt>
      <trkpt lat="48.81597" lon="2.1265">
        <ele>130</ele>
        <time>2023-01-28T23:16:33.836Z</time>
      </trkpt>
      <trkpt lat="48.81602" lon="2.12642">
        <ele>131</ele>
        <time>2023-01-28T23:16:38.400Z</time>
      </trkpt>
      <trkpt lat="48.81608" lon="2.12633">
        <ele>131</ele>
        <time>2023-01-28T23:16:42.404Z</time>
      </trkpt>
      <trkpt lat="48.8161" lon="2.12622">
        <ele>131</ele>
        <time>2023-01-28T23:16:46.960Z</time>
      </trkpt>
      <trkpt lat="48.8161" lon="2.12608">
        <ele>131</ele>
        <time>2023-01-28T23:16:51.755Z</time>
      </trkpt>
      <trkpt lat="48.81612" lon="2.12599">
        <ele>131</ele>
        <time>2023-01-28T23:16:56.431Z</time>
      </trkpt>
      <trkpt lat="48.81617" lon="2.12593">
        <ele>131</ele>
        <time>2023-01-28T23:17:00.508Z</time>
      </trkpt>
      <trkpt lat="48.8162" lon="2.12586">
        <ele>131</ele>
        <time>2023-01-28T23:17:04.585Z</time>
      </trkpt>
      <trkpt lat="48.81623" lon="2.12578">
        <ele>131</ele>
        <time>2023-01-28T23:17:09.263Z</time>
      </trkpt>
      <trkpt lat="48.81627" lon="2.1257">
        <ele>132</ele>
        <time>2023-01-28T23:17:13.339Z</time>
      </trkpt>
      <trkpt lat="48.81631" lon="2.12564">
        <ele>132</ele>
        <time>2023-01-28T23:17:17.536Z</time>
      </trkpt>
      <trkpt lat="48.81637" lon="2.12557">
        <ele>132</ele>
        <time>2023-01-28T23:17:21.834Z</time>
      </trkpt>
      <trkpt lat="48.81644" lon="2.12552">
        <ele>132</ele>
        <time>2023-01-28T23:17:26.031Z</time>
      </trkpt>
      <trkpt lat="48.81652" lon="2.12545">
        <ele>132</ele>
        <time>2023-01-28T23:17:30.585Z</time>
      </trkpt>
      <trkpt lat="48.81657" lon="2.12536">
        <ele>132</ele>
        <time>2023-01-28T23:17:35.140Z</time>
      </trkpt>
      <trkpt lat="48.81671" lon="2.12526">
        <ele>132</ele>
        <time>2023-01-28T23:17:47.072Z</time>
      </trkpt>
      <trkpt lat="48.81669" lon="2.12516">
        <ele>132</ele>
        <time>2023-01-28T23:17:51.242Z</time>
      </trkpt>
      <trkpt lat="48.81671" lon="2.12504">
        <ele>131</ele>
        <time>2023-01-28T23:17:55.438Z</time>
      </trkpt>
      <trkpt lat="48.81673" lon="2.12492">
        <ele>131</ele>
        <time>2023-01-28T23:18:00.224Z</time>
      </trkpt>
      <trkpt lat="48.81674" lon="2.12481">
        <ele>129</ele>
        <time>2023-01-28T23:18:04.308Z</time>
      </trkpt>
      <trkpt lat="48.81679" lon="2.12473">
        <ele>129</ele>
        <time>2023-01-28T23:18:08.967Z</time>
      </trkpt>
      <trkpt lat="48.81686" lon="2.12466">
        <ele>130</ele>
        <time>2023-01-28T23:18:13.181Z</time>
      </trkpt>
      <trkpt lat="48.8169" lon="2.12457">
        <ele>129</ele>
        <time>2023-01-28T23:18:17.259Z</time>
      </trkpt>
      <trkpt lat="48.81693" lon="2.12447">
        <ele>129</ele>
        <time>2023-01-28T23:18:21.817Z</time>
      </trkpt>
      <trkpt lat="48.81693" lon="2.12436">
        <ele>129</ele>
        <time>2023-01-28T23:18:26.374Z</time>
      </trkpt>
      <trkpt lat="48.81689" lon="2.12422">
        <ele>129</ele>
        <time>2023-01-28T23:18:30.451Z</time>
      </trkpt>
      <trkpt lat="48.81688" lon="2.12409">
        <ele>129</ele>
        <time>2023-01-28T23:18:35.007Z</time>
      </trkpt>
      <trkpt lat="48.81689" lon="2.12399">
        <ele>127</ele>
        <time>2023-01-28T23:18:39.442Z</time>
      </trkpt>
      <trkpt lat="48.81691" lon="2.12389">
        <ele>127</ele>
        <time>2023-01-28T23:18:43.517Z</time>
      </trkpt>
      <trkpt lat="48.81692" lon="2.12381">
        <ele>127</ele>
        <time>2023-01-28T23:18:47.982Z</time>
      </trkpt>
      <trkpt lat="48.81693" lon="2.1237">
        <ele>125</ele>
        <time>2023-01-28T23:18:52.507Z</time>
      </trkpt>
      <trkpt lat="48.81705" lon="2.12369">
        <ele>125</ele>
        <time>2023-01-28T23:18:57.182Z</time>
      </trkpt>
      <trkpt lat="48.81711" lon="2.1236">
        <ele>128</ele>
        <time>2023-01-28T23:19:01.800Z</time>
      </trkpt>
      <trkpt lat="48.81713" lon="2.12347">
        <ele>126</ele>
        <time>2023-01-28T23:19:05.813Z</time>
      </trkpt>
      <trkpt lat="48.81714" lon="2.12334">
        <ele>126</ele>
        <time>2023-01-28T23:19:10.368Z</time>
      </trkpt>
      <trkpt lat="48.81715" lon="2.12323">
        <ele>126</ele>
        <time>2023-01-28T23:19:15.045Z</time>
      </trkpt>
      <trkpt lat="48.81718" lon="2.12313">
        <ele>122</ele>
        <time>2023-01-28T23:19:19.117Z</time>
      </trkpt>
      <trkpt lat="48.81722" lon="2.12303">
        <ele>122</ele>
        <time>2023-01-28T23:19:23.672Z</time>
      </trkpt>
      <trkpt lat="48.81725" lon="2.12294">
        <ele>122</ele>
        <time>2023-01-28T23:19:28.225Z</time>
      </trkpt>
      <trkpt lat="48.81729" lon="2.12287">
        <ele>119</ele>
        <time>2023-01-28T23:19:32.420Z</time>
      </trkpt>
      <trkpt lat="48.81733" lon="2.1228">
        <ele>119</ele>
        <time>2023-01-28T23:19:36.375Z</time>
      </trkpt>
      <trkpt lat="48.81738" lon="2.12273">
        <ele>120</ele>
        <time>2023-01-28T23:19:40.572Z</time>
      </trkpt>
      <trkpt lat="48.81742" lon="2.12264">
        <ele>120</ele>
        <time>2023-01-28T23:19:45.246Z</time>
      </trkpt>
      <trkpt lat="48.81742" lon="2.12255">
        <ele>117</ele>
        <time>2023-01-28T23:19:49.718Z</time>
      </trkpt>
      <trkpt lat="48.81742" lon="2.12244">
        <ele>117</ele>
        <time>2023-01-28T23:19:53.756Z</time>
      </trkpt>
      <trkpt lat="48.81742" lon="2.12236">
        <ele>117</ele>
        <time>2023-01-28T23:19:58.311Z</time>
      </trkpt>
      <trkpt lat="48.81745" lon="2.12223">
        <ele>117</ele>
        <time>2023-01-28T23:20:02.900Z</time>
      </trkpt>
      <trkpt lat="48.81751" lon="2.12209">
        <ele>117</ele>
        <time>2023-01-28T23:20:06.946Z</time>
      </trkpt>
      <trkpt lat="48.81757" lon="2.12199">
        <ele>117</ele>
        <time>2023-01-28T23:20:11.622Z</time>
      </trkpt>
      <trkpt lat="48.81761" lon="2.12188">
        <ele>117</ele>
        <time>2023-01-28T23:20:16.180Z</time>
      </trkpt>
      <trkpt lat="48.81765" lon="2.1218">
        <ele>117</ele>
        <time>2023-01-28T23:20:20.140Z</time>
      </trkpt>
      <trkpt lat="48.8177" lon="2.12171">
        <ele>117</ele>
        <time>2023-01-28T23:20:24.700Z</time>
      </trkpt>
      <trkpt lat="48.81774" lon="2.12163">
        <ele>117</ele>
        <time>2023-01-28T23:20:28.637Z</time>
      </trkpt>
      <trkpt lat="48.81778" lon="2.12155">
        <ele>117</ele>
        <time>2023-01-28T23:20:32.577Z</time>
      </trkpt>
      <trkpt lat="48.81782" lon="2.12147">
        <ele>117</ele>
        <time>2023-01-28T23:20:37.234Z</time>
      </trkpt>
      <trkpt lat="48.81787" lon="2.12139">
        <ele>117</ele>
        <time>2023-01-28T23:20:41.654Z</time>
      </trkpt>
      <trkpt lat="48.81792" lon="2.1213">
        <ele>117</ele>
        <time>2023-01-28T23:20:45.773Z</time>
      </trkpt>
      <trkpt lat="48.81795" lon="2.12122">
        <ele>117</ele>
        <time>2023-01-28T23:20:50.113Z</time>
      </trkpt>
      <trkpt lat="48.81799" lon="2.12113">
        <ele>117</ele>
        <time>2023-01-28T23:20:54.836Z</time>
      </trkpt>
      <trkpt lat="48.81803" lon="2.12105">
        <ele>117</ele>
        <time>2023-01-28T23:20:59.493Z</time>
      </trkpt>
      <trkpt lat="48.81805" lon="2.12096">
        <ele>117</ele>
        <time>2023-01-28T23:21:03.591Z</time>
      </trkpt>
      <trkpt lat="48.81809" lon="2.12086">
        <ele>117</ele>
        <time>2023-01-28T23:21:08.290Z</time>
      </trkpt>
      <trkpt lat="48.81815" lon="2.12079">
        <ele>117</ele>
        <time>2023-01-28T23:21:12.801Z</time>
      </trkpt>
      <trkpt lat="48.81822" lon="2.12073">
        <ele>117</ele>
        <time>2023-01-28T23:21:17.238Z</time>
      </trkpt>
      <trkpt lat="48.81828" lon="2.12068">
        <ele>117</ele>
        <time>2023-01-28T23:21:21.224Z</time>
      </trkpt>
      <trkpt lat="48.81835" lon="2.12063">
        <ele>117</ele>
        <time>2023-01-28T23:21:25.836Z</time>
      </trkpt>
      <trkpt lat="48.81842" lon="2.1206">
        <ele>117</ele>
        <time>2023-01-28T23:21:30.338Z</time>
      </trkpt>
      <trkpt lat="48.81849" lon="2.12057">
        <ele>117</ele>
        <time>2023-01-28T23:21:34.779Z</time>
      </trkpt>
      <trkpt lat="48.81849" lon="2.12046">
        <ele>117</ele>
        <time>2023-01-28T23:21:38.814Z</time>
      </trkpt>
      <trkpt lat="48.81849" lon="2.12034">
        <ele>117</ele>
        <time>2023-01-28T23:21:43.371Z</time>
      </trkpt>
      <trkpt lat="48.81848" lon="2.12022">
        <ele>117</ele>
        <time>2023-01-28T23:21:47.948Z</time>
      </trkpt>
      <trkpt lat="48.81852" lon="2.12012">
        <ele>117</ele>
        <time>2023-01-28T23:21:52.003Z</time>
      </trkpt>
      <trkpt lat="48.81856" lon="2.12002">
        <ele>117</ele>
        <time>2023-01-28T23:21:56.518Z</time>
      </trkpt>
      <trkpt lat="48.81856" lon="2.1199">
        <ele>117</ele>
        <time>2023-01-28T23:22:00.633Z</time>
      </trkpt>
      <trkpt lat="48.81857" lon="2.11978">
        <ele>116</ele>
        <time>2023-01-28T23:22:05.137Z</time>
      </trkpt>
      <trkpt lat="48.81858" lon="2.11966">
        <ele>116</ele>
        <time>2023-01-28T23:22:09.741Z</time>
      </trkpt>
      <trkpt lat="48.81865" lon="2.11957">
        <ele>115</ele>
        <time>2023-01-28T23:22:14.296Z</time>
      </trkpt>
      <trkpt lat="48.81872" lon="2.11949">
        <ele>115</ele>
        <time>2023-01-28T23:22:18.836Z</time>
      </trkpt>
      <trkpt lat="48.81883" lon="2.11942">
        <ele>116</ele>
        <time>2023-01-28T23:22:23.319Z</time>
      </trkpt>
      <trkpt lat="48.81894" lon="2.11937">
        <ele>116</ele>
        <time>2023-01-28T23:22:27.364Z</time>
      </trkpt>
      <trkpt lat="48.81903" lon="2.1193">
        <ele>116</ele>
        <time>2023-01-28T23:22:31.836Z</time>
      </trkpt>
      <trkpt lat="48.81908" lon="2.11921">
        <ele>117</ele>
        <time>2023-01-28T23:22:36.357Z</time>
      </trkpt>
      <trkpt lat="48.81912" lon="2.11911">
        <ele>117</ele>
        <time>2023-01-28T23:22:40.988Z</time>
      </trkpt>
      <trkpt lat="48.81914" lon="2.11899">
        <ele>117</ele>
        <time>2023-01-28T23:22:45.452Z</time>
      </trkpt>
      <trkpt lat="48.81915" lon="2.11888">
        <ele>117</ele>
        <time>2023-01-28T23:22:50.248Z</time>
      </trkpt>
      <trkpt lat="48.81912" lon="2.11874">
        <ele>118</ele>
        <time>2023-01-28T23:22:54.787Z</time>
      </trkpt>
      <trkpt lat="48.8191" lon="2.11862">
        <ele>118</ele>
        <time>2023-01-28T23:22:59.240Z</time>
      </trkpt>
      <trkpt lat="48.81904" lon="2.11853">
        <ele>118</ele>
        <time>2023-01-28T23:23:03.676Z</time>
      </trkpt>
      <trkpt lat="48.81899" lon="2.11842">
        <ele>119</ele>
        <time>2023-01-28T23:23:08.231Z</time>
      </trkpt>
      <trkpt lat="48.81894" lon="2.11832">
        <ele>119</ele>
        <time>2023-01-28T23:23:12.836Z</time>
      </trkpt>
      <trkpt lat="48.81893" lon="2.11822">
        <ele>119</ele>
        <time>2023-01-28T23:23:17.342Z</time>
      </trkpt>
      <trkpt lat="48.81892" lon="2.11814">
        <ele>119</ele>
        <time>2023-01-28T23:23:21.539Z</time>
      </trkpt>
      <trkpt lat="48.81893" lon="2.11805">
        <ele>119</ele>
        <time>2023-01-28T23:23:26.334Z</time>
      </trkpt>
      <trkpt lat="48.81895" lon="2.11797">
        <ele>119</ele>
        <time>2023-01-28T23:23:30.836Z</time>
      </trkpt>
      <trkpt lat="48.81897" lon="2.11786">
        <ele>119</ele>
        <time>2023-01-28T23:23:35.430Z</time>
      </trkpt>
      <trkpt lat="48.81899" lon="2.11775">
        <ele>119</ele>
        <time>2023-01-28T23:23:39.639Z</time>
      </trkpt>
      <trkpt lat="48.81901" lon="2.11765">
        <ele>119</ele>
        <time>2023-01-28T23:23:44.128Z</time>
      </trkpt>
      <trkpt lat="48.81904" lon="2.11754">
        <ele>119</ele>
        <time>2023-01-28T23:23:48.032Z</time>
      </trkpt>
      <trkpt lat="48.81908" lon="2.11743">
        <ele>119</ele>
        <time>2023-01-28T23:23:52.588Z</time>
      </trkpt>
      <trkpt lat="48.81912" lon="2.11732">
        <ele>119</ele>
        <time>2023-01-28T23:23:57.143Z</time>
      </trkpt>
      <trkpt lat="48.81916" lon="2.11722">
        <ele>119</ele>
        <time>2023-01-28T23:24:01.817Z</time>
      </trkpt>
      <trkpt lat="48.81926" lon="2.11713">
        <ele>119</ele>
        <time>2023-01-28T23:24:06.364Z</time>
      </trkpt>
      <trkpt lat="48.81941" lon="2.11708">
        <ele>120</ele>
        <time>2023-01-28T23:24:10.447Z</time>
      </trkpt>
      <trkpt lat="48.81949" lon="2.11699">
        <ele>120</ele>
        <time>2023-01-28T23:24:15.002Z</time>
      </trkpt>
      <trkpt lat="48.81953" lon="2.1169">
        <ele>120</ele>
        <time>2023-01-28T23:24:19.199Z</time>
      </trkpt>
      <trkpt lat="48.81956" lon="2.11679">
        <ele>121</ele>
        <time>2023-01-28T23:24:23.635Z</time>
      </trkpt>
      <trkpt lat="48.81959" lon="2.11669">
        <ele>121</ele>
        <time>2023-01-28T23:24:28.191Z</time>
      </trkpt>
      <trkpt lat="48.81963" lon="2.11659">
        <ele>121</ele>
        <time>2023-01-28T23:24:32.888Z</time>
      </trkpt>
      <trkpt lat="48.81968" lon="2.11651">
        <ele>122</ele>
        <time>2023-01-28T23:24:36.821Z</time>
      </trkpt>
      <trkpt lat="48.81971" lon="2.11641">
        <ele>122</ele>
        <time>2023-01-28T23:24:41.615Z</time>
      </trkpt>
      <trkpt lat="48.81974" lon="2.11632">
        <ele>122</ele>
        <time>2023-01-28T23:24:45.571Z</time>
      </trkpt>
      <trkpt lat="48.81976" lon="2.11622">
        <ele>123</ele>
        <time>2023-01-28T23:24:49.647Z</time>
      </trkpt>
      <trkpt lat="48.81978" lon="2.11611">
        <ele>123</ele>
        <time>2023-01-28T23:24:54.324Z</time>
      </trkpt>
      <trkpt lat="48.81984" lon="2.11605">
        <ele>123</ele>
        <time>2023-01-28T23:24:58.979Z</time>
      </trkpt>
      <trkpt lat="48.81987" lon="2.11601">
        <ele>122</ele>
        <time>2023-01-28T23:25:03.106Z</time>
      </trkpt>
      <trkpt lat="48.81992" lon="2.11595">
        <ele>123</ele>
        <time>2023-01-28T23:25:07.629Z</time>
      </trkpt>
      <trkpt lat="48.81996" lon="2.11587">
        <ele>123</ele>
        <time>2023-01-28T23:25:12.185Z</time>
      </trkpt>
      <trkpt lat="48.82" lon="2.11579">
        <ele>123</ele>
        <time>2023-01-28T23:25:16.836Z</time>
      </trkpt>
      <trkpt lat="48.82" lon="2.11569">
        <ele>124</ele>
        <time>2023-01-28T23:25:21.405Z</time>
      </trkpt>
      <trkpt lat="48.81999" lon="2.11558">
        <ele>124</ele>
        <time>2023-01-28T23:25:43.028Z</time>
      </trkpt>
      <trkpt lat="48.81998" lon="2.11551">
        <ele>124</ele>
        <time>2023-01-28T23:25:47.543Z</time>
      </trkpt>
      <trkpt lat="48.81997" lon="2.11543">
        <ele>124</ele>
        <time>2023-01-28T23:25:51.556Z</time>
      </trkpt>
      <trkpt lat="48.81998" lon="2.11532">
        <ele>123</ele>
        <time>2023-01-28T23:25:56.060Z</time>
      </trkpt>
      <trkpt lat="48.82007" lon="2.11527">
        <ele>123</ele>
        <time>2023-01-28T23:26:00.643Z</time>
      </trkpt>
      <trkpt lat="48.82014" lon="2.11528">
        <ele>124</ele>
        <time>2023-01-28T23:26:05.204Z</time>
      </trkpt>
      <trkpt lat="48.8202" lon="2.11527">
        <ele>124</ele>
        <time>2023-01-28T23:26:09.206Z</time>
      </trkpt>
      <trkpt lat="48.82025" lon="2.11527">
        <ele>124</ele>
        <time>2023-01-28T23:26:13.709Z</time>
      </trkpt>
      <trkpt lat="48.82029" lon="2.11525">
        <ele>124</ele>
        <time>2023-01-28T23:26:18.251Z</time>
      </trkpt>
      <trkpt lat="48.82034" lon="2.11522">
        <ele>124</ele>
        <time>2023-01-28T23:26:22.255Z</time>
      </trkpt>
      <trkpt lat="48.82042" lon="2.1152">
        <ele>123</ele>
        <time>2023-01-28T23:26:26.915Z</time>
      </trkpt>
      <trkpt lat="48.8205" lon="2.11519">
        <ele>123</ele>
        <time>2023-01-28T23:26:30.937Z</time>
      </trkpt>
      <trkpt lat="48.82058" lon="2.11517">
        <ele>123</ele>
        <time>2023-01-28T23:26:34.796Z</time>
      </trkpt>
      <trkpt lat="48.82067" lon="2.11514">
        <ele>123</ele>
        <time>2023-01-28T23:26:39.354Z</time>
      </trkpt>
      <trkpt lat="48.82075" lon="2.11513">
        <ele>124</ele>
        <time>2023-01-28T23:26:43.976Z</time>
      </trkpt>
      <trkpt lat="48.82082" lon="2.11511">
        <ele>124</ele>
        <time>2023-01-28T23:26:48.386Z</time>
      </trkpt>
      <trkpt lat="48.82089" lon="2.11509">
        <ele>124</ele>
        <time>2023-01-28T23:26:52.968Z</time>
      </trkpt>
      <trkpt lat="48.82095" lon="2.11509">
        <ele>124</ele>
        <time>2023-01-28T23:26:56.936Z</time>
      </trkpt>
      <trkpt lat="48.82102" lon="2.11506">
        <ele>125</ele>
        <time>2023-01-28T23:27:01.481Z</time>
      </trkpt>
      <trkpt lat="48.82109" lon="2.11506">
        <ele>125</ele>
        <time>2023-01-28T23:27:06.119Z</time>
      </trkpt>
      <trkpt lat="48.82113" lon="2.11505">
        <ele>125</ele>
        <time>2023-01-28T23:27:10.114Z</time>
      </trkpt>
      <trkpt lat="48.82117" lon="2.11503">
        <ele>125</ele>
        <time>2023-01-28T23:27:14.072Z</time>
      </trkpt>
      <trkpt lat="48.82122" lon="2.11501">
        <ele>125</ele>
        <time>2023-01-28T23:27:18.489Z</time>
      </trkpt>
      <trkpt lat="48.82126" lon="2.11498">
        <ele>126</ele>
        <time>2023-01-28T23:27:23.127Z</time>
      </trkpt>
      <trkpt lat="48.8213" lon="2.11496">
        <ele>126</ele>
        <time>2023-01-28T23:27:27.121Z</time>
      </trkpt>
      <trkpt lat="48.82136" lon="2.11495">
        <ele>126</ele>
        <time>2023-01-28T23:27:31.719Z</time>
      </trkpt>
      <trkpt lat="48.82141" lon="2.11492">
        <ele>126</ele>
        <time>2023-01-28T23:27:36.218Z</time>
      </trkpt>
      <trkpt lat="48.82144" lon="2.1149">
        <ele>126</ele>
        <time>2023-01-28T23:27:40.094Z</time>
      </trkpt>
      <trkpt lat="48.82149" lon="2.11489">
        <ele>126</ele>
        <time>2023-01-28T23:27:44.532Z</time>
      </trkpt>
      <trkpt lat="48.82153" lon="2.11487">
        <ele>127</ele>
        <time>2023-01-28T23:27:49.182Z</time>
      </trkpt>
      <trkpt lat="48.8216" lon="2.11487">
        <ele>127</ele>
        <time>2023-01-28T23:27:53.088Z</time>
      </trkpt>
      <trkpt lat="48.82168" lon="2.11487">
        <ele>127</ele>
        <time>2023-01-28T23:27:57.526Z</time>
      </trkpt>
      <trkpt lat="48.82175" lon="2.11486">
        <ele>127</ele>
        <time>2023-01-28T23:28:02.082Z</time>
      </trkpt>
      <trkpt lat="48.82183" lon="2.11483">
        <ele>129</ele>
        <time>2023-01-28T23:28:06.100Z</time>
      </trkpt>
      <trkpt lat="48.8219" lon="2.11484">
        <ele>129</ele>
        <time>2023-01-28T23:28:10.535Z</time>
      </trkpt>
      <trkpt lat="48.82197" lon="2.11484">
        <ele>129</ele>
        <time>2023-01-28T23:28:15.128Z</time>
      </trkpt>
      <trkpt lat="48.82204" lon="2.11482">
        <ele>129</ele>
        <time>2023-01-28T23:28:19.469Z</time>
      </trkpt>
      <trkpt lat="48.82209" lon="2.11479">
        <ele>130</ele>
        <time>2023-01-28T23:28:23.508Z</time>
      </trkpt>
      <trkpt lat="48.82216" lon="2.11478">
        <ele>130</ele>
        <time>2023-01-28T23:28:27.966Z</time>
      </trkpt>
      <trkpt lat="48.82223" lon="2.11476">
        <ele>130</ele>
        <time>2023-01-28T23:28:32.464Z</time>
      </trkpt>
      <trkpt lat="48.82231" lon="2.11475">
        <ele>130</ele>
        <time>2023-01-28T23:28:37.022Z</time>
      </trkpt>
      <trkpt lat="48.82238" lon="2.11473">
        <ele>131</ele>
        <time>2023-01-28T23:28:41.699Z</time>
      </trkpt>
      <trkpt lat="48.82245" lon="2.11472">
        <ele>131</ele>
        <time>2023-01-28T23:28:46.047Z</time>
      </trkpt>
      <trkpt lat="48.82252" lon="2.11471">
        <ele>131</ele>
        <time>2023-01-28T23:28:50.093Z</time>
      </trkpt>
      <trkpt lat="48.82259" lon="2.11472">
        <ele>131</ele>
        <time>2023-01-28T23:28:54.130Z</time>
      </trkpt>
      <trkpt lat="48.82266" lon="2.1147">
        <ele>131</ele>
        <time>2023-01-28T23:28:58.667Z</time>
      </trkpt>
      <trkpt lat="48.82272" lon="2.11468">
        <ele>131</ele>
        <time>2023-01-28T23:29:03.366Z</time>
      </trkpt>
      <trkpt lat="48.82278" lon="2.11465">
        <ele>131</ele>
        <time>2023-01-28T23:29:08.066Z</time>
      </trkpt>
      <trkpt lat="48.82283" lon="2.11461">
        <ele>131</ele>
        <time>2023-01-28T23:29:12.239Z</time>
      </trkpt>
      <trkpt lat="48.82288" lon="2.11459">
        <ele>131</ele>
        <time>2023-01-28T23:29:16.817Z</time>
      </trkpt>
      <trkpt lat="48.82291" lon="2.11459">
        <ele>131</ele>
        <time>2023-01-28T23:29:21.396Z</time>
      </trkpt>
      <trkpt lat="48.82296" lon="2.11458">
        <ele>130</ele>
        <time>2023-01-28T23:29:25.836Z</time>
      </trkpt>
      <trkpt lat="48.82303" lon="2.11458">
        <ele>130</ele>
        <time>2023-01-28T23:29:30.254Z</time>
      </trkpt>
      <trkpt lat="48.82309" lon="2.11459">
        <ele>132</ele>
        <time>2023-01-28T23:29:34.712Z</time>
      </trkpt>
      <trkpt lat="48.82316" lon="2.11458">
        <ele>130</ele>
        <time>2023-01-28T23:29:39.149Z</time>
      </trkpt>
      <trkpt lat="48.82324" lon="2.11456">
        <ele>132</ele>
        <time>2023-01-28T23:29:43.836Z</time>
      </trkpt>
      <trkpt lat="48.82331" lon="2.11454">
        <ele>132</ele>
        <time>2023-01-28T23:29:47.836Z</time>
      </trkpt>
      <trkpt lat="48.82337" lon="2.11453">
        <ele>132</ele>
        <time>2023-01-28T23:29:52.401Z</time>
      </trkpt>
      <trkpt lat="48.82344" lon="2.11451">
        <ele>132</ele>
        <time>2023-01-28T23:29:56.958Z</time>
      </trkpt>
      <trkpt lat="48.8235" lon="2.11451">
        <ele>135</ele>
        <time>2023-01-28T23:30:01.178Z</time>
      </trkpt>
      <trkpt lat="48.82355" lon="2.1145">
        <ele>135</ele>
        <time>2023-01-28T23:30:05.200Z</time>
      </trkpt>
      <trkpt lat="48.82361" lon="2.11449">
        <ele>135</ele>
        <time>2023-01-28T23:30:09.836Z</time>
      </trkpt>
      <trkpt lat="48.82367" lon="2.11447">
        <ele>135</ele>
        <time>2023-01-28T23:30:13.717Z</time>
      </trkpt>
      <trkpt lat="48.82375" lon="2.11444">
        <ele>135</ele>
        <time>2023-01-28T23:30:18.097Z</time>
      </trkpt>
      <trkpt lat="48.8238" lon="2.11441">
        <ele>135</ele>
        <time>2023-01-28T23:30:22.739Z</time>
      </trkpt>
      <trkpt lat="48.82385" lon="2.1144">
        <ele>135</ele>
        <time>2023-01-28T23:30:26.781Z</time>
      </trkpt>
      <trkpt lat="48.82391" lon="2.11438">
        <ele>135</ele>
        <time>2023-01-28T23:30:30.952Z</time>
      </trkpt>
      <trkpt lat="48.82399" lon="2.11438">
        <ele>135</ele>
        <time>2023-01-28T23:30:35.441Z</time>
      </trkpt>
      <trkpt lat="48.82407" lon="2.11435">
        <ele>135</ele>
        <time>2023-01-28T23:30:40.242Z</time>
      </trkpt>
      <trkpt lat="48.82413" lon="2.11434">
        <ele>135</ele>
        <time>2023-01-28T23:30:44.179Z</time>
      </trkpt>
      <trkpt lat="48.82423" lon="2.11432">
        <ele>135</ele>
        <time>2023-01-28T23:30:49.060Z</time>
      </trkpt>
      <trkpt lat="48.82429" lon="2.11431">
        <ele>135</ele>
        <time>2023-01-28T23:30:53.861Z</time>
      </trkpt>
      <trkpt lat="48.82434" lon="2.11429">
        <ele>135</ele>
        <time>2023-01-28T23:30:57.919Z</time>
      </trkpt>
      <trkpt lat="48.8244" lon="2.11428">
        <ele>135</ele>
        <time>2023-01-28T23:31:02.434Z</time>
      </trkpt>
      <trkpt lat="48.82448" lon="2.11425">
        <ele>135</ele>
        <time>2023-01-28T23:31:06.952Z</time>
      </trkpt>
      <trkpt lat="48.82455" lon="2.11425">
        <ele>135</ele>
        <time>2023-01-28T23:31:10.851Z</time>
      </trkpt>
      <trkpt lat="48.82462" lon="2.11423">
        <ele>137</ele>
        <time>2023-01-28T23:31:15.082Z</time>
      </trkpt>
      <trkpt lat="48.8247" lon="2.11421">
        <ele>137</ele>
        <time>2023-01-28T23:31:19.469Z</time>
      </trkpt>
      <trkpt lat="48.82477" lon="2.1142">
        <ele>137</ele>
        <time>2023-01-28T23:31:24.086Z</time>
      </trkpt>
      <trkpt lat="48.82483" lon="2.11419">
        <ele>137</ele>
        <time>2023-01-28T23:31:28.164Z</time>
      </trkpt>
      <trkpt lat="48.8249" lon="2.11418">
        <ele>138</ele>
        <time>2023-01-28T23:31:32.722Z</time>
      </trkpt>
      <trkpt lat="48.82497" lon="2.11416">
        <ele>138</ele>
        <time>2023-01-28T23:31:37.280Z</time>
      </trkpt>
      <trkpt lat="48.82504" lon="2.11414">
        <ele>138</ele>
        <time>2023-01-28T23:31:41.720Z</time>
      </trkpt>
      <trkpt lat="48.82512" lon="2.11411">
        <ele>138</ele>
        <time>2023-01-28T23:31:46.254Z</time>
      </trkpt>
      <trkpt lat="48.82519" lon="2.11407">
        <ele>138</ele>
        <time>2023-01-28T23:31:50.811Z</time>
      </trkpt>
      <trkpt lat="48.82526" lon="2.11405">
        <ele>138</ele>
        <time>2023-01-28T23:31:55.310Z</time>
      </trkpt>
      <trkpt lat="48.82532" lon="2.11404">
        <ele>138</ele>
        <time>2023-01-28T23:31:59.928Z</time>
      </trkpt>
      <trkpt lat="48.82538" lon="2.11402">
        <ele>137</ele>
        <time>2023-01-28T23:32:04.280Z</time>
      </trkpt>
      <trkpt lat="48.82542" lon="2.114">
        <ele>137</ele>
        <time>2023-01-28T23:32:08.279Z</time>
      </trkpt>
      <trkpt lat="48.82547" lon="2.11398">
        <ele>137</ele>
        <time>2023-01-28T23:32:12.488Z</time>
      </trkpt>
      <trkpt lat="48.8255" lon="2.11391">
        <ele>137</ele>
        <time>2023-01-28T23:32:17.085Z</time>
      </trkpt>
      <trkpt lat="48.82549" lon="2.11381">
        <ele>137</ele>
        <time>2023-01-28T23:32:21.285Z</time>
      </trkpt>
      <trkpt lat="48.82549" lon="2.11369">
        <ele>136</ele>
        <time>2023-01-28T23:32:25.824Z</time>
      </trkpt>
      <trkpt lat="48.82551" lon="2.1136">
        <ele>136</ele>
        <time>2023-01-28T23:32:30.084Z</time>
      </trkpt>
      <trkpt lat="48.82554" lon="2.11351">
        <ele>136</ele>
        <time>2023-01-28T23:32:34.585Z</time>
      </trkpt>
      <trkpt lat="48.82557" lon="2.11343">
        <ele>136</ele>
        <time>2023-01-28T23:32:38.804Z</time>
      </trkpt>
      <trkpt lat="48.82562" lon="2.11344">
        <ele>136</ele>
        <time>2023-01-28T23:32:42.945Z</time>
      </trkpt>
      <trkpt lat="48.82568" lon="2.11345">
        <ele>136</ele>
        <time>2023-01-28T23:32:47.012Z</time>
      </trkpt>
      <trkpt lat="48.82574" lon="2.11345">
        <ele>138</ele>
        <time>2023-01-28T23:32:51.593Z</time>
      </trkpt>
      <trkpt lat="48.8258" lon="2.1134">
        <ele>138</ele>
        <time>2023-01-28T23:32:56.095Z</time>
      </trkpt>
      <trkpt lat="48.82587" lon="2.11334">
        <ele>138</ele>
        <time>2023-01-28T23:33:00.376Z</time>
      </trkpt>
      <trkpt lat="48.82594" lon="2.11332">
        <ele>138</ele>
        <time>2023-01-28T23:33:04.536Z</time>
      </trkpt>
      <trkpt lat="48.82602" lon="2.1133">
        <ele>140</ele>
        <time>2023-01-28T23:33:08.933Z</time>
      </trkpt>
      <trkpt lat="48.82609" lon="2.1133">
        <ele>140</ele>
        <time>2023-01-28T23:33:13.118Z</time>
      </trkpt>
      <trkpt lat="48.82614" lon="2.1133">
        <ele>140</ele>
        <time>2023-01-28T23:33:17.160Z</time>
      </trkpt>
      <trkpt lat="48.82619" lon="2.11332">
        <ele>140</ele>
        <time>2023-01-28T23:33:21.663Z</time>
      </trkpt>
      <trkpt lat="48.82623" lon="2.11337">
        <ele>140</ele>
        <time>2023-01-28T23:33:25.771Z</time>
      </trkpt>
      <trkpt lat="48.82628" lon="2.1134">
        <ele>141</ele>
        <time>2023-01-28T23:33:30.275Z</time>
      </trkpt>
      <trkpt lat="48.82633" lon="2.11345">
        <ele>141</ele>
        <time>2023-01-28T23:33:34.798Z</time>
      </trkpt>
      <trkpt lat="48.82638" lon="2.11351">
        <ele>142</ele>
        <time>2023-01-28T23:33:39.301Z</time>
      </trkpt>
      <trkpt lat="48.82642" lon="2.1136">
        <ele>142</ele>
        <time>2023-01-28T23:33:43.836Z</time>
      </trkpt>
      <trkpt lat="48.82646" lon="2.11367">
        <ele>142</ele>
        <time>2023-01-28T23:33:47.907Z</time>
      </trkpt>
      <trkpt lat="48.82651" lon="2.11371">
        <ele>142</ele>
        <time>2023-01-28T23:33:51.910Z</time>
      </trkpt>
      <trkpt lat="48.82657" lon="2.11369">
        <ele>142</ele>
        <time>2023-01-28T23:33:56.146Z</time>
      </trkpt>
      <trkpt lat="48.82664" lon="2.11368">
        <ele>142</ele>
        <time>2023-01-28T23:34:00.511Z</time>
      </trkpt>
      <trkpt lat="48.8267" lon="2.11366">
        <ele>142</ele>
        <time>2023-01-28T23:34:04.944Z</time>
      </trkpt>
      <trkpt lat="48.82677" lon="2.11364">
        <ele>142</ele>
        <time>2023-01-28T23:34:09.171Z</time>
      </trkpt>
      <trkpt lat="48.82684" lon="2.11363">
        <ele>142</ele>
        <time>2023-01-28T23:34:13.669Z</time>
      </trkpt>
      <trkpt lat="48.82691" lon="2.11361">
        <ele>142</ele>
        <time>2023-01-28T23:34:17.527Z</time>
      </trkpt>
      <trkpt lat="48.82697" lon="2.1136">
        <ele>142</ele>
        <time>2023-01-28T23:34:21.947Z</time>
      </trkpt>
      <trkpt lat="48.82703" lon="2.11358">
        <ele>142</ele>
        <time>2023-01-28T23:34:26.148Z</time>
      </trkpt>
      <trkpt lat="48.82709" lon="2.11357">
        <ele>143</ele>
        <time>2023-01-28T23:34:30.288Z</time>
      </trkpt>
      <trkpt lat="48.82713" lon="2.11357">
        <ele>143</ele>
        <time>2023-01-28T23:34:35.080Z</time>
      </trkpt>
      <trkpt lat="48.82719" lon="2.11356">
        <ele>143</ele>
        <time>2023-01-28T23:34:39.067Z</time>
      </trkpt>
      <trkpt lat="48.82726" lon="2.11354">
        <ele>143</ele>
        <time>2023-01-28T23:34:44.047Z</time>
      </trkpt>
      <trkpt lat="48.82732" lon="2.11353">
        <ele>143</ele>
        <time>2023-01-28T23:34:48.466Z</time>
      </trkpt>
      <trkpt lat="48.82739" lon="2.11351">
        <ele>144</ele>
        <time>2023-01-28T23:34:53.164Z</time>
      </trkpt>
      <trkpt lat="48.82746" lon="2.11349">
        <ele>144</ele>
        <time>2023-01-28T23:34:57.723Z</time>
      </trkpt>
      <trkpt lat="48.82753" lon="2.11347">
        <ele>145</ele>
        <time>2023-01-28T23:35:02.146Z</time>
      </trkpt>
      <trkpt lat="48.82759" lon="2.11344">
        <ele>145</ele>
        <time>2023-01-28T23:35:06.563Z</time>
      </trkpt>
      <trkpt lat="48.82766" lon="2.11344">
        <ele>145</ele>
        <time>2023-01-28T23:35:10.836Z</time>
      </trkpt>
      <trkpt lat="48.82773" lon="2.11342">
        <ele>145</ele>
        <time>2023-01-28T23:35:15.103Z</time>
      </trkpt>
      <trkpt lat="48.8278" lon="2.1134">
        <ele>145</ele>
        <time>2023-01-28T23:35:19.383Z</time>
      </trkpt>
      <trkpt lat="48.82787" lon="2.11339">
        <ele>145</ele>
        <time>2023-01-28T23:35:23.525Z</time>
      </trkpt>
      <trkpt lat="48.82794" lon="2.11337">
        <ele>144</ele>
        <time>2023-01-28T23:35:27.424Z</time>
      </trkpt>
      <trkpt lat="48.828" lon="2.11336">
        <ele>144</ele>
        <time>2023-01-28T23:35:31.836Z</time>
      </trkpt>
      <trkpt lat="48.82808" lon="2.11332">
        <ele>144</ele>
        <time>2023-01-28T23:35:36.402Z</time>
      </trkpt>
      <trkpt lat="48.82816" lon="2.11329">
        <ele>144</ele>
        <time>2023-01-28T23:35:40.924Z</time>
      </trkpt>
      <trkpt lat="48.82823" lon="2.11328">
        <ele>142</ele>
        <time>2023-01-28T23:35:44.836Z</time>
      </trkpt>
      <trkpt lat="48.82832" lon="2.11327">
        <ele>142</ele>
        <time>2023-01-28T23:35:49.260Z</time>
      </trkpt>
      <trkpt lat="48.82839" lon="2.11325">
        <ele>142</ele>
        <time>2023-01-28T23:35:53.680Z</time>
      </trkpt>
      <trkpt lat="48.82843" lon="2.11323">
        <ele>142</ele>
        <time>2023-01-28T23:35:58.281Z</time>
      </trkpt>
      <trkpt lat="48.82846" lon="2.11322">
        <ele>142</ele>
        <time>2023-01-28T23:36:02.297Z</time>
      </trkpt>
      <trkpt lat="48.82848" lon="2.11321">
        <ele>141</ele>
        <time>2023-01-28T23:36:06.807Z</time>
      </trkpt>
      <trkpt lat="48.82851" lon="2.11321">
        <ele>141</ele>
        <time>2023-01-28T23:36:10.692Z</time>
      </trkpt>
      <trkpt lat="48.82856" lon="2.1132">
        <ele>141</ele>
        <time>2023-01-28T23:36:15.250Z</time>
      </trkpt>
      <trkpt lat="48.82859" lon="2.11319">
        <ele>142</ele>
        <time>2023-01-28T23:36:19.208Z</time>
      </trkpt>
      <trkpt lat="48.82864" lon="2.11319">
        <ele>142</ele>
        <time>2023-01-28T23:36:23.646Z</time>
      </trkpt>
      <trkpt lat="48.82871" lon="2.11317">
        <ele>142</ele>
        <time>2023-01-28T23:36:28.147Z</time>
      </trkpt>
      <trkpt lat="48.82878" lon="2.11315">
        <ele>142</ele>
        <time>2023-01-28T23:36:32.203Z</time>
      </trkpt>
      <trkpt lat="48.82886" lon="2.11313">
        <ele>142</ele>
        <time>2023-01-28T23:36:36.138Z</time>
      </trkpt>
      <trkpt lat="48.82892" lon="2.11311">
        <ele>142</ele>
        <time>2023-01-28T23:36:40.805Z</time>
      </trkpt>
      <trkpt lat="48.82898" lon="2.1131">
        <ele>142</ele>
        <time>2023-01-28T23:36:44.949Z</time>
      </trkpt>
      <trkpt lat="48.82904" lon="2.11308">
        <ele>141</ele>
        <time>2023-01-28T23:36:49.506Z</time>
      </trkpt>
      <trkpt lat="48.8291" lon="2.11306">
        <ele>141</ele>
        <time>2023-01-28T23:36:53.941Z</time>
      </trkpt>
      <trkpt lat="48.82915" lon="2.11304">
        <ele>141</ele>
        <time>2023-01-28T23:36:58.017Z</time>
      </trkpt>
      <trkpt lat="48.82921" lon="2.11302">
        <ele>141</ele>
        <time>2023-01-28T23:37:02.686Z</time>
      </trkpt>
      <trkpt lat="48.82926" lon="2.11301">
        <ele>141</ele>
        <time>2023-01-28T23:37:06.769Z</time>
      </trkpt>
      <trkpt lat="48.8293" lon="2.11301">
        <ele>141</ele>
        <time>2023-01-28T23:37:11.291Z</time>
      </trkpt>
      <trkpt lat="48.82935" lon="2.11295">
        <ele>139</ele>
        <time>2023-01-28T23:37:15.202Z</time>
      </trkpt>
      <trkpt lat="48.82944" lon="2.11287">
        <ele>139</ele>
        <time>2023-01-28T23:37:19.836Z</time>
      </trkpt>
      <trkpt lat="48.82952" lon="2.11279">
        <ele>139</ele>
        <time>2023-01-28T23:37:24.409Z</time>
      </trkpt>
      <trkpt lat="48.82959" lon="2.11273">
        <ele>137</ele>
        <time>2023-01-28T23:37:28.836Z</time>
      </trkpt>
      <trkpt lat="48.82968" lon="2.11268">
        <ele>137</ele>
        <time>2023-01-28T23:37:33.299Z</time>
      </trkpt>
      <trkpt lat="48.82976" lon="2.11262">
        <ele>138</ele>
        <time>2023-01-28T23:37:38.213Z</time>
      </trkpt>
      <trkpt lat="48.82982" lon="2.11257">
        <ele>138</ele>
        <time>2023-01-28T23:37:42.836Z</time>
      </trkpt>
      <trkpt lat="48.82989" lon="2.11253">
        <ele>136</ele>
        <time>2023-01-28T23:37:47.280Z</time>
      </trkpt>
      <trkpt lat="48.82997" lon="2.11249">
        <ele>136</ele>
        <time>2023-01-28T23:37:51.435Z</time>
      </trkpt>
      <trkpt lat="48.83006" lon="2.11243">
        <ele>136</ele>
        <time>2023-01-28T23:37:55.910Z</time>
      </trkpt>
      <trkpt lat="48.83011" lon="2.11239">
        <ele>136</ele>
        <time>2023-01-28T23:37:59.944Z</time>
      </trkpt>
      <trkpt lat="48.83017" lon="2.11235">
        <ele>135</ele>
        <time>2023-01-28T23:38:04.483Z</time>
      </trkpt>
      <trkpt lat="48.83024" lon="2.11235">
        <ele>135</ele>
        <time>2023-01-28T23:38:08.455Z</time>
      </trkpt>
      <trkpt lat="48.83033" lon="2.11238">
        <ele>135</ele>
        <time>2023-01-28T23:38:13.128Z</time>
      </trkpt>
      <trkpt lat="48.8304" lon="2.11238">
        <ele>135</ele>
        <time>2023-01-28T23:38:17.322Z</time>
      </trkpt>
      <trkpt lat="48.83049" lon="2.1124">
        <ele>134</ele>
        <time>2023-01-28T23:38:21.941Z</time>
      </trkpt>
      <trkpt lat="48.83055" lon="2.11244">
        <ele>134</ele>
        <time>2023-01-28T23:38:25.919Z</time>
      </trkpt>
      <trkpt lat="48.83057" lon="2.11249">
        <ele>134</ele>
        <time>2023-01-28T23:38:30.444Z</time>
      </trkpt>
      <trkpt lat="48.83056" lon="2.11252">
        <ele>134</ele>
        <time>2023-01-28T23:38:34.400Z</time>
      </trkpt>
      <trkpt lat="48.83053" lon="2.11259">
        <ele>134</ele>
        <time>2023-01-28T23:38:38.919Z</time>
      </trkpt>
      <trkpt lat="48.8305" lon="2.11269">
        <ele>134</ele>
        <time>2023-01-28T23:38:43.053Z</time>
      </trkpt>
      <trkpt lat="48.83049" lon="2.11281">
        <ele>134</ele>
        <time>2023-01-28T23:38:47.610Z</time>
      </trkpt>
      <trkpt lat="48.83051" lon="2.11292">
        <ele>134</ele>
        <time>2023-01-28T23:38:52.288Z</time>
      </trkpt>
      <trkpt lat="48.83052" lon="2.11301">
        <ele>135</ele>
        <time>2023-01-28T23:38:56.908Z</time>
      </trkpt>
      <trkpt lat="48.83053" lon="2.11309">
        <ele>135</ele>
        <time>2023-01-28T23:39:00.947Z</time>
      </trkpt>
      <trkpt lat="48.83055" lon="2.11316">
        <ele>135</ele>
        <time>2023-01-28T23:39:04.698Z</time>
      </trkpt>
      <trkpt lat="48.83057" lon="2.11328">
        <ele>135</ele>
        <time>2023-01-28T23:39:09.350Z</time>
      </trkpt>
      <trkpt lat="48.83058" lon="2.11339">
        <ele>135</ele>
        <time>2023-01-28T23:39:13.332Z</time>
      </trkpt>
      <trkpt lat="48.83059" lon="2.11352">
        <ele>135</ele>
        <time>2023-01-28T23:39:17.911Z</time>
      </trkpt>
      <trkpt lat="48.83059" lon="2.11364">
        <ele>135</ele>
        <time>2023-01-28T23:39:21.965Z</time>
      </trkpt>
      <trkpt lat="48.83061" lon="2.11375">
        <ele>135</ele>
        <time>2023-01-28T23:39:26.122Z</time>
      </trkpt>
      <trkpt lat="48.83063" lon="2.11383">
        <ele>135</ele>
        <time>2023-01-28T23:39:30.638Z</time>
      </trkpt>
      <trkpt lat="48.8307" lon="2.11385">
        <ele>135</ele>
        <time>2023-01-28T23:39:35.193Z</time>
      </trkpt>
      <trkpt lat="48.83076" lon="2.11379">
        <ele>135</ele>
        <time>2023-01-28T23:39:39.836Z</time>
      </trkpt>
      <trkpt lat="48.83081" lon="2.11377">
        <ele>135</ele>
        <time>2023-01-28T23:39:44.267Z</time>
      </trkpt>
      <trkpt lat="48.83086" lon="2.11375">
        <ele>135</ele>
        <time>2023-01-28T23:39:48.362Z</time>
      </trkpt>
      <trkpt lat="48.8309" lon="2.1137">
        <ele>135</ele>
        <time>2023-01-28T23:39:52.968Z</time>
      </trkpt>
      <trkpt lat="48.83096" lon="2.11362">
        <ele>135</ele>
        <time>2023-01-28T23:39:57.592Z</time>
      </trkpt>
      <trkpt lat="48.831" lon="2.11353">
        <ele>136</ele>
        <time>2023-01-28T23:40:02.147Z</time>
      </trkpt>
      <trkpt lat="48.83105" lon="2.11346">
        <ele>135</ele>
        <time>2023-01-28T23:40:06.704Z</time>
      </trkpt>
      <trkpt lat="48.8311" lon="2.11342">
        <ele>135</ele>
        <time>2023-01-28T23:40:11.104Z</time>
      </trkpt>
      <trkpt lat="48.83116" lon="2.11338">
        <ele>135</ele>
        <time>2023-01-28T23:40:15.077Z</time>
      </trkpt>
      <trkpt lat="48.83121" lon="2.11334">
        <ele>135</ele>
        <time>2023-01-28T23:40:19.725Z</time>
      </trkpt>
      <trkpt lat="48.83124" lon="2.11331">
        <ele>135</ele>
        <time>2023-01-28T23:40:23.649Z</time>
      </trkpt>
      <trkpt lat="48.83127" lon="2.11327">
        <ele>137</ele>
        <time>2023-01-28T23:40:28.323Z</time>
      </trkpt>
      <trkpt lat="48.83129" lon="2.11321">
        <ele>137</ele>
        <time>2023-01-28T23:40:32.379Z</time>
      </trkpt>
      <trkpt lat="48.83132" lon="2.11314">
        <ele>136</ele>
        <time>2023-01-28T23:40:37.164Z</time>
      </trkpt>
      <trkpt lat="48.83137" lon="2.11307">
        <ele>136</ele>
        <time>2023-01-28T23:40:41.940Z</time>
      </trkpt>
      <trkpt lat="48.83144" lon="2.11304">
        <ele>136</ele>
        <time>2023-01-28T23:40:46.099Z</time>
      </trkpt>
      <trkpt lat="48.83153" lon="2.11298">
        <ele>136</ele>
        <time>2023-01-28T23:40:50.093Z</time>
      </trkpt>
      <trkpt lat="48.83158" lon="2.11291">
        <ele>137</ele>
        <time>2023-01-28T23:40:54.728Z</time>
      </trkpt>
      <trkpt lat="48.83164" lon="2.11287">
        <ele>137</ele>
        <time>2023-01-28T23:40:59.223Z</time>
      </trkpt>
      <trkpt lat="48.83168" lon="2.11287">
        <ele>137</ele>
        <time>2023-01-28T23:41:03.760Z</time>
      </trkpt>
      <trkpt lat="48.83173" lon="2.11285">
        <ele>137</ele>
        <time>2023-01-28T23:41:08.317Z</time>
      </trkpt>
      <trkpt lat="48.83178" lon="2.11283">
        <ele>137</ele>
        <time>2023-01-28T23:41:12.753Z</time>
      </trkpt>
      <trkpt lat="48.83184" lon="2.11281">
        <ele>138</ele>
        <time>2023-01-28T23:41:17.111Z</time>
      </trkpt>
      <trkpt lat="48.83192" lon="2.11279">
        <ele>138</ele>
        <time>2023-01-28T23:41:21.667Z</time>
      </trkpt>
      <trkpt lat="48.83202" lon="2.11276">
        <ele>138</ele>
        <time>2023-01-28T23:41:25.624Z</time>
      </trkpt>
      <trkpt lat="48.83212" lon="2.11274">
        <ele>137</ele>
        <time>2023-01-28T23:41:30.243Z</time>
      </trkpt>
      <trkpt lat="48.8322" lon="2.11273">
        <ele>137</ele>
        <time>2023-01-28T23:41:34.255Z</time>
      </trkpt>
      <trkpt lat="48.83229" lon="2.11271">
        <ele>137</ele>
        <time>2023-01-28T23:41:38.811Z</time>
      </trkpt>
      <trkpt lat="48.83237" lon="2.11269">
        <ele>137</ele>
        <time>2023-01-28T23:41:43.307Z</time>
      </trkpt>
      <trkpt lat="48.83244" lon="2.11267">
        <ele>137</ele>
        <time>2023-01-28T23:41:47.383Z</time>
      </trkpt>
      <trkpt lat="48.8325" lon="2.11265">
        <ele>137</ele>
        <time>2023-01-28T23:41:51.900Z</time>
      </trkpt>
      <trkpt lat="48.83255" lon="2.11263">
        <ele>137</ele>
        <time>2023-01-28T23:41:55.815Z</time>
      </trkpt>
      <trkpt lat="48.83261" lon="2.11261">
        <ele>137</ele>
        <time>2023-01-28T23:42:00.429Z</time>
      </trkpt>
      <trkpt lat="48.83267" lon="2.11258">
        <ele>137</ele>
        <time>2023-01-28T23:42:04.984Z</time>
      </trkpt>
      <trkpt lat="48.83274" lon="2.11256">
        <ele>137</ele>
        <time>2023-01-28T23:42:09.060Z</time>
      </trkpt>
      <trkpt lat="48.83283" lon="2.11257">
        <ele>137</ele>
        <time>2023-01-28T23:42:13.675Z</time>
      </trkpt>
      <trkpt lat="48.83294" lon="2.11256">
        <ele>136</ele>
        <time>2023-01-28T23:42:18.304Z</time>
      </trkpt>
      <trkpt lat="48.83302" lon="2.11256">
        <ele>136</ele>
        <time>2023-01-28T23:42:22.184Z</time>
      </trkpt>
      <trkpt lat="48.8331" lon="2.11254">
        <ele>136</ele>
        <time>2023-01-28T23:42:26.858Z</time>
      </trkpt>
      <trkpt lat="48.83317" lon="2.11252">
        <ele>136</ele>
        <time>2023-01-28T23:42:31.412Z</time>
      </trkpt>
      <trkpt lat="48.83325" lon="2.11251">
        <ele>136</ele>
        <time>2023-01-28T23:42:35.967Z</time>
      </trkpt>
      <trkpt lat="48.83332" lon="2.1125">
        <ele>136</ele>
        <time>2023-01-28T23:42:40.521Z</time>
      </trkpt>
      <trkpt lat="48.83338" lon="2.11248">
        <ele>136</ele>
        <time>2023-01-28T23:42:44.595Z</time>
      </trkpt>
      <trkpt lat="48.83344" lon="2.11246">
        <ele>136</ele>
        <time>2023-01-28T23:42:49.230Z</time>
      </trkpt>
      <trkpt lat="48.83351" lon="2.11246">
        <ele>137</ele>
        <time>2023-01-28T23:42:53.284Z</time>
      </trkpt>
      <trkpt lat="48.83359" lon="2.11245">
        <ele>137</ele>
        <time>2023-01-28T23:42:57.836Z</time>
      </trkpt>
      <trkpt lat="48.83367" lon="2.11244">
        <ele>137</ele>
        <time>2023-01-28T23:43:02.375Z</time>
      </trkpt>
      <trkpt lat="48.83374" lon="2.11244">
        <ele>137</ele>
        <time>2023-01-28T23:43:06.431Z</time>
      </trkpt>
      <trkpt lat="48.83383" lon="2.11245">
        <ele>138</ele>
        <time>2023-01-28T23:43:10.986Z</time>
      </trkpt>
      <trkpt lat="48.83392" lon="2.11248">
        <ele>138</ele>
        <time>2023-01-28T23:43:15.181Z</time>
      </trkpt>
      <trkpt lat="48.834" lon="2.11254">
        <ele>138</ele>
        <time>2023-01-28T23:43:19.711Z</time>
      </trkpt>
      <trkpt lat="48.83406" lon="2.11263">
        <ele>139</ele>
        <time>2023-01-28T23:43:24.170Z</time>
      </trkpt>
      <trkpt lat="48.83412" lon="2.11273">
        <ele>138</ele>
        <time>2023-01-28T23:43:28.903Z</time>
      </trkpt>
      <trkpt lat="48.83418" lon="2.11282">
        <ele>138</ele>
        <time>2023-01-28T23:43:32.950Z</time>
      </trkpt>
      <trkpt lat="48.83423" lon="2.11286">
        <ele>138</ele>
        <time>2023-01-28T23:43:36.774Z</time>
      </trkpt>
      <trkpt lat="48.83429" lon="2.11285">
        <ele>138</ele>
        <time>2023-01-28T23:43:41.264Z</time>
      </trkpt>
      <trkpt lat="48.83434" lon="2.11283">
        <ele>139</ele>
        <time>2023-01-28T23:43:45.284Z</time>
      </trkpt>
      <trkpt lat="48.83434" lon="2.1128">
        <ele>139</ele>
        <time>2023-01-28T23:43:49.959Z</time>
      </trkpt>
      <trkpt lat="48.83435" lon="2.11277">
        <ele>139</ele>
        <time>2023-01-28T23:43:54.455Z</time>
      </trkpt>
      <trkpt lat="48.83438" lon="2.11278">
        <ele>139</ele>
        <time>2023-01-28T23:43:58.409Z</time>
      </trkpt>
      <trkpt lat="48.83444" lon="2.11282">
        <ele>139</ele>
        <time>2023-01-28T23:44:02.908Z</time>
      </trkpt>
      <trkpt lat="48.83453" lon="2.11282">
        <ele>139</ele>
        <time>2023-01-28T23:44:07.397Z</time>
      </trkpt>
      <trkpt lat="48.8346" lon="2.11282">
        <ele>138</ele>
        <time>2023-01-28T23:44:11.352Z</time>
      </trkpt>
      <trkpt lat="48.83468" lon="2.11283">
        <ele>138</ele>
        <time>2023-01-28T23:44:15.948Z</time>
      </trkpt>
      <trkpt lat="48.83476" lon="2.11286">
        <ele>138</ele>
        <time>2023-01-28T23:44:19.980Z</time>
      </trkpt>
      <trkpt lat="48.83485" lon="2.11288">
        <ele>138</ele>
        <time>2023-01-28T23:44:24.474Z</time>
      </trkpt>
      <trkpt lat="48.83492" lon="2.1129">
        <ele>139</ele>
        <time>2023-01-28T23:44:29.148Z</time>
      </trkpt>
      <trkpt lat="48.83499" lon="2.11291">
        <ele>139</ele>
        <time>2023-01-28T23:44:33.222Z</time>
      </trkpt>
      <trkpt lat="48.83506" lon="2.11289">
        <ele>139</ele>
        <time>2023-01-28T23:44:37.836Z</time>
      </trkpt>
      <trkpt lat="48.83511" lon="2.11281">
        <ele>139</ele>
        <time>2023-01-28T23:44:42.390Z</time>
      </trkpt>
      <trkpt lat="48.83514" lon="2.11273">
        <ele>140</ele>
        <time>2023-01-28T23:44:46.945Z</time>
      </trkpt>
      <trkpt lat="48.83519" lon="2.11267">
        <ele>140</ele>
        <time>2023-01-28T23:44:51.380Z</time>
      </trkpt>
      <trkpt lat="48.83523" lon="2.11263">
        <ele>141</ele>
        <time>2023-01-28T23:44:55.924Z</time>
      </trkpt>
      <trkpt lat="48.83527" lon="2.11258">
        <ele>141</ele>
        <time>2023-01-28T23:44:59.952Z</time>
      </trkpt>
      <trkpt lat="48.83529" lon="2.11253">
        <ele>141</ele>
        <time>2023-01-28T23:45:04.062Z</time>
      </trkpt>
      <trkpt lat="48.83531" lon="2.11246">
        <ele>141</ele>
        <time>2023-01-28T23:45:08.063Z</time>
      </trkpt>
      <trkpt lat="48.83532" lon="2.11237">
        <ele>141</ele>
        <time>2023-01-28T23:45:12.807Z</time>
      </trkpt>
      <trkpt lat="48.83535" lon="2.11228">
        <ele>141</ele>
        <time>2023-01-28T23:45:16.802Z</time>
      </trkpt>
      <trkpt lat="48.83534" lon="2.11217">
        <ele>141</ele>
        <time>2023-01-28T23:45:21.338Z</time>
      </trkpt>
      <trkpt lat="48.83531" lon="2.1121">
        <ele>141</ele>
        <time>2023-01-28T23:45:25.413Z</time>
      </trkpt>
      <trkpt lat="48.8353" lon="2.11202">
        <ele>141</ele>
        <time>2023-01-28T23:45:29.967Z</time>
      </trkpt>
      <trkpt lat="48.83531" lon="2.11185">
        <ele>141</ele>
        <time>2023-01-28T23:45:33.922Z</time>
      </trkpt>
      <trkpt lat="48.8353" lon="2.11162">
        <ele>140</ele>
        <time>2023-01-28T23:45:38.476Z</time>
      </trkpt>
      <trkpt lat="48.83527" lon="2.11153">
        <ele>140</ele>
        <time>2023-01-28T23:45:42.512Z</time>
      </trkpt>
      <trkpt lat="48.83522" lon="2.11149">
        <ele>140</ele>
        <time>2023-01-28T23:45:47.187Z</time>
      </trkpt>
      <trkpt lat="48.83517" lon="2.11152">
        <ele>140</ele>
        <time>2023-01-28T23:45:51.862Z</time>
      </trkpt>
      <trkpt lat="48.83515" lon="2.11162">
        <ele>140</ele>
        <time>2023-01-28T23:45:56.536Z</time>
      </trkpt>
      <trkpt lat="48.83517" lon="2.11171">
        <ele>140</ele>
        <time>2023-01-28T23:46:01.090Z</time>
      </trkpt>
      <trkpt lat="48.83521" lon="2.11175">
        <ele>140</ele>
        <time>2023-01-28T23:46:05.646Z</time>
      </trkpt>
      <trkpt lat="48.83529" lon="2.11173">
        <ele>140</ele>
        <time>2023-01-28T23:46:10.306Z</time>
      </trkpt>
      <trkpt lat="48.83535" lon="2.11171">
        <ele>140</ele>
        <time>2023-01-28T23:46:14.217Z</time>
      </trkpt>
      <trkpt lat="48.8354" lon="2.11172">
        <ele>140</ele>
        <time>2023-01-28T23:46:18.771Z</time>
      </trkpt>
      <trkpt lat="48.83548" lon="2.11171">
        <ele>143</ele>
        <time>2023-01-28T23:46:23.445Z</time>
      </trkpt>
      <trkpt lat="48.83554" lon="2.1117">
        <ele>143</ele>
        <time>2023-01-28T23:46:27.985Z</time>
      </trkpt>
      <trkpt lat="48.8356" lon="2.1117">
        <ele>143</ele>
        <time>2023-01-28T23:46:32.075Z</time>
      </trkpt>
      <trkpt lat="48.83565" lon="2.11169">
        <ele>143</ele>
        <time>2023-01-28T23:46:36.629Z</time>
      </trkpt>
      <trkpt lat="48.83569" lon="2.11163">
        <ele>143</ele>
        <time>2023-01-28T23:46:40.705Z</time>
      </trkpt>
      <trkpt lat="48.83573" lon="2.11153">
        <ele>145</ele>
        <time>2023-01-28T23:46:45.206Z</time>
      </trkpt>
      <trkpt lat="48.83575" lon="2.11147">
        <ele>145</ele>
        <time>2023-01-28T23:46:49.176Z</time>
      </trkpt>
      <trkpt lat="48.83578" lon="2.1114">
        <ele>145</ele>
        <time>2023-01-28T23:46:53.729Z</time>
      </trkpt>
      <trkpt lat="48.8358" lon="2.11144">
        <ele>145</ele>
        <time>2023-01-28T23:46:57.682Z</time>
      </trkpt>
      <trkpt lat="48.83585" lon="2.1115">
        <ele>145</ele>
        <time>2023-01-28T23:47:02.306Z</time>
      </trkpt>
      <trkpt lat="48.83589" lon="2.11153">
        <ele>145</ele>
        <time>2023-01-28T23:47:06.267Z</time>
      </trkpt>
      <trkpt lat="48.83593" lon="2.11155">
        <ele>145</ele>
        <time>2023-01-28T23:47:10.699Z</time>
      </trkpt>
      <trkpt lat="48.83598" lon="2.11157">
        <ele>146</ele>
        <time>2023-01-28T23:47:14.652Z</time>
      </trkpt>
      <trkpt lat="48.83606" lon="2.11157">
        <ele>146</ele>
        <time>2023-01-28T23:47:19.323Z</time>
      </trkpt>
      <trkpt lat="48.83613" lon="2.11155">
        <ele>146</ele>
        <time>2023-01-28T23:47:23.756Z</time>
      </trkpt>
      <trkpt lat="48.83622" lon="2.11155">
        <ele>146</ele>
        <time>2023-01-28T23:47:28.308Z</time>
      </trkpt>
      <trkpt lat="48.83629" lon="2.11154">
        <ele>148</ele>
        <time>2023-01-28T23:47:32.836Z</time>
      </trkpt>
      <trkpt lat="48.83635" lon="2.11149">
        <ele>148</ele>
        <time>2023-01-28T23:47:37.294Z</time>
      </trkpt>
      <trkpt lat="48.8364" lon="2.11147">
        <ele>148</ele>
        <time>2023-01-28T23:47:41.130Z</time>
      </trkpt>
      <trkpt lat="48.83646" lon="2.11144">
        <ele>148</ele>
        <time>2023-01-28T23:47:45.564Z</time>
      </trkpt>
      <trkpt lat="48.83652" lon="2.11144">
        <ele>148</ele>
        <time>2023-01-28T23:47:50.078Z</time>
      </trkpt>
      <trkpt lat="48.83657" lon="2.11143">
        <ele>150</ele>
        <time>2023-01-28T23:47:54.474Z</time>
      </trkpt>
      <trkpt lat="48.83665" lon="2.11141">
        <ele>150</ele>
        <time>2023-01-28T23:47:58.311Z</time>
      </trkpt>
      <trkpt lat="48.8367" lon="2.11138">
        <ele>150</ele>
        <time>2023-01-28T23:48:02.836Z</time>
      </trkpt>
      <trkpt lat="48.83677" lon="2.11137">
        <ele>150</ele>
        <time>2023-01-28T23:48:06.762Z</time>
      </trkpt>
      <trkpt lat="48.83684" lon="2.11134">
        <ele>152</ele>
        <time>2023-01-28T23:48:11.434Z</time>
      </trkpt>
      <trkpt lat="48.83692" lon="2.11132">
        <ele>152</ele>
        <time>2023-01-28T23:48:15.988Z</time>
      </trkpt>
      <trkpt lat="48.83696" lon="2.1113">
        <ele>152</ele>
        <time>2023-01-28T23:48:20.540Z</time>
      </trkpt>
      <trkpt lat="48.837" lon="2.11126">
        <ele>152</ele>
        <time>2023-01-28T23:48:24.493Z</time>
      </trkpt>
      <trkpt lat="48.83704" lon="2.11121">
        <ele>151</ele>
        <time>2023-01-28T23:48:29.107Z</time>
      </trkpt>
      <trkpt lat="48.83712" lon="2.11119">
        <ele>152</ele>
        <time>2023-01-28T23:48:33.540Z</time>
      </trkpt>
      <trkpt lat="48.83718" lon="2.11113">
        <ele>152</ele>
        <time>2023-01-28T23:48:38.093Z</time>
      </trkpt>
      <trkpt lat="48.83724" lon="2.11106">
        <ele>152</ele>
        <time>2023-01-28T23:48:42.765Z</time>
      </trkpt>
      <trkpt lat="48.83732" lon="2.111">
        <ele>152</ele>
        <time>2023-01-28T23:48:46.959Z</time>
      </trkpt>
      <trkpt lat="48.83736" lon="2.11093">
        <ele>151</ele>
        <time>2023-01-28T23:48:51.472Z</time>
      </trkpt>
      <trkpt lat="48.8374" lon="2.11082">
        <ele>152</ele>
        <time>2023-01-28T23:48:56.004Z</time>
      </trkpt>
      <trkpt lat="48.83743" lon="2.11075">
        <ele>152</ele>
        <time>2023-01-28T23:49:00.675Z</time>
      </trkpt>
      <trkpt lat="48.83746" lon="2.11069">
        <ele>154</ele>
        <time>2023-01-28T23:49:04.748Z</time>
      </trkpt>
      <trkpt lat="48.8375" lon="2.11064">
        <ele>154</ele>
        <time>2023-01-28T23:49:08.846Z</time>
      </trkpt>
      <trkpt lat="48.83752" lon="2.11059">
        <ele>154</ele>
        <time>2023-01-28T23:49:12.775Z</time>
      </trkpt>
      <trkpt lat="48.83758" lon="2.11057">
        <ele>154</ele>
        <time>2023-01-28T23:49:17.329Z</time>
      </trkpt>
      <trkpt lat="48.83764" lon="2.11053">
        <ele>156</ele>
        <time>2023-01-28T23:49:21.908Z</time>
      </trkpt>
      <trkpt lat="48.8377" lon="2.11049">
        <ele>156</ele>
        <time>2023-01-28T23:49:26.296Z</time>
      </trkpt>
      <trkpt lat="48.83775" lon="2.11039">
        <ele>158</ele>
        <time>2023-01-28T23:49:30.970Z</time>
      </trkpt>
      <trkpt lat="48.83781" lon="2.11027">
        <ele>158</ele>
        <time>2023-01-28T23:49:35.044Z</time>
      </trkpt>
      <trkpt lat="48.83783" lon="2.11017">
        <ele>158</ele>
        <time>2023-01-28T23:49:39.118Z</time>
      </trkpt>
      <trkpt lat="48.83784" lon="2.11007">
        <ele>159</ele>
        <time>2023-01-28T23:49:43.790Z</time>
      </trkpt>
      <trkpt lat="48.83786" lon="2.10996">
        <ele>159</ele>
        <time>2023-01-28T23:49:48.423Z</time>
      </trkpt>
      <trkpt lat="48.83787" lon="2.10987">
        <ele>159</ele>
        <time>2023-01-28T23:49:52.136Z</time>
      </trkpt>
      <trkpt lat="48.83787" lon="2.10976">
        <ele>159</ele>
        <time>2023-01-28T23:49:56.690Z</time>
      </trkpt>
      <trkpt lat="48.83789" lon="2.10966">
        <ele>159</ele>
        <time>2023-01-28T23:50:01.123Z</time>
      </trkpt>
      <trkpt lat="48.83792" lon="2.10955">
        <ele>160</ele>
        <time>2023-01-28T23:50:05.769Z</time>
      </trkpt>
      <trkpt lat="48.83793" lon="2.10945">
        <ele>160</ele>
        <time>2023-01-28T23:50:09.670Z</time>
      </trkpt>
      <trkpt lat="48.83794" lon="2.10934">
        <ele>160</ele>
        <time>2023-01-28T23:50:14.223Z</time>
      </trkpt>
      <trkpt lat="48.83794" lon="2.10925">
        <ele>160</ele>
        <time>2023-01-28T23:50:18.774Z</time>
      </trkpt>
      <trkpt lat="48.83795" lon="2.10916">
        <ele>160</ele>
        <time>2023-01-28T23:50:23.268Z</time>
      </trkpt>
      <trkpt lat="48.83797" lon="2.10908">
        <ele>160</ele>
        <time>2023-01-28T23:50:27.340Z</time>
      </trkpt>
      <trkpt lat="48.83798" lon="2.109">
        <ele>160</ele>
        <time>2023-01-28T23:50:31.214Z</time>
      </trkpt>
      <trkpt lat="48.83799" lon="2.1089">
        <ele>160</ele>
        <time>2023-01-28T23:50:35.892Z</time>
      </trkpt>
      <trkpt lat="48.838" lon="2.10881">
        <ele>160</ele>
        <time>2023-01-28T23:50:40.402Z</time>
      </trkpt>
      <trkpt lat="48.83801" lon="2.10871">
        <ele>159</ele>
        <time>2023-01-28T23:50:44.332Z</time>
      </trkpt>
      <trkpt lat="48.83802" lon="2.10861">
        <ele>159</ele>
        <time>2023-01-28T23:50:48.764Z</time>
      </trkpt>
      <trkpt lat="48.83804" lon="2.10849">
        <ele>159</ele>
        <time>2023-01-28T23:50:53.554Z</time>
      </trkpt>
      <trkpt lat="48.83804" lon="2.1084">
        <ele>158</ele>
        <time>2023-01-28T23:50:57.387Z</time>
      </trkpt>
      <trkpt lat="48.83806" lon="2.10831">
        <ele>158</ele>
        <time>2023-01-28T23:51:01.936Z</time>
      </trkpt>
      <trkpt lat="48.83807" lon="2.1082">
        <ele>158</ele>
        <time>2023-01-28T23:51:06.127Z</time>
      </trkpt>
      <trkpt lat="48.83809" lon="2.10812">
        <ele>156</ele>
        <time>2023-01-28T23:51:10.080Z</time>
      </trkpt>
      <trkpt lat="48.8381" lon="2.10803">
        <ele>156</ele>
        <time>2023-01-28T23:51:14.746Z</time>
      </trkpt>
      <trkpt lat="48.8381" lon="2.10795">
        <ele>156</ele>
        <time>2023-01-28T23:51:18.942Z</time>
      </trkpt>
      <trkpt lat="48.83811" lon="2.10785">
        <ele>154</ele>
        <time>2023-01-28T23:51:23.473Z</time>
      </trkpt>
      <trkpt lat="48.83812" lon="2.10775">
        <ele>154</ele>
        <time>2023-01-28T23:51:27.486Z</time>
      </trkpt>
      <trkpt lat="48.83813" lon="2.10766">
        <ele>154</ele>
        <time>2023-01-28T23:51:31.559Z</time>
      </trkpt>
      <trkpt lat="48.83814" lon="2.10757">
        <ele>153</ele>
        <time>2023-01-28T23:51:35.471Z</time>
      </trkpt>
      <trkpt lat="48.83814" lon="2.10746">
        <ele>153</ele>
        <time>2023-01-28T23:51:40.123Z</time>
      </trkpt>
      <trkpt lat="48.83815" lon="2.10736">
        <ele>152</ele>
        <time>2023-01-28T23:51:44.674Z</time>
      </trkpt>
      <trkpt lat="48.83816" lon="2.10725">
        <ele>152</ele>
        <time>2023-01-28T23:51:49.346Z</time>
      </trkpt>
      <trkpt lat="48.83817" lon="2.10716">
        <ele>152</ele>
        <time>2023-01-28T23:51:53.424Z</time>
      </trkpt>
      <trkpt lat="48.83818" lon="2.10706">
        <ele>150</ele>
        <time>2023-01-28T23:51:57.922Z</time>
      </trkpt>
      <trkpt lat="48.83819" lon="2.10696">
        <ele>150</ele>
        <time>2023-01-28T23:52:02.309Z</time>
      </trkpt>
      <trkpt lat="48.8382" lon="2.10687">
        <ele>153</ele>
        <time>2023-01-28T23:52:06.297Z</time>
      </trkpt>
      <trkpt lat="48.83821" lon="2.10675">
        <ele>152</ele>
        <time>2023-01-28T23:52:10.968Z</time>
      </trkpt>
      <trkpt lat="48.8382" lon="2.10664">
        <ele>152</ele>
        <time>2023-01-28T23:52:15.401Z</time>
      </trkpt>
      <trkpt lat="48.83821" lon="2.10656">
        <ele>152</ele>
        <time>2023-01-28T23:52:19.952Z</time>
      </trkpt>
      <trkpt lat="48.83822" lon="2.10647">
        <ele>149</ele>
        <time>2023-01-28T23:52:24.468Z</time>
      </trkpt>
      <trkpt lat="48.83823" lon="2.10639">
        <ele>149</ele>
        <time>2023-01-28T23:52:28.438Z</time>
      </trkpt>
      <trkpt lat="48.83822" lon="2.1063">
        <ele>149</ele>
        <time>2023-01-28T23:52:32.909Z</time>
      </trkpt>
      <trkpt lat="48.83821" lon="2.10616">
        <ele>147</ele>
        <time>2023-01-28T23:52:37.769Z</time>
      </trkpt>
      <trkpt lat="48.83819" lon="2.10599">
        <ele>147</ele>
        <time>2023-01-28T23:52:42.283Z</time>
      </trkpt>
      <trkpt lat="48.83818" lon="2.10588">
        <ele>146</ele>
        <time>2023-01-28T23:52:46.807Z</time>
      </trkpt>
      <trkpt lat="48.83816" lon="2.10581">
        <ele>146</ele>
        <time>2023-01-28T23:52:51.316Z</time>
      </trkpt>
      <trkpt lat="48.83819" lon="2.10568">
        <ele>146</ele>
        <time>2023-01-28T23:52:55.320Z</time>
      </trkpt>
      <trkpt lat="48.83816" lon="2.10555">
        <ele>146</ele>
        <time>2023-01-28T23:52:59.520Z</time>
      </trkpt>
      <trkpt lat="48.83815" lon="2.10543">
        <ele>146</ele>
        <time>2023-01-28T23:53:04.022Z</time>
      </trkpt>
      <trkpt lat="48.83815" lon="2.10531">
        <ele>146</ele>
        <time>2023-01-28T23:53:08.544Z</time>
      </trkpt>
      <trkpt lat="48.83814" lon="2.10522">
        <ele>146</ele>
        <time>2023-01-28T23:53:12.942Z</time>
      </trkpt>
      <trkpt lat="48.83816" lon="2.10512">
        <ele>145</ele>
        <time>2023-01-28T23:53:17.101Z</time>
      </trkpt>
      <trkpt lat="48.83817" lon="2.10503">
        <ele>145</ele>
        <time>2023-01-28T23:53:21.078Z</time>
      </trkpt>
      <trkpt lat="48.83816" lon="2.10492">
        <ele>145</ele>
        <time>2023-01-28T23:53:25.556Z</time>
      </trkpt>
      <trkpt lat="48.83817" lon="2.10482">
        <ele>145</ele>
        <time>2023-01-28T23:53:30.114Z</time>
      </trkpt>
      <trkpt lat="48.83818" lon="2.10471">
        <ele>145</ele>
        <time>2023-01-28T23:53:34.550Z</time>
      </trkpt>
      <trkpt lat="48.83819" lon="2.10461">
        <ele>145</ele>
        <time>2023-01-28T23:53:38.627Z</time>
      </trkpt>
      <trkpt lat="48.83819" lon="2.10451">
        <ele>146</ele>
        <time>2023-01-28T23:53:43.165Z</time>
      </trkpt>
      <trkpt lat="48.8382" lon="2.10442">
        <ele>149</ele>
        <time>2023-01-28T23:53:47.302Z</time>
      </trkpt>
      <trkpt lat="48.8382" lon="2.10431">
        <ele>149</ele>
        <time>2023-01-28T23:53:51.836Z</time>
      </trkpt>
      <trkpt lat="48.83822" lon="2.1042">
        <ele>150</ele>
        <time>2023-01-28T23:53:56.357Z</time>
      </trkpt>
      <trkpt lat="48.83822" lon="2.10411">
        <ele>150</ele>
        <time>2023-01-28T23:54:00.074Z</time>
      </trkpt>
      <trkpt lat="48.83822" lon="2.10401">
        <ele>151</ele>
        <time>2023-01-28T23:54:04.510Z</time>
      </trkpt>
      <trkpt lat="48.83822" lon="2.10391">
        <ele>151</ele>
        <time>2023-01-28T23:54:08.970Z</time>
      </trkpt>
      <trkpt lat="48.83822" lon="2.10382">
        <ele>151</ele>
        <time>2023-01-28T23:54:13.022Z</time>
      </trkpt>
      <trkpt lat="48.83823" lon="2.10372">
        <ele>152</ele>
        <time>2023-01-28T23:54:17.534Z</time>
      </trkpt>
      <trkpt lat="48.83824" lon="2.10362">
        <ele>152</ele>
        <time>2023-01-28T23:54:22.088Z</time>
      </trkpt>
      <trkpt lat="48.83824" lon="2.10353">
        <ele>152</ele>
        <time>2023-01-28T23:54:26.163Z</time>
      </trkpt>
      <trkpt lat="48.83824" lon="2.10344">
        <ele>151</ele>
        <time>2023-01-28T23:54:30.358Z</time>
      </trkpt>
      <trkpt lat="48.83825" lon="2.10336">
        <ele>151</ele>
        <time>2023-01-28T23:54:34.434Z</time>
      </trkpt>
      <trkpt lat="48.83825" lon="2.10326">
        <ele>151</ele>
        <time>2023-01-28T23:54:38.803Z</time>
      </trkpt>
      <trkpt lat="48.83826" lon="2.10316">
        <ele>152</ele>
        <time>2023-01-28T23:54:42.824Z</time>
      </trkpt>
      <trkpt lat="48.83825" lon="2.10307">
        <ele>152</ele>
        <time>2023-01-28T23:54:47.379Z</time>
      </trkpt>
      <trkpt lat="48.83825" lon="2.10297">
        <ele>152</ele>
        <time>2023-01-28T23:54:51.969Z</time>
      </trkpt>
      <trkpt lat="48.83825" lon="2.10287">
        <ele>153</ele>
        <time>2023-01-28T23:54:55.950Z</time>
      </trkpt>
      <trkpt lat="48.83824" lon="2.10278">
        <ele>153</ele>
        <time>2023-01-28T23:55:00.148Z</time>
      </trkpt>
      <trkpt lat="48.83825" lon="2.10269">
        <ele>153</ele>
        <time>2023-01-28T23:55:04.104Z</time>
      </trkpt>
      <trkpt lat="48.83825" lon="2.10257">
        <ele>153</ele>
        <time>2023-01-28T23:55:08.959Z</time>
      </trkpt>
      <trkpt lat="48.83825" lon="2.1025">
        <ele>153</ele>
        <time>2023-01-28T23:55:12.969Z</time>
      </trkpt>
      <trkpt lat="48.83824" lon="2.10245">
        <ele>153</ele>
        <time>2023-01-28T23:55:17.309Z</time>
      </trkpt>
      <trkpt lat="48.83822" lon="2.10235">
        <ele>153</ele>
        <time>2023-01-28T23:55:21.366Z</time>
      </trkpt>
      <trkpt lat="48.83822" lon="2.10225">
        <ele>153</ele>
        <time>2023-01-28T23:55:25.306Z</time>
      </trkpt>
      <trkpt lat="48.83824" lon="2.10215">
        <ele>153</ele>
        <time>2023-01-28T23:55:29.342Z</time>
      </trkpt>
      <trkpt lat="48.83827" lon="2.10204">
        <ele>152</ele>
        <time>2023-01-28T23:55:33.359Z</time>
      </trkpt>
      <trkpt lat="48.83827" lon="2.10194">
        <ele>152</ele>
        <time>2023-01-28T23:55:37.945Z</time>
      </trkpt>
      <trkpt lat="48.83827" lon="2.10183">
        <ele>152</ele>
        <time>2023-01-28T23:55:42.473Z</time>
      </trkpt>
      <trkpt lat="48.83828" lon="2.10173">
        <ele>150</ele>
        <time>2023-01-28T23:55:47.148Z</time>
      </trkpt>
      <trkpt lat="48.83829" lon="2.10164">
        <ele>150</ele>
        <time>2023-01-28T23:55:51.104Z</time>
      </trkpt>
      <trkpt lat="48.8383" lon="2.10152">
        <ele>149</ele>
        <time>2023-01-28T23:55:55.539Z</time>
      </trkpt>
      <trkpt lat="48.83832" lon="2.1014">
        <ele>149</ele>
        <time>2023-01-28T23:55:59.614Z</time>
      </trkpt>
      <trkpt lat="48.83832" lon="2.1013">
        <ele>149</ele>
        <time>2023-01-28T23:56:03.689Z</time>
      </trkpt>
      <trkpt lat="48.83834" lon="2.10118">
        <ele>149</ele>
        <time>2023-01-28T23:56:08.305Z</time>
      </trkpt>
      <trkpt lat="48.83836" lon="2.10107">
        <ele>149</ele>
        <time>2023-01-28T23:56:12.739Z</time>
      </trkpt>
      <trkpt lat="48.83837" lon="2.10096">
        <ele>149</ele>
        <time>2023-01-28T23:56:17.173Z</time>
      </trkpt>
      <trkpt lat="48.83838" lon="2.10085">
        <ele>149</ele>
        <time>2023-01-28T23:56:21.888Z</time>
      </trkpt>
      <trkpt lat="48.83838" lon="2.10076">
        <ele>149</ele>
        <time>2023-01-28T23:56:25.803Z</time>
      </trkpt>
      <trkpt lat="48.8384" lon="2.10064">
        <ele>150</ele>
        <time>2023-01-28T23:56:30.357Z</time>
      </trkpt>
      <trkpt lat="48.83842" lon="2.10054">
        <ele>150</ele>
        <time>2023-01-28T23:56:34.431Z</time>
      </trkpt>
      <trkpt lat="48.83843" lon="2.10043">
        <ele>150</ele>
        <time>2023-01-28T23:56:38.836Z</time>
      </trkpt>
      <trkpt lat="48.83843" lon="2.1003">
        <ele>152</ele>
        <time>2023-01-28T23:56:43.296Z</time>
      </trkpt>
      <trkpt lat="48.83845" lon="2.10022">
        <ele>152</ele>
        <time>2023-01-28T23:56:47.832Z</time>
      </trkpt>
      <trkpt lat="48.83846" lon="2.10013">
        <ele>152</ele>
        <time>2023-01-28T23:56:51.786Z</time>
      </trkpt>
      <trkpt lat="48.83847" lon="2.10003">
        <ele>152</ele>
        <time>2023-01-28T23:56:55.802Z</time>
      </trkpt>
      <trkpt lat="48.83848" lon="2.09992">
        <ele>155</ele>
        <time>2023-01-28T23:57:00.355Z</time>
      </trkpt>
      <trkpt lat="48.8385" lon="2.09981">
        <ele>154</ele>
        <time>2023-01-28T23:57:04.429Z</time>
      </trkpt>
      <trkpt lat="48.83851" lon="2.0997">
        <ele>154</ele>
        <time>2023-01-28T23:57:08.964Z</time>
      </trkpt>
      <trkpt lat="48.83853" lon="2.0996">
        <ele>154</ele>
        <time>2023-01-28T23:57:13.122Z</time>
      </trkpt>
      <trkpt lat="48.83854" lon="2.09951">
        <ele>152</ele>
        <time>2023-01-28T23:57:17.535Z</time>
      </trkpt>
      <trkpt lat="48.83855" lon="2.09941">
        <ele>152</ele>
        <time>2023-01-28T23:57:21.491Z</time>
      </trkpt>
      <trkpt lat="48.83855" lon="2.09933">
        <ele>152</ele>
        <time>2023-01-28T23:57:25.566Z</time>
      </trkpt>
      <trkpt lat="48.83856" lon="2.09923">
        <ele>150</ele>
        <time>2023-01-28T23:57:30.120Z</time>
      </trkpt>
      <trkpt lat="48.83856" lon="2.09914">
        <ele>150</ele>
        <time>2023-01-28T23:57:34.075Z</time>
      </trkpt>
      <trkpt lat="48.83858" lon="2.09904">
        <ele>150</ele>
        <time>2023-01-28T23:57:38.764Z</time>
      </trkpt>
      <trkpt lat="48.83858" lon="2.09893">
        <ele>148</ele>
        <time>2023-01-28T23:57:43.265Z</time>
      </trkpt>
      <trkpt lat="48.83859" lon="2.09883">
        <ele>148</ele>
        <time>2023-01-28T23:57:47.581Z</time>
      </trkpt>
      <trkpt lat="48.83859" lon="2.09869">
        <ele>148</ele>
        <time>2023-01-28T23:57:52.135Z</time>
      </trkpt>
      <trkpt lat="48.8386" lon="2.09859">
        <ele>148</ele>
        <time>2023-01-28T23:57:56.691Z</time>
      </trkpt>
      <trkpt lat="48.83861" lon="2.09848">
        <ele>148</ele>
        <time>2023-01-28T23:58:01.244Z</time>
      </trkpt>
      <trkpt lat="48.83861" lon="2.09836">
        <ele>148</ele>
        <time>2023-01-28T23:58:05.764Z</time>
      </trkpt>
      <trkpt lat="48.83861" lon="2.09826">
        <ele>148</ele>
        <time>2023-01-28T23:58:09.917Z</time>
      </trkpt>
      <trkpt lat="48.8386" lon="2.09816">
        <ele>147</ele>
        <time>2023-01-28T23:58:14.548Z</time>
      </trkpt>
      <trkpt lat="48.83861" lon="2.09808">
        <ele>147</ele>
        <time>2023-01-28T23:58:18.530Z</time>
      </trkpt>
      <trkpt lat="48.83862" lon="2.09799">
        <ele>147</ele>
        <time>2023-01-28T23:58:22.963Z</time>
      </trkpt>
      <trkpt lat="48.83861" lon="2.09788">
        <ele>147</ele>
        <time>2023-01-28T23:58:27.464Z</time>
      </trkpt>
      <trkpt lat="48.83862" lon="2.09779">
        <ele>147</ele>
        <time>2023-01-28T23:58:31.954Z</time>
      </trkpt>
      <trkpt lat="48.83862" lon="2.09772">
        <ele>147</ele>
        <time>2023-01-28T23:58:35.959Z</time>
      </trkpt>
      <trkpt lat="48.83862" lon="2.09759">
        <ele>146</ele>
        <time>2023-01-28T23:58:40.489Z</time>
      </trkpt>
      <trkpt lat="48.83862" lon="2.0975">
        <ele>146</ele>
        <time>2023-01-28T23:58:44.691Z</time>
      </trkpt>
      <trkpt lat="48.83862" lon="2.09738">
        <ele>146</ele>
        <time>2023-01-28T23:58:49.127Z</time>
      </trkpt>
      <trkpt lat="48.83862" lon="2.09727">
        <ele>145</ele>
        <time>2023-01-28T23:58:53.666Z</time>
      </trkpt>
      <trkpt lat="48.83863" lon="2.09716">
        <ele>145</ele>
        <time>2023-01-28T23:58:57.637Z</time>
      </trkpt>
      <trkpt lat="48.83864" lon="2.09706">
        <ele>143</ele>
        <time>2023-01-28T23:59:02.072Z</time>
      </trkpt>
      <trkpt lat="48.83864" lon="2.09696">
        <ele>143</ele>
        <time>2023-01-28T23:59:06.506Z</time>
      </trkpt>
      <trkpt lat="48.83864" lon="2.09685">
        <ele>143</ele>
        <time>2023-01-28T23:59:11.179Z</time>
      </trkpt>
      <trkpt lat="48.83864" lon="2.09674">
        <ele>142</ele>
        <time>2023-01-28T23:59:15.570Z</time>
      </trkpt>
      <trkpt lat="48.83864" lon="2.09665">
        <ele>142</ele>
        <time>2023-01-28T23:59:19.964Z</time>
      </trkpt>
      <trkpt lat="48.83864" lon="2.09653">
        <ele>142</ele>
        <time>2023-01-28T23:59:24.465Z</time>
      </trkpt>
      <trkpt lat="48.83865" lon="2.09643">
        <ele>141</ele>
        <time>2023-01-28T23:59:28.963Z</time>
      </trkpt>
      <trkpt lat="48.83866" lon="2.09632">
        <ele>141</ele>
        <time>2023-01-28T23:59:33.507Z</time>
      </trkpt>
      <trkpt lat="48.83865" lon="2.09622">
        <ele>141</ele>
        <time>2023-01-28T23:59:37.407Z</time>
      </trkpt>
      <trkpt lat="48.83864" lon="2.09611">
        <ele>141</ele>
        <time>2023-01-28T23:59:41.942Z</time>
      </trkpt>
      <trkpt lat="48.83862" lon="2.096">
        <ele>141</ele>
        <time>2023-01-28T23:59:46.136Z</time>
      </trkpt>
      <trkpt lat="48.83861" lon="2.09589">
        <ele>142</ele>
        <time>2023-01-28T23:59:50.962Z</time>
      </trkpt>
      <trkpt lat="48.83859" lon="2.0958">
        <ele>142</ele>
        <time>2023-01-28T23:59:54.971Z</time>
      </trkpt>
      <trkpt lat="48.83858" lon="2.09569">
        <ele>142</ele>
        <time>2023-01-28T23:59:59.384Z</time>
      </trkpt>
      <trkpt lat="48.83855" lon="2.09558">
        <ele>142</ele>
        <time>2023-01-29T00:00:03.836Z</time>
      </trkpt>
      <trkpt lat="48.83853" lon="2.09547">
        <ele>142</ele>
        <time>2023-01-29T00:00:08.294Z</time>
      </trkpt>
      <trkpt lat="48.83852" lon="2.09537">
        <ele>142</ele>
        <time>2023-01-29T00:00:12.836Z</time>
      </trkpt>
      <trkpt lat="48.83851" lon="2.09527">
        <ele>142</ele>
        <time>2023-01-29T00:00:17.326Z</time>
      </trkpt>
      <trkpt lat="48.83849" lon="2.09519">
        <ele>142</ele>
        <time>2023-01-29T00:00:21.836Z</time>
      </trkpt>
      <trkpt lat="48.83847" lon="2.09507">
        <ele>140</ele>
        <time>2023-01-29T00:00:26.436Z</time>
      </trkpt>
      <trkpt lat="48.83845" lon="2.09496">
        <ele>134</ele>
        <time>2023-01-29T00:00:30.958Z</time>
      </trkpt>
      <trkpt lat="48.83844" lon="2.09486">
        <ele>134</ele>
        <time>2023-01-29T00:00:35.088Z</time>
      </trkpt>
      <trkpt lat="48.83842" lon="2.09477">
        <ele>135</ele>
        <time>2023-01-29T00:00:39.547Z</time>
      </trkpt>
      <trkpt lat="48.8384" lon="2.09466">
        <ele>135</ele>
        <time>2023-01-29T00:00:44.581Z</time>
      </trkpt>
      <trkpt lat="48.83839" lon="2.09452">
        <ele>135</ele>
        <time>2023-01-29T00:00:49.375Z</time>
      </trkpt>
      <trkpt lat="48.83838" lon="2.09442">
        <ele>135</ele>
        <time>2023-01-29T00:00:53.909Z</time>
      </trkpt>
      <trkpt lat="48.8384" lon="2.09432">
        <ele>135</ele>
        <time>2023-01-29T00:00:57.963Z</time>
      </trkpt>
      <trkpt lat="48.83841" lon="2.09422">
        <ele>134</ele>
        <time>2023-01-29T00:01:02.516Z</time>
      </trkpt>
      <trkpt lat="48.83841" lon="2.09413">
        <ele>134</ele>
        <time>2023-01-29T00:01:06.983Z</time>
      </trkpt>
      <trkpt lat="48.83843" lon="2.09403">
        <ele>134</ele>
        <time>2023-01-29T00:01:11.505Z</time>
      </trkpt>
      <trkpt lat="48.83845" lon="2.09395">
        <ele>134</ele>
        <time>2023-01-29T00:01:15.460Z</time>
      </trkpt>
      <trkpt lat="48.83847" lon="2.09385">
        <ele>134</ele>
        <time>2023-01-29T00:01:19.849Z</time>
      </trkpt>
      <trkpt lat="48.83849" lon="2.09376">
        <ele>137</ele>
        <time>2023-01-29T00:01:23.846Z</time>
      </trkpt>
      <trkpt lat="48.83852" lon="2.09368">
        <ele>139</ele>
        <time>2023-01-29T00:01:27.849Z</time>
      </trkpt>
      <trkpt lat="48.83857" lon="2.09362">
        <ele>139</ele>
        <time>2023-01-29T00:01:31.836Z</time>
      </trkpt>
      <trkpt lat="48.83862" lon="2.09357">
        <ele>139</ele>
        <time>2023-01-29T00:01:36.409Z</time>
      </trkpt>
      <trkpt lat="48.83866" lon="2.09355">
        <ele>139</ele>
        <time>2023-01-29T00:01:40.943Z</time>
      </trkpt>
      <trkpt lat="48.83871" lon="2.09352">
        <ele>139</ele>
        <time>2023-01-29T00:01:44.836Z</time>
      </trkpt>
      <trkpt lat="48.83877" lon="2.09351">
        <ele>144</ele>
        <time>2023-01-29T00:01:49.395Z</time>
      </trkpt>
      <trkpt lat="48.83882" lon="2.0935">
        <ele>144</ele>
        <time>2023-01-29T00:01:53.392Z</time>
      </trkpt>
      <trkpt lat="48.83886" lon="2.0935">
        <ele>144</ele>
        <time>2023-01-29T00:01:57.741Z</time>
      </trkpt>
      <trkpt lat="48.8389" lon="2.09347">
        <ele>146</ele>
        <time>2023-01-29T00:02:01.745Z</time>
      </trkpt>
      <trkpt lat="48.83894" lon="2.09342">
        <ele>146</ele>
        <time>2023-01-29T00:02:05.556Z</time>
      </trkpt>
      <trkpt lat="48.83899" lon="2.09336">
        <ele>146</ele>
        <time>2023-01-29T00:02:10.331Z</time>
      </trkpt>
      <trkpt lat="48.83905" lon="2.09329">
        <ele>151</ele>
        <time>2023-01-29T00:02:14.836Z</time>
      </trkpt>
      <trkpt lat="48.8391" lon="2.09323">
        <ele>151</ele>
        <time>2023-01-29T00:02:19.227Z</time>
      </trkpt>
      <trkpt lat="48.83914" lon="2.09316">
        <ele>152</ele>
        <time>2023-01-29T00:02:23.283Z</time>
      </trkpt>
      <trkpt lat="48.83919" lon="2.09309">
        <ele>152</ele>
        <time>2023-01-29T00:02:27.301Z</time>
      </trkpt>
      <trkpt lat="48.83923" lon="2.09302">
        <ele>152</ele>
        <time>2023-01-29T00:02:31.616Z</time>
      </trkpt>
      <trkpt lat="48.83938" lon="2.09292">
        <ele>157</ele>
        <time>2023-01-29T00:02:36.291Z</time>
      </trkpt>
      <trkpt lat="48.83942" lon="2.09281">
        <ele>157</ele>
        <time>2023-01-29T00:02:40.836Z</time>
      </trkpt>
      <trkpt lat="48.83945" lon="2.09275">
        <ele>157</ele>
        <time>2023-01-29T00:02:44.683Z</time>
      </trkpt>
      <trkpt lat="48.83946" lon="2.09268">
        <ele>157</ele>
        <time>2023-01-29T00:02:48.581Z</time>
      </trkpt>
      <trkpt lat="48.83946" lon="2.09263">
        <ele>156</ele>
        <time>2023-01-29T00:02:53.256Z</time>
      </trkpt>
      <trkpt lat="48.8395" lon="2.09256">
        <ele>156</ele>
        <time>2023-01-29T00:02:57.754Z</time>
      </trkpt>
      <trkpt lat="48.83954" lon="2.09247">
        <ele>156</ele>
        <time>2023-01-29T00:03:02.293Z</time>
      </trkpt>
      <trkpt lat="48.83956" lon="2.09241">
        <ele>156</ele>
        <time>2023-01-29T00:03:06.130Z</time>
      </trkpt>
      <trkpt lat="48.83957" lon="2.09241">
        <ele>156</ele>
        <time>2023-01-29T00:03:10.827Z</time>
      </trkpt>
      <trkpt lat="48.83968" lon="2.09239">
        <ele>158</ele>
        <time>2023-01-29T00:03:14.847Z</time>
      </trkpt>
      <trkpt lat="48.83958" lon="2.0923">
        <ele>154</ele>
        <time>2023-01-29T00:03:18.797Z</time>
      </trkpt>
      <trkpt lat="48.83952" lon="2.09211">
        <ele>154</ele>
        <time>2023-01-29T00:03:23.332Z</time>
      </trkpt>
      <trkpt lat="48.83953" lon="2.09189">
        <ele>151</ele>
        <time>2023-01-29T00:03:28.365Z</time>
      </trkpt>
      <trkpt lat="48.83952" lon="2.09177">
        <ele>149</ele>
        <time>2023-01-29T00:03:32.836Z</time>
      </trkpt>
      <trkpt lat="48.83949" lon="2.09165">
        <ele>149</ele>
        <time>2023-01-29T00:03:37.353Z</time>
      </trkpt>
      <trkpt lat="48.83947" lon="2.09155">
        <ele>149</ele>
        <time>2023-01-29T00:03:41.974Z</time>
      </trkpt>
      <trkpt lat="48.83946" lon="2.09143">
        <ele>148</ele>
        <time>2023-01-29T00:03:46.458Z</time>
      </trkpt>
      <trkpt lat="48.83946" lon="2.09129">
        <ele>148</ele>
        <time>2023-01-29T00:03:50.836Z</time>
      </trkpt>
      <trkpt lat="48.83946" lon="2.09119">
        <ele>148</ele>
        <time>2023-01-29T00:03:54.836Z</time>
      </trkpt>
      <trkpt lat="48.83946" lon="2.09108">
        <ele>148</ele>
        <time>2023-01-29T00:03:59.339Z</time>
      </trkpt>
      <trkpt lat="48.83947" lon="2.09097">
        <ele>150</ele>
        <time>2023-01-29T00:04:03.976Z</time>
      </trkpt>
      <trkpt lat="48.83947" lon="2.09087">
        <ele>150</ele>
        <time>2023-01-29T00:04:08.509Z</time>
      </trkpt>
      <trkpt lat="48.83948" lon="2.09075">
        <ele>150</ele>
        <time>2023-01-29T00:04:13.188Z</time>
      </trkpt>
      <trkpt lat="48.83948" lon="2.09065">
        <ele>152</ele>
        <time>2023-01-29T00:04:17.257Z</time>
      </trkpt>
      <trkpt lat="48.83948" lon="2.09054">
        <ele>152</ele>
        <time>2023-01-29T00:04:21.811Z</time>
      </trkpt>
      <trkpt lat="48.83949" lon="2.09044">
        <ele>152</ele>
        <time>2023-01-29T00:04:26.444Z</time>
      </trkpt>
      <trkpt lat="48.83951" lon="2.09035">
        <ele>153</ele>
        <time>2023-01-29T00:04:31.106Z</time>
      </trkpt>
      <trkpt lat="48.83952" lon="2.09026">
        <ele>153</ele>
        <time>2023-01-29T00:04:35.725Z</time>
      </trkpt>
      <trkpt lat="48.83955" lon="2.09017">
        <ele>153</ele>
        <time>2023-01-29T00:04:39.746Z</time>
      </trkpt>
      <trkpt lat="48.83956" lon="2.09006">
        <ele>151</ele>
        <time>2023-01-29T00:04:44.024Z</time>
      </trkpt>
      <trkpt lat="48.83957" lon="2.08994">
        <ele>151</ele>
        <time>2023-01-29T00:04:48.629Z</time>
      </trkpt>
      <trkpt lat="48.83959" lon="2.0898">
        <ele>151</ele>
        <time>2023-01-29T00:04:53.179Z</time>
      </trkpt>
      <trkpt lat="48.83962" lon="2.08969">
        <ele>151</ele>
        <time>2023-01-29T00:04:57.907Z</time>
      </trkpt>
      <trkpt lat="48.83966" lon="2.0896">
        <ele>151</ele>
        <time>2023-01-29T00:05:01.836Z</time>
      </trkpt>
      <trkpt lat="48.83971" lon="2.0895">
        <ele>150</ele>
        <time>2023-01-29T00:05:06.456Z</time>
      </trkpt>
      <trkpt lat="48.83973" lon="2.08941">
        <ele>150</ele>
        <time>2023-01-29T00:05:10.975Z</time>
      </trkpt>
      <trkpt lat="48.83977" lon="2.0893">
        <ele>149</ele>
        <time>2023-01-29T00:05:15.347Z</time>
      </trkpt>
      <trkpt lat="48.83981" lon="2.0892">
        <ele>149</ele>
        <time>2023-01-29T00:05:19.372Z</time>
      </trkpt>
      <trkpt lat="48.83985" lon="2.0891">
        <ele>149</ele>
        <time>2023-01-29T00:05:23.442Z</time>
      </trkpt>
      <trkpt lat="48.83989" lon="2.08903">
        <ele>153</ele>
        <time>2023-01-29T00:05:27.952Z</time>
      </trkpt>
      <trkpt lat="48.83993" lon="2.08896">
        <ele>154</ele>
        <time>2023-01-29T00:05:32.123Z</time>
      </trkpt>
      <trkpt lat="48.83997" lon="2.08889">
        <ele>154</ele>
        <time>2023-01-29T00:05:36.553Z</time>
      </trkpt>
      <trkpt lat="48.84" lon="2.08879">
        <ele>154</ele>
        <time>2023-01-29T00:05:40.983Z</time>
      </trkpt>
      <trkpt lat="48.84003" lon="2.08869">
        <ele>154</ele>
        <time>2023-01-29T00:05:45.492Z</time>
      </trkpt>
      <trkpt lat="48.84006" lon="2.08861">
        <ele>154</ele>
        <time>2023-01-29T00:05:50.064Z</time>
      </trkpt>
      <trkpt lat="48.84009" lon="2.08856">
        <ele>154</ele>
        <time>2023-01-29T00:05:54.473Z</time>
      </trkpt>
      <trkpt lat="48.84013" lon="2.0885">
        <ele>154</ele>
        <time>2023-01-29T00:05:59.145Z</time>
      </trkpt>
      <trkpt lat="48.84017" lon="2.08843">
        <ele>155</ele>
        <time>2023-01-29T00:06:03.077Z</time>
      </trkpt>
      <trkpt lat="48.84021" lon="2.08833">
        <ele>155</ele>
        <time>2023-01-29T00:06:07.729Z</time>
      </trkpt>
      <trkpt lat="48.84025" lon="2.08821">
        <ele>155</ele>
        <time>2023-01-29T00:06:12.281Z</time>
      </trkpt>
      <trkpt lat="48.84029" lon="2.08815">
        <ele>153</ele>
        <time>2023-01-29T00:06:16.831Z</time>
      </trkpt>
      <trkpt lat="48.84033" lon="2.08806">
        <ele>153</ele>
        <time>2023-01-29T00:06:21.382Z</time>
      </trkpt>
      <trkpt lat="48.84036" lon="2.08798">
        <ele>153</ele>
        <time>2023-01-29T00:06:25.836Z</time>
      </trkpt>
      <trkpt lat="48.8404" lon="2.08789">
        <ele>152</ele>
        <time>2023-01-29T00:06:29.836Z</time>
      </trkpt>
      <trkpt lat="48.84044" lon="2.08784">
        <ele>153</ele>
        <time>2023-01-29T00:06:34.558Z</time>
      </trkpt>
      <trkpt lat="48.84048" lon="2.08778">
        <ele>153</ele>
        <time>2023-01-29T00:06:39.109Z</time>
      </trkpt>
      <trkpt lat="48.84057" lon="2.08771">
        <ele>153</ele>
        <time>2023-01-29T00:06:43.660Z</time>
      </trkpt>
      <trkpt lat="48.84064" lon="2.08768">
        <ele>153</ele>
        <time>2023-01-29T00:06:48.171Z</time>
      </trkpt>
      <trkpt lat="48.84071" lon="2.08767">
        <ele>155</ele>
        <time>2023-01-29T00:06:52.669Z</time>
      </trkpt>
      <trkpt lat="48.84078" lon="2.0876">
        <ele>154</ele>
        <time>2023-01-29T00:06:56.556Z</time>
      </trkpt>
      <trkpt lat="48.84083" lon="2.08755">
        <ele>154</ele>
        <time>2023-01-29T00:07:01.108Z</time>
      </trkpt>
      <trkpt lat="48.84088" lon="2.08748">
        <ele>154</ele>
        <time>2023-01-29T00:07:05.780Z</time>
      </trkpt>
      <trkpt lat="48.84093" lon="2.08742">
        <ele>154</ele>
        <time>2023-01-29T00:07:09.733Z</time>
      </trkpt>
      <trkpt lat="48.84098" lon="2.08736">
        <ele>156</ele>
        <time>2023-01-29T00:07:14.286Z</time>
      </trkpt>
      <trkpt lat="48.84101" lon="2.08732">
        <ele>155</ele>
        <time>2023-01-29T00:07:18.234Z</time>
      </trkpt>
      <trkpt lat="48.84104" lon="2.08728">
        <ele>155</ele>
        <time>2023-01-29T00:07:22.913Z</time>
      </trkpt>
      <trkpt lat="48.84108" lon="2.08724">
        <ele>155</ele>
        <time>2023-01-29T00:07:26.836Z</time>
      </trkpt>
      <trkpt lat="48.84111" lon="2.0872">
        <ele>155</ele>
        <time>2023-01-29T00:07:31.400Z</time>
      </trkpt>
      <trkpt lat="48.84114" lon="2.08716">
        <ele>155</ele>
        <time>2023-01-29T00:07:35.357Z</time>
      </trkpt>
      <trkpt lat="48.84117" lon="2.08708">
        <ele>155</ele>
        <time>2023-01-29T00:07:39.940Z</time>
      </trkpt>
      <trkpt lat="48.8412" lon="2.08702">
        <ele>154</ele>
        <time>2023-01-29T00:07:43.980Z</time>
      </trkpt>
      <trkpt lat="48.84125" lon="2.08693">
        <ele>154</ele>
        <time>2023-01-29T00:07:48.171Z</time>
      </trkpt>
      <trkpt lat="48.84128" lon="2.08687">
        <ele>153</ele>
        <time>2023-01-29T00:07:52.883Z</time>
      </trkpt>
      <trkpt lat="48.84132" lon="2.0868">
        <ele>151</ele>
        <time>2023-01-29T00:07:56.796Z</time>
      </trkpt>
      <trkpt lat="48.84138" lon="2.08671">
        <ele>151</ele>
        <time>2023-01-29T00:08:01.347Z</time>
      </trkpt>
      <trkpt lat="48.84142" lon="2.08663">
        <ele>151</ele>
        <time>2023-01-29T00:08:05.986Z</time>
      </trkpt>
      <trkpt lat="48.84146" lon="2.08657">
        <ele>151</ele>
        <time>2023-01-29T00:08:10.506Z</time>
      </trkpt>
      <trkpt lat="48.84149" lon="2.08654">
        <ele>151</ele>
        <time>2023-01-29T00:08:14.528Z</time>
      </trkpt>
      <trkpt lat="48.84153" lon="2.08648">
        <ele>152</ele>
        <time>2023-01-29T00:08:19.083Z</time>
      </trkpt>
      <trkpt lat="48.84157" lon="2.08642">
        <ele>152</ele>
        <time>2023-01-29T00:08:23.157Z</time>
      </trkpt>
      <trkpt lat="48.84162" lon="2.08637">
        <ele>152</ele>
        <time>2023-01-29T00:08:27.664Z</time>
      </trkpt>
      <trkpt lat="48.84168" lon="2.08631">
        <ele>152</ele>
        <time>2023-01-29T00:08:31.726Z</time>
      </trkpt>
      <trkpt lat="48.84175" lon="2.08624">
        <ele>150</ele>
        <time>2023-01-29T00:08:36.159Z</time>
      </trkpt>
      <trkpt lat="48.8418" lon="2.08616">
        <ele>150</ele>
        <time>2023-01-29T00:08:40.335Z</time>
      </trkpt>
      <trkpt lat="48.84185" lon="2.0861">
        <ele>150</ele>
        <time>2023-01-29T00:08:44.168Z</time>
      </trkpt>
      <trkpt lat="48.8419" lon="2.08604">
        <ele>150</ele>
        <time>2023-01-29T00:08:48.826Z</time>
      </trkpt>
      <trkpt lat="48.84194" lon="2.08596">
        <ele>148</ele>
        <time>2023-01-29T00:08:52.794Z</time>
      </trkpt>
      <trkpt lat="48.84199" lon="2.08587">
        <ele>148</ele>
        <time>2023-01-29T00:08:57.450Z</time>
      </trkpt>
      <trkpt lat="48.84204" lon="2.08579">
        <ele>148</ele>
        <time>2023-01-29T00:09:01.398Z</time>
      </trkpt>
      <trkpt lat="48.84209" lon="2.08572">
        <ele>151</ele>
        <time>2023-01-29T00:09:05.951Z</time>
      </trkpt>
      <trkpt lat="48.84215" lon="2.08563">
        <ele>150</ele>
        <time>2023-01-29T00:09:10.504Z</time>
      </trkpt>
      <trkpt lat="48.84221" lon="2.08555">
        <ele>150</ele>
        <time>2023-01-29T00:09:15.140Z</time>
      </trkpt>
      <trkpt lat="48.84227" lon="2.08549">
        <ele>150</ele>
        <time>2023-01-29T00:09:19.230Z</time>
      </trkpt>
      <trkpt lat="48.84235" lon="2.08541">
        <ele>149</ele>
        <time>2023-01-29T00:09:23.903Z</time>
      </trkpt>
      <trkpt lat="48.84241" lon="2.08531">
        <ele>155</ele>
        <time>2023-01-29T00:09:27.936Z</time>
      </trkpt>
      <trkpt lat="48.84247" lon="2.08522">
        <ele>155</ele>
        <time>2023-01-29T00:09:32.008Z</time>
      </trkpt>
      <trkpt lat="48.84252" lon="2.08512">
        <ele>156</ele>
        <time>2023-01-29T00:09:36.200Z</time>
      </trkpt>
      <trkpt lat="48.84257" lon="2.08503">
        <ele>156</ele>
        <time>2023-01-29T00:09:40.963Z</time>
      </trkpt>
      <trkpt lat="48.84261" lon="2.08495">
        <ele>156</ele>
        <time>2023-01-29T00:09:44.945Z</time>
      </trkpt>
      <trkpt lat="48.84267" lon="2.08485">
        <ele>158</ele>
        <time>2023-01-29T00:09:49.498Z</time>
      </trkpt>
      <trkpt lat="48.84271" lon="2.08477">
        <ele>158</ele>
        <time>2023-01-29T00:09:53.545Z</time>
      </trkpt>
      <trkpt lat="48.84276" lon="2.0847">
        <ele>158</ele>
        <time>2023-01-29T00:09:57.523Z</time>
      </trkpt>
      <trkpt lat="48.84281" lon="2.08463">
        <ele>158</ele>
        <time>2023-01-29T00:10:01.980Z</time>
      </trkpt>
      <trkpt lat="48.84285" lon="2.08457">
        <ele>155</ele>
        <time>2023-01-29T00:10:05.964Z</time>
      </trkpt>
      <trkpt lat="48.84289" lon="2.08452">
        <ele>155</ele>
        <time>2023-01-29T00:10:10.513Z</time>
      </trkpt>
      <trkpt lat="48.84291" lon="2.08446">
        <ele>155</ele>
        <time>2023-01-29T00:10:15.018Z</time>
      </trkpt>
      <trkpt lat="48.84295" lon="2.08439">
        <ele>155</ele>
        <time>2023-01-29T00:10:19.600Z</time>
      </trkpt>
      <trkpt lat="48.84299" lon="2.08433">
        <ele>155</ele>
        <time>2023-01-29T00:10:23.669Z</time>
      </trkpt>
      <trkpt lat="48.84304" lon="2.08428">
        <ele>152</ele>
        <time>2023-01-29T00:10:28.203Z</time>
      </trkpt>
      <trkpt lat="48.84308" lon="2.08424">
        <ele>152</ele>
        <time>2023-01-29T00:10:32.836Z</time>
      </trkpt>
      <trkpt lat="48.84314" lon="2.08418">
        <ele>152</ele>
        <time>2023-01-29T00:10:37.252Z</time>
      </trkpt>
      <trkpt lat="48.84322" lon="2.08392">
        <ele>152</ele>
        <time>2023-01-29T00:10:41.389Z</time>
      </trkpt>
      <trkpt lat="48.84331" lon="2.08374">
        <ele>150</ele>
        <time>2023-01-29T00:10:45.902Z</time>
      </trkpt>
      <trkpt lat="48.84341" lon="2.08355">
        <ele>150</ele>
        <time>2023-01-29T00:10:50.014Z</time>
      </trkpt>
      <trkpt lat="48.84345" lon="2.08336">
        <ele>149</ele>
        <time>2023-01-29T00:10:54.522Z</time>
      </trkpt>
      <trkpt lat="48.84346" lon="2.08322">
        <ele>149</ele>
        <time>2023-01-29T00:10:58.822Z</time>
      </trkpt>
      <trkpt lat="48.84347" lon="2.08309">
        <ele>147</ele>
        <time>2023-01-29T00:11:03.183Z</time>
      </trkpt>
      <trkpt lat="48.84349" lon="2.08298">
        <ele>153</ele>
        <time>2023-01-29T00:11:07.688Z</time>
      </trkpt>
      <trkpt lat="48.84348" lon="2.0829">
        <ele>152</ele>
        <time>2023-01-29T00:11:11.910Z</time>
      </trkpt>
      <trkpt lat="48.84349" lon="2.08284">
        <ele>152</ele>
        <time>2023-01-29T00:11:15.630Z</time>
      </trkpt>
      <trkpt lat="48.84351" lon="2.08272">
        <ele>152</ele>
        <time>2023-01-29T00:11:20.070Z</time>
      </trkpt>
      <trkpt lat="48.84356" lon="2.08261">
        <ele>152</ele>
        <time>2023-01-29T00:11:24.488Z</time>
      </trkpt>
      <trkpt lat="48.8436" lon="2.08252">
        <ele>152</ele>
        <time>2023-01-29T00:11:29.045Z</time>
      </trkpt>
      <trkpt lat="48.84364" lon="2.08242">
        <ele>152</ele>
        <time>2023-01-29T00:11:33.706Z</time>
      </trkpt>
      <trkpt lat="48.84367" lon="2.08235">
        <ele>153</ele>
        <time>2023-01-29T00:11:37.679Z</time>
      </trkpt>
      <trkpt lat="48.8437" lon="2.08227">
        <ele>153</ele>
        <time>2023-01-29T00:11:42.214Z</time>
      </trkpt>
      <trkpt lat="48.84373" lon="2.08217">
        <ele>153</ele>
        <time>2023-01-29T00:11:46.960Z</time>
      </trkpt>
      <trkpt lat="48.84376" lon="2.08207">
        <ele>159</ele>
        <time>2023-01-29T00:11:51.493Z</time>
      </trkpt>
      <trkpt lat="48.84377" lon="2.08196">
        <ele>159</ele>
        <time>2023-01-29T00:11:56.052Z</time>
      </trkpt>
      <trkpt lat="48.84378" lon="2.08184">
        <ele>159</ele>
        <time>2023-01-29T00:12:00.532Z</time>
      </trkpt>
      <trkpt lat="48.84379" lon="2.08173">
        <ele>159</ele>
        <time>2023-01-29T00:12:04.984Z</time>
      </trkpt>
      <trkpt lat="48.8438" lon="2.08162">
        <ele>159</ele>
        <time>2023-01-29T00:12:09.510Z</time>
      </trkpt>
      <trkpt lat="48.84381" lon="2.08152">
        <ele>157</ele>
        <time>2023-01-29T00:12:13.946Z</time>
      </trkpt>
      <trkpt lat="48.84382" lon="2.08144">
        <ele>157</ele>
        <time>2023-01-29T00:12:17.968Z</time>
      </trkpt>
      <trkpt lat="48.84384" lon="2.08135">
        <ele>157</ele>
        <time>2023-01-29T00:12:21.981Z</time>
      </trkpt>
      <trkpt lat="48.84385" lon="2.08126">
        <ele>157</ele>
        <time>2023-01-29T00:12:26.475Z</time>
      </trkpt>
      <trkpt lat="48.84385" lon="2.08116">
        <ele>155</ele>
        <time>2023-01-29T00:12:30.412Z</time>
      </trkpt>
      <trkpt lat="48.84385" lon="2.08105">
        <ele>155</ele>
        <time>2023-01-29T00:12:34.923Z</time>
      </trkpt>
      <trkpt lat="48.84385" lon="2.08096">
        <ele>153</ele>
        <time>2023-01-29T00:12:38.836Z</time>
      </trkpt>
      <trkpt lat="48.84385" lon="2.08085">
        <ele>153</ele>
        <time>2023-01-29T00:12:43.363Z</time>
      </trkpt>
      <trkpt lat="48.84386" lon="2.08074">
        <ele>153</ele>
        <time>2023-01-29T00:12:47.836Z</time>
      </trkpt>
      <trkpt lat="48.84386" lon="2.08061">
        <ele>152</ele>
        <time>2023-01-29T00:12:51.836Z</time>
      </trkpt>
      <trkpt lat="48.84385" lon="2.08051">
        <ele>152</ele>
        <time>2023-01-29T00:12:55.974Z</time>
      </trkpt>
      <trkpt lat="48.84386" lon="2.08041">
        <ele>151</ele>
        <time>2023-01-29T00:13:00.168Z</time>
      </trkpt>
      <trkpt lat="48.84388" lon="2.08031">
        <ele>151</ele>
        <time>2023-01-29T00:13:04.125Z</time>
      </trkpt>
      <trkpt lat="48.8439" lon="2.08022">
        <ele>151</ele>
        <time>2023-01-29T00:13:08.680Z</time>
      </trkpt>
      <trkpt lat="48.84392" lon="2.08012">
        <ele>152</ele>
        <time>2023-01-29T00:13:13.198Z</time>
      </trkpt>
      <trkpt lat="48.84393" lon="2.08004">
        <ele>152</ele>
        <time>2023-01-29T00:13:17.836Z</time>
      </trkpt>
      <trkpt lat="48.84393" lon="2.07997">
        <ele>152</ele>
        <time>2023-01-29T00:13:21.836Z</time>
      </trkpt>
      <trkpt lat="48.84394" lon="2.07984">
        <ele>151</ele>
        <time>2023-01-29T00:13:26.392Z</time>
      </trkpt>
      <trkpt lat="48.84395" lon="2.07974">
        <ele>151</ele>
        <time>2023-01-29T00:13:30.941Z</time>
      </trkpt>
      <trkpt lat="48.84396" lon="2.07963">
        <ele>151</ele>
        <time>2023-01-29T00:13:35.488Z</time>
      </trkpt>
      <trkpt lat="48.84397" lon="2.07952">
        <ele>151</ele>
        <time>2023-01-29T00:13:40.105Z</time>
      </trkpt>
      <trkpt lat="48.84397" lon="2.07943">
        <ele>151</ele>
        <time>2023-01-29T00:13:44.605Z</time>
      </trkpt>
      <trkpt lat="48.84398" lon="2.07931">
        <ele>151</ele>
        <time>2023-01-29T00:13:48.965Z</time>
      </trkpt>
      <trkpt lat="48.84398" lon="2.07921">
        <ele>152</ele>
        <time>2023-01-29T00:13:52.975Z</time>
      </trkpt>
      <trkpt lat="48.84398" lon="2.07908">
        <ele>152</ele>
        <time>2023-01-29T00:13:57.407Z</time>
      </trkpt>
      <trkpt lat="48.84397" lon="2.07897">
        <ele>152</ele>
        <time>2023-01-29T00:14:01.389Z</time>
      </trkpt>
      <trkpt lat="48.84398" lon="2.07885">
        <ele>152</ele>
        <time>2023-01-29T00:14:05.943Z</time>
      </trkpt>
      <trkpt lat="48.84398" lon="2.07874">
        <ele>153</ele>
        <time>2023-01-29T00:14:10.378Z</time>
      </trkpt>
      <trkpt lat="48.844" lon="2.07862">
        <ele>153</ele>
        <time>2023-01-29T00:14:14.959Z</time>
      </trkpt>
      <trkpt lat="48.844" lon="2.07853">
        <ele>153</ele>
        <time>2023-01-29T00:14:18.981Z</time>
      </trkpt>
      <trkpt lat="48.84401" lon="2.07841">
        <ele>154</ele>
        <time>2023-01-29T00:14:23.442Z</time>
      </trkpt>
      <trkpt lat="48.84401" lon="2.07831">
        <ele>154</ele>
        <time>2023-01-29T00:14:28.057Z</time>
      </trkpt>
      <trkpt lat="48.84402" lon="2.07822">
        <ele>154</ele>
        <time>2023-01-29T00:14:32.052Z</time>
      </trkpt>
      <trkpt lat="48.84402" lon="2.07811">
        <ele>154</ele>
        <time>2023-01-29T00:14:36.626Z</time>
      </trkpt>
      <trkpt lat="48.84403" lon="2.07799">
        <ele>157</ele>
        <time>2023-01-29T00:14:40.681Z</time>
      </trkpt>
      <trkpt lat="48.84404" lon="2.07787">
        <ele>158</ele>
        <time>2023-01-29T00:14:45.355Z</time>
      </trkpt>
      <trkpt lat="48.84404" lon="2.07779">
        <ele>158</ele>
        <time>2023-01-29T00:14:49.549Z</time>
      </trkpt>
      <trkpt lat="48.84404" lon="2.07768">
        <ele>158</ele>
        <time>2023-01-29T00:14:54.013Z</time>
      </trkpt>
      <trkpt lat="48.84405" lon="2.07758">
        <ele>159</ele>
        <time>2023-01-29T00:14:58.058Z</time>
      </trkpt>
      <trkpt lat="48.84405" lon="2.07749">
        <ele>159</ele>
        <time>2023-01-29T00:15:02.254Z</time>
      </trkpt>
      <trkpt lat="48.84405" lon="2.07737">
        <ele>159</ele>
        <time>2023-01-29T00:15:06.665Z</time>
      </trkpt>
      <trkpt lat="48.84405" lon="2.07726">
        <ele>160</ele>
        <time>2023-01-29T00:15:10.669Z</time>
      </trkpt>
      <trkpt lat="48.84406" lon="2.07715">
        <ele>160</ele>
        <time>2023-01-29T00:15:15.346Z</time>
      </trkpt>
      <trkpt lat="48.84407" lon="2.07705">
        <ele>161</ele>
        <time>2023-01-29T00:15:19.423Z</time>
      </trkpt>
      <trkpt lat="48.84407" lon="2.07693">
        <ele>161</ele>
        <time>2023-01-29T00:15:23.979Z</time>
      </trkpt>
      <trkpt lat="48.84407" lon="2.07683">
        <ele>161</ele>
        <time>2023-01-29T00:15:28.535Z</time>
      </trkpt>
      <trkpt lat="48.84407" lon="2.07674">
        <ele>161</ele>
        <time>2023-01-29T00:15:32.923Z</time>
      </trkpt>
      <trkpt lat="48.84408" lon="2.07666">
        <ele>161</ele>
        <time>2023-01-29T00:15:36.836Z</time>
      </trkpt>
      <trkpt lat="48.84409" lon="2.07655">
        <ele>161</ele>
        <time>2023-01-29T00:15:41.227Z</time>
      </trkpt>
      <trkpt lat="48.8441" lon="2.07645">
        <ele>160</ele>
        <time>2023-01-29T00:15:45.805Z</time>
      </trkpt>
      <trkpt lat="48.84412" lon="2.07636">
        <ele>160</ele>
        <time>2023-01-29T00:15:50.358Z</time>
      </trkpt>
      <trkpt lat="48.84414" lon="2.07623">
        <ele>159</ele>
        <time>2023-01-29T00:15:55.034Z</time>
      </trkpt>
      <trkpt lat="48.84416" lon="2.07612">
        <ele>159</ele>
        <time>2023-01-29T00:15:59.709Z</time>
      </trkpt>
      <trkpt lat="48.84416" lon="2.07601">
        <ele>159</ele>
        <time>2023-01-29T00:16:04.147Z</time>
      </trkpt>
      <trkpt lat="48.84416" lon="2.07592">
        <ele>156</ele>
        <time>2023-01-29T00:16:08.103Z</time>
      </trkpt>
      <trkpt lat="48.84418" lon="2.07582">
        <ele>156</ele>
        <time>2023-01-29T00:16:12.539Z</time>
      </trkpt>
      <trkpt lat="48.84419" lon="2.07572">
        <ele>156</ele>
        <time>2023-01-29T00:16:17.156Z</time>
      </trkpt>
      <trkpt lat="48.8442" lon="2.07563">
        <ele>153</ele>
        <time>2023-01-29T00:16:21.545Z</time>
      </trkpt>
      <trkpt lat="48.84422" lon="2.07552">
        <ele>153</ele>
        <time>2023-01-29T00:16:25.511Z</time>
      </trkpt>
      <trkpt lat="48.84423" lon="2.07541">
        <ele>150</ele>
        <time>2023-01-29T00:16:29.468Z</time>
      </trkpt>
      <trkpt lat="48.84425" lon="2.07528">
        <ele>150</ele>
        <time>2023-01-29T00:16:34.085Z</time>
      </trkpt>
      <trkpt lat="48.84426" lon="2.07515">
        <ele>150</ele>
        <time>2023-01-29T00:16:38.645Z</time>
      </trkpt>
      <trkpt lat="48.84427" lon="2.07504">
        <ele>149</ele>
        <time>2023-01-29T00:16:42.601Z</time>
      </trkpt>
      <trkpt lat="48.84428" lon="2.07493">
        <ele>149</ele>
        <time>2023-01-29T00:16:47.219Z</time>
      </trkpt>
      <trkpt lat="48.8443" lon="2.07483">
        <ele>148</ele>
        <time>2023-01-29T00:16:51.299Z</time>
      </trkpt>
      <trkpt lat="48.84432" lon="2.07474">
        <ele>151</ele>
        <time>2023-01-29T00:16:55.778Z</time>
      </trkpt>
      <trkpt lat="48.84433" lon="2.07464">
        <ele>151</ele>
        <time>2023-01-29T00:17:00.316Z</time>
      </trkpt>
      <trkpt lat="48.84434" lon="2.07456">
        <ele>151</ele>
        <time>2023-01-29T00:17:04.814Z</time>
      </trkpt>
      <trkpt lat="48.84435" lon="2.07449">
        <ele>151</ele>
        <time>2023-01-29T00:17:08.836Z</time>
      </trkpt>
      <trkpt lat="48.84436" lon="2.0744">
        <ele>151</ele>
        <time>2023-01-29T00:17:13.329Z</time>
      </trkpt>
      <trkpt lat="48.84437" lon="2.07433">
        <ele>151</ele>
        <time>2023-01-29T00:17:17.836Z</time>
      </trkpt>
      <trkpt lat="48.84438" lon="2.07424">
        <ele>149</ele>
        <time>2023-01-29T00:17:22.403Z</time>
      </trkpt>
      <trkpt lat="48.8444" lon="2.07415">
        <ele>149</ele>
        <time>2023-01-29T00:17:26.958Z</time>
      </trkpt>
      <trkpt lat="48.84446" lon="2.07407">
        <ele>149</ele>
        <time>2023-01-29T00:17:30.973Z</time>
      </trkpt>
      <trkpt lat="48.84449" lon="2.07397">
        <ele>147</ele>
        <time>2023-01-29T00:17:35.511Z</time>
      </trkpt>
      <trkpt lat="48.84451" lon="2.07386">
        <ele>147</ele>
        <time>2023-01-29T00:17:39.467Z</time>
      </trkpt>
      <trkpt lat="48.84453" lon="2.07375">
        <ele>146</ele>
        <time>2023-01-29T00:17:44.141Z</time>
      </trkpt>
      <trkpt lat="48.84454" lon="2.07363">
        <ele>146</ele>
        <time>2023-01-29T00:17:48.576Z</time>
      </trkpt>
      <trkpt lat="48.84453" lon="2.07351">
        <ele>146</ele>
        <time>2023-01-29T00:17:53.131Z</time>
      </trkpt>
      <trkpt lat="48.84453" lon="2.07338">
        <ele>146</ele>
        <time>2023-01-29T00:17:57.648Z</time>
      </trkpt>
      <trkpt lat="48.84452" lon="2.07327">
        <ele>146</ele>
        <time>2023-01-29T00:18:01.699Z</time>
      </trkpt>
      <trkpt lat="48.8445" lon="2.07317">
        <ele>146</ele>
        <time>2023-01-29T00:18:05.654Z</time>
      </trkpt>
      <trkpt lat="48.84449" lon="2.07304">
        <ele>146</ele>
        <time>2023-01-29T00:18:10.318Z</time>
      </trkpt>
      <trkpt lat="48.84449" lon="2.07294">
        <ele>146</ele>
        <time>2023-01-29T00:18:14.305Z</time>
      </trkpt>
      <trkpt lat="48.8445" lon="2.07282">
        <ele>147</ele>
        <time>2023-01-29T00:18:18.762Z</time>
      </trkpt>
      <trkpt lat="48.8445" lon="2.07269">
        <ele>147</ele>
        <time>2023-01-29T00:18:23.211Z</time>
      </trkpt>
      <trkpt lat="48.84452" lon="2.07257">
        <ele>148</ele>
        <time>2023-01-29T00:18:27.166Z</time>
      </trkpt>
      <trkpt lat="48.84452" lon="2.07246">
        <ele>148</ele>
        <time>2023-01-29T00:18:31.836Z</time>
      </trkpt>
      <trkpt lat="48.84453" lon="2.07235">
        <ele>149</ele>
        <time>2023-01-29T00:18:35.836Z</time>
      </trkpt>
      <trkpt lat="48.84453" lon="2.07223">
        <ele>149</ele>
        <time>2023-01-29T00:18:40.347Z</time>
      </trkpt>
      <trkpt lat="48.84452" lon="2.07214">
        <ele>149</ele>
        <time>2023-01-29T00:18:45.137Z</time>
      </trkpt>
      <trkpt lat="48.84451" lon="2.07204">
        <ele>150</ele>
        <time>2023-01-29T00:18:49.092Z</time>
      </trkpt>
      <trkpt lat="48.84453" lon="2.07194">
        <ele>150</ele>
        <time>2023-01-29T00:18:53.165Z</time>
      </trkpt>
      <trkpt lat="48.84455" lon="2.07183">
        <ele>150</ele>
        <time>2023-01-29T00:18:57.682Z</time>
      </trkpt>
      <trkpt lat="48.84455" lon="2.07174">
        <ele>151</ele>
        <time>2023-01-29T00:19:01.770Z</time>
      </trkpt>
      <trkpt lat="48.84457" lon="2.07165">
        <ele>151</ele>
        <time>2023-01-29T00:19:06.384Z</time>
      </trkpt>
      <trkpt lat="48.84461" lon="2.07155">
        <ele>153</ele>
        <time>2023-01-29T00:19:10.978Z</time>
      </trkpt>
      <trkpt lat="48.84464" lon="2.07145">
        <ele>154</ele>
        <time>2023-01-29T00:19:15.488Z</time>
      </trkpt>
      <trkpt lat="48.84465" lon="2.07134">
        <ele>154</ele>
        <time>2023-01-29T00:19:20.159Z</time>
      </trkpt>
      <trkpt lat="48.84464" lon="2.07123">
        <ele>154</ele>
        <time>2023-01-29T00:19:24.585Z</time>
      </trkpt>
      <trkpt lat="48.84466" lon="2.07111">
        <ele>154</ele>
        <time>2023-01-29T00:19:28.628Z</time>
      </trkpt>
      <trkpt lat="48.84468" lon="2.07101">
        <ele>154</ele>
        <time>2023-01-29T00:19:33.285Z</time>
      </trkpt>
      <trkpt lat="48.84469" lon="2.07088">
        <ele>154</ele>
        <time>2023-01-29T00:19:37.376Z</time>
      </trkpt>
      <trkpt lat="48.8447" lon="2.07077">
        <ele>154</ele>
        <time>2023-01-29T00:19:41.570Z</time>
      </trkpt>
      <trkpt lat="48.84471" lon="2.07071">
        <ele>154</ele>
        <time>2023-01-29T00:19:45.644Z</time>
      </trkpt>
      <trkpt lat="48.84474" lon="2.07058">
        <ele>153</ele>
        <time>2023-01-29T00:19:50.301Z</time>
      </trkpt>
      <trkpt lat="48.84475" lon="2.07046">
        <ele>153</ele>
        <time>2023-01-29T00:19:54.645Z</time>
      </trkpt>
      <trkpt lat="48.84475" lon="2.07036">
        <ele>154</ele>
        <time>2023-01-29T00:19:58.625Z</time>
      </trkpt>
      <trkpt lat="48.84476" lon="2.07026">
        <ele>154</ele>
        <time>2023-01-29T00:20:02.698Z</time>
      </trkpt>
      <trkpt lat="48.84478" lon="2.07014">
        <ele>154</ele>
        <time>2023-01-29T00:20:07.245Z</time>
      </trkpt>
      <trkpt lat="48.84478" lon="2.07004">
        <ele>156</ele>
        <time>2023-01-29T00:20:11.206Z</time>
      </trkpt>
      <trkpt lat="48.84478" lon="2.06992">
        <ele>156</ele>
        <time>2023-01-29T00:20:15.758Z</time>
      </trkpt>
      <trkpt lat="48.84478" lon="2.06982">
        <ele>157</ele>
        <time>2023-01-29T00:20:19.831Z</time>
      </trkpt>
      <trkpt lat="48.84478" lon="2.06969">
        <ele>157</ele>
        <time>2023-01-29T00:20:24.264Z</time>
      </trkpt>
      <trkpt lat="48.84478" lon="2.06959">
        <ele>157</ele>
        <time>2023-01-29T00:20:28.906Z</time>
      </trkpt>
      <trkpt lat="48.84479" lon="2.0695">
        <ele>157</ele>
        <time>2023-01-29T00:20:32.836Z</time>
      </trkpt>
      <trkpt lat="48.84479" lon="2.06938">
        <ele>157</ele>
        <time>2023-01-29T00:20:37.342Z</time>
      </trkpt>
      <trkpt lat="48.8448" lon="2.06928">
        <ele>157</ele>
        <time>2023-01-29T00:20:41.965Z</time>
      </trkpt>
      <trkpt lat="48.84481" lon="2.06918">
        <ele>157</ele>
        <time>2023-01-29T00:20:45.966Z</time>
      </trkpt>
      <trkpt lat="48.84482" lon="2.06906">
        <ele>157</ele>
        <time>2023-01-29T00:20:50.498Z</time>
      </trkpt>
      <trkpt lat="48.84484" lon="2.06895">
        <ele>157</ele>
        <time>2023-01-29T00:20:55.123Z</time>
      </trkpt>
      <trkpt lat="48.84485" lon="2.06886">
        <ele>157</ele>
        <time>2023-01-29T00:20:59.121Z</time>
      </trkpt>
      <trkpt lat="48.84487" lon="2.06875">
        <ele>161</ele>
        <time>2023-01-29T00:21:03.553Z</time>
      </trkpt>
      <trkpt lat="48.84488" lon="2.06865">
        <ele>161</ele>
        <time>2023-01-29T00:21:08.186Z</time>
      </trkpt>
      <trkpt lat="48.84492" lon="2.06856">
        <ele>161</ele>
        <time>2023-01-29T00:21:12.258Z</time>
      </trkpt>
      <trkpt lat="48.84495" lon="2.06849">
        <ele>161</ele>
        <time>2023-01-29T00:21:16.070Z</time>
      </trkpt>
      <trkpt lat="48.845" lon="2.06841">
        <ele>160</ele>
        <time>2023-01-29T00:21:20.583Z</time>
      </trkpt>
      <trkpt lat="48.84504" lon="2.06833">
        <ele>160</ele>
        <time>2023-01-29T00:21:25.255Z</time>
      </trkpt>
      <trkpt lat="48.84509" lon="2.06823">
        <ele>160</ele>
        <time>2023-01-29T00:21:29.806Z</time>
      </trkpt>
      <trkpt lat="48.84513" lon="2.06814">
        <ele>159</ele>
        <time>2023-01-29T00:21:34.342Z</time>
      </trkpt>
      <trkpt lat="48.84518" lon="2.06805">
        <ele>161</ele>
        <time>2023-01-29T00:21:38.372Z</time>
      </trkpt>
      <trkpt lat="48.84523" lon="2.06796">
        <ele>161</ele>
        <time>2023-01-29T00:21:42.898Z</time>
      </trkpt>
      <trkpt lat="48.84528" lon="2.06788">
        <ele>161</ele>
        <time>2023-01-29T00:21:46.836Z</time>
      </trkpt>
      <trkpt lat="48.84534" lon="2.06779">
        <ele>161</ele>
        <time>2023-01-29T00:21:51.306Z</time>
      </trkpt>
      <trkpt lat="48.84538" lon="2.06772">
        <ele>161</ele>
        <time>2023-01-29T00:21:55.259Z</time>
      </trkpt>
      <trkpt lat="48.84543" lon="2.06765">
        <ele>165</ele>
        <time>2023-01-29T00:21:59.812Z</time>
      </trkpt>
      <trkpt lat="48.84548" lon="2.06757">
        <ele>165</ele>
        <time>2023-01-29T00:22:04.328Z</time>
      </trkpt>
      <trkpt lat="48.84552" lon="2.06749">
        <ele>165</ele>
        <time>2023-01-29T00:22:08.836Z</time>
      </trkpt>
      <trkpt lat="48.84556" lon="2.06738">
        <ele>165</ele>
        <time>2023-01-29T00:22:13.921Z</time>
      </trkpt>
      <trkpt lat="48.84559" lon="2.0673">
        <ele>164</ele>
        <time>2023-01-29T00:22:17.836Z</time>
      </trkpt>
      <trkpt lat="48.84563" lon="2.06721">
        <ele>164</ele>
        <time>2023-01-29T00:22:22.427Z</time>
      </trkpt>
      <trkpt lat="48.84568" lon="2.06716">
        <ele>164</ele>
        <time>2023-01-29T00:22:26.604Z</time>
      </trkpt>
      <trkpt lat="48.84573" lon="2.06718">
        <ele>169</ele>
        <time>2023-01-29T00:22:31.156Z</time>
      </trkpt>
      <trkpt lat="48.8458" lon="2.06721">
        <ele>169</ele>
        <time>2023-01-29T00:22:35.828Z</time>
      </trkpt>
      <trkpt lat="48.84586" lon="2.06722">
        <ele>169</ele>
        <time>2023-01-29T00:22:39.836Z</time>
      </trkpt>
      <trkpt lat="48.84593" lon="2.06724">
        <ele>169</ele>
        <time>2023-01-29T00:22:44.570Z</time>
      </trkpt>
      <trkpt lat="48.84599" lon="2.06727">
        <ele>171</ele>
        <time>2023-01-29T00:22:49.121Z</time>
      </trkpt>
      <trkpt lat="48.84605" lon="2.06729">
        <ele>171</ele>
        <time>2023-01-29T00:22:53.433Z</time>
      </trkpt>
      <trkpt lat="48.84612" lon="2.06731">
        <ele>171</ele>
        <time>2023-01-29T00:22:57.985Z</time>
      </trkpt>
      <trkpt lat="48.84617" lon="2.06733">
        <ele>171</ele>
        <time>2023-01-29T00:23:02.155Z</time>
      </trkpt>
      <trkpt lat="48.84621" lon="2.06734">
        <ele>171</ele>
        <time>2023-01-29T00:23:06.587Z</time>
      </trkpt>
      <trkpt lat="48.84627" lon="2.06735">
        <ele>174</ele>
        <time>2023-01-29T00:23:11.929Z</time>
      </trkpt>
      <trkpt lat="48.84631" lon="2.06737">
        <ele>174</ele>
        <time>2023-01-29T00:23:16.188Z</time>
      </trkpt>
      <trkpt lat="48.84637" lon="2.06739">
        <ele>174</ele>
        <time>2023-01-29T00:23:20.478Z</time>
      </trkpt>
      <trkpt lat="48.84643" lon="2.0674">
        <ele>174</ele>
        <time>2023-01-29T00:23:25.031Z</time>
      </trkpt>
      <trkpt lat="48.84648" lon="2.06739">
        <ele>174</ele>
        <time>2023-01-29T00:23:29.463Z</time>
      </trkpt>
      <trkpt lat="48.84653" lon="2.06739">
        <ele>178</ele>
        <time>2023-01-29T00:23:33.906Z</time>
      </trkpt>
      <trkpt lat="48.84658" lon="2.06742">
        <ele>178</ele>
        <time>2023-01-29T00:23:37.954Z</time>
      </trkpt>
      <trkpt lat="48.84664" lon="2.06744">
        <ele>178</ele>
        <time>2023-01-29T00:23:42.160Z</time>
      </trkpt>
      <trkpt lat="48.84669" lon="2.06746">
        <ele>178</ele>
        <time>2023-01-29T00:23:46.112Z</time>
      </trkpt>
      <trkpt lat="48.84675" lon="2.06748">
        <ele>178</ele>
        <time>2023-01-29T00:23:50.629Z</time>
      </trkpt>
      <trkpt lat="48.84681" lon="2.06751">
        <ele>181</ele>
        <time>2023-01-29T00:23:54.841Z</time>
      </trkpt>
      <trkpt lat="48.84687" lon="2.06755">
        <ele>181</ele>
        <time>2023-01-29T00:23:58.968Z</time>
      </trkpt>
      <trkpt lat="48.84693" lon="2.06757">
        <ele>181</ele>
        <time>2023-01-29T00:24:02.836Z</time>
      </trkpt>
      <trkpt lat="48.84699" lon="2.0676">
        <ele>181</ele>
        <time>2023-01-29T00:24:07.326Z</time>
      </trkpt>
      <trkpt lat="48.84704" lon="2.06763">
        <ele>181</ele>
        <time>2023-01-29T00:24:11.264Z</time>
      </trkpt>
      <trkpt lat="48.8471" lon="2.06767">
        <ele>185</ele>
        <time>2023-01-29T00:24:15.696Z</time>
      </trkpt>
      <trkpt lat="48.84714" lon="2.06774">
        <ele>185</ele>
        <time>2023-01-29T00:24:20.247Z</time>
      </trkpt>
      <trkpt lat="48.84716" lon="2.06781">
        <ele>185</ele>
        <time>2023-01-29T00:24:24.300Z</time>
      </trkpt>
      <trkpt lat="48.84716" lon="2.06788">
        <ele>185</ele>
        <time>2023-01-29T00:24:28.133Z</time>
      </trkpt>
      <trkpt lat="48.84717" lon="2.06797">
        <ele>186</ele>
        <time>2023-01-29T00:24:32.645Z</time>
      </trkpt>
      <trkpt lat="48.84718" lon="2.06806">
        <ele>186</ele>
        <time>2023-01-29T00:24:36.996Z</time>
      </trkpt>
      <trkpt lat="48.84719" lon="2.06813">
        <ele>186</ele>
        <time>2023-01-29T00:24:41.110Z</time>
      </trkpt>
      <trkpt lat="48.84721" lon="2.06822">
        <ele>186</ele>
        <time>2023-01-29T00:24:45.162Z</time>
      </trkpt>
      <trkpt lat="48.84721" lon="2.06831">
        <ele>186</ele>
        <time>2023-01-29T00:24:49.908Z</time>
      </trkpt>
      <trkpt lat="48.84721" lon="2.06839">
        <ele>186</ele>
        <time>2023-01-29T00:24:53.789Z</time>
      </trkpt>
      <trkpt lat="48.8472" lon="2.06848">
        <ele>186</ele>
        <time>2023-01-29T00:24:58.340Z</time>
      </trkpt>
      <trkpt lat="48.84721" lon="2.06856">
        <ele>186</ele>
        <time>2023-01-29T00:25:02.772Z</time>
      </trkpt>
      <trkpt lat="48.84725" lon="2.06864">
        <ele>186</ele>
        <time>2023-01-29T00:25:07.447Z</time>
      </trkpt>
      <trkpt lat="48.84729" lon="2.0687">
        <ele>186</ele>
        <time>2023-01-29T00:25:11.396Z</time>
      </trkpt>
      <trkpt lat="48.84733" lon="2.06877">
        <ele>186</ele>
        <time>2023-01-29T00:25:15.960Z</time>
      </trkpt>
      <trkpt lat="48.84738" lon="2.06885">
        <ele>189</ele>
        <time>2023-01-29T00:25:19.836Z</time>
      </trkpt>
      <trkpt lat="48.84744" lon="2.06893">
        <ele>189</ele>
        <time>2023-01-29T00:25:24.567Z</time>
      </trkpt>
      <trkpt lat="48.84748" lon="2.06903">
        <ele>189</ele>
        <time>2023-01-29T00:25:29.118Z</time>
      </trkpt>
      <trkpt lat="48.84754" lon="2.0691">
        <ele>189</ele>
        <time>2023-01-29T00:25:33.823Z</time>
      </trkpt>
      <trkpt lat="48.84759" lon="2.06917">
        <ele>189</ele>
        <time>2023-01-29T00:25:38.919Z</time>
      </trkpt>
      <trkpt lat="48.84764" lon="2.06926">
        <ele>189</ele>
        <time>2023-01-29T00:25:43.129Z</time>
      </trkpt>
      <trkpt lat="48.84769" lon="2.06934">
        <ele>189</ele>
        <time>2023-01-29T00:25:47.202Z</time>
      </trkpt>
      <trkpt lat="48.84773" lon="2.06943">
        <ele>189</ele>
        <time>2023-01-29T00:25:51.635Z</time>
      </trkpt>
      <trkpt lat="48.84779" lon="2.06951">
        <ele>189</ele>
        <time>2023-01-29T00:25:56.168Z</time>
      </trkpt>
      <trkpt lat="48.84784" lon="2.0696">
        <ele>189</ele>
        <time>2023-01-29T00:26:00.720Z</time>
      </trkpt>
      <trkpt lat="48.8479" lon="2.06966">
        <ele>189</ele>
        <time>2023-01-29T00:26:04.792Z</time>
      </trkpt>
      <trkpt lat="48.84795" lon="2.06975">
        <ele>192</ele>
        <time>2023-01-29T00:26:09.327Z</time>
      </trkpt>
      <trkpt lat="48.848" lon="2.06984">
        <ele>192</ele>
        <time>2023-01-29T00:26:13.296Z</time>
      </trkpt>
      <trkpt lat="48.84805" lon="2.06993">
        <ele>192</ele>
        <time>2023-01-29T00:26:17.836Z</time>
      </trkpt>
      <trkpt lat="48.84811" lon="2.07">
        <ele>192</ele>
        <time>2023-01-29T00:26:22.358Z</time>
      </trkpt>
      <trkpt lat="48.84813" lon="2.07008">
        <ele>192</ele>
        <time>2023-01-29T00:26:26.290Z</time>
      </trkpt>
      <trkpt lat="48.84818" lon="2.07017">
        <ele>190</ele>
        <time>2023-01-29T00:26:30.721Z</time>
      </trkpt>
      <trkpt lat="48.84821" lon="2.07024">
        <ele>192</ele>
        <time>2023-01-29T00:26:34.672Z</time>
      </trkpt>
      <trkpt lat="48.84824" lon="2.07034">
        <ele>192</ele>
        <time>2023-01-29T00:26:39.085Z</time>
      </trkpt>
      <trkpt lat="48.84828" lon="2.07044">
        <ele>190</ele>
        <time>2023-01-29T00:26:43.050Z</time>
      </trkpt>
      <trkpt lat="48.84833" lon="2.07051">
        <ele>190</ele>
        <time>2023-01-29T00:26:47.720Z</time>
      </trkpt>
      <trkpt lat="48.84837" lon="2.07057">
        <ele>190</ele>
        <time>2023-01-29T00:26:51.670Z</time>
      </trkpt>
      <trkpt lat="48.84842" lon="2.07063">
        <ele>190</ele>
        <time>2023-01-29T00:26:56.219Z</time>
      </trkpt>
      <trkpt lat="48.84847" lon="2.07068">
        <ele>190</ele>
        <time>2023-01-29T00:27:00.049Z</time>
      </trkpt>
      <trkpt lat="48.84853" lon="2.07076">
        <ele>191</ele>
        <time>2023-01-29T00:27:04.622Z</time>
      </trkpt>
      <trkpt lat="48.8486" lon="2.07083">
        <ele>191</ele>
        <time>2023-01-29T00:27:08.762Z</time>
      </trkpt>
      <trkpt lat="48.84866" lon="2.07085">
        <ele>191</ele>
        <time>2023-01-29T00:27:12.620Z</time>
      </trkpt>
      <trkpt lat="48.84872" lon="2.0709">
        <ele>191</ele>
        <time>2023-01-29T00:27:16.690Z</time>
      </trkpt>
      <trkpt lat="48.84878" lon="2.07098">
        <ele>191</ele>
        <time>2023-01-29T00:27:21.368Z</time>
      </trkpt>
      <trkpt lat="48.84883" lon="2.07099">
        <ele>191</ele>
        <time>2023-01-29T00:27:25.560Z</time>
      </trkpt>
      <trkpt lat="48.84887" lon="2.07096">
        <ele>191</ele>
        <time>2023-01-29T00:27:29.737Z</time>
      </trkpt>
      <trkpt lat="48.84889" lon="2.07092">
        <ele>191</ele>
        <time>2023-01-29T00:27:34.167Z</time>
      </trkpt>
      <trkpt lat="48.84893" lon="2.07087">
        <ele>191</ele>
        <time>2023-01-29T00:27:38.836Z</time>
      </trkpt>
      <trkpt lat="48.84897" lon="2.07079">
        <ele>191</ele>
        <time>2023-01-29T00:27:42.836Z</time>
      </trkpt>
      <trkpt lat="48.84903" lon="2.07072">
        <ele>190</ele>
        <time>2023-01-29T00:27:47.338Z</time>
      </trkpt>
      <trkpt lat="48.84908" lon="2.07065">
        <ele>190</ele>
        <time>2023-01-29T00:27:51.408Z</time>
      </trkpt>
      <trkpt lat="48.84912" lon="2.07058">
        <ele>190</ele>
        <time>2023-01-29T00:27:55.836Z</time>
      </trkpt>
      <trkpt lat="48.84917" lon="2.07049">
        <ele>190</ele>
        <time>2023-01-29T00:28:00.342Z</time>
      </trkpt>
      <trkpt lat="48.84922" lon="2.07041">
        <ele>190</ele>
        <time>2023-01-29T00:28:04.337Z</time>
      </trkpt>
      <trkpt lat="48.84927" lon="2.07032">
        <ele>190</ele>
        <time>2023-01-29T00:28:08.766Z</time>
      </trkpt>
      <trkpt lat="48.84933" lon="2.07023">
        <ele>189</ele>
        <time>2023-01-29T00:28:13.554Z</time>
      </trkpt>
      <trkpt lat="48.84937" lon="2.07014">
        <ele>189</ele>
        <time>2023-01-29T00:28:17.625Z</time>
      </trkpt>
      <trkpt lat="48.8494" lon="2.07003">
        <ele>189</ele>
        <time>2023-01-29T00:28:22.055Z</time>
      </trkpt>
      <trkpt lat="48.84945" lon="2.06994">
        <ele>189</ele>
        <time>2023-01-29T00:28:26.485Z</time>
      </trkpt>
      <trkpt lat="48.8495" lon="2.06985">
        <ele>189</ele>
        <time>2023-01-29T00:28:31.134Z</time>
      </trkpt>
      <trkpt lat="48.84956" lon="2.06977">
        <ele>189</ele>
        <time>2023-01-29T00:28:35.683Z</time>
      </trkpt>
      <trkpt lat="48.84961" lon="2.06967">
        <ele>189</ele>
        <time>2023-01-29T00:28:40.234Z</time>
      </trkpt>
      <trkpt lat="48.84965" lon="2.06958">
        <ele>189</ele>
        <time>2023-01-29T00:28:44.786Z</time>
      </trkpt>
      <trkpt lat="48.84971" lon="2.06949">
        <ele>189</ele>
        <time>2023-01-29T00:28:49.296Z</time>
      </trkpt>
      <trkpt lat="48.84976" lon="2.06941">
        <ele>189</ele>
        <time>2023-01-29T00:28:53.836Z</time>
      </trkpt>
      <trkpt lat="48.8498" lon="2.06932">
        <ele>189</ele>
        <time>2023-01-29T00:28:57.836Z</time>
      </trkpt>
      <trkpt lat="48.84984" lon="2.06924">
        <ele>189</ele>
        <time>2023-01-29T00:29:01.706Z</time>
      </trkpt>
      <trkpt lat="48.84988" lon="2.06913">
        <ele>187</ele>
        <time>2023-01-29T00:29:06.134Z</time>
      </trkpt>
      <trkpt lat="48.84992" lon="2.06904">
        <ele>187</ele>
        <time>2023-01-29T00:29:10.204Z</time>
      </trkpt>
      <trkpt lat="48.84996" lon="2.06895">
        <ele>187</ele>
        <time>2023-01-29T00:29:14.805Z</time>
      </trkpt>
      <trkpt lat="48.85" lon="2.06886">
        <ele>187</ele>
        <time>2023-01-29T00:29:18.700Z</time>
      </trkpt>
      <trkpt lat="48.85005" lon="2.06878">
        <ele>187</ele>
        <time>2023-01-29T00:29:23.230Z</time>
      </trkpt>
      <trkpt lat="48.85008" lon="2.06869">
        <ele>189</ele>
        <time>2023-01-29T00:29:27.262Z</time>
      </trkpt>
      <trkpt lat="48.85011" lon="2.0686">
        <ele>189</ele>
        <time>2023-01-29T00:29:31.811Z</time>
      </trkpt>
      <trkpt lat="48.85015" lon="2.06849">
        <ele>187</ele>
        <time>2023-01-29T00:29:36.264Z</time>
      </trkpt>
      <trkpt lat="48.85019" lon="2.06841">
        <ele>188</ele>
        <time>2023-01-29T00:29:40.191Z</time>
      </trkpt>
      <trkpt lat="48.85023" lon="2.06832">
        <ele>188</ele>
        <time>2023-01-29T00:29:44.381Z</time>
      </trkpt>
      <trkpt lat="48.85026" lon="2.06822">
        <ele>188</ele>
        <time>2023-01-29T00:29:48.929Z</time>
      </trkpt>
      <trkpt lat="48.8503" lon="2.06812">
        <ele>188</ele>
        <time>2023-01-29T00:29:53.358Z</time>
      </trkpt>
      <trkpt lat="48.85034" lon="2.06803">
        <ele>188</ele>
        <time>2023-01-29T00:29:57.307Z</time>
      </trkpt>
      <trkpt lat="48.85038" lon="2.06795">
        <ele>188</ele>
        <time>2023-01-29T00:30:01.736Z</time>
      </trkpt>
      <trkpt lat="48.85043" lon="2.06786">
        <ele>187</ele>
        <time>2023-01-29T00:30:06.285Z</time>
      </trkpt>
      <trkpt lat="48.85047" lon="2.06778">
        <ele>187</ele>
        <time>2023-01-29T00:30:10.234Z</time>
      </trkpt>
      <trkpt lat="48.85052" lon="2.06769">
        <ele>187</ele>
        <time>2023-01-29T00:30:14.836Z</time>
      </trkpt>
      <trkpt lat="48.85056" lon="2.06762">
        <ele>186</ele>
        <time>2023-01-29T00:30:18.836Z</time>
      </trkpt>
      <trkpt lat="48.85061" lon="2.06753">
        <ele>186</ele>
        <time>2023-01-29T00:30:23.358Z</time>
      </trkpt>
      <trkpt lat="48.85066" lon="2.06744">
        <ele>186</ele>
        <time>2023-01-29T00:30:27.981Z</time>
      </trkpt>
      <trkpt lat="48.8507" lon="2.06734">
        <ele>185</ele>
        <time>2023-01-29T00:30:32.556Z</time>
      </trkpt>
      <trkpt lat="48.85074" lon="2.06724">
        <ele>185</ele>
        <time>2023-01-29T00:30:36.625Z</time>
      </trkpt>
      <trkpt lat="48.85077" lon="2.06715">
        <ele>185</ele>
        <time>2023-01-29T00:30:41.187Z</time>
      </trkpt>
      <trkpt lat="48.8508" lon="2.06705">
        <ele>185</ele>
        <time>2023-01-29T00:30:45.366Z</time>
      </trkpt>
      <trkpt lat="48.85083" lon="2.06696">
        <ele>185</ele>
        <time>2023-01-29T00:30:49.314Z</time>
      </trkpt>
      <trkpt lat="48.85086" lon="2.06689">
        <ele>185</ele>
        <time>2023-01-29T00:30:53.836Z</time>
      </trkpt>
      <trkpt lat="48.8509" lon="2.0668">
        <ele>185</ele>
        <time>2023-01-29T00:30:58.363Z</time>
      </trkpt>
      <trkpt lat="48.85093" lon="2.06671">
        <ele>185</ele>
        <time>2023-01-29T00:31:02.238Z</time>
      </trkpt>
      <trkpt lat="48.85097" lon="2.06662">
        <ele>185</ele>
        <time>2023-01-29T00:31:06.836Z</time>
      </trkpt>
      <trkpt lat="48.85102" lon="2.06653">
        <ele>185</ele>
        <time>2023-01-29T00:31:11.212Z</time>
      </trkpt>
      <trkpt lat="48.85107" lon="2.06644">
        <ele>185</ele>
        <time>2023-01-29T00:31:15.641Z</time>
      </trkpt>
      <trkpt lat="48.85111" lon="2.06635">
        <ele>185</ele>
        <time>2023-01-29T00:31:20.241Z</time>
      </trkpt>
      <trkpt lat="48.85115" lon="2.06627">
        <ele>185</ele>
        <time>2023-01-29T00:31:24.259Z</time>
      </trkpt>
      <trkpt lat="48.8512" lon="2.06618">
        <ele>187</ele>
        <time>2023-01-29T00:31:28.328Z</time>
      </trkpt>
      <trkpt lat="48.85126" lon="2.06608">
        <ele>186</ele>
        <time>2023-01-29T00:31:32.836Z</time>
      </trkpt>
      <trkpt lat="48.8513" lon="2.06597">
        <ele>187</ele>
        <time>2023-01-29T00:31:37.421Z</time>
      </trkpt>
      <trkpt lat="48.85134" lon="2.06588">
        <ele>187</ele>
        <time>2023-01-29T00:31:41.949Z</time>
      </trkpt>
      <trkpt lat="48.85137" lon="2.0658">
        <ele>187</ele>
        <time>2023-01-29T00:31:45.982Z</time>
      </trkpt>
      <trkpt lat="48.85142" lon="2.06571">
        <ele>187</ele>
        <time>2023-01-29T00:31:50.568Z</time>
      </trkpt>
      <trkpt lat="48.85148" lon="2.06562">
        <ele>187</ele>
        <time>2023-01-29T00:31:55.320Z</time>
      </trkpt>
      <trkpt lat="48.85152" lon="2.06553">
        <ele>187</ele>
        <time>2023-01-29T00:31:59.306Z</time>
      </trkpt>
      <trkpt lat="48.85157" lon="2.06544">
        <ele>187</ele>
        <time>2023-01-29T00:32:03.735Z</time>
      </trkpt>
      <trkpt lat="48.85163" lon="2.06533">
        <ele>187</ele>
        <time>2023-01-29T00:32:08.167Z</time>
      </trkpt>
      <trkpt lat="48.85166" lon="2.06524">
        <ele>187</ele>
        <time>2023-01-29T00:32:12.233Z</time>
      </trkpt>
      <trkpt lat="48.8517" lon="2.06515">
        <ele>187</ele>
        <time>2023-01-29T00:32:16.303Z</time>
      </trkpt>
      <trkpt lat="48.85172" lon="2.06506">
        <ele>186</ele>
        <time>2023-01-29T00:32:20.925Z</time>
      </trkpt>
      <trkpt lat="48.85175" lon="2.06497">
        <ele>186</ele>
        <time>2023-01-29T00:32:24.836Z</time>
      </trkpt>
      <trkpt lat="48.8518" lon="2.06488">
        <ele>186</ele>
        <time>2023-01-29T00:32:28.982Z</time>
      </trkpt>
      <trkpt lat="48.85184" lon="2.06477">
        <ele>181</ele>
        <time>2023-01-29T00:32:33.417Z</time>
      </trkpt>
      <trkpt lat="48.85188" lon="2.06469">
        <ele>181</ele>
        <time>2023-01-29T00:32:37.965Z</time>
      </trkpt>
      <trkpt lat="48.85193" lon="2.06459">
        <ele>181</ele>
        <time>2023-01-29T00:32:42.492Z</time>
      </trkpt>
      <trkpt lat="48.85198" lon="2.06451">
        <ele>177</ele>
        <time>2023-01-29T00:32:47.041Z</time>
      </trkpt>
      <trkpt lat="48.85202" lon="2.06443">
        <ele>177</ele>
        <time>2023-01-29T00:32:51.111Z</time>
      </trkpt>
      <trkpt lat="48.85207" lon="2.06434">
        <ele>177</ele>
        <time>2023-01-29T00:32:55.778Z</time>
      </trkpt>
      <trkpt lat="48.85215" lon="2.06432">
        <ele>178</ele>
        <time>2023-01-29T00:33:00.306Z</time>
      </trkpt>
      <trkpt lat="48.85219" lon="2.06431">
        <ele>178</ele>
        <time>2023-01-29T00:33:04.836Z</time>
      </trkpt>
      <trkpt lat="48.85228" lon="2.06427">
        <ele>175</ele>
        <time>2023-01-29T00:33:09.282Z</time>
      </trkpt>
      <trkpt lat="48.85237" lon="2.0643">
        <ele>178</ele>
        <time>2023-01-29T00:33:13.351Z</time>
      </trkpt>
      <trkpt lat="48.85243" lon="2.0643">
        <ele>178</ele>
        <time>2023-01-29T00:33:17.836Z</time>
      </trkpt>
      <trkpt lat="48.85249" lon="2.06432">
        <ele>179</ele>
        <time>2023-01-29T00:33:22.445Z</time>
      </trkpt>
      <trkpt lat="48.85256" lon="2.06432">
        <ele>179</ele>
        <time>2023-01-29T00:33:26.974Z</time>
      </trkpt>
      <trkpt lat="48.85262" lon="2.06428">
        <ele>178</ele>
        <time>2023-01-29T00:33:31.144Z</time>
      </trkpt>
      <trkpt lat="48.85268" lon="2.0642">
        <ele>181</ele>
        <time>2023-01-29T00:33:35.916Z</time>
      </trkpt>
      <trkpt lat="48.85271" lon="2.06412">
        <ele>181</ele>
        <time>2023-01-29T00:33:39.984Z</time>
      </trkpt>
      <trkpt lat="48.85275" lon="2.06404">
        <ele>181</ele>
        <time>2023-01-29T00:33:44.070Z</time>
      </trkpt>
      <trkpt lat="48.8528" lon="2.06396">
        <ele>181</ele>
        <time>2023-01-29T00:33:48.499Z</time>
      </trkpt>
      <trkpt lat="48.85284" lon="2.06387">
        <ele>181</ele>
        <time>2023-01-29T00:33:53.728Z</time>
      </trkpt>
      <trkpt lat="48.85288" lon="2.06379">
        <ele>181</ele>
        <time>2023-01-29T00:33:57.677Z</time>
      </trkpt>
      <trkpt lat="48.85291" lon="2.06371">
        <ele>181</ele>
        <time>2023-01-29T00:34:01.627Z</time>
      </trkpt>
      <trkpt lat="48.85295" lon="2.06363">
        <ele>183</ele>
        <time>2023-01-29T00:34:06.307Z</time>
      </trkpt>
      <trkpt lat="48.85299" lon="2.06356">
        <ele>183</ele>
        <time>2023-01-29T00:34:10.245Z</time>
      </trkpt>
      <trkpt lat="48.85302" lon="2.06347">
        <ele>183</ele>
        <time>2023-01-29T00:34:14.793Z</time>
      </trkpt>
      <trkpt lat="48.85306" lon="2.0634">
        <ele>183</ele>
        <time>2023-01-29T00:34:19.342Z</time>
      </trkpt>
      <trkpt lat="48.85309" lon="2.06333">
        <ele>183</ele>
        <time>2023-01-29T00:34:23.173Z</time>
      </trkpt>
      <trkpt lat="48.85313" lon="2.06325">
        <ele>183</ele>
        <time>2023-01-29T00:34:27.836Z</time>
      </trkpt>
      <trkpt lat="48.85315" lon="2.06318">
        <ele>181</ele>
        <time>2023-01-29T00:34:31.788Z</time>
      </trkpt>
      <trkpt lat="48.85319" lon="2.06309">
        <ele>181</ele>
        <time>2023-01-29T00:34:36.455Z</time>
      </trkpt>
      <trkpt lat="48.85323" lon="2.06301">
        <ele>183</ele>
        <time>2023-01-29T00:34:40.403Z</time>
      </trkpt>
      <trkpt lat="48.85327" lon="2.06292">
        <ele>183</ele>
        <time>2023-01-29T00:34:44.953Z</time>
      </trkpt>
      <trkpt lat="48.85331" lon="2.06282">
        <ele>181</ele>
        <time>2023-01-29T00:34:49.502Z</time>
      </trkpt>
      <trkpt lat="48.85337" lon="2.06274">
        <ele>181</ele>
        <time>2023-01-29T00:34:54.169Z</time>
      </trkpt>
      <trkpt lat="48.85341" lon="2.06264">
        <ele>181</ele>
        <time>2023-01-29T00:34:58.938Z</time>
      </trkpt>
      <trkpt lat="48.85346" lon="2.06255">
        <ele>178</ele>
        <time>2023-01-29T00:35:02.979Z</time>
      </trkpt>
      <trkpt lat="48.85351" lon="2.06248">
        <ele>185</ele>
        <time>2023-01-29T00:35:07.555Z</time>
      </trkpt>
      <trkpt lat="48.85356" lon="2.06244">
        <ele>185</ele>
        <time>2023-01-29T00:35:11.745Z</time>
      </trkpt>
      <trkpt lat="48.85361" lon="2.06236">
        <ele>180</ele>
        <time>2023-01-29T00:35:15.836Z</time>
      </trkpt>
      <trkpt lat="48.85364" lon="2.06227">
        <ele>180</ele>
        <time>2023-01-29T00:35:19.761Z</time>
      </trkpt>
      <trkpt lat="48.85369" lon="2.06218">
        <ele>180</ele>
        <time>2023-01-29T00:35:24.430Z</time>
      </trkpt>
      <trkpt lat="48.85373" lon="2.06212">
        <ele>180</ele>
        <time>2023-01-29T00:35:28.953Z</time>
      </trkpt>
      <trkpt lat="48.85377" lon="2.06205">
        <ele>181</ele>
        <time>2023-01-29T00:35:33.029Z</time>
      </trkpt>
      <trkpt lat="48.8538" lon="2.06197">
        <ele>181</ele>
        <time>2023-01-29T00:35:37.100Z</time>
      </trkpt>
      <trkpt lat="48.85385" lon="2.06188">
        <ele>181</ele>
        <time>2023-01-29T00:35:41.647Z</time>
      </trkpt>
      <trkpt lat="48.85389" lon="2.06178">
        <ele>180</ele>
        <time>2023-01-29T00:35:46.306Z</time>
      </trkpt>
      <trkpt lat="48.85392" lon="2.0617">
        <ele>180</ele>
        <time>2023-01-29T00:35:50.263Z</time>
      </trkpt>
      <trkpt lat="48.85397" lon="2.06161">
        <ele>180</ele>
        <time>2023-01-29T00:35:54.810Z</time>
      </trkpt>
      <trkpt lat="48.85401" lon="2.06154">
        <ele>180</ele>
        <time>2023-01-29T00:35:58.836Z</time>
      </trkpt>
      <trkpt lat="48.85405" lon="2.06147">
        <ele>182</ele>
        <time>2023-01-29T00:36:02.828Z</time>
      </trkpt>
      <trkpt lat="48.85409" lon="2.06139">
        <ele>182</ele>
        <time>2023-01-29T00:36:07.373Z</time>
      </trkpt>
      <trkpt lat="48.85412" lon="2.0613">
        <ele>182</ele>
        <time>2023-01-29T00:36:11.440Z</time>
      </trkpt>
      <trkpt lat="48.85415" lon="2.06123">
        <ele>181</ele>
        <time>2023-01-29T00:36:15.387Z</time>
      </trkpt>
      <trkpt lat="48.85418" lon="2.06115">
        <ele>181</ele>
        <time>2023-01-29T00:36:19.933Z</time>
      </trkpt>
      <trkpt lat="48.85423" lon="2.06106">
        <ele>181</ele>
        <time>2023-01-29T00:36:24.603Z</time>
      </trkpt>
      <trkpt lat="48.85428" lon="2.06098">
        <ele>181</ele>
        <time>2023-01-29T00:36:28.546Z</time>
      </trkpt>
      <trkpt lat="48.85433" lon="2.06087">
        <ele>182</ele>
        <time>2023-01-29T00:36:33.091Z</time>
      </trkpt>
      <trkpt lat="48.85437" lon="2.06077">
        <ele>182</ele>
        <time>2023-01-29T00:36:37.756Z</time>
      </trkpt>
      <trkpt lat="48.85443" lon="2.06069">
        <ele>182</ele>
        <time>2023-01-29T00:36:42.386Z</time>
      </trkpt>
      <trkpt lat="48.85447" lon="2.06062">
        <ele>182</ele>
        <time>2023-01-29T00:36:46.372Z</time>
      </trkpt>
      <trkpt lat="48.85451" lon="2.06055">
        <ele>182</ele>
        <time>2023-01-29T00:36:50.970Z</time>
      </trkpt>
      <trkpt lat="48.85456" lon="2.06047">
        <ele>182</ele>
        <time>2023-01-29T00:36:55.527Z</time>
      </trkpt>
      <trkpt lat="48.85461" lon="2.06037">
        <ele>184</ele>
        <time>2023-01-29T00:36:59.509Z</time>
      </trkpt>
      <trkpt lat="48.85466" lon="2.06029">
        <ele>184</ele>
        <time>2023-01-29T00:37:03.457Z</time>
      </trkpt>
      <trkpt lat="48.85472" lon="2.0602">
        <ele>184</ele>
        <time>2023-01-29T00:37:07.957Z</time>
      </trkpt>
      <trkpt lat="48.85476" lon="2.06009">
        <ele>184</ele>
        <time>2023-01-29T00:37:12.406Z</time>
      </trkpt>
      <trkpt lat="48.8548" lon="2.05999">
        <ele>184</ele>
        <time>2023-01-29T00:37:16.926Z</time>
      </trkpt>
      <trkpt lat="48.85484" lon="2.05991">
        <ele>184</ele>
        <time>2023-01-29T00:37:20.836Z</time>
      </trkpt>
      <trkpt lat="48.85489" lon="2.05982">
        <ele>184</ele>
        <time>2023-01-29T00:37:25.307Z</time>
      </trkpt>
      <trkpt lat="48.85495" lon="2.05975">
        <ele>184</ele>
        <time>2023-01-29T00:37:29.836Z</time>
      </trkpt>
      <trkpt lat="48.855" lon="2.05968">
        <ele>184</ele>
        <time>2023-01-29T00:37:33.799Z</time>
      </trkpt>
      <trkpt lat="48.85505" lon="2.0596">
        <ele>184</ele>
        <time>2023-01-29T00:37:38.227Z</time>
      </trkpt>
      <trkpt lat="48.85509" lon="2.05951">
        <ele>183</ele>
        <time>2023-01-29T00:37:42.175Z</time>
      </trkpt>
      <trkpt lat="48.85513" lon="2.05941">
        <ele>183</ele>
        <time>2023-01-29T00:37:46.722Z</time>
      </trkpt>
      <trkpt lat="48.85518" lon="2.05935">
        <ele>183</ele>
        <time>2023-01-29T00:37:50.671Z</time>
      </trkpt>
      <trkpt lat="48.85522" lon="2.05928">
        <ele>181</ele>
        <time>2023-01-29T00:37:55.099Z</time>
      </trkpt>
      <trkpt lat="48.85527" lon="2.0592">
        <ele>181</ele>
        <time>2023-01-29T00:37:59.527Z</time>
      </trkpt>
      <trkpt lat="48.85532" lon="2.0591">
        <ele>181</ele>
        <time>2023-01-29T00:38:03.990Z</time>
      </trkpt>
      <trkpt lat="48.85537" lon="2.059">
        <ele>180</ele>
        <time>2023-01-29T00:38:08.503Z</time>
      </trkpt>
      <trkpt lat="48.85542" lon="2.05893">
        <ele>182</ele>
        <time>2023-01-29T00:38:13.050Z</time>
      </trkpt>
      <trkpt lat="48.85548" lon="2.05887">
        <ele>182</ele>
        <time>2023-01-29T00:38:17.717Z</time>
      </trkpt>
      <trkpt lat="48.85553" lon="2.05881">
        <ele>182</ele>
        <time>2023-01-29T00:38:21.786Z</time>
      </trkpt>
      <trkpt lat="48.85558" lon="2.05873">
        <ele>181</ele>
        <time>2023-01-29T00:38:26.213Z</time>
      </trkpt>
      <trkpt lat="48.85563" lon="2.05864">
        <ele>181</ele>
        <time>2023-01-29T00:38:30.887Z</time>
      </trkpt>
      <trkpt lat="48.85567" lon="2.05854">
        <ele>181</ele>
        <time>2023-01-29T00:38:34.922Z</time>
      </trkpt>
      <trkpt lat="48.85571" lon="2.05845">
        <ele>182</ele>
        <time>2023-01-29T00:38:38.780Z</time>
      </trkpt>
      <trkpt lat="48.85574" lon="2.05837">
        <ele>182</ele>
        <time>2023-01-29T00:38:42.969Z</time>
      </trkpt>
      <trkpt lat="48.85577" lon="2.05829">
        <ele>182</ele>
        <time>2023-01-29T00:38:46.972Z</time>
      </trkpt>
      <trkpt lat="48.8558" lon="2.05819">
        <ele>181</ele>
        <time>2023-01-29T00:38:51.465Z</time>
      </trkpt>
      <trkpt lat="48.85583" lon="2.0581">
        <ele>181</ele>
        <time>2023-01-29T00:38:55.974Z</time>
      </trkpt>
      <trkpt lat="48.85587" lon="2.05803">
        <ele>181</ele>
        <time>2023-01-29T00:38:59.963Z</time>
      </trkpt>
      <trkpt lat="48.85591" lon="2.05794">
        <ele>181</ele>
        <time>2023-01-29T00:39:04.511Z</time>
      </trkpt>
      <trkpt lat="48.85595" lon="2.05785">
        <ele>180</ele>
        <time>2023-01-29T00:39:08.581Z</time>
      </trkpt>
      <trkpt lat="48.85599" lon="2.05777">
        <ele>183</ele>
        <time>2023-01-29T00:39:13.251Z</time>
      </trkpt>
      <trkpt lat="48.85605" lon="2.05769">
        <ele>183</ele>
        <time>2023-01-29T00:39:17.800Z</time>
      </trkpt>
      <trkpt lat="48.85609" lon="2.0576">
        <ele>182</ele>
        <time>2023-01-29T00:39:21.611Z</time>
      </trkpt>
      <trkpt lat="48.85613" lon="2.05751">
        <ele>182</ele>
        <time>2023-01-29T00:39:26.259Z</time>
      </trkpt>
      <trkpt lat="48.8562" lon="2.05745">
        <ele>182</ele>
        <time>2023-01-29T00:39:30.327Z</time>
      </trkpt>
      <trkpt lat="48.85626" lon="2.05739">
        <ele>184</ele>
        <time>2023-01-29T00:39:34.276Z</time>
      </trkpt>
      <trkpt lat="48.85631" lon="2.0573">
        <ele>183</ele>
        <time>2023-01-29T00:39:38.348Z</time>
      </trkpt>
      <trkpt lat="48.85635" lon="2.05721">
        <ele>183</ele>
        <time>2023-01-29T00:39:43.018Z</time>
      </trkpt>
      <trkpt lat="48.85639" lon="2.05714">
        <ele>183</ele>
        <time>2023-01-29T00:39:47.567Z</time>
      </trkpt>
      <trkpt lat="48.85645" lon="2.05707">
        <ele>182</ele>
        <time>2023-01-29T00:39:52.040Z</time>
      </trkpt>
      <trkpt lat="48.8565" lon="2.05699">
        <ele>182</ele>
        <time>2023-01-29T00:39:56.121Z</time>
      </trkpt>
      <trkpt lat="48.85656" lon="2.05691">
        <ele>183</ele>
        <time>2023-01-29T00:40:00.498Z</time>
      </trkpt>
      <trkpt lat="48.85662" lon="2.05682">
        <ele>183</ele>
        <time>2023-01-29T00:40:05.161Z</time>
      </trkpt>
      <trkpt lat="48.85667" lon="2.05674">
        <ele>183</ele>
        <time>2023-01-29T00:40:09.238Z</time>
      </trkpt>
      <trkpt lat="48.85671" lon="2.05666">
        <ele>183</ele>
        <time>2023-01-29T00:40:13.189Z</time>
      </trkpt>
      <trkpt lat="48.85676" lon="2.05657">
        <ele>183</ele>
        <time>2023-01-29T00:40:17.700Z</time>
      </trkpt>
      <trkpt lat="48.85679" lon="2.05649">
        <ele>183</ele>
        <time>2023-01-29T00:40:21.688Z</time>
      </trkpt>
      <trkpt lat="48.85685" lon="2.0564">
        <ele>185</ele>
        <time>2023-01-29T00:40:26.238Z</time>
      </trkpt>
      <trkpt lat="48.85689" lon="2.05632">
        <ele>185</ele>
        <time>2023-01-29T00:40:30.786Z</time>
      </trkpt>
      <trkpt lat="48.85693" lon="2.05623">
        <ele>184</ele>
        <time>2023-01-29T00:40:34.836Z</time>
      </trkpt>
      <trkpt lat="48.85697" lon="2.05612">
        <ele>184</ele>
        <time>2023-01-29T00:40:39.404Z</time>
      </trkpt>
      <trkpt lat="48.85701" lon="2.05602">
        <ele>184</ele>
        <time>2023-01-29T00:40:43.354Z</time>
      </trkpt>
      <trkpt lat="48.85704" lon="2.05591">
        <ele>183</ele>
        <time>2023-01-29T00:40:48.143Z</time>
      </trkpt>
      <trkpt lat="48.85708" lon="2.05582">
        <ele>183</ele>
        <time>2023-01-29T00:40:52.811Z</time>
      </trkpt>
      <trkpt lat="48.85714" lon="2.05575">
        <ele>185</ele>
        <time>2023-01-29T00:40:57.244Z</time>
      </trkpt>
      <trkpt lat="48.85719" lon="2.05567">
        <ele>184</ele>
        <time>2023-01-29T00:41:01.922Z</time>
      </trkpt>
      <trkpt lat="48.85724" lon="2.0556">
        <ele>184</ele>
        <time>2023-01-29T00:41:05.946Z</time>
      </trkpt>
      <trkpt lat="48.8573" lon="2.05553">
        <ele>184</ele>
        <time>2023-01-29T00:41:10.081Z</time>
      </trkpt>
      <trkpt lat="48.85734" lon="2.05545">
        <ele>184</ele>
        <time>2023-01-29T00:41:14.449Z</time>
      </trkpt>
      <trkpt lat="48.85738" lon="2.05537">
        <ele>185</ele>
        <time>2023-01-29T00:41:18.958Z</time>
      </trkpt>
      <trkpt lat="48.85744" lon="2.05529">
        <ele>185</ele>
        <time>2023-01-29T00:41:23.549Z</time>
      </trkpt>
      <trkpt lat="48.8575" lon="2.05522">
        <ele>185</ele>
        <time>2023-01-29T00:41:28.099Z</time>
      </trkpt>
      <trkpt lat="48.85756" lon="2.05514">
        <ele>185</ele>
        <time>2023-01-29T00:41:32.768Z</time>
      </trkpt>
      <trkpt lat="48.85763" lon="2.05506">
        <ele>185</ele>
        <time>2023-01-29T00:41:37.439Z</time>
      </trkpt>
      <trkpt lat="48.85769" lon="2.05498">
        <ele>185</ele>
        <time>2023-01-29T00:41:41.940Z</time>
      </trkpt>
      <trkpt lat="48.85774" lon="2.05489">
        <ele>185</ele>
        <time>2023-01-29T00:41:45.818Z</time>
      </trkpt>
      <trkpt lat="48.85779" lon="2.0548">
        <ele>185</ele>
        <time>2023-01-29T00:41:50.381Z</time>
      </trkpt>
      <trkpt lat="48.85783" lon="2.05472">
        <ele>185</ele>
        <time>2023-01-29T00:41:54.441Z</time>
      </trkpt>
      <trkpt lat="48.85788" lon="2.05465">
        <ele>185</ele>
        <time>2023-01-29T00:41:58.836Z</time>
      </trkpt>
      <trkpt lat="48.85793" lon="2.05456">
        <ele>185</ele>
        <time>2023-01-29T00:42:03.401Z</time>
      </trkpt>
      <trkpt lat="48.85798" lon="2.05446">
        <ele>185</ele>
        <time>2023-01-29T00:42:07.352Z</time>
      </trkpt>
      <trkpt lat="48.85803" lon="2.05438">
        <ele>185</ele>
        <time>2023-01-29T00:42:11.981Z</time>
      </trkpt>
      <trkpt lat="48.85808" lon="2.05431">
        <ele>185</ele>
        <time>2023-01-29T00:42:16.453Z</time>
      </trkpt>
      <trkpt lat="48.85813" lon="2.05422">
        <ele>184</ele>
        <time>2023-01-29T00:42:20.525Z</time>
      </trkpt>
      <trkpt lat="48.85817" lon="2.05413">
        <ele>184</ele>
        <time>2023-01-29T00:42:25.126Z</time>
      </trkpt>
      <trkpt lat="48.85821" lon="2.05405">
        <ele>182</ele>
        <time>2023-01-29T00:42:29.146Z</time>
      </trkpt>
      <trkpt lat="48.85826" lon="2.05397">
        <ele>182</ele>
        <time>2023-01-29T00:42:33.669Z</time>
      </trkpt>
      <trkpt lat="48.8583" lon="2.05389">
        <ele>182</ele>
        <time>2023-01-29T00:42:37.643Z</time>
      </trkpt>
      <trkpt lat="48.85836" lon="2.0538">
        <ele>182</ele>
        <time>2023-01-29T00:42:42.305Z</time>
      </trkpt>
      <trkpt lat="48.85841" lon="2.05372">
        <ele>182</ele>
        <time>2023-01-29T00:42:46.363Z</time>
      </trkpt>
      <trkpt lat="48.85845" lon="2.05364">
        <ele>182</ele>
        <time>2023-01-29T00:42:50.946Z</time>
      </trkpt>
      <trkpt lat="48.8585" lon="2.05356">
        <ele>180</ele>
        <time>2023-01-29T00:42:54.836Z</time>
      </trkpt>
      <trkpt lat="48.85855" lon="2.05347">
        <ele>181</ele>
        <time>2023-01-29T00:42:59.409Z</time>
      </trkpt>
      <trkpt lat="48.8586" lon="2.05338">
        <ele>181</ele>
        <time>2023-01-29T00:43:03.442Z</time>
      </trkpt>
      <trkpt lat="48.85865" lon="2.0533">
        <ele>181</ele>
        <time>2023-01-29T00:43:08.183Z</time>
      </trkpt>
      <trkpt lat="48.85869" lon="2.05323">
        <ele>181</ele>
        <time>2023-01-29T00:43:12.120Z</time>
      </trkpt>
      <trkpt lat="48.85875" lon="2.05315">
        <ele>181</ele>
        <time>2023-01-29T00:43:16.547Z</time>
      </trkpt>
      <trkpt lat="48.8588" lon="2.05308">
        <ele>181</ele>
        <time>2023-01-29T00:43:20.497Z</time>
      </trkpt>
      <trkpt lat="48.85884" lon="2.053">
        <ele>181</ele>
        <time>2023-01-29T00:43:25.100Z</time>
      </trkpt>
      <trkpt lat="48.85888" lon="2.05293">
        <ele>181</ele>
        <time>2023-01-29T00:43:29.079Z</time>
      </trkpt>
      <trkpt lat="48.85892" lon="2.05284">
        <ele>181</ele>
        <time>2023-01-29T00:43:33.629Z</time>
      </trkpt>
      <trkpt lat="48.85896" lon="2.05275">
        <ele>181</ele>
        <time>2023-01-29T00:43:38.297Z</time>
      </trkpt>
      <trkpt lat="48.85901" lon="2.05267">
        <ele>181</ele>
        <time>2023-01-29T00:43:42.367Z</time>
      </trkpt>
      <trkpt lat="48.85905" lon="2.05256">
        <ele>179</ele>
        <time>2023-01-29T00:43:47.036Z</time>
      </trkpt>
      <trkpt lat="48.85909" lon="2.05247">
        <ele>179</ele>
        <time>2023-01-29T00:43:51.687Z</time>
      </trkpt>
      <trkpt lat="48.85911" lon="2.0524">
        <ele>179</ele>
        <time>2023-01-29T00:43:55.754Z</time>
      </trkpt>
      <trkpt lat="48.85912" lon="2.05229">
        <ele>180</ele>
        <time>2023-01-29T00:43:59.943Z</time>
      </trkpt>
      <trkpt lat="48.85916" lon="2.05219">
        <ele>180</ele>
        <time>2023-01-29T00:44:04.490Z</time>
      </trkpt>
      <trkpt lat="48.85919" lon="2.05211">
        <ele>180</ele>
        <time>2023-01-29T00:44:08.557Z</time>
      </trkpt>
      <trkpt lat="48.85922" lon="2.05203">
        <ele>179</ele>
        <time>2023-01-29T00:44:13.087Z</time>
      </trkpt>
      <trkpt lat="48.85924" lon="2.05194">
        <ele>179</ele>
        <time>2023-01-29T00:44:17.534Z</time>
      </trkpt>
      <trkpt lat="48.85928" lon="2.05188">
        <ele>179</ele>
        <time>2023-01-29T00:44:21.483Z</time>
      </trkpt>
      <trkpt lat="48.85933" lon="2.05179">
        <ele>176</ele>
        <time>2023-01-29T00:44:26.151Z</time>
      </trkpt>
      <trkpt lat="48.85935" lon="2.05168">
        <ele>176</ele>
        <time>2023-01-29T00:44:30.683Z</time>
      </trkpt>
      <trkpt lat="48.85937" lon="2.05159">
        <ele>176</ele>
        <time>2023-01-29T00:44:34.651Z</time>
      </trkpt>
      <trkpt lat="48.85938" lon="2.05149">
        <ele>175</ele>
        <time>2023-01-29T00:44:39.161Z</time>
      </trkpt>
      <trkpt lat="48.85941" lon="2.05137">
        <ele>175</ele>
        <time>2023-01-29T00:44:43.811Z</time>
      </trkpt>
      <trkpt lat="48.85942" lon="2.05127">
        <ele>175</ele>
        <time>2023-01-29T00:44:48.480Z</time>
      </trkpt>
      <trkpt lat="48.85943" lon="2.05117">
        <ele>176</ele>
        <time>2023-01-29T00:44:52.977Z</time>
      </trkpt>
      <trkpt lat="48.85944" lon="2.05107">
        <ele>176</ele>
        <time>2023-01-29T00:44:57.445Z</time>
      </trkpt>
      <trkpt lat="48.85945" lon="2.05099">
        <ele>176</ele>
        <time>2023-01-29T00:45:01.968Z</time>
      </trkpt>
      <trkpt lat="48.85947" lon="2.0509">
        <ele>176</ele>
        <time>2023-01-29T00:45:05.947Z</time>
      </trkpt>
      <trkpt lat="48.8595" lon="2.05079">
        <ele>176</ele>
        <time>2023-01-29T00:45:10.497Z</time>
      </trkpt>
      <trkpt lat="48.85952" lon="2.05069">
        <ele>176</ele>
        <time>2023-01-29T00:45:15.129Z</time>
      </trkpt>
      <trkpt lat="48.85955" lon="2.0506">
        <ele>176</ele>
        <time>2023-01-29T00:45:19.115Z</time>
      </trkpt>
      <trkpt lat="48.85957" lon="2.05049">
        <ele>176</ele>
        <time>2023-01-29T00:45:23.785Z</time>
      </trkpt>
      <trkpt lat="48.85961" lon="2.05039">
        <ele>176</ele>
        <time>2023-01-29T00:45:27.937Z</time>
      </trkpt>
      <trkpt lat="48.85966" lon="2.05027">
        <ele>176</ele>
        <time>2023-01-29T00:45:32.372Z</time>
      </trkpt>
      <trkpt lat="48.85969" lon="2.05018">
        <ele>176</ele>
        <time>2023-01-29T00:45:37.067Z</time>
      </trkpt>
      <trkpt lat="48.85972" lon="2.0501">
        <ele>176</ele>
        <time>2023-01-29T00:45:41.098Z</time>
      </trkpt>
      <trkpt lat="48.85978" lon="2.04998">
        <ele>176</ele>
        <time>2023-01-29T00:45:45.650Z</time>
      </trkpt>
      <trkpt lat="48.85982" lon="2.04989">
        <ele>176</ele>
        <time>2023-01-29T00:45:49.723Z</time>
      </trkpt>
      <trkpt lat="48.85985" lon="2.04979">
        <ele>176</ele>
        <time>2023-01-29T00:45:54.274Z</time>
      </trkpt>
      <trkpt lat="48.85989" lon="2.0497">
        <ele>175</ele>
        <time>2023-01-29T00:45:58.346Z</time>
      </trkpt>
      <trkpt lat="48.85991" lon="2.04959">
        <ele>175</ele>
        <time>2023-01-29T00:46:02.996Z</time>
      </trkpt>
      <trkpt lat="48.85993" lon="2.04948">
        <ele>175</ele>
        <time>2023-01-29T00:46:07.447Z</time>
      </trkpt>
      <trkpt lat="48.85995" lon="2.04937">
        <ele>175</ele>
        <time>2023-01-29T00:46:11.979Z</time>
      </trkpt>
      <trkpt lat="48.85997" lon="2.04928">
        <ele>175</ele>
        <time>2023-01-29T00:46:16.541Z</time>
      </trkpt>
      <trkpt lat="48.86" lon="2.04921">
        <ele>175</ele>
        <time>2023-01-29T00:46:20.482Z</time>
      </trkpt>
      <trkpt lat="48.86004" lon="2.04913">
        <ele>175</ele>
        <time>2023-01-29T00:46:25.122Z</time>
      </trkpt>
      <trkpt lat="48.86007" lon="2.04903">
        <ele>175</ele>
        <time>2023-01-29T00:46:29.102Z</time>
      </trkpt>
      <trkpt lat="48.8601" lon="2.04892">
        <ele>173</ele>
        <time>2023-01-29T00:46:33.765Z</time>
      </trkpt>
      <trkpt lat="48.86013" lon="2.04882">
        <ele>173</ele>
        <time>2023-01-29T00:46:37.943Z</time>
      </trkpt>
      <trkpt lat="48.86017" lon="2.04872">
        <ele>174</ele>
        <time>2023-01-29T00:46:42.492Z</time>
      </trkpt>
      <trkpt lat="48.86021" lon="2.04863">
        <ele>174</ele>
        <time>2023-01-29T00:46:47.064Z</time>
      </trkpt>
      <trkpt lat="48.86023" lon="2.04853">
        <ele>174</ele>
        <time>2023-01-29T00:46:51.572Z</time>
      </trkpt>
      <trkpt lat="48.86027" lon="2.04843">
        <ele>174</ele>
        <time>2023-01-29T00:46:56.359Z</time>
      </trkpt>
      <trkpt lat="48.86032" lon="2.04834">
        <ele>174</ele>
        <time>2023-01-29T00:47:00.977Z</time>
      </trkpt>
      <trkpt lat="48.86036" lon="2.04826">
        <ele>174</ele>
        <time>2023-01-29T00:47:04.836Z</time>
      </trkpt>
      <trkpt lat="48.8604" lon="2.04816">
        <ele>175</ele>
        <time>2023-01-29T00:47:09.393Z</time>
      </trkpt>
      <trkpt lat="48.86045" lon="2.04805">
        <ele>175</ele>
        <time>2023-01-29T00:47:13.983Z</time>
      </trkpt>
      <trkpt lat="48.86049" lon="2.04796">
        <ele>175</ele>
        <time>2023-01-29T00:47:18.494Z</time>
      </trkpt>
      <trkpt lat="48.86054" lon="2.04788">
        <ele>175</ele>
        <time>2023-01-29T00:47:22.566Z</time>
      </trkpt>
      <trkpt lat="48.86059" lon="2.04782">
        <ele>175</ele>
        <time>2023-01-29T00:47:27.040Z</time>
      </trkpt>
      <trkpt lat="48.86064" lon="2.04774">
        <ele>175</ele>
        <time>2023-01-29T00:47:31.547Z</time>
      </trkpt>
      <trkpt lat="48.86071" lon="2.04765">
        <ele>174</ele>
        <time>2023-01-29T00:47:36.097Z</time>
      </trkpt>
      <trkpt lat="48.86077" lon="2.04756">
        <ele>174</ele>
        <time>2023-01-29T00:47:40.530Z</time>
      </trkpt>
      <trkpt lat="48.86081" lon="2.04748">
        <ele>174</ele>
        <time>2023-01-29T00:47:44.984Z</time>
      </trkpt>
      <trkpt lat="48.86086" lon="2.04741">
        <ele>174</ele>
        <time>2023-01-29T00:47:49.035Z</time>
      </trkpt>
      <trkpt lat="48.86092" lon="2.04734">
        <ele>175</ele>
        <time>2023-01-29T00:47:53.706Z</time>
      </trkpt>
      <trkpt lat="48.86099" lon="2.04726">
        <ele>174</ele>
        <time>2023-01-29T00:47:58.259Z</time>
      </trkpt>
      <trkpt lat="48.86104" lon="2.04721">
        <ele>174</ele>
        <time>2023-01-29T00:48:02.812Z</time>
      </trkpt>
      <trkpt lat="48.86109" lon="2.04715">
        <ele>174</ele>
        <time>2023-01-29T00:48:06.766Z</time>
      </trkpt>
      <trkpt lat="48.86114" lon="2.04707">
        <ele>176</ele>
        <time>2023-01-29T00:48:11.280Z</time>
      </trkpt>
      <trkpt lat="48.86118" lon="2.04698">
        <ele>176</ele>
        <time>2023-01-29T00:48:15.924Z</time>
      </trkpt>
      <trkpt lat="48.86123" lon="2.04692">
        <ele>176</ele>
        <time>2023-01-29T00:48:19.786Z</time>
      </trkpt>
      <trkpt lat="48.86128" lon="2.04684">
        <ele>177</ele>
        <time>2023-01-29T00:48:24.340Z</time>
      </trkpt>
      <trkpt lat="48.86134" lon="2.04677">
        <ele>178</ele>
        <time>2023-01-29T00:48:28.774Z</time>
      </trkpt>
      <trkpt lat="48.86141" lon="2.0467">
        <ele>178</ele>
        <time>2023-01-29T00:48:33.568Z</time>
      </trkpt>
      <trkpt lat="48.86147" lon="2.04666">
        <ele>178</ele>
        <time>2023-01-29T00:48:38.123Z</time>
      </trkpt>
      <trkpt lat="48.86153" lon="2.04661">
        <ele>180</ele>
        <time>2023-01-29T00:48:42.587Z</time>
      </trkpt>
      <trkpt lat="48.86159" lon="2.04657">
        <ele>180</ele>
        <time>2023-01-29T00:48:46.630Z</time>
      </trkpt>
      <trkpt lat="48.86166" lon="2.04654">
        <ele>180</ele>
        <time>2023-01-29T00:48:50.583Z</time>
      </trkpt>
      <trkpt lat="48.86171" lon="2.04652">
        <ele>181</ele>
        <time>2023-01-29T00:48:55.138Z</time>
      </trkpt>
      <trkpt lat="48.86177" lon="2.04651">
        <ele>181</ele>
        <time>2023-01-29T00:48:59.088Z</time>
      </trkpt>
      <trkpt lat="48.86183" lon="2.0465">
        <ele>181</ele>
        <time>2023-01-29T00:49:03.823Z</time>
      </trkpt>
      <trkpt lat="48.86189" lon="2.0465">
        <ele>181</ele>
        <time>2023-01-29T00:49:07.834Z</time>
      </trkpt>
      <trkpt lat="48.86195" lon="2.04647">
        <ele>181</ele>
        <time>2023-01-29T00:49:11.836Z</time>
      </trkpt>
      <trkpt lat="48.86202" lon="2.04642">
        <ele>181</ele>
        <time>2023-01-29T00:49:16.403Z</time>
      </trkpt>
      <trkpt lat="48.86209" lon="2.04637">
        <ele>181</ele>
        <time>2023-01-29T00:49:20.836Z</time>
      </trkpt>
      <trkpt lat="48.86215" lon="2.04632">
        <ele>181</ele>
        <time>2023-01-29T00:49:25.365Z</time>
      </trkpt>
      <trkpt lat="48.86222" lon="2.04627">
        <ele>181</ele>
        <time>2023-01-29T00:49:29.808Z</time>
      </trkpt>
      <trkpt lat="48.86227" lon="2.04623">
        <ele>183</ele>
        <time>2023-01-29T00:49:33.955Z</time>
      </trkpt>
      <trkpt lat="48.86234" lon="2.04618">
        <ele>183</ele>
        <time>2023-01-29T00:49:37.813Z</time>
      </trkpt>
      <trkpt lat="48.86242" lon="2.0461">
        <ele>184</ele>
        <time>2023-01-29T00:49:42.365Z</time>
      </trkpt>
      <trkpt lat="48.86249" lon="2.04606">
        <ele>184</ele>
        <time>2023-01-29T00:49:46.843Z</time>
      </trkpt>
      <trkpt lat="48.86255" lon="2.046">
        <ele>184</ele>
        <time>2023-01-29T00:49:50.827Z</time>
      </trkpt>
      <trkpt lat="48.86261" lon="2.04594">
        <ele>185</ele>
        <time>2023-01-29T00:49:55.376Z</time>
      </trkpt>
      <trkpt lat="48.86266" lon="2.04587">
        <ele>184</ele>
        <time>2023-01-29T00:49:59.327Z</time>
      </trkpt>
      <trkpt lat="48.8627" lon="2.04579">
        <ele>184</ele>
        <time>2023-01-29T00:50:03.757Z</time>
      </trkpt>
      <trkpt lat="48.86276" lon="2.04569">
        <ele>183</ele>
        <time>2023-01-29T00:50:08.545Z</time>
      </trkpt>
      <trkpt lat="48.86283" lon="2.04559">
        <ele>183</ele>
        <time>2023-01-29T00:50:13.094Z</time>
      </trkpt>
      <trkpt lat="48.86289" lon="2.04552">
        <ele>183</ele>
        <time>2023-01-29T00:50:17.023Z</time>
      </trkpt>
      <trkpt lat="48.86295" lon="2.04542">
        <ele>183</ele>
        <time>2023-01-29T00:50:21.662Z</time>
      </trkpt>
      <trkpt lat="48.86301" lon="2.04535">
        <ele>182</ele>
        <time>2023-01-29T00:50:25.641Z</time>
      </trkpt>
      <trkpt lat="48.86306" lon="2.04527">
        <ele>182</ele>
        <time>2023-01-29T00:50:30.189Z</time>
      </trkpt>
      <trkpt lat="48.86311" lon="2.04519">
        <ele>182</ele>
        <time>2023-01-29T00:50:34.970Z</time>
      </trkpt>
      <trkpt lat="48.86315" lon="2.04511">
        <ele>183</ele>
        <time>2023-01-29T00:50:38.974Z</time>
      </trkpt>
      <trkpt lat="48.86319" lon="2.04502">
        <ele>183</ele>
        <time>2023-01-29T00:50:43.475Z</time>
      </trkpt>
      <trkpt lat="48.86324" lon="2.0449">
        <ele>185</ele>
        <time>2023-01-29T00:50:48.005Z</time>
      </trkpt>
      <trkpt lat="48.86329" lon="2.04482">
        <ele>185</ele>
        <time>2023-01-29T00:50:52.554Z</time>
      </trkpt>
      <trkpt lat="48.86335" lon="2.04474">
        <ele>185</ele>
        <time>2023-01-29T00:50:56.623Z</time>
      </trkpt>
      <trkpt lat="48.8634" lon="2.04464">
        <ele>185</ele>
        <time>2023-01-29T00:51:01.243Z</time>
      </trkpt>
      <trkpt lat="48.86342" lon="2.04454">
        <ele>186</ele>
        <time>2023-01-29T00:51:05.241Z</time>
      </trkpt>
      <trkpt lat="48.86346" lon="2.04446">
        <ele>186</ele>
        <time>2023-01-29T00:51:09.824Z</time>
      </trkpt>
      <trkpt lat="48.8635" lon="2.04437">
        <ele>185</ele>
        <time>2023-01-29T00:51:13.979Z</time>
      </trkpt>
      <trkpt lat="48.86354" lon="2.04427">
        <ele>185</ele>
        <time>2023-01-29T00:51:18.471Z</time>
      </trkpt>
      <trkpt lat="48.86359" lon="2.0442">
        <ele>185</ele>
        <time>2023-01-29T00:51:22.979Z</time>
      </trkpt>
      <trkpt lat="48.86362" lon="2.04413">
        <ele>185</ele>
        <time>2023-01-29T00:51:26.969Z</time>
      </trkpt>
      <trkpt lat="48.86368" lon="2.04402">
        <ele>184</ele>
        <time>2023-01-29T00:51:31.159Z</time>
      </trkpt>
      <trkpt lat="48.86373" lon="2.04394">
        <ele>184</ele>
        <time>2023-01-29T00:51:35.228Z</time>
      </trkpt>
      <trkpt lat="48.86377" lon="2.04384">
        <ele>184</ele>
        <time>2023-01-29T00:51:39.836Z</time>
      </trkpt>
      <trkpt lat="48.86381" lon="2.04375">
        <ele>184</ele>
        <time>2023-01-29T00:51:44.331Z</time>
      </trkpt>
      <trkpt lat="48.86385" lon="2.04367">
        <ele>182</ele>
        <time>2023-01-29T00:51:48.836Z</time>
      </trkpt>
      <trkpt lat="48.8639" lon="2.04358">
        <ele>182</ele>
        <time>2023-01-29T00:51:53.402Z</time>
      </trkpt>
      <trkpt lat="48.86393" lon="2.04351">
        <ele>182</ele>
        <time>2023-01-29T00:51:57.352Z</time>
      </trkpt>
      <trkpt lat="48.86399" lon="2.04343">
        <ele>180</ele>
        <time>2023-01-29T00:52:01.922Z</time>
      </trkpt>
      <trkpt lat="48.86402" lon="2.04334">
        <ele>180</ele>
        <time>2023-01-29T00:52:05.970Z</time>
      </trkpt>
      <trkpt lat="48.86407" lon="2.04324">
        <ele>181</ele>
        <time>2023-01-29T00:52:10.399Z</time>
      </trkpt>
      <trkpt lat="48.86411" lon="2.04317">
        <ele>180</ele>
        <time>2023-01-29T00:52:14.349Z</time>
      </trkpt>
      <trkpt lat="48.86416" lon="2.0431">
        <ele>180</ele>
        <time>2023-01-29T00:52:18.921Z</time>
      </trkpt>
      <trkpt lat="48.8642" lon="2.04303">
        <ele>180</ele>
        <time>2023-01-29T00:52:22.967Z</time>
      </trkpt>
      <trkpt lat="48.86424" lon="2.04295">
        <ele>180</ele>
        <time>2023-01-29T00:52:27.040Z</time>
      </trkpt>
      <trkpt lat="48.86428" lon="2.04287">
        <ele>179</ele>
        <time>2023-01-29T00:52:31.106Z</time>
      </trkpt>
      <trkpt lat="48.86433" lon="2.04279">
        <ele>180</ele>
        <time>2023-01-29T00:52:35.173Z</time>
      </trkpt>
      <trkpt lat="48.86438" lon="2.04271">
        <ele>180</ele>
        <time>2023-01-29T00:52:39.720Z</time>
      </trkpt>
      <trkpt lat="48.86443" lon="2.04263">
        <ele>180</ele>
        <time>2023-01-29T00:52:44.362Z</time>
      </trkpt>
      <trkpt lat="48.86449" lon="2.04255">
        <ele>180</ele>
        <time>2023-01-29T00:52:48.935Z</time>
      </trkpt>
      <trkpt lat="48.86454" lon="2.04247">
        <ele>180</ele>
        <time>2023-01-29T00:52:53.487Z</time>
      </trkpt>
      <trkpt lat="48.86457" lon="2.0424">
        <ele>180</ele>
        <time>2023-01-29T00:52:58.159Z</time>
      </trkpt>
      <trkpt lat="48.86462" lon="2.04231">
        <ele>181</ele>
        <time>2023-01-29T00:53:02.949Z</time>
      </trkpt>
      <trkpt lat="48.86467" lon="2.04221">
        <ele>181</ele>
        <time>2023-01-29T00:53:07.085Z</time>
      </trkpt>
      <trkpt lat="48.86472" lon="2.04212">
        <ele>181</ele>
        <time>2023-01-29T00:53:11.069Z</time>
      </trkpt>
      <trkpt lat="48.86477" lon="2.04201">
        <ele>181</ele>
        <time>2023-01-29T00:53:15.598Z</time>
      </trkpt>
      <trkpt lat="48.86484" lon="2.04191">
        <ele>181</ele>
        <time>2023-01-29T00:53:20.147Z</time>
      </trkpt>
      <trkpt lat="48.8649" lon="2.04182">
        <ele>181</ele>
        <time>2023-01-29T00:53:24.541Z</time>
      </trkpt>
      <trkpt lat="48.86495" lon="2.04174">
        <ele>182</ele>
        <time>2023-01-29T00:53:28.488Z</time>
      </trkpt>
      <trkpt lat="48.86497" lon="2.04164">
        <ele>182</ele>
        <time>2023-01-29T00:53:33.158Z</time>
      </trkpt>
      <trkpt lat="48.86501" lon="2.04155">
        <ele>182</ele>
        <time>2023-01-29T00:53:37.760Z</time>
      </trkpt>
      <trkpt lat="48.86505" lon="2.04149">
        <ele>182</ele>
        <time>2023-01-29T00:53:41.678Z</time>
      </trkpt>
      <trkpt lat="48.8651" lon="2.04143">
        <ele>182</ele>
        <time>2023-01-29T00:53:46.208Z</time>
      </trkpt>
      <trkpt lat="48.86515" lon="2.04135">
        <ele>182</ele>
        <time>2023-01-29T00:53:50.661Z</time>
      </trkpt>
      <trkpt lat="48.86519" lon="2.04127">
        <ele>182</ele>
        <time>2023-01-29T00:53:54.708Z</time>
      </trkpt>
      <trkpt lat="48.86523" lon="2.04119">
        <ele>183</ele>
        <time>2023-01-29T00:53:58.658Z</time>
      </trkpt>
      <trkpt lat="48.8653" lon="2.0411">
        <ele>183</ele>
        <time>2023-01-29T00:54:03.325Z</time>
      </trkpt>
      <trkpt lat="48.86535" lon="2.04103">
        <ele>183</ele>
        <time>2023-01-29T00:54:07.836Z</time>
      </trkpt>
      <trkpt lat="48.8654" lon="2.04095">
        <ele>183</ele>
        <time>2023-01-29T00:54:11.821Z</time>
      </trkpt>
      <trkpt lat="48.86544" lon="2.04084">
        <ele>184</ele>
        <time>2023-01-29T00:54:16.550Z</time>
      </trkpt>
      <trkpt lat="48.86547" lon="2.04076">
        <ele>184</ele>
        <time>2023-01-29T00:54:20.499Z</time>
      </trkpt>
      <trkpt lat="48.86551" lon="2.04066">
        <ele>184</ele>
        <time>2023-01-29T00:54:24.961Z</time>
      </trkpt>
      <trkpt lat="48.86553" lon="2.04058">
        <ele>184</ele>
        <time>2023-01-29T00:54:28.836Z</time>
      </trkpt>
      <trkpt lat="48.86557" lon="2.0405">
        <ele>184</ele>
        <time>2023-01-29T00:54:33.186Z</time>
      </trkpt>
      <trkpt lat="48.8656" lon="2.04042">
        <ele>184</ele>
        <time>2023-01-29T00:54:37.255Z</time>
      </trkpt>
      <trkpt lat="48.86563" lon="2.04032">
        <ele>184</ele>
        <time>2023-01-29T00:54:41.836Z</time>
      </trkpt>
      <trkpt lat="48.86566" lon="2.04022">
        <ele>184</ele>
        <time>2023-01-29T00:54:45.753Z</time>
      </trkpt>
      <trkpt lat="48.8657" lon="2.0401">
        <ele>186</ele>
        <time>2023-01-29T00:54:50.540Z</time>
      </trkpt>
      <trkpt lat="48.86573" lon="2.04001">
        <ele>186</ele>
        <time>2023-01-29T00:54:54.489Z</time>
      </trkpt>
      <trkpt lat="48.86577" lon="2.03992">
        <ele>186</ele>
        <time>2023-01-29T00:54:58.557Z</time>
      </trkpt>
      <trkpt lat="48.86582" lon="2.03984">
        <ele>187</ele>
        <time>2023-01-29T00:55:03.104Z</time>
      </trkpt>
      <trkpt lat="48.86585" lon="2.03975">
        <ele>187</ele>
        <time>2023-01-29T00:55:07.174Z</time>
      </trkpt>
      <trkpt lat="48.86589" lon="2.03966">
        <ele>187</ele>
        <time>2023-01-29T00:55:11.703Z</time>
      </trkpt>
      <trkpt lat="48.86594" lon="2.03958">
        <ele>188</ele>
        <time>2023-01-29T00:55:16.250Z</time>
      </trkpt>
      <trkpt lat="48.86599" lon="2.0395">
        <ele>188</ele>
        <time>2023-01-29T00:55:20.836Z</time>
      </trkpt>
      <trkpt lat="48.86604" lon="2.03941">
        <ele>188</ele>
        <time>2023-01-29T00:55:24.789Z</time>
      </trkpt>
      <trkpt lat="48.86611" lon="2.03932">
        <ele>188</ele>
        <time>2023-01-29T00:55:29.456Z</time>
      </trkpt>
      <trkpt lat="48.86616" lon="2.03922">
        <ele>187</ele>
        <time>2023-01-29T00:55:33.975Z</time>
      </trkpt>
      <trkpt lat="48.8662" lon="2.03913">
        <ele>187</ele>
        <time>2023-01-29T00:55:38.431Z</time>
      </trkpt>
      <trkpt lat="48.86625" lon="2.03904">
        <ele>185</ele>
        <time>2023-01-29T00:55:42.978Z</time>
      </trkpt>
      <trkpt lat="48.86631" lon="2.03894">
        <ele>185</ele>
        <time>2023-01-29T00:55:47.526Z</time>
      </trkpt>
      <trkpt lat="48.86636" lon="2.03888">
        <ele>185</ele>
        <time>2023-01-29T00:55:51.594Z</time>
      </trkpt>
      <trkpt lat="48.86642" lon="2.0388">
        <ele>185</ele>
        <time>2023-01-29T00:55:56.045Z</time>
      </trkpt>
      <trkpt lat="48.86646" lon="2.03871">
        <ele>184</ele>
        <time>2023-01-29T00:56:00.571Z</time>
      </trkpt>
      <trkpt lat="48.86652" lon="2.03862">
        <ele>184</ele>
        <time>2023-01-29T00:56:04.521Z</time>
      </trkpt>
      <trkpt lat="48.86658" lon="2.03853">
        <ele>185</ele>
        <time>2023-01-29T00:56:09.191Z</time>
      </trkpt>
      <trkpt lat="48.86665" lon="2.03847">
        <ele>185</ele>
        <time>2023-01-29T00:56:13.741Z</time>
      </trkpt>
      <trkpt lat="48.86671" lon="2.03839">
        <ele>185</ele>
        <time>2023-01-29T00:56:18.169Z</time>
      </trkpt>
      <trkpt lat="48.86675" lon="2.0383">
        <ele>185</ele>
        <time>2023-01-29T00:56:22.836Z</time>
      </trkpt>
      <trkpt lat="48.86679" lon="2.03822">
        <ele>185</ele>
        <time>2023-01-29T00:56:27.385Z</time>
      </trkpt>
      <trkpt lat="48.86683" lon="2.03814">
        <ele>186</ele>
        <time>2023-01-29T00:56:31.752Z</time>
      </trkpt>
      <trkpt lat="48.86688" lon="2.03806">
        <ele>186</ele>
        <time>2023-01-29T00:56:35.766Z</time>
      </trkpt>
      <trkpt lat="48.86693" lon="2.03796">
        <ele>186</ele>
        <time>2023-01-29T00:56:40.196Z</time>
      </trkpt>
      <trkpt lat="48.86697" lon="2.03787">
        <ele>186</ele>
        <time>2023-01-29T00:56:44.386Z</time>
      </trkpt>
      <trkpt lat="48.86701" lon="2.03777">
        <ele>186</ele>
        <time>2023-01-29T00:56:48.575Z</time>
      </trkpt>
      <trkpt lat="48.86706" lon="2.0377">
        <ele>186</ele>
        <time>2023-01-29T00:56:52.646Z</time>
      </trkpt>
      <trkpt lat="48.86711" lon="2.03764">
        <ele>186</ele>
        <time>2023-01-29T00:56:57.087Z</time>
      </trkpt>
      <trkpt lat="48.86717" lon="2.03758">
        <ele>186</ele>
        <time>2023-01-29T00:57:01.503Z</time>
      </trkpt>
      <trkpt lat="48.8672" lon="2.03749">
        <ele>186</ele>
        <time>2023-01-29T00:57:05.433Z</time>
      </trkpt>
      <trkpt lat="48.86725" lon="2.03742">
        <ele>186</ele>
        <time>2023-01-29T00:57:09.981Z</time>
      </trkpt>
      <trkpt lat="48.86728" lon="2.0373">
        <ele>185</ele>
        <time>2023-01-29T00:57:14.171Z</time>
      </trkpt>
      <trkpt lat="48.86733" lon="2.03723">
        <ele>185</ele>
        <time>2023-01-29T00:57:18.598Z</time>
      </trkpt>
      <trkpt lat="48.86739" lon="2.03713">
        <ele>184</ele>
        <time>2023-01-29T00:57:23.147Z</time>
      </trkpt>
      <trkpt lat="48.86745" lon="2.03705">
        <ele>181</ele>
        <time>2023-01-29T00:57:27.216Z</time>
      </trkpt>
      <trkpt lat="48.8675" lon="2.03696">
        <ele>181</ele>
        <time>2023-01-29T00:57:31.285Z</time>
      </trkpt>
      <trkpt lat="48.86755" lon="2.03688">
        <ele>181</ele>
        <time>2023-01-29T00:57:35.713Z</time>
      </trkpt>
      <trkpt lat="48.8676" lon="2.03679">
        <ele>180</ele>
        <time>2023-01-29T00:57:39.663Z</time>
      </trkpt>
      <trkpt lat="48.86764" lon="2.03671">
        <ele>179</ele>
        <time>2023-01-29T00:57:44.043Z</time>
      </trkpt>
      <trkpt lat="48.86771" lon="2.03662">
        <ele>179</ele>
        <time>2023-01-29T00:57:48.520Z</time>
      </trkpt>
      <trkpt lat="48.86776" lon="2.03656">
        <ele>179</ele>
        <time>2023-01-29T00:57:52.982Z</time>
      </trkpt>
      <trkpt lat="48.86783" lon="2.03649">
        <ele>179</ele>
        <time>2023-01-29T00:57:57.401Z</time>
      </trkpt>
      <trkpt lat="48.86786" lon="2.03641">
        <ele>179</ele>
        <time>2023-01-29T00:58:01.351Z</time>
      </trkpt>
      <trkpt lat="48.86791" lon="2.03633">
        <ele>179</ele>
        <time>2023-01-29T00:58:05.421Z</time>
      </trkpt>
      <trkpt lat="48.86794" lon="2.03622">
        <ele>184</ele>
        <time>2023-01-29T00:58:09.373Z</time>
      </trkpt>
      <trkpt lat="48.86796" lon="2.03611">
        <ele>184</ele>
        <time>2023-01-29T00:58:14.162Z</time>
      </trkpt>
      <trkpt lat="48.86796" lon="2.03607">
        <ele>184</ele>
        <time>2023-01-29T00:58:18.587Z</time>
      </trkpt>
      <trkpt lat="48.86797" lon="2.03607">
        <ele>184</ele>
        <time>2023-01-29T00:58:22.776Z</time>
      </trkpt>
      <trkpt lat="48.86807" lon="2.036">
        <ele>184</ele>
        <time>2023-01-29T01:00:07.966Z</time>
      </trkpt>
      <trkpt lat="48.86807" lon="2.03598">
        <ele>184</ele>
        <time>2023-01-29T01:00:11.970Z</time>
      </trkpt>
      <trkpt lat="48.86807" lon="2.03596">
        <ele>186</ele>
        <time>2023-01-29T01:00:15.997Z</time>
      </trkpt>
      <trkpt lat="48.86807" lon="2.03596">
        <ele>186</ele>
        <time>2023-01-29T01:00:21.006Z</time>
      </trkpt>
      <trkpt lat="48.86808" lon="2.03592">
        <ele>186</ele>
        <time>2023-01-29T01:00:25Z</time>
      </trkpt>
      <trkpt lat="48.8681" lon="2.03591">
        <ele>186</ele>
        <time>2023-01-29T01:00:29.166Z</time>
      </trkpt>
      <trkpt lat="48.86813" lon="2.03588">
        <ele>186</ele>
        <time>2023-01-29T01:00:33.956Z</time>
      </trkpt>
      <trkpt lat="48.86814" lon="2.03588">
        <ele>186</ele>
        <time>2023-01-29T01:00:38.746Z</time>
      </trkpt>
      <trkpt lat="48.86816" lon="2.03587">
        <ele>186</ele>
        <time>2023-01-29T01:00:42.836Z</time>
      </trkpt>
      <trkpt lat="48.86819" lon="2.03586">
        <ele>190</ele>
        <time>2023-01-29T01:00:47.909Z</time>
      </trkpt>
      <trkpt lat="48.8682" lon="2.03578">
        <ele>190</ele>
        <time>2023-01-29T01:00:51.836Z</time>
      </trkpt>
      <trkpt lat="48.86824" lon="2.03571">
        <ele>190</ele>
        <time>2023-01-29T01:00:56.583Z</time>
      </trkpt>
      <trkpt lat="48.86828" lon="2.03569">
        <ele>189</ele>
        <time>2023-01-29T01:01:00.532Z</time>
      </trkpt>
      <trkpt lat="48.8683" lon="2.0357">
        <ele>190</ele>
        <time>2023-01-29T01:01:05.200Z</time>
      </trkpt>
      <trkpt lat="48.86832" lon="2.03568">
        <ele>189</ele>
        <time>2023-01-29T01:02:00.990Z</time>
      </trkpt>
      <trkpt lat="48.86827" lon="2.03571">
        <ele>190</ele>
        <time>2023-01-29T01:02:04.836Z</time>
      </trkpt>
      <trkpt lat="48.86823" lon="2.03577">
        <ele>190</ele>
        <time>2023-01-29T01:02:08.971Z</time>
      </trkpt>
      <trkpt lat="48.86819" lon="2.03586">
        <ele>186</ele>
        <time>2023-01-29T01:02:13.998Z</time>
      </trkpt>
      <trkpt lat="48.86815" lon="2.03589">
        <ele>186</ele>
        <time>2023-01-29T01:02:18.748Z</time>
      </trkpt>
      <trkpt lat="48.86815" lon="2.0359">
        <ele>186</ele>
        <time>2023-01-29T01:02:46.995Z</time>
      </trkpt>
      <trkpt lat="48.86815" lon="2.0359">
        <ele>186</ele>
        <time>2023-01-29T01:02:51.988Z</time>
      </trkpt>
      <trkpt lat="48.86817" lon="2.03585">
        <ele>186</ele>
        <time>2023-01-29T01:02:56.990Z</time>
      </trkpt>
      <trkpt lat="48.8682" lon="2.0358">
        <ele>190</ele>
        <time>2023-01-29T01:03:01.341Z</time>
      </trkpt>
      <trkpt lat="48.86823" lon="2.03573">
        <ele>190</ele>
        <time>2023-01-29T01:03:05.410Z</time>
      </trkpt>
      <trkpt lat="48.86827" lon="2.03567">
        <ele>189</ele>
        <time>2023-01-29T01:03:09.960Z</time>
      </trkpt>
      <trkpt lat="48.8683" lon="2.0356">
        <ele>189</ele>
        <time>2023-01-29T01:03:14.102Z</time>
      </trkpt>
      <trkpt lat="48.86835" lon="2.03553">
        <ele>189</ele>
        <time>2023-01-29T01:03:18.579Z</time>
      </trkpt>
      <trkpt lat="48.86839" lon="2.03546">
        <ele>189</ele>
        <time>2023-01-29T01:03:23.130Z</time>
      </trkpt>
      <trkpt lat="48.86842" lon="2.03538">
        <ele>188</ele>
        <time>2023-01-29T01:03:27.204Z</time>
      </trkpt>
      <trkpt lat="48.86844" lon="2.0353">
        <ele>188</ele>
        <time>2023-01-29T01:03:31.271Z</time>
      </trkpt>
      <trkpt lat="48.86847" lon="2.03519">
        <ele>188</ele>
        <time>2023-01-29T01:03:35.820Z</time>
      </trkpt>
      <trkpt lat="48.86851" lon="2.03512">
        <ele>189</ele>
        <time>2023-01-29T01:03:40.368Z</time>
      </trkpt>
      <trkpt lat="48.86856" lon="2.03505">
        <ele>189</ele>
        <time>2023-01-29T01:03:44.197Z</time>
      </trkpt>
      <trkpt lat="48.8686" lon="2.03496">
        <ele>189</ele>
        <time>2023-01-29T01:03:48.708Z</time>
      </trkpt>
      <trkpt lat="48.86864" lon="2.03492">
        <ele>189</ele>
        <time>2023-01-29T01:03:53.305Z</time>
      </trkpt>
      <trkpt lat="48.86869" lon="2.03482">
        <ele>187</ele>
        <time>2023-01-29T01:03:57.754Z</time>
      </trkpt>
      <trkpt lat="48.86875" lon="2.03473">
        <ele>187</ele>
        <time>2023-01-29T01:04:02.771Z</time>
      </trkpt>
      <trkpt lat="48.86879" lon="2.03468">
        <ele>189</ele>
        <time>2023-01-29T01:04:06.893Z</time>
      </trkpt>
      <trkpt lat="48.86883" lon="2.03461">
        <ele>189</ele>
        <time>2023-01-29T01:04:10.773Z</time>
      </trkpt>
      <trkpt lat="48.86887" lon="2.03451">
        <ele>188</ele>
        <time>2023-01-29T01:04:15.566Z</time>
      </trkpt>
      <trkpt lat="48.86891" lon="2.03441">
        <ele>188</ele>
        <time>2023-01-29T01:04:19.742Z</time>
      </trkpt>
      <trkpt lat="48.86895" lon="2.03432">
        <ele>188</ele>
        <time>2023-01-29T01:04:23.836Z</time>
      </trkpt>
      <trkpt lat="48.869" lon="2.03422">
        <ele>186</ele>
        <time>2023-01-29T01:04:28.345Z</time>
      </trkpt>
      <trkpt lat="48.86904" lon="2.03412">
        <ele>188</ele>
        <time>2023-01-29T01:04:32.416Z</time>
      </trkpt>
      <trkpt lat="48.86909" lon="2.03404">
        <ele>188</ele>
        <time>2023-01-29T01:04:36.367Z</time>
      </trkpt>
      <trkpt lat="48.86914" lon="2.03397">
        <ele>186</ele>
        <time>2023-01-29T01:04:40.437Z</time>
      </trkpt>
      <trkpt lat="48.86918" lon="2.0339">
        <ele>186</ele>
        <time>2023-01-29T01:04:44.958Z</time>
      </trkpt>
      <trkpt lat="48.86921" lon="2.03383">
        <ele>186</ele>
        <time>2023-01-29T01:04:48.818Z</time>
      </trkpt>
      <trkpt lat="48.86924" lon="2.03374">
        <ele>184</ele>
        <time>2023-01-29T01:04:53.429Z</time>
      </trkpt>
      <trkpt lat="48.86926" lon="2.03366">
        <ele>184</ele>
        <time>2023-01-29T01:04:57.381Z</time>
      </trkpt>
      <trkpt lat="48.86928" lon="2.03361">
        <ele>184</ele>
        <time>2023-01-29T01:05:01.331Z</time>
      </trkpt>
      <trkpt lat="48.86931" lon="2.03352">
        <ele>186</ele>
        <time>2023-01-29T01:05:05.836Z</time>
      </trkpt>
      <trkpt lat="48.86936" lon="2.03341">
        <ele>184</ele>
        <time>2023-01-29T01:05:10.309Z</time>
      </trkpt>
      <trkpt lat="48.86942" lon="2.03333">
        <ele>184</ele>
        <time>2023-01-29T01:05:14.702Z</time>
      </trkpt>
      <trkpt lat="48.86946" lon="2.03324">
        <ele>184</ele>
        <time>2023-01-29T01:05:19.127Z</time>
      </trkpt>
      <trkpt lat="48.86949" lon="2.03316">
        <ele>183</ele>
        <time>2023-01-29T01:05:23.630Z</time>
      </trkpt>
      <trkpt lat="48.86952" lon="2.03306">
        <ele>183</ele>
        <time>2023-01-29T01:05:28.246Z</time>
      </trkpt>
      <trkpt lat="48.86954" lon="2.03297">
        <ele>183</ele>
        <time>2023-01-29T01:05:32.297Z</time>
      </trkpt>
      <trkpt lat="48.86957" lon="2.03288">
        <ele>183</ele>
        <time>2023-01-29T01:05:36.836Z</time>
      </trkpt>
      <trkpt lat="48.86962" lon="2.03278">
        <ele>185</ele>
        <time>2023-01-29T01:05:41.343Z</time>
      </trkpt>
      <trkpt lat="48.86968" lon="2.03269">
        <ele>185</ele>
        <time>2023-01-29T01:05:45.418Z</time>
      </trkpt>
      <trkpt lat="48.86974" lon="2.0326">
        <ele>186</ele>
        <time>2023-01-29T01:05:49.915Z</time>
      </trkpt>
      <trkpt lat="48.8698" lon="2.03252">
        <ele>186</ele>
        <time>2023-01-29T01:05:53.803Z</time>
      </trkpt>
      <trkpt lat="48.86986" lon="2.03244">
        <ele>186</ele>
        <time>2023-01-29T01:05:58.315Z</time>
      </trkpt>
      <trkpt lat="48.8699" lon="2.03236">
        <ele>187</ele>
        <time>2023-01-29T01:06:02.836Z</time>
      </trkpt>
      <trkpt lat="48.86995" lon="2.03228">
        <ele>187</ele>
        <time>2023-01-29T01:06:06.820Z</time>
      </trkpt>
      <trkpt lat="48.87001" lon="2.03219">
        <ele>187</ele>
        <time>2023-01-29T01:06:11.231Z</time>
      </trkpt>
      <trkpt lat="48.87006" lon="2.0321">
        <ele>187</ele>
        <time>2023-01-29T01:06:15.729Z</time>
      </trkpt>
      <trkpt lat="48.8701" lon="2.03203">
        <ele>187</ele>
        <time>2023-01-29T01:06:19.557Z</time>
      </trkpt>
      <trkpt lat="48.87015" lon="2.03195">
        <ele>188</ele>
        <time>2023-01-29T01:06:24.228Z</time>
      </trkpt>
      <trkpt lat="48.8702" lon="2.03186">
        <ele>188</ele>
        <time>2023-01-29T01:06:28.836Z</time>
      </trkpt>
      <trkpt lat="48.87023" lon="2.03177">
        <ele>188</ele>
        <time>2023-01-29T01:06:33.383Z</time>
      </trkpt>
      <trkpt lat="48.87027" lon="2.03167">
        <ele>188</ele>
        <time>2023-01-29T01:06:37.382Z</time>
      </trkpt>
      <trkpt lat="48.87032" lon="2.03159">
        <ele>188</ele>
        <time>2023-01-29T01:06:41.315Z</time>
      </trkpt>
      <trkpt lat="48.87038" lon="2.03151">
        <ele>187</ele>
        <time>2023-01-29T01:06:45.906Z</time>
      </trkpt>
      <trkpt lat="48.87042" lon="2.03143">
        <ele>187</ele>
        <time>2023-01-29T01:06:49.797Z</time>
      </trkpt>
      <trkpt lat="48.87048" lon="2.03133">
        <ele>187</ele>
        <time>2023-01-29T01:06:54.347Z</time>
      </trkpt>
      <trkpt lat="48.87053" lon="2.03124">
        <ele>187</ele>
        <time>2023-01-29T01:06:58.894Z</time>
      </trkpt>
      <trkpt lat="48.87056" lon="2.03115">
        <ele>187</ele>
        <time>2023-01-29T01:07:02.968Z</time>
      </trkpt>
      <trkpt lat="48.87059" lon="2.03106">
        <ele>187</ele>
        <time>2023-01-29T01:07:07.400Z</time>
      </trkpt>
      <trkpt lat="48.87064" lon="2.03097">
        <ele>187</ele>
        <time>2023-01-29T01:07:11.472Z</time>
      </trkpt>
      <trkpt lat="48.87068" lon="2.03089">
        <ele>186</ele>
        <time>2023-01-29T01:07:16.028Z</time>
      </trkpt>
      <trkpt lat="48.87073" lon="2.0308">
        <ele>187</ele>
        <time>2023-01-29T01:07:20.536Z</time>
      </trkpt>
      <trkpt lat="48.87078" lon="2.03072">
        <ele>187</ele>
        <time>2023-01-29T01:07:24.487Z</time>
      </trkpt>
      <trkpt lat="48.87083" lon="2.03063">
        <ele>187</ele>
        <time>2023-01-29T01:07:29.158Z</time>
      </trkpt>
      <trkpt lat="48.87088" lon="2.03056">
        <ele>187</ele>
        <time>2023-01-29T01:07:33.350Z</time>
      </trkpt>
      <trkpt lat="48.87092" lon="2.03047">
        <ele>187</ele>
        <time>2023-01-29T01:07:37.905Z</time>
      </trkpt>
      <trkpt lat="48.87096" lon="2.03039">
        <ele>187</ele>
        <time>2023-01-29T01:07:41.815Z</time>
      </trkpt>
      <trkpt lat="48.871" lon="2.0303">
        <ele>188</ele>
        <time>2023-01-29T01:07:45.836Z</time>
      </trkpt>
      <trkpt lat="48.87104" lon="2.03021">
        <ele>188</ele>
        <time>2023-01-29T01:07:50.400Z</time>
      </trkpt>
      <trkpt lat="48.87109" lon="2.03013">
        <ele>188</ele>
        <time>2023-01-29T01:07:54.351Z</time>
      </trkpt>
      <trkpt lat="48.87115" lon="2.03004">
        <ele>188</ele>
        <time>2023-01-29T01:07:58.421Z</time>
      </trkpt>
      <trkpt lat="48.8712" lon="2.02996">
        <ele>188</ele>
        <time>2023-01-29T01:08:02.836Z</time>
      </trkpt>
      <trkpt lat="48.87124" lon="2.02988">
        <ele>188</ele>
        <time>2023-01-29T01:08:06.804Z</time>
      </trkpt>
      <trkpt lat="48.87127" lon="2.02978">
        <ele>188</ele>
        <time>2023-01-29T01:08:11.475Z</time>
      </trkpt>
      <trkpt lat="48.87132" lon="2.02969">
        <ele>188</ele>
        <time>2023-01-29T01:08:16.059Z</time>
      </trkpt>
      <trkpt lat="48.87134" lon="2.02961">
        <ele>188</ele>
        <time>2023-01-29T01:08:20.003Z</time>
      </trkpt>
      <trkpt lat="48.87139" lon="2.02951">
        <ele>190</ele>
        <time>2023-01-29T01:08:24.529Z</time>
      </trkpt>
      <trkpt lat="48.87144" lon="2.02942">
        <ele>190</ele>
        <time>2023-01-29T01:08:28.600Z</time>
      </trkpt>
      <trkpt lat="48.87149" lon="2.02934">
        <ele>190</ele>
        <time>2023-01-29T01:08:33.084Z</time>
      </trkpt>
      <trkpt lat="48.87152" lon="2.02925">
        <ele>191</ele>
        <time>2023-01-29T01:08:37.104Z</time>
      </trkpt>
      <trkpt lat="48.87155" lon="2.02917">
        <ele>191</ele>
        <time>2023-01-29T01:08:41.058Z</time>
      </trkpt>
      <trkpt lat="48.8716" lon="2.02909">
        <ele>191</ele>
        <time>2023-01-29T01:08:45.720Z</time>
      </trkpt>
      <trkpt lat="48.87164" lon="2.02901">
        <ele>190</ele>
        <time>2023-01-29T01:08:49.804Z</time>
      </trkpt>
      <trkpt lat="48.87169" lon="2.02895">
        <ele>190</ele>
        <time>2023-01-29T01:08:53.836Z</time>
      </trkpt>
      <trkpt lat="48.87175" lon="2.02885">
        <ele>190</ele>
        <time>2023-01-29T01:08:58.304Z</time>
      </trkpt>
      <trkpt lat="48.87181" lon="2.02875">
        <ele>189</ele>
        <time>2023-01-29T01:09:02.903Z</time>
      </trkpt>
      <trkpt lat="48.87187" lon="2.02869">
        <ele>188</ele>
        <time>2023-01-29T01:09:06.836Z</time>
      </trkpt>
      <trkpt lat="48.87193" lon="2.02861">
        <ele>188</ele>
        <time>2023-01-29T01:09:11.387Z</time>
      </trkpt>
      <trkpt lat="48.87196" lon="2.02853">
        <ele>188</ele>
        <time>2023-01-29T01:09:15.366Z</time>
      </trkpt>
      <trkpt lat="48.87198" lon="2.02845">
        <ele>187</ele>
        <time>2023-01-29T01:09:19.836Z</time>
      </trkpt>
      <trkpt lat="48.872" lon="2.02837">
        <ele>187</ele>
        <time>2023-01-29T01:09:23.836Z</time>
      </trkpt>
      <trkpt lat="48.87204" lon="2.02829">
        <ele>187</ele>
        <time>2023-01-29T01:09:28.421Z</time>
      </trkpt>
      <trkpt lat="48.87209" lon="2.02821">
        <ele>187</ele>
        <time>2023-01-29T01:09:32.912Z</time>
      </trkpt>
      <trkpt lat="48.87213" lon="2.02813">
        <ele>187</ele>
        <time>2023-01-29T01:09:37.005Z</time>
      </trkpt>
      <trkpt lat="48.87218" lon="2.02804">
        <ele>187</ele>
        <time>2023-01-29T01:09:41.551Z</time>
      </trkpt>
      <trkpt lat="48.87224" lon="2.02795">
        <ele>187</ele>
        <time>2023-01-29T01:09:45.621Z</time>
      </trkpt>
      <trkpt lat="48.87229" lon="2.02785">
        <ele>186</ele>
        <time>2023-01-29T01:09:50.200Z</time>
      </trkpt>
      <trkpt lat="48.87234" lon="2.02778">
        <ele>186</ele>
        <time>2023-01-29T01:09:54.238Z</time>
      </trkpt>
      <trkpt lat="48.87238" lon="2.0277">
        <ele>188</ele>
        <time>2023-01-29T01:09:58.787Z</time>
      </trkpt>
      <trkpt lat="48.87243" lon="2.02759">
        <ele>189</ele>
        <time>2023-01-29T01:10:03.454Z</time>
      </trkpt>
      <trkpt lat="48.87247" lon="2.0275">
        <ele>189</ele>
        <time>2023-01-29T01:10:07.404Z</time>
      </trkpt>
      <trkpt lat="48.87252" lon="2.0274">
        <ele>189</ele>
        <time>2023-01-29T01:10:11.993Z</time>
      </trkpt>
      <trkpt lat="48.87257" lon="2.0273">
        <ele>188</ele>
        <time>2023-01-29T01:10:16.540Z</time>
      </trkpt>
      <trkpt lat="48.87261" lon="2.02722">
        <ele>188</ele>
        <time>2023-01-29T01:10:20.491Z</time>
      </trkpt>
      <trkpt lat="48.87265" lon="2.02715">
        <ele>191</ele>
        <time>2023-01-29T01:10:24.943Z</time>
      </trkpt>
      <trkpt lat="48.87269" lon="2.02708">
        <ele>189</ele>
        <time>2023-01-29T01:10:28.991Z</time>
      </trkpt>
      <trkpt lat="48.87274" lon="2.02697">
        <ele>189</ele>
        <time>2023-01-29T01:10:33.500Z</time>
      </trkpt>
      <trkpt lat="48.87278" lon="2.02689">
        <ele>189</ele>
        <time>2023-01-29T01:10:37.570Z</time>
      </trkpt>
      <trkpt lat="48.87283" lon="2.0268">
        <ele>187</ele>
        <time>2023-01-29T01:10:42.503Z</time>
      </trkpt>
      <trkpt lat="48.87288" lon="2.02672">
        <ele>187</ele>
        <time>2023-01-29T01:10:46.547Z</time>
      </trkpt>
      <trkpt lat="48.87293" lon="2.02663">
        <ele>187</ele>
        <time>2023-01-29T01:10:50.498Z</time>
      </trkpt>
      <trkpt lat="48.87296" lon="2.02655">
        <ele>187</ele>
        <time>2023-01-29T01:10:55.121Z</time>
      </trkpt>
      <trkpt lat="48.87298" lon="2.02646">
        <ele>187</ele>
        <time>2023-01-29T01:10:59.201Z</time>
      </trkpt>
      <trkpt lat="48.87302" lon="2.02637">
        <ele>187</ele>
        <time>2023-01-29T01:11:03.270Z</time>
      </trkpt>
      <trkpt lat="48.87306" lon="2.0263">
        <ele>187</ele>
        <time>2023-01-29T01:11:07.819Z</time>
      </trkpt>
      <trkpt lat="48.8731" lon="2.02622">
        <ele>189</ele>
        <time>2023-01-29T01:11:11.836Z</time>
      </trkpt>
      <trkpt lat="48.87316" lon="2.02613">
        <ele>189</ele>
        <time>2023-01-29T01:11:16.296Z</time>
      </trkpt>
      <trkpt lat="48.87321" lon="2.02606">
        <ele>189</ele>
        <time>2023-01-29T01:11:20.365Z</time>
      </trkpt>
      <trkpt lat="48.87325" lon="2.02598">
        <ele>189</ele>
        <time>2023-01-29T01:11:24.787Z</time>
      </trkpt>
      <trkpt lat="48.87328" lon="2.02589">
        <ele>191</ele>
        <time>2023-01-29T01:11:28.960Z</time>
      </trkpt>
      <trkpt lat="48.87331" lon="2.02583">
        <ele>191</ele>
        <time>2023-01-29T01:11:32.819Z</time>
      </trkpt>
      <trkpt lat="48.87335" lon="2.02575">
        <ele>191</ele>
        <time>2023-01-29T01:11:37.249Z</time>
      </trkpt>
      <trkpt lat="48.87339" lon="2.0257">
        <ele>191</ele>
        <time>2023-01-29T01:11:41.202Z</time>
      </trkpt>
      <trkpt lat="48.87344" lon="2.02561">
        <ele>191</ele>
        <time>2023-01-29T01:11:45.750Z</time>
      </trkpt>
      <trkpt lat="48.87348" lon="2.02551">
        <ele>191</ele>
        <time>2023-01-29T01:11:50.419Z</time>
      </trkpt>
      <trkpt lat="48.87354" lon="2.02543">
        <ele>191</ele>
        <time>2023-01-29T01:11:54.836Z</time>
      </trkpt>
      <trkpt lat="48.87362" lon="2.02536">
        <ele>190</ele>
        <time>2023-01-29T01:11:58.800Z</time>
      </trkpt>
      <trkpt lat="48.87371" lon="2.02529">
        <ele>190</ele>
        <time>2023-01-29T01:12:03.451Z</time>
      </trkpt>
      <trkpt lat="48.87379" lon="2.02523">
        <ele>191</ele>
        <time>2023-01-29T01:12:07.923Z</time>
      </trkpt>
      <trkpt lat="48.87385" lon="2.02519">
        <ele>191</ele>
        <time>2023-01-29T01:12:11.952Z</time>
      </trkpt>
      <trkpt lat="48.8739" lon="2.02516">
        <ele>191</ele>
        <time>2023-01-29T01:12:15.983Z</time>
      </trkpt>
      <trkpt lat="48.87396" lon="2.0251">
        <ele>190</ele>
        <time>2023-01-29T01:12:20.508Z</time>
      </trkpt>
      <trkpt lat="48.874" lon="2.02505">
        <ele>190</ele>
        <time>2023-01-29T01:12:24.486Z</time>
      </trkpt>
      <trkpt lat="48.87404" lon="2.02499">
        <ele>190</ele>
        <time>2023-01-29T01:12:28.558Z</time>
      </trkpt>
      <trkpt lat="48.87407" lon="2.02492">
        <ele>190</ele>
        <time>2023-01-29T01:12:33.108Z</time>
      </trkpt>
      <trkpt lat="48.87411" lon="2.02485">
        <ele>189</ele>
        <time>2023-01-29T01:12:37.140Z</time>
      </trkpt>
      <trkpt lat="48.87417" lon="2.02476">
        <ele>189</ele>
        <time>2023-01-29T01:12:41.691Z</time>
      </trkpt>
      <trkpt lat="48.87425" lon="2.02471">
        <ele>189</ele>
        <time>2023-01-29T01:12:46.303Z</time>
      </trkpt>
      <trkpt lat="48.87431" lon="2.02466">
        <ele>189</ele>
        <time>2023-01-29T01:12:50.337Z</time>
      </trkpt>
      <trkpt lat="48.87439" lon="2.0246">
        <ele>189</ele>
        <time>2023-01-29T01:12:54.889Z</time>
      </trkpt>
      <trkpt lat="48.87448" lon="2.02454">
        <ele>189</ele>
        <time>2023-01-29T01:12:59.441Z</time>
      </trkpt>
      <trkpt lat="48.87455" lon="2.02449">
        <ele>189</ele>
        <time>2023-01-29T01:13:03.871Z</time>
      </trkpt>
      <trkpt lat="48.87462" lon="2.02443">
        <ele>189</ele>
        <time>2023-01-29T01:13:08.540Z</time>
      </trkpt>
      <trkpt lat="48.8747" lon="2.02439">
        <ele>189</ele>
        <time>2023-01-29T01:13:12.492Z</time>
      </trkpt>
      <trkpt lat="48.87476" lon="2.02435">
        <ele>189</ele>
        <time>2023-01-29T01:13:17.124Z</time>
      </trkpt>
      <trkpt lat="48.87482" lon="2.02429">
        <ele>189</ele>
        <time>2023-01-29T01:13:21.113Z</time>
      </trkpt>
      <trkpt lat="48.87488" lon="2.02424">
        <ele>190</ele>
        <time>2023-01-29T01:13:25.686Z</time>
      </trkpt>
      <trkpt lat="48.87492" lon="2.02419">
        <ele>190</ele>
        <time>2023-01-29T01:13:29.612Z</time>
      </trkpt>
      <trkpt lat="48.87499" lon="2.02413">
        <ele>190</ele>
        <time>2023-01-29T01:13:34.283Z</time>
      </trkpt>
      <trkpt lat="48.87505" lon="2.02406">
        <ele>190</ele>
        <time>2023-01-29T01:13:38.335Z</time>
      </trkpt>
      <trkpt lat="48.87512" lon="2.024">
        <ele>189</ele>
        <time>2023-01-29T01:13:42.905Z</time>
      </trkpt>
      <trkpt lat="48.87517" lon="2.02395">
        <ele>190</ele>
        <time>2023-01-29T01:13:46.952Z</time>
      </trkpt>
      <trkpt lat="48.87522" lon="2.0239">
        <ele>190</ele>
        <time>2023-01-29T01:13:51Z</time>
      </trkpt>
      <trkpt lat="48.87529" lon="2.02386">
        <ele>190</ele>
        <time>2023-01-29T01:13:55.450Z</time>
      </trkpt>
      <trkpt lat="48.87535" lon="2.02382">
        <ele>190</ele>
        <time>2023-01-29T01:13:59.986Z</time>
      </trkpt>
      <trkpt lat="48.8754" lon="2.02378">
        <ele>190</ele>
        <time>2023-01-29T01:14:03.944Z</time>
      </trkpt>
      <trkpt lat="48.87547" lon="2.02373">
        <ele>190</ele>
        <time>2023-01-29T01:14:08.612Z</time>
      </trkpt>
      <trkpt lat="48.87552" lon="2.02366">
        <ele>190</ele>
        <time>2023-01-29T01:14:13.283Z</time>
      </trkpt>
      <trkpt lat="48.87556" lon="2.02361">
        <ele>190</ele>
        <time>2023-01-29T01:14:17.228Z</time>
      </trkpt>
      <trkpt lat="48.87561" lon="2.02354">
        <ele>190</ele>
        <time>2023-01-29T01:14:21.836Z</time>
      </trkpt>
      <trkpt lat="48.87566" lon="2.02347">
        <ele>190</ele>
        <time>2023-01-29T01:14:26.445Z</time>
      </trkpt>
      <trkpt lat="48.87573" lon="2.02342">
        <ele>190</ele>
        <time>2023-01-29T01:14:30.514Z</time>
      </trkpt>
      <trkpt lat="48.87582" lon="2.02338">
        <ele>190</ele>
        <time>2023-01-29T01:14:35.180Z</time>
      </trkpt>
      <trkpt lat="48.87589" lon="2.02334">
        <ele>190</ele>
        <time>2023-01-29T01:14:39.679Z</time>
      </trkpt>
      <trkpt lat="48.87595" lon="2.0233">
        <ele>190</ele>
        <time>2023-01-29T01:14:43.798Z</time>
      </trkpt>
      <trkpt lat="48.876" lon="2.02325">
        <ele>190</ele>
        <time>2023-01-29T01:14:48.227Z</time>
      </trkpt>
      <trkpt lat="48.87605" lon="2.0232">
        <ele>190</ele>
        <time>2023-01-29T01:14:52.896Z</time>
      </trkpt>
      <trkpt lat="48.87611" lon="2.02313">
        <ele>190</ele>
        <time>2023-01-29T01:14:57.446Z</time>
      </trkpt>
      <trkpt lat="48.87618" lon="2.02304">
        <ele>190</ele>
        <time>2023-01-29T01:15:01.978Z</time>
      </trkpt>
      <trkpt lat="48.87622" lon="2.02296">
        <ele>190</ele>
        <time>2023-01-29T01:15:05.952Z</time>
      </trkpt>
      <trkpt lat="48.87628" lon="2.0229">
        <ele>190</ele>
        <time>2023-01-29T01:15:10.505Z</time>
      </trkpt>
      <trkpt lat="48.87635" lon="2.02284">
        <ele>190</ele>
        <time>2023-01-29T01:15:14.458Z</time>
      </trkpt>
      <trkpt lat="48.87643" lon="2.02279">
        <ele>190</ele>
        <time>2023-01-29T01:15:18.953Z</time>
      </trkpt>
      <trkpt lat="48.8765" lon="2.02275">
        <ele>190</ele>
        <time>2023-01-29T01:15:23.107Z</time>
      </trkpt>
      <trkpt lat="48.87657" lon="2.0227">
        <ele>189</ele>
        <time>2023-01-29T01:15:27.685Z</time>
      </trkpt>
      <trkpt lat="48.87662" lon="2.02266">
        <ele>189</ele>
        <time>2023-01-29T01:15:31.594Z</time>
      </trkpt>
      <trkpt lat="48.87668" lon="2.02259">
        <ele>189</ele>
        <time>2023-01-29T01:15:36.147Z</time>
      </trkpt>
      <trkpt lat="48.87672" lon="2.02253">
        <ele>189</ele>
        <time>2023-01-29T01:15:40.100Z</time>
      </trkpt>
      <trkpt lat="48.87677" lon="2.02248">
        <ele>189</ele>
        <time>2023-01-29T01:15:44.175Z</time>
      </trkpt>
      <trkpt lat="48.87682" lon="2.02242">
        <ele>190</ele>
        <time>2023-01-29T01:15:48.728Z</time>
      </trkpt>
      <trkpt lat="48.87688" lon="2.02236">
        <ele>190</ele>
        <time>2023-01-29T01:15:53.401Z</time>
      </trkpt>
      <trkpt lat="48.87693" lon="2.02231">
        <ele>191</ele>
        <time>2023-01-29T01:15:57.795Z</time>
      </trkpt>
      <trkpt lat="48.87698" lon="2.02224">
        <ele>191</ele>
        <time>2023-01-29T01:16:02.349Z</time>
      </trkpt>
      <trkpt lat="48.87703" lon="2.0222">
        <ele>191</ele>
        <time>2023-01-29T01:16:06.925Z</time>
      </trkpt>
      <trkpt lat="48.87709" lon="2.02214">
        <ele>192</ele>
        <time>2023-01-29T01:16:10.976Z</time>
      </trkpt>
      <trkpt lat="48.87719" lon="2.02207">
        <ele>192</ele>
        <time>2023-01-29T01:16:15.528Z</time>
      </trkpt>
      <trkpt lat="48.87726" lon="2.02202">
        <ele>192</ele>
        <time>2023-01-29T01:16:20Z</time>
      </trkpt>
      <trkpt lat="48.87735" lon="2.02196">
        <ele>192</ele>
        <time>2023-01-29T01:16:24.512Z</time>
      </trkpt>
      <trkpt lat="48.87743" lon="2.02189">
        <ele>192</ele>
        <time>2023-01-29T01:16:29.183Z</time>
      </trkpt>
      <trkpt lat="48.8775" lon="2.02182">
        <ele>192</ele>
        <time>2023-01-29T01:16:33.836Z</time>
      </trkpt>
      <trkpt lat="48.87754" lon="2.02178">
        <ele>190</ele>
        <time>2023-01-29T01:16:37.836Z</time>
      </trkpt>
      <trkpt lat="48.8776" lon="2.02172">
        <ele>190</ele>
        <time>2023-01-29T01:16:42.553Z</time>
      </trkpt>
      <trkpt lat="48.87764" lon="2.02167">
        <ele>190</ele>
        <time>2023-01-29T01:16:47.048Z</time>
      </trkpt>
      <trkpt lat="48.87769" lon="2.0216">
        <ele>190</ele>
        <time>2023-01-29T01:16:51.175Z</time>
      </trkpt>
      <trkpt lat="48.87775" lon="2.02153">
        <ele>189</ele>
        <time>2023-01-29T01:16:55.245Z</time>
      </trkpt>
      <trkpt lat="48.87781" lon="2.02146">
        <ele>189</ele>
        <time>2023-01-29T01:16:59.836Z</time>
      </trkpt>
      <trkpt lat="48.8779" lon="2.02137">
        <ele>189</ele>
        <time>2023-01-29T01:17:04.563Z</time>
      </trkpt>
      <trkpt lat="48.87798" lon="2.0213">
        <ele>189</ele>
        <time>2023-01-29T01:17:09.123Z</time>
      </trkpt>
      <trkpt lat="48.87806" lon="2.02123">
        <ele>189</ele>
        <time>2023-01-29T01:17:13.183Z</time>
      </trkpt>
      <trkpt lat="48.87814" lon="2.02118">
        <ele>189</ele>
        <time>2023-01-29T01:17:17.373Z</time>
      </trkpt>
      <trkpt lat="48.8782" lon="2.02112">
        <ele>190</ele>
        <time>2023-01-29T01:17:21.444Z</time>
      </trkpt>
      <trkpt lat="48.87826" lon="2.02107">
        <ele>190</ele>
        <time>2023-01-29T01:17:25.994Z</time>
      </trkpt>
      <trkpt lat="48.87832" lon="2.02103">
        <ele>190</ele>
        <time>2023-01-29T01:17:30.064Z</time>
      </trkpt>
      <trkpt lat="48.87838" lon="2.02096">
        <ele>190</ele>
        <time>2023-01-29T01:17:34.687Z</time>
      </trkpt>
      <trkpt lat="48.87843" lon="2.02092">
        <ele>190</ele>
        <time>2023-01-29T01:17:38.786Z</time>
      </trkpt>
      <trkpt lat="48.87847" lon="2.02087">
        <ele>190</ele>
        <time>2023-01-29T01:17:42.737Z</time>
      </trkpt>
      <trkpt lat="48.87852" lon="2.02082">
        <ele>189</ele>
        <time>2023-01-29T01:17:47.287Z</time>
      </trkpt>
      <trkpt lat="48.87856" lon="2.02076">
        <ele>189</ele>
        <time>2023-01-29T01:17:51.358Z</time>
      </trkpt>
      <trkpt lat="48.87862" lon="2.02069">
        <ele>189</ele>
        <time>2023-01-29T01:17:55.410Z</time>
      </trkpt>
      <trkpt lat="48.87868" lon="2.02063">
        <ele>189</ele>
        <time>2023-01-29T01:17:59.602Z</time>
      </trkpt>
      <trkpt lat="48.87872" lon="2.02057">
        <ele>189</ele>
        <time>2023-01-29T01:18:04.032Z</time>
      </trkpt>
      <trkpt lat="48.87878" lon="2.0205">
        <ele>186</ele>
        <time>2023-01-29T01:18:08.625Z</time>
      </trkpt>
      <trkpt lat="48.87885" lon="2.02044">
        <ele>186</ele>
        <time>2023-01-29T01:18:12.773Z</time>
      </trkpt>
      <trkpt lat="48.8789" lon="2.02038">
        <ele>186</ele>
        <time>2023-01-29T01:18:16.836Z</time>
      </trkpt>
      <trkpt lat="48.87897" lon="2.02032">
        <ele>186</ele>
        <time>2023-01-29T01:18:21.397Z</time>
      </trkpt>
      <trkpt lat="48.87902" lon="2.02027">
        <ele>186</ele>
        <time>2023-01-29T01:18:25.948Z</time>
      </trkpt>
      <trkpt lat="48.87907" lon="2.0202">
        <ele>184</ele>
        <time>2023-01-29T01:18:30.019Z</time>
      </trkpt>
      <trkpt lat="48.87913" lon="2.02016">
        <ele>184</ele>
        <time>2023-01-29T01:18:34.062Z</time>
      </trkpt>
      <trkpt lat="48.87919" lon="2.02013">
        <ele>185</ele>
        <time>2023-01-29T01:18:38.142Z</time>
      </trkpt>
      <trkpt lat="48.87925" lon="2.02009">
        <ele>185</ele>
        <time>2023-01-29T01:18:42.333Z</time>
      </trkpt>
      <trkpt lat="48.87932" lon="2.02003">
        <ele>186</ele>
        <time>2023-01-29T01:18:46.762Z</time>
      </trkpt>
      <trkpt lat="48.87938" lon="2.01998">
        <ele>186</ele>
        <time>2023-01-29T01:18:51.191Z</time>
      </trkpt>
      <trkpt lat="48.87944" lon="2.0199">
        <ele>186</ele>
        <time>2023-01-29T01:18:55.262Z</time>
      </trkpt>
      <trkpt lat="48.8795" lon="2.01983">
        <ele>187</ele>
        <time>2023-01-29T01:18:59.313Z</time>
      </trkpt>
      <trkpt lat="48.87958" lon="2.01976">
        <ele>188</ele>
        <time>2023-01-29T01:19:03.986Z</time>
      </trkpt>
      <trkpt lat="48.87968" lon="2.01969">
        <ele>188</ele>
        <time>2023-01-29T01:19:08.511Z</time>
      </trkpt>
      <trkpt lat="48.87974" lon="2.01963">
        <ele>188</ele>
        <time>2023-01-29T01:19:13.179Z</time>
      </trkpt>
      <trkpt lat="48.8798" lon="2.01959">
        <ele>188</ele>
        <time>2023-01-29T01:19:17.382Z</time>
      </trkpt>
      <trkpt lat="48.87986" lon="2.01954">
        <ele>187</ele>
        <time>2023-01-29T01:19:21.322Z</time>
      </trkpt>
      <trkpt lat="48.87992" lon="2.01946">
        <ele>187</ele>
        <time>2023-01-29T01:19:25.836Z</time>
      </trkpt>
      <trkpt lat="48.87998" lon="2.01943">
        <ele>187</ele>
        <time>2023-01-29T01:19:29.783Z</time>
      </trkpt>
      <trkpt lat="48.88004" lon="2.01938">
        <ele>187</ele>
        <time>2023-01-29T01:19:33.734Z</time>
      </trkpt>
      <trkpt lat="48.8801" lon="2.01932">
        <ele>187</ele>
        <time>2023-01-29T01:19:38.365Z</time>
      </trkpt>
      <trkpt lat="48.88016" lon="2.01925">
        <ele>184</ele>
        <time>2023-01-29T01:19:42.334Z</time>
      </trkpt>
      <trkpt lat="48.88022" lon="2.01918">
        <ele>184</ele>
        <time>2023-01-29T01:19:46.764Z</time>
      </trkpt>
      <trkpt lat="48.88027" lon="2.01911">
        <ele>184</ele>
        <time>2023-01-29T01:19:50.834Z</time>
      </trkpt>
      <trkpt lat="48.88033" lon="2.01906">
        <ele>184</ele>
        <time>2023-01-29T01:19:55.384Z</time>
      </trkpt>
      <trkpt lat="48.88038" lon="2.019">
        <ele>185</ele>
        <time>2023-01-29T01:20:00.013Z</time>
      </trkpt>
      <trkpt lat="48.88043" lon="2.01893">
        <ele>183</ele>
        <time>2023-01-29T01:20:04.563Z</time>
      </trkpt>
      <trkpt lat="48.8805" lon="2.01889">
        <ele>183</ele>
        <time>2023-01-29T01:20:09.017Z</time>
      </trkpt>
      <trkpt lat="48.88058" lon="2.01885">
        <ele>183</ele>
        <time>2023-01-29T01:20:13.541Z</time>
      </trkpt>
      <trkpt lat="48.88066" lon="2.01885">
        <ele>183</ele>
        <time>2023-01-29T01:20:18.010Z</time>
      </trkpt>
      <trkpt lat="48.88075" lon="2.01889">
        <ele>183</ele>
        <time>2023-01-29T01:20:22.517Z</time>
      </trkpt>
      <trkpt lat="48.88083" lon="2.01894">
        <ele>183</ele>
        <time>2023-01-29T01:20:27.146Z</time>
      </trkpt>
      <trkpt lat="48.88088" lon="2.01901">
        <ele>183</ele>
        <time>2023-01-29T01:20:31.217Z</time>
      </trkpt>
      <trkpt lat="48.88096" lon="2.01905">
        <ele>183</ele>
        <time>2023-01-29T01:20:35.906Z</time>
      </trkpt>
      <trkpt lat="48.88105" lon="2.01912">
        <ele>185</ele>
        <time>2023-01-29T01:20:40.435Z</time>
      </trkpt>
      <trkpt lat="48.88112" lon="2.0192">
        <ele>185</ele>
        <time>2023-01-29T01:20:44.836Z</time>
      </trkpt>
      <trkpt lat="48.88119" lon="2.01927">
        <ele>185</ele>
        <time>2023-01-29T01:20:49.413Z</time>
      </trkpt>
      <trkpt lat="48.88125" lon="2.01931">
        <ele>186</ele>
        <time>2023-01-29T01:20:53.482Z</time>
      </trkpt>
      <trkpt lat="48.8813" lon="2.01936">
        <ele>186</ele>
        <time>2023-01-29T01:20:57.553Z</time>
      </trkpt>
      <trkpt lat="48.88136" lon="2.01941">
        <ele>186</ele>
        <time>2023-01-29T01:21:02.086Z</time>
      </trkpt>
      <trkpt lat="48.88142" lon="2.01947">
        <ele>186</ele>
        <time>2023-01-29T01:21:06.115Z</time>
      </trkpt>
      <trkpt lat="48.88147" lon="2.0195">
        <ele>186</ele>
        <time>2023-01-29T01:21:10.065Z</time>
      </trkpt>
      <trkpt lat="48.88153" lon="2.01955">
        <ele>182</ele>
        <time>2023-01-29T01:21:14.732Z</time>
      </trkpt>
      <trkpt lat="48.8816" lon="2.01961">
        <ele>183</ele>
        <time>2023-01-29T01:21:19.159Z</time>
      </trkpt>
      <trkpt lat="48.88166" lon="2.01969">
        <ele>183</ele>
        <time>2023-01-29T01:21:23.227Z</time>
      </trkpt>
      <trkpt lat="48.88173" lon="2.01973">
        <ele>183</ele>
        <time>2023-01-29T01:21:27.295Z</time>
      </trkpt>
      <trkpt lat="48.8818" lon="2.01974">
        <ele>183</ele>
        <time>2023-01-29T01:21:31.826Z</time>
      </trkpt>
      <trkpt lat="48.88186" lon="2.01965">
        <ele>180</ele>
        <time>2023-01-29T01:21:35.836Z</time>
      </trkpt>
      <trkpt lat="48.8819" lon="2.0195">
        <ele>179</ele>
        <time>2023-01-29T01:21:40.339Z</time>
      </trkpt>
      <trkpt lat="48.88192" lon="2.01938">
        <ele>179</ele>
        <time>2023-01-29T01:21:44.407Z</time>
      </trkpt>
      <trkpt lat="48.88192" lon="2.01927">
        <ele>178</ele>
        <time>2023-01-29T01:21:48.911Z</time>
      </trkpt>
      <trkpt lat="48.88193" lon="2.01916">
        <ele>178</ele>
        <time>2023-01-29T01:21:52.763Z</time>
      </trkpt>
      <trkpt lat="48.88194" lon="2.01905">
        <ele>178</ele>
        <time>2023-01-29T01:21:57.310Z</time>
      </trkpt>
      <trkpt lat="48.88195" lon="2.01895">
        <ele>179</ele>
        <time>2023-01-29T01:22:01.259Z</time>
      </trkpt>
      <trkpt lat="48.88196" lon="2.01882">
        <ele>179</ele>
        <time>2023-01-29T01:22:05.806Z</time>
      </trkpt>
      <trkpt lat="48.88196" lon="2.01873">
        <ele>180</ele>
        <time>2023-01-29T01:22:10.354Z</time>
      </trkpt>
      <trkpt lat="48.88196" lon="2.01863">
        <ele>180</ele>
        <time>2023-01-29T01:22:14.303Z</time>
      </trkpt>
      <trkpt lat="48.88197" lon="2.01852">
        <ele>180</ele>
        <time>2023-01-29T01:22:18.730Z</time>
      </trkpt>
      <trkpt lat="48.88198" lon="2.0184">
        <ele>181</ele>
        <time>2023-01-29T01:22:23.396Z</time>
      </trkpt>
      <trkpt lat="48.88199" lon="2.01829">
        <ele>181</ele>
        <time>2023-01-29T01:22:27.344Z</time>
      </trkpt>
      <trkpt lat="48.882" lon="2.01819">
        <ele>181</ele>
        <time>2023-01-29T01:22:31.291Z</time>
      </trkpt>
      <trkpt lat="48.88202" lon="2.01809">
        <ele>181</ele>
        <time>2023-01-29T01:22:35.821Z</time>
      </trkpt>
      <trkpt lat="48.88203" lon="2.01799">
        <ele>181</ele>
        <time>2023-01-29T01:22:39.836Z</time>
      </trkpt>
      <trkpt lat="48.88205" lon="2.01788">
        <ele>181</ele>
        <time>2023-01-29T01:22:43.836Z</time>
      </trkpt>
      <trkpt lat="48.88209" lon="2.01776">
        <ele>180</ele>
        <time>2023-01-29T01:22:48.395Z</time>
      </trkpt>
      <trkpt lat="48.88213" lon="2.01766">
        <ele>180</ele>
        <time>2023-01-29T01:22:52.940Z</time>
      </trkpt>
      <trkpt lat="48.88217" lon="2.01755">
        <ele>179</ele>
        <time>2023-01-29T01:22:57.586Z</time>
      </trkpt>
      <trkpt lat="48.88222" lon="2.01748">
        <ele>179</ele>
        <time>2023-01-29T01:23:01.773Z</time>
      </trkpt>
      <trkpt lat="48.88225" lon="2.0174">
        <ele>179</ele>
        <time>2023-01-29T01:23:05.721Z</time>
      </trkpt>
      <trkpt lat="48.8823" lon="2.01732">
        <ele>181</ele>
        <time>2023-01-29T01:23:10.268Z</time>
      </trkpt>
      <trkpt lat="48.88236" lon="2.01725">
        <ele>181</ele>
        <time>2023-01-29T01:23:14.836Z</time>
      </trkpt>
      <trkpt lat="48.88242" lon="2.01721">
        <ele>181</ele>
        <time>2023-01-29T01:23:19.239Z</time>
      </trkpt>
      <trkpt lat="48.88248" lon="2.01716">
        <ele>181</ele>
        <time>2023-01-29T01:23:23.771Z</time>
      </trkpt>
      <trkpt lat="48.88254" lon="2.01712">
        <ele>181</ele>
        <time>2023-01-29T01:23:27.971Z</time>
      </trkpt>
      <trkpt lat="48.88261" lon="2.01709">
        <ele>181</ele>
        <time>2023-01-29T01:23:32.081Z</time>
      </trkpt>
      <trkpt lat="48.88267" lon="2.01705">
        <ele>184</ele>
        <time>2023-01-29T01:23:36.104Z</time>
      </trkpt>
      <trkpt lat="48.88273" lon="2.01704">
        <ele>184</ele>
        <time>2023-01-29T01:23:40.050Z</time>
      </trkpt>
      <trkpt lat="48.8828" lon="2.01701">
        <ele>184</ele>
        <time>2023-01-29T01:23:44.669Z</time>
      </trkpt>
      <trkpt lat="48.88287" lon="2.01699">
        <ele>184</ele>
        <time>2023-01-29T01:23:48.759Z</time>
      </trkpt>
      <trkpt lat="48.88294" lon="2.01697">
        <ele>182</ele>
        <time>2023-01-29T01:23:53.184Z</time>
      </trkpt>
      <trkpt lat="48.88301" lon="2.01695">
        <ele>182</ele>
        <time>2023-01-29T01:23:57.836Z</time>
      </trkpt>
      <trkpt lat="48.88309" lon="2.01694">
        <ele>182</ele>
        <time>2023-01-29T01:24:02.394Z</time>
      </trkpt>
      <trkpt lat="48.88316" lon="2.01692">
        <ele>182</ele>
        <time>2023-01-29T01:24:06.220Z</time>
      </trkpt>
      <trkpt lat="48.88323" lon="2.0169">
        <ele>180</ele>
        <time>2023-01-29T01:24:10.883Z</time>
      </trkpt>
      <trkpt lat="48.88331" lon="2.01688">
        <ele>180</ele>
        <time>2023-01-29T01:24:15.549Z</time>
      </trkpt>
      <trkpt lat="48.88339" lon="2.01685">
        <ele>180</ele>
        <time>2023-01-29T01:24:19.488Z</time>
      </trkpt>
      <trkpt lat="48.88346" lon="2.01683">
        <ele>180</ele>
        <time>2023-01-29T01:24:23.996Z</time>
      </trkpt>
      <trkpt lat="48.88353" lon="2.0168">
        <ele>179</ele>
        <time>2023-01-29T01:24:28.573Z</time>
      </trkpt>
      <trkpt lat="48.8836" lon="2.01676">
        <ele>179</ele>
        <time>2023-01-29T01:24:32.994Z</time>
      </trkpt>
      <trkpt lat="48.88368" lon="2.01672">
        <ele>179</ele>
        <time>2023-01-29T01:24:37.176Z</time>
      </trkpt>
      <trkpt lat="48.88375" lon="2.01667">
        <ele>177</ele>
        <time>2023-01-29T01:24:41.719Z</time>
      </trkpt>
      <trkpt lat="48.88382" lon="2.0166">
        <ele>177</ele>
        <time>2023-01-29T01:24:45.661Z</time>
      </trkpt>
      <trkpt lat="48.88388" lon="2.01652">
        <ele>178</ele>
        <time>2023-01-29T01:24:50.202Z</time>
      </trkpt>
      <trkpt lat="48.88392" lon="2.01644">
        <ele>178</ele>
        <time>2023-01-29T01:24:54.836Z</time>
      </trkpt>
      <trkpt lat="48.88397" lon="2.01637">
        <ele>178</ele>
        <time>2023-01-29T01:24:58.836Z</time>
      </trkpt>
      <trkpt lat="48.88402" lon="2.01627">
        <ele>178</ele>
        <time>2023-01-29T01:25:03.349Z</time>
      </trkpt>
      <trkpt lat="48.88406" lon="2.01617">
        <ele>178</ele>
        <time>2023-01-29T01:25:07.990Z</time>
      </trkpt>
      <trkpt lat="48.88411" lon="2.01607">
        <ele>178</ele>
        <time>2023-01-29T01:25:12.194Z</time>
      </trkpt>
      <trkpt lat="48.88415" lon="2.01597">
        <ele>178</ele>
        <time>2023-01-29T01:25:16.377Z</time>
      </trkpt>
      <trkpt lat="48.88418" lon="2.01586">
        <ele>178</ele>
        <time>2023-01-29T01:25:20.801Z</time>
      </trkpt>
      <trkpt lat="48.88421" lon="2.01576">
        <ele>178</ele>
        <time>2023-01-29T01:25:25.464Z</time>
      </trkpt>
      <trkpt lat="48.88425" lon="2.01566">
        <ele>179</ele>
        <time>2023-01-29T01:25:29.967Z</time>
      </trkpt>
      <trkpt lat="48.88429" lon="2.01556">
        <ele>179</ele>
        <time>2023-01-29T01:25:33.831Z</time>
      </trkpt>
      <trkpt lat="48.88433" lon="2.01545">
        <ele>177</ele>
        <time>2023-01-29T01:25:38.612Z</time>
      </trkpt>
      <trkpt lat="48.88436" lon="2.01534">
        <ele>177</ele>
        <time>2023-01-29T01:25:43.128Z</time>
      </trkpt>
      <trkpt lat="48.88438" lon="2.01525">
        <ele>177</ele>
        <time>2023-01-29T01:25:47.099Z</time>
      </trkpt>
      <trkpt lat="48.88441" lon="2.01515">
        <ele>177</ele>
        <time>2023-01-29T01:25:51.643Z</time>
      </trkpt>
      <trkpt lat="48.88445" lon="2.01506">
        <ele>178</ele>
        <time>2023-01-29T01:25:56.244Z</time>
      </trkpt>
      <trkpt lat="48.8845" lon="2.01498">
        <ele>178</ele>
        <time>2023-01-29T01:26:00.371Z</time>
      </trkpt>
      <trkpt lat="48.88455" lon="2.0149">
        <ele>178</ele>
        <time>2023-01-29T01:26:04.434Z</time>
      </trkpt>
      <trkpt lat="48.8846" lon="2.01483">
        <ele>178</ele>
        <time>2023-01-29T01:26:08.975Z</time>
      </trkpt>
      <trkpt lat="48.88465" lon="2.01477">
        <ele>178</ele>
        <time>2023-01-29T01:26:13.518Z</time>
      </trkpt>
      <trkpt lat="48.88469" lon="2.01471">
        <ele>178</ele>
        <time>2023-01-29T01:26:18.180Z</time>
      </trkpt>
      <trkpt lat="48.88475" lon="2.01465">
        <ele>178</ele>
        <time>2023-01-29T01:26:22.126Z</time>
      </trkpt>
      <trkpt lat="48.88481" lon="2.01461">
        <ele>178</ele>
        <time>2023-01-29T01:26:26.192Z</time>
      </trkpt>
      <trkpt lat="48.88488" lon="2.01456">
        <ele>177</ele>
        <time>2023-01-29T01:26:30.703Z</time>
      </trkpt>
      <trkpt lat="48.88495" lon="2.01449">
        <ele>177</ele>
        <time>2023-01-29T01:26:34.562Z</time>
      </trkpt>
      <trkpt lat="48.88501" lon="2.01445">
        <ele>177</ele>
        <time>2023-01-29T01:26:39.030Z</time>
      </trkpt>
      <trkpt lat="48.88507" lon="2.0144">
        <ele>177</ele>
        <time>2023-01-29T01:26:42.932Z</time>
      </trkpt>
      <trkpt lat="48.88512" lon="2.01431">
        <ele>177</ele>
        <time>2023-01-29T01:26:47.596Z</time>
      </trkpt>
      <trkpt lat="48.88517" lon="2.01425">
        <ele>174</ele>
        <time>2023-01-29T01:26:52.260Z</time>
      </trkpt>
      <trkpt lat="48.88523" lon="2.01421">
        <ele>174</ele>
        <time>2023-01-29T01:26:56.804Z</time>
      </trkpt>
      <trkpt lat="48.8853" lon="2.01415">
        <ele>174</ele>
        <time>2023-01-29T01:27:01.341Z</time>
      </trkpt>
      <trkpt lat="48.88536" lon="2.01409">
        <ele>174</ele>
        <time>2023-01-29T01:27:05.296Z</time>
      </trkpt>
      <trkpt lat="48.88543" lon="2.01401">
        <ele>170</ele>
        <time>2023-01-29T01:27:09.720Z</time>
      </trkpt>
      <trkpt lat="48.88549" lon="2.01397">
        <ele>170</ele>
        <time>2023-01-29T01:27:14.144Z</time>
      </trkpt>
      <trkpt lat="48.88555" lon="2.01391">
        <ele>170</ele>
        <time>2023-01-29T01:27:18.171Z</time>
      </trkpt>
      <trkpt lat="48.8856" lon="2.01387">
        <ele>170</ele>
        <time>2023-01-29T01:27:22.357Z</time>
      </trkpt>
      <trkpt lat="48.88565" lon="2.0138">
        <ele>170</ele>
        <time>2023-01-29T01:27:26.782Z</time>
      </trkpt>
      <trkpt lat="48.88571" lon="2.01373">
        <ele>166</ele>
        <time>2023-01-29T01:27:31.446Z</time>
      </trkpt>
      <trkpt lat="48.88577" lon="2.01365">
        <ele>166</ele>
        <time>2023-01-29T01:27:35.836Z</time>
      </trkpt>
      <trkpt lat="48.88583" lon="2.01355">
        <ele>166</ele>
        <time>2023-01-29T01:27:40.920Z</time>
      </trkpt>
      <trkpt lat="48.88588" lon="2.01348">
        <ele>166</ele>
        <time>2023-01-29T01:27:44.961Z</time>
      </trkpt>
      <trkpt lat="48.88594" lon="2.01338">
        <ele>168</ele>
        <time>2023-01-29T01:27:49.488Z</time>
      </trkpt>
      <trkpt lat="48.886" lon="2.01328">
        <ele>167</ele>
        <time>2023-01-29T01:27:53.436Z</time>
      </trkpt>
      <trkpt lat="48.88604" lon="2.01318">
        <ele>169</ele>
        <time>2023-01-29T01:27:57.906Z</time>
      </trkpt>
      <trkpt lat="48.88609" lon="2.01307">
        <ele>169</ele>
        <time>2023-01-29T01:28:01.809Z</time>
      </trkpt>
      <trkpt lat="48.88613" lon="2.01296">
        <ele>169</ele>
        <time>2023-01-29T01:28:06.355Z</time>
      </trkpt>
      <trkpt lat="48.88615" lon="2.01285">
        <ele>171</ele>
        <time>2023-01-29T01:28:10.422Z</time>
      </trkpt>
      <trkpt lat="48.88616" lon="2.01275">
        <ele>171</ele>
        <time>2023-01-29T01:28:15.086Z</time>
      </trkpt>
      <trkpt lat="48.88619" lon="2.01264">
        <ele>171</ele>
        <time>2023-01-29T01:28:19.511Z</time>
      </trkpt>
      <trkpt lat="48.8862" lon="2.01257">
        <ele>174</ele>
        <time>2023-01-29T01:28:24.026Z</time>
      </trkpt>
      <trkpt lat="48.8862" lon="2.01248">
        <ele>174</ele>
        <time>2023-01-29T01:28:28.099Z</time>
      </trkpt>
      <trkpt lat="48.88622" lon="2.01242">
        <ele>174</ele>
        <time>2023-01-29T01:28:32.748Z</time>
      </trkpt>
      <trkpt lat="48.88624" lon="2.01236">
        <ele>174</ele>
        <time>2023-01-29T01:28:36.829Z</time>
      </trkpt>
      <trkpt lat="48.88627" lon="2.01226">
        <ele>171</ele>
        <time>2023-01-29T01:28:41.492Z</time>
      </trkpt>
      <trkpt lat="48.88628" lon="2.01213">
        <ele>171</ele>
        <time>2023-01-29T01:28:46.155Z</time>
      </trkpt>
      <trkpt lat="48.88627" lon="2.01198">
        <ele>172</ele>
        <time>2023-01-29T01:28:50.578Z</time>
      </trkpt>
      <trkpt lat="48.88625" lon="2.01185">
        <ele>177</ele>
        <time>2023-01-29T01:28:54.762Z</time>
      </trkpt>
      <trkpt lat="48.88624" lon="2.01171">
        <ele>179</ele>
        <time>2023-01-29T01:28:59.424Z</time>
      </trkpt>
      <trkpt lat="48.88624" lon="2.0116">
        <ele>179</ele>
        <time>2023-01-29T01:29:03.994Z</time>
      </trkpt>
      <trkpt lat="48.88624" lon="2.01149">
        <ele>181</ele>
        <time>2023-01-29T01:29:08.150Z</time>
      </trkpt>
      <trkpt lat="48.88625" lon="2.01135">
        <ele>179</ele>
        <time>2023-01-29T01:29:12.788Z</time>
      </trkpt>
      <trkpt lat="48.88626" lon="2.01122">
        <ele>179</ele>
        <time>2023-01-29T01:29:16.640Z</time>
      </trkpt>
      <trkpt lat="48.88626" lon="2.01111">
        <ele>179</ele>
        <time>2023-01-29T01:29:21.303Z</time>
      </trkpt>
      <trkpt lat="48.88627" lon="2.011">
        <ele>179</ele>
        <time>2023-01-29T01:29:25.724Z</time>
      </trkpt>
      <trkpt lat="48.88626" lon="2.0109">
        <ele>179</ele>
        <time>2023-01-29T01:29:29.549Z</time>
      </trkpt>
      <trkpt lat="48.88627" lon="2.01081">
        <ele>179</ele>
        <time>2023-01-29T01:29:33.732Z</time>
      </trkpt>
      <trkpt lat="48.88629" lon="2.01072">
        <ele>179</ele>
        <time>2023-01-29T01:29:37.556Z</time>
      </trkpt>
      <trkpt lat="48.88629" lon="2.01061">
        <ele>177</ele>
        <time>2023-01-29T01:29:42.095Z</time>
      </trkpt>
      <trkpt lat="48.8863" lon="2.0105">
        <ele>177</ele>
        <time>2023-01-29T01:29:46.757Z</time>
      </trkpt>
      <trkpt lat="48.88632" lon="2.0104">
        <ele>176</ele>
        <time>2023-01-29T01:29:51.419Z</time>
      </trkpt>
      <trkpt lat="48.88633" lon="2.0103">
        <ele>176</ele>
        <time>2023-01-29T01:29:55.363Z</time>
      </trkpt>
      <trkpt lat="48.88636" lon="2.01021">
        <ele>176</ele>
        <time>2023-01-29T01:30:00.025Z</time>
      </trkpt>
      <trkpt lat="48.88639" lon="2.0101">
        <ele>174</ele>
        <time>2023-01-29T01:30:04.568Z</time>
      </trkpt>
      <trkpt lat="48.88643" lon="2.00999">
        <ele>174</ele>
        <time>2023-01-29T01:30:09.230Z</time>
      </trkpt>
      <trkpt lat="48.88647" lon="2.00989">
        <ele>174</ele>
        <time>2023-01-29T01:30:13.709Z</time>
      </trkpt>
      <trkpt lat="48.88652" lon="2.0098">
        <ele>174</ele>
        <time>2023-01-29T01:30:17.818Z</time>
      </trkpt>
      <trkpt lat="48.88656" lon="2.00971">
        <ele>176</ele>
        <time>2023-01-29T01:30:21.764Z</time>
      </trkpt>
      <trkpt lat="48.8866" lon="2.00961">
        <ele>176</ele>
        <time>2023-01-29T01:30:26.380Z</time>
      </trkpt>
      <trkpt lat="48.88664" lon="2.00951">
        <ele>176</ele>
        <time>2023-01-29T01:30:30.251Z</time>
      </trkpt>
      <trkpt lat="48.88669" lon="2.00941">
        <ele>176</ele>
        <time>2023-01-29T01:30:34.917Z</time>
      </trkpt>
      <trkpt lat="48.88673" lon="2.00932">
        <ele>176</ele>
        <time>2023-01-29T01:30:38.979Z</time>
      </trkpt>
      <trkpt lat="48.88676" lon="2.00924">
        <ele>177</ele>
        <time>2023-01-29T01:30:42.926Z</time>
      </trkpt>
      <trkpt lat="48.88679" lon="2.00916">
        <ele>177</ele>
        <time>2023-01-29T01:30:46.990Z</time>
      </trkpt>
      <trkpt lat="48.88683" lon="2.00907">
        <ele>178</ele>
        <time>2023-01-29T01:30:51.174Z</time>
      </trkpt>
      <trkpt lat="48.88687" lon="2.00897">
        <ele>179</ele>
        <time>2023-01-29T01:30:55.680Z</time>
      </trkpt>
      <trkpt lat="48.88691" lon="2.00887">
        <ele>179</ele>
        <time>2023-01-29T01:30:59.660Z</time>
      </trkpt>
      <trkpt lat="48.88696" lon="2.00877">
        <ele>179</ele>
        <time>2023-01-29T01:31:04.323Z</time>
      </trkpt>
      <trkpt lat="48.88698" lon="2.00867">
        <ele>179</ele>
        <time>2023-01-29T01:31:08.938Z</time>
      </trkpt>
      <trkpt lat="48.88702" lon="2.00858">
        <ele>179</ele>
        <time>2023-01-29T01:31:12.814Z</time>
      </trkpt>
      <trkpt lat="48.88706" lon="2.00848">
        <ele>179</ele>
        <time>2023-01-29T01:31:17.355Z</time>
      </trkpt>
      <trkpt lat="48.88712" lon="2.00838">
        <ele>176</ele>
        <time>2023-01-29T01:31:21.836Z</time>
      </trkpt>
      <trkpt lat="48.88716" lon="2.00829">
        <ele>176</ele>
        <time>2023-01-29T01:31:25.963Z</time>
      </trkpt>
      <trkpt lat="48.8872" lon="2.00821">
        <ele>176</ele>
        <time>2023-01-29T01:31:30.028Z</time>
      </trkpt>
      <trkpt lat="48.88723" lon="2.00811">
        <ele>176</ele>
        <time>2023-01-29T01:31:34.572Z</time>
      </trkpt>
      <trkpt lat="48.88726" lon="2.00802">
        <ele>176</ele>
        <time>2023-01-29T01:31:38.638Z</time>
      </trkpt>
      <trkpt lat="48.8873" lon="2.00794">
        <ele>176</ele>
        <time>2023-01-29T01:31:42.704Z</time>
      </trkpt>
      <trkpt lat="48.88734" lon="2.00785">
        <ele>176</ele>
        <time>2023-01-29T01:31:47.127Z</time>
      </trkpt>
      <trkpt lat="48.88737" lon="2.00775">
        <ele>175</ele>
        <time>2023-01-29T01:31:51.670Z</time>
      </trkpt>
      <trkpt lat="48.8874" lon="2.00766">
        <ele>175</ele>
        <time>2023-01-29T01:31:56.267Z</time>
      </trkpt>
      <trkpt lat="48.88745" lon="2.00757">
        <ele>175</ele>
        <time>2023-01-29T01:32:00.280Z</time>
      </trkpt>
      <trkpt lat="48.8875" lon="2.00748">
        <ele>175</ele>
        <time>2023-01-29T01:32:04.823Z</time>
      </trkpt>
      <trkpt lat="48.88754" lon="2.0074">
        <ele>175</ele>
        <time>2023-01-29T01:32:09.366Z</time>
      </trkpt>
      <trkpt lat="48.88758" lon="2.0073">
        <ele>175</ele>
        <time>2023-01-29T01:32:13.790Z</time>
      </trkpt>
      <trkpt lat="48.88763" lon="2.00722">
        <ele>175</ele>
        <time>2023-01-29T01:32:18.454Z</time>
      </trkpt>
      <trkpt lat="48.88767" lon="2.00712">
        <ele>175</ele>
        <time>2023-01-29T01:32:22.400Z</time>
      </trkpt>
      <trkpt lat="48.88771" lon="2.00703">
        <ele>175</ele>
        <time>2023-01-29T01:32:26.943Z</time>
      </trkpt>
      <trkpt lat="48.88776" lon="2.00692">
        <ele>175</ele>
        <time>2023-01-29T01:32:31.604Z</time>
      </trkpt>
      <trkpt lat="48.8878" lon="2.00683">
        <ele>175</ele>
        <time>2023-01-29T01:32:36.147Z</time>
      </trkpt>
      <trkpt lat="48.88783" lon="2.00673">
        <ele>175</ele>
        <time>2023-01-29T01:32:40.570Z</time>
      </trkpt>
      <trkpt lat="48.88786" lon="2.00664">
        <ele>175</ele>
        <time>2023-01-29T01:32:45.233Z</time>
      </trkpt>
      <trkpt lat="48.88791" lon="2.00655">
        <ele>175</ele>
        <time>2023-01-29T01:32:49.914Z</time>
      </trkpt>
      <trkpt lat="48.88795" lon="2.00647">
        <ele>176</ele>
        <time>2023-01-29T01:32:53.836Z</time>
      </trkpt>
      <trkpt lat="48.88799" lon="2.00636">
        <ele>176</ele>
        <time>2023-01-29T01:32:58.383Z</time>
      </trkpt>
      <trkpt lat="48.88803" lon="2.00628">
        <ele>176</ele>
        <time>2023-01-29T01:33:03.012Z</time>
      </trkpt>
      <trkpt lat="48.88808" lon="2.00618">
        <ele>176</ele>
        <time>2023-01-29T01:33:07.588Z</time>
      </trkpt>
      <trkpt lat="48.88813" lon="2.0061">
        <ele>176</ele>
        <time>2023-01-29T01:33:11.533Z</time>
      </trkpt>
      <trkpt lat="48.88816" lon="2.006">
        <ele>176</ele>
        <time>2023-01-29T01:33:15.599Z</time>
      </trkpt>
      <trkpt lat="48.88821" lon="2.00591">
        <ele>177</ele>
        <time>2023-01-29T01:33:20.086Z</time>
      </trkpt>
      <trkpt lat="48.88824" lon="2.00581">
        <ele>177</ele>
        <time>2023-01-29T01:33:24.568Z</time>
      </trkpt>
      <trkpt lat="48.88828" lon="2.00572">
        <ele>177</ele>
        <time>2023-01-29T01:33:29.112Z</time>
      </trkpt>
      <trkpt lat="48.88833" lon="2.00565">
        <ele>177</ele>
        <time>2023-01-29T01:33:33.655Z</time>
      </trkpt>
      <trkpt lat="48.88838" lon="2.00557">
        <ele>177</ele>
        <time>2023-01-29T01:33:38.262Z</time>
      </trkpt>
      <trkpt lat="48.88843" lon="2.0055">
        <ele>177</ele>
        <time>2023-01-29T01:33:42.383Z</time>
      </trkpt>
      <trkpt lat="48.88845" lon="2.0054">
        <ele>176</ele>
        <time>2023-01-29T01:33:46.807Z</time>
      </trkpt>
      <trkpt lat="48.88849" lon="2.0053">
        <ele>178</ele>
        <time>2023-01-29T01:33:51.350Z</time>
      </trkpt>
      <trkpt lat="48.88853" lon="2.0052">
        <ele>178</ele>
        <time>2023-01-29T01:33:56.008Z</time>
      </trkpt>
      <trkpt lat="48.88856" lon="2.00511">
        <ele>176</ele>
        <time>2023-01-29T01:33:59.960Z</time>
      </trkpt>
      <trkpt lat="48.8886" lon="2.00501">
        <ele>176</ele>
        <time>2023-01-29T01:34:04.027Z</time>
      </trkpt>
      <trkpt lat="48.88864" lon="2.00493">
        <ele>176</ele>
        <time>2023-01-29T01:34:08.204Z</time>
      </trkpt>
      <trkpt lat="48.88868" lon="2.00485">
        <ele>175</ele>
        <time>2023-01-29T01:34:12.274Z</time>
      </trkpt>
      <trkpt lat="48.88873" lon="2.00477">
        <ele>175</ele>
        <time>2023-01-29T01:34:16.696Z</time>
      </trkpt>
      <trkpt lat="48.88877" lon="2.00467">
        <ele>178</ele>
        <time>2023-01-29T01:34:21.358Z</time>
      </trkpt>
      <trkpt lat="48.8888" lon="2.00459">
        <ele>178</ele>
        <time>2023-01-29T01:34:25.942Z</time>
      </trkpt>
      <trkpt lat="48.88883" lon="2.00451">
        <ele>177</ele>
        <time>2023-01-29T01:34:29.964Z</time>
      </trkpt>
      <trkpt lat="48.88887" lon="2.00443">
        <ele>177</ele>
        <time>2023-01-29T01:34:34.028Z</time>
      </trkpt>
      <trkpt lat="48.88892" lon="2.00434">
        <ele>177</ele>
        <time>2023-01-29T01:34:38.452Z</time>
      </trkpt>
      <trkpt lat="48.88895" lon="2.00426">
        <ele>177</ele>
        <time>2023-01-29T01:34:42.980Z</time>
      </trkpt>
      <trkpt lat="48.88898" lon="2.00414">
        <ele>177</ele>
        <time>2023-01-29T01:34:47.526Z</time>
      </trkpt>
      <trkpt lat="48.88901" lon="2.00404">
        <ele>177</ele>
        <time>2023-01-29T01:34:52.185Z</time>
      </trkpt>
      <trkpt lat="48.88906" lon="2.00395">
        <ele>177</ele>
        <time>2023-01-29T01:34:56.261Z</time>
      </trkpt>
      <trkpt lat="48.8891" lon="2.00385">
        <ele>177</ele>
        <time>2023-01-29T01:35:00.808Z</time>
      </trkpt>
      <trkpt lat="48.88916" lon="2.00373">
        <ele>177</ele>
        <time>2023-01-29T01:35:05.751Z</time>
      </trkpt>
      <trkpt lat="48.8892" lon="2.00364">
        <ele>177</ele>
        <time>2023-01-29T01:35:09.777Z</time>
      </trkpt>
      <trkpt lat="48.88924" lon="2.00354">
        <ele>177</ele>
        <time>2023-01-29T01:35:14.321Z</time>
      </trkpt>
      <trkpt lat="48.88927" lon="2.00347">
        <ele>176</ele>
        <time>2023-01-29T01:35:18.266Z</time>
      </trkpt>
      <trkpt lat="48.88931" lon="2.00338">
        <ele>177</ele>
        <time>2023-01-29T01:35:22.691Z</time>
      </trkpt>
      <trkpt lat="48.88935" lon="2.00331">
        <ele>177</ele>
        <time>2023-01-29T01:35:26.755Z</time>
      </trkpt>
      <trkpt lat="48.88938" lon="2.00323">
        <ele>177</ele>
        <time>2023-01-29T01:35:30.836Z</time>
      </trkpt>
      <trkpt lat="48.88943" lon="2.00314">
        <ele>177</ele>
        <time>2023-01-29T01:35:35.608Z</time>
      </trkpt>
      <trkpt lat="48.88947" lon="2.00305">
        <ele>177</ele>
        <time>2023-01-29T01:35:39.788Z</time>
      </trkpt>
      <trkpt lat="48.8895" lon="2.00294">
        <ele>177</ele>
        <time>2023-01-29T01:35:44.212Z</time>
      </trkpt>
      <trkpt lat="48.88951" lon="2.00286">
        <ele>176</ele>
        <time>2023-01-29T01:35:48.919Z</time>
      </trkpt>
      <trkpt lat="48.88954" lon="2.00279">
        <ele>176</ele>
        <time>2023-01-29T01:35:52.821Z</time>
      </trkpt>
      <trkpt lat="48.88957" lon="2.00272">
        <ele>176</ele>
        <time>2023-01-29T01:35:56.836Z</time>
      </trkpt>
      <trkpt lat="48.88959" lon="2.00262">
        <ele>173</ele>
        <time>2023-01-29T01:36:00.952Z</time>
      </trkpt>
      <trkpt lat="48.88965" lon="2.0025">
        <ele>173</ele>
        <time>2023-01-29T01:36:05.616Z</time>
      </trkpt>
      <trkpt lat="48.8897" lon="2.00239">
        <ele>173</ele>
        <time>2023-01-29T01:36:10.279Z</time>
      </trkpt>
      <trkpt lat="48.88972" lon="2.0023">
        <ele>173</ele>
        <time>2023-01-29T01:36:14.225Z</time>
      </trkpt>
      <trkpt lat="48.88975" lon="2.00218">
        <ele>173</ele>
        <time>2023-01-29T01:36:18.769Z</time>
      </trkpt>
      <trkpt lat="48.88976" lon="2.00205">
        <ele>173</ele>
        <time>2023-01-29T01:36:22.835Z</time>
      </trkpt>
      <trkpt lat="48.88975" lon="2.00195">
        <ele>173</ele>
        <time>2023-01-29T01:36:27.262Z</time>
      </trkpt>
      <trkpt lat="48.88973" lon="2.00186">
        <ele>173</ele>
        <time>2023-01-29T01:36:31.907Z</time>
      </trkpt>
      <trkpt lat="48.88973" lon="2.00181">
        <ele>173</ele>
        <time>2023-01-29T01:36:35.992Z</time>
      </trkpt>
      <trkpt lat="48.88971" lon="2.00174">
        <ele>173</ele>
        <time>2023-01-29T01:36:40.102Z</time>
      </trkpt>
      <trkpt lat="48.88969" lon="2.00167">
        <ele>173</ele>
        <time>2023-01-29T01:36:44.605Z</time>
      </trkpt>
      <trkpt lat="48.88969" lon="2.00161">
        <ele>173</ele>
        <time>2023-01-29T01:36:49.151Z</time>
      </trkpt>
      <trkpt lat="48.88969" lon="2.00153">
        <ele>173</ele>
        <time>2023-01-29T01:36:53.099Z</time>
      </trkpt>
      <trkpt lat="48.88968" lon="2.00142">
        <ele>172</ele>
        <time>2023-01-29T01:36:57.728Z</time>
      </trkpt>
      <trkpt lat="48.88967" lon="2.00131">
        <ele>172</ele>
        <time>2023-01-29T01:37:01.711Z</time>
      </trkpt>
      <trkpt lat="48.88966" lon="2.00118">
        <ele>171</ele>
        <time>2023-01-29T01:37:06.136Z</time>
      </trkpt>
      <trkpt lat="48.88964" lon="2.00109">
        <ele>171</ele>
        <time>2023-01-29T01:37:10.084Z</time>
      </trkpt>
      <trkpt lat="48.88961" lon="2.001">
        <ele>171</ele>
        <time>2023-01-29T01:37:14.722Z</time>
      </trkpt>
      <trkpt lat="48.88959" lon="2.00091">
        <ele>171</ele>
        <time>2023-01-29T01:37:19.128Z</time>
      </trkpt>
      <trkpt lat="48.88959" lon="2.00082">
        <ele>171</ele>
        <time>2023-01-29T01:37:23.117Z</time>
      </trkpt>
      <trkpt lat="48.88957" lon="2.00069">
        <ele>171</ele>
        <time>2023-01-29T01:37:27.745Z</time>
      </trkpt>
      <trkpt lat="48.88954" lon="2.0006">
        <ele>172</ele>
        <time>2023-01-29T01:37:31.727Z</time>
      </trkpt>
      <trkpt lat="48.88951" lon="2.00051">
        <ele>172</ele>
        <time>2023-01-29T01:37:36.152Z</time>
      </trkpt>
      <trkpt lat="48.88948" lon="2.0004">
        <ele>172</ele>
        <time>2023-01-29T01:37:40.816Z</time>
      </trkpt>
      <trkpt lat="48.88946" lon="2.00031">
        <ele>172</ele>
        <time>2023-01-29T01:37:45.288Z</time>
      </trkpt>
      <trkpt lat="48.88943" lon="2.00021">
        <ele>172</ele>
        <time>2023-01-29T01:37:49.428Z</time>
      </trkpt>
      <trkpt lat="48.8894" lon="2.00007">
        <ele>172</ele>
        <time>2023-01-29T01:37:53.973Z</time>
      </trkpt>
      <trkpt lat="48.88938" lon="1.99995">
        <ele>172</ele>
        <time>2023-01-29T01:37:58.158Z</time>
      </trkpt>
      <trkpt lat="48.88937" lon="1.99986">
        <ele>172</ele>
        <time>2023-01-29T01:38:02.689Z</time>
      </trkpt>
      <trkpt lat="48.88935" lon="1.99976">
        <ele>172</ele>
        <time>2023-01-29T01:38:07.081Z</time>
      </trkpt>
      <trkpt lat="48.88933" lon="1.99967">
        <ele>172</ele>
        <time>2023-01-29T01:38:11.553Z</time>
      </trkpt>
      <trkpt lat="48.88929" lon="1.99954">
        <ele>173</ele>
        <time>2023-01-29T01:38:16.216Z</time>
      </trkpt>
      <trkpt lat="48.88927" lon="1.99944">
        <ele>173</ele>
        <time>2023-01-29T01:38:20.667Z</time>
      </trkpt>
      <trkpt lat="48.88925" lon="1.99935">
        <ele>173</ele>
        <time>2023-01-29T01:38:24.588Z</time>
      </trkpt>
      <trkpt lat="48.88923" lon="1.99925">
        <ele>174</ele>
        <time>2023-01-29T01:38:29.252Z</time>
      </trkpt>
      <trkpt lat="48.88921" lon="1.99914">
        <ele>174</ele>
        <time>2023-01-29T01:38:33.840Z</time>
      </trkpt>
      <trkpt lat="48.88919" lon="1.99901">
        <ele>173</ele>
        <time>2023-01-29T01:38:37.982Z</time>
      </trkpt>
      <trkpt lat="48.88917" lon="1.99891">
        <ele>173</ele>
        <time>2023-01-29T01:38:42.524Z</time>
      </trkpt>
      <trkpt lat="48.88915" lon="1.99881">
        <ele>173</ele>
        <time>2023-01-29T01:38:47.167Z</time>
      </trkpt>
      <trkpt lat="48.88913" lon="1.99871">
        <ele>174</ele>
        <time>2023-01-29T01:38:51.129Z</time>
      </trkpt>
      <trkpt lat="48.88911" lon="1.99862">
        <ele>174</ele>
        <time>2023-01-29T01:38:55.550Z</time>
      </trkpt>
      <trkpt lat="48.88909" lon="1.99852">
        <ele>174</ele>
        <time>2023-01-29T01:39:00.090Z</time>
      </trkpt>
      <trkpt lat="48.88908" lon="1.99843">
        <ele>175</ele>
        <time>2023-01-29T01:39:04.752Z</time>
      </trkpt>
      <trkpt lat="48.88905" lon="1.99833">
        <ele>175</ele>
        <time>2023-01-29T01:39:09.292Z</time>
      </trkpt>
      <trkpt lat="48.88902" lon="1.99825">
        <ele>176</ele>
        <time>2023-01-29T01:39:13.715Z</time>
      </trkpt>
      <trkpt lat="48.88901" lon="1.99816">
        <ele>177</ele>
        <time>2023-01-29T01:39:18.263Z</time>
      </trkpt>
      <trkpt lat="48.88899" lon="1.99806">
        <ele>177</ele>
        <time>2023-01-29T01:39:22.200Z</time>
      </trkpt>
      <trkpt lat="48.88899" lon="1.99792">
        <ele>177</ele>
        <time>2023-01-29T01:39:26.742Z</time>
      </trkpt>
      <trkpt lat="48.88898" lon="1.99782">
        <ele>177</ele>
        <time>2023-01-29T01:39:31.284Z</time>
      </trkpt>
      <trkpt lat="48.88897" lon="1.99772">
        <ele>177</ele>
        <time>2023-01-29T01:39:35.946Z</time>
      </trkpt>
      <trkpt lat="48.88894" lon="1.99763">
        <ele>176</ele>
        <time>2023-01-29T01:39:39.890Z</time>
      </trkpt>
      <trkpt lat="48.88893" lon="1.99751">
        <ele>176</ele>
        <time>2023-01-29T01:39:43.955Z</time>
      </trkpt>
      <trkpt lat="48.88891" lon="1.99737">
        <ele>176</ele>
        <time>2023-01-29T01:39:48.615Z</time>
      </trkpt>
      <trkpt lat="48.88887" lon="1.99725">
        <ele>176</ele>
        <time>2023-01-29T01:39:53.156Z</time>
      </trkpt>
      <trkpt lat="48.88882" lon="1.99714">
        <ele>176</ele>
        <time>2023-01-29T01:39:57.221Z</time>
      </trkpt>
      <trkpt lat="48.88878" lon="1.99704">
        <ele>175</ele>
        <time>2023-01-29T01:40:01.762Z</time>
      </trkpt>
      <trkpt lat="48.88874" lon="1.99695">
        <ele>176</ele>
        <time>2023-01-29T01:40:06.303Z</time>
      </trkpt>
      <trkpt lat="48.88869" lon="1.99684">
        <ele>176</ele>
        <time>2023-01-29T01:40:10.904Z</time>
      </trkpt>
      <trkpt lat="48.88865" lon="1.99676">
        <ele>176</ele>
        <time>2023-01-29T01:40:14.790Z</time>
      </trkpt>
      <trkpt lat="48.8886" lon="1.99669">
        <ele>176</ele>
        <time>2023-01-29T01:40:19.332Z</time>
      </trkpt>
      <trkpt lat="48.88856" lon="1.99662">
        <ele>176</ele>
        <time>2023-01-29T01:40:23.836Z</time>
      </trkpt>
      <trkpt lat="48.88852" lon="1.99654">
        <ele>176</ele>
        <time>2023-01-29T01:40:28.532Z</time>
      </trkpt>
      <trkpt lat="48.88848" lon="1.99649">
        <ele>175</ele>
        <time>2023-01-29T01:40:33.192Z</time>
      </trkpt>
      <trkpt lat="48.88844" lon="1.99642">
        <ele>176</ele>
        <time>2023-01-29T01:40:37.375Z</time>
      </trkpt>
      <trkpt lat="48.8884" lon="1.99636">
        <ele>176</ele>
        <time>2023-01-29T01:40:42.277Z</time>
      </trkpt>
      <trkpt lat="48.88837" lon="1.99628">
        <ele>176</ele>
        <time>2023-01-29T01:40:46.819Z</time>
      </trkpt>
      <trkpt lat="48.88833" lon="1.99616">
        <ele>176</ele>
        <time>2023-01-29T01:40:51.361Z</time>
      </trkpt>
      <trkpt lat="48.88827" lon="1.99604">
        <ele>176</ele>
        <time>2023-01-29T01:40:55.836Z</time>
      </trkpt>
      <trkpt lat="48.88822" lon="1.99596">
        <ele>176</ele>
        <time>2023-01-29T01:40:59.825Z</time>
      </trkpt>
      <trkpt lat="48.88816" lon="1.99588">
        <ele>177</ele>
        <time>2023-01-29T01:41:03.991Z</time>
      </trkpt>
      <trkpt lat="48.88811" lon="1.99579">
        <ele>177</ele>
        <time>2023-01-29T01:41:08.506Z</time>
      </trkpt>
      <trkpt lat="48.88806" lon="1.9957">
        <ele>177</ele>
        <time>2023-01-29T01:41:12.596Z</time>
      </trkpt>
      <trkpt lat="48.88801" lon="1.99562">
        <ele>177</ele>
        <time>2023-01-29T01:41:16.778Z</time>
      </trkpt>
      <trkpt lat="48.88798" lon="1.99555">
        <ele>177</ele>
        <time>2023-01-29T01:41:20.836Z</time>
      </trkpt>
      <trkpt lat="48.88794" lon="1.99547">
        <ele>177</ele>
        <time>2023-01-29T01:41:25.616Z</time>
      </trkpt>
      <trkpt lat="48.8879" lon="1.99538">
        <ele>177</ele>
        <time>2023-01-29T01:41:30.155Z</time>
      </trkpt>
      <trkpt lat="48.88785" lon="1.99529">
        <ele>177</ele>
        <time>2023-01-29T01:41:34.575Z</time>
      </trkpt>
      <trkpt lat="48.88783" lon="1.99521">
        <ele>177</ele>
        <time>2023-01-29T01:41:39.114Z</time>
      </trkpt>
      <trkpt lat="48.88781" lon="1.99513">
        <ele>177</ele>
        <time>2023-01-29T01:41:43.746Z</time>
      </trkpt>
      <trkpt lat="48.88777" lon="1.99506">
        <ele>177</ele>
        <time>2023-01-29T01:41:48.315Z</time>
      </trkpt>
      <trkpt lat="48.88773" lon="1.99499">
        <ele>177</ele>
        <time>2023-01-29T01:41:52.735Z</time>
      </trkpt>
      <trkpt lat="48.8877" lon="1.99489">
        <ele>177</ele>
        <time>2023-01-29T01:41:56.796Z</time>
      </trkpt>
      <trkpt lat="48.88763" lon="1.99477">
        <ele>179</ele>
        <time>2023-01-29T01:42:01.336Z</time>
      </trkpt>
      <trkpt lat="48.88759" lon="1.99465">
        <ele>179</ele>
        <time>2023-01-29T01:42:05.755Z</time>
      </trkpt>
      <trkpt lat="48.88753" lon="1.99449">
        <ele>179</ele>
        <time>2023-01-29T01:42:10.175Z</time>
      </trkpt>
      <trkpt lat="48.88748" lon="1.99439">
        <ele>179</ele>
        <time>2023-01-29T01:42:14.582Z</time>
      </trkpt>
      <trkpt lat="48.88744" lon="1.99431">
        <ele>179</ele>
        <time>2023-01-29T01:42:18.778Z</time>
      </trkpt>
      <trkpt lat="48.88739" lon="1.99424">
        <ele>179</ele>
        <time>2023-01-29T01:42:23.199Z</time>
      </trkpt>
      <trkpt lat="48.88735" lon="1.99418">
        <ele>180</ele>
        <time>2023-01-29T01:42:27.738Z</time>
      </trkpt>
      <trkpt lat="48.88728" lon="1.9941">
        <ele>180</ele>
        <time>2023-01-29T01:42:32.412Z</time>
      </trkpt>
      <trkpt lat="48.88723" lon="1.99403">
        <ele>180</ele>
        <time>2023-01-29T01:42:36.340Z</time>
      </trkpt>
      <trkpt lat="48.88719" lon="1.99399">
        <ele>179</ele>
        <time>2023-01-29T01:42:40.836Z</time>
      </trkpt>
      <trkpt lat="48.88715" lon="1.99394">
        <ele>179</ele>
        <time>2023-01-29T01:42:45.178Z</time>
      </trkpt>
      <trkpt lat="48.88711" lon="1.99387">
        <ele>179</ele>
        <time>2023-01-29T01:42:49.357Z</time>
      </trkpt>
      <trkpt lat="48.88706" lon="1.9938">
        <ele>179</ele>
        <time>2023-01-29T01:42:53.959Z</time>
      </trkpt>
      <trkpt lat="48.887" lon="1.99373">
        <ele>178</ele>
        <time>2023-01-29T01:42:58.404Z</time>
      </trkpt>
      <trkpt lat="48.88695" lon="1.99365">
        <ele>178</ele>
        <time>2023-01-29T01:43:02.376Z</time>
      </trkpt>
      <trkpt lat="48.88689" lon="1.99358">
        <ele>178</ele>
        <time>2023-01-29T01:43:07.034Z</time>
      </trkpt>
      <trkpt lat="48.88684" lon="1.99349">
        <ele>178</ele>
        <time>2023-01-29T01:43:11.547Z</time>
      </trkpt>
      <trkpt lat="48.88678" lon="1.99338">
        <ele>179</ele>
        <time>2023-01-29T01:43:15.911Z</time>
      </trkpt>
      <trkpt lat="48.88673" lon="1.99329">
        <ele>179</ele>
        <time>2023-01-29T01:43:19.814Z</time>
      </trkpt>
      <trkpt lat="48.88667" lon="1.99319">
        <ele>180</ele>
        <time>2023-01-29T01:43:24.351Z</time>
      </trkpt>
      <trkpt lat="48.88661" lon="1.99308">
        <ele>180</ele>
        <time>2023-01-29T01:43:29.006Z</time>
      </trkpt>
      <trkpt lat="48.88657" lon="1.99299">
        <ele>180</ele>
        <time>2023-01-29T01:43:32.589Z</time>
      </trkpt>
      <trkpt lat="48.88653" lon="1.99291">
        <ele>181</ele>
        <time>2023-01-29T01:43:37.531Z</time>
      </trkpt>
      <trkpt lat="48.8865" lon="1.99283">
        <ele>182</ele>
        <time>2023-01-29T01:43:42.005Z</time>
      </trkpt>
      <trkpt lat="48.88645" lon="1.99276">
        <ele>182</ele>
        <time>2023-01-29T01:43:46.540Z</time>
      </trkpt>
      <trkpt lat="48.88639" lon="1.99264">
        <ele>182</ele>
        <time>2023-01-29T01:43:51.017Z</time>
      </trkpt>
      <trkpt lat="48.88635" lon="1.99255">
        <ele>182</ele>
        <time>2023-01-29T01:43:55.022Z</time>
      </trkpt>
      <trkpt lat="48.88629" lon="1.99243">
        <ele>182</ele>
        <time>2023-01-29T01:43:59.561Z</time>
      </trkpt>
      <trkpt lat="48.88623" lon="1.99233">
        <ele>182</ele>
        <time>2023-01-29T01:44:04.099Z</time>
      </trkpt>
      <trkpt lat="48.88617" lon="1.99227">
        <ele>182</ele>
        <time>2023-01-29T01:44:08.682Z</time>
      </trkpt>
      <trkpt lat="48.88613" lon="1.9922">
        <ele>182</ele>
        <time>2023-01-29T01:44:12.820Z</time>
      </trkpt>
      <trkpt lat="48.88608" lon="1.99213">
        <ele>182</ele>
        <time>2023-01-29T01:44:17.598Z</time>
      </trkpt>
      <trkpt lat="48.88604" lon="1.99207">
        <ele>182</ele>
        <time>2023-01-29T01:44:22.143Z</time>
      </trkpt>
      <trkpt lat="48.886" lon="1.99199">
        <ele>182</ele>
        <time>2023-01-29T01:44:26.201Z</time>
      </trkpt>
      <trkpt lat="48.88594" lon="1.99189">
        <ele>182</ele>
        <time>2023-01-29T01:44:30.741Z</time>
      </trkpt>
      <trkpt lat="48.88591" lon="1.9918">
        <ele>182</ele>
        <time>2023-01-29T01:44:34.804Z</time>
      </trkpt>
      <trkpt lat="48.88588" lon="1.99169">
        <ele>182</ele>
        <time>2023-01-29T01:44:39.344Z</time>
      </trkpt>
      <trkpt lat="48.88585" lon="1.9916">
        <ele>182</ele>
        <time>2023-01-29T01:44:43.407Z</time>
      </trkpt>
      <trkpt lat="48.8858" lon="1.99151">
        <ele>182</ele>
        <time>2023-01-29T01:44:47.924Z</time>
      </trkpt>
      <trkpt lat="48.88577" lon="1.99142">
        <ele>182</ele>
        <time>2023-01-29T01:44:51.836Z</time>
      </trkpt>
      <trkpt lat="48.88573" lon="1.99131">
        <ele>182</ele>
        <time>2023-01-29T01:44:56.400Z</time>
      </trkpt>
      <trkpt lat="48.88567" lon="1.99124">
        <ele>180</ele>
        <time>2023-01-29T01:45:00.399Z</time>
      </trkpt>
      <trkpt lat="48.88563" lon="1.99115">
        <ele>180</ele>
        <time>2023-01-29T01:45:04.938Z</time>
      </trkpt>
      <trkpt lat="48.8856" lon="1.99102">
        <ele>180</ele>
        <time>2023-01-29T01:45:09.120Z</time>
      </trkpt>
      <trkpt lat="48.88555" lon="1.99091">
        <ele>179</ele>
        <time>2023-01-29T01:45:13.781Z</time>
      </trkpt>
      <trkpt lat="48.88552" lon="1.99079">
        <ele>179</ele>
        <time>2023-01-29T01:45:18.322Z</time>
      </trkpt>
      <trkpt lat="48.88546" lon="1.99071">
        <ele>179</ele>
        <time>2023-01-29T01:45:22.965Z</time>
      </trkpt>
      <trkpt lat="48.88541" lon="1.99061">
        <ele>176</ele>
        <time>2023-01-29T01:45:27.021Z</time>
      </trkpt>
      <trkpt lat="48.88533" lon="1.99051">
        <ele>176</ele>
        <time>2023-01-29T01:45:31.466Z</time>
      </trkpt>
      <trkpt lat="48.88527" lon="1.99044">
        <ele>176</ele>
        <time>2023-01-29T01:45:36.005Z</time>
      </trkpt>
      <trkpt lat="48.8852" lon="1.99042">
        <ele>175</ele>
        <time>2023-01-29T01:45:40.501Z</time>
      </trkpt>
      <trkpt lat="48.88514" lon="1.99042">
        <ele>175</ele>
        <time>2023-01-29T01:45:45.011Z</time>
      </trkpt>
      <trkpt lat="48.88508" lon="1.99042">
        <ele>177</ele>
        <time>2023-01-29T01:45:49.143Z</time>
      </trkpt>
      <trkpt lat="48.88501" lon="1.9904">
        <ele>178</ele>
        <time>2023-01-29T01:45:53.803Z</time>
      </trkpt>
      <trkpt lat="48.88495" lon="1.99035">
        <ele>178</ele>
        <time>2023-01-29T01:45:58.342Z</time>
      </trkpt>
      <trkpt lat="48.88488" lon="1.99031">
        <ele>178</ele>
        <time>2023-01-29T01:46:02.983Z</time>
      </trkpt>
      <trkpt lat="48.88482" lon="1.99029">
        <ele>178</ele>
        <time>2023-01-29T01:46:07.524Z</time>
      </trkpt>
      <trkpt lat="48.88476" lon="1.99026">
        <ele>178</ele>
        <time>2023-01-29T01:46:11.590Z</time>
      </trkpt>
      <trkpt lat="48.88471" lon="1.99021">
        <ele>178</ele>
        <time>2023-01-29T01:46:16.145Z</time>
      </trkpt>
      <trkpt lat="48.88466" lon="1.99015">
        <ele>178</ele>
        <time>2023-01-29T01:46:20.672Z</time>
      </trkpt>
      <trkpt lat="48.88461" lon="1.9901">
        <ele>177</ele>
        <time>2023-01-29T01:46:25.211Z</time>
      </trkpt>
      <trkpt lat="48.88455" lon="1.99004">
        <ele>176</ele>
        <time>2023-01-29T01:46:29.991Z</time>
      </trkpt>
      <trkpt lat="48.88449" lon="1.98997">
        <ele>176</ele>
        <time>2023-01-29T01:46:33.934Z</time>
      </trkpt>
      <trkpt lat="48.88442" lon="1.98988">
        <ele>176</ele>
        <time>2023-01-29T01:46:38.596Z</time>
      </trkpt>
      <trkpt lat="48.88437" lon="1.98983">
        <ele>175</ele>
        <time>2023-01-29T01:46:42.759Z</time>
      </trkpt>
      <trkpt lat="48.88432" lon="1.98977">
        <ele>175</ele>
        <time>2023-01-29T01:46:46.821Z</time>
      </trkpt>
      <trkpt lat="48.88427" lon="1.98971">
        <ele>175</ele>
        <time>2023-01-29T01:46:51.362Z</time>
      </trkpt>
      <trkpt lat="48.88421" lon="1.98964">
        <ele>175</ele>
        <time>2023-01-29T01:46:56.020Z</time>
      </trkpt>
      <trkpt lat="48.88415" lon="1.98958">
        <ele>175</ele>
        <time>2023-01-29T01:47:00.027Z</time>
      </trkpt>
      <trkpt lat="48.8841" lon="1.98953">
        <ele>175</ele>
        <time>2023-01-29T01:47:04.006Z</time>
      </trkpt>
      <trkpt lat="48.88405" lon="1.98948">
        <ele>175</ele>
        <time>2023-01-29T01:47:08.184Z</time>
      </trkpt>
      <trkpt lat="48.88398" lon="1.98939">
        <ele>178</ele>
        <time>2023-01-29T01:47:12.591Z</time>
      </trkpt>
      <trkpt lat="48.88392" lon="1.98931">
        <ele>178</ele>
        <time>2023-01-29T01:47:16.535Z</time>
      </trkpt>
      <trkpt lat="48.88388" lon="1.98926">
        <ele>177</ele>
        <time>2023-01-29T01:47:21.021Z</time>
      </trkpt>
      <trkpt lat="48.88384" lon="1.98913">
        <ele>177</ele>
        <time>2023-01-29T01:47:25.617Z</time>
      </trkpt>
      <trkpt lat="48.88381" lon="1.98902">
        <ele>177</ele>
        <time>2023-01-29T01:47:30.279Z</time>
      </trkpt>
      <trkpt lat="48.88378" lon="1.98893">
        <ele>177</ele>
        <time>2023-01-29T01:47:34.819Z</time>
      </trkpt>
      <trkpt lat="48.88375" lon="1.98884">
        <ele>177</ele>
        <time>2023-01-29T01:47:38.762Z</time>
      </trkpt>
      <trkpt lat="48.88373" lon="1.98877">
        <ele>176</ele>
        <time>2023-01-29T01:47:42.944Z</time>
      </trkpt>
      <trkpt lat="48.88372" lon="1.9887">
        <ele>177</ele>
        <time>2023-01-29T01:47:47.006Z</time>
      </trkpt>
      <trkpt lat="48.88371" lon="1.98863">
        <ele>177</ele>
        <time>2023-01-29T01:47:51.023Z</time>
      </trkpt>
      <trkpt lat="48.8837" lon="1.98853">
        <ele>177</ele>
        <time>2023-01-29T01:47:56.028Z</time>
      </trkpt>
      <trkpt lat="48.88367" lon="1.98842">
        <ele>177</ele>
        <time>2023-01-29T01:48:00.603Z</time>
      </trkpt>
      <trkpt lat="48.88365" lon="1.98834">
        <ele>177</ele>
        <time>2023-01-29T01:48:04.526Z</time>
      </trkpt>
      <trkpt lat="48.88363" lon="1.98824">
        <ele>177</ele>
        <time>2023-01-29T01:48:09.524Z</time>
      </trkpt>
      <trkpt lat="48.88362" lon="1.98815">
        <ele>177</ele>
        <time>2023-01-29T01:48:13.944Z</time>
      </trkpt>
      <trkpt lat="48.88361" lon="1.98802">
        <ele>177</ele>
        <time>2023-01-29T01:48:18.484Z</time>
      </trkpt>
      <trkpt lat="48.88359" lon="1.98791">
        <ele>178</ele>
        <time>2023-01-29T01:48:23.023Z</time>
      </trkpt>
      <trkpt lat="48.88356" lon="1.98778">
        <ele>178</ele>
        <time>2023-01-29T01:48:27.561Z</time>
      </trkpt>
      <trkpt lat="48.88355" lon="1.98766">
        <ele>178</ele>
        <time>2023-01-29T01:48:32.004Z</time>
      </trkpt>
      <trkpt lat="48.88353" lon="1.98755">
        <ele>178</ele>
        <time>2023-01-29T01:48:36.159Z</time>
      </trkpt>
      <trkpt lat="48.88351" lon="1.98746">
        <ele>178</ele>
        <time>2023-01-29T01:48:40.803Z</time>
      </trkpt>
      <trkpt lat="48.88349" lon="1.98735">
        <ele>179</ele>
        <time>2023-01-29T01:48:45.337Z</time>
      </trkpt>
      <trkpt lat="48.88347" lon="1.98726">
        <ele>179</ele>
        <time>2023-01-29T01:48:49.993Z</time>
      </trkpt>
      <trkpt lat="48.88346" lon="1.98718">
        <ele>179</ele>
        <time>2023-01-29T01:48:54.022Z</time>
      </trkpt>
      <trkpt lat="48.88344" lon="1.98708">
        <ele>181</ele>
        <time>2023-01-29T01:48:58.471Z</time>
      </trkpt>
      <trkpt lat="48.88342" lon="1.98699">
        <ele>181</ele>
        <time>2023-01-29T01:49:02.836Z</time>
      </trkpt>
      <trkpt lat="48.88341" lon="1.98691">
        <ele>181</ele>
        <time>2023-01-29T01:49:07.446Z</time>
      </trkpt>
      <trkpt lat="48.88341" lon="1.98684">
        <ele>181</ele>
        <time>2023-01-29T01:49:11.373Z</time>
      </trkpt>
      <trkpt lat="48.88339" lon="1.98675">
        <ele>181</ele>
        <time>2023-01-29T01:49:16.153Z</time>
      </trkpt>
      <trkpt lat="48.88337" lon="1.98665">
        <ele>181</ele>
        <time>2023-01-29T01:49:20.216Z</time>
      </trkpt>
      <trkpt lat="48.88335" lon="1.98656">
        <ele>181</ele>
        <time>2023-01-29T01:49:24.836Z</time>
      </trkpt>
      <trkpt lat="48.88335" lon="1.98647">
        <ele>181</ele>
        <time>2023-01-29T01:49:29.534Z</time>
      </trkpt>
      <trkpt lat="48.88334" lon="1.98637">
        <ele>181</ele>
        <time>2023-01-29T01:49:33.716Z</time>
      </trkpt>
      <trkpt lat="48.88333" lon="1.98626">
        <ele>181</ele>
        <time>2023-01-29T01:49:37.641Z</time>
      </trkpt>
      <trkpt lat="48.88333" lon="1.98618">
        <ele>182</ele>
        <time>2023-01-29T01:49:42.181Z</time>
      </trkpt>
      <trkpt lat="48.88332" lon="1.98609">
        <ele>182</ele>
        <time>2023-01-29T01:49:46.836Z</time>
      </trkpt>
      <trkpt lat="48.8833" lon="1.98602">
        <ele>182</ele>
        <time>2023-01-29T01:49:51.263Z</time>
      </trkpt>
      <trkpt lat="48.88327" lon="1.9859">
        <ele>181</ele>
        <time>2023-01-29T01:49:55.773Z</time>
      </trkpt>
      <trkpt lat="48.88324" lon="1.98583">
        <ele>181</ele>
        <time>2023-01-29T01:50:00.357Z</time>
      </trkpt>
      <trkpt lat="48.88323" lon="1.9857">
        <ele>181</ele>
        <time>2023-01-29T01:50:04.871Z</time>
      </trkpt>
      <trkpt lat="48.88322" lon="1.98557">
        <ele>179</ele>
        <time>2023-01-29T01:50:08.969Z</time>
      </trkpt>
      <trkpt lat="48.88321" lon="1.98546">
        <ele>179</ele>
        <time>2023-01-29T01:50:12.768Z</time>
      </trkpt>
      <trkpt lat="48.88319" lon="1.98531">
        <ele>175</ele>
        <time>2023-01-29T01:50:16.706Z</time>
      </trkpt>
      <trkpt lat="48.88315" lon="1.98515">
        <ele>175</ele>
        <time>2023-01-29T01:50:21.258Z</time>
      </trkpt>
      <trkpt lat="48.8831" lon="1.98506">
        <ele>174</ele>
        <time>2023-01-29T01:50:25.807Z</time>
      </trkpt>
      <trkpt lat="48.88304" lon="1.98499">
        <ele>174</ele>
        <time>2023-01-29T01:50:30.308Z</time>
      </trkpt>
      <trkpt lat="48.88301" lon="1.9849">
        <ele>174</ele>
        <time>2023-01-29T01:50:34.704Z</time>
      </trkpt>
      <trkpt lat="48.88301" lon="1.98479">
        <ele>174</ele>
        <time>2023-01-29T01:50:38.730Z</time>
      </trkpt>
      <trkpt lat="48.88302" lon="1.9847">
        <ele>174</ele>
        <time>2023-01-29T01:50:43.168Z</time>
      </trkpt>
      <trkpt lat="48.88304" lon="1.98461">
        <ele>174</ele>
        <time>2023-01-29T01:50:47.285Z</time>
      </trkpt>
      <trkpt lat="48.88307" lon="1.98452">
        <ele>175</ele>
        <time>2023-01-29T01:50:51.408Z</time>
      </trkpt>
      <trkpt lat="48.88311" lon="1.98443">
        <ele>175</ele>
        <time>2023-01-29T01:50:55.714Z</time>
      </trkpt>
      <trkpt lat="48.88314" lon="1.98435">
        <ele>175</ele>
        <time>2023-01-29T01:51:00.137Z</time>
      </trkpt>
      <trkpt lat="48.88317" lon="1.98427">
        <ele>177</ele>
        <time>2023-01-29T01:51:04.083Z</time>
      </trkpt>
      <trkpt lat="48.8832" lon="1.98417">
        <ele>175</ele>
        <time>2023-01-29T01:51:08.747Z</time>
      </trkpt>
      <trkpt lat="48.88323" lon="1.98406">
        <ele>175</ele>
        <time>2023-01-29T01:51:13.914Z</time>
      </trkpt>
      <trkpt lat="48.88326" lon="1.98396">
        <ele>176</ele>
        <time>2023-01-29T01:51:17.836Z</time>
      </trkpt>
      <trkpt lat="48.88329" lon="1.98386">
        <ele>176</ele>
        <time>2023-01-29T01:51:22.381Z</time>
      </trkpt>
      <trkpt lat="48.88331" lon="1.98378">
        <ele>176</ele>
        <time>2023-01-29T01:51:26.329Z</time>
      </trkpt>
      <trkpt lat="48.88334" lon="1.98368">
        <ele>177</ele>
        <time>2023-01-29T01:51:31.008Z</time>
      </trkpt>
      <trkpt lat="48.88339" lon="1.98355">
        <ele>177</ele>
        <time>2023-01-29T01:51:35.539Z</time>
      </trkpt>
      <trkpt lat="48.88342" lon="1.98344">
        <ele>177</ele>
        <time>2023-01-29T01:51:39.725Z</time>
      </trkpt>
      <trkpt lat="48.88344" lon="1.98333">
        <ele>177</ele>
        <time>2023-01-29T01:51:44.147Z</time>
      </trkpt>
      <trkpt lat="48.88346" lon="1.98323">
        <ele>177</ele>
        <time>2023-01-29T01:51:48.211Z</time>
      </trkpt>
      <trkpt lat="48.88349" lon="1.98314">
        <ele>177</ele>
        <time>2023-01-29T01:51:52.155Z</time>
      </trkpt>
      <trkpt lat="48.88351" lon="1.98306">
        <ele>177</ele>
        <time>2023-01-29T01:51:56.219Z</time>
      </trkpt>
      <trkpt lat="48.88353" lon="1.98297">
        <ele>177</ele>
        <time>2023-01-29T01:52:00.265Z</time>
      </trkpt>
      <trkpt lat="48.88356" lon="1.98288">
        <ele>177</ele>
        <time>2023-01-29T01:52:04.742Z</time>
      </trkpt>
      <trkpt lat="48.88359" lon="1.98279">
        <ele>177</ele>
        <time>2023-01-29T01:52:08.633Z</time>
      </trkpt>
      <trkpt lat="48.88362" lon="1.9827">
        <ele>177</ele>
        <time>2023-01-29T01:52:12.697Z</time>
      </trkpt>
      <trkpt lat="48.88368" lon="1.98266">
        <ele>177</ele>
        <time>2023-01-29T01:52:17.241Z</time>
      </trkpt>
      <trkpt lat="48.88376" lon="1.98268">
        <ele>176</ele>
        <time>2023-01-29T01:52:21.405Z</time>
      </trkpt>
      <trkpt lat="48.88381" lon="1.98272">
        <ele>176</ele>
        <time>2023-01-29T01:52:25.349Z</time>
      </trkpt>
      <trkpt lat="48.88387" lon="1.98278">
        <ele>176</ele>
        <time>2023-01-29T01:52:29.891Z</time>
      </trkpt>
      <trkpt lat="48.88393" lon="1.98281">
        <ele>176</ele>
        <time>2023-01-29T01:52:34.385Z</time>
      </trkpt>
      <trkpt lat="48.884" lon="1.98281">
        <ele>176</ele>
        <time>2023-01-29T01:52:38.376Z</time>
      </trkpt>
      <trkpt lat="48.88406" lon="1.98279">
        <ele>175</ele>
        <time>2023-01-29T01:52:42.440Z</time>
      </trkpt>
      <trkpt lat="48.88414" lon="1.98279">
        <ele>175</ele>
        <time>2023-01-29T01:52:46.836Z</time>
      </trkpt>
      <trkpt lat="48.8842" lon="1.98277">
        <ele>175</ele>
        <time>2023-01-29T01:52:50.836Z</time>
      </trkpt>
      <trkpt lat="48.88427" lon="1.98271">
        <ele>175</ele>
        <time>2023-01-29T01:52:55.225Z</time>
      </trkpt>
      <trkpt lat="48.88432" lon="1.98263">
        <ele>173</ele>
        <time>2023-01-29T01:52:59.270Z</time>
      </trkpt>
      <trkpt lat="48.88435" lon="1.98254">
        <ele>173</ele>
        <time>2023-01-29T01:53:03.214Z</time>
      </trkpt>
      <trkpt lat="48.88439" lon="1.98244">
        <ele>173</ele>
        <time>2023-01-29T01:53:07.836Z</time>
      </trkpt>
      <trkpt lat="48.88445" lon="1.98236">
        <ele>173</ele>
        <time>2023-01-29T01:53:12.385Z</time>
      </trkpt>
      <trkpt lat="48.88451" lon="1.98232">
        <ele>174</ele>
        <time>2023-01-29T01:53:16.343Z</time>
      </trkpt>
      <trkpt lat="48.88457" lon="1.9823">
        <ele>174</ele>
        <time>2023-01-29T01:53:20.407Z</time>
      </trkpt>
      <trkpt lat="48.88464" lon="1.98232">
        <ele>173</ele>
        <time>2023-01-29T01:53:24.471Z</time>
      </trkpt>
      <trkpt lat="48.8847" lon="1.98237">
        <ele>172</ele>
        <time>2023-01-29T01:53:29.014Z</time>
      </trkpt>
      <trkpt lat="48.88475" lon="1.98245">
        <ele>172</ele>
        <time>2023-01-29T01:53:33.559Z</time>
      </trkpt>
      <trkpt lat="48.88479" lon="1.98254">
        <ele>172</ele>
        <time>2023-01-29T01:53:37.739Z</time>
      </trkpt>
      <trkpt lat="48.88482" lon="1.98263">
        <ele>172</ele>
        <time>2023-01-29T01:53:41.802Z</time>
      </trkpt>
      <trkpt lat="48.88486" lon="1.98272">
        <ele>172</ele>
        <time>2023-01-29T01:53:46.462Z</time>
      </trkpt>
      <trkpt lat="48.88489" lon="1.98281">
        <ele>171</ele>
        <time>2023-01-29T01:53:50.906Z</time>
      </trkpt>
      <trkpt lat="48.88493" lon="1.9829">
        <ele>171</ele>
        <time>2023-01-29T01:53:54.943Z</time>
      </trkpt>
      <trkpt lat="48.88495" lon="1.98299">
        <ele>172</ele>
        <time>2023-01-29T01:53:58.836Z</time>
      </trkpt>
      <trkpt lat="48.88501" lon="1.98306">
        <ele>172</ele>
        <time>2023-01-29T01:54:03.405Z</time>
      </trkpt>
      <trkpt lat="48.88506" lon="1.98314">
        <ele>172</ele>
        <time>2023-01-29T01:54:08.010Z</time>
      </trkpt>
      <trkpt lat="48.8851" lon="1.98322">
        <ele>173</ele>
        <time>2023-01-29T01:54:12.007Z</time>
      </trkpt>
      <trkpt lat="48.88516" lon="1.98331">
        <ele>173</ele>
        <time>2023-01-29T01:54:16.547Z</time>
      </trkpt>
      <trkpt lat="48.88523" lon="1.98338">
        <ele>173</ele>
        <time>2023-01-29T01:54:20.472Z</time>
      </trkpt>
      <trkpt lat="48.8853" lon="1.98342">
        <ele>173</ele>
        <time>2023-01-29T01:54:25.131Z</time>
      </trkpt>
      <trkpt lat="48.88537" lon="1.98344">
        <ele>173</ele>
        <time>2023-01-29T01:54:29.554Z</time>
      </trkpt>
      <trkpt lat="48.88545" lon="1.98344">
        <ele>173</ele>
        <time>2023-01-29T01:54:33.616Z</time>
      </trkpt>
      <trkpt lat="48.88552" lon="1.98342">
        <ele>173</ele>
        <time>2023-01-29T01:54:38.168Z</time>
      </trkpt>
      <trkpt lat="48.8856" lon="1.98339">
        <ele>173</ele>
        <time>2023-01-29T01:54:42.336Z</time>
      </trkpt>
      <trkpt lat="48.88567" lon="1.98334">
        <ele>173</ele>
        <time>2023-01-29T01:54:46.741Z</time>
      </trkpt>
      <trkpt lat="48.88573" lon="1.98328">
        <ele>171</ele>
        <time>2023-01-29T01:54:50.816Z</time>
      </trkpt>
      <trkpt lat="48.88578" lon="1.9832">
        <ele>171</ele>
        <time>2023-01-29T01:54:54.996Z</time>
      </trkpt>
      <trkpt lat="48.88584" lon="1.9831">
        <ele>172</ele>
        <time>2023-01-29T01:54:59.517Z</time>
      </trkpt>
      <trkpt lat="48.88588" lon="1.983">
        <ele>172</ele>
        <time>2023-01-29T01:55:04.027Z</time>
      </trkpt>
      <trkpt lat="48.88591" lon="1.98291">
        <ele>172</ele>
        <time>2023-01-29T01:55:07.997Z</time>
      </trkpt>
      <trkpt lat="48.88594" lon="1.98281">
        <ele>172</ele>
        <time>2023-01-29T01:55:12.535Z</time>
      </trkpt>
      <trkpt lat="48.88597" lon="1.98271">
        <ele>172</ele>
        <time>2023-01-29T01:55:16.477Z</time>
      </trkpt>
      <trkpt lat="48.886" lon="1.98262">
        <ele>171</ele>
        <time>2023-01-29T01:55:20.418Z</time>
      </trkpt>
      <trkpt lat="48.88603" lon="1.98252">
        <ele>171</ele>
        <time>2023-01-29T01:55:24.479Z</time>
      </trkpt>
      <trkpt lat="48.88606" lon="1.98243">
        <ele>171</ele>
        <time>2023-01-29T01:55:29.020Z</time>
      </trkpt>
      <trkpt lat="48.8861" lon="1.98234">
        <ele>171</ele>
        <time>2023-01-29T01:55:32.963Z</time>
      </trkpt>
      <trkpt lat="48.88613" lon="1.98224">
        <ele>171</ele>
        <time>2023-01-29T01:55:37.504Z</time>
      </trkpt>
      <trkpt lat="48.88616" lon="1.98215">
        <ele>171</ele>
        <time>2023-01-29T01:55:41.836Z</time>
      </trkpt>
      <trkpt lat="48.88619" lon="1.98206">
        <ele>171</ele>
        <time>2023-01-29T01:55:45.986Z</time>
      </trkpt>
      <trkpt lat="48.88622" lon="1.98196">
        <ele>171</ele>
        <time>2023-01-29T01:55:50.406Z</time>
      </trkpt>
      <trkpt lat="48.88625" lon="1.98186">
        <ele>171</ele>
        <time>2023-01-29T01:55:54.468Z</time>
      </trkpt>
      <trkpt lat="48.88627" lon="1.98177">
        <ele>171</ele>
        <time>2023-01-29T01:55:58.988Z</time>
      </trkpt>
      <trkpt lat="48.88631" lon="1.98166">
        <ele>171</ele>
        <time>2023-01-29T01:56:03.528Z</time>
      </trkpt>
      <trkpt lat="48.88634" lon="1.98156">
        <ele>171</ele>
        <time>2023-01-29T01:56:08.190Z</time>
      </trkpt>
      <trkpt lat="48.88638" lon="1.98147">
        <ele>171</ele>
        <time>2023-01-29T01:56:12.704Z</time>
      </trkpt>
      <trkpt lat="48.88641" lon="1.98138">
        <ele>171</ele>
        <time>2023-01-29T01:56:16.791Z</time>
      </trkpt>
      <trkpt lat="48.88644" lon="1.98127">
        <ele>171</ele>
        <time>2023-01-29T01:56:21.332Z</time>
      </trkpt>
      <trkpt lat="48.88647" lon="1.98118">
        <ele>172</ele>
        <time>2023-01-29T01:56:25.752Z</time>
      </trkpt>
      <trkpt lat="48.8865" lon="1.98108">
        <ele>172</ele>
        <time>2023-01-29T01:56:29.935Z</time>
      </trkpt>
      <trkpt lat="48.88654" lon="1.98097">
        <ele>171</ele>
        <time>2023-01-29T01:56:34.594Z</time>
      </trkpt>
      <trkpt lat="48.88657" lon="1.98089">
        <ele>172</ele>
        <time>2023-01-29T01:56:38.775Z</time>
      </trkpt>
      <trkpt lat="48.8866" lon="1.98079">
        <ele>172</ele>
        <time>2023-01-29T01:56:43.315Z</time>
      </trkpt>
      <trkpt lat="48.88663" lon="1.98071">
        <ele>172</ele>
        <time>2023-01-29T01:56:47.377Z</time>
      </trkpt>
      <trkpt lat="48.88666" lon="1.98061">
        <ele>172</ele>
        <time>2023-01-29T01:56:51.437Z</time>
      </trkpt>
      <trkpt lat="48.88669" lon="1.98052">
        <ele>172</ele>
        <time>2023-01-29T01:56:55.978Z</time>
      </trkpt>
      <trkpt lat="48.88672" lon="1.98044">
        <ele>172</ele>
        <time>2023-01-29T01:57:00.020Z</time>
      </trkpt>
      <trkpt lat="48.88676" lon="1.98036">
        <ele>172</ele>
        <time>2023-01-29T01:57:04.186Z</time>
      </trkpt>
      <trkpt lat="48.88678" lon="1.98027">
        <ele>172</ele>
        <time>2023-01-29T01:57:08.369Z</time>
      </trkpt>
      <trkpt lat="48.88681" lon="1.98018">
        <ele>172</ele>
        <time>2023-01-29T01:57:12.432Z</time>
      </trkpt>
      <trkpt lat="48.88684" lon="1.98009">
        <ele>172</ele>
        <time>2023-01-29T01:57:16.906Z</time>
      </trkpt>
      <trkpt lat="48.88687" lon="1.98">
        <ele>172</ele>
        <time>2023-01-29T01:57:20.796Z</time>
      </trkpt>
      <trkpt lat="48.8869" lon="1.97989">
        <ele>172</ele>
        <time>2023-01-29T01:57:25.454Z</time>
      </trkpt>
      <trkpt lat="48.88693" lon="1.9798">
        <ele>172</ele>
        <time>2023-01-29T01:57:29.994Z</time>
      </trkpt>
      <trkpt lat="48.88696" lon="1.97971">
        <ele>172</ele>
        <time>2023-01-29T01:57:34.173Z</time>
      </trkpt>
      <trkpt lat="48.88698" lon="1.97962">
        <ele>172</ele>
        <time>2023-01-29T01:57:38.235Z</time>
      </trkpt>
      <trkpt lat="48.88701" lon="1.97952">
        <ele>172</ele>
        <time>2023-01-29T01:57:42.889Z</time>
      </trkpt>
      <trkpt lat="48.88704" lon="1.97943">
        <ele>172</ele>
        <time>2023-01-29T01:57:46.836Z</time>
      </trkpt>
      <trkpt lat="48.88708" lon="1.97933">
        <ele>172</ele>
        <time>2023-01-29T01:57:51.498Z</time>
      </trkpt>
      <trkpt lat="48.88711" lon="1.97925">
        <ele>171</ele>
        <time>2023-01-29T01:57:56.036Z</time>
      </trkpt>
      <trkpt lat="48.88715" lon="1.97914">
        <ele>171</ele>
        <time>2023-01-29T01:58:00.454Z</time>
      </trkpt>
      <trkpt lat="48.88719" lon="1.97905">
        <ele>171</ele>
        <time>2023-01-29T01:58:04.993Z</time>
      </trkpt>
      <trkpt lat="48.88721" lon="1.97897">
        <ele>171</ele>
        <time>2023-01-29T01:58:08.935Z</time>
      </trkpt>
      <trkpt lat="48.88725" lon="1.97887">
        <ele>171</ele>
        <time>2023-01-29T01:58:13.472Z</time>
      </trkpt>
      <trkpt lat="48.88729" lon="1.97878">
        <ele>171</ele>
        <time>2023-01-29T01:58:18.130Z</time>
      </trkpt>
      <trkpt lat="48.88732" lon="1.97869">
        <ele>171</ele>
        <time>2023-01-29T01:58:22.762Z</time>
      </trkpt>
      <trkpt lat="48.88734" lon="1.97859">
        <ele>171</ele>
        <time>2023-01-29T01:58:26.608Z</time>
      </trkpt>
      <trkpt lat="48.88738" lon="1.97851">
        <ele>171</ele>
        <time>2023-01-29T01:58:31.145Z</time>
      </trkpt>
      <trkpt lat="48.88741" lon="1.9784">
        <ele>172</ele>
        <time>2023-01-29T01:58:35.562Z</time>
      </trkpt>
      <trkpt lat="48.88744" lon="1.97831">
        <ele>172</ele>
        <time>2023-01-29T01:58:40.045Z</time>
      </trkpt>
      <trkpt lat="48.88747" lon="1.97822">
        <ele>172</ele>
        <time>2023-01-29T01:58:44.161Z</time>
      </trkpt>
      <trkpt lat="48.8875" lon="1.97812">
        <ele>173</ele>
        <time>2023-01-29T01:58:48.581Z</time>
      </trkpt>
      <trkpt lat="48.88753" lon="1.97803">
        <ele>173</ele>
        <time>2023-01-29T01:58:52.743Z</time>
      </trkpt>
      <trkpt lat="48.88756" lon="1.97793">
        <ele>173</ele>
        <time>2023-01-29T01:58:57.364Z</time>
      </trkpt>
      <trkpt lat="48.88758" lon="1.97785">
        <ele>173</ele>
        <time>2023-01-29T01:59:01.221Z</time>
      </trkpt>
      <trkpt lat="48.88761" lon="1.97775">
        <ele>173</ele>
        <time>2023-01-29T01:59:05.757Z</time>
      </trkpt>
      <trkpt lat="48.88765" lon="1.97765">
        <ele>172</ele>
        <time>2023-01-29T01:59:09.699Z</time>
      </trkpt>
      <trkpt lat="48.88768" lon="1.97755">
        <ele>172</ele>
        <time>2023-01-29T01:59:14.117Z</time>
      </trkpt>
      <trkpt lat="48.88771" lon="1.97746">
        <ele>172</ele>
        <time>2023-01-29T01:59:18.177Z</time>
      </trkpt>
      <trkpt lat="48.88774" lon="1.97737">
        <ele>172</ele>
        <time>2023-01-29T01:59:22.596Z</time>
      </trkpt>
      <trkpt lat="48.88777" lon="1.97728">
        <ele>172</ele>
        <time>2023-01-29T01:59:26.775Z</time>
      </trkpt>
      <trkpt lat="48.88781" lon="1.97718">
        <ele>172</ele>
        <time>2023-01-29T01:59:31.208Z</time>
      </trkpt>
      <trkpt lat="48.88784" lon="1.97709">
        <ele>172</ele>
        <time>2023-01-29T01:59:35.374Z</time>
      </trkpt>
      <trkpt lat="48.88787" lon="1.97699">
        <ele>172</ele>
        <time>2023-01-29T01:59:39.836Z</time>
      </trkpt>
      <trkpt lat="48.8879" lon="1.97691">
        <ele>172</ele>
        <time>2023-01-29T01:59:43.972Z</time>
      </trkpt>
      <trkpt lat="48.88793" lon="1.97682">
        <ele>171</ele>
        <time>2023-01-29T01:59:48.152Z</time>
      </trkpt>
      <trkpt lat="48.88796" lon="1.97672">
        <ele>171</ele>
        <time>2023-01-29T01:59:52.570Z</time>
      </trkpt>
      <trkpt lat="48.88799" lon="1.97663">
        <ele>171</ele>
        <time>2023-01-29T01:59:56.730Z</time>
      </trkpt>
      <trkpt lat="48.88802" lon="1.97654">
        <ele>171</ele>
        <time>2023-01-29T02:00:01.267Z</time>
      </trkpt>
      <trkpt lat="48.88805" lon="1.97646">
        <ele>171</ele>
        <time>2023-01-29T02:00:05.206Z</time>
      </trkpt>
      <trkpt lat="48.88809" lon="1.97636">
        <ele>171</ele>
        <time>2023-01-29T02:00:09.745Z</time>
      </trkpt>
      <trkpt lat="48.88813" lon="1.97627">
        <ele>171</ele>
        <time>2023-01-29T02:00:13.680Z</time>
      </trkpt>
      <trkpt lat="48.88817" lon="1.97617">
        <ele>172</ele>
        <time>2023-01-29T02:00:18.215Z</time>
      </trkpt>
      <trkpt lat="48.8882" lon="1.97607">
        <ele>172</ele>
        <time>2023-01-29T02:00:22.726Z</time>
      </trkpt>
      <trkpt lat="48.88824" lon="1.97597">
        <ele>172</ele>
        <time>2023-01-29T02:00:26.811Z</time>
      </trkpt>
      <trkpt lat="48.88826" lon="1.97588">
        <ele>173</ele>
        <time>2023-01-29T02:00:30.750Z</time>
      </trkpt>
      <trkpt lat="48.88829" lon="1.97579">
        <ele>173</ele>
        <time>2023-01-29T02:00:34.836Z</time>
      </trkpt>
      <trkpt lat="48.88833" lon="1.97569">
        <ele>173</ele>
        <time>2023-01-29T02:00:39.345Z</time>
      </trkpt>
      <trkpt lat="48.88836" lon="1.9756">
        <ele>173</ele>
        <time>2023-01-29T02:00:44.005Z</time>
      </trkpt>
      <trkpt lat="48.88838" lon="1.97551">
        <ele>173</ele>
        <time>2023-01-29T02:00:48.158Z</time>
      </trkpt>
      <trkpt lat="48.88842" lon="1.97543">
        <ele>173</ele>
        <time>2023-01-29T02:00:52.216Z</time>
      </trkpt>
      <trkpt lat="48.88845" lon="1.97534">
        <ele>173</ele>
        <time>2023-01-29T02:00:56.154Z</time>
      </trkpt>
      <trkpt lat="48.88849" lon="1.97525">
        <ele>173</ele>
        <time>2023-01-29T02:01:00.691Z</time>
      </trkpt>
      <trkpt lat="48.88852" lon="1.97515">
        <ele>173</ele>
        <time>2023-01-29T02:01:05.348Z</time>
      </trkpt>
      <trkpt lat="48.88856" lon="1.97505">
        <ele>172</ele>
        <time>2023-01-29T02:01:09.908Z</time>
      </trkpt>
      <trkpt lat="48.88859" lon="1.97495">
        <ele>172</ele>
        <time>2023-01-29T02:01:13.803Z</time>
      </trkpt>
      <trkpt lat="48.88862" lon="1.97483">
        <ele>172</ele>
        <time>2023-01-29T02:01:18.440Z</time>
      </trkpt>
      <trkpt lat="48.88865" lon="1.97473">
        <ele>172</ele>
        <time>2023-01-29T02:01:22.836Z</time>
      </trkpt>
      <trkpt lat="48.88868" lon="1.97464">
        <ele>172</ele>
        <time>2023-01-29T02:01:26.836Z</time>
      </trkpt>
      <trkpt lat="48.8887" lon="1.97454">
        <ele>172</ele>
        <time>2023-01-29T02:01:31.367Z</time>
      </trkpt>
      <trkpt lat="48.88872" lon="1.97444">
        <ele>172</ele>
        <time>2023-01-29T02:01:35.393Z</time>
      </trkpt>
      <trkpt lat="48.88876" lon="1.97433">
        <ele>172</ele>
        <time>2023-01-29T02:01:39.930Z</time>
      </trkpt>
      <trkpt lat="48.88879" lon="1.97423">
        <ele>172</ele>
        <time>2023-01-29T02:01:44.582Z</time>
      </trkpt>
      <trkpt lat="48.88881" lon="1.97414">
        <ele>172</ele>
        <time>2023-01-29T02:01:48.529Z</time>
      </trkpt>
      <trkpt lat="48.88884" lon="1.97404">
        <ele>172</ele>
        <time>2023-01-29T02:01:53.067Z</time>
      </trkpt>
      <trkpt lat="48.88887" lon="1.97394">
        <ele>171</ele>
        <time>2023-01-29T02:01:57.705Z</time>
      </trkpt>
      <trkpt lat="48.88891" lon="1.97386">
        <ele>171</ele>
        <time>2023-01-29T02:02:01.764Z</time>
      </trkpt>
      <trkpt lat="48.88894" lon="1.97376">
        <ele>171</ele>
        <time>2023-01-29T02:02:06.181Z</time>
      </trkpt>
      <trkpt lat="48.88897" lon="1.97367">
        <ele>171</ele>
        <time>2023-01-29T02:02:10.358Z</time>
      </trkpt>
      <trkpt lat="48.889" lon="1.97358">
        <ele>171</ele>
        <time>2023-01-29T02:02:14.297Z</time>
      </trkpt>
      <trkpt lat="48.88904" lon="1.97349">
        <ele>172</ele>
        <time>2023-01-29T02:02:18.835Z</time>
      </trkpt>
      <trkpt lat="48.88906" lon="1.97341">
        <ele>172</ele>
        <time>2023-01-29T02:02:22.655Z</time>
      </trkpt>
      <trkpt lat="48.88909" lon="1.97331">
        <ele>172</ele>
        <time>2023-01-29T02:02:27.309Z</time>
      </trkpt>
      <trkpt lat="48.88913" lon="1.97321">
        <ele>172</ele>
        <time>2023-01-29T02:02:31.229Z</time>
      </trkpt>
      <trkpt lat="48.88916" lon="1.97312">
        <ele>171</ele>
        <time>2023-01-29T02:02:35.765Z</time>
      </trkpt>
      <trkpt lat="48.8892" lon="1.97303">
        <ele>171</ele>
        <time>2023-01-29T02:02:39.796Z</time>
      </trkpt>
      <trkpt lat="48.88924" lon="1.97293">
        <ele>171</ele>
        <time>2023-01-29T02:02:44.452Z</time>
      </trkpt>
      <trkpt lat="48.88927" lon="1.97283">
        <ele>172</ele>
        <time>2023-01-29T02:02:48.630Z</time>
      </trkpt>
      <trkpt lat="48.8893" lon="1.97273">
        <ele>172</ele>
        <time>2023-01-29T02:02:53.287Z</time>
      </trkpt>
      <trkpt lat="48.88932" lon="1.97262">
        <ele>172</ele>
        <time>2023-01-29T02:02:57.824Z</time>
      </trkpt>
      <trkpt lat="48.88936" lon="1.97252">
        <ele>172</ele>
        <time>2023-01-29T02:03:02.241Z</time>
      </trkpt>
      <trkpt lat="48.8894" lon="1.97242">
        <ele>172</ele>
        <time>2023-01-29T02:03:06.896Z</time>
      </trkpt>
      <trkpt lat="48.88943" lon="1.97233">
        <ele>172</ele>
        <time>2023-01-29T02:03:10.836Z</time>
      </trkpt>
      <trkpt lat="48.88946" lon="1.97223">
        <ele>172</ele>
        <time>2023-01-29T02:03:15.310Z</time>
      </trkpt>
      <trkpt lat="48.88949" lon="1.97214">
        <ele>172</ele>
        <time>2023-01-29T02:03:19.294Z</time>
      </trkpt>
      <trkpt lat="48.88952" lon="1.97205">
        <ele>172</ele>
        <time>2023-01-29T02:03:23.688Z</time>
      </trkpt>
      <trkpt lat="48.88955" lon="1.97195">
        <ele>172</ele>
        <time>2023-01-29T02:03:27.535Z</time>
      </trkpt>
      <trkpt lat="48.88959" lon="1.97185">
        <ele>171</ele>
        <time>2023-01-29T02:03:32.192Z</time>
      </trkpt>
      <trkpt lat="48.88963" lon="1.97175">
        <ele>171</ele>
        <time>2023-01-29T02:03:36.730Z</time>
      </trkpt>
      <trkpt lat="48.88965" lon="1.97166">
        <ele>171</ele>
        <time>2023-01-29T02:03:40.789Z</time>
      </trkpt>
      <trkpt lat="48.88969" lon="1.97156">
        <ele>171</ele>
        <time>2023-01-29T02:03:44.836Z</time>
      </trkpt>
      <trkpt lat="48.88972" lon="1.97147">
        <ele>171</ele>
        <time>2023-01-29T02:03:48.836Z</time>
      </trkpt>
      <trkpt lat="48.88976" lon="1.97137">
        <ele>171</ele>
        <time>2023-01-29T02:03:53.329Z</time>
      </trkpt>
      <trkpt lat="48.88979" lon="1.97127">
        <ele>171</ele>
        <time>2023-01-29T02:03:57.150Z</time>
      </trkpt>
      <trkpt lat="48.88982" lon="1.97118">
        <ele>171</ele>
        <time>2023-01-29T02:04:01.764Z</time>
      </trkpt>
      <trkpt lat="48.88986" lon="1.97109">
        <ele>171</ele>
        <time>2023-01-29T02:04:05.750Z</time>
      </trkpt>
      <trkpt lat="48.88989" lon="1.97098">
        <ele>172</ele>
        <time>2023-01-29T02:04:10.124Z</time>
      </trkpt>
      <trkpt lat="48.88992" lon="1.97089">
        <ele>173</ele>
        <time>2023-01-29T02:04:14.234Z</time>
      </trkpt>
      <trkpt lat="48.88995" lon="1.9708">
        <ele>173</ele>
        <time>2023-01-29T02:04:18.176Z</time>
      </trkpt>
      <trkpt lat="48.88998" lon="1.9707">
        <ele>173</ele>
        <time>2023-01-29T02:04:22.713Z</time>
      </trkpt>
      <trkpt lat="48.89001" lon="1.9706">
        <ele>173</ele>
        <time>2023-01-29T02:04:26.774Z</time>
      </trkpt>
      <trkpt lat="48.89004" lon="1.97051">
        <ele>173</ele>
        <time>2023-01-29T02:04:30.955Z</time>
      </trkpt>
      <trkpt lat="48.89007" lon="1.97039">
        <ele>173</ele>
        <time>2023-01-29T02:04:35.491Z</time>
      </trkpt>
      <trkpt lat="48.8901" lon="1.97029">
        <ele>173</ele>
        <time>2023-01-29T02:04:40.004Z</time>
      </trkpt>
      <trkpt lat="48.89013" lon="1.9702">
        <ele>173</ele>
        <time>2023-01-29T02:04:43.968Z</time>
      </trkpt>
      <trkpt lat="48.89016" lon="1.97009">
        <ele>173</ele>
        <time>2023-01-29T02:04:48.625Z</time>
      </trkpt>
      <trkpt lat="48.89018" lon="1.97">
        <ele>173</ele>
        <time>2023-01-29T02:04:52.684Z</time>
      </trkpt>
      <trkpt lat="48.89021" lon="1.96991">
        <ele>173</ele>
        <time>2023-01-29T02:04:56.742Z</time>
      </trkpt>
      <trkpt lat="48.89026" lon="1.96981">
        <ele>173</ele>
        <time>2023-01-29T02:05:01.280Z</time>
      </trkpt>
      <trkpt lat="48.89029" lon="1.96971">
        <ele>173</ele>
        <time>2023-01-29T02:05:05.895Z</time>
      </trkpt>
      <trkpt lat="48.89032" lon="1.96963">
        <ele>173</ele>
        <time>2023-01-29T02:05:09.836Z</time>
      </trkpt>
      <trkpt lat="48.89035" lon="1.96954">
        <ele>173</ele>
        <time>2023-01-29T02:05:13.819Z</time>
      </trkpt>
      <trkpt lat="48.89039" lon="1.96944">
        <ele>173</ele>
        <time>2023-01-29T02:05:18.356Z</time>
      </trkpt>
      <trkpt lat="48.89042" lon="1.96935">
        <ele>173</ele>
        <time>2023-01-29T02:05:23.014Z</time>
      </trkpt>
      <trkpt lat="48.89046" lon="1.96925">
        <ele>173</ele>
        <time>2023-01-29T02:05:27.432Z</time>
      </trkpt>
      <trkpt lat="48.89049" lon="1.96917">
        <ele>173</ele>
        <time>2023-01-29T02:05:31.937Z</time>
      </trkpt>
      <trkpt lat="48.89053" lon="1.96907">
        <ele>173</ele>
        <time>2023-01-29T02:05:35.791Z</time>
      </trkpt>
      <trkpt lat="48.89056" lon="1.96897">
        <ele>173</ele>
        <time>2023-01-29T02:05:40.449Z</time>
      </trkpt>
      <trkpt lat="48.8906" lon="1.96887">
        <ele>173</ele>
        <time>2023-01-29T02:05:44.918Z</time>
      </trkpt>
      <trkpt lat="48.89063" lon="1.96878">
        <ele>173</ele>
        <time>2023-01-29T02:05:48.836Z</time>
      </trkpt>
      <trkpt lat="48.89066" lon="1.96869">
        <ele>174</ele>
        <time>2023-01-29T02:05:52.632Z</time>
      </trkpt>
      <trkpt lat="48.89069" lon="1.96859">
        <ele>174</ele>
        <time>2023-01-29T02:05:57.110Z</time>
      </trkpt>
      <trkpt lat="48.89073" lon="1.9685">
        <ele>175</ele>
        <time>2023-01-29T02:06:01.112Z</time>
      </trkpt>
      <trkpt lat="48.89077" lon="1.9684">
        <ele>175</ele>
        <time>2023-01-29T02:06:05.533Z</time>
      </trkpt>
      <trkpt lat="48.89079" lon="1.96831">
        <ele>175</ele>
        <time>2023-01-29T02:06:09.599Z</time>
      </trkpt>
      <trkpt lat="48.89081" lon="1.96821">
        <ele>175</ele>
        <time>2023-01-29T02:06:14.065Z</time>
      </trkpt>
      <trkpt lat="48.89085" lon="1.9681">
        <ele>174</ele>
        <time>2023-01-29T02:06:18.560Z</time>
      </trkpt>
      <trkpt lat="48.89088" lon="1.968">
        <ele>174</ele>
        <time>2023-01-29T02:06:22.501Z</time>
      </trkpt>
      <trkpt lat="48.89092" lon="1.9679">
        <ele>174</ele>
        <time>2023-01-29T02:06:27.042Z</time>
      </trkpt>
      <trkpt lat="48.89096" lon="1.96779">
        <ele>174</ele>
        <time>2023-01-29T02:06:31.576Z</time>
      </trkpt>
      <trkpt lat="48.89099" lon="1.96768">
        <ele>174</ele>
        <time>2023-01-29T02:06:36.233Z</time>
      </trkpt>
      <trkpt lat="48.89103" lon="1.96758">
        <ele>174</ele>
        <time>2023-01-29T02:06:40.532Z</time>
      </trkpt>
      <trkpt lat="48.89106" lon="1.9675">
        <ele>174</ele>
        <time>2023-01-29T02:06:45.182Z</time>
      </trkpt>
      <trkpt lat="48.89109" lon="1.96742">
        <ele>174</ele>
        <time>2023-01-29T02:06:49.369Z</time>
      </trkpt>
      <trkpt lat="48.89112" lon="1.96734">
        <ele>175</ele>
        <time>2023-01-29T02:06:54.008Z</time>
      </trkpt>
      <trkpt lat="48.89116" lon="1.96726">
        <ele>175</ele>
        <time>2023-01-29T02:06:58.575Z</time>
      </trkpt>
      <trkpt lat="48.89123" lon="1.96712">
        <ele>175</ele>
        <time>2023-01-29T02:07:02.643Z</time>
      </trkpt>
      <trkpt lat="48.89124" lon="1.96702">
        <ele>175</ele>
        <time>2023-01-29T02:07:07.309Z</time>
      </trkpt>
      <trkpt lat="48.89126" lon="1.96692">
        <ele>175</ele>
        <time>2023-01-29T02:07:11.373Z</time>
      </trkpt>
      <trkpt lat="48.8913" lon="1.9668">
        <ele>174</ele>
        <time>2023-01-29T02:07:15.819Z</time>
      </trkpt>
      <trkpt lat="48.89133" lon="1.96671">
        <ele>174</ele>
        <time>2023-01-29T02:07:19.925Z</time>
      </trkpt>
      <trkpt lat="48.89135" lon="1.96663">
        <ele>174</ele>
        <time>2023-01-29T02:07:23.945Z</time>
      </trkpt>
      <trkpt lat="48.89137" lon="1.96653">
        <ele>174</ele>
        <time>2023-01-29T02:07:28.605Z</time>
      </trkpt>
      <trkpt lat="48.89141" lon="1.96644">
        <ele>174</ele>
        <time>2023-01-29T02:07:33.108Z</time>
      </trkpt>
      <trkpt lat="48.89145" lon="1.96634">
        <ele>174</ele>
        <time>2023-01-29T02:07:37.566Z</time>
      </trkpt>
      <trkpt lat="48.89149" lon="1.96623">
        <ele>174</ele>
        <time>2023-01-29T02:07:42.097Z</time>
      </trkpt>
      <trkpt lat="48.89152" lon="1.96613">
        <ele>174</ele>
        <time>2023-01-29T02:07:46.518Z</time>
      </trkpt>
      <trkpt lat="48.89155" lon="1.96603">
        <ele>174</ele>
        <time>2023-01-29T02:07:50.579Z</time>
      </trkpt>
      <trkpt lat="48.89158" lon="1.96594">
        <ele>175</ele>
        <time>2023-01-29T02:07:54.641Z</time>
      </trkpt>
      <trkpt lat="48.89162" lon="1.96585">
        <ele>175</ele>
        <time>2023-01-29T02:07:59.299Z</time>
      </trkpt>
      <trkpt lat="48.89165" lon="1.96577">
        <ele>175</ele>
        <time>2023-01-29T02:08:03.718Z</time>
      </trkpt>
      <trkpt lat="48.89168" lon="1.96569">
        <ele>175</ele>
        <time>2023-01-29T02:08:08.136Z</time>
      </trkpt>
      <trkpt lat="48.8917" lon="1.96561">
        <ele>175</ele>
        <time>2023-01-29T02:08:12.197Z</time>
      </trkpt>
      <trkpt lat="48.89174" lon="1.96551">
        <ele>175</ele>
        <time>2023-01-29T02:08:16.739Z</time>
      </trkpt>
      <trkpt lat="48.89177" lon="1.96542">
        <ele>175</ele>
        <time>2023-01-29T02:08:20.677Z</time>
      </trkpt>
      <trkpt lat="48.89181" lon="1.96532">
        <ele>175</ele>
        <time>2023-01-29T02:08:25.248Z</time>
      </trkpt>
      <trkpt lat="48.89184" lon="1.96523">
        <ele>175</ele>
        <time>2023-01-29T02:08:29.274Z</time>
      </trkpt>
      <trkpt lat="48.89186" lon="1.96512">
        <ele>175</ele>
        <time>2023-01-29T02:08:33.216Z</time>
      </trkpt>
      <trkpt lat="48.89189" lon="1.96503">
        <ele>175</ele>
        <time>2023-01-29T02:08:37.836Z</time>
      </trkpt>
      <trkpt lat="48.89191" lon="1.96494">
        <ele>175</ele>
        <time>2023-01-29T02:08:41.797Z</time>
      </trkpt>
      <trkpt lat="48.89194" lon="1.96485">
        <ele>175</ele>
        <time>2023-01-29T02:08:46.214Z</time>
      </trkpt>
      <trkpt lat="48.89197" lon="1.96475">
        <ele>175</ele>
        <time>2023-01-29T02:08:50.752Z</time>
      </trkpt>
      <trkpt lat="48.892" lon="1.96466">
        <ele>175</ele>
        <time>2023-01-29T02:08:54.836Z</time>
      </trkpt>
      <trkpt lat="48.89203" lon="1.96456">
        <ele>176</ele>
        <time>2023-01-29T02:08:59.351Z</time>
      </trkpt>
      <trkpt lat="48.89206" lon="1.96446">
        <ele>176</ele>
        <time>2023-01-29T02:09:04.008Z</time>
      </trkpt>
      <trkpt lat="48.8921" lon="1.96436">
        <ele>176</ele>
        <time>2023-01-29T02:09:08.187Z</time>
      </trkpt>
      <trkpt lat="48.89214" lon="1.96427">
        <ele>176</ele>
        <time>2023-01-29T02:09:12.913Z</time>
      </trkpt>
      <trkpt lat="48.89217" lon="1.96417">
        <ele>176</ele>
        <time>2023-01-29T02:09:16.836Z</time>
      </trkpt>
      <trkpt lat="48.89222" lon="1.96406">
        <ele>176</ele>
        <time>2023-01-29T02:09:21.563Z</time>
      </trkpt>
      <trkpt lat="48.89225" lon="1.96398">
        <ele>176</ele>
        <time>2023-01-29T02:09:26.202Z</time>
      </trkpt>
      <trkpt lat="48.89228" lon="1.96389">
        <ele>176</ele>
        <time>2023-01-29T02:09:30.278Z</time>
      </trkpt>
      <trkpt lat="48.8923" lon="1.9638">
        <ele>176</ele>
        <time>2023-01-29T02:09:34.816Z</time>
      </trkpt>
      <trkpt lat="48.89233" lon="1.96371">
        <ele>177</ele>
        <time>2023-01-29T02:09:39.354Z</time>
      </trkpt>
      <trkpt lat="48.89236" lon="1.96364">
        <ele>177</ele>
        <time>2023-01-29T02:09:43.295Z</time>
      </trkpt>
      <trkpt lat="48.89239" lon="1.96356">
        <ele>177</ele>
        <time>2023-01-29T02:09:47.834Z</time>
      </trkpt>
      <trkpt lat="48.89242" lon="1.96346">
        <ele>178</ele>
        <time>2023-01-29T02:09:52.014Z</time>
      </trkpt>
      <trkpt lat="48.89245" lon="1.96336">
        <ele>178</ele>
        <time>2023-01-29T02:09:56.486Z</time>
      </trkpt>
      <trkpt lat="48.89248" lon="1.96327">
        <ele>178</ele>
        <time>2023-01-29T02:10:00.373Z</time>
      </trkpt>
      <trkpt lat="48.89251" lon="1.96315">
        <ele>178</ele>
        <time>2023-01-29T02:10:05.149Z</time>
      </trkpt>
      <trkpt lat="48.89254" lon="1.96305">
        <ele>178</ele>
        <time>2023-01-29T02:10:09.761Z</time>
      </trkpt>
      <trkpt lat="48.89257" lon="1.96295">
        <ele>178</ele>
        <time>2023-01-29T02:10:13.628Z</time>
      </trkpt>
      <trkpt lat="48.8926" lon="1.96286">
        <ele>177</ele>
        <time>2023-01-29T02:10:18.165Z</time>
      </trkpt>
      <trkpt lat="48.89263" lon="1.96276">
        <ele>177</ele>
        <time>2023-01-29T02:10:22.107Z</time>
      </trkpt>
      <trkpt lat="48.89265" lon="1.96266">
        <ele>177</ele>
        <time>2023-01-29T02:10:26.769Z</time>
      </trkpt>
      <trkpt lat="48.89269" lon="1.96257">
        <ele>176</ele>
        <time>2023-01-29T02:10:30.942Z</time>
      </trkpt>
      <trkpt lat="48.89272" lon="1.96247">
        <ele>176</ele>
        <time>2023-01-29T02:10:35.124Z</time>
      </trkpt>
      <trkpt lat="48.89275" lon="1.96238">
        <ele>176</ele>
        <time>2023-01-29T02:10:39.522Z</time>
      </trkpt>
      <trkpt lat="48.89278" lon="1.96229">
        <ele>175</ele>
        <time>2023-01-29T02:10:43.611Z</time>
      </trkpt>
      <trkpt lat="48.89281" lon="1.96219">
        <ele>175</ele>
        <time>2023-01-29T02:10:48.034Z</time>
      </trkpt>
      <trkpt lat="48.89285" lon="1.96209">
        <ele>175</ele>
        <time>2023-01-29T02:10:52.575Z</time>
      </trkpt>
      <trkpt lat="48.89289" lon="1.96199">
        <ele>176</ele>
        <time>2023-01-29T02:10:57.234Z</time>
      </trkpt>
      <trkpt lat="48.89293" lon="1.96188">
        <ele>176</ele>
        <time>2023-01-29T02:11:01.686Z</time>
      </trkpt>
      <trkpt lat="48.89295" lon="1.9618">
        <ele>176</ele>
        <time>2023-01-29T02:11:05.713Z</time>
      </trkpt>
      <trkpt lat="48.89298" lon="1.96169">
        <ele>176</ele>
        <time>2023-01-29T02:11:10.251Z</time>
      </trkpt>
      <trkpt lat="48.89301" lon="1.9616">
        <ele>176</ele>
        <time>2023-01-29T02:11:14.922Z</time>
      </trkpt>
      <trkpt lat="48.89304" lon="1.96151">
        <ele>176</ele>
        <time>2023-01-29T02:11:18.832Z</time>
      </trkpt>
      <trkpt lat="48.89308" lon="1.96141">
        <ele>176</ele>
        <time>2023-01-29T02:11:23.490Z</time>
      </trkpt>
      <trkpt lat="48.89311" lon="1.96132">
        <ele>176</ele>
        <time>2023-01-29T02:11:27.998Z</time>
      </trkpt>
      <trkpt lat="48.89314" lon="1.96122">
        <ele>176</ele>
        <time>2023-01-29T02:11:32.449Z</time>
      </trkpt>
      <trkpt lat="48.89317" lon="1.96112">
        <ele>176</ele>
        <time>2023-01-29T02:11:36.989Z</time>
      </trkpt>
      <trkpt lat="48.8932" lon="1.96101">
        <ele>177</ele>
        <time>2023-01-29T02:11:41.529Z</time>
      </trkpt>
      <trkpt lat="48.89322" lon="1.96093">
        <ele>177</ele>
        <time>2023-01-29T02:11:46.038Z</time>
      </trkpt>
      <trkpt lat="48.89326" lon="1.96083">
        <ele>177</ele>
        <time>2023-01-29T02:11:50.589Z</time>
      </trkpt>
      <trkpt lat="48.89329" lon="1.96073">
        <ele>177</ele>
        <time>2023-01-29T02:11:54.530Z</time>
      </trkpt>
      <trkpt lat="48.89333" lon="1.96063">
        <ele>177</ele>
        <time>2023-01-29T02:11:59.189Z</time>
      </trkpt>
      <trkpt lat="48.89335" lon="1.96054">
        <ele>177</ele>
        <time>2023-01-29T02:12:03.741Z</time>
      </trkpt>
      <trkpt lat="48.89338" lon="1.96045">
        <ele>177</ele>
        <time>2023-01-29T02:12:07.668Z</time>
      </trkpt>
      <trkpt lat="48.89341" lon="1.96035">
        <ele>177</ele>
        <time>2023-01-29T02:12:12.326Z</time>
      </trkpt>
      <trkpt lat="48.89345" lon="1.96026">
        <ele>177</ele>
        <time>2023-01-29T02:12:16.744Z</time>
      </trkpt>
      <trkpt lat="48.89348" lon="1.96017">
        <ele>177</ele>
        <time>2023-01-29T02:12:20.836Z</time>
      </trkpt>
      <trkpt lat="48.89352" lon="1.96006">
        <ele>177</ele>
        <time>2023-01-29T02:12:25.341Z</time>
      </trkpt>
      <trkpt lat="48.89355" lon="1.95996">
        <ele>177</ele>
        <time>2023-01-29T02:12:29.903Z</time>
      </trkpt>
      <trkpt lat="48.89358" lon="1.95987">
        <ele>177</ele>
        <time>2023-01-29T02:12:33.939Z</time>
      </trkpt>
      <trkpt lat="48.89361" lon="1.95978">
        <ele>177</ele>
        <time>2023-01-29T02:12:38.025Z</time>
      </trkpt>
      <trkpt lat="48.89365" lon="1.95968">
        <ele>177</ele>
        <time>2023-01-29T02:12:42.540Z</time>
      </trkpt>
      <trkpt lat="48.89368" lon="1.95958">
        <ele>177</ele>
        <time>2023-01-29T02:12:46.597Z</time>
      </trkpt>
      <trkpt lat="48.8937" lon="1.95949">
        <ele>177</ele>
        <time>2023-01-29T02:12:50.657Z</time>
      </trkpt>
      <trkpt lat="48.89374" lon="1.9594">
        <ele>177</ele>
        <time>2023-01-29T02:12:55.121Z</time>
      </trkpt>
      <trkpt lat="48.89377" lon="1.95931">
        <ele>178</ele>
        <time>2023-01-29T02:12:59.138Z</time>
      </trkpt>
      <trkpt lat="48.89381" lon="1.9592">
        <ele>178</ele>
        <time>2023-01-29T02:13:03.557Z</time>
      </trkpt>
      <trkpt lat="48.89384" lon="1.95912">
        <ele>178</ele>
        <time>2023-01-29T02:13:07.618Z</time>
      </trkpt>
      <trkpt lat="48.89388" lon="1.95901">
        <ele>178</ele>
        <time>2023-01-29T02:13:12.274Z</time>
      </trkpt>
      <trkpt lat="48.89391" lon="1.95892">
        <ele>178</ele>
        <time>2023-01-29T02:13:16.828Z</time>
      </trkpt>
      <trkpt lat="48.89394" lon="1.95882">
        <ele>178</ele>
        <time>2023-01-29T02:13:20.836Z</time>
      </trkpt>
      <trkpt lat="48.89398" lon="1.95873">
        <ele>178</ele>
        <time>2023-01-29T02:13:25.351Z</time>
      </trkpt>
      <trkpt lat="48.89401" lon="1.95864">
        <ele>178</ele>
        <time>2023-01-29T02:13:29.214Z</time>
      </trkpt>
      <trkpt lat="48.89405" lon="1.95855">
        <ele>178</ele>
        <time>2023-01-29T02:13:33.752Z</time>
      </trkpt>
      <trkpt lat="48.89407" lon="1.95846">
        <ele>179</ele>
        <time>2023-01-29T02:13:37.813Z</time>
      </trkpt>
      <trkpt lat="48.8941" lon="1.95835">
        <ele>179</ele>
        <time>2023-01-29T02:13:42.470Z</time>
      </trkpt>
      <trkpt lat="48.89414" lon="1.95826">
        <ele>179</ele>
        <time>2023-01-29T02:13:47.023Z</time>
      </trkpt>
      <trkpt lat="48.89416" lon="1.95817">
        <ele>179</ele>
        <time>2023-01-29T02:13:51.185Z</time>
      </trkpt>
      <trkpt lat="48.89419" lon="1.95807">
        <ele>179</ele>
        <time>2023-01-29T02:13:55.603Z</time>
      </trkpt>
      <trkpt lat="48.89421" lon="1.95797">
        <ele>179</ele>
        <time>2023-01-29T02:14:00.140Z</time>
      </trkpt>
      <trkpt lat="48.89425" lon="1.95787">
        <ele>179</ele>
        <time>2023-01-29T02:14:04.083Z</time>
      </trkpt>
      <trkpt lat="48.89429" lon="1.95778">
        <ele>179</ele>
        <time>2023-01-29T02:14:08.621Z</time>
      </trkpt>
      <trkpt lat="48.89432" lon="1.95769">
        <ele>179</ele>
        <time>2023-01-29T02:14:13.085Z</time>
      </trkpt>
      <trkpt lat="48.89435" lon="1.9576">
        <ele>178</ele>
        <time>2023-01-29T02:14:17.222Z</time>
      </trkpt>
      <trkpt lat="48.89438" lon="1.9575">
        <ele>178</ele>
        <time>2023-01-29T02:14:21.643Z</time>
      </trkpt>
      <trkpt lat="48.89442" lon="1.9574">
        <ele>178</ele>
        <time>2023-01-29T02:14:26.420Z</time>
      </trkpt>
      <trkpt lat="48.89444" lon="1.95731">
        <ele>178</ele>
        <time>2023-01-29T02:14:30.601Z</time>
      </trkpt>
      <trkpt lat="48.89447" lon="1.95721">
        <ele>178</ele>
        <time>2023-01-29T02:14:34.785Z</time>
      </trkpt>
      <trkpt lat="48.8945" lon="1.95713">
        <ele>178</ele>
        <time>2023-01-29T02:14:38.972Z</time>
      </trkpt>
      <trkpt lat="48.89454" lon="1.95704">
        <ele>178</ele>
        <time>2023-01-29T02:14:43.035Z</time>
      </trkpt>
      <trkpt lat="48.89456" lon="1.95695">
        <ele>178</ele>
        <time>2023-01-29T02:14:47.110Z</time>
      </trkpt>
      <trkpt lat="48.8946" lon="1.95685">
        <ele>178</ele>
        <time>2023-01-29T02:14:51.060Z</time>
      </trkpt>
      <trkpt lat="48.89463" lon="1.95676">
        <ele>178</ele>
        <time>2023-01-29T02:14:55.606Z</time>
      </trkpt>
      <trkpt lat="48.89466" lon="1.95667">
        <ele>178</ele>
        <time>2023-01-29T02:14:59.552Z</time>
      </trkpt>
      <trkpt lat="48.89468" lon="1.95657">
        <ele>178</ele>
        <time>2023-01-29T02:15:04.149Z</time>
      </trkpt>
      <trkpt lat="48.89472" lon="1.95647">
        <ele>178</ele>
        <time>2023-01-29T02:15:08.636Z</time>
      </trkpt>
      <trkpt lat="48.89476" lon="1.95638">
        <ele>178</ele>
        <time>2023-01-29T02:15:13.140Z</time>
      </trkpt>
      <trkpt lat="48.8948" lon="1.95628">
        <ele>178</ele>
        <time>2023-01-29T02:15:17.717Z</time>
      </trkpt>
      <trkpt lat="48.89483" lon="1.95618">
        <ele>178</ele>
        <time>2023-01-29T02:15:22.079Z</time>
      </trkpt>
      <trkpt lat="48.89485" lon="1.95608">
        <ele>178</ele>
        <time>2023-01-29T02:15:26.197Z</time>
      </trkpt>
      <trkpt lat="48.89488" lon="1.956">
        <ele>178</ele>
        <time>2023-01-29T02:15:30.139Z</time>
      </trkpt>
      <trkpt lat="48.89491" lon="1.9559">
        <ele>178</ele>
        <time>2023-01-29T02:15:34.741Z</time>
      </trkpt>
      <trkpt lat="48.89494" lon="1.95581">
        <ele>178</ele>
        <time>2023-01-29T02:15:38.620Z</time>
      </trkpt>
      <trkpt lat="48.89497" lon="1.95573">
        <ele>178</ele>
        <time>2023-01-29T02:15:42.684Z</time>
      </trkpt>
      <trkpt lat="48.89501" lon="1.95564">
        <ele>177</ele>
        <time>2023-01-29T02:15:47.224Z</time>
      </trkpt>
      <trkpt lat="48.89503" lon="1.95554">
        <ele>177</ele>
        <time>2023-01-29T02:15:51.166Z</time>
      </trkpt>
      <trkpt lat="48.89507" lon="1.95544">
        <ele>177</ele>
        <time>2023-01-29T02:15:55.824Z</time>
      </trkpt>
      <trkpt lat="48.89511" lon="1.95532">
        <ele>177</ele>
        <time>2023-01-29T02:16:00.603Z</time>
      </trkpt>
      <trkpt lat="48.89513" lon="1.95523">
        <ele>177</ele>
        <time>2023-01-29T02:16:05.147Z</time>
      </trkpt>
      <trkpt lat="48.89516" lon="1.95514">
        <ele>178</ele>
        <time>2023-01-29T02:16:09.205Z</time>
      </trkpt>
      <trkpt lat="48.89519" lon="1.95505">
        <ele>179</ele>
        <time>2023-01-29T02:16:13.267Z</time>
      </trkpt>
      <trkpt lat="48.89523" lon="1.95496">
        <ele>179</ele>
        <time>2023-01-29T02:16:17.836Z</time>
      </trkpt>
      <trkpt lat="48.89526" lon="1.95486">
        <ele>179</ele>
        <time>2023-01-29T02:16:22.542Z</time>
      </trkpt>
      <trkpt lat="48.89529" lon="1.95477">
        <ele>179</ele>
        <time>2023-01-29T02:16:26.530Z</time>
      </trkpt>
      <trkpt lat="48.89533" lon="1.95467">
        <ele>179</ele>
        <time>2023-01-29T02:16:30.590Z</time>
      </trkpt>
      <trkpt lat="48.89535" lon="1.95459">
        <ele>179</ele>
        <time>2023-01-29T02:16:35.130Z</time>
      </trkpt>
      <trkpt lat="48.89539" lon="1.95448">
        <ele>179</ele>
        <time>2023-01-29T02:16:39.550Z</time>
      </trkpt>
      <trkpt lat="48.89544" lon="1.95438">
        <ele>179</ele>
        <time>2023-01-29T02:16:44.210Z</time>
      </trkpt>
      <trkpt lat="48.89548" lon="1.95428">
        <ele>178</ele>
        <time>2023-01-29T02:16:48.886Z</time>
      </trkpt>
      <trkpt lat="48.89551" lon="1.9542">
        <ele>178</ele>
        <time>2023-01-29T02:16:52.793Z</time>
      </trkpt>
      <trkpt lat="48.89554" lon="1.9541">
        <ele>178</ele>
        <time>2023-01-29T02:16:56.836Z</time>
      </trkpt>
      <trkpt lat="48.89557" lon="1.95401">
        <ele>178</ele>
        <time>2023-01-29T02:17:01.397Z</time>
      </trkpt>
      <trkpt lat="48.89561" lon="1.95392">
        <ele>178</ele>
        <time>2023-01-29T02:17:05.844Z</time>
      </trkpt>
      <trkpt lat="48.89564" lon="1.95385">
        <ele>178</ele>
        <time>2023-01-29T02:17:10.001Z</time>
      </trkpt>
      <trkpt lat="48.8957" lon="1.95377">
        <ele>177</ele>
        <time>2023-01-29T02:17:14.540Z</time>
      </trkpt>
      <trkpt lat="48.89575" lon="1.95368">
        <ele>177</ele>
        <time>2023-01-29T02:17:19.081Z</time>
      </trkpt>
      <trkpt lat="48.8958" lon="1.95361">
        <ele>177</ele>
        <time>2023-01-29T02:17:23.743Z</time>
      </trkpt>
      <trkpt lat="48.89583" lon="1.95353">
        <ele>177</ele>
        <time>2023-01-29T02:17:27.805Z</time>
      </trkpt>
      <trkpt lat="48.89588" lon="1.95345">
        <ele>177</ele>
        <time>2023-01-29T02:17:31.867Z</time>
      </trkpt>
      <trkpt lat="48.89592" lon="1.95336">
        <ele>177</ele>
        <time>2023-01-29T02:17:36.405Z</time>
      </trkpt>
      <trkpt lat="48.89596" lon="1.95329">
        <ele>177</ele>
        <time>2023-01-29T02:17:40.448Z</time>
      </trkpt>
      <trkpt lat="48.89601" lon="1.9532">
        <ele>178</ele>
        <time>2023-01-29T02:17:44.988Z</time>
      </trkpt>
      <trkpt lat="48.89607" lon="1.95312">
        <ele>178</ele>
        <time>2023-01-29T02:17:49.407Z</time>
      </trkpt>
      <trkpt lat="48.89612" lon="1.95304">
        <ele>178</ele>
        <time>2023-01-29T02:17:53.587Z</time>
      </trkpt>
      <trkpt lat="48.89616" lon="1.95295">
        <ele>178</ele>
        <time>2023-01-29T02:17:58.227Z</time>
      </trkpt>
      <trkpt lat="48.89621" lon="1.95287">
        <ele>179</ele>
        <time>2023-01-29T02:18:02.766Z</time>
      </trkpt>
      <trkpt lat="48.89626" lon="1.95279">
        <ele>179</ele>
        <time>2023-01-29T02:18:06.827Z</time>
      </trkpt>
      <trkpt lat="48.89629" lon="1.9527">
        <ele>179</ele>
        <time>2023-01-29T02:18:11.246Z</time>
      </trkpt>
      <trkpt lat="48.89634" lon="1.95262">
        <ele>179</ele>
        <time>2023-01-29T02:18:15.913Z</time>
      </trkpt>
      <trkpt lat="48.89638" lon="1.95256">
        <ele>179</ele>
        <time>2023-01-29T02:18:19.969Z</time>
      </trkpt>
      <trkpt lat="48.89641" lon="1.95247">
        <ele>179</ele>
        <time>2023-01-29T02:18:24.151Z</time>
      </trkpt>
      <trkpt lat="48.89645" lon="1.95239">
        <ele>179</ele>
        <time>2023-01-29T02:18:28.810Z</time>
      </trkpt>
      <trkpt lat="48.89651" lon="1.95232">
        <ele>179</ele>
        <time>2023-01-29T02:18:32.982Z</time>
      </trkpt>
      <trkpt lat="48.89655" lon="1.95224">
        <ele>179</ele>
        <time>2023-01-29T02:18:37.170Z</time>
      </trkpt>
      <trkpt lat="48.8966" lon="1.95216">
        <ele>179</ele>
        <time>2023-01-29T02:18:41.828Z</time>
      </trkpt>
      <trkpt lat="48.89665" lon="1.95207">
        <ele>179</ele>
        <time>2023-01-29T02:18:45.763Z</time>
      </trkpt>
      <trkpt lat="48.8967" lon="1.95196">
        <ele>179</ele>
        <time>2023-01-29T02:18:50.504Z</time>
      </trkpt>
      <trkpt lat="48.89673" lon="1.95188">
        <ele>179</ele>
        <time>2023-01-29T02:18:55.124Z</time>
      </trkpt>
      <trkpt lat="48.89678" lon="1.95179">
        <ele>179</ele>
        <time>2023-01-29T02:18:59.555Z</time>
      </trkpt>
      <trkpt lat="48.89682" lon="1.95172">
        <ele>179</ele>
        <time>2023-01-29T02:19:03.751Z</time>
      </trkpt>
      <trkpt lat="48.89686" lon="1.95165">
        <ele>179</ele>
        <time>2023-01-29T02:19:08.325Z</time>
      </trkpt>
      <trkpt lat="48.89691" lon="1.95156">
        <ele>179</ele>
        <time>2023-01-29T02:19:12.342Z</time>
      </trkpt>
      <trkpt lat="48.89696" lon="1.95148">
        <ele>179</ele>
        <time>2023-01-29T02:19:16.990Z</time>
      </trkpt>
      <trkpt lat="48.897" lon="1.95139">
        <ele>179</ele>
        <time>2023-01-29T02:19:21.567Z</time>
      </trkpt>
      <trkpt lat="48.89704" lon="1.95131">
        <ele>179</ele>
        <time>2023-01-29T02:19:26.119Z</time>
      </trkpt>
      <trkpt lat="48.89708" lon="1.95125">
        <ele>179</ele>
        <time>2023-01-29T02:19:30.790Z</time>
      </trkpt>
      <trkpt lat="48.89713" lon="1.95116">
        <ele>179</ele>
        <time>2023-01-29T02:19:35.363Z</time>
      </trkpt>
      <trkpt lat="48.89717" lon="1.95108">
        <ele>179</ele>
        <time>2023-01-29T02:19:39.436Z</time>
      </trkpt>
      <trkpt lat="48.8972" lon="1.951">
        <ele>179</ele>
        <time>2023-01-29T02:19:43.987Z</time>
      </trkpt>
      <trkpt lat="48.89723" lon="1.95093">
        <ele>179</ele>
        <time>2023-01-29T02:19:47.997Z</time>
      </trkpt>
      <trkpt lat="48.89729" lon="1.95085">
        <ele>179</ele>
        <time>2023-01-29T02:19:52.492Z</time>
      </trkpt>
      <trkpt lat="48.89733" lon="1.95076">
        <ele>179</ele>
        <time>2023-01-29T02:19:57.042Z</time>
      </trkpt>
      <trkpt lat="48.89738" lon="1.95068">
        <ele>178</ele>
        <time>2023-01-29T02:20:01.113Z</time>
      </trkpt>
      <trkpt lat="48.89742" lon="1.9506">
        <ele>178</ele>
        <time>2023-01-29T02:20:05.626Z</time>
      </trkpt>
      <trkpt lat="48.89746" lon="1.95052">
        <ele>178</ele>
        <time>2023-01-29T02:20:09.734Z</time>
      </trkpt>
      <trkpt lat="48.89751" lon="1.95044">
        <ele>178</ele>
        <time>2023-01-29T02:20:14.385Z</time>
      </trkpt>
      <trkpt lat="48.89756" lon="1.95035">
        <ele>178</ele>
        <time>2023-01-29T02:20:18.990Z</time>
      </trkpt>
      <trkpt lat="48.8976" lon="1.95026">
        <ele>178</ele>
        <time>2023-01-29T02:20:23.487Z</time>
      </trkpt>
      <trkpt lat="48.89763" lon="1.95019">
        <ele>178</ele>
        <time>2023-01-29T02:20:27.987Z</time>
      </trkpt>
      <trkpt lat="48.89768" lon="1.95012">
        <ele>177</ele>
        <time>2023-01-29T02:20:31.991Z</time>
      </trkpt>
      <trkpt lat="48.89773" lon="1.95003">
        <ele>177</ele>
        <time>2023-01-29T02:20:36.504Z</time>
      </trkpt>
      <trkpt lat="48.89777" lon="1.94995">
        <ele>177</ele>
        <time>2023-01-29T02:20:41.155Z</time>
      </trkpt>
      <trkpt lat="48.89782" lon="1.94989">
        <ele>177</ele>
        <time>2023-01-29T02:20:45.228Z</time>
      </trkpt>
      <trkpt lat="48.89787" lon="1.9498">
        <ele>177</ele>
        <time>2023-01-29T02:20:49.829Z</time>
      </trkpt>
      <trkpt lat="48.8979" lon="1.94972">
        <ele>177</ele>
        <time>2023-01-29T02:20:53.955Z</time>
      </trkpt>
      <trkpt lat="48.89795" lon="1.94964">
        <ele>177</ele>
        <time>2023-01-29T02:20:58.621Z</time>
      </trkpt>
      <trkpt lat="48.89799" lon="1.94957">
        <ele>177</ele>
        <time>2023-01-29T02:21:03.166Z</time>
      </trkpt>
      <trkpt lat="48.89804" lon="1.94949">
        <ele>177</ele>
        <time>2023-01-29T02:21:07.593Z</time>
      </trkpt>
      <trkpt lat="48.89808" lon="1.94941">
        <ele>177</ele>
        <time>2023-01-29T02:21:12.019Z</time>
      </trkpt>
      <trkpt lat="48.89813" lon="1.94932">
        <ele>177</ele>
        <time>2023-01-29T02:21:16.564Z</time>
      </trkpt>
      <trkpt lat="48.89817" lon="1.94924">
        <ele>178</ele>
        <time>2023-01-29T02:21:20.749Z</time>
      </trkpt>
      <trkpt lat="48.89821" lon="1.94915">
        <ele>177</ele>
        <time>2023-01-29T02:21:25.412Z</time>
      </trkpt>
      <trkpt lat="48.89825" lon="1.94907">
        <ele>177</ele>
        <time>2023-01-29T02:21:29.598Z</time>
      </trkpt>
      <trkpt lat="48.89829" lon="1.94899">
        <ele>177</ele>
        <time>2023-01-29T02:21:34.023Z</time>
      </trkpt>
      <trkpt lat="48.89834" lon="1.94893">
        <ele>177</ele>
        <time>2023-01-29T02:21:37.970Z</time>
      </trkpt>
      <trkpt lat="48.89838" lon="1.94885">
        <ele>177</ele>
        <time>2023-01-29T02:21:42.154Z</time>
      </trkpt>
      <trkpt lat="48.89843" lon="1.94877">
        <ele>177</ele>
        <time>2023-01-29T02:21:46.817Z</time>
      </trkpt>
      <trkpt lat="48.89846" lon="1.9487">
        <ele>177</ele>
        <time>2023-01-29T02:21:51.003Z</time>
      </trkpt>
      <trkpt lat="48.89851" lon="1.94862">
        <ele>176</ele>
        <time>2023-01-29T02:21:55.548Z</time>
      </trkpt>
      <trkpt lat="48.89855" lon="1.94852">
        <ele>176</ele>
        <time>2023-01-29T02:22:00.094Z</time>
      </trkpt>
      <trkpt lat="48.8986" lon="1.94844">
        <ele>176</ele>
        <time>2023-01-29T02:22:04.670Z</time>
      </trkpt>
      <trkpt lat="48.89864" lon="1.94836">
        <ele>176</ele>
        <time>2023-01-29T02:22:08.834Z</time>
      </trkpt>
      <trkpt lat="48.89866" lon="1.94829">
        <ele>176</ele>
        <time>2023-01-29T02:22:12.836Z</time>
      </trkpt>
      <trkpt lat="48.89871" lon="1.9482">
        <ele>176</ele>
        <time>2023-01-29T02:22:17.450Z</time>
      </trkpt>
      <trkpt lat="48.89876" lon="1.94812">
        <ele>176</ele>
        <time>2023-01-29T02:22:22.020Z</time>
      </trkpt>
      <trkpt lat="48.89882" lon="1.94803">
        <ele>176</ele>
        <time>2023-01-29T02:22:26.543Z</time>
      </trkpt>
      <trkpt lat="48.89887" lon="1.94795">
        <ele>176</ele>
        <time>2023-01-29T02:22:31.209Z</time>
      </trkpt>
      <trkpt lat="48.89891" lon="1.94787">
        <ele>176</ele>
        <time>2023-01-29T02:22:35.919Z</time>
      </trkpt>
      <trkpt lat="48.89895" lon="1.94779">
        <ele>176</ele>
        <time>2023-01-29T02:22:39.944Z</time>
      </trkpt>
      <trkpt lat="48.89904" lon="1.94763">
        <ele>178</ele>
        <time>2023-01-29T02:22:48.198Z</time>
      </trkpt>
      <trkpt lat="48.89908" lon="1.94755">
        <ele>178</ele>
        <time>2023-01-29T02:22:52.264Z</time>
      </trkpt>
      <trkpt lat="48.89913" lon="1.94747">
        <ele>178</ele>
        <time>2023-01-29T02:22:56.809Z</time>
      </trkpt>
      <trkpt lat="48.89917" lon="1.94739">
        <ele>178</ele>
        <time>2023-01-29T02:23:01.236Z</time>
      </trkpt>
      <trkpt lat="48.89922" lon="1.9473">
        <ele>177</ele>
        <time>2023-01-29T02:23:05.841Z</time>
      </trkpt>
      <trkpt lat="48.89926" lon="1.94724">
        <ele>177</ele>
        <time>2023-01-29T02:23:09.836Z</time>
      </trkpt>
      <trkpt lat="48.89929" lon="1.94717">
        <ele>177</ele>
        <time>2023-01-29T02:23:13.794Z</time>
      </trkpt>
      <trkpt lat="48.89934" lon="1.94708">
        <ele>176</ele>
        <time>2023-01-29T02:23:18.340Z</time>
      </trkpt>
      <trkpt lat="48.89938" lon="1.947">
        <ele>176</ele>
        <time>2023-01-29T02:23:23.010Z</time>
      </trkpt>
      <trkpt lat="48.89942" lon="1.94692">
        <ele>176</ele>
        <time>2023-01-29T02:23:27.550Z</time>
      </trkpt>
      <trkpt lat="48.89946" lon="1.94684">
        <ele>176</ele>
        <time>2023-01-29T02:23:31.999Z</time>
      </trkpt>
      <trkpt lat="48.89951" lon="1.94677">
        <ele>176</ele>
        <time>2023-01-29T02:23:35.921Z</time>
      </trkpt>
      <trkpt lat="48.89955" lon="1.94669">
        <ele>176</ele>
        <time>2023-01-29T02:23:40.347Z</time>
      </trkpt>
      <trkpt lat="48.89959" lon="1.94662">
        <ele>178</ele>
        <time>2023-01-29T02:23:44.944Z</time>
      </trkpt>
      <trkpt lat="48.89963" lon="1.94655">
        <ele>178</ele>
        <time>2023-01-29T02:23:48.836Z</time>
      </trkpt>
      <trkpt lat="48.89967" lon="1.94649">
        <ele>177</ele>
        <time>2023-01-29T02:23:52.836Z</time>
      </trkpt>
      <trkpt lat="48.89971" lon="1.94639">
        <ele>177</ele>
        <time>2023-01-29T02:23:57.326Z</time>
      </trkpt>
      <trkpt lat="48.89975" lon="1.94632">
        <ele>177</ele>
        <time>2023-01-29T02:24:01.398Z</time>
      </trkpt>
      <trkpt lat="48.8998" lon="1.94624">
        <ele>177</ele>
        <time>2023-01-29T02:24:05.942Z</time>
      </trkpt>
      <trkpt lat="48.89985" lon="1.94615">
        <ele>177</ele>
        <time>2023-01-29T02:24:10.567Z</time>
      </trkpt>
      <trkpt lat="48.89988" lon="1.94607">
        <ele>177</ele>
        <time>2023-01-29T02:24:14.530Z</time>
      </trkpt>
      <trkpt lat="48.89992" lon="1.94599">
        <ele>177</ele>
        <time>2023-01-29T02:24:18.952Z</time>
      </trkpt>
      <trkpt lat="48.89997" lon="1.94592">
        <ele>177</ele>
        <time>2023-01-29T02:24:23.019Z</time>
      </trkpt>
      <trkpt lat="48.90001" lon="1.94583">
        <ele>177</ele>
        <time>2023-01-29T02:24:27.551Z</time>
      </trkpt>
      <trkpt lat="48.90006" lon="1.94576">
        <ele>177</ele>
        <time>2023-01-29T02:24:31.626Z</time>
      </trkpt>
      <trkpt lat="48.9001" lon="1.94568">
        <ele>177</ele>
        <time>2023-01-29T02:24:35.810Z</time>
      </trkpt>
      <trkpt lat="48.90014" lon="1.9456">
        <ele>178</ele>
        <time>2023-01-29T02:24:40.284Z</time>
      </trkpt>
      <trkpt lat="48.90019" lon="1.94553">
        <ele>178</ele>
        <time>2023-01-29T02:24:44.293Z</time>
      </trkpt>
      <trkpt lat="48.90023" lon="1.94544">
        <ele>178</ele>
        <time>2023-01-29T02:24:48.238Z</time>
      </trkpt>
      <trkpt lat="48.90028" lon="1.94536">
        <ele>178</ele>
        <time>2023-01-29T02:24:52.898Z</time>
      </trkpt>
      <trkpt lat="48.90032" lon="1.94529">
        <ele>178</ele>
        <time>2023-01-29T02:24:56.836Z</time>
      </trkpt>
      <trkpt lat="48.90036" lon="1.94521">
        <ele>178</ele>
        <time>2023-01-29T02:25:01.381Z</time>
      </trkpt>
      <trkpt lat="48.9004" lon="1.94513">
        <ele>178</ele>
        <time>2023-01-29T02:25:05.563Z</time>
      </trkpt>
      <trkpt lat="48.90044" lon="1.94506">
        <ele>179</ele>
        <time>2023-01-29T02:25:09.508Z</time>
      </trkpt>
      <trkpt lat="48.90048" lon="1.94498">
        <ele>179</ele>
        <time>2023-01-29T02:25:14.182Z</time>
      </trkpt>
      <trkpt lat="48.90053" lon="1.94491">
        <ele>179</ele>
        <time>2023-01-29T02:25:18.231Z</time>
      </trkpt>
      <trkpt lat="48.90058" lon="1.94482">
        <ele>178</ele>
        <time>2023-01-29T02:25:22.729Z</time>
      </trkpt>
      <trkpt lat="48.90062" lon="1.94475">
        <ele>178</ele>
        <time>2023-01-29T02:25:26.717Z</time>
      </trkpt>
      <trkpt lat="48.90066" lon="1.94467">
        <ele>178</ele>
        <time>2023-01-29T02:25:31.122Z</time>
      </trkpt>
      <trkpt lat="48.9007" lon="1.94459">
        <ele>178</ele>
        <time>2023-01-29T02:25:35.168Z</time>
      </trkpt>
      <trkpt lat="48.90074" lon="1.9445">
        <ele>178</ele>
        <time>2023-01-29T02:25:39.711Z</time>
      </trkpt>
      <trkpt lat="48.90079" lon="1.94442">
        <ele>178</ele>
        <time>2023-01-29T02:25:44.373Z</time>
      </trkpt>
      <trkpt lat="48.90083" lon="1.94434">
        <ele>178</ele>
        <time>2023-01-29T02:25:48.796Z</time>
      </trkpt>
      <trkpt lat="48.90088" lon="1.94427">
        <ele>177</ele>
        <time>2023-01-29T02:25:52.980Z</time>
      </trkpt>
      <trkpt lat="48.90094" lon="1.94418">
        <ele>177</ele>
        <time>2023-01-29T02:25:57.643Z</time>
      </trkpt>
      <trkpt lat="48.90098" lon="1.9441">
        <ele>177</ele>
        <time>2023-01-29T02:26:01.809Z</time>
      </trkpt>
      <trkpt lat="48.90101" lon="1.94402">
        <ele>177</ele>
        <time>2023-01-29T02:26:05.836Z</time>
      </trkpt>
      <trkpt lat="48.90104" lon="1.94394">
        <ele>177</ele>
        <time>2023-01-29T02:26:09.830Z</time>
      </trkpt>
      <trkpt lat="48.90109" lon="1.94386">
        <ele>177</ele>
        <time>2023-01-29T02:26:14.373Z</time>
      </trkpt>
      <trkpt lat="48.90113" lon="1.94377">
        <ele>177</ele>
        <time>2023-01-29T02:26:18.836Z</time>
      </trkpt>
      <trkpt lat="48.90118" lon="1.94369">
        <ele>177</ele>
        <time>2023-01-29T02:26:22.836Z</time>
      </trkpt>
      <trkpt lat="48.90122" lon="1.94361">
        <ele>177</ele>
        <time>2023-01-29T02:26:26.805Z</time>
      </trkpt>
      <trkpt lat="48.90128" lon="1.94352">
        <ele>178</ele>
        <time>2023-01-29T02:26:31.586Z</time>
      </trkpt>
      <trkpt lat="48.90133" lon="1.94344">
        <ele>178</ele>
        <time>2023-01-29T02:26:36.248Z</time>
      </trkpt>
      <trkpt lat="48.90137" lon="1.94336">
        <ele>178</ele>
        <time>2023-01-29T02:26:40.782Z</time>
      </trkpt>
      <trkpt lat="48.90142" lon="1.94329">
        <ele>178</ele>
        <time>2023-01-29T02:26:44.836Z</time>
      </trkpt>
      <trkpt lat="48.90146" lon="1.94321">
        <ele>178</ele>
        <time>2023-01-29T02:26:48.836Z</time>
      </trkpt>
      <trkpt lat="48.90151" lon="1.94313">
        <ele>177</ele>
        <time>2023-01-29T02:26:53.428Z</time>
      </trkpt>
      <trkpt lat="48.90156" lon="1.94306">
        <ele>177</ele>
        <time>2023-01-29T02:26:57.399Z</time>
      </trkpt>
      <trkpt lat="48.90161" lon="1.94297">
        <ele>177</ele>
        <time>2023-01-29T02:27:01.983Z</time>
      </trkpt>
      <trkpt lat="48.90164" lon="1.94289">
        <ele>177</ele>
        <time>2023-01-29T02:27:06.004Z</time>
      </trkpt>
      <trkpt lat="48.90169" lon="1.94281">
        <ele>177</ele>
        <time>2023-01-29T02:27:10.547Z</time>
      </trkpt>
      <trkpt lat="48.90173" lon="1.94273">
        <ele>177</ele>
        <time>2023-01-29T02:27:14.730Z</time>
      </trkpt>
      <trkpt lat="48.90178" lon="1.94265">
        <ele>177</ele>
        <time>2023-01-29T02:27:19.345Z</time>
      </trkpt>
      <trkpt lat="48.90182" lon="1.94257">
        <ele>176</ele>
        <time>2023-01-29T02:27:23.217Z</time>
      </trkpt>
      <trkpt lat="48.90186" lon="1.94248">
        <ele>176</ele>
        <time>2023-01-29T02:27:27.836Z</time>
      </trkpt>
      <trkpt lat="48.90192" lon="1.94239">
        <ele>176</ele>
        <time>2023-01-29T02:27:32.445Z</time>
      </trkpt>
      <trkpt lat="48.90197" lon="1.94231">
        <ele>177</ele>
        <time>2023-01-29T02:27:36.942Z</time>
      </trkpt>
      <trkpt lat="48.90202" lon="1.94221">
        <ele>177</ele>
        <time>2023-01-29T02:27:41.483Z</time>
      </trkpt>
      <trkpt lat="48.90206" lon="1.94213">
        <ele>177</ele>
        <time>2023-01-29T02:27:45.966Z</time>
      </trkpt>
      <trkpt lat="48.90211" lon="1.94205">
        <ele>177</ele>
        <time>2023-01-29T02:27:49.945Z</time>
      </trkpt>
      <trkpt lat="48.90216" lon="1.94195">
        <ele>177</ele>
        <time>2023-01-29T02:27:54.604Z</time>
      </trkpt>
      <trkpt lat="48.9022" lon="1.94186">
        <ele>177</ele>
        <time>2023-01-29T02:27:59.036Z</time>
      </trkpt>
      <trkpt lat="48.90224" lon="1.94177">
        <ele>177</ele>
        <time>2023-01-29T02:28:03.565Z</time>
      </trkpt>
      <trkpt lat="48.90228" lon="1.94168">
        <ele>177</ele>
        <time>2023-01-29T02:28:07.628Z</time>
      </trkpt>
      <trkpt lat="48.90231" lon="1.94157">
        <ele>177</ele>
        <time>2023-01-29T02:28:12.270Z</time>
      </trkpt>
      <trkpt lat="48.90234" lon="1.94148">
        <ele>176</ele>
        <time>2023-01-29T02:28:16.704Z</time>
      </trkpt>
      <trkpt lat="48.90236" lon="1.9414">
        <ele>175</ele>
        <time>2023-01-29T02:28:20.634Z</time>
      </trkpt>
      <trkpt lat="48.9024" lon="1.9413">
        <ele>175</ele>
        <time>2023-01-29T02:28:25.294Z</time>
      </trkpt>
      <trkpt lat="48.90243" lon="1.9412">
        <ele>174</ele>
        <time>2023-01-29T02:28:29.953Z</time>
      </trkpt>
      <trkpt lat="48.90246" lon="1.94109">
        <ele>174</ele>
        <time>2023-01-29T02:28:34.566Z</time>
      </trkpt>
      <trkpt lat="48.90248" lon="1.94099">
        <ele>174</ele>
        <time>2023-01-29T02:28:38.553Z</time>
      </trkpt>
      <trkpt lat="48.90251" lon="1.94089">
        <ele>174</ele>
        <time>2023-01-29T02:28:43.214Z</time>
      </trkpt>
      <trkpt lat="48.90254" lon="1.94079">
        <ele>174</ele>
        <time>2023-01-29T02:28:47.756Z</time>
      </trkpt>
      <trkpt lat="48.90256" lon="1.9407">
        <ele>174</ele>
        <time>2023-01-29T02:28:51.940Z</time>
      </trkpt>
      <trkpt lat="48.90259" lon="1.94061">
        <ele>173</ele>
        <time>2023-01-29T02:28:56.004Z</time>
      </trkpt>
      <trkpt lat="48.90262" lon="1.94051">
        <ele>173</ele>
        <time>2023-01-29T02:29:00.522Z</time>
      </trkpt>
      <trkpt lat="48.90265" lon="1.94042">
        <ele>173</ele>
        <time>2023-01-29T02:29:04.375Z</time>
      </trkpt>
      <trkpt lat="48.90269" lon="1.94031">
        <ele>173</ele>
        <time>2023-01-29T02:29:08.561Z</time>
      </trkpt>
      <trkpt lat="48.90271" lon="1.94023">
        <ele>173</ele>
        <time>2023-01-29T02:29:13.044Z</time>
      </trkpt>
      <trkpt lat="48.90274" lon="1.94013">
        <ele>172</ele>
        <time>2023-01-29T02:29:17.168Z</time>
      </trkpt>
      <trkpt lat="48.90277" lon="1.94003">
        <ele>172</ele>
        <time>2023-01-29T02:29:21.350Z</time>
      </trkpt>
      <trkpt lat="48.9028" lon="1.93992">
        <ele>172</ele>
        <time>2023-01-29T02:29:26.002Z</time>
      </trkpt>
      <trkpt lat="48.90282" lon="1.93983">
        <ele>172</ele>
        <time>2023-01-29T02:29:30.193Z</time>
      </trkpt>
      <trkpt lat="48.90284" lon="1.93974">
        <ele>172</ele>
        <time>2023-01-29T02:29:34.138Z</time>
      </trkpt>
      <trkpt lat="48.90286" lon="1.93965">
        <ele>172</ele>
        <time>2023-01-29T02:29:38.560Z</time>
      </trkpt>
      <trkpt lat="48.9029" lon="1.93956">
        <ele>172</ele>
        <time>2023-01-29T02:29:42.624Z</time>
      </trkpt>
      <trkpt lat="48.90293" lon="1.93946">
        <ele>173</ele>
        <time>2023-01-29T02:29:47.079Z</time>
      </trkpt>
      <trkpt lat="48.90296" lon="1.93935">
        <ele>173</ele>
        <time>2023-01-29T02:29:51.588Z</time>
      </trkpt>
      <trkpt lat="48.90299" lon="1.93925">
        <ele>173</ele>
        <time>2023-01-29T02:29:56.128Z</time>
      </trkpt>
      <trkpt lat="48.90302" lon="1.93915">
        <ele>173</ele>
        <time>2023-01-29T02:30:00.790Z</time>
      </trkpt>
      <trkpt lat="48.90305" lon="1.93905">
        <ele>173</ele>
        <time>2023-01-29T02:30:05.450Z</time>
      </trkpt>
      <trkpt lat="48.90308" lon="1.93894">
        <ele>173</ele>
        <time>2023-01-29T02:30:10.231Z</time>
      </trkpt>
      <trkpt lat="48.90311" lon="1.93883">
        <ele>173</ele>
        <time>2023-01-29T02:30:14.772Z</time>
      </trkpt>
      <trkpt lat="48.90314" lon="1.93874">
        <ele>173</ele>
        <time>2023-01-29T02:30:18.954Z</time>
      </trkpt>
      <trkpt lat="48.90316" lon="1.93865">
        <ele>173</ele>
        <time>2023-01-29T02:30:23.018Z</time>
      </trkpt>
      <trkpt lat="48.90319" lon="1.93854">
        <ele>173</ele>
        <time>2023-01-29T02:30:27.441Z</time>
      </trkpt>
      <trkpt lat="48.90322" lon="1.93844">
        <ele>173</ele>
        <time>2023-01-29T02:30:31.864Z</time>
      </trkpt>
      <trkpt lat="48.90325" lon="1.93835">
        <ele>173</ele>
        <time>2023-01-29T02:30:36.407Z</time>
      </trkpt>
      <trkpt lat="48.90327" lon="1.93825">
        <ele>173</ele>
        <time>2023-01-29T02:30:40.352Z</time>
      </trkpt>
      <trkpt lat="48.9033" lon="1.93814">
        <ele>173</ele>
        <time>2023-01-29T02:30:44.966Z</time>
      </trkpt>
      <trkpt lat="48.90333" lon="1.93805">
        <ele>173</ele>
        <time>2023-01-29T02:30:48.959Z</time>
      </trkpt>
      <trkpt lat="48.90336" lon="1.93797">
        <ele>173</ele>
        <time>2023-01-29T02:30:53.029Z</time>
      </trkpt>
      <trkpt lat="48.90338" lon="1.93789">
        <ele>173</ele>
        <time>2023-01-29T02:30:57.040Z</time>
      </trkpt>
      <trkpt lat="48.90341" lon="1.9378">
        <ele>173</ele>
        <time>2023-01-29T02:31:01.367Z</time>
      </trkpt>
      <trkpt lat="48.90342" lon="1.9377">
        <ele>173</ele>
        <time>2023-01-29T02:31:05.429Z</time>
      </trkpt>
      <trkpt lat="48.90345" lon="1.93762">
        <ele>173</ele>
        <time>2023-01-29T02:31:09.610Z</time>
      </trkpt>
      <trkpt lat="48.90348" lon="1.93752">
        <ele>172</ele>
        <time>2023-01-29T02:31:13.723Z</time>
      </trkpt>
      <trkpt lat="48.9035" lon="1.93743">
        <ele>172</ele>
        <time>2023-01-29T02:31:17.733Z</time>
      </trkpt>
      <trkpt lat="48.90353" lon="1.93734">
        <ele>173</ele>
        <time>2023-01-29T02:31:22.391Z</time>
      </trkpt>
      <trkpt lat="48.90356" lon="1.93726">
        <ele>173</ele>
        <time>2023-01-29T02:31:26.526Z</time>
      </trkpt>
      <trkpt lat="48.90359" lon="1.93716">
        <ele>173</ele>
        <time>2023-01-29T02:31:30.394Z</time>
      </trkpt>
      <trkpt lat="48.90361" lon="1.93708">
        <ele>173</ele>
        <time>2023-01-29T02:31:34.947Z</time>
      </trkpt>
      <trkpt lat="48.90363" lon="1.93701">
        <ele>172</ele>
        <time>2023-01-29T02:31:38.997Z</time>
      </trkpt>
      <trkpt lat="48.90365" lon="1.93693">
        <ele>172</ele>
        <time>2023-01-29T02:31:43.178Z</time>
      </trkpt>
      <trkpt lat="48.90368" lon="1.93683">
        <ele>172</ele>
        <time>2023-01-29T02:31:47.598Z</time>
      </trkpt>
      <trkpt lat="48.90372" lon="1.93673">
        <ele>173</ele>
        <time>2023-01-29T02:31:52.043Z</time>
      </trkpt>
      <trkpt lat="48.90374" lon="1.93664">
        <ele>173</ele>
        <time>2023-01-29T02:31:56.558Z</time>
      </trkpt>
      <trkpt lat="48.90376" lon="1.93655">
        <ele>173</ele>
        <time>2023-01-29T02:32:00.739Z</time>
      </trkpt>
      <trkpt lat="48.9038" lon="1.93646">
        <ele>173</ele>
        <time>2023-01-29T02:32:05.158Z</time>
      </trkpt>
      <trkpt lat="48.90383" lon="1.93636">
        <ele>173</ele>
        <time>2023-01-29T02:32:09.221Z</time>
      </trkpt>
      <trkpt lat="48.90386" lon="1.93627">
        <ele>173</ele>
        <time>2023-01-29T02:32:13.403Z</time>
      </trkpt>
      <trkpt lat="48.90389" lon="1.93616">
        <ele>172</ele>
        <time>2023-01-29T02:32:17.466Z</time>
      </trkpt>
      <trkpt lat="48.90391" lon="1.93607">
        <ele>172</ele>
        <time>2023-01-29T02:32:21.979Z</time>
      </trkpt>
      <trkpt lat="48.90394" lon="1.93598">
        <ele>172</ele>
        <time>2023-01-29T02:32:25.833Z</time>
      </trkpt>
      <trkpt lat="48.90397" lon="1.93588">
        <ele>172</ele>
        <time>2023-01-29T02:32:29.836Z</time>
      </trkpt>
      <trkpt lat="48.90399" lon="1.93576">
        <ele>172</ele>
        <time>2023-01-29T02:32:34.437Z</time>
      </trkpt>
      <trkpt lat="48.90402" lon="1.93566">
        <ele>171</ele>
        <time>2023-01-29T02:32:38.902Z</time>
      </trkpt>
      <trkpt lat="48.90406" lon="1.93555">
        <ele>172</ele>
        <time>2023-01-29T02:32:42.800Z</time>
      </trkpt>
      <trkpt lat="48.90409" lon="1.93543">
        <ele>172</ele>
        <time>2023-01-29T02:32:47.244Z</time>
      </trkpt>
      <trkpt lat="48.90413" lon="1.93533">
        <ele>172</ele>
        <time>2023-01-29T02:32:51.281Z</time>
      </trkpt>
      <trkpt lat="48.90415" lon="1.93522">
        <ele>172</ele>
        <time>2023-01-29T02:32:55.700Z</time>
      </trkpt>
      <trkpt lat="48.90418" lon="1.93512">
        <ele>172</ele>
        <time>2023-01-29T02:33:00.239Z</time>
      </trkpt>
      <trkpt lat="48.90421" lon="1.93501">
        <ele>172</ele>
        <time>2023-01-29T02:33:04.776Z</time>
      </trkpt>
      <trkpt lat="48.90424" lon="1.93492">
        <ele>172</ele>
        <time>2023-01-29T02:33:08.834Z</time>
      </trkpt>
      <trkpt lat="48.90426" lon="1.93483">
        <ele>173</ele>
        <time>2023-01-29T02:33:12.836Z</time>
      </trkpt>
      <trkpt lat="48.90429" lon="1.93474">
        <ele>173</ele>
        <time>2023-01-29T02:33:16.952Z</time>
      </trkpt>
      <trkpt lat="48.90433" lon="1.93465">
        <ele>172</ele>
        <time>2023-01-29T02:33:21.012Z</time>
      </trkpt>
      <trkpt lat="48.90439" lon="1.93455">
        <ele>173</ele>
        <time>2023-01-29T02:33:25.550Z</time>
      </trkpt>
      <trkpt lat="48.90443" lon="1.93448">
        <ele>173</ele>
        <time>2023-01-29T02:33:29.612Z</time>
      </trkpt>
      <trkpt lat="48.90448" lon="1.9344">
        <ele>173</ele>
        <time>2023-01-29T02:33:34.162Z</time>
      </trkpt>
      <trkpt lat="48.90453" lon="1.93432">
        <ele>173</ele>
        <time>2023-01-29T02:33:38.213Z</time>
      </trkpt>
      <trkpt lat="48.90458" lon="1.93423">
        <ele>174</ele>
        <time>2023-01-29T02:33:42.633Z</time>
      </trkpt>
      <trkpt lat="48.90465" lon="1.93416">
        <ele>172</ele>
        <time>2023-01-29T02:33:47.291Z</time>
      </trkpt>
      <trkpt lat="48.90471" lon="1.9341">
        <ele>172</ele>
        <time>2023-01-29T02:33:51.883Z</time>
      </trkpt>
      <trkpt lat="48.90477" lon="1.93405">
        <ele>172</ele>
        <time>2023-01-29T02:33:56.011Z</time>
      </trkpt>
      <trkpt lat="48.90483" lon="1.934">
        <ele>172</ele>
        <time>2023-01-29T02:34:00.053Z</time>
      </trkpt>
      <trkpt lat="48.90488" lon="1.93393">
        <ele>172</ele>
        <time>2023-01-29T02:34:04.234Z</time>
      </trkpt>
      <trkpt lat="48.90494" lon="1.93385">
        <ele>172</ele>
        <time>2023-01-29T02:34:08.773Z</time>
      </trkpt>
      <trkpt lat="48.905" lon="1.9338">
        <ele>172</ele>
        <time>2023-01-29T02:34:13.324Z</time>
      </trkpt>
      <trkpt lat="48.90505" lon="1.93374">
        <ele>172</ele>
        <time>2023-01-29T02:34:17.351Z</time>
      </trkpt>
      <trkpt lat="48.9051" lon="1.93368">
        <ele>172</ele>
        <time>2023-01-29T02:34:21.293Z</time>
      </trkpt>
      <trkpt lat="48.90515" lon="1.93362">
        <ele>173</ele>
        <time>2023-01-29T02:34:25.235Z</time>
      </trkpt>
      <trkpt lat="48.9052" lon="1.93356">
        <ele>173</ele>
        <time>2023-01-29T02:34:29.415Z</time>
      </trkpt>
      <trkpt lat="48.90526" lon="1.93349">
        <ele>173</ele>
        <time>2023-01-29T02:34:33.919Z</time>
      </trkpt>
      <trkpt lat="48.90531" lon="1.93344">
        <ele>173</ele>
        <time>2023-01-29T02:34:38.017Z</time>
      </trkpt>
      <trkpt lat="48.90537" lon="1.93337">
        <ele>173</ele>
        <time>2023-01-29T02:34:42.435Z</time>
      </trkpt>
      <trkpt lat="48.90543" lon="1.93329">
        <ele>173</ele>
        <time>2023-01-29T02:34:47.644Z</time>
      </trkpt>
      <trkpt lat="48.90549" lon="1.93323">
        <ele>173</ele>
        <time>2023-01-29T02:34:51.632Z</time>
      </trkpt>
      <trkpt lat="48.90554" lon="1.93317">
        <ele>173</ele>
        <time>2023-01-29T02:34:55.572Z</time>
      </trkpt>
      <trkpt lat="48.9056" lon="1.9331">
        <ele>173</ele>
        <time>2023-01-29T02:35:00.230Z</time>
      </trkpt>
      <trkpt lat="48.90566" lon="1.93303">
        <ele>173</ele>
        <time>2023-01-29T02:35:04.823Z</time>
      </trkpt>
      <trkpt lat="48.90572" lon="1.93297">
        <ele>174</ele>
        <time>2023-01-29T02:35:08.951Z</time>
      </trkpt>
      <trkpt lat="48.90576" lon="1.93291">
        <ele>174</ele>
        <time>2023-01-29T02:35:12.894Z</time>
      </trkpt>
      <trkpt lat="48.90583" lon="1.93285">
        <ele>174</ele>
        <time>2023-01-29T02:35:17.434Z</time>
      </trkpt>
      <trkpt lat="48.90589" lon="1.93278">
        <ele>174</ele>
        <time>2023-01-29T02:35:21.377Z</time>
      </trkpt>
      <trkpt lat="48.90594" lon="1.93271">
        <ele>174</ele>
        <time>2023-01-29T02:35:25.562Z</time>
      </trkpt>
      <trkpt lat="48.90599" lon="1.93265">
        <ele>175</ele>
        <time>2023-01-29T02:35:29.619Z</time>
      </trkpt>
      <trkpt lat="48.90606" lon="1.93258">
        <ele>176</ele>
        <time>2023-01-29T02:35:34.021Z</time>
      </trkpt>
      <trkpt lat="48.90612" lon="1.93252">
        <ele>176</ele>
        <time>2023-01-29T02:35:38.527Z</time>
      </trkpt>
      <trkpt lat="48.90618" lon="1.93246">
        <ele>176</ele>
        <time>2023-01-29T02:35:42.523Z</time>
      </trkpt>
      <trkpt lat="48.90624" lon="1.93238">
        <ele>176</ele>
        <time>2023-01-29T02:35:46.944Z</time>
      </trkpt>
      <trkpt lat="48.90629" lon="1.93232">
        <ele>176</ele>
        <time>2023-01-29T02:35:50.987Z</time>
      </trkpt>
      <trkpt lat="48.90635" lon="1.93226">
        <ele>176</ele>
        <time>2023-01-29T02:35:55.169Z</time>
      </trkpt>
      <trkpt lat="48.9064" lon="1.9322">
        <ele>176</ele>
        <time>2023-01-29T02:35:59.213Z</time>
      </trkpt>
      <trkpt lat="48.90647" lon="1.93213">
        <ele>176</ele>
        <time>2023-01-29T02:36:03.752Z</time>
      </trkpt>
      <trkpt lat="48.90653" lon="1.93208">
        <ele>176</ele>
        <time>2023-01-29T02:36:07.813Z</time>
      </trkpt>
      <trkpt lat="48.90659" lon="1.93201">
        <ele>176</ele>
        <time>2023-01-29T02:36:12.354Z</time>
      </trkpt>
      <trkpt lat="48.90665" lon="1.93194">
        <ele>176</ele>
        <time>2023-01-29T02:36:17.042Z</time>
      </trkpt>
      <trkpt lat="48.9067" lon="1.93188">
        <ele>176</ele>
        <time>2023-01-29T02:36:21.050Z</time>
      </trkpt>
      <trkpt lat="48.90676" lon="1.93182">
        <ele>176</ele>
        <time>2023-01-29T02:36:25.579Z</time>
      </trkpt>
      <trkpt lat="48.90681" lon="1.93177">
        <ele>178</ele>
        <time>2023-01-29T02:36:29.631Z</time>
      </trkpt>
      <trkpt lat="48.90687" lon="1.9317">
        <ele>178</ele>
        <time>2023-01-29T02:36:33.585Z</time>
      </trkpt>
      <trkpt lat="48.90692" lon="1.93164">
        <ele>178</ele>
        <time>2023-01-29T02:36:37.642Z</time>
      </trkpt>
      <trkpt lat="48.90698" lon="1.93158">
        <ele>178</ele>
        <time>2023-01-29T02:36:42.183Z</time>
      </trkpt>
      <trkpt lat="48.90704" lon="1.93151">
        <ele>179</ele>
        <time>2023-01-29T02:36:46.232Z</time>
      </trkpt>
      <trkpt lat="48.9071" lon="1.93145">
        <ele>178</ele>
        <time>2023-01-29T02:36:50.169Z</time>
      </trkpt>
      <trkpt lat="48.90715" lon="1.93138">
        <ele>178</ele>
        <time>2023-01-29T02:36:54.227Z</time>
      </trkpt>
      <trkpt lat="48.90721" lon="1.93131">
        <ele>178</ele>
        <time>2023-01-29T02:36:58.922Z</time>
      </trkpt>
      <trkpt lat="48.90726" lon="1.93125">
        <ele>178</ele>
        <time>2023-01-29T02:37:02.939Z</time>
      </trkpt>
      <trkpt lat="48.90731" lon="1.9312">
        <ele>178</ele>
        <time>2023-01-29T02:37:06.880Z</time>
      </trkpt>
      <trkpt lat="48.90736" lon="1.93113">
        <ele>178</ele>
        <time>2023-01-29T02:37:11.416Z</time>
      </trkpt>
      <trkpt lat="48.90741" lon="1.93107">
        <ele>179</ele>
        <time>2023-01-29T02:37:15.337Z</time>
      </trkpt>
      <trkpt lat="48.90747" lon="1.931">
        <ele>179</ele>
        <time>2023-01-29T02:37:19.965Z</time>
      </trkpt>
      <trkpt lat="48.90752" lon="1.93095">
        <ele>180</ele>
        <time>2023-01-29T02:37:23.811Z</time>
      </trkpt>
      <trkpt lat="48.90757" lon="1.93088">
        <ele>180</ele>
        <time>2023-01-29T02:37:28.465Z</time>
      </trkpt>
      <trkpt lat="48.90763" lon="1.93082">
        <ele>180</ele>
        <time>2023-01-29T02:37:33.045Z</time>
      </trkpt>
      <trkpt lat="48.90769" lon="1.93076">
        <ele>183</ele>
        <time>2023-01-29T02:37:37.035Z</time>
      </trkpt>
      <trkpt lat="48.90776" lon="1.9307">
        <ele>183</ele>
        <time>2023-01-29T02:37:41.526Z</time>
      </trkpt>
      <trkpt lat="48.90781" lon="1.93064">
        <ele>182</ele>
        <time>2023-01-29T02:37:45.893Z</time>
      </trkpt>
      <trkpt lat="48.90788" lon="1.93058">
        <ele>182</ele>
        <time>2023-01-29T02:37:50.540Z</time>
      </trkpt>
      <trkpt lat="48.90793" lon="1.93051">
        <ele>182</ele>
        <time>2023-01-29T02:37:54.367Z</time>
      </trkpt>
      <trkpt lat="48.90798" lon="1.93045">
        <ele>182</ele>
        <time>2023-01-29T02:37:59.022Z</time>
      </trkpt>
      <trkpt lat="48.90805" lon="1.93039">
        <ele>180</ele>
        <time>2023-01-29T02:38:03.557Z</time>
      </trkpt>
      <trkpt lat="48.90811" lon="1.93033">
        <ele>180</ele>
        <time>2023-01-29T02:38:08.092Z</time>
      </trkpt>
      <trkpt lat="48.90817" lon="1.93026">
        <ele>180</ele>
        <time>2023-01-29T02:38:12.702Z</time>
      </trkpt>
      <trkpt lat="48.90822" lon="1.9302">
        <ele>179</ele>
        <time>2023-01-29T02:38:16.685Z</time>
      </trkpt>
      <trkpt lat="48.90828" lon="1.93013">
        <ele>179</ele>
        <time>2023-01-29T02:38:21.340Z</time>
      </trkpt>
      <trkpt lat="48.90834" lon="1.93006">
        <ele>179</ele>
        <time>2023-01-29T02:38:25.995Z</time>
      </trkpt>
      <trkpt lat="48.90839" lon="1.93001">
        <ele>179</ele>
        <time>2023-01-29T02:38:30.165Z</time>
      </trkpt>
      <trkpt lat="48.90845" lon="1.92994">
        <ele>179</ele>
        <time>2023-01-29T02:38:34.228Z</time>
      </trkpt>
      <trkpt lat="48.90851" lon="1.92988">
        <ele>178</ele>
        <time>2023-01-29T02:38:38.764Z</time>
      </trkpt>
      <trkpt lat="48.90858" lon="1.92981">
        <ele>178</ele>
        <time>2023-01-29T02:38:43.538Z</time>
      </trkpt>
      <trkpt lat="48.90863" lon="1.92976">
        <ele>178</ele>
        <time>2023-01-29T02:38:47.953Z</time>
      </trkpt>
      <trkpt lat="48.90869" lon="1.9297">
        <ele>178</ele>
        <time>2023-01-29T02:38:52.012Z</time>
      </trkpt>
      <trkpt lat="48.90875" lon="1.92964">
        <ele>178</ele>
        <time>2023-01-29T02:38:56.185Z</time>
      </trkpt>
      <trkpt lat="48.9088" lon="1.92957">
        <ele>177</ele>
        <time>2023-01-29T02:39:00.250Z</time>
      </trkpt>
      <trkpt lat="48.90885" lon="1.9295">
        <ele>177</ele>
        <time>2023-01-29T02:39:04.429Z</time>
      </trkpt>
      <trkpt lat="48.9089" lon="1.92944">
        <ele>177</ele>
        <time>2023-01-29T02:39:08.910Z</time>
      </trkpt>
      <trkpt lat="48.90895" lon="1.92938">
        <ele>177</ele>
        <time>2023-01-29T02:39:12.836Z</time>
      </trkpt>
      <trkpt lat="48.90901" lon="1.92931">
        <ele>177</ele>
        <time>2023-01-29T02:39:17.387Z</time>
      </trkpt>
      <trkpt lat="48.90906" lon="1.92925">
        <ele>177</ele>
        <time>2023-01-29T02:39:21.385Z</time>
      </trkpt>
      <trkpt lat="48.90912" lon="1.92919">
        <ele>177</ele>
        <time>2023-01-29T02:39:25.447Z</time>
      </trkpt>
      <trkpt lat="48.90916" lon="1.92913">
        <ele>177</ele>
        <time>2023-01-29T02:39:29.986Z</time>
      </trkpt>
      <trkpt lat="48.90923" lon="1.92906">
        <ele>177</ele>
        <time>2023-01-29T02:39:34.524Z</time>
      </trkpt>
      <trkpt lat="48.90929" lon="1.929">
        <ele>177</ele>
        <time>2023-01-29T02:39:38.943Z</time>
      </trkpt>
      <trkpt lat="48.90936" lon="1.92893">
        <ele>177</ele>
        <time>2023-01-29T02:39:43.363Z</time>
      </trkpt>
      <trkpt lat="48.9094" lon="1.92887">
        <ele>177</ele>
        <time>2023-01-29T02:39:47.984Z</time>
      </trkpt>
      <trkpt lat="48.90945" lon="1.92881">
        <ele>177</ele>
        <time>2023-01-29T02:39:51.961Z</time>
      </trkpt>
      <trkpt lat="48.90951" lon="1.92874">
        <ele>177</ele>
        <time>2023-01-29T02:39:56.496Z</time>
      </trkpt>
      <trkpt lat="48.90957" lon="1.92867">
        <ele>177</ele>
        <time>2023-01-29T02:40:01.014Z</time>
      </trkpt>
      <trkpt lat="48.90964" lon="1.92859">
        <ele>177</ele>
        <time>2023-01-29T02:40:05.574Z</time>
      </trkpt>
      <trkpt lat="48.90968" lon="1.92854">
        <ele>177</ele>
        <time>2023-01-29T02:40:10.050Z</time>
      </trkpt>
      <trkpt lat="48.90974" lon="1.92847">
        <ele>176</ele>
        <time>2023-01-29T02:40:14.514Z</time>
      </trkpt>
      <trkpt lat="48.9098" lon="1.92841">
        <ele>176</ele>
        <time>2023-01-29T02:40:19.025Z</time>
      </trkpt>
      <trkpt lat="48.90986" lon="1.92835">
        <ele>176</ele>
        <time>2023-01-29T02:40:23.045Z</time>
      </trkpt>
      <trkpt lat="48.90993" lon="1.92829">
        <ele>176</ele>
        <time>2023-01-29T02:40:27.566Z</time>
      </trkpt>
      <trkpt lat="48.90999" lon="1.92823">
        <ele>176</ele>
        <time>2023-01-29T02:40:31.469Z</time>
      </trkpt>
      <trkpt lat="48.91005" lon="1.92817">
        <ele>175</ele>
        <time>2023-01-29T02:40:35.970Z</time>
      </trkpt>
      <trkpt lat="48.91011" lon="1.9281">
        <ele>175</ele>
        <time>2023-01-29T02:40:39.826Z</time>
      </trkpt>
      <trkpt lat="48.91016" lon="1.92804">
        <ele>176</ele>
        <time>2023-01-29T02:40:43.767Z</time>
      </trkpt>
      <trkpt lat="48.91021" lon="1.92798">
        <ele>176</ele>
        <time>2023-01-29T02:40:47.947Z</time>
      </trkpt>
      <trkpt lat="48.91027" lon="1.92791">
        <ele>176</ele>
        <time>2023-01-29T02:40:52.486Z</time>
      </trkpt>
      <trkpt lat="48.91032" lon="1.92784">
        <ele>176</ele>
        <time>2023-01-29T02:40:57.099Z</time>
      </trkpt>
      <trkpt lat="48.91038" lon="1.92776">
        <ele>176</ele>
        <time>2023-01-29T02:41:01.568Z</time>
      </trkpt>
      <trkpt lat="48.91043" lon="1.9277">
        <ele>178</ele>
        <time>2023-01-29T02:41:05.751Z</time>
      </trkpt>
      <trkpt lat="48.91048" lon="1.92762">
        <ele>177</ele>
        <time>2023-01-29T02:41:10.411Z</time>
      </trkpt>
      <trkpt lat="48.91054" lon="1.92756">
        <ele>177</ele>
        <time>2023-01-29T02:41:15.024Z</time>
      </trkpt>
      <trkpt lat="48.9106" lon="1.92749">
        <ele>177</ele>
        <time>2023-01-29T02:41:19.135Z</time>
      </trkpt>
      <trkpt lat="48.91065" lon="1.92743">
        <ele>177</ele>
        <time>2023-01-29T02:41:23.199Z</time>
      </trkpt>
      <trkpt lat="48.91071" lon="1.92737">
        <ele>178</ele>
        <time>2023-01-29T02:41:27.261Z</time>
      </trkpt>
      <trkpt lat="48.91077" lon="1.92731">
        <ele>178</ele>
        <time>2023-01-29T02:41:31.801Z</time>
      </trkpt>
      <trkpt lat="48.91084" lon="1.92724">
        <ele>178</ele>
        <time>2023-01-29T02:41:36.340Z</time>
      </trkpt>
      <trkpt lat="48.9109" lon="1.92717">
        <ele>178</ele>
        <time>2023-01-29T02:41:40.878Z</time>
      </trkpt>
      <trkpt lat="48.91097" lon="1.92711">
        <ele>178</ele>
        <time>2023-01-29T02:41:45.482Z</time>
      </trkpt>
      <trkpt lat="48.91102" lon="1.92704">
        <ele>179</ele>
        <time>2023-01-29T02:41:49.599Z</time>
      </trkpt>
      <trkpt lat="48.91107" lon="1.92698">
        <ele>179</ele>
        <time>2023-01-29T02:41:53.643Z</time>
      </trkpt>
      <trkpt lat="48.91113" lon="1.92692">
        <ele>179</ele>
        <time>2023-01-29T02:41:58.022Z</time>
      </trkpt>
      <trkpt lat="48.91119" lon="1.92685">
        <ele>179</ele>
        <time>2023-01-29T02:42:02.601Z</time>
      </trkpt>
      <trkpt lat="48.91124" lon="1.92678">
        <ele>180</ele>
        <time>2023-01-29T02:42:07.260Z</time>
      </trkpt>
      <trkpt lat="48.9113" lon="1.92671">
        <ele>179</ele>
        <time>2023-01-29T02:42:11.836Z</time>
      </trkpt>
      <trkpt lat="48.91136" lon="1.92665">
        <ele>179</ele>
        <time>2023-01-29T02:42:15.836Z</time>
      </trkpt>
      <trkpt lat="48.91142" lon="1.92659">
        <ele>179</ele>
        <time>2023-01-29T02:42:20.348Z</time>
      </trkpt>
      <trkpt lat="48.91147" lon="1.92652">
        <ele>179</ele>
        <time>2023-01-29T02:42:24.223Z</time>
      </trkpt>
      <trkpt lat="48.91152" lon="1.92646">
        <ele>179</ele>
        <time>2023-01-29T02:42:28.283Z</time>
      </trkpt>
      <trkpt lat="48.91158" lon="1.92641">
        <ele>178</ele>
        <time>2023-01-29T02:42:32.747Z</time>
      </trkpt>
      <trkpt lat="48.91163" lon="1.92634">
        <ele>178</ele>
        <time>2023-01-29T02:42:36.762Z</time>
      </trkpt>
      <trkpt lat="48.91168" lon="1.92628">
        <ele>178</ele>
        <time>2023-01-29T02:42:41.836Z</time>
      </trkpt>
      <trkpt lat="48.91173" lon="1.92622">
        <ele>179</ele>
        <time>2023-01-29T02:42:45.966Z</time>
      </trkpt>
      <trkpt lat="48.91178" lon="1.92615">
        <ele>179</ele>
        <time>2023-01-29T02:42:50.511Z</time>
      </trkpt>
      <trkpt lat="48.91182" lon="1.92608">
        <ele>179</ele>
        <time>2023-01-29T02:42:55.752Z</time>
      </trkpt>
      <trkpt lat="48.91182" lon="1.92598">
        <ele>179</ele>
        <time>2023-01-29T02:42:59.994Z</time>
      </trkpt>
      <trkpt lat="48.91185" lon="1.92592">
        <ele>179</ele>
        <time>2023-01-29T02:43:04.550Z</time>
      </trkpt>
      <trkpt lat="48.91185" lon="1.92591">
        <ele>179</ele>
        <time>2023-01-29T02:43:09.945Z</time>
      </trkpt>
      <trkpt lat="48.91184" lon="1.92592">
        <ele>179</ele>
        <time>2023-01-29T02:43:14.704Z</time>
      </trkpt>
      <trkpt lat="48.91186" lon="1.9259">
        <ele>179</ele>
        <time>2023-01-29T02:43:19.702Z</time>
      </trkpt>
      <trkpt lat="48.91189" lon="1.92584">
        <ele>179</ele>
        <time>2023-01-29T02:43:24.221Z</time>
      </trkpt>
      <trkpt lat="48.91193" lon="1.9258">
        <ele>179</ele>
        <time>2023-01-29T02:43:28.880Z</time>
      </trkpt>
      <trkpt lat="48.91193" lon="1.92571">
        <ele>179</ele>
        <time>2023-01-29T02:43:32.836Z</time>
      </trkpt>
      <trkpt lat="48.91193" lon="1.92561">
        <ele>180</ele>
        <time>2023-01-29T02:43:36.970Z</time>
      </trkpt>
      <trkpt lat="48.91189" lon="1.92553">
        <ele>180</ele>
        <time>2023-01-29T02:43:41.764Z</time>
      </trkpt>
      <trkpt lat="48.91185" lon="1.92548">
        <ele>180</ele>
        <time>2023-01-29T02:43:46.066Z</time>
      </trkpt>
      <trkpt lat="48.91182" lon="1.92543">
        <ele>180</ele>
        <time>2023-01-29T02:43:50.574Z</time>
      </trkpt>
      <trkpt lat="48.91179" lon="1.9254">
        <ele>180</ele>
        <time>2023-01-29T02:43:54.770Z</time>
      </trkpt>
      <trkpt lat="48.91175" lon="1.92534">
        <ele>180</ele>
        <time>2023-01-29T02:43:58.965Z</time>
      </trkpt>
      <trkpt lat="48.91174" lon="1.92529">
        <ele>180</ele>
        <time>2023-01-29T02:44:03.005Z</time>
      </trkpt>
      <trkpt lat="48.91165" lon="1.92533">
        <ele>180</ele>
        <time>2023-01-29T02:48:38.017Z</time>
      </trkpt>
      <trkpt lat="48.91168" lon="1.92537">
        <ele>180</ele>
        <time>2023-01-29T02:48:42.182Z</time>
      </trkpt>
      <trkpt lat="48.91171" lon="1.9254">
        <ele>180</ele>
        <time>2023-01-29T02:48:46.373Z</time>
      </trkpt>
      <trkpt lat="48.91174" lon="1.92543">
        <ele>180</ele>
        <time>2023-01-29T02:48:50.446Z</time>
      </trkpt>
      <trkpt lat="48.91176" lon="1.92546">
        <ele>180</ele>
        <time>2023-01-29T02:48:54.836Z</time>
      </trkpt>
      <trkpt lat="48.9118" lon="1.9255">
        <ele>180</ele>
        <time>2023-01-29T02:48:59.032Z</time>
      </trkpt>
      <trkpt lat="48.91183" lon="1.92557">
        <ele>180</ele>
        <time>2023-01-29T02:49:03.222Z</time>
      </trkpt>
      <trkpt lat="48.91188" lon="1.9256">
        <ele>180</ele>
        <time>2023-01-29T02:49:07.413Z</time>
      </trkpt>
      <trkpt lat="48.91191" lon="1.92563">
        <ele>180</ele>
        <time>2023-01-29T02:49:11.603Z</time>
      </trkpt>
      <trkpt lat="48.91193" lon="1.92567">
        <ele>180</ele>
        <time>2023-01-29T02:49:15.433Z</time>
      </trkpt>
      <trkpt lat="48.91193" lon="1.92572">
        <ele>179</ele>
        <time>2023-01-29T02:49:19.624Z</time>
      </trkpt>
      <trkpt lat="48.9119" lon="1.92579">
        <ele>179</ele>
        <time>2023-01-29T02:49:24.308Z</time>
      </trkpt>
      <trkpt lat="48.91188" lon="1.92587">
        <ele>179</ele>
        <time>2023-01-29T02:49:28.963Z</time>
      </trkpt>
      <trkpt lat="48.91189" lon="1.92591">
        <ele>179</ele>
        <time>2023-01-29T02:49:33.572Z</time>
      </trkpt>
      <trkpt lat="48.91192" lon="1.92593">
        <ele>179</ele>
        <time>2023-01-29T02:49:38.182Z</time>
      </trkpt>
      <trkpt lat="48.91195" lon="1.92596">
        <ele>179</ele>
        <time>2023-01-29T02:49:42.371Z</time>
      </trkpt>
      <trkpt lat="48.91201" lon="1.92593">
        <ele>179</ele>
        <time>2023-01-29T02:49:47.006Z</time>
      </trkpt>
      <trkpt lat="48.91205" lon="1.92587">
        <ele>179</ele>
        <time>2023-01-29T02:49:50.988Z</time>
      </trkpt>
      <trkpt lat="48.91211" lon="1.92579">
        <ele>179</ele>
        <time>2023-01-29T02:49:55.847Z</time>
      </trkpt>
      <trkpt lat="48.91216" lon="1.92575">
        <ele>179</ele>
        <time>2023-01-29T02:49:59.836Z</time>
      </trkpt>
      <trkpt lat="48.91222" lon="1.92569">
        <ele>179</ele>
        <time>2023-01-29T02:50:04.560Z</time>
      </trkpt>
      <trkpt lat="48.91227" lon="1.92565">
        <ele>179</ele>
        <time>2023-01-29T02:50:08.577Z</time>
      </trkpt>
      <trkpt lat="48.91232" lon="1.92559">
        <ele>179</ele>
        <time>2023-01-29T02:50:13.006Z</time>
      </trkpt>
      <trkpt lat="48.91236" lon="1.92554">
        <ele>178</ele>
        <time>2023-01-29T02:50:17.051Z</time>
      </trkpt>
      <trkpt lat="48.91242" lon="1.92548">
        <ele>178</ele>
        <time>2023-01-29T02:50:21.619Z</time>
      </trkpt>
      <trkpt lat="48.91248" lon="1.92542">
        <ele>178</ele>
        <time>2023-01-29T02:50:26.099Z</time>
      </trkpt>
      <trkpt lat="48.91253" lon="1.92536">
        <ele>178</ele>
        <time>2023-01-29T02:50:30.233Z</time>
      </trkpt>
      <trkpt lat="48.91259" lon="1.92529">
        <ele>178</ele>
        <time>2023-01-29T02:50:34.836Z</time>
      </trkpt>
      <trkpt lat="48.91266" lon="1.92522">
        <ele>178</ele>
        <time>2023-01-29T02:50:39.836Z</time>
      </trkpt>
      <trkpt lat="48.91271" lon="1.92516">
        <ele>178</ele>
        <time>2023-01-29T02:50:44.443Z</time>
      </trkpt>
      <trkpt lat="48.91276" lon="1.9251">
        <ele>179</ele>
        <time>2023-01-29T02:50:48.836Z</time>
      </trkpt>
      <trkpt lat="48.91281" lon="1.92505">
        <ele>179</ele>
        <time>2023-01-29T02:50:52.824Z</time>
      </trkpt>
      <trkpt lat="48.91288" lon="1.92499">
        <ele>179</ele>
        <time>2023-01-29T02:50:57.373Z</time>
      </trkpt>
      <trkpt lat="48.91294" lon="1.92493">
        <ele>179</ele>
        <time>2023-01-29T02:51:01.442Z</time>
      </trkpt>
      <trkpt lat="48.913" lon="1.92487">
        <ele>179</ele>
        <time>2023-01-29T02:51:05.989Z</time>
      </trkpt>
      <trkpt lat="48.91306" lon="1.92482">
        <ele>180</ele>
        <time>2023-01-29T02:51:10.537Z</time>
      </trkpt>
      <trkpt lat="48.91312" lon="1.92476">
        <ele>180</ele>
        <time>2023-01-29T02:51:14.836Z</time>
      </trkpt>
      <trkpt lat="48.91318" lon="1.9247">
        <ele>180</ele>
        <time>2023-01-29T02:51:19.277Z</time>
      </trkpt>
      <trkpt lat="48.91322" lon="1.92465">
        <ele>180</ele>
        <time>2023-01-29T02:51:23.704Z</time>
      </trkpt>
      <trkpt lat="48.91328" lon="1.92459">
        <ele>180</ele>
        <time>2023-01-29T02:51:28.133Z</time>
      </trkpt>
      <trkpt lat="48.91331" lon="1.92453">
        <ele>180</ele>
        <time>2023-01-29T02:51:32.166Z</time>
      </trkpt>
      <trkpt lat="48.91331" lon="1.92443">
        <ele>180</ele>
        <time>2023-01-29T02:51:36.839Z</time>
      </trkpt>
      <trkpt lat="48.91336" lon="1.92436">
        <ele>180</ele>
        <time>2023-01-29T02:51:40.836Z</time>
      </trkpt>
      <trkpt lat="48.91341" lon="1.92428">
        <ele>181</ele>
        <time>2023-01-29T02:51:45.417Z</time>
      </trkpt>
      <trkpt lat="48.91342" lon="1.92419">
        <ele>181</ele>
        <time>2023-01-29T02:51:49.489Z</time>
      </trkpt>
      <trkpt lat="48.9134" lon="1.9241">
        <ele>181</ele>
        <time>2023-01-29T02:51:53.940Z</time>
      </trkpt>
      <trkpt lat="48.91339" lon="1.92402">
        <ele>182</ele>
        <time>2023-01-29T02:51:57.836Z</time>
      </trkpt>
      <trkpt lat="48.91337" lon="1.92393">
        <ele>182</ele>
        <time>2023-01-29T02:52:01.836Z</time>
      </trkpt>
      <trkpt lat="48.91335" lon="1.92384">
        <ele>182</ele>
        <time>2023-01-29T02:52:06.446Z</time>
      </trkpt>
      <trkpt lat="48.91333" lon="1.92373">
        <ele>182</ele>
        <time>2023-01-29T02:52:11.047Z</time>
      </trkpt>
      <trkpt lat="48.91332" lon="1.92363">
        <ele>182</ele>
        <time>2023-01-29T02:52:15.545Z</time>
      </trkpt>
      <trkpt lat="48.91332" lon="1.92351">
        <ele>182</ele>
        <time>2023-01-29T02:52:20.215Z</time>
      </trkpt>
      <trkpt lat="48.91331" lon="1.9234">
        <ele>182</ele>
        <time>2023-01-29T02:52:24.765Z</time>
      </trkpt>
      <trkpt lat="48.9133" lon="1.92329">
        <ele>182</ele>
        <time>2023-01-29T02:52:29.076Z</time>
      </trkpt>
      <trkpt lat="48.91328" lon="1.92319">
        <ele>182</ele>
        <time>2023-01-29T02:52:33.747Z</time>
      </trkpt>
      <trkpt lat="48.91327" lon="1.9231">
        <ele>182</ele>
        <time>2023-01-29T02:52:38.160Z</time>
      </trkpt>
      <trkpt lat="48.91326" lon="1.92299">
        <ele>182</ele>
        <time>2023-01-29T02:52:42.709Z</time>
      </trkpt>
      <trkpt lat="48.91324" lon="1.9229">
        <ele>181</ele>
        <time>2023-01-29T02:52:47.342Z</time>
      </trkpt>
      <trkpt lat="48.91323" lon="1.92279">
        <ele>181</ele>
        <time>2023-01-29T02:52:51.329Z</time>
      </trkpt>
      <trkpt lat="48.91321" lon="1.92268">
        <ele>181</ele>
        <time>2023-01-29T02:52:55.759Z</time>
      </trkpt>
      <trkpt lat="48.91319" lon="1.92258">
        <ele>181</ele>
        <time>2023-01-29T02:53:00.302Z</time>
      </trkpt>
      <trkpt lat="48.91318" lon="1.92248">
        <ele>181</ele>
        <time>2023-01-29T02:53:04.362Z</time>
      </trkpt>
      <trkpt lat="48.91316" lon="1.92238">
        <ele>181</ele>
        <time>2023-01-29T02:53:08.432Z</time>
      </trkpt>
      <trkpt lat="48.91315" lon="1.92227">
        <ele>182</ele>
        <time>2023-01-29T02:53:12.981Z</time>
      </trkpt>
      <trkpt lat="48.91315" lon="1.92216">
        <ele>182</ele>
        <time>2023-01-29T02:53:16.836Z</time>
      </trkpt>
      <trkpt lat="48.91313" lon="1.92207">
        <ele>182</ele>
        <time>2023-01-29T02:53:21.358Z</time>
      </trkpt>
      <trkpt lat="48.91312" lon="1.92196">
        <ele>182</ele>
        <time>2023-01-29T02:53:25.427Z</time>
      </trkpt>
      <trkpt lat="48.91313" lon="1.92186">
        <ele>182</ele>
        <time>2023-01-29T02:53:29.988Z</time>
      </trkpt>
      <trkpt lat="48.91316" lon="1.92175">
        <ele>183</ele>
        <time>2023-01-29T02:53:34.521Z</time>
      </trkpt>
      <trkpt lat="48.91319" lon="1.92166">
        <ele>183</ele>
        <time>2023-01-29T02:53:38.590Z</time>
      </trkpt>
      <trkpt lat="48.91322" lon="1.92157">
        <ele>183</ele>
        <time>2023-01-29T02:53:43.052Z</time>
      </trkpt>
      <trkpt lat="48.91326" lon="1.92146">
        <ele>183</ele>
        <time>2023-01-29T02:53:47.565Z</time>
      </trkpt>
      <trkpt lat="48.91331" lon="1.92136">
        <ele>183</ele>
        <time>2023-01-29T02:53:52.113Z</time>
      </trkpt>
      <trkpt lat="48.91334" lon="1.92126">
        <ele>183</ele>
        <time>2023-01-29T02:53:56.522Z</time>
      </trkpt>
      <trkpt lat="48.91336" lon="1.92116">
        <ele>183</ele>
        <time>2023-01-29T02:54:01.071Z</time>
      </trkpt>
      <trkpt lat="48.91339" lon="1.92105">
        <ele>183</ele>
        <time>2023-01-29T02:54:05.600Z</time>
      </trkpt>
      <trkpt lat="48.91342" lon="1.92096">
        <ele>183</ele>
        <time>2023-01-29T02:54:10.141Z</time>
      </trkpt>
      <trkpt lat="48.91345" lon="1.92086">
        <ele>183</ele>
        <time>2023-01-29T02:54:14.762Z</time>
      </trkpt>
      <trkpt lat="48.91347" lon="1.92077">
        <ele>182</ele>
        <time>2023-01-29T02:54:18.756Z</time>
      </trkpt>
      <trkpt lat="48.91349" lon="1.92068">
        <ele>182</ele>
        <time>2023-01-29T02:54:22.825Z</time>
      </trkpt>
      <trkpt lat="48.91352" lon="1.92058">
        <ele>182</ele>
        <time>2023-01-29T02:54:27.491Z</time>
      </trkpt>
      <trkpt lat="48.91354" lon="1.92048">
        <ele>182</ele>
        <time>2023-01-29T02:54:31.437Z</time>
      </trkpt>
      <trkpt lat="48.91356" lon="1.92039">
        <ele>183</ele>
        <time>2023-01-29T02:54:35.982Z</time>
      </trkpt>
      <trkpt lat="48.91357" lon="1.92028">
        <ele>183</ele>
        <time>2023-01-29T02:54:40.526Z</time>
      </trkpt>
      <trkpt lat="48.91359" lon="1.92018">
        <ele>183</ele>
        <time>2023-01-29T02:54:44.945Z</time>
      </trkpt>
      <trkpt lat="48.91362" lon="1.92008">
        <ele>184</ele>
        <time>2023-01-29T02:54:49.138Z</time>
      </trkpt>
      <trkpt lat="48.91364" lon="1.91997">
        <ele>184</ele>
        <time>2023-01-29T02:54:53.684Z</time>
      </trkpt>
      <trkpt lat="48.91367" lon="1.91988">
        <ele>184</ele>
        <time>2023-01-29T02:54:58.350Z</time>
      </trkpt>
      <trkpt lat="48.91369" lon="1.91978">
        <ele>184</ele>
        <time>2023-01-29T02:55:02.897Z</time>
      </trkpt>
      <trkpt lat="48.91373" lon="1.91968">
        <ele>184</ele>
        <time>2023-01-29T02:55:07.361Z</time>
      </trkpt>
      <trkpt lat="48.91376" lon="1.9196">
        <ele>184</ele>
        <time>2023-01-29T02:55:11.281Z</time>
      </trkpt>
      <trkpt lat="48.91379" lon="1.9195">
        <ele>184</ele>
        <time>2023-01-29T02:55:15.743Z</time>
      </trkpt>
      <trkpt lat="48.91382" lon="1.9194">
        <ele>184</ele>
        <time>2023-01-29T02:55:19.663Z</time>
      </trkpt>
      <trkpt lat="48.91387" lon="1.91932">
        <ele>184</ele>
        <time>2023-01-29T02:55:24.224Z</time>
      </trkpt>
      <trkpt lat="48.91391" lon="1.91923">
        <ele>184</ele>
        <time>2023-01-29T02:55:28.283Z</time>
      </trkpt>
      <trkpt lat="48.91395" lon="1.91915">
        <ele>184</ele>
        <time>2023-01-29T02:55:32.315Z</time>
      </trkpt>
      <trkpt lat="48.91398" lon="1.91906">
        <ele>184</ele>
        <time>2023-01-29T02:55:36.836Z</time>
      </trkpt>
      <trkpt lat="48.91402" lon="1.91897">
        <ele>183</ele>
        <time>2023-01-29T02:55:41.358Z</time>
      </trkpt>
      <trkpt lat="48.91405" lon="1.91889">
        <ele>183</ele>
        <time>2023-01-29T02:55:45.370Z</time>
      </trkpt>
      <trkpt lat="48.91407" lon="1.91879">
        <ele>183</ele>
        <time>2023-01-29T02:55:49.836Z</time>
      </trkpt>
      <trkpt lat="48.91409" lon="1.9187">
        <ele>182</ele>
        <time>2023-01-29T02:55:53.998Z</time>
      </trkpt>
      <trkpt lat="48.9141" lon="1.9186">
        <ele>182</ele>
        <time>2023-01-29T02:55:58.741Z</time>
      </trkpt>
      <trkpt lat="48.9141" lon="1.91862">
        <ele>182</ele>
        <time>2023-01-29T02:56:02.749Z</time>
      </trkpt>
      <trkpt lat="48.91402" lon="1.91845">
        <ele>183</ele>
        <time>2023-01-29T02:56:07.358Z</time>
      </trkpt>
      <trkpt lat="48.91398" lon="1.9183">
        <ele>183</ele>
        <time>2023-01-29T02:56:11.464Z</time>
      </trkpt>
      <trkpt lat="48.91392" lon="1.91823">
        <ele>183</ele>
        <time>2023-01-29T02:56:15.567Z</time>
      </trkpt>
      <trkpt lat="48.91388" lon="1.91817">
        <ele>184</ele>
        <time>2023-01-29T02:56:19.569Z</time>
      </trkpt>
      <trkpt lat="48.91383" lon="1.91808">
        <ele>184</ele>
        <time>2023-01-29T02:56:24.072Z</time>
      </trkpt>
      <trkpt lat="48.91378" lon="1.91799">
        <ele>184</ele>
        <time>2023-01-29T02:56:28.075Z</time>
      </trkpt>
      <trkpt lat="48.91373" lon="1.91793">
        <ele>183</ele>
        <time>2023-01-29T02:56:32.079Z</time>
      </trkpt>
      <trkpt lat="48.91368" lon="1.91787">
        <ele>184</ele>
        <time>2023-01-29T02:56:36.583Z</time>
      </trkpt>
      <trkpt lat="48.91362" lon="1.9178">
        <ele>184</ele>
        <time>2023-01-29T02:56:41.104Z</time>
      </trkpt>
      <trkpt lat="48.91358" lon="1.91774">
        <ele>184</ele>
        <time>2023-01-29T02:56:45.110Z</time>
      </trkpt>
      <trkpt lat="48.91354" lon="1.91768">
        <ele>184</ele>
        <time>2023-01-29T02:56:49.617Z</time>
      </trkpt>
      <trkpt lat="48.91349" lon="1.91765">
        <ele>184</ele>
        <time>2023-01-29T02:56:53.620Z</time>
      </trkpt>
      <trkpt lat="48.91342" lon="1.91758">
        <ele>184</ele>
        <time>2023-01-29T02:56:57.723Z</time>
      </trkpt>
      <trkpt lat="48.91335" lon="1.91751">
        <ele>184</ele>
        <time>2023-01-29T02:57:02.328Z</time>
      </trkpt>
      <trkpt lat="48.9133" lon="1.91742">
        <ele>184</ele>
        <time>2023-01-29T02:57:06.386Z</time>
      </trkpt>
      <trkpt lat="48.9133" lon="1.91733">
        <ele>183</ele>
        <time>2023-01-29T02:57:11.129Z</time>
      </trkpt>
      <trkpt lat="48.91334" lon="1.91727">
        <ele>183</ele>
        <time>2023-01-29T02:57:15.410Z</time>
      </trkpt>
      <trkpt lat="48.91339" lon="1.9172">
        <ele>183</ele>
        <time>2023-01-29T02:57:19.810Z</time>
      </trkpt>
      <trkpt lat="48.91343" lon="1.91713">
        <ele>183</ele>
        <time>2023-01-29T02:57:24.550Z</time>
      </trkpt>
      <trkpt lat="48.91347" lon="1.91706">
        <ele>184</ele>
        <time>2023-01-29T02:57:28.836Z</time>
      </trkpt>
      <trkpt lat="48.91352" lon="1.91699">
        <ele>183</ele>
        <time>2023-01-29T02:57:33.211Z</time>
      </trkpt>
      <trkpt lat="48.91357" lon="1.91691">
        <ele>183</ele>
        <time>2023-01-29T02:57:38.046Z</time>
      </trkpt>
      <trkpt lat="48.91363" lon="1.91686">
        <ele>183</ele>
        <time>2023-01-29T02:57:42.293Z</time>
      </trkpt>
      <trkpt lat="48.91367" lon="1.91677">
        <ele>183</ele>
        <time>2023-01-29T02:57:46.653Z</time>
      </trkpt>
      <trkpt lat="48.91371" lon="1.91658">
        <ele>183</ele>
        <time>2023-01-29T02:57:51.235Z</time>
      </trkpt>
      <trkpt lat="48.91374" lon="1.91645">
        <ele>183</ele>
        <time>2023-01-29T02:57:55.435Z</time>
      </trkpt>
      <trkpt lat="48.91377" lon="1.91634">
        <ele>183</ele>
        <time>2023-01-29T02:57:59.696Z</time>
      </trkpt>
      <trkpt lat="48.91378" lon="1.91627">
        <ele>183</ele>
        <time>2023-01-29T02:58:03.836Z</time>
      </trkpt>
      <trkpt lat="48.91379" lon="1.91613">
        <ele>184</ele>
        <time>2023-01-29T02:58:08.460Z</time>
      </trkpt>
      <trkpt lat="48.91382" lon="1.91603">
        <ele>184</ele>
        <time>2023-01-29T02:58:12.533Z</time>
      </trkpt>
      <trkpt lat="48.91385" lon="1.91595">
        <ele>184</ele>
        <time>2023-01-29T02:58:17.161Z</time>
      </trkpt>
      <trkpt lat="48.91385" lon="1.91585">
        <ele>184</ele>
        <time>2023-01-29T02:58:21.126Z</time>
      </trkpt>
      <trkpt lat="48.91384" lon="1.91577">
        <ele>184</ele>
        <time>2023-01-29T02:58:25.143Z</time>
      </trkpt>
      <trkpt lat="48.91384" lon="1.91567">
        <ele>184</ele>
        <time>2023-01-29T02:58:29.757Z</time>
      </trkpt>
      <trkpt lat="48.91384" lon="1.91557">
        <ele>184</ele>
        <time>2023-01-29T02:58:33.649Z</time>
      </trkpt>
      <trkpt lat="48.91383" lon="1.91546">
        <ele>184</ele>
        <time>2023-01-29T02:58:38.203Z</time>
      </trkpt>
      <trkpt lat="48.91383" lon="1.91535">
        <ele>184</ele>
        <time>2023-01-29T02:58:42.700Z</time>
      </trkpt>
      <trkpt lat="48.91383" lon="1.91524">
        <ele>184</ele>
        <time>2023-01-29T02:58:46.591Z</time>
      </trkpt>
      <trkpt lat="48.91383" lon="1.91512">
        <ele>183</ele>
        <time>2023-01-29T02:58:51.146Z</time>
      </trkpt>
      <trkpt lat="48.91383" lon="1.91502">
        <ele>183</ele>
        <time>2023-01-29T02:58:55.136Z</time>
      </trkpt>
      <trkpt lat="48.91383" lon="1.91493">
        <ele>183</ele>
        <time>2023-01-29T02:58:59.188Z</time>
      </trkpt>
      <trkpt lat="48.91383" lon="1.91483">
        <ele>184</ele>
        <time>2023-01-29T02:59:03.222Z</time>
      </trkpt>
      <trkpt lat="48.91383" lon="1.91471">
        <ele>184</ele>
        <time>2023-01-29T02:59:07.765Z</time>
      </trkpt>
      <trkpt lat="48.91383" lon="1.91462">
        <ele>184</ele>
        <time>2023-01-29T02:59:11.836Z</time>
      </trkpt>
      <trkpt lat="48.91382" lon="1.91453">
        <ele>184</ele>
        <time>2023-01-29T02:59:15.836Z</time>
      </trkpt>
      <trkpt lat="48.91382" lon="1.91442">
        <ele>184</ele>
        <time>2023-01-29T02:59:20.472Z</time>
      </trkpt>
      <trkpt lat="48.91381" lon="1.91431">
        <ele>184</ele>
        <time>2023-01-29T02:59:25.023Z</time>
      </trkpt>
      <trkpt lat="48.91382" lon="1.9142">
        <ele>184</ele>
        <time>2023-01-29T02:59:29.453Z</time>
      </trkpt>
      <trkpt lat="48.91381" lon="1.91409">
        <ele>184</ele>
        <time>2023-01-29T02:59:33.948Z</time>
      </trkpt>
      <trkpt lat="48.91381" lon="1.91398">
        <ele>184</ele>
        <time>2023-01-29T02:59:37.835Z</time>
      </trkpt>
      <trkpt lat="48.91381" lon="1.91387">
        <ele>184</ele>
        <time>2023-01-29T02:59:42.264Z</time>
      </trkpt>
      <trkpt lat="48.91381" lon="1.91377">
        <ele>184</ele>
        <time>2023-01-29T02:59:46.725Z</time>
      </trkpt>
      <trkpt lat="48.9138" lon="1.91367">
        <ele>183</ele>
        <time>2023-01-29T02:59:50.763Z</time>
      </trkpt>
      <trkpt lat="48.9138" lon="1.91356">
        <ele>183</ele>
        <time>2023-01-29T02:59:54.594Z</time>
      </trkpt>
      <trkpt lat="48.9138" lon="1.91344">
        <ele>183</ele>
        <time>2023-01-29T02:59:59.097Z</time>
      </trkpt>
      <trkpt lat="48.9138" lon="1.91333">
        <ele>183</ele>
        <time>2023-01-29T03:00:03.662Z</time>
      </trkpt>
      <trkpt lat="48.9138" lon="1.91321">
        <ele>183</ele>
        <time>2023-01-29T03:00:07.818Z</time>
      </trkpt>
      <trkpt lat="48.91381" lon="1.9131">
        <ele>183</ele>
        <time>2023-01-29T03:00:12.449Z</time>
      </trkpt>
      <trkpt lat="48.9138" lon="1.913">
        <ele>183</ele>
        <time>2023-01-29T03:00:16.639Z</time>
      </trkpt>
      <trkpt lat="48.9138" lon="1.9129">
        <ele>183</ele>
        <time>2023-01-29T03:00:20.591Z</time>
      </trkpt>
      <trkpt lat="48.91379" lon="1.91278">
        <ele>183</ele>
        <time>2023-01-29T03:00:25.123Z</time>
      </trkpt>
      <trkpt lat="48.91379" lon="1.91266">
        <ele>183</ele>
        <time>2023-01-29T03:00:29.673Z</time>
      </trkpt>
      <trkpt lat="48.91379" lon="1.91255">
        <ele>183</ele>
        <time>2023-01-29T03:00:34.186Z</time>
      </trkpt>
      <trkpt lat="48.91379" lon="1.91243">
        <ele>183</ele>
        <time>2023-01-29T03:00:38.391Z</time>
      </trkpt>
      <trkpt lat="48.9138" lon="1.91232">
        <ele>183</ele>
        <time>2023-01-29T03:00:42.922Z</time>
      </trkpt>
      <trkpt lat="48.91379" lon="1.91221">
        <ele>183</ele>
        <time>2023-01-29T03:00:46.836Z</time>
      </trkpt>
      <trkpt lat="48.91378" lon="1.9121">
        <ele>183</ele>
        <time>2023-01-29T03:00:51.315Z</time>
      </trkpt>
      <trkpt lat="48.91377" lon="1.91198">
        <ele>182</ele>
        <time>2023-01-29T03:00:55.836Z</time>
      </trkpt>
      <trkpt lat="48.91376" lon="1.91185">
        <ele>182</ele>
        <time>2023-01-29T03:01:00.512Z</time>
      </trkpt>
      <trkpt lat="48.91376" lon="1.91174">
        <ele>182</ele>
        <time>2023-01-29T03:01:04.901Z</time>
      </trkpt>
      <trkpt lat="48.91377" lon="1.91164">
        <ele>182</ele>
        <time>2023-01-29T03:01:08.836Z</time>
      </trkpt>
      <trkpt lat="48.91377" lon="1.91153">
        <ele>182</ele>
        <time>2023-01-29T03:01:12.836Z</time>
      </trkpt>
      <trkpt lat="48.91378" lon="1.91142">
        <ele>182</ele>
        <time>2023-01-29T03:01:17.266Z</time>
      </trkpt>
      <trkpt lat="48.91379" lon="1.91132">
        <ele>182</ele>
        <time>2023-01-29T03:01:21.815Z</time>
      </trkpt>
      <trkpt lat="48.9138" lon="1.91122">
        <ele>182</ele>
        <time>2023-01-29T03:01:25.646Z</time>
      </trkpt>
      <trkpt lat="48.91381" lon="1.91111">
        <ele>182</ele>
        <time>2023-01-29T03:01:30.195Z</time>
      </trkpt>
      <trkpt lat="48.91383" lon="1.911">
        <ele>182</ele>
        <time>2023-01-29T03:01:34.740Z</time>
      </trkpt>
      <trkpt lat="48.91387" lon="1.91089">
        <ele>182</ele>
        <time>2023-01-29T03:01:39.285Z</time>
      </trkpt>
      <trkpt lat="48.91389" lon="1.91079">
        <ele>182</ele>
        <time>2023-01-29T03:01:43.749Z</time>
      </trkpt>
      <trkpt lat="48.91389" lon="1.91069">
        <ele>182</ele>
        <time>2023-01-29T03:01:47.781Z</time>
      </trkpt>
      <trkpt lat="48.91386" lon="1.91059">
        <ele>182</ele>
        <time>2023-01-29T03:01:51.727Z</time>
      </trkpt>
      <trkpt lat="48.91383" lon="1.91049">
        <ele>182</ele>
        <time>2023-01-29T03:01:55.675Z</time>
      </trkpt>
      <trkpt lat="48.91379" lon="1.91039">
        <ele>182</ele>
        <time>2023-01-29T03:02:00.147Z</time>
      </trkpt>
      <trkpt lat="48.91377" lon="1.91027">
        <ele>182</ele>
        <time>2023-01-29T03:02:04.531Z</time>
      </trkpt>
      <trkpt lat="48.91375" lon="1.91017">
        <ele>182</ele>
        <time>2023-01-29T03:02:08.959Z</time>
      </trkpt>
      <trkpt lat="48.91373" lon="1.91007">
        <ele>181</ele>
        <time>2023-01-29T03:02:13.028Z</time>
      </trkpt>
      <trkpt lat="48.91371" lon="1.90994">
        <ele>181</ele>
        <time>2023-01-29T03:02:17.575Z</time>
      </trkpt>
      <trkpt lat="48.91371" lon="1.90984">
        <ele>180</ele>
        <time>2023-01-29T03:02:22.146Z</time>
      </trkpt>
      <trkpt lat="48.91371" lon="1.90972">
        <ele>180</ele>
        <time>2023-01-29T03:02:26.551Z</time>
      </trkpt>
      <trkpt lat="48.9137" lon="1.90961">
        <ele>180</ele>
        <time>2023-01-29T03:02:31.040Z</time>
      </trkpt>
      <trkpt lat="48.91368" lon="1.90948">
        <ele>181</ele>
        <time>2023-01-29T03:02:35.529Z</time>
      </trkpt>
      <trkpt lat="48.91368" lon="1.90938">
        <ele>181</ele>
        <time>2023-01-29T03:02:39.599Z</time>
      </trkpt>
      <trkpt lat="48.91368" lon="1.90927">
        <ele>181</ele>
        <time>2023-01-29T03:02:44.026Z</time>
      </trkpt>
      <trkpt lat="48.91368" lon="1.90917">
        <ele>181</ele>
        <time>2023-01-29T03:02:47.976Z</time>
      </trkpt>
      <trkpt lat="48.91368" lon="1.90908">
        <ele>181</ele>
        <time>2023-01-29T03:02:51.836Z</time>
      </trkpt>
      <trkpt lat="48.91367" lon="1.90897">
        <ele>182</ele>
        <time>2023-01-29T03:02:56.295Z</time>
      </trkpt>
      <trkpt lat="48.91367" lon="1.90886">
        <ele>182</ele>
        <time>2023-01-29T03:03:00.845Z</time>
      </trkpt>
      <trkpt lat="48.91367" lon="1.90876">
        <ele>182</ele>
        <time>2023-01-29T03:03:04.966Z</time>
      </trkpt>
      <trkpt lat="48.91367" lon="1.90866">
        <ele>183</ele>
        <time>2023-01-29T03:03:08.961Z</time>
      </trkpt>
      <trkpt lat="48.91368" lon="1.90854">
        <ele>183</ele>
        <time>2023-01-29T03:03:12.911Z</time>
      </trkpt>
      <trkpt lat="48.91368" lon="1.90842">
        <ele>183</ele>
        <time>2023-01-29T03:03:17.540Z</time>
      </trkpt>
      <trkpt lat="48.91369" lon="1.90831">
        <ele>183</ele>
        <time>2023-01-29T03:03:22.048Z</time>
      </trkpt>
      <trkpt lat="48.9137" lon="1.90821">
        <ele>183</ele>
        <time>2023-01-29T03:03:26.159Z</time>
      </trkpt>
      <trkpt lat="48.91372" lon="1.9081">
        <ele>183</ele>
        <time>2023-01-29T03:03:30.229Z</time>
      </trkpt>
      <trkpt lat="48.91373" lon="1.90799">
        <ele>183</ele>
        <time>2023-01-29T03:03:34.777Z</time>
      </trkpt>
      <trkpt lat="48.91376" lon="1.90787">
        <ele>183</ele>
        <time>2023-01-29T03:03:39.327Z</time>
      </trkpt>
      <trkpt lat="48.91378" lon="1.90776">
        <ele>183</ele>
        <time>2023-01-29T03:03:43.882Z</time>
      </trkpt>
      <trkpt lat="48.9138" lon="1.90765">
        <ele>183</ele>
        <time>2023-01-29T03:03:47.948Z</time>
      </trkpt>
      <trkpt lat="48.91383" lon="1.90754">
        <ele>182</ele>
        <time>2023-01-29T03:03:52.520Z</time>
      </trkpt>
      <trkpt lat="48.91386" lon="1.90743">
        <ele>182</ele>
        <time>2023-01-29T03:03:56.569Z</time>
      </trkpt>
      <trkpt lat="48.91388" lon="1.90734">
        <ele>182</ele>
        <time>2023-01-29T03:04:00.501Z</time>
      </trkpt>
      <trkpt lat="48.91391" lon="1.90723">
        <ele>182</ele>
        <time>2023-01-29T03:04:05.049Z</time>
      </trkpt>
      <trkpt lat="48.91393" lon="1.90713">
        <ele>182</ele>
        <time>2023-01-29T03:04:09.582Z</time>
      </trkpt>
      <trkpt lat="48.91396" lon="1.90703">
        <ele>182</ele>
        <time>2023-01-29T03:04:13.549Z</time>
      </trkpt>
      <trkpt lat="48.91398" lon="1.90693">
        <ele>182</ele>
        <time>2023-01-29T03:04:17.942Z</time>
      </trkpt>
      <trkpt lat="48.914" lon="1.90683">
        <ele>182</ele>
        <time>2023-01-29T03:04:22.027Z</time>
      </trkpt>
      <trkpt lat="48.91402" lon="1.90672">
        <ele>181</ele>
        <time>2023-01-29T03:04:26.456Z</time>
      </trkpt>
      <trkpt lat="48.91405" lon="1.90661">
        <ele>182</ele>
        <time>2023-01-29T03:04:30.915Z</time>
      </trkpt>
      <trkpt lat="48.91407" lon="1.90652">
        <ele>181</ele>
        <time>2023-01-29T03:04:34.956Z</time>
      </trkpt>
      <trkpt lat="48.91409" lon="1.90642">
        <ele>181</ele>
        <time>2023-01-29T03:04:39.024Z</time>
      </trkpt>
      <trkpt lat="48.91411" lon="1.9063">
        <ele>181</ele>
        <time>2023-01-29T03:04:43.570Z</time>
      </trkpt>
      <trkpt lat="48.91413" lon="1.90619">
        <ele>180</ele>
        <time>2023-01-29T03:04:48.237Z</time>
      </trkpt>
      <trkpt lat="48.91414" lon="1.90608">
        <ele>180</ele>
        <time>2023-01-29T03:04:52.783Z</time>
      </trkpt>
      <trkpt lat="48.91416" lon="1.90598">
        <ele>180</ele>
        <time>2023-01-29T03:04:57.210Z</time>
      </trkpt>
      <trkpt lat="48.91419" lon="1.90588">
        <ele>181</ele>
        <time>2023-01-29T03:05:01.699Z</time>
      </trkpt>
      <trkpt lat="48.91421" lon="1.90578">
        <ele>181</ele>
        <time>2023-01-29T03:05:05.825Z</time>
      </trkpt>
      <trkpt lat="48.91424" lon="1.90568">
        <ele>182</ele>
        <time>2023-01-29T03:05:09.836Z</time>
      </trkpt>
      <trkpt lat="48.91426" lon="1.90557">
        <ele>182</ele>
        <time>2023-01-29T03:05:14.439Z</time>
      </trkpt>
      <trkpt lat="48.91428" lon="1.90547">
        <ele>182</ele>
        <time>2023-01-29T03:05:18.987Z</time>
      </trkpt>
      <trkpt lat="48.9143" lon="1.90535">
        <ele>182</ele>
        <time>2023-01-29T03:05:23.515Z</time>
      </trkpt>
      <trkpt lat="48.91432" lon="1.90524">
        <ele>182</ele>
        <time>2023-01-29T03:05:27.941Z</time>
      </trkpt>
      <trkpt lat="48.91433" lon="1.90514">
        <ele>182</ele>
        <time>2023-01-29T03:05:32.010Z</time>
      </trkpt>
      <trkpt lat="48.91436" lon="1.90505">
        <ele>182</ele>
        <time>2023-01-29T03:05:36.198Z</time>
      </trkpt>
      <trkpt lat="48.91438" lon="1.90494">
        <ele>182</ele>
        <time>2023-01-29T03:05:40.624Z</time>
      </trkpt>
      <trkpt lat="48.9144" lon="1.90484">
        <ele>181</ele>
        <time>2023-01-29T03:05:44.812Z</time>
      </trkpt>
      <trkpt lat="48.91442" lon="1.90475">
        <ele>181</ele>
        <time>2023-01-29T03:05:48.997Z</time>
      </trkpt>
      <trkpt lat="48.91444" lon="1.90466">
        <ele>181</ele>
        <time>2023-01-29T03:05:52.943Z</time>
      </trkpt>
      <trkpt lat="48.91447" lon="1.90455">
        <ele>182</ele>
        <time>2023-01-29T03:05:57.607Z</time>
      </trkpt>
      <trkpt lat="48.91449" lon="1.90448">
        <ele>182</ele>
        <time>2023-01-29T03:06:02.390Z</time>
      </trkpt>
      <trkpt lat="48.9145" lon="1.9044">
        <ele>182</ele>
        <time>2023-01-29T03:06:06.336Z</time>
      </trkpt>
      <trkpt lat="48.91451" lon="1.90431">
        <ele>182</ele>
        <time>2023-01-29T03:06:10.836Z</time>
      </trkpt>
      <trkpt lat="48.91453" lon="1.90423">
        <ele>182</ele>
        <time>2023-01-29T03:06:14.829Z</time>
      </trkpt>
      <trkpt lat="48.91455" lon="1.90414">
        <ele>182</ele>
        <time>2023-01-29T03:06:18.836Z</time>
      </trkpt>
      <trkpt lat="48.91457" lon="1.90402">
        <ele>181</ele>
        <time>2023-01-29T03:06:23.443Z</time>
      </trkpt>
      <trkpt lat="48.9146" lon="1.90393">
        <ele>181</ele>
        <time>2023-01-29T03:06:27.990Z</time>
      </trkpt>
      <trkpt lat="48.91461" lon="1.90383">
        <ele>181</ele>
        <time>2023-01-29T03:06:32.176Z</time>
      </trkpt>
      <trkpt lat="48.91464" lon="1.90373">
        <ele>180</ele>
        <time>2023-01-29T03:06:36.243Z</time>
      </trkpt>
      <trkpt lat="48.91465" lon="1.90361">
        <ele>180</ele>
        <time>2023-01-29T03:06:40.310Z</time>
      </trkpt>
      <trkpt lat="48.91467" lon="1.90352">
        <ele>180</ele>
        <time>2023-01-29T03:06:44.848Z</time>
      </trkpt>
      <trkpt lat="48.91469" lon="1.90341">
        <ele>179</ele>
        <time>2023-01-29T03:06:49.025Z</time>
      </trkpt>
      <trkpt lat="48.91471" lon="1.90332">
        <ele>179</ele>
        <time>2023-01-29T03:06:53.035Z</time>
      </trkpt>
      <trkpt lat="48.91474" lon="1.90322">
        <ele>179</ele>
        <time>2023-01-29T03:06:56.934Z</time>
      </trkpt>
      <trkpt lat="48.91476" lon="1.90311">
        <ele>179</ele>
        <time>2023-01-29T03:07:01.503Z</time>
      </trkpt>
      <trkpt lat="48.91479" lon="1.903">
        <ele>179</ele>
        <time>2023-01-29T03:07:05.408Z</time>
      </trkpt>
      <trkpt lat="48.91481" lon="1.90291">
        <ele>179</ele>
        <time>2023-01-29T03:07:09.477Z</time>
      </trkpt>
      <trkpt lat="48.91483" lon="1.90281">
        <ele>179</ele>
        <time>2023-01-29T03:07:14.022Z</time>
      </trkpt>
      <trkpt lat="48.91485" lon="1.90271">
        <ele>179</ele>
        <time>2023-01-29T03:07:18.162Z</time>
      </trkpt>
      <trkpt lat="48.91487" lon="1.90261">
        <ele>180</ele>
        <time>2023-01-29T03:07:22.158Z</time>
      </trkpt>
      <trkpt lat="48.91489" lon="1.90251">
        <ele>180</ele>
        <time>2023-01-29T03:07:26.226Z</time>
      </trkpt>
      <trkpt lat="48.9149" lon="1.90241">
        <ele>180</ele>
        <time>2023-01-29T03:07:30.775Z</time>
      </trkpt>
      <trkpt lat="48.91494" lon="1.90229">
        <ele>181</ele>
        <time>2023-01-29T03:07:35.836Z</time>
      </trkpt>
      <trkpt lat="48.91496" lon="1.90218">
        <ele>181</ele>
        <time>2023-01-29T03:07:40.344Z</time>
      </trkpt>
      <trkpt lat="48.91499" lon="1.90209">
        <ele>181</ele>
        <time>2023-01-29T03:07:44.291Z</time>
      </trkpt>
      <trkpt lat="48.91501" lon="1.902">
        <ele>181</ele>
        <time>2023-01-29T03:07:48.358Z</time>
      </trkpt>
      <trkpt lat="48.91504" lon="1.90189">
        <ele>181</ele>
        <time>2023-01-29T03:07:52.836Z</time>
      </trkpt>
      <trkpt lat="48.91506" lon="1.90177">
        <ele>181</ele>
        <time>2023-01-29T03:07:57.447Z</time>
      </trkpt>
      <trkpt lat="48.91509" lon="1.90168">
        <ele>181</ele>
        <time>2023-01-29T03:08:01.993Z</time>
      </trkpt>
      <trkpt lat="48.91511" lon="1.90158">
        <ele>181</ele>
        <time>2023-01-29T03:08:06.381Z</time>
      </trkpt>
      <trkpt lat="48.91515" lon="1.90149">
        <ele>181</ele>
        <time>2023-01-29T03:08:10.926Z</time>
      </trkpt>
      <trkpt lat="48.91517" lon="1.90141">
        <ele>181</ele>
        <time>2023-01-29T03:08:14.836Z</time>
      </trkpt>
      <trkpt lat="48.9152" lon="1.90132">
        <ele>181</ele>
        <time>2023-01-29T03:08:19.417Z</time>
      </trkpt>
      <trkpt lat="48.91522" lon="1.90123">
        <ele>179</ele>
        <time>2023-01-29T03:08:23.363Z</time>
      </trkpt>
      <trkpt lat="48.91524" lon="1.90113">
        <ele>179</ele>
        <time>2023-01-29T03:08:27.836Z</time>
      </trkpt>
      <trkpt lat="48.91526" lon="1.90103">
        <ele>179</ele>
        <time>2023-01-29T03:08:31.836Z</time>
      </trkpt>
      <trkpt lat="48.91528" lon="1.90092">
        <ele>177</ele>
        <time>2023-01-29T03:08:35.836Z</time>
      </trkpt>
      <trkpt lat="48.9153" lon="1.90081">
        <ele>177</ele>
        <time>2023-01-29T03:08:40.441Z</time>
      </trkpt>
      <trkpt lat="48.91533" lon="1.90071">
        <ele>177</ele>
        <time>2023-01-29T03:08:44.989Z</time>
      </trkpt>
      <trkpt lat="48.91535" lon="1.90061">
        <ele>176</ele>
        <time>2023-01-29T03:08:49.170Z</time>
      </trkpt>
      <trkpt lat="48.91536" lon="1.90049">
        <ele>176</ele>
        <time>2023-01-29T03:08:53.236Z</time>
      </trkpt>
      <trkpt lat="48.91538" lon="1.90039">
        <ele>178</ele>
        <time>2023-01-29T03:08:57.758Z</time>
      </trkpt>
      <trkpt lat="48.9154" lon="1.90028">
        <ele>178</ele>
        <time>2023-01-29T03:09:01.823Z</time>
      </trkpt>
      <trkpt lat="48.91543" lon="1.90018">
        <ele>181</ele>
        <time>2023-01-29T03:09:05.920Z</time>
      </trkpt>
      <trkpt lat="48.91545" lon="1.90008">
        <ele>182</ele>
        <time>2023-01-29T03:09:09.950Z</time>
      </trkpt>
      <trkpt lat="48.91547" lon="1.89998">
        <ele>182</ele>
        <time>2023-01-29T03:09:14.346Z</time>
      </trkpt>
      <trkpt lat="48.91549" lon="1.8999">
        <ele>182</ele>
        <time>2023-01-29T03:09:18.298Z</time>
      </trkpt>
      <trkpt lat="48.91551" lon="1.89979">
        <ele>181</ele>
        <time>2023-01-29T03:09:22.960Z</time>
      </trkpt>
      <trkpt lat="48.91554" lon="1.89967">
        <ele>181</ele>
        <time>2023-01-29T03:09:27.502Z</time>
      </trkpt>
      <trkpt lat="48.91556" lon="1.89956">
        <ele>179</ele>
        <time>2023-01-29T03:09:32.166Z</time>
      </trkpt>
      <trkpt lat="48.91559" lon="1.89945">
        <ele>179</ele>
        <time>2023-01-29T03:09:36.346Z</time>
      </trkpt>
      <trkpt lat="48.91559" lon="1.89934">
        <ele>179</ele>
        <time>2023-01-29T03:09:40.291Z</time>
      </trkpt>
      <trkpt lat="48.91561" lon="1.89924">
        <ele>177</ele>
        <time>2023-01-29T03:09:44.356Z</time>
      </trkpt>
      <trkpt lat="48.91563" lon="1.89914">
        <ele>177</ele>
        <time>2023-01-29T03:09:48.836Z</time>
      </trkpt>
      <trkpt lat="48.91566" lon="1.89904">
        <ele>177</ele>
        <time>2023-01-29T03:09:52.962Z</time>
      </trkpt>
      <trkpt lat="48.91568" lon="1.89892">
        <ele>176</ele>
        <time>2023-01-29T03:09:57.385Z</time>
      </trkpt>
      <trkpt lat="48.9157" lon="1.89882">
        <ele>177</ele>
        <time>2023-01-29T03:10:01.449Z</time>
      </trkpt>
      <trkpt lat="48.91572" lon="1.89871">
        <ele>177</ele>
        <time>2023-01-29T03:10:06.050Z</time>
      </trkpt>
      <trkpt lat="48.91574" lon="1.8986">
        <ele>177</ele>
        <time>2023-01-29T03:10:10.054Z</time>
      </trkpt>
      <trkpt lat="48.91576" lon="1.89849">
        <ele>177</ele>
        <time>2023-01-29T03:10:14.476Z</time>
      </trkpt>
      <trkpt lat="48.91579" lon="1.89837">
        <ele>178</ele>
        <time>2023-01-29T03:10:19.019Z</time>
      </trkpt>
      <trkpt lat="48.91581" lon="1.89826">
        <ele>178</ele>
        <time>2023-01-29T03:10:23.504Z</time>
      </trkpt>
      <trkpt lat="48.91583" lon="1.89816">
        <ele>178</ele>
        <time>2023-01-29T03:10:27.628Z</time>
      </trkpt>
      <trkpt lat="48.91584" lon="1.89805">
        <ele>178</ele>
        <time>2023-01-29T03:10:32.053Z</time>
      </trkpt>
      <trkpt lat="48.91587" lon="1.89795">
        <ele>178</ele>
        <time>2023-01-29T03:10:35.999Z</time>
      </trkpt>
      <trkpt lat="48.91588" lon="1.89783">
        <ele>179</ele>
        <time>2023-01-29T03:10:40.543Z</time>
      </trkpt>
      <trkpt lat="48.9159" lon="1.89772">
        <ele>179</ele>
        <time>2023-01-29T03:10:44.965Z</time>
      </trkpt>
      <trkpt lat="48.91591" lon="1.8976">
        <ele>179</ele>
        <time>2023-01-29T03:10:49.626Z</time>
      </trkpt>
      <trkpt lat="48.91591" lon="1.8975">
        <ele>179</ele>
        <time>2023-01-29T03:10:53.573Z</time>
      </trkpt>
      <trkpt lat="48.91592" lon="1.89739">
        <ele>179</ele>
        <time>2023-01-29T03:10:57.758Z</time>
      </trkpt>
      <trkpt lat="48.91591" lon="1.89729">
        <ele>179</ele>
        <time>2023-01-29T03:11:01.823Z</time>
      </trkpt>
      <trkpt lat="48.91591" lon="1.89716">
        <ele>179</ele>
        <time>2023-01-29T03:11:06.485Z</time>
      </trkpt>
      <trkpt lat="48.91591" lon="1.89705">
        <ele>178</ele>
        <time>2023-01-29T03:11:11.100Z</time>
      </trkpt>
      <trkpt lat="48.9159" lon="1.89692">
        <ele>178</ele>
        <time>2023-01-29T03:11:15.572Z</time>
      </trkpt>
      <trkpt lat="48.91588" lon="1.89682">
        <ele>178</ele>
        <time>2023-01-29T03:11:19.517Z</time>
      </trkpt>
      <trkpt lat="48.91587" lon="1.8967">
        <ele>177</ele>
        <time>2023-01-29T03:11:24.180Z</time>
      </trkpt>
      <trkpt lat="48.91586" lon="1.89659">
        <ele>177</ele>
        <time>2023-01-29T03:11:28.365Z</time>
      </trkpt>
      <trkpt lat="48.91584" lon="1.89647">
        <ele>177</ele>
        <time>2023-01-29T03:11:32.907Z</time>
      </trkpt>
      <trkpt lat="48.91583" lon="1.89635">
        <ele>177</ele>
        <time>2023-01-29T03:11:37.449Z</time>
      </trkpt>
      <trkpt lat="48.91582" lon="1.89626">
        <ele>177</ele>
        <time>2023-01-29T03:11:41.394Z</time>
      </trkpt>
      <trkpt lat="48.91581" lon="1.89614">
        <ele>177</ele>
        <time>2023-01-29T03:11:45.898Z</time>
      </trkpt>
      <trkpt lat="48.9158" lon="1.89604">
        <ele>177</ele>
        <time>2023-01-29T03:11:49.836Z</time>
      </trkpt>
      <trkpt lat="48.91578" lon="1.89594">
        <ele>177</ele>
        <time>2023-01-29T03:11:54.186Z</time>
      </trkpt>
      <trkpt lat="48.91577" lon="1.89584">
        <ele>177</ele>
        <time>2023-01-29T03:11:58.610Z</time>
      </trkpt>
      <trkpt lat="48.91575" lon="1.89574">
        <ele>177</ele>
        <time>2023-01-29T03:12:02.674Z</time>
      </trkpt>
      <trkpt lat="48.91574" lon="1.89565">
        <ele>178</ele>
        <time>2023-01-29T03:12:07.053Z</time>
      </trkpt>
      <trkpt lat="48.91572" lon="1.89554">
        <ele>178</ele>
        <time>2023-01-29T03:12:11.462Z</time>
      </trkpt>
      <trkpt lat="48.9157" lon="1.89544">
        <ele>178</ele>
        <time>2023-01-29T03:12:15.430Z</time>
      </trkpt>
      <trkpt lat="48.91569" lon="1.89533">
        <ele>178</ele>
        <time>2023-01-29T03:12:19.494Z</time>
      </trkpt>
      <trkpt lat="48.91567" lon="1.89523">
        <ele>178</ele>
        <time>2023-01-29T03:12:24.062Z</time>
      </trkpt>
      <trkpt lat="48.91566" lon="1.89513">
        <ele>179</ele>
        <time>2023-01-29T03:12:28.579Z</time>
      </trkpt>
      <trkpt lat="48.91564" lon="1.89503">
        <ele>179</ele>
        <time>2023-01-29T03:12:32.643Z</time>
      </trkpt>
      <trkpt lat="48.91563" lon="1.89492">
        <ele>179</ele>
        <time>2023-01-29T03:12:36.588Z</time>
      </trkpt>
      <trkpt lat="48.91562" lon="1.89481">
        <ele>179</ele>
        <time>2023-01-29T03:12:40.770Z</time>
      </trkpt>
      <trkpt lat="48.9156" lon="1.89471">
        <ele>179</ele>
        <time>2023-01-29T03:12:44.953Z</time>
      </trkpt>
      <trkpt lat="48.91559" lon="1.89459">
        <ele>179</ele>
        <time>2023-01-29T03:12:49.614Z</time>
      </trkpt>
      <trkpt lat="48.91557" lon="1.89449">
        <ele>179</ele>
        <time>2023-01-29T03:12:53.558Z</time>
      </trkpt>
      <trkpt lat="48.91556" lon="1.89437">
        <ele>179</ele>
        <time>2023-01-29T03:12:58.219Z</time>
      </trkpt>
      <trkpt lat="48.91554" lon="1.89426">
        <ele>178</ele>
        <time>2023-01-29T03:13:02.764Z</time>
      </trkpt>
      <trkpt lat="48.91552" lon="1.89416">
        <ele>178</ele>
        <time>2023-01-29T03:13:06.826Z</time>
      </trkpt>
      <trkpt lat="48.91551" lon="1.89405">
        <ele>178</ele>
        <time>2023-01-29T03:13:11.247Z</time>
      </trkpt>
      <trkpt lat="48.91549" lon="1.89394">
        <ele>179</ele>
        <time>2023-01-29T03:13:15.906Z</time>
      </trkpt>
      <trkpt lat="48.91547" lon="1.89383">
        <ele>179</ele>
        <time>2023-01-29T03:13:20.493Z</time>
      </trkpt>
      <trkpt lat="48.91546" lon="1.89373">
        <ele>180</ele>
        <time>2023-01-29T03:13:24.391Z</time>
      </trkpt>
      <trkpt lat="48.91544" lon="1.89362">
        <ele>180</ele>
        <time>2023-01-29T03:13:28.454Z</time>
      </trkpt>
      <trkpt lat="48.91542" lon="1.8935">
        <ele>180</ele>
        <time>2023-01-29T03:13:33.113Z</time>
      </trkpt>
      <trkpt lat="48.91541" lon="1.89339">
        <ele>181</ele>
        <time>2023-01-29T03:13:37.729Z</time>
      </trkpt>
      <trkpt lat="48.9154" lon="1.8933">
        <ele>181</ele>
        <time>2023-01-29T03:13:41.596Z</time>
      </trkpt>
      <trkpt lat="48.91538" lon="1.89321">
        <ele>181</ele>
        <time>2023-01-29T03:13:45.658Z</time>
      </trkpt>
      <trkpt lat="48.91536" lon="1.89311">
        <ele>181</ele>
        <time>2023-01-29T03:13:50.199Z</time>
      </trkpt>
      <trkpt lat="48.91535" lon="1.893">
        <ele>181</ele>
        <time>2023-01-29T03:13:54.363Z</time>
      </trkpt>
      <trkpt lat="48.91534" lon="1.8929">
        <ele>180</ele>
        <time>2023-01-29T03:13:58.426Z</time>
      </trkpt>
      <trkpt lat="48.91532" lon="1.89279">
        <ele>180</ele>
        <time>2023-01-29T03:14:02.883Z</time>
      </trkpt>
      <trkpt lat="48.9153" lon="1.8927">
        <ele>180</ele>
        <time>2023-01-29T03:14:06.836Z</time>
      </trkpt>
      <trkpt lat="48.91529" lon="1.89259">
        <ele>179</ele>
        <time>2023-01-29T03:14:11.342Z</time>
      </trkpt>
      <trkpt lat="48.91527" lon="1.8925">
        <ele>179</ele>
        <time>2023-01-29T03:14:15.399Z</time>
      </trkpt>
      <trkpt lat="48.91526" lon="1.89241">
        <ele>179</ele>
        <time>2023-01-29T03:14:19.341Z</time>
      </trkpt>
      <trkpt lat="48.91524" lon="1.89229">
        <ele>179</ele>
        <time>2023-01-29T03:14:24Z</time>
      </trkpt>
      <trkpt lat="48.91522" lon="1.89219">
        <ele>179</ele>
        <time>2023-01-29T03:14:28.105Z</time>
      </trkpt>
      <trkpt lat="48.9152" lon="1.89209">
        <ele>179</ele>
        <time>2023-01-29T03:14:32.242Z</time>
      </trkpt>
      <trkpt lat="48.91519" lon="1.89197">
        <ele>178</ele>
        <time>2023-01-29T03:14:36.663Z</time>
      </trkpt>
      <trkpt lat="48.91518" lon="1.89186">
        <ele>178</ele>
        <time>2023-01-29T03:14:41.204Z</time>
      </trkpt>
      <trkpt lat="48.91516" lon="1.89176">
        <ele>178</ele>
        <time>2023-01-29T03:14:45.625Z</time>
      </trkpt>
      <trkpt lat="48.91515" lon="1.89164">
        <ele>178</ele>
        <time>2023-01-29T03:14:50.285Z</time>
      </trkpt>
      <trkpt lat="48.91514" lon="1.89154">
        <ele>178</ele>
        <time>2023-01-29T03:14:54.945Z</time>
      </trkpt>
      <trkpt lat="48.91512" lon="1.89143">
        <ele>177</ele>
        <time>2023-01-29T03:14:59.349Z</time>
      </trkpt>
      <trkpt lat="48.9151" lon="1.89132">
        <ele>177</ele>
        <time>2023-01-29T03:15:03.411Z</time>
      </trkpt>
      <trkpt lat="48.91508" lon="1.89121">
        <ele>177</ele>
        <time>2023-01-29T03:15:07.474Z</time>
      </trkpt>
      <trkpt lat="48.91507" lon="1.8911">
        <ele>177</ele>
        <time>2023-01-29T03:15:11.775Z</time>
      </trkpt>
      <trkpt lat="48.91505" lon="1.89099">
        <ele>177</ele>
        <time>2023-01-29T03:15:16.491Z</time>
      </trkpt>
      <trkpt lat="48.91504" lon="1.89089">
        <ele>177</ele>
        <time>2023-01-29T03:15:20.615Z</time>
      </trkpt>
      <trkpt lat="48.91502" lon="1.89079">
        <ele>177</ele>
        <time>2023-01-29T03:15:24.557Z</time>
      </trkpt>
      <trkpt lat="48.91501" lon="1.89069">
        <ele>178</ele>
        <time>2023-01-29T03:15:29.079Z</time>
      </trkpt>
      <trkpt lat="48.915" lon="1.89058">
        <ele>178</ele>
        <time>2023-01-29T03:15:33.620Z</time>
      </trkpt>
      <trkpt lat="48.91499" lon="1.89048">
        <ele>178</ele>
        <time>2023-01-29T03:15:38.041Z</time>
      </trkpt>
      <trkpt lat="48.91497" lon="1.89037">
        <ele>178</ele>
        <time>2023-01-29T03:15:42.518Z</time>
      </trkpt>
      <trkpt lat="48.91497" lon="1.89027">
        <ele>178</ele>
        <time>2023-01-29T03:15:46.403Z</time>
      </trkpt>
      <trkpt lat="48.91497" lon="1.89016">
        <ele>178</ele>
        <time>2023-01-29T03:15:50.583Z</time>
      </trkpt>
      <trkpt lat="48.91495" lon="1.89005">
        <ele>178</ele>
        <time>2023-01-29T03:15:54.526Z</time>
      </trkpt>
      <trkpt lat="48.91495" lon="1.88992">
        <ele>178</ele>
        <time>2023-01-29T03:15:59.696Z</time>
      </trkpt>
      <trkpt lat="48.91495" lon="1.88981">
        <ele>178</ele>
        <time>2023-01-29T03:16:04.112Z</time>
      </trkpt>
      <trkpt lat="48.91495" lon="1.88971">
        <ele>178</ele>
        <time>2023-01-29T03:16:08.148Z</time>
      </trkpt>
      <trkpt lat="48.91494" lon="1.88961">
        <ele>178</ele>
        <time>2023-01-29T03:16:12.212Z</time>
      </trkpt>
      <trkpt lat="48.91494" lon="1.8895">
        <ele>178</ele>
        <time>2023-01-29T03:16:16.754Z</time>
      </trkpt>
      <trkpt lat="48.91493" lon="1.8894">
        <ele>178</ele>
        <time>2023-01-29T03:16:20.936Z</time>
      </trkpt>
      <trkpt lat="48.91492" lon="1.88929">
        <ele>178</ele>
        <time>2023-01-29T03:16:25.324Z</time>
      </trkpt>
      <trkpt lat="48.91492" lon="1.88919">
        <ele>178</ele>
        <time>2023-01-29T03:16:29.421Z</time>
      </trkpt>
      <trkpt lat="48.91492" lon="1.88908">
        <ele>178</ele>
        <time>2023-01-29T03:16:33.364Z</time>
      </trkpt>
      <trkpt lat="48.91491" lon="1.88897">
        <ele>179</ele>
        <time>2023-01-29T03:16:38.025Z</time>
      </trkpt>
      <trkpt lat="48.91491" lon="1.88887">
        <ele>179</ele>
        <time>2023-01-29T03:16:42.580Z</time>
      </trkpt>
      <trkpt lat="48.91491" lon="1.88876">
        <ele>179</ele>
        <time>2023-01-29T03:16:46.630Z</time>
      </trkpt>
      <trkpt lat="48.9149" lon="1.88866">
        <ele>179</ele>
        <time>2023-01-29T03:16:50.695Z</time>
      </trkpt>
      <trkpt lat="48.9149" lon="1.88855">
        <ele>179</ele>
        <time>2023-01-29T03:16:55.237Z</time>
      </trkpt>
      <trkpt lat="48.91489" lon="1.88844">
        <ele>179</ele>
        <time>2023-01-29T03:16:59.761Z</time>
      </trkpt>
      <trkpt lat="48.91489" lon="1.88834">
        <ele>179</ele>
        <time>2023-01-29T03:17:03.824Z</time>
      </trkpt>
      <trkpt lat="48.91488" lon="1.88822">
        <ele>179</ele>
        <time>2023-01-29T03:17:08.365Z</time>
      </trkpt>
      <trkpt lat="48.91488" lon="1.88813">
        <ele>180</ele>
        <time>2023-01-29T03:17:12.408Z</time>
      </trkpt>
      <trkpt lat="48.91487" lon="1.88802">
        <ele>180</ele>
        <time>2023-01-29T03:17:16.830Z</time>
      </trkpt>
      <trkpt lat="48.91486" lon="1.88791">
        <ele>180</ele>
        <time>2023-01-29T03:17:21.492Z</time>
      </trkpt>
      <trkpt lat="48.91485" lon="1.8878">
        <ele>180</ele>
        <time>2023-01-29T03:17:26.035Z</time>
      </trkpt>
      <trkpt lat="48.91485" lon="1.88769">
        <ele>180</ele>
        <time>2023-01-29T03:17:30.057Z</time>
      </trkpt>
      <trkpt lat="48.91485" lon="1.88757">
        <ele>180</ele>
        <time>2023-01-29T03:17:34.522Z</time>
      </trkpt>
      <trkpt lat="48.91484" lon="1.88747">
        <ele>180</ele>
        <time>2023-01-29T03:17:38.943Z</time>
      </trkpt>
      <trkpt lat="48.91484" lon="1.88737">
        <ele>180</ele>
        <time>2023-01-29T03:17:43.007Z</time>
      </trkpt>
      <trkpt lat="48.91484" lon="1.88727">
        <ele>180</ele>
        <time>2023-01-29T03:17:46.951Z</time>
      </trkpt>
      <trkpt lat="48.91483" lon="1.88716">
        <ele>180</ele>
        <time>2023-01-29T03:17:51.492Z</time>
      </trkpt>
      <trkpt lat="48.91483" lon="1.88705">
        <ele>180</ele>
        <time>2023-01-29T03:17:56.010Z</time>
      </trkpt>
      <trkpt lat="48.91482" lon="1.88694">
        <ele>180</ele>
        <time>2023-01-29T03:17:59.836Z</time>
      </trkpt>
      <trkpt lat="48.91481" lon="1.88683">
        <ele>180</ele>
        <time>2023-01-29T03:18:04.635Z</time>
      </trkpt>
      <trkpt lat="48.91481" lon="1.88673">
        <ele>180</ele>
        <time>2023-01-29T03:18:09.180Z</time>
      </trkpt>
      <trkpt lat="48.91481" lon="1.88662">
        <ele>180</ele>
        <time>2023-01-29T03:18:13.350Z</time>
      </trkpt>
      <trkpt lat="48.9148" lon="1.88653">
        <ele>180</ele>
        <time>2023-01-29T03:18:17.413Z</time>
      </trkpt>
      <trkpt lat="48.9148" lon="1.88641">
        <ele>180</ele>
        <time>2023-01-29T03:18:21.824Z</time>
      </trkpt>
      <trkpt lat="48.9148" lon="1.88631">
        <ele>180</ele>
        <time>2023-01-29T03:18:25.775Z</time>
      </trkpt>
      <trkpt lat="48.91479" lon="1.88622">
        <ele>180</ele>
        <time>2023-01-29T03:18:29.836Z</time>
      </trkpt>
      <trkpt lat="48.91479" lon="1.88608">
        <ele>180</ele>
        <time>2023-01-29T03:18:34.497Z</time>
      </trkpt>
      <trkpt lat="48.91478" lon="1.88597">
        <ele>181</ele>
        <time>2023-01-29T03:18:39.043Z</time>
      </trkpt>
      <trkpt lat="48.91478" lon="1.88585">
        <ele>181</ele>
        <time>2023-01-29T03:18:43.556Z</time>
      </trkpt>
      <trkpt lat="48.91478" lon="1.88574">
        <ele>181</ele>
        <time>2023-01-29T03:18:48.215Z</time>
      </trkpt>
      <trkpt lat="48.91477" lon="1.88565">
        <ele>181</ele>
        <time>2023-01-29T03:18:52.158Z</time>
      </trkpt>
      <trkpt lat="48.91477" lon="1.88555">
        <ele>181</ele>
        <time>2023-01-29T03:18:56.220Z</time>
      </trkpt>
      <trkpt lat="48.91477" lon="1.88543">
        <ele>181</ele>
        <time>2023-01-29T03:19:00.904Z</time>
      </trkpt>
      <trkpt lat="48.91476" lon="1.88534">
        <ele>181</ele>
        <time>2023-01-29T03:19:04.824Z</time>
      </trkpt>
      <trkpt lat="48.91476" lon="1.88524">
        <ele>181</ele>
        <time>2023-01-29T03:19:08.767Z</time>
      </trkpt>
      <trkpt lat="48.91476" lon="1.88513">
        <ele>181</ele>
        <time>2023-01-29T03:19:12.949Z</time>
      </trkpt>
      <trkpt lat="48.91475" lon="1.88502">
        <ele>181</ele>
        <time>2023-01-29T03:19:17.608Z</time>
      </trkpt>
      <trkpt lat="48.91474" lon="1.88491">
        <ele>181</ele>
        <time>2023-01-29T03:19:21.651Z</time>
      </trkpt>
      <trkpt lat="48.91474" lon="1.88481">
        <ele>181</ele>
        <time>2023-01-29T03:19:26.190Z</time>
      </trkpt>
      <trkpt lat="48.91474" lon="1.88471">
        <ele>181</ele>
        <time>2023-01-29T03:19:30.251Z</time>
      </trkpt>
      <trkpt lat="48.91473" lon="1.8846">
        <ele>181</ele>
        <time>2023-01-29T03:19:34.836Z</time>
      </trkpt>
      <trkpt lat="48.91472" lon="1.88449">
        <ele>180</ele>
        <time>2023-01-29T03:19:39.568Z</time>
      </trkpt>
      <trkpt lat="48.9147" lon="1.88437">
        <ele>180</ele>
        <time>2023-01-29T03:19:44.572Z</time>
      </trkpt>
      <trkpt lat="48.91467" lon="1.88426">
        <ele>181</ele>
        <time>2023-01-29T03:19:48.627Z</time>
      </trkpt>
      <trkpt lat="48.91466" lon="1.88417">
        <ele>181</ele>
        <time>2023-01-29T03:19:53.047Z</time>
      </trkpt>
      <trkpt lat="48.91465" lon="1.88407">
        <ele>181</ele>
        <time>2023-01-29T03:19:57.037Z</time>
      </trkpt>
      <trkpt lat="48.91465" lon="1.88395">
        <ele>180</ele>
        <time>2023-01-29T03:20:01.458Z</time>
      </trkpt>
      <trkpt lat="48.91464" lon="1.88385">
        <ele>180</ele>
        <time>2023-01-29T03:20:05.356Z</time>
      </trkpt>
      <trkpt lat="48.91464" lon="1.88375">
        <ele>180</ele>
        <time>2023-01-29T03:20:09.418Z</time>
      </trkpt>
      <trkpt lat="48.91463" lon="1.88364">
        <ele>179</ele>
        <time>2023-01-29T03:20:13.905Z</time>
      </trkpt>
      <trkpt lat="48.91463" lon="1.88354">
        <ele>179</ele>
        <time>2023-01-29T03:20:18.019Z</time>
      </trkpt>
      <trkpt lat="48.91463" lon="1.88343">
        <ele>179</ele>
        <time>2023-01-29T03:20:22.442Z</time>
      </trkpt>
      <trkpt lat="48.91463" lon="1.88332">
        <ele>179</ele>
        <time>2023-01-29T03:20:26.947Z</time>
      </trkpt>
      <trkpt lat="48.91463" lon="1.88322">
        <ele>179</ele>
        <time>2023-01-29T03:20:30.836Z</time>
      </trkpt>
      <trkpt lat="48.91462" lon="1.88312">
        <ele>179</ele>
        <time>2023-01-29T03:20:35.344Z</time>
      </trkpt>
      <trkpt lat="48.91462" lon="1.88301">
        <ele>179</ele>
        <time>2023-01-29T03:20:39.410Z</time>
      </trkpt>
      <trkpt lat="48.91461" lon="1.88291">
        <ele>180</ele>
        <time>2023-01-29T03:20:43.470Z</time>
      </trkpt>
      <trkpt lat="48.9146" lon="1.88281">
        <ele>180</ele>
        <time>2023-01-29T03:20:48.010Z</time>
      </trkpt>
      <trkpt lat="48.9146" lon="1.8827">
        <ele>180</ele>
        <time>2023-01-29T03:20:52.650Z</time>
      </trkpt>
      <trkpt lat="48.9146" lon="1.88259">
        <ele>182</ele>
        <time>2023-01-29T03:20:56.474Z</time>
      </trkpt>
      <trkpt lat="48.91459" lon="1.88249">
        <ele>182</ele>
        <time>2023-01-29T03:21:01.012Z</time>
      </trkpt>
      <trkpt lat="48.91459" lon="1.88238">
        <ele>182</ele>
        <time>2023-01-29T03:21:05.032Z</time>
      </trkpt>
      <trkpt lat="48.91459" lon="1.88227">
        <ele>182</ele>
        <time>2023-01-29T03:21:09.371Z</time>
      </trkpt>
      <trkpt lat="48.9146" lon="1.88216">
        <ele>182</ele>
        <time>2023-01-29T03:21:13.313Z</time>
      </trkpt>
      <trkpt lat="48.91459" lon="1.88206">
        <ele>183</ele>
        <time>2023-01-29T03:21:17.905Z</time>
      </trkpt>
      <trkpt lat="48.9146" lon="1.88196">
        <ele>183</ele>
        <time>2023-01-29T03:21:21.836Z</time>
      </trkpt>
      <trkpt lat="48.91463" lon="1.88185">
        <ele>183</ele>
        <time>2023-01-29T03:21:26.450Z</time>
      </trkpt>
      <trkpt lat="48.91465" lon="1.88174">
        <ele>184</ele>
        <time>2023-01-29T03:21:30.510Z</time>
      </trkpt>
      <trkpt lat="48.91468" lon="1.88165">
        <ele>184</ele>
        <time>2023-01-29T03:21:35.050Z</time>
      </trkpt>
      <trkpt lat="48.91469" lon="1.88153">
        <ele>184</ele>
        <time>2023-01-29T03:21:39.588Z</time>
      </trkpt>
      <trkpt lat="48.91466" lon="1.88145">
        <ele>185</ele>
        <time>2023-01-29T03:21:43.648Z</time>
      </trkpt>
      <trkpt lat="48.91461" lon="1.88138">
        <ele>185</ele>
        <time>2023-01-29T03:21:48.307Z</time>
      </trkpt>
      <trkpt lat="48.91455" lon="1.88134">
        <ele>184</ele>
        <time>2023-01-29T03:21:52.368Z</time>
      </trkpt>
      <trkpt lat="48.91451" lon="1.88127">
        <ele>184</ele>
        <time>2023-01-29T03:21:56.547Z</time>
      </trkpt>
      <trkpt lat="48.91448" lon="1.88118">
        <ele>184</ele>
        <time>2023-01-29T03:22:00.967Z</time>
      </trkpt>
      <trkpt lat="48.91445" lon="1.88108">
        <ele>184</ele>
        <time>2023-01-29T03:22:05.625Z</time>
      </trkpt>
      <trkpt lat="48.91442" lon="1.88099">
        <ele>184</ele>
        <time>2023-01-29T03:22:10.286Z</time>
      </trkpt>
      <trkpt lat="48.91441" lon="1.8809">
        <ele>184</ele>
        <time>2023-01-29T03:22:14.945Z</time>
      </trkpt>
      <trkpt lat="48.91438" lon="1.88081">
        <ele>184</ele>
        <time>2023-01-29T03:22:19.603Z</time>
      </trkpt>
      <trkpt lat="48.91435" lon="1.88071">
        <ele>184</ele>
        <time>2023-01-29T03:22:24.069Z</time>
      </trkpt>
      <trkpt lat="48.91433" lon="1.8806">
        <ele>184</ele>
        <time>2023-01-29T03:22:28.685Z</time>
      </trkpt>
      <trkpt lat="48.91431" lon="1.88051">
        <ele>184</ele>
        <time>2023-01-29T03:22:33.106Z</time>
      </trkpt>
      <trkpt lat="48.91429" lon="1.88038">
        <ele>185</ele>
        <time>2023-01-29T03:22:37.647Z</time>
      </trkpt>
      <trkpt lat="48.91426" lon="1.88028">
        <ele>185</ele>
        <time>2023-01-29T03:22:42.069Z</time>
      </trkpt>
      <trkpt lat="48.91424" lon="1.88019">
        <ele>185</ele>
        <time>2023-01-29T03:22:46.068Z</time>
      </trkpt>
      <trkpt lat="48.91422" lon="1.88009">
        <ele>186</ele>
        <time>2023-01-29T03:22:50.414Z</time>
      </trkpt>
      <trkpt lat="48.9142" lon="1.87997">
        <ele>186</ele>
        <time>2023-01-29T03:22:54.954Z</time>
      </trkpt>
      <trkpt lat="48.91418" lon="1.87986">
        <ele>186</ele>
        <time>2023-01-29T03:22:59.526Z</time>
      </trkpt>
      <trkpt lat="48.91415" lon="1.87977">
        <ele>185</ele>
        <time>2023-01-29T03:23:03.436Z</time>
      </trkpt>
      <trkpt lat="48.91412" lon="1.87968">
        <ele>185</ele>
        <time>2023-01-29T03:23:07.617Z</time>
      </trkpt>
      <trkpt lat="48.91409" lon="1.87958">
        <ele>183</ele>
        <time>2023-01-29T03:23:11.678Z</time>
      </trkpt>
      <trkpt lat="48.91407" lon="1.87946">
        <ele>183</ele>
        <time>2023-01-29T03:23:16.218Z</time>
      </trkpt>
      <trkpt lat="48.91405" lon="1.87935">
        <ele>183</ele>
        <time>2023-01-29T03:23:20.703Z</time>
      </trkpt>
      <trkpt lat="48.91403" lon="1.87924">
        <ele>182</ele>
        <time>2023-01-29T03:23:24.818Z</time>
      </trkpt>
      <trkpt lat="48.91401" lon="1.87911">
        <ele>182</ele>
        <time>2023-01-29T03:23:29.835Z</time>
      </trkpt>
      <trkpt lat="48.91399" lon="1.87902">
        <ele>181</ele>
        <time>2023-01-29T03:23:33.836Z</time>
      </trkpt>
      <trkpt lat="48.91399" lon="1.8789">
        <ele>181</ele>
        <time>2023-01-29T03:23:38.439Z</time>
      </trkpt>
      <trkpt lat="48.91399" lon="1.8788">
        <ele>181</ele>
        <time>2023-01-29T03:23:42.979Z</time>
      </trkpt>
      <trkpt lat="48.914" lon="1.87872">
        <ele>179</ele>
        <time>2023-01-29T03:23:46.836Z</time>
      </trkpt>
      <trkpt lat="48.91401" lon="1.87861">
        <ele>179</ele>
        <time>2023-01-29T03:23:51.463Z</time>
      </trkpt>
      <trkpt lat="48.91402" lon="1.87849">
        <ele>179</ele>
        <time>2023-01-29T03:23:56.005Z</time>
      </trkpt>
      <trkpt lat="48.914" lon="1.87836">
        <ele>177</ele>
        <time>2023-01-29T03:24:00.462Z</time>
      </trkpt>
      <trkpt lat="48.91397" lon="1.87827">
        <ele>177</ele>
        <time>2023-01-29T03:24:04.614Z</time>
      </trkpt>
      <trkpt lat="48.91393" lon="1.87816">
        <ele>175</ele>
        <time>2023-01-29T03:24:08.797Z</time>
      </trkpt>
      <trkpt lat="48.91389" lon="1.87806">
        <ele>175</ele>
        <time>2023-01-29T03:24:13.337Z</time>
      </trkpt>
      <trkpt lat="48.91385" lon="1.87797">
        <ele>175</ele>
        <time>2023-01-29T03:24:17.941Z</time>
      </trkpt>
      <trkpt lat="48.91382" lon="1.87788">
        <ele>173</ele>
        <time>2023-01-29T03:24:21.823Z</time>
      </trkpt>
      <trkpt lat="48.91379" lon="1.87779">
        <ele>173</ele>
        <time>2023-01-29T03:24:26.485Z</time>
      </trkpt>
      <trkpt lat="48.91377" lon="1.87771">
        <ele>173</ele>
        <time>2023-01-29T03:24:31.026Z</time>
      </trkpt>
      <trkpt lat="48.91377" lon="1.87763">
        <ele>172</ele>
        <time>2023-01-29T03:24:35.485Z</time>
      </trkpt>
      <trkpt lat="48.91378" lon="1.87754">
        <ele>172</ele>
        <time>2023-01-29T03:24:39.373Z</time>
      </trkpt>
      <trkpt lat="48.91378" lon="1.87744">
        <ele>172</ele>
        <time>2023-01-29T03:24:43.436Z</time>
      </trkpt>
      <trkpt lat="48.91378" lon="1.87735">
        <ele>169</ele>
        <time>2023-01-29T03:24:47.982Z</time>
      </trkpt>
      <trkpt lat="48.91378" lon="1.87726">
        <ele>169</ele>
        <time>2023-01-29T03:24:52.039Z</time>
      </trkpt>
      <trkpt lat="48.91379" lon="1.87717">
        <ele>169</ele>
        <time>2023-01-29T03:24:55.983Z</time>
      </trkpt>
      <trkpt lat="48.9138" lon="1.87706">
        <ele>167</ele>
        <time>2023-01-29T03:25:00.644Z</time>
      </trkpt>
      <trkpt lat="48.9138" lon="1.87698">
        <ele>167</ele>
        <time>2023-01-29T03:25:05.186Z</time>
      </trkpt>
      <trkpt lat="48.9138" lon="1.8769">
        <ele>167</ele>
        <time>2023-01-29T03:25:09.836Z</time>
      </trkpt>
      <trkpt lat="48.91381" lon="1.87681">
        <ele>167</ele>
        <time>2023-01-29T03:25:14.385Z</time>
      </trkpt>
      <trkpt lat="48.9138" lon="1.87673">
        <ele>162</ele>
        <time>2023-01-29T03:25:19.045Z</time>
      </trkpt>
      <trkpt lat="48.91379" lon="1.87665">
        <ele>162</ele>
        <time>2023-01-29T03:25:23.465Z</time>
      </trkpt>
      <trkpt lat="48.91378" lon="1.87657">
        <ele>162</ele>
        <time>2023-01-29T03:25:27.646Z</time>
      </trkpt>
      <trkpt lat="48.91377" lon="1.87648">
        <ele>157</ele>
        <time>2023-01-29T03:25:32.067Z</time>
      </trkpt>
      <trkpt lat="48.91377" lon="1.87639">
        <ele>157</ele>
        <time>2023-01-29T03:25:36.221Z</time>
      </trkpt>
      <trkpt lat="48.91376" lon="1.87629">
        <ele>157</ele>
        <time>2023-01-29T03:25:40.647Z</time>
      </trkpt>
      <trkpt lat="48.91376" lon="1.87619">
        <ele>153</ele>
        <time>2023-01-29T03:25:45.185Z</time>
      </trkpt>
      <trkpt lat="48.91376" lon="1.87609">
        <ele>153</ele>
        <time>2023-01-29T03:25:49.724Z</time>
      </trkpt>
      <trkpt lat="48.91377" lon="1.87598">
        <ele>153</ele>
        <time>2023-01-29T03:25:54.143Z</time>
      </trkpt>
      <trkpt lat="48.91377" lon="1.87588">
        <ele>151</ele>
        <time>2023-01-29T03:25:58.800Z</time>
      </trkpt>
      <trkpt lat="48.91377" lon="1.87578">
        <ele>151</ele>
        <time>2023-01-29T03:26:03.339Z</time>
      </trkpt>
      <trkpt lat="48.91376" lon="1.87568">
        <ele>148</ele>
        <time>2023-01-29T03:26:07.875Z</time>
      </trkpt>
      <trkpt lat="48.91376" lon="1.87556">
        <ele>148</ele>
        <time>2023-01-29T03:26:11.816Z</time>
      </trkpt>
      <trkpt lat="48.91375" lon="1.87542">
        <ele>145</ele>
        <time>2023-01-29T03:26:16.355Z</time>
      </trkpt>
      <trkpt lat="48.91374" lon="1.87528">
        <ele>143</ele>
        <time>2023-01-29T03:26:20.892Z</time>
      </trkpt>
      <trkpt lat="48.91374" lon="1.87516">
        <ele>143</ele>
        <time>2023-01-29T03:26:25.430Z</time>
      </trkpt>
      <trkpt lat="48.91374" lon="1.87505">
        <ele>142</ele>
        <time>2023-01-29T03:26:29.608Z</time>
      </trkpt>
      <trkpt lat="48.91373" lon="1.87494">
        <ele>142</ele>
        <time>2023-01-29T03:26:34.073Z</time>
      </trkpt>
      <trkpt lat="48.91373" lon="1.87483">
        <ele>141</ele>
        <time>2023-01-29T03:26:38.186Z</time>
      </trkpt>
      <trkpt lat="48.91372" lon="1.87473">
        <ele>141</ele>
        <time>2023-01-29T03:26:42.365Z</time>
      </trkpt>
      <trkpt lat="48.91371" lon="1.87464">
        <ele>141</ele>
        <time>2023-01-29T03:26:46.986Z</time>
      </trkpt>
      <trkpt lat="48.9137" lon="1.87453">
        <ele>140</ele>
        <time>2023-01-29T03:26:51.441Z</time>
      </trkpt>
      <trkpt lat="48.91369" lon="1.87443">
        <ele>140</ele>
        <time>2023-01-29T03:26:55.979Z</time>
      </trkpt>
      <trkpt lat="48.91369" lon="1.87432">
        <ele>140</ele>
        <time>2023-01-29T03:27:00.397Z</time>
      </trkpt>
      <trkpt lat="48.91368" lon="1.87419">
        <ele>137</ele>
        <time>2023-01-29T03:27:04.730Z</time>
      </trkpt>
      <trkpt lat="48.91367" lon="1.87409">
        <ele>137</ele>
        <time>2023-01-29T03:27:08.757Z</time>
      </trkpt>
      <trkpt lat="48.91366" lon="1.87399">
        <ele>133</ele>
        <time>2023-01-29T03:27:13.296Z</time>
      </trkpt>
      <trkpt lat="48.91365" lon="1.87389">
        <ele>133</ele>
        <time>2023-01-29T03:27:17.835Z</time>
      </trkpt>
      <trkpt lat="48.91364" lon="1.87378">
        <ele>133</ele>
        <time>2023-01-29T03:27:22.372Z</time>
      </trkpt>
      <trkpt lat="48.91362" lon="1.87369">
        <ele>131</ele>
        <time>2023-01-29T03:27:27.067Z</time>
      </trkpt>
      <trkpt lat="48.91361" lon="1.87359">
        <ele>131</ele>
        <time>2023-01-29T03:27:31.448Z</time>
      </trkpt>
      <trkpt lat="48.9136" lon="1.87349">
        <ele>131</ele>
        <time>2023-01-29T03:27:35.969Z</time>
      </trkpt>
      <trkpt lat="48.91358" lon="1.8734">
        <ele>131</ele>
        <time>2023-01-29T03:27:40.390Z</time>
      </trkpt>
      <trkpt lat="48.91355" lon="1.87331">
        <ele>131</ele>
        <time>2023-01-29T03:27:45.041Z</time>
      </trkpt>
      <trkpt lat="48.91353" lon="1.87322">
        <ele>131</ele>
        <time>2023-01-29T03:27:49.247Z</time>
      </trkpt>
      <trkpt lat="48.91351" lon="1.87313">
        <ele>130</ele>
        <time>2023-01-29T03:27:53.414Z</time>
      </trkpt>
      <trkpt lat="48.91351" lon="1.87305">
        <ele>130</ele>
        <time>2023-01-29T03:27:57.741Z</time>
      </trkpt>
      <trkpt lat="48.9135" lon="1.87295">
        <ele>130</ele>
        <time>2023-01-29T03:28:01.661Z</time>
      </trkpt>
      <trkpt lat="48.91348" lon="1.87284">
        <ele>128</ele>
        <time>2023-01-29T03:28:06.203Z</time>
      </trkpt>
      <trkpt lat="48.91346" lon="1.87273">
        <ele>125</ele>
        <time>2023-01-29T03:28:10.387Z</time>
      </trkpt>
      <trkpt lat="48.91344" lon="1.87263">
        <ele>124</ele>
        <time>2023-01-29T03:28:14.807Z</time>
      </trkpt>
      <trkpt lat="48.91342" lon="1.87252">
        <ele>124</ele>
        <time>2023-01-29T03:28:19.348Z</time>
      </trkpt>
      <trkpt lat="48.9134" lon="1.87241">
        <ele>124</ele>
        <time>2023-01-29T03:28:23.410Z</time>
      </trkpt>
      <trkpt lat="48.91337" lon="1.87231">
        <ele>123</ele>
        <time>2023-01-29T03:28:27.592Z</time>
      </trkpt>
      <trkpt lat="48.91334" lon="1.87222">
        <ele>123</ele>
        <time>2023-01-29T03:28:32.264Z</time>
      </trkpt>
      <trkpt lat="48.91332" lon="1.87214">
        <ele>123</ele>
        <time>2023-01-29T03:28:36.314Z</time>
      </trkpt>
      <trkpt lat="48.91331" lon="1.87205">
        <ele>122</ele>
        <time>2023-01-29T03:28:40.799Z</time>
      </trkpt>
      <trkpt lat="48.9133" lon="1.87196">
        <ele>122</ele>
        <time>2023-01-29T03:28:44.779Z</time>
      </trkpt>
      <trkpt lat="48.91328" lon="1.87185">
        <ele>122</ele>
        <time>2023-01-29T03:28:49.346Z</time>
      </trkpt>
      <trkpt lat="48.91326" lon="1.87176">
        <ele>121</ele>
        <time>2023-01-29T03:28:53.262Z</time>
      </trkpt>
      <trkpt lat="48.91324" lon="1.87167">
        <ele>121</ele>
        <time>2023-01-29T03:28:57.800Z</time>
      </trkpt>
      <trkpt lat="48.91322" lon="1.87158">
        <ele>121</ele>
        <time>2023-01-29T03:29:01.836Z</time>
      </trkpt>
      <trkpt lat="48.9132" lon="1.87148">
        <ele>120</ele>
        <time>2023-01-29T03:29:06.279Z</time>
      </trkpt>
      <trkpt lat="48.91318" lon="1.87139">
        <ele>117</ele>
        <time>2023-01-29T03:29:10.341Z</time>
      </trkpt>
      <trkpt lat="48.91316" lon="1.87127">
        <ele>117</ele>
        <time>2023-01-29T03:29:14.999Z</time>
      </trkpt>
      <trkpt lat="48.91313" lon="1.87117">
        <ele>115</ele>
        <time>2023-01-29T03:29:19.180Z</time>
      </trkpt>
      <trkpt lat="48.91309" lon="1.87108">
        <ele>115</ele>
        <time>2023-01-29T03:29:23.906Z</time>
      </trkpt>
      <trkpt lat="48.91307" lon="1.87098">
        <ele>115</ele>
        <time>2023-01-29T03:29:28.021Z</time>
      </trkpt>
      <trkpt lat="48.91303" lon="1.87087">
        <ele>116</ele>
        <time>2023-01-29T03:29:32.559Z</time>
      </trkpt>
      <trkpt lat="48.91301" lon="1.87077">
        <ele>116</ele>
        <time>2023-01-29T03:29:37.219Z</time>
      </trkpt>
      <trkpt lat="48.91299" lon="1.87066">
        <ele>116</ele>
        <time>2023-01-29T03:29:41.836Z</time>
      </trkpt>
      <trkpt lat="48.91297" lon="1.87055">
        <ele>116</ele>
        <time>2023-01-29T03:29:46.539Z</time>
      </trkpt>
      <trkpt lat="48.91295" lon="1.87044">
        <ele>116</ele>
        <time>2023-01-29T03:29:51.198Z</time>
      </trkpt>
      <trkpt lat="48.91293" lon="1.87035">
        <ele>115</ele>
        <time>2023-01-29T03:29:55.801Z</time>
      </trkpt>
      <trkpt lat="48.91291" lon="1.87025">
        <ele>113</ele>
        <time>2023-01-29T03:29:59.802Z</time>
      </trkpt>
      <trkpt lat="48.9129" lon="1.87013">
        <ele>110</ele>
        <time>2023-01-29T03:30:04.463Z</time>
      </trkpt>
      <trkpt lat="48.91289" lon="1.87004">
        <ele>110</ele>
        <time>2023-01-29T03:30:08.836Z</time>
      </trkpt>
      <trkpt lat="48.91287" lon="1.86995">
        <ele>110</ele>
        <time>2023-01-29T03:30:13.308Z</time>
      </trkpt>
      <trkpt lat="48.91288" lon="1.86985">
        <ele>108</ele>
        <time>2023-01-29T03:30:17.836Z</time>
      </trkpt>
      <trkpt lat="48.91287" lon="1.86975">
        <ele>108</ele>
        <time>2023-01-29T03:30:21.836Z</time>
      </trkpt>
      <trkpt lat="48.91286" lon="1.86964">
        <ele>108</ele>
        <time>2023-01-29T03:30:26.456Z</time>
      </trkpt>
      <trkpt lat="48.91285" lon="1.86954">
        <ele>107</ele>
        <time>2023-01-29T03:30:30.638Z</time>
      </trkpt>
      <trkpt lat="48.91283" lon="1.86943">
        <ele>107</ele>
        <time>2023-01-29T03:30:35.141Z</time>
      </trkpt>
      <trkpt lat="48.91281" lon="1.86933">
        <ele>107</ele>
        <time>2023-01-29T03:30:39.681Z</time>
      </trkpt>
      <trkpt lat="48.9128" lon="1.86923">
        <ele>106</ele>
        <time>2023-01-29T03:30:44.409Z</time>
      </trkpt>
      <trkpt lat="48.91277" lon="1.86914">
        <ele>106</ele>
        <time>2023-01-29T03:30:48.386Z</time>
      </trkpt>
      <trkpt lat="48.91276" lon="1.86905">
        <ele>106</ele>
        <time>2023-01-29T03:30:53.046Z</time>
      </trkpt>
      <trkpt lat="48.91274" lon="1.86896">
        <ele>105</ele>
        <time>2023-01-29T03:30:57.108Z</time>
      </trkpt>
      <trkpt lat="48.91272" lon="1.86885">
        <ele>105</ele>
        <time>2023-01-29T03:31:01.648Z</time>
      </trkpt>
      <trkpt lat="48.9127" lon="1.86875">
        <ele>103</ele>
        <time>2023-01-29T03:31:06.188Z</time>
      </trkpt>
      <trkpt lat="48.91268" lon="1.86866">
        <ele>103</ele>
        <time>2023-01-29T03:31:10.250Z</time>
      </trkpt>
      <trkpt lat="48.91265" lon="1.86856">
        <ele>103</ele>
        <time>2023-01-29T03:31:14.791Z</time>
      </trkpt>
      <trkpt lat="48.91263" lon="1.86846">
        <ele>102</ele>
        <time>2023-01-29T03:31:18.836Z</time>
      </trkpt>
      <trkpt lat="48.9126" lon="1.86836">
        <ele>102</ele>
        <time>2023-01-29T03:31:23.600Z</time>
      </trkpt>
      <trkpt lat="48.91258" lon="1.86826">
        <ele>102</ele>
        <time>2023-01-29T03:31:27.459Z</time>
      </trkpt>
      <trkpt lat="48.91255" lon="1.86818">
        <ele>102</ele>
        <time>2023-01-29T03:31:32.001Z</time>
      </trkpt>
      <trkpt lat="48.91251" lon="1.8681">
        <ele>102</ele>
        <time>2023-01-29T03:31:35.944Z</time>
      </trkpt>
      <trkpt lat="48.91249" lon="1.86801">
        <ele>102</ele>
        <time>2023-01-29T03:31:39.888Z</time>
      </trkpt>
      <trkpt lat="48.91246" lon="1.86791">
        <ele>102</ele>
        <time>2023-01-29T03:31:44.430Z</time>
      </trkpt>
      <trkpt lat="48.91243" lon="1.86782">
        <ele>102</ele>
        <time>2023-01-29T03:31:48.855Z</time>
      </trkpt>
      <trkpt lat="48.91239" lon="1.86774">
        <ele>102</ele>
        <time>2023-01-29T03:31:53.046Z</time>
      </trkpt>
      <trkpt lat="48.91235" lon="1.86765">
        <ele>100</ele>
        <time>2023-01-29T03:31:57.465Z</time>
      </trkpt>
      <trkpt lat="48.91232" lon="1.86756">
        <ele>100</ele>
        <time>2023-01-29T03:32:01.572Z</time>
      </trkpt>
      <trkpt lat="48.91229" lon="1.86747">
        <ele>100</ele>
        <time>2023-01-29T03:32:05.468Z</time>
      </trkpt>
      <trkpt lat="48.91225" lon="1.86737">
        <ele>100</ele>
        <time>2023-01-29T03:32:10.008Z</time>
      </trkpt>
      <trkpt lat="48.91222" lon="1.86726">
        <ele>99</ele>
        <time>2023-01-29T03:32:14.549Z</time>
      </trkpt>
      <trkpt lat="48.91219" lon="1.86717">
        <ele>99</ele>
        <time>2023-01-29T03:32:18.612Z</time>
      </trkpt>
      <trkpt lat="48.91216" lon="1.86706">
        <ele>100</ele>
        <time>2023-01-29T03:32:23.631Z</time>
      </trkpt>
      <trkpt lat="48.91213" lon="1.86696">
        <ele>100</ele>
        <time>2023-01-29T03:32:28.292Z</time>
      </trkpt>
      <trkpt lat="48.91211" lon="1.86686">
        <ele>100</ele>
        <time>2023-01-29T03:32:32.914Z</time>
      </trkpt>
      <trkpt lat="48.91209" lon="1.86677">
        <ele>100</ele>
        <time>2023-01-29T03:32:36.836Z</time>
      </trkpt>
      <trkpt lat="48.91206" lon="1.86668">
        <ele>97</ele>
        <time>2023-01-29T03:32:40.957Z</time>
      </trkpt>
      <trkpt lat="48.91203" lon="1.86657">
        <ele>97</ele>
        <time>2023-01-29T03:32:45.499Z</time>
      </trkpt>
      <trkpt lat="48.91201" lon="1.86647">
        <ele>97</ele>
        <time>2023-01-29T03:32:50.066Z</time>
      </trkpt>
      <trkpt lat="48.91199" lon="1.86636">
        <ele>97</ele>
        <time>2023-01-29T03:32:54.579Z</time>
      </trkpt>
      <trkpt lat="48.91195" lon="1.86627">
        <ele>97</ele>
        <time>2023-01-29T03:32:59.237Z</time>
      </trkpt>
      <trkpt lat="48.91195" lon="1.86618">
        <ele>96</ele>
        <time>2023-01-29T03:33:03.402Z</time>
      </trkpt>
      <trkpt lat="48.91193" lon="1.86607">
        <ele>96</ele>
        <time>2023-01-29T03:33:07.361Z</time>
      </trkpt>
      <trkpt lat="48.91191" lon="1.86597">
        <ele>96</ele>
        <time>2023-01-29T03:33:12.021Z</time>
      </trkpt>
      <trkpt lat="48.91189" lon="1.86588">
        <ele>96</ele>
        <time>2023-01-29T03:33:15.964Z</time>
      </trkpt>
      <trkpt lat="48.91185" lon="1.86577">
        <ele>96</ele>
        <time>2023-01-29T03:33:20.504Z</time>
      </trkpt>
      <trkpt lat="48.91182" lon="1.86569">
        <ele>95</ele>
        <time>2023-01-29T03:33:25.045Z</time>
      </trkpt>
      <trkpt lat="48.91179" lon="1.8656">
        <ele>93</ele>
        <time>2023-01-29T03:33:29.584Z</time>
      </trkpt>
      <trkpt lat="48.91176" lon="1.86551">
        <ele>93</ele>
        <time>2023-01-29T03:33:33.645Z</time>
      </trkpt>
      <trkpt lat="48.91174" lon="1.86541">
        <ele>92</ele>
        <time>2023-01-29T03:33:38.167Z</time>
      </trkpt>
      <trkpt lat="48.91171" lon="1.86532">
        <ele>92</ele>
        <time>2023-01-29T03:33:42.351Z</time>
      </trkpt>
      <trkpt lat="48.91167" lon="1.86523">
        <ele>92</ele>
        <time>2023-01-29T03:33:46.962Z</time>
      </trkpt>
      <trkpt lat="48.91164" lon="1.86514">
        <ele>92</ele>
        <time>2023-01-29T03:33:50.954Z</time>
      </trkpt>
      <trkpt lat="48.91161" lon="1.86505">
        <ele>91</ele>
        <time>2023-01-29T03:33:55.615Z</time>
      </trkpt>
      <trkpt lat="48.91158" lon="1.86496">
        <ele>91</ele>
        <time>2023-01-29T03:34:00.082Z</time>
      </trkpt>
      <trkpt lat="48.91155" lon="1.86488">
        <ele>91</ele>
        <time>2023-01-29T03:34:03.959Z</time>
      </trkpt>
      <trkpt lat="48.91153" lon="1.8648">
        <ele>87</ele>
        <time>2023-01-29T03:34:08.020Z</time>
      </trkpt>
      <trkpt lat="48.91149" lon="1.8647">
        <ele>87</ele>
        <time>2023-01-29T03:34:12.440Z</time>
      </trkpt>
      <trkpt lat="48.91146" lon="1.8646">
        <ele>87</ele>
        <time>2023-01-29T03:34:17.098Z</time>
      </trkpt>
      <trkpt lat="48.91143" lon="1.86451">
        <ele>86</ele>
        <time>2023-01-29T03:34:21.280Z</time>
      </trkpt>
      <trkpt lat="48.91139" lon="1.86442">
        <ele>86</ele>
        <time>2023-01-29T03:34:25.800Z</time>
      </trkpt>
      <trkpt lat="48.91137" lon="1.86433">
        <ele>86</ele>
        <time>2023-01-29T03:34:30.337Z</time>
      </trkpt>
      <trkpt lat="48.91134" lon="1.86425">
        <ele>85</ele>
        <time>2023-01-29T03:34:34.757Z</time>
      </trkpt>
      <trkpt lat="48.9113" lon="1.86415">
        <ele>85</ele>
        <time>2023-01-29T03:34:39.147Z</time>
      </trkpt>
      <trkpt lat="48.91127" lon="1.86405">
        <ele>85</ele>
        <time>2023-01-29T03:34:43.595Z</time>
      </trkpt>
      <trkpt lat="48.91124" lon="1.86396">
        <ele>77</ele>
        <time>2023-01-29T03:34:48.044Z</time>
      </trkpt>
      <trkpt lat="48.9112" lon="1.86388">
        <ele>77</ele>
        <time>2023-01-29T03:34:51.956Z</time>
      </trkpt>
      <trkpt lat="48.91116" lon="1.86379">
        <ele>77</ele>
        <time>2023-01-29T03:34:56.493Z</time>
      </trkpt>
      <trkpt lat="48.91113" lon="1.8637">
        <ele>79</ele>
        <time>2023-01-29T03:35:01.074Z</time>
      </trkpt>
      <trkpt lat="48.91109" lon="1.86361">
        <ele>79</ele>
        <time>2023-01-29T03:35:05.689Z</time>
      </trkpt>
      <trkpt lat="48.91106" lon="1.86353">
        <ele>79</ele>
        <time>2023-01-29T03:35:10.180Z</time>
      </trkpt>
      <trkpt lat="48.91102" lon="1.86343">
        <ele>81</ele>
        <time>2023-01-29T03:35:14.647Z</time>
      </trkpt>
      <trkpt lat="48.91098" lon="1.86334">
        <ele>81</ele>
        <time>2023-01-29T03:35:19.665Z</time>
      </trkpt>
      <trkpt lat="48.91094" lon="1.86326">
        <ele>75</ele>
        <time>2023-01-29T03:35:24.203Z</time>
      </trkpt>
      <trkpt lat="48.9109" lon="1.86318">
        <ele>76</ele>
        <time>2023-01-29T03:35:28.622Z</time>
      </trkpt>
      <trkpt lat="48.91086" lon="1.86311">
        <ele>76</ele>
        <time>2023-01-29T03:35:32.564Z</time>
      </trkpt>
      <trkpt lat="48.91082" lon="1.86301">
        <ele>76</ele>
        <time>2023-01-29T03:35:37.204Z</time>
      </trkpt>
      <trkpt lat="48.91079" lon="1.86293">
        <ele>76</ele>
        <time>2023-01-29T03:35:41.826Z</time>
      </trkpt>
      <trkpt lat="48.91075" lon="1.86284">
        <ele>78</ele>
        <time>2023-01-29T03:35:45.804Z</time>
      </trkpt>
      <trkpt lat="48.91072" lon="1.86275">
        <ele>78</ele>
        <time>2023-01-29T03:35:50.468Z</time>
      </trkpt>
      <trkpt lat="48.91068" lon="1.86267">
        <ele>73</ele>
        <time>2023-01-29T03:35:54.642Z</time>
      </trkpt>
      <trkpt lat="48.91064" lon="1.86258">
        <ele>75</ele>
        <time>2023-01-29T03:35:59.299Z</time>
      </trkpt>
      <trkpt lat="48.91059" lon="1.86251">
        <ele>75</ele>
        <time>2023-01-29T03:36:03.954Z</time>
      </trkpt>
      <trkpt lat="48.91054" lon="1.86244">
        <ele>75</ele>
        <time>2023-01-29T03:36:08.370Z</time>
      </trkpt>
      <trkpt lat="48.9105" lon="1.86238">
        <ele>75</ele>
        <time>2023-01-29T03:36:12.192Z</time>
      </trkpt>
      <trkpt lat="48.91046" lon="1.86229">
        <ele>77</ele>
        <time>2023-01-29T03:36:16.920Z</time>
      </trkpt>
      <trkpt lat="48.91041" lon="1.86221">
        <ele>70</ele>
        <time>2023-01-29T03:36:21.033Z</time>
      </trkpt>
      <trkpt lat="48.91037" lon="1.86214">
        <ele>70</ele>
        <time>2023-01-29T03:36:25.166Z</time>
      </trkpt>
      <trkpt lat="48.91033" lon="1.86204">
        <ele>73</ele>
        <time>2023-01-29T03:36:29.632Z</time>
      </trkpt>
      <trkpt lat="48.91029" lon="1.86195">
        <ele>73</ele>
        <time>2023-01-29T03:36:34.290Z</time>
      </trkpt>
      <trkpt lat="48.91025" lon="1.86187">
        <ele>73</ele>
        <time>2023-01-29T03:36:38.828Z</time>
      </trkpt>
      <trkpt lat="48.91022" lon="1.86179">
        <ele>74</ele>
        <time>2023-01-29T03:36:43.008Z</time>
      </trkpt>
      <trkpt lat="48.91018" lon="1.8617">
        <ele>74</ele>
        <time>2023-01-29T03:36:47.546Z</time>
      </trkpt>
      <trkpt lat="48.91014" lon="1.86161">
        <ele>74</ele>
        <time>2023-01-29T03:36:52.052Z</time>
      </trkpt>
      <trkpt lat="48.9101" lon="1.86153">
        <ele>66</ele>
        <time>2023-01-29T03:36:56.505Z</time>
      </trkpt>
      <trkpt lat="48.91007" lon="1.86145">
        <ele>66</ele>
        <time>2023-01-29T03:37:01.150Z</time>
      </trkpt>
      <trkpt lat="48.91003" lon="1.86137">
        <ele>66</ele>
        <time>2023-01-29T03:37:05.107Z</time>
      </trkpt>
      <trkpt lat="48.90999" lon="1.86128">
        <ele>66</ele>
        <time>2023-01-29T03:37:09.647Z</time>
      </trkpt>
      <trkpt lat="48.90994" lon="1.86121">
        <ele>66</ele>
        <time>2023-01-29T03:37:13.939Z</time>
      </trkpt>
      <trkpt lat="48.9099" lon="1.86114">
        <ele>66</ele>
        <time>2023-01-29T03:37:18.002Z</time>
      </trkpt>
      <trkpt lat="48.90986" lon="1.86106">
        <ele>66</ele>
        <time>2023-01-29T03:37:22.542Z</time>
      </trkpt>
      <trkpt lat="48.90983" lon="1.86098">
        <ele>60</ele>
        <time>2023-01-29T03:37:27.039Z</time>
      </trkpt>
      <trkpt lat="48.90979" lon="1.8609">
        <ele>61</ele>
        <time>2023-01-29T03:37:31.622Z</time>
      </trkpt>
      <trkpt lat="48.90975" lon="1.86081">
        <ele>61</ele>
        <time>2023-01-29T03:37:36.067Z</time>
      </trkpt>
      <trkpt lat="48.90973" lon="1.86073">
        <ele>61</ele>
        <time>2023-01-29T03:37:40.080Z</time>
      </trkpt>
      <trkpt lat="48.90972" lon="1.86063">
        <ele>63</ele>
        <time>2023-01-29T03:37:44.046Z</time>
      </trkpt>
      <trkpt lat="48.9097" lon="1.86055">
        <ele>63</ele>
        <time>2023-01-29T03:37:48.229Z</time>
      </trkpt>
      <trkpt lat="48.90967" lon="1.86044">
        <ele>63</ele>
        <time>2023-01-29T03:37:52.651Z</time>
      </trkpt>
      <trkpt lat="48.90966" lon="1.86034">
        <ele>64</ele>
        <time>2023-01-29T03:37:57.344Z</time>
      </trkpt>
      <trkpt lat="48.90965" lon="1.86024">
        <ele>64</ele>
        <time>2023-01-29T03:38:01.836Z</time>
      </trkpt>
      <trkpt lat="48.90963" lon="1.86014">
        <ele>64</ele>
        <time>2023-01-29T03:38:06.486Z</time>
      </trkpt>
      <trkpt lat="48.90961" lon="1.86005">
        <ele>64</ele>
        <time>2023-01-29T03:38:10.913Z</time>
      </trkpt>
      <trkpt lat="48.9096" lon="1.85996">
        <ele>64</ele>
        <time>2023-01-29T03:38:14.975Z</time>
      </trkpt>
      <trkpt lat="48.90959" lon="1.85985">
        <ele>61</ele>
        <time>2023-01-29T03:38:19.494Z</time>
      </trkpt>
      <trkpt lat="48.90958" lon="1.85976">
        <ele>55</ele>
        <time>2023-01-29T03:38:24.032Z</time>
      </trkpt>
      <trkpt lat="48.90957" lon="1.85966">
        <ele>55</ele>
        <time>2023-01-29T03:38:28.210Z</time>
      </trkpt>
      <trkpt lat="48.90958" lon="1.85955">
        <ele>53</ele>
        <time>2023-01-29T03:38:32.780Z</time>
      </trkpt>
      <trkpt lat="48.90958" lon="1.85945">
        <ele>53</ele>
        <time>2023-01-29T03:38:36.688Z</time>
      </trkpt>
      <trkpt lat="48.90958" lon="1.85935">
        <ele>53</ele>
        <time>2023-01-29T03:38:41.319Z</time>
      </trkpt>
      <trkpt lat="48.90958" lon="1.85924">
        <ele>50</ele>
        <time>2023-01-29T03:38:45.286Z</time>
      </trkpt>
      <trkpt lat="48.90958" lon="1.85914">
        <ele>50</ele>
        <time>2023-01-29T03:38:49.821Z</time>
      </trkpt>
      <trkpt lat="48.90959" lon="1.85905">
        <ele>54</ele>
        <time>2023-01-29T03:38:53.769Z</time>
      </trkpt>
      <trkpt lat="48.90958" lon="1.85892">
        <ele>49</ele>
        <time>2023-01-29T03:38:58.958Z</time>
      </trkpt>
      <trkpt lat="48.90959" lon="1.85881">
        <ele>52</ele>
        <time>2023-01-29T03:39:02.836Z</time>
      </trkpt>
      <trkpt lat="48.9096" lon="1.8587">
        <ele>50</ele>
        <time>2023-01-29T03:39:07.628Z</time>
      </trkpt>
      <trkpt lat="48.90962" lon="1.8586">
        <ele>50</ele>
        <time>2023-01-29T03:39:12.166Z</time>
      </trkpt>
      <trkpt lat="48.90964" lon="1.8585">
        <ele>50</ele>
        <time>2023-01-29T03:39:16.824Z</time>
      </trkpt>
      <trkpt lat="48.90966" lon="1.85842">
        <ele>48</ele>
        <time>2023-01-29T03:39:21.004Z</time>
      </trkpt>
      <trkpt lat="48.9097" lon="1.85833">
        <ele>48</ele>
        <time>2023-01-29T03:39:25.468Z</time>
      </trkpt>
      <trkpt lat="48.90973" lon="1.85825">
        <ele>48</ele>
        <time>2023-01-29T03:39:29.606Z</time>
      </trkpt>
      <trkpt lat="48.90978" lon="1.85818">
        <ele>45</ele>
        <time>2023-01-29T03:39:34.025Z</time>
      </trkpt>
      <trkpt lat="48.90982" lon="1.8581">
        <ele>45</ele>
        <time>2023-01-29T03:39:38.085Z</time>
      </trkpt>
      <trkpt lat="48.90986" lon="1.85803">
        <ele>45</ele>
        <time>2023-01-29T03:39:42.146Z</time>
      </trkpt>
      <trkpt lat="48.9099" lon="1.85795">
        <ele>48</ele>
        <time>2023-01-29T03:39:46.185Z</time>
      </trkpt>
      <trkpt lat="48.90996" lon="1.85787">
        <ele>45</ele>
        <time>2023-01-29T03:39:50.723Z</time>
      </trkpt>
      <trkpt lat="48.91001" lon="1.85779">
        <ele>45</ele>
        <time>2023-01-29T03:39:54.663Z</time>
      </trkpt>
      <trkpt lat="48.91005" lon="1.8577">
        <ele>45</ele>
        <time>2023-01-29T03:39:59.322Z</time>
      </trkpt>
      <trkpt lat="48.9101" lon="1.85762">
        <ele>44</ele>
        <time>2023-01-29T03:40:03.264Z</time>
      </trkpt>
      <trkpt lat="48.91015" lon="1.85754">
        <ele>46</ele>
        <time>2023-01-29T03:40:07.666Z</time>
      </trkpt>
      <trkpt lat="48.91019" lon="1.85747">
        <ele>46</ele>
        <time>2023-01-29T03:40:11.624Z</time>
      </trkpt>
      <trkpt lat="48.91023" lon="1.85739">
        <ele>46</ele>
        <time>2023-01-29T03:40:16.077Z</time>
      </trkpt>
      <trkpt lat="48.91027" lon="1.85732">
        <ele>45</ele>
        <time>2023-01-29T03:40:20.226Z</time>
      </trkpt>
      <trkpt lat="48.91031" lon="1.85725">
        <ele>45</ele>
        <time>2023-01-29T03:40:24.406Z</time>
      </trkpt>
      <trkpt lat="48.91035" lon="1.85717">
        <ele>45</ele>
        <time>2023-01-29T03:40:28.945Z</time>
      </trkpt>
      <trkpt lat="48.9104" lon="1.85708">
        <ele>45</ele>
        <time>2023-01-29T03:40:33.483Z</time>
      </trkpt>
      <trkpt lat="48.91043" lon="1.85702">
        <ele>45</ele>
        <time>2023-01-29T03:40:37.907Z</time>
      </trkpt>
      <trkpt lat="48.91048" lon="1.85695">
        <ele>45</ele>
        <time>2023-01-29T03:40:41.836Z</time>
      </trkpt>
      <trkpt lat="48.91053" lon="1.85686">
        <ele>45</ele>
        <time>2023-01-29T03:40:46.624Z</time>
      </trkpt>
      <trkpt lat="48.91058" lon="1.85678">
        <ele>45</ele>
        <time>2023-01-29T03:40:51.288Z</time>
      </trkpt>
      <trkpt lat="48.91062" lon="1.8567">
        <ele>45</ele>
        <time>2023-01-29T03:40:55.224Z</time>
      </trkpt>
      <trkpt lat="48.91066" lon="1.85662">
        <ele>45</ele>
        <time>2023-01-29T03:40:59.925Z</time>
      </trkpt>
      <trkpt lat="48.9107" lon="1.85656">
        <ele>46</ele>
        <time>2023-01-29T03:41:03.944Z</time>
      </trkpt>
      <trkpt lat="48.91074" lon="1.8565">
        <ele>45</ele>
        <time>2023-01-29T03:41:08.007Z</time>
      </trkpt>
      <trkpt lat="48.91078" lon="1.85642">
        <ele>45</ele>
        <time>2023-01-29T03:41:12.182Z</time>
      </trkpt>
      <trkpt lat="48.91082" lon="1.85635">
        <ele>45</ele>
        <time>2023-01-29T03:41:16.543Z</time>
      </trkpt>
      <trkpt lat="48.91087" lon="1.85629">
        <ele>45</ele>
        <time>2023-01-29T03:41:20.550Z</time>
      </trkpt>
      <trkpt lat="48.91091" lon="1.85621">
        <ele>44</ele>
        <time>2023-01-29T03:41:25.206Z</time>
      </trkpt>
      <trkpt lat="48.91096" lon="1.85614">
        <ele>44</ele>
        <time>2023-01-29T03:41:29.625Z</time>
      </trkpt>
      <trkpt lat="48.91099" lon="1.85605">
        <ele>44</ele>
        <time>2023-01-29T03:41:34.044Z</time>
      </trkpt>
      <trkpt lat="48.91101" lon="1.85595">
        <ele>43</ele>
        <time>2023-01-29T03:41:38.465Z</time>
      </trkpt>
      <trkpt lat="48.91105" lon="1.85588">
        <ele>43</ele>
        <time>2023-01-29T03:41:43.008Z</time>
      </trkpt>
      <trkpt lat="48.91108" lon="1.85576">
        <ele>43</ele>
        <time>2023-01-29T03:41:47.557Z</time>
      </trkpt>
      <trkpt lat="48.91111" lon="1.85566">
        <ele>43</ele>
        <time>2023-01-29T03:41:52.264Z</time>
      </trkpt>
      <trkpt lat="48.91114" lon="1.85557">
        <ele>43</ele>
        <time>2023-01-29T03:41:56.962Z</time>
      </trkpt>
      <trkpt lat="48.91117" lon="1.85548">
        <ele>43</ele>
        <time>2023-01-29T03:42:01.056Z</time>
      </trkpt>
      <trkpt lat="48.9112" lon="1.85538">
        <ele>42</ele>
        <time>2023-01-29T03:42:05.459Z</time>
      </trkpt>
      <trkpt lat="48.91124" lon="1.85529">
        <ele>42</ele>
        <time>2023-01-29T03:42:10.006Z</time>
      </trkpt>
      <trkpt lat="48.91128" lon="1.85522">
        <ele>43</ele>
        <time>2023-01-29T03:42:14.192Z</time>
      </trkpt>
      <trkpt lat="48.91134" lon="1.85515">
        <ele>43</ele>
        <time>2023-01-29T03:42:18.380Z</time>
      </trkpt>
      <trkpt lat="48.91139" lon="1.85509">
        <ele>40</ele>
        <time>2023-01-29T03:42:22.447Z</time>
      </trkpt>
      <trkpt lat="48.91144" lon="1.85503">
        <ele>40</ele>
        <time>2023-01-29T03:42:26.992Z</time>
      </trkpt>
      <trkpt lat="48.9115" lon="1.85498">
        <ele>40</ele>
        <time>2023-01-29T03:42:31.177Z</time>
      </trkpt>
      <trkpt lat="48.91155" lon="1.85494">
        <ele>43</ele>
        <time>2023-01-29T03:42:35.600Z</time>
      </trkpt>
      <trkpt lat="48.9116" lon="1.85489">
        <ele>43</ele>
        <time>2023-01-29T03:42:40.051Z</time>
      </trkpt>
      <trkpt lat="48.91165" lon="1.85484">
        <ele>40</ele>
        <time>2023-01-29T03:42:44.567Z</time>
      </trkpt>
      <trkpt lat="48.91171" lon="1.85479">
        <ele>40</ele>
        <time>2023-01-29T03:42:48.633Z</time>
      </trkpt>
      <trkpt lat="48.91175" lon="1.85475">
        <ele>40</ele>
        <time>2023-01-29T03:42:53.342Z</time>
      </trkpt>
      <trkpt lat="48.91181" lon="1.8547">
        <ele>44</ele>
        <time>2023-01-29T03:42:57.898Z</time>
      </trkpt>
      <trkpt lat="48.91185" lon="1.85465">
        <ele>44</ele>
        <time>2023-01-29T03:43:01.836Z</time>
      </trkpt>
      <trkpt lat="48.91191" lon="1.85458">
        <ele>42</ele>
        <time>2023-01-29T03:43:06.565Z</time>
      </trkpt>
      <trkpt lat="48.91196" lon="1.85452">
        <ele>42</ele>
        <time>2023-01-29T03:43:10.628Z</time>
      </trkpt>
      <trkpt lat="48.912" lon="1.85443">
        <ele>42</ele>
        <time>2023-01-29T03:43:14.813Z</time>
      </trkpt>
      <trkpt lat="48.91201" lon="1.85432">
        <ele>42</ele>
        <time>2023-01-29T03:43:18.998Z</time>
      </trkpt>
      <trkpt lat="48.912" lon="1.85422">
        <ele>40</ele>
        <time>2023-01-29T03:43:23.444Z</time>
      </trkpt>
      <trkpt lat="48.91198" lon="1.85411">
        <ele>40</ele>
        <time>2023-01-29T03:43:27.484Z</time>
      </trkpt>
      <trkpt lat="48.91197" lon="1.85401">
        <ele>38</ele>
        <time>2023-01-29T03:43:32.126Z</time>
      </trkpt>
      <trkpt lat="48.91196" lon="1.85392">
        <ele>38</ele>
        <time>2023-01-29T03:43:36.705Z</time>
      </trkpt>
      <trkpt lat="48.91193" lon="1.85383">
        <ele>38</ele>
        <time>2023-01-29T03:43:40.617Z</time>
      </trkpt>
      <trkpt lat="48.91191" lon="1.85375">
        <ele>37</ele>
        <time>2023-01-29T03:43:45.321Z</time>
      </trkpt>
      <trkpt lat="48.91188" lon="1.85365">
        <ele>37</ele>
        <time>2023-01-29T03:43:49.663Z</time>
      </trkpt>
      <trkpt lat="48.91192" lon="1.85356">
        <ele>37</ele>
        <time>2023-01-29T03:43:53.647Z</time>
      </trkpt>
      <trkpt lat="48.91196" lon="1.85346">
        <ele>36</ele>
        <time>2023-01-29T03:43:58.173Z</time>
      </trkpt>
      <trkpt lat="48.912" lon="1.85338">
        <ele>36</ele>
        <time>2023-01-29T03:44:02.960Z</time>
      </trkpt>
      <trkpt lat="48.91205" lon="1.85332">
        <ele>36</ele>
        <time>2023-01-29T03:44:07.069Z</time>
      </trkpt>
      <trkpt lat="48.9121" lon="1.85332">
        <ele>35</ele>
        <time>2023-01-29T03:44:11.077Z</time>
      </trkpt>
      <trkpt lat="48.91217" lon="1.85327">
        <ele>35</ele>
        <time>2023-01-29T03:44:15.631Z</time>
      </trkpt>
      <trkpt lat="48.91225" lon="1.85324">
        <ele>35</ele>
        <time>2023-01-29T03:44:20.653Z</time>
      </trkpt>
      <trkpt lat="48.91231" lon="1.8532">
        <ele>35</ele>
        <time>2023-01-29T03:44:25.197Z</time>
      </trkpt>
      <trkpt lat="48.91236" lon="1.85311">
        <ele>35</ele>
        <time>2023-01-29T03:44:29.979Z</time>
      </trkpt>
      <trkpt lat="48.91241" lon="1.85299">
        <ele>34</ele>
        <time>2023-01-29T03:44:34.642Z</time>
      </trkpt>
      <trkpt lat="48.91244" lon="1.85287">
        <ele>34</ele>
        <time>2023-01-29T03:44:39.426Z</time>
      </trkpt>
      <trkpt lat="48.91246" lon="1.85277">
        <ele>34</ele>
        <time>2023-01-29T03:44:43.969Z</time>
      </trkpt>
      <trkpt lat="48.91246" lon="1.85267">
        <ele>34</ele>
        <time>2023-01-29T03:44:47.916Z</time>
      </trkpt>
      <trkpt lat="48.91246" lon="1.85257">
        <ele>34</ele>
        <time>2023-01-29T03:44:52.544Z</time>
      </trkpt>
      <trkpt lat="48.91243" lon="1.85247">
        <ele>34</ele>
        <time>2023-01-29T03:44:56.524Z</time>
      </trkpt>
      <trkpt lat="48.9124" lon="1.8524">
        <ele>34</ele>
        <time>2023-01-29T03:45:01.067Z</time>
      </trkpt>
      <trkpt lat="48.91237" lon="1.85232">
        <ele>34</ele>
        <time>2023-01-29T03:45:05.611Z</time>
      </trkpt>
      <trkpt lat="48.91235" lon="1.85222">
        <ele>35</ele>
        <time>2023-01-29T03:45:10.035Z</time>
      </trkpt>
      <trkpt lat="48.91233" lon="1.85214">
        <ele>35</ele>
        <time>2023-01-29T03:45:14.164Z</time>
      </trkpt>
      <trkpt lat="48.91231" lon="1.85204">
        <ele>34</ele>
        <time>2023-01-29T03:45:18.166Z</time>
      </trkpt>
      <trkpt lat="48.91228" lon="1.85195">
        <ele>34</ele>
        <time>2023-01-29T03:45:22.710Z</time>
      </trkpt>
      <trkpt lat="48.91225" lon="1.85186">
        <ele>34</ele>
        <time>2023-01-29T03:45:27.247Z</time>
      </trkpt>
      <trkpt lat="48.91222" lon="1.85178">
        <ele>33</ele>
        <time>2023-01-29T03:45:31.318Z</time>
      </trkpt>
      <trkpt lat="48.9122" lon="1.8517">
        <ele>33</ele>
        <time>2023-01-29T03:45:35.383Z</time>
      </trkpt>
      <trkpt lat="48.91217" lon="1.8516">
        <ele>33</ele>
        <time>2023-01-29T03:45:39.446Z</time>
      </trkpt>
      <trkpt lat="48.91213" lon="1.85151">
        <ele>32</ele>
        <time>2023-01-29T03:45:43.509Z</time>
      </trkpt>
      <trkpt lat="48.9121" lon="1.85143">
        <ele>32</ele>
        <time>2023-01-29T03:45:48.051Z</time>
      </trkpt>
      <trkpt lat="48.91207" lon="1.85132">
        <ele>33</ele>
        <time>2023-01-29T03:45:52.594Z</time>
      </trkpt>
      <trkpt lat="48.91203" lon="1.85123">
        <ele>33</ele>
        <time>2023-01-29T03:45:56.778Z</time>
      </trkpt>
      <trkpt lat="48.912" lon="1.85115">
        <ele>33</ele>
        <time>2023-01-29T03:46:00.836Z</time>
      </trkpt>
      <trkpt lat="48.91197" lon="1.85105">
        <ele>33</ele>
        <time>2023-01-29T03:46:05.386Z</time>
      </trkpt>
      <trkpt lat="48.91193" lon="1.85096">
        <ele>32</ele>
        <time>2023-01-29T03:46:09.333Z</time>
      </trkpt>
      <trkpt lat="48.9119" lon="1.85086">
        <ele>32</ele>
        <time>2023-01-29T03:46:14.354Z</time>
      </trkpt>
      <trkpt lat="48.91186" lon="1.85078">
        <ele>32</ele>
        <time>2023-01-29T03:46:18.836Z</time>
      </trkpt>
      <trkpt lat="48.91183" lon="1.85068">
        <ele>33</ele>
        <time>2023-01-29T03:46:23.440Z</time>
      </trkpt>
      <trkpt lat="48.9118" lon="1.85058">
        <ele>33</ele>
        <time>2023-01-29T03:46:27.987Z</time>
      </trkpt>
      <trkpt lat="48.91178" lon="1.85049">
        <ele>33</ele>
        <time>2023-01-29T03:46:32.035Z</time>
      </trkpt>
      <trkpt lat="48.91175" lon="1.8504">
        <ele>33</ele>
        <time>2023-01-29T03:46:35.994Z</time>
      </trkpt>
      <trkpt lat="48.91172" lon="1.8503">
        <ele>33</ele>
        <time>2023-01-29T03:46:40.638Z</time>
      </trkpt>
      <trkpt lat="48.91171" lon="1.85026">
        <ele>33</ele>
        <time>2023-01-29T03:46:44.821Z</time>
      </trkpt>
      <trkpt lat="48.91169" lon="1.8502">
        <ele>33</ele>
        <time>2023-01-29T03:46:49.464Z</time>
      </trkpt>
      <trkpt lat="48.91165" lon="1.85015">
        <ele>33</ele>
        <time>2023-01-29T03:46:53.529Z</time>
      </trkpt>
      <trkpt lat="48.91161" lon="1.85007">
        <ele>33</ele>
        <time>2023-01-29T03:46:58.551Z</time>
      </trkpt>
      <trkpt lat="48.91159" lon="1.85">
        <ele>33</ele>
        <time>2023-01-29T03:47:02.736Z</time>
      </trkpt>
      <trkpt lat="48.91155" lon="1.84992">
        <ele>33</ele>
        <time>2023-01-29T03:47:07.282Z</time>
      </trkpt>
      <trkpt lat="48.91152" lon="1.84984">
        <ele>33</ele>
        <time>2023-01-29T03:47:11.828Z</time>
      </trkpt>
      <trkpt lat="48.9115" lon="1.84974">
        <ele>33</ele>
        <time>2023-01-29T03:47:15.836Z</time>
      </trkpt>
      <trkpt lat="48.91146" lon="1.84963">
        <ele>33</ele>
        <time>2023-01-29T03:47:20.558Z</time>
      </trkpt>
      <trkpt lat="48.91142" lon="1.84953">
        <ele>33</ele>
        <time>2023-01-29T03:47:25.221Z</time>
      </trkpt>
      <trkpt lat="48.91139" lon="1.84941">
        <ele>33</ele>
        <time>2023-01-29T03:47:29.906Z</time>
      </trkpt>
      <trkpt lat="48.91137" lon="1.84932">
        <ele>33</ele>
        <time>2023-01-29T03:47:33.809Z</time>
      </trkpt>
      <trkpt lat="48.91133" lon="1.84924">
        <ele>34</ele>
        <time>2023-01-29T03:47:37.961Z</time>
      </trkpt>
      <trkpt lat="48.9113" lon="1.84914">
        <ele>34</ele>
        <time>2023-01-29T03:47:41.944Z</time>
      </trkpt>
      <trkpt lat="48.91126" lon="1.84904">
        <ele>34</ele>
        <time>2023-01-29T03:47:46.490Z</time>
      </trkpt>
      <trkpt lat="48.91123" lon="1.84896">
        <ele>35</ele>
        <time>2023-01-29T03:47:50.438Z</time>
      </trkpt>
      <trkpt lat="48.9112" lon="1.84888">
        <ele>35</ele>
        <time>2023-01-29T03:47:54.964Z</time>
      </trkpt>
      <trkpt lat="48.91117" lon="1.84881">
        <ele>35</ele>
        <time>2023-01-29T03:47:59.047Z</time>
      </trkpt>
      <trkpt lat="48.91114" lon="1.84871">
        <ele>36</ele>
        <time>2023-01-29T03:48:03.473Z</time>
      </trkpt>
      <trkpt lat="48.91112" lon="1.8486">
        <ele>36</ele>
        <time>2023-01-29T03:48:07.836Z</time>
      </trkpt>
      <trkpt lat="48.91109" lon="1.84851">
        <ele>36</ele>
        <time>2023-01-29T03:48:12.326Z</time>
      </trkpt>
      <trkpt lat="48.91107" lon="1.84841">
        <ele>37</ele>
        <time>2023-01-29T03:48:16.751Z</time>
      </trkpt>
      <trkpt lat="48.91104" lon="1.84831">
        <ele>37</ele>
        <time>2023-01-29T03:48:20.579Z</time>
      </trkpt>
      <trkpt lat="48.91101" lon="1.84822">
        <ele>37</ele>
        <time>2023-01-29T03:48:25.031Z</time>
      </trkpt>
      <trkpt lat="48.91098" lon="1.84814">
        <ele>38</ele>
        <time>2023-01-29T03:48:29.124Z</time>
      </trkpt>
      <trkpt lat="48.91095" lon="1.84804">
        <ele>38</ele>
        <time>2023-01-29T03:48:33.616Z</time>
      </trkpt>
      <trkpt lat="48.91092" lon="1.84797">
        <ele>38</ele>
        <time>2023-01-29T03:48:37.768Z</time>
      </trkpt>
      <trkpt lat="48.91089" lon="1.8479">
        <ele>40</ele>
        <time>2023-01-29T03:48:41.754Z</time>
      </trkpt>
      <trkpt lat="48.91087" lon="1.84781">
        <ele>40</ele>
        <time>2023-01-29T03:48:46.724Z</time>
      </trkpt>
      <trkpt lat="48.91084" lon="1.84774">
        <ele>40</ele>
        <time>2023-01-29T03:48:50.607Z</time>
      </trkpt>
      <trkpt lat="48.9108" lon="1.84766">
        <ele>40</ele>
        <time>2023-01-29T03:48:55.264Z</time>
      </trkpt>
      <trkpt lat="48.91076" lon="1.84759">
        <ele>42</ele>
        <time>2023-01-29T03:48:59.575Z</time>
      </trkpt>
      <trkpt lat="48.91071" lon="1.84753">
        <ele>42</ele>
        <time>2023-01-29T03:49:03.881Z</time>
      </trkpt>
      <trkpt lat="48.91068" lon="1.84747">
        <ele>47</ele>
        <time>2023-01-29T03:49:07.828Z</time>
      </trkpt>
      <trkpt lat="48.91066" lon="1.84741">
        <ele>47</ele>
        <time>2023-01-29T03:49:12.150Z</time>
      </trkpt>
      <trkpt lat="48.91063" lon="1.84735">
        <ele>48</ele>
        <time>2023-01-29T03:49:16.681Z</time>
      </trkpt>
      <trkpt lat="48.91059" lon="1.84728">
        <ele>48</ele>
        <time>2023-01-29T03:49:21.224Z</time>
      </trkpt>
      <trkpt lat="48.91056" lon="1.8472">
        <ele>48</ele>
        <time>2023-01-29T03:49:25.769Z</time>
      </trkpt>
      <trkpt lat="48.91053" lon="1.84714">
        <ele>48</ele>
        <time>2023-01-29T03:49:29.954Z</time>
      </trkpt>
      <trkpt lat="48.9105" lon="1.84709">
        <ele>48</ele>
        <time>2023-01-29T03:49:34.260Z</time>
      </trkpt>
      <trkpt lat="48.91046" lon="1.84703">
        <ele>49</ele>
        <time>2023-01-29T03:49:38.564Z</time>
      </trkpt>
      <trkpt lat="48.9104" lon="1.84703">
        <ele>50</ele>
        <time>2023-01-29T03:49:42.912Z</time>
      </trkpt>
      <trkpt lat="48.91036" lon="1.8471">
        <ele>50</ele>
        <time>2023-01-29T03:49:46.695Z</time>
      </trkpt>
      <trkpt lat="48.91033" lon="1.84718">
        <ele>50</ele>
        <time>2023-01-29T03:49:50.521Z</time>
      </trkpt>
      <trkpt lat="48.91027" lon="1.84724">
        <ele>50</ele>
        <time>2023-01-29T03:49:55.066Z</time>
      </trkpt>
      <trkpt lat="48.91023" lon="1.84732">
        <ele>50</ele>
        <time>2023-01-29T03:49:59.611Z</time>
      </trkpt>
      <trkpt lat="48.91017" lon="1.84738">
        <ele>48</ele>
        <time>2023-01-29T03:50:03.679Z</time>
      </trkpt>
      <trkpt lat="48.91014" lon="1.84745">
        <ele>48</ele>
        <time>2023-01-29T03:50:07.746Z</time>
      </trkpt>
      <trkpt lat="48.91011" lon="1.84754">
        <ele>51</ele>
        <time>2023-01-29T03:50:12.423Z</time>
      </trkpt>
      <trkpt lat="48.91006" lon="1.84758">
        <ele>51</ele>
        <time>2023-01-29T03:50:16.359Z</time>
      </trkpt>
      <trkpt lat="48.91002" lon="1.84766">
        <ele>50</ele>
        <time>2023-01-29T03:50:20.307Z</time>
      </trkpt>
      <trkpt lat="48.90998" lon="1.84775">
        <ele>50</ele>
        <time>2023-01-29T03:50:24.836Z</time>
      </trkpt>
      <trkpt lat="48.90993" lon="1.84784">
        <ele>50</ele>
        <time>2023-01-29T03:50:29.396Z</time>
      </trkpt>
      <trkpt lat="48.90987" lon="1.84791">
        <ele>50</ele>
        <time>2023-01-29T03:50:33.883Z</time>
      </trkpt>
      <trkpt lat="48.90982" lon="1.84796">
        <ele>50</ele>
        <time>2023-01-29T03:50:38.007Z</time>
      </trkpt>
      <trkpt lat="48.90975" lon="1.848">
        <ele>50</ele>
        <time>2023-01-29T03:50:42.553Z</time>
      </trkpt>
      <trkpt lat="48.9097" lon="1.84802">
        <ele>50</ele>
        <time>2023-01-29T03:50:46.499Z</time>
      </trkpt>
      <trkpt lat="48.90964" lon="1.84802">
        <ele>50</ele>
        <time>2023-01-29T03:50:50.894Z</time>
      </trkpt>
      <trkpt lat="48.90959" lon="1.84798">
        <ele>50</ele>
        <time>2023-01-29T03:50:54.836Z</time>
      </trkpt>
      <trkpt lat="48.90954" lon="1.84795">
        <ele>50</ele>
        <time>2023-01-29T03:50:58.817Z</time>
      </trkpt>
      <trkpt lat="48.90947" lon="1.84793">
        <ele>50</ele>
        <time>2023-01-29T03:51:03.362Z</time>
      </trkpt>
      <trkpt lat="48.90942" lon="1.84792">
        <ele>52</ele>
        <time>2023-01-29T03:51:07.190Z</time>
      </trkpt>
      <trkpt lat="48.90937" lon="1.84789">
        <ele>52</ele>
        <time>2023-01-29T03:51:11.736Z</time>
      </trkpt>
      <trkpt lat="48.90931" lon="1.84785">
        <ele>52</ele>
        <time>2023-01-29T03:51:16.226Z</time>
      </trkpt>
      <trkpt lat="48.90926" lon="1.8478">
        <ele>53</ele>
        <time>2023-01-29T03:51:20.346Z</time>
      </trkpt>
      <trkpt lat="48.9092" lon="1.84775">
        <ele>53</ele>
        <time>2023-01-29T03:51:24.923Z</time>
      </trkpt>
      <trkpt lat="48.90914" lon="1.8477">
        <ele>53</ele>
        <time>2023-01-29T03:51:29.436Z</time>
      </trkpt>
      <trkpt lat="48.90909" lon="1.84765">
        <ele>53</ele>
        <time>2023-01-29T03:51:33.503Z</time>
      </trkpt>
      <trkpt lat="48.90902" lon="1.84761">
        <ele>56</ele>
        <time>2023-01-29T03:51:37.959Z</time>
      </trkpt>
      <trkpt lat="48.90896" lon="1.84759">
        <ele>56</ele>
        <time>2023-01-29T03:51:41.974Z</time>
      </trkpt>
      <trkpt lat="48.90891" lon="1.84755">
        <ele>56</ele>
        <time>2023-01-29T03:51:45.836Z</time>
      </trkpt>
      <trkpt lat="48.90883" lon="1.84751">
        <ele>56</ele>
        <time>2023-01-29T03:51:50.588Z</time>
      </trkpt>
      <trkpt lat="48.90877" lon="1.84748">
        <ele>56</ele>
        <time>2023-01-29T03:51:54.536Z</time>
      </trkpt>
      <trkpt lat="48.90871" lon="1.84744">
        <ele>55</ele>
        <time>2023-01-29T03:51:58.962Z</time>
      </trkpt>
      <trkpt lat="48.90865" lon="1.84739">
        <ele>55</ele>
        <time>2023-01-29T03:52:03.029Z</time>
      </trkpt>
      <trkpt lat="48.90859" lon="1.84735">
        <ele>56</ele>
        <time>2023-01-29T03:52:07.216Z</time>
      </trkpt>
      <trkpt lat="48.90853" lon="1.84732">
        <ele>56</ele>
        <time>2023-01-29T03:52:11.760Z</time>
      </trkpt>
      <trkpt lat="48.90846" lon="1.84729">
        <ele>54</ele>
        <time>2023-01-29T03:52:16.423Z</time>
      </trkpt>
      <trkpt lat="48.9084" lon="1.84725">
        <ele>54</ele>
        <time>2023-01-29T03:52:20.847Z</time>
      </trkpt>
      <trkpt lat="48.90833" lon="1.84722">
        <ele>54</ele>
        <time>2023-01-29T03:52:25.644Z</time>
      </trkpt>
      <trkpt lat="48.90827" lon="1.84718">
        <ele>54</ele>
        <time>2023-01-29T03:52:29.818Z</time>
      </trkpt>
      <trkpt lat="48.90821" lon="1.84715">
        <ele>54</ele>
        <time>2023-01-29T03:52:34.363Z</time>
      </trkpt>
      <trkpt lat="48.90815" lon="1.84711">
        <ele>53</ele>
        <time>2023-01-29T03:52:38.836Z</time>
      </trkpt>
      <trkpt lat="48.9081" lon="1.84708">
        <ele>56</ele>
        <time>2023-01-29T03:52:42.836Z</time>
      </trkpt>
      <trkpt lat="48.90805" lon="1.84703">
        <ele>56</ele>
        <time>2023-01-29T03:52:47.404Z</time>
      </trkpt>
      <trkpt lat="48.908" lon="1.84699">
        <ele>56</ele>
        <time>2023-01-29T03:52:51.333Z</time>
      </trkpt>
      <trkpt lat="48.90794" lon="1.84697">
        <ele>56</ele>
        <time>2023-01-29T03:52:55.400Z</time>
      </trkpt>
      <trkpt lat="48.90789" lon="1.84693">
        <ele>57</ele>
        <time>2023-01-29T03:52:59.347Z</time>
      </trkpt>
      <trkpt lat="48.90783" lon="1.8469">
        <ele>57</ele>
        <time>2023-01-29T03:53:03.535Z</time>
      </trkpt>
      <trkpt lat="48.90777" lon="1.84687">
        <ele>57</ele>
        <time>2023-01-29T03:53:08.200Z</time>
      </trkpt>
      <trkpt lat="48.9077" lon="1.84689">
        <ele>57</ele>
        <time>2023-01-29T03:53:12.984Z</time>
      </trkpt>
      <trkpt lat="48.90764" lon="1.84695">
        <ele>57</ele>
        <time>2023-01-29T03:53:17.172Z</time>
      </trkpt>
      <trkpt lat="48.90759" lon="1.84702">
        <ele>56</ele>
        <time>2023-01-29T03:53:21.844Z</time>
      </trkpt>
      <trkpt lat="48.90754" lon="1.84709">
        <ele>54</ele>
        <time>2023-01-29T03:53:26.025Z</time>
      </trkpt>
      <trkpt lat="48.9075" lon="1.84717">
        <ele>54</ele>
        <time>2023-01-29T03:53:30.060Z</time>
      </trkpt>
      <trkpt lat="48.90745" lon="1.84725">
        <ele>54</ele>
        <time>2023-01-29T03:53:34.160Z</time>
      </trkpt>
      <trkpt lat="48.90741" lon="1.84734">
        <ele>54</ele>
        <time>2023-01-29T03:53:38.704Z</time>
      </trkpt>
      <trkpt lat="48.90736" lon="1.84741">
        <ele>50</ele>
        <time>2023-01-29T03:53:43.341Z</time>
      </trkpt>
      <trkpt lat="48.90733" lon="1.84749">
        <ele>50</ele>
        <time>2023-01-29T03:53:47.314Z</time>
      </trkpt>
      <trkpt lat="48.90728" lon="1.84756">
        <ele>50</ele>
        <time>2023-01-29T03:53:51.961Z</time>
      </trkpt>
      <trkpt lat="48.90725" lon="1.84764">
        <ele>48</ele>
        <time>2023-01-29T03:53:55.926Z</time>
      </trkpt>
      <trkpt lat="48.90721" lon="1.84771">
        <ele>48</ele>
        <time>2023-01-29T03:53:59.992Z</time>
      </trkpt>
      <trkpt lat="48.90717" lon="1.8478">
        <ele>48</ele>
        <time>2023-01-29T03:54:04.417Z</time>
      </trkpt>
      <trkpt lat="48.90713" lon="1.84789">
        <ele>48</ele>
        <time>2023-01-29T03:54:08.963Z</time>
      </trkpt>
      <trkpt lat="48.90709" lon="1.84795">
        <ele>46</ele>
        <time>2023-01-29T03:54:13.030Z</time>
      </trkpt>
      <trkpt lat="48.90706" lon="1.84803">
        <ele>47</ele>
        <time>2023-01-29T03:54:17.097Z</time>
      </trkpt>
      <trkpt lat="48.90701" lon="1.84812">
        <ele>47</ele>
        <time>2023-01-29T03:54:21.506Z</time>
      </trkpt>
      <trkpt lat="48.90697" lon="1.8482">
        <ele>47</ele>
        <time>2023-01-29T03:54:26.172Z</time>
      </trkpt>
      <trkpt lat="48.90693" lon="1.84827">
        <ele>47</ele>
        <time>2023-01-29T03:54:30.740Z</time>
      </trkpt>
      <trkpt lat="48.90688" lon="1.84835">
        <ele>47</ele>
        <time>2023-01-29T03:54:34.665Z</time>
      </trkpt>
      <trkpt lat="48.90684" lon="1.84842">
        <ele>47</ele>
        <time>2023-01-29T03:54:39.212Z</time>
      </trkpt>
      <trkpt lat="48.90678" lon="1.84849">
        <ele>49</ele>
        <time>2023-01-29T03:54:43.642Z</time>
      </trkpt>
      <trkpt lat="48.90674" lon="1.84854">
        <ele>49</ele>
        <time>2023-01-29T03:54:47.588Z</time>
      </trkpt>
      <trkpt lat="48.90669" lon="1.84855">
        <ele>49</ele>
        <time>2023-01-29T03:54:52.132Z</time>
      </trkpt>
      <trkpt lat="48.90664" lon="1.84853">
        <ele>49</ele>
        <time>2023-01-29T03:54:56.559Z</time>
      </trkpt>
      <trkpt lat="48.90658" lon="1.8485">
        <ele>49</ele>
        <time>2023-01-29T03:55:00.506Z</time>
      </trkpt>
      <trkpt lat="48.90652" lon="1.84846">
        <ele>51</ele>
        <time>2023-01-29T03:55:05.063Z</time>
      </trkpt>
      <trkpt lat="48.90648" lon="1.84843">
        <ele>51</ele>
        <time>2023-01-29T03:55:09.238Z</time>
      </trkpt>
      <trkpt lat="48.90643" lon="1.84838">
        <ele>51</ele>
        <time>2023-01-29T03:55:13.543Z</time>
      </trkpt>
      <trkpt lat="48.90637" lon="1.84836">
        <ele>51</ele>
        <time>2023-01-29T03:55:18.186Z</time>
      </trkpt>
      <trkpt lat="48.90631" lon="1.84833">
        <ele>51</ele>
        <time>2023-01-29T03:55:22.636Z</time>
      </trkpt>
      <trkpt lat="48.90627" lon="1.84828">
        <ele>51</ele>
        <time>2023-01-29T03:55:27.421Z</time>
      </trkpt>
      <trkpt lat="48.90621" lon="1.84824">
        <ele>59</ele>
        <time>2023-01-29T03:55:31.489Z</time>
      </trkpt>
      <trkpt lat="48.90615" lon="1.8482">
        <ele>59</ele>
        <time>2023-01-29T03:55:36.034Z</time>
      </trkpt>
      <trkpt lat="48.9061" lon="1.84815">
        <ele>57</ele>
        <time>2023-01-29T03:55:39.981Z</time>
      </trkpt>
      <trkpt lat="48.90605" lon="1.84811">
        <ele>57</ele>
        <time>2023-01-29T03:55:44.163Z</time>
      </trkpt>
      <trkpt lat="48.90599" lon="1.84808">
        <ele>57</ele>
        <time>2023-01-29T03:55:48.201Z</time>
      </trkpt>
      <trkpt lat="48.90593" lon="1.84805">
        <ele>61</ele>
        <time>2023-01-29T03:55:52.646Z</time>
      </trkpt>
      <trkpt lat="48.90588" lon="1.84801">
        <ele>61</ele>
        <time>2023-01-29T03:55:56.822Z</time>
      </trkpt>
      <trkpt lat="48.90581" lon="1.84798">
        <ele>61</ele>
        <time>2023-01-29T03:56:01.367Z</time>
      </trkpt>
      <trkpt lat="48.90575" lon="1.84795">
        <ele>61</ele>
        <time>2023-01-29T03:56:05.945Z</time>
      </trkpt>
      <trkpt lat="48.90569" lon="1.84791">
        <ele>61</ele>
        <time>2023-01-29T03:56:10.381Z</time>
      </trkpt>
      <trkpt lat="48.90562" lon="1.8479">
        <ele>61</ele>
        <time>2023-01-29T03:56:14.882Z</time>
      </trkpt>
      <trkpt lat="48.90555" lon="1.84787">
        <ele>61</ele>
        <time>2023-01-29T03:56:19.408Z</time>
      </trkpt>
      <trkpt lat="48.90549" lon="1.84785">
        <ele>61</ele>
        <time>2023-01-29T03:56:24.126Z</time>
      </trkpt>
      <trkpt lat="48.90543" lon="1.84782">
        <ele>61</ele>
        <time>2023-01-29T03:56:28.240Z</time>
      </trkpt>
      <trkpt lat="48.90536" lon="1.84781">
        <ele>62</ele>
        <time>2023-01-29T03:56:32.785Z</time>
      </trkpt>
      <trkpt lat="48.9053" lon="1.84779">
        <ele>62</ele>
        <time>2023-01-29T03:56:37.450Z</time>
      </trkpt>
      <trkpt lat="48.90523" lon="1.84778">
        <ele>62</ele>
        <time>2023-01-29T03:56:42.274Z</time>
      </trkpt>
      <trkpt lat="48.90518" lon="1.84777">
        <ele>62</ele>
        <time>2023-01-29T03:56:46.299Z</time>
      </trkpt>
      <trkpt lat="48.90512" lon="1.84777">
        <ele>62</ele>
        <time>2023-01-29T03:56:50.836Z</time>
      </trkpt>
      <trkpt lat="48.90504" lon="1.84777">
        <ele>62</ele>
        <time>2023-01-29T03:56:55.250Z</time>
      </trkpt>
      <trkpt lat="48.90496" lon="1.84776">
        <ele>62</ele>
        <time>2023-01-29T03:56:59.836Z</time>
      </trkpt>
      <trkpt lat="48.90488" lon="1.84774">
        <ele>62</ele>
        <time>2023-01-29T03:57:04.220Z</time>
      </trkpt>
      <trkpt lat="48.90481" lon="1.84774">
        <ele>61</ele>
        <time>2023-01-29T03:57:08.780Z</time>
      </trkpt>
      <trkpt lat="48.90475" lon="1.84772">
        <ele>61</ele>
        <time>2023-01-29T03:57:12.834Z</time>
      </trkpt>
      <trkpt lat="48.90468" lon="1.84772">
        <ele>61</ele>
        <time>2023-01-29T03:57:17.382Z</time>
      </trkpt>
      <trkpt lat="48.90461" lon="1.84773">
        <ele>61</ele>
        <time>2023-01-29T03:57:21.961Z</time>
      </trkpt>
      <trkpt lat="48.90455" lon="1.84774">
        <ele>63</ele>
        <time>2023-01-29T03:57:25.994Z</time>
      </trkpt>
      <trkpt lat="48.9045" lon="1.84774">
        <ele>63</ele>
        <time>2023-01-29T03:57:29.941Z</time>
      </trkpt>
      <trkpt lat="48.90443" lon="1.84774">
        <ele>63</ele>
        <time>2023-01-29T03:57:34.366Z</time>
      </trkpt>
      <trkpt lat="48.90438" lon="1.84775">
        <ele>63</ele>
        <time>2023-01-29T03:57:38.431Z</time>
      </trkpt>
      <trkpt lat="48.90432" lon="1.84773">
        <ele>63</ele>
        <time>2023-01-29T03:57:42.616Z</time>
      </trkpt>
      <trkpt lat="48.90426" lon="1.84772">
        <ele>65</ele>
        <time>2023-01-29T03:57:47.076Z</time>
      </trkpt>
      <trkpt lat="48.90419" lon="1.8477">
        <ele>65</ele>
        <time>2023-01-29T03:57:51.586Z</time>
      </trkpt>
      <trkpt lat="48.90412" lon="1.84768">
        <ele>65</ele>
        <time>2023-01-29T03:57:56.251Z</time>
      </trkpt>
      <trkpt lat="48.90406" lon="1.84768">
        <ele>65</ele>
        <time>2023-01-29T03:58:00.318Z</time>
      </trkpt>
      <trkpt lat="48.904" lon="1.84768">
        <ele>67</ele>
        <time>2023-01-29T03:58:04.836Z</time>
      </trkpt>
      <trkpt lat="48.90393" lon="1.84765">
        <ele>67</ele>
        <time>2023-01-29T03:58:09.290Z</time>
      </trkpt>
      <trkpt lat="48.90386" lon="1.84762">
        <ele>65</ele>
        <time>2023-01-29T03:58:13.954Z</time>
      </trkpt>
      <trkpt lat="48.90378" lon="1.84759">
        <ele>65</ele>
        <time>2023-01-29T03:58:18.619Z</time>
      </trkpt>
      <trkpt lat="48.90372" lon="1.84756">
        <ele>66</ele>
        <time>2023-01-29T03:58:23.044Z</time>
      </trkpt>
      <trkpt lat="48.90366" lon="1.84753">
        <ele>66</ele>
        <time>2023-01-29T03:58:27.231Z</time>
      </trkpt>
      <trkpt lat="48.90359" lon="1.84748">
        <ele>66</ele>
        <time>2023-01-29T03:58:31.639Z</time>
      </trkpt>
      <trkpt lat="48.90353" lon="1.84745">
        <ele>66</ele>
        <time>2023-01-29T03:58:35.825Z</time>
      </trkpt>
      <trkpt lat="48.90345" lon="1.84741">
        <ele>65</ele>
        <time>2023-01-29T03:58:40.251Z</time>
      </trkpt>
      <trkpt lat="48.90338" lon="1.84738">
        <ele>65</ele>
        <time>2023-01-29T03:58:45.035Z</time>
      </trkpt>
      <trkpt lat="48.9033" lon="1.84735">
        <ele>63</ele>
        <time>2023-01-29T03:58:49.461Z</time>
      </trkpt>
      <trkpt lat="48.90323" lon="1.84731">
        <ele>63</ele>
        <time>2023-01-29T03:58:54.245Z</time>
      </trkpt>
      <trkpt lat="48.90316" lon="1.84727">
        <ele>64</ele>
        <time>2023-01-29T03:58:58.772Z</time>
      </trkpt>
      <trkpt lat="48.90309" lon="1.84726">
        <ele>64</ele>
        <time>2023-01-29T03:59:03.320Z</time>
      </trkpt>
      <trkpt lat="48.90302" lon="1.84724">
        <ele>64</ele>
        <time>2023-01-29T03:59:07.836Z</time>
      </trkpt>
      <trkpt lat="48.90295" lon="1.84723">
        <ele>64</ele>
        <time>2023-01-29T03:59:12.306Z</time>
      </trkpt>
      <trkpt lat="48.9029" lon="1.84721">
        <ele>67</ele>
        <time>2023-01-29T03:59:16.836Z</time>
      </trkpt>
      <trkpt lat="48.90284" lon="1.84719">
        <ele>67</ele>
        <time>2023-01-29T03:59:21.363Z</time>
      </trkpt>
      <trkpt lat="48.90278" lon="1.84715">
        <ele>67</ele>
        <time>2023-01-29T03:59:25.961Z</time>
      </trkpt>
      <trkpt lat="48.90273" lon="1.8471">
        <ele>67</ele>
        <time>2023-01-29T03:59:29.974Z</time>
      </trkpt>
      <trkpt lat="48.90267" lon="1.84707">
        <ele>65</ele>
        <time>2023-01-29T03:59:34.638Z</time>
      </trkpt>
      <trkpt lat="48.90261" lon="1.84704">
        <ele>66</ele>
        <time>2023-01-29T03:59:38.705Z</time>
      </trkpt>
      <trkpt lat="48.90255" lon="1.84703">
        <ele>66</ele>
        <time>2023-01-29T03:59:43.371Z</time>
      </trkpt>
      <trkpt lat="48.90248" lon="1.84702">
        <ele>66</ele>
        <time>2023-01-29T03:59:47.915Z</time>
      </trkpt>
      <trkpt lat="48.90241" lon="1.84701">
        <ele>66</ele>
        <time>2023-01-29T03:59:52.579Z</time>
      </trkpt>
      <trkpt lat="48.90234" lon="1.84699">
        <ele>66</ele>
        <time>2023-01-29T03:59:57.243Z</time>
      </trkpt>
      <trkpt lat="48.90227" lon="1.84694">
        <ele>66</ele>
        <time>2023-01-29T04:00:01.309Z</time>
      </trkpt>
      <trkpt lat="48.9022" lon="1.84692">
        <ele>66</ele>
        <time>2023-01-29T04:00:05.614Z</time>
      </trkpt>
      <trkpt lat="48.90214" lon="1.84689">
        <ele>66</ele>
        <time>2023-01-29T04:00:10.160Z</time>
      </trkpt>
      <trkpt lat="48.90208" lon="1.84685">
        <ele>69</ele>
        <time>2023-01-29T04:00:14.700Z</time>
      </trkpt>
      <trkpt lat="48.90203" lon="1.84682">
        <ele>69</ele>
        <time>2023-01-29T04:00:19.362Z</time>
      </trkpt>
      <trkpt lat="48.90197" lon="1.84677">
        <ele>67</ele>
        <time>2023-01-29T04:00:23.906Z</time>
      </trkpt>
      <trkpt lat="48.9019" lon="1.84671">
        <ele>67</ele>
        <time>2023-01-29T04:00:27.836Z</time>
      </trkpt>
      <trkpt lat="48.90184" lon="1.84662">
        <ele>67</ele>
        <time>2023-01-29T04:00:32.395Z</time>
      </trkpt>
      <trkpt lat="48.90178" lon="1.84659">
        <ele>71</ele>
        <time>2023-01-29T04:00:36.939Z</time>
      </trkpt>
      <trkpt lat="48.90172" lon="1.84656">
        <ele>71</ele>
        <time>2023-01-29T04:00:41.449Z</time>
      </trkpt>
      <trkpt lat="48.90167" lon="1.84653">
        <ele>68</ele>
        <time>2023-01-29T04:00:45.434Z</time>
      </trkpt>
      <trkpt lat="48.90161" lon="1.84648">
        <ele>68</ele>
        <time>2023-01-29T04:00:50.041Z</time>
      </trkpt>
      <trkpt lat="48.90156" lon="1.84644">
        <ele>68</ele>
        <time>2023-01-29T04:00:54.047Z</time>
      </trkpt>
      <trkpt lat="48.9015" lon="1.84638">
        <ele>72</ele>
        <time>2023-01-29T04:00:58.227Z</time>
      </trkpt>
      <trkpt lat="48.90144" lon="1.84633">
        <ele>72</ele>
        <time>2023-01-29T04:01:02.421Z</time>
      </trkpt>
      <trkpt lat="48.90138" lon="1.84627">
        <ele>72</ele>
        <time>2023-01-29T04:01:06.965Z</time>
      </trkpt>
      <trkpt lat="48.9013" lon="1.84623">
        <ele>71</ele>
        <time>2023-01-29T04:01:11.507Z</time>
      </trkpt>
      <trkpt lat="48.90123" lon="1.8462">
        <ele>71</ele>
        <time>2023-01-29T04:01:15.931Z</time>
      </trkpt>
      <trkpt lat="48.90117" lon="1.84618">
        <ele>71</ele>
        <time>2023-01-29T04:01:19.994Z</time>
      </trkpt>
      <trkpt lat="48.90112" lon="1.84616">
        <ele>71</ele>
        <time>2023-01-29T04:01:23.938Z</time>
      </trkpt>
      <trkpt lat="48.90104" lon="1.8461">
        <ele>71</ele>
        <time>2023-01-29T04:01:28.524Z</time>
      </trkpt>
      <trkpt lat="48.90096" lon="1.84605">
        <ele>71</ele>
        <time>2023-01-29T04:01:33.023Z</time>
      </trkpt>
      <trkpt lat="48.90089" lon="1.84601">
        <ele>71</ele>
        <time>2023-01-29T04:01:37.547Z</time>
      </trkpt>
      <trkpt lat="48.90082" lon="1.84598">
        <ele>71</ele>
        <time>2023-01-29T04:01:42.180Z</time>
      </trkpt>
      <trkpt lat="48.90076" lon="1.84596">
        <ele>71</ele>
        <time>2023-01-29T04:01:46.613Z</time>
      </trkpt>
      <trkpt lat="48.9007" lon="1.84592">
        <ele>71</ele>
        <time>2023-01-29T04:01:51.036Z</time>
      </trkpt>
      <trkpt lat="48.90064" lon="1.84589">
        <ele>71</ele>
        <time>2023-01-29T04:01:55.221Z</time>
      </trkpt>
      <trkpt lat="48.90057" lon="1.84586">
        <ele>71</ele>
        <time>2023-01-29T04:01:59.765Z</time>
      </trkpt>
      <trkpt lat="48.90051" lon="1.84585">
        <ele>71</ele>
        <time>2023-01-29T04:02:03.831Z</time>
      </trkpt>
      <trkpt lat="48.90045" lon="1.84582">
        <ele>71</ele>
        <time>2023-01-29T04:02:08.376Z</time>
      </trkpt>
      <trkpt lat="48.90038" lon="1.84579">
        <ele>71</ele>
        <time>2023-01-29T04:02:13.081Z</time>
      </trkpt>
      <trkpt lat="48.90032" lon="1.84577">
        <ele>71</ele>
        <time>2023-01-29T04:02:17.346Z</time>
      </trkpt>
      <trkpt lat="48.90026" lon="1.84575">
        <ele>71</ele>
        <time>2023-01-29T04:02:21.983Z</time>
      </trkpt>
      <trkpt lat="48.90019" lon="1.84573">
        <ele>71</ele>
        <time>2023-01-29T04:02:26.437Z</time>
      </trkpt>
      <trkpt lat="48.90012" lon="1.84571">
        <ele>71</ele>
        <time>2023-01-29T04:02:31.059Z</time>
      </trkpt>
      <trkpt lat="48.90004" lon="1.84568">
        <ele>70</ele>
        <time>2023-01-29T04:02:35.649Z</time>
      </trkpt>
      <trkpt lat="48.89998" lon="1.84564">
        <ele>70</ele>
        <time>2023-01-29T04:02:40.164Z</time>
      </trkpt>
      <trkpt lat="48.89991" lon="1.84561">
        <ele>70</ele>
        <time>2023-01-29T04:02:44.622Z</time>
      </trkpt>
      <trkpt lat="48.89984" lon="1.84559">
        <ele>72</ele>
        <time>2023-01-29T04:02:49.068Z</time>
      </trkpt>
      <trkpt lat="48.89977" lon="1.84557">
        <ele>72</ele>
        <time>2023-01-29T04:02:53.708Z</time>
      </trkpt>
      <trkpt lat="48.8997" lon="1.84555">
        <ele>72</ele>
        <time>2023-01-29T04:02:58.254Z</time>
      </trkpt>
      <trkpt lat="48.89964" lon="1.84553">
        <ele>72</ele>
        <time>2023-01-29T04:03:03.038Z</time>
      </trkpt>
      <trkpt lat="48.89957" lon="1.84551">
        <ele>73</ele>
        <time>2023-01-29T04:03:07.584Z</time>
      </trkpt>
      <trkpt lat="48.8995" lon="1.84547">
        <ele>73</ele>
        <time>2023-01-29T04:03:12.248Z</time>
      </trkpt>
      <trkpt lat="48.89944" lon="1.84545">
        <ele>73</ele>
        <time>2023-01-29T04:03:16.836Z</time>
      </trkpt>
      <trkpt lat="48.89938" lon="1.84543">
        <ele>73</ele>
        <time>2023-01-29T04:03:20.836Z</time>
      </trkpt>
      <trkpt lat="48.89932" lon="1.84541">
        <ele>73</ele>
        <time>2023-01-29T04:03:25.405Z</time>
      </trkpt>
      <trkpt lat="48.89926" lon="1.8454">
        <ele>74</ele>
        <time>2023-01-29T04:03:29.590Z</time>
      </trkpt>
      <trkpt lat="48.89919" lon="1.84537">
        <ele>74</ele>
        <time>2023-01-29T04:03:34.253Z</time>
      </trkpt>
      <trkpt lat="48.89913" lon="1.84536">
        <ele>74</ele>
        <time>2023-01-29T04:03:38.800Z</time>
      </trkpt>
      <trkpt lat="48.89907" lon="1.84536">
        <ele>74</ele>
        <time>2023-01-29T04:03:43.282Z</time>
      </trkpt>
      <trkpt lat="48.899" lon="1.84536">
        <ele>75</ele>
        <time>2023-01-29T04:03:47.707Z</time>
      </trkpt>
      <trkpt lat="48.89894" lon="1.84533">
        <ele>75</ele>
        <time>2023-01-29T04:03:52.319Z</time>
      </trkpt>
      <trkpt lat="48.89888" lon="1.8453">
        <ele>75</ele>
        <time>2023-01-29T04:03:56.836Z</time>
      </trkpt>
      <trkpt lat="48.89882" lon="1.84527">
        <ele>75</ele>
        <time>2023-01-29T04:04:01.364Z</time>
      </trkpt>
      <trkpt lat="48.89875" lon="1.84524">
        <ele>77</ele>
        <time>2023-01-29T04:04:05.836Z</time>
      </trkpt>
      <trkpt lat="48.89869" lon="1.84522">
        <ele>77</ele>
        <time>2023-01-29T04:04:10.583Z</time>
      </trkpt>
      <trkpt lat="48.89863" lon="1.8452">
        <ele>77</ele>
        <time>2023-01-29T04:04:15.045Z</time>
      </trkpt>
      <trkpt lat="48.89856" lon="1.8452">
        <ele>77</ele>
        <time>2023-01-29T04:04:19.591Z</time>
      </trkpt>
      <trkpt lat="48.8985" lon="1.84517">
        <ele>77</ele>
        <time>2023-01-29T04:04:23.657Z</time>
      </trkpt>
      <trkpt lat="48.89843" lon="1.84516">
        <ele>78</ele>
        <time>2023-01-29T04:04:28.323Z</time>
      </trkpt>
      <trkpt lat="48.89836" lon="1.84515">
        <ele>78</ele>
        <time>2023-01-29T04:04:32.987Z</time>
      </trkpt>
      <trkpt lat="48.8983" lon="1.84513">
        <ele>76</ele>
        <time>2023-01-29T04:04:37.652Z</time>
      </trkpt>
      <trkpt lat="48.89824" lon="1.84511">
        <ele>76</ele>
        <time>2023-01-29T04:04:42.198Z</time>
      </trkpt>
      <trkpt lat="48.89817" lon="1.84508">
        <ele>78</ele>
        <time>2023-01-29T04:04:46.844Z</time>
      </trkpt>
      <trkpt lat="48.8981" lon="1.84505">
        <ele>78</ele>
        <time>2023-01-29T04:04:50.803Z</time>
      </trkpt>
      <trkpt lat="48.89803" lon="1.84502">
        <ele>78</ele>
        <time>2023-01-29T04:04:55.347Z</time>
      </trkpt>
      <trkpt lat="48.89797" lon="1.84499">
        <ele>78</ele>
        <time>2023-01-29T04:04:59.836Z</time>
      </trkpt>
      <trkpt lat="48.89792" lon="1.84496">
        <ele>80</ele>
        <time>2023-01-29T04:05:03.836Z</time>
      </trkpt>
      <trkpt lat="48.89786" lon="1.84493">
        <ele>80</ele>
        <time>2023-01-29T04:05:08.259Z</time>
      </trkpt>
      <trkpt lat="48.89779" lon="1.8449">
        <ele>80</ele>
        <time>2023-01-29T04:05:13.006Z</time>
      </trkpt>
      <trkpt lat="48.89773" lon="1.84486">
        <ele>78</ele>
        <time>2023-01-29T04:05:17.512Z</time>
      </trkpt>
      <trkpt lat="48.89767" lon="1.84481">
        <ele>78</ele>
        <time>2023-01-29T04:05:21.650Z</time>
      </trkpt>
      <trkpt lat="48.89762" lon="1.84477">
        <ele>80</ele>
        <time>2023-01-29T04:05:25.834Z</time>
      </trkpt>
      <trkpt lat="48.89756" lon="1.84474">
        <ele>80</ele>
        <time>2023-01-29T04:05:30.520Z</time>
      </trkpt>
      <trkpt lat="48.89749" lon="1.84468">
        <ele>80</ele>
        <time>2023-01-29T04:05:35.040Z</time>
      </trkpt>
      <trkpt lat="48.89744" lon="1.84464">
        <ele>80</ele>
        <time>2023-01-29T04:05:39.077Z</time>
      </trkpt>
      <trkpt lat="48.89738" lon="1.84459">
        <ele>80</ele>
        <time>2023-01-29T04:05:43.170Z</time>
      </trkpt>
      <trkpt lat="48.89732" lon="1.84454">
        <ele>81</ele>
        <time>2023-01-29T04:05:47.665Z</time>
      </trkpt>
      <trkpt lat="48.89726" lon="1.84449">
        <ele>81</ele>
        <time>2023-01-29T04:05:51.637Z</time>
      </trkpt>
      <trkpt lat="48.8972" lon="1.84446">
        <ele>81</ele>
        <time>2023-01-29T04:05:56.179Z</time>
      </trkpt>
      <trkpt lat="48.89713" lon="1.84442">
        <ele>81</ele>
        <time>2023-01-29T04:06:00.822Z</time>
      </trkpt>
      <trkpt lat="48.89707" lon="1.84436">
        <ele>82</ele>
        <time>2023-01-29T04:06:04.664Z</time>
      </trkpt>
      <trkpt lat="48.897" lon="1.84429">
        <ele>81</ele>
        <time>2023-01-29T04:06:09.207Z</time>
      </trkpt>
      <trkpt lat="48.89693" lon="1.84425">
        <ele>81</ele>
        <time>2023-01-29T04:06:13.869Z</time>
      </trkpt>
      <trkpt lat="48.89688" lon="1.8442">
        <ele>81</ele>
        <time>2023-01-29T04:06:18.053Z</time>
      </trkpt>
      <trkpt lat="48.89681" lon="1.84415">
        <ele>81</ele>
        <time>2023-01-29T04:06:22.550Z</time>
      </trkpt>
      <trkpt lat="48.89675" lon="1.8441">
        <ele>82</ele>
        <time>2023-01-29T04:06:26.998Z</time>
      </trkpt>
      <trkpt lat="48.89668" lon="1.84407">
        <ele>82</ele>
        <time>2023-01-29T04:06:31.541Z</time>
      </trkpt>
      <trkpt lat="48.89662" lon="1.84403">
        <ele>82</ele>
        <time>2023-01-29T04:06:35.964Z</time>
      </trkpt>
      <trkpt lat="48.89657" lon="1.84399">
        <ele>83</ele>
        <time>2023-01-29T04:06:40.029Z</time>
      </trkpt>
      <trkpt lat="48.89651" lon="1.84394">
        <ele>85</ele>
        <time>2023-01-29T04:06:43.975Z</time>
      </trkpt>
      <trkpt lat="48.89645" lon="1.84389">
        <ele>85</ele>
        <time>2023-01-29T04:06:48.637Z</time>
      </trkpt>
      <trkpt lat="48.89638" lon="1.84386">
        <ele>85</ele>
        <time>2023-01-29T04:06:53.420Z</time>
      </trkpt>
      <trkpt lat="48.89632" lon="1.8438">
        <ele>85</ele>
        <time>2023-01-29T04:06:58.203Z</time>
      </trkpt>
      <trkpt lat="48.89627" lon="1.84373">
        <ele>86</ele>
        <time>2023-01-29T04:07:02.765Z</time>
      </trkpt>
      <trkpt lat="48.89622" lon="1.84368">
        <ele>87</ele>
        <time>2023-01-29T04:07:06.815Z</time>
      </trkpt>
      <trkpt lat="48.89617" lon="1.84362">
        <ele>87</ele>
        <time>2023-01-29T04:07:11.003Z</time>
      </trkpt>
      <trkpt lat="48.89612" lon="1.84356">
        <ele>87</ele>
        <time>2023-01-29T04:07:15.070Z</time>
      </trkpt>
      <trkpt lat="48.89608" lon="1.8435">
        <ele>87</ele>
        <time>2023-01-29T04:07:19.220Z</time>
      </trkpt>
      <trkpt lat="48.89602" lon="1.84343">
        <ele>88</ele>
        <time>2023-01-29T04:07:23.681Z</time>
      </trkpt>
      <trkpt lat="48.89597" lon="1.84335">
        <ele>88</ele>
        <time>2023-01-29T04:07:28.346Z</time>
      </trkpt>
      <trkpt lat="48.89593" lon="1.84326">
        <ele>90</ele>
        <time>2023-01-29T04:07:32.293Z</time>
      </trkpt>
      <trkpt lat="48.89589" lon="1.84319">
        <ele>91</ele>
        <time>2023-01-29T04:07:36.821Z</time>
      </trkpt>
      <trkpt lat="48.89584" lon="1.84316">
        <ele>91</ele>
        <time>2023-01-29T04:07:41.360Z</time>
      </trkpt>
      <trkpt lat="48.8958" lon="1.84311">
        <ele>91</ele>
        <time>2023-01-29T04:07:45.553Z</time>
      </trkpt>
      <trkpt lat="48.89574" lon="1.84302">
        <ele>91</ele>
        <time>2023-01-29T04:07:50.097Z</time>
      </trkpt>
      <trkpt lat="48.8957" lon="1.84291">
        <ele>93</ele>
        <time>2023-01-29T04:07:54.641Z</time>
      </trkpt>
      <trkpt lat="48.89564" lon="1.84284">
        <ele>94</ele>
        <time>2023-01-29T04:07:59.139Z</time>
      </trkpt>
      <trkpt lat="48.89561" lon="1.84274">
        <ele>94</ele>
        <time>2023-01-29T04:08:03.613Z</time>
      </trkpt>
      <trkpt lat="48.89558" lon="1.84267">
        <ele>94</ele>
        <time>2023-01-29T04:08:07.798Z</time>
      </trkpt>
      <trkpt lat="48.89553" lon="1.8426">
        <ele>94</ele>
        <time>2023-01-29T04:08:12.343Z</time>
      </trkpt>
      <trkpt lat="48.89548" lon="1.84252">
        <ele>94</ele>
        <time>2023-01-29T04:08:16.964Z</time>
      </trkpt>
      <trkpt lat="48.89544" lon="1.84245">
        <ele>94</ele>
        <time>2023-01-29T04:08:21.387Z</time>
      </trkpt>
      <trkpt lat="48.89539" lon="1.84238">
        <ele>97</ele>
        <time>2023-01-29T04:08:25.977Z</time>
      </trkpt>
      <trkpt lat="48.89535" lon="1.84227">
        <ele>98</ele>
        <time>2023-01-29T04:08:30.521Z</time>
      </trkpt>
      <trkpt lat="48.8953" lon="1.84219">
        <ele>98</ele>
        <time>2023-01-29T04:08:35.052Z</time>
      </trkpt>
      <trkpt lat="48.89525" lon="1.84214">
        <ele>98</ele>
        <time>2023-01-29T04:08:39.266Z</time>
      </trkpt>
      <trkpt lat="48.8952" lon="1.84206">
        <ele>99</ele>
        <time>2023-01-29T04:08:43.321Z</time>
      </trkpt>
      <trkpt lat="48.89514" lon="1.842">
        <ele>99</ele>
        <time>2023-01-29T04:08:47.836Z</time>
      </trkpt>
      <trkpt lat="48.89509" lon="1.84193">
        <ele>99</ele>
        <time>2023-01-29T04:08:52.200Z</time>
      </trkpt>
      <trkpt lat="48.89505" lon="1.84183">
        <ele>99</ele>
        <time>2023-01-29T04:08:56.245Z</time>
      </trkpt>
      <trkpt lat="48.895" lon="1.84176">
        <ele>99</ele>
        <time>2023-01-29T04:09:00.836Z</time>
      </trkpt>
      <trkpt lat="48.89494" lon="1.84167">
        <ele>99</ele>
        <time>2023-01-29T04:09:05.336Z</time>
      </trkpt>
      <trkpt lat="48.89489" lon="1.8416">
        <ele>99</ele>
        <time>2023-01-29T04:09:09.743Z</time>
      </trkpt>
      <trkpt lat="48.89485" lon="1.84154">
        <ele>98</ele>
        <time>2023-01-29T04:09:13.811Z</time>
      </trkpt>
      <trkpt lat="48.89481" lon="1.84147">
        <ele>97</ele>
        <time>2023-01-29T04:09:17.836Z</time>
      </trkpt>
      <trkpt lat="48.89475" lon="1.8414">
        <ele>97</ele>
        <time>2023-01-29T04:09:22.303Z</time>
      </trkpt>
      <trkpt lat="48.89471" lon="1.84133">
        <ele>97</ele>
        <time>2023-01-29T04:09:26.836Z</time>
      </trkpt>
      <trkpt lat="48.89466" lon="1.84127">
        <ele>97</ele>
        <time>2023-01-29T04:09:31.392Z</time>
      </trkpt>
      <trkpt lat="48.8946" lon="1.8412">
        <ele>96</ele>
        <time>2023-01-29T04:09:35.935Z</time>
      </trkpt>
      <trkpt lat="48.89455" lon="1.84112">
        <ele>95</ele>
        <time>2023-01-29T04:09:40.523Z</time>
      </trkpt>
      <trkpt lat="48.8945" lon="1.84106">
        <ele>95</ele>
        <time>2023-01-29T04:09:45.024Z</time>
      </trkpt>
      <trkpt lat="48.89445" lon="1.84098">
        <ele>95</ele>
        <time>2023-01-29T04:09:49.571Z</time>
      </trkpt>
      <trkpt lat="48.8944" lon="1.84091">
        <ele>95</ele>
        <time>2023-01-29T04:09:54.236Z</time>
      </trkpt>
      <trkpt lat="48.89435" lon="1.84084">
        <ele>95</ele>
        <time>2023-01-29T04:09:58.780Z</time>
      </trkpt>
      <trkpt lat="48.8943" lon="1.84078">
        <ele>97</ele>
        <time>2023-01-29T04:10:03.428Z</time>
      </trkpt>
      <trkpt lat="48.89426" lon="1.84072">
        <ele>97</ele>
        <time>2023-01-29T04:10:07.447Z</time>
      </trkpt>
      <trkpt lat="48.89421" lon="1.84066">
        <ele>96</ele>
        <time>2023-01-29T04:10:11.500Z</time>
      </trkpt>
      <trkpt lat="48.89417" lon="1.84059">
        <ele>96</ele>
        <time>2023-01-29T04:10:15.386Z</time>
      </trkpt>
      <trkpt lat="48.89413" lon="1.84054">
        <ele>96</ele>
        <time>2023-01-29T04:10:19.416Z</time>
      </trkpt>
      <trkpt lat="48.89408" lon="1.84048">
        <ele>96</ele>
        <time>2023-01-29T04:10:23.966Z</time>
      </trkpt>
      <trkpt lat="48.89403" lon="1.84043">
        <ele>96</ele>
        <time>2023-01-29T04:10:27.836Z</time>
      </trkpt>
      <trkpt lat="48.89398" lon="1.84034">
        <ele>97</ele>
        <time>2023-01-29T04:10:32.451Z</time>
      </trkpt>
      <trkpt lat="48.89393" lon="1.84027">
        <ele>97</ele>
        <time>2023-01-29T04:10:36.402Z</time>
      </trkpt>
      <trkpt lat="48.89389" lon="1.84019">
        <ele>97</ele>
        <time>2023-01-29T04:10:40.948Z</time>
      </trkpt>
      <trkpt lat="48.89384" lon="1.84012">
        <ele>97</ele>
        <time>2023-01-29T04:10:45.375Z</time>
      </trkpt>
      <trkpt lat="48.89378" lon="1.84005">
        <ele>97</ele>
        <time>2023-01-29T04:10:49.441Z</time>
      </trkpt>
      <trkpt lat="48.89374" lon="1.83999">
        <ele>99</ele>
        <time>2023-01-29T04:10:53.988Z</time>
      </trkpt>
      <trkpt lat="48.89368" lon="1.83992">
        <ele>99</ele>
        <time>2023-01-29T04:10:58.535Z</time>
      </trkpt>
      <trkpt lat="48.89363" lon="1.83984">
        <ele>99</ele>
        <time>2023-01-29T04:11:02.961Z</time>
      </trkpt>
      <trkpt lat="48.8936" lon="1.83978">
        <ele>99</ele>
        <time>2023-01-29T04:11:07.074Z</time>
      </trkpt>
      <trkpt lat="48.89355" lon="1.83971">
        <ele>99</ele>
        <time>2023-01-29T04:11:11.095Z</time>
      </trkpt>
      <trkpt lat="48.89351" lon="1.83966">
        <ele>99</ele>
        <time>2023-01-29T04:11:14.924Z</time>
      </trkpt>
      <trkpt lat="48.89346" lon="1.83958">
        <ele>101</ele>
        <time>2023-01-29T04:11:19.351Z</time>
      </trkpt>
      <trkpt lat="48.89341" lon="1.83951">
        <ele>101</ele>
        <time>2023-01-29T04:11:23.836Z</time>
      </trkpt>
      <trkpt lat="48.89336" lon="1.83944">
        <ele>101</ele>
        <time>2023-01-29T04:11:28.202Z</time>
      </trkpt>
      <trkpt lat="48.89331" lon="1.83936">
        <ele>101</ele>
        <time>2023-01-29T04:11:32.899Z</time>
      </trkpt>
      <trkpt lat="48.89326" lon="1.8393">
        <ele>101</ele>
        <time>2023-01-29T04:11:36.836Z</time>
      </trkpt>
      <trkpt lat="48.89321" lon="1.83924">
        <ele>101</ele>
        <time>2023-01-29T04:11:41.594Z</time>
      </trkpt>
      <trkpt lat="48.89316" lon="1.83917">
        <ele>102</ele>
        <time>2023-01-29T04:11:46.068Z</time>
      </trkpt>
      <trkpt lat="48.89311" lon="1.8391">
        <ele>102</ele>
        <time>2023-01-29T04:11:50.447Z</time>
      </trkpt>
      <trkpt lat="48.89306" lon="1.83904">
        <ele>102</ele>
        <time>2023-01-29T04:11:54.973Z</time>
      </trkpt>
      <trkpt lat="48.89302" lon="1.83898">
        <ele>102</ele>
        <time>2023-01-29T04:11:59.040Z</time>
      </trkpt>
      <trkpt lat="48.89297" lon="1.83892">
        <ele>102</ele>
        <time>2023-01-29T04:12:03.227Z</time>
      </trkpt>
      <trkpt lat="48.89291" lon="1.83886">
        <ele>102</ele>
        <time>2023-01-29T04:12:07.745Z</time>
      </trkpt>
      <trkpt lat="48.89286" lon="1.83881">
        <ele>102</ele>
        <time>2023-01-29T04:12:11.719Z</time>
      </trkpt>
      <trkpt lat="48.89279" lon="1.83876">
        <ele>102</ele>
        <time>2023-01-29T04:12:16.264Z</time>
      </trkpt>
      <trkpt lat="48.89275" lon="1.83869">
        <ele>102</ele>
        <time>2023-01-29T04:12:20.211Z</time>
      </trkpt>
      <trkpt lat="48.89269" lon="1.83864">
        <ele>102</ele>
        <time>2023-01-29T04:12:24.903Z</time>
      </trkpt>
      <trkpt lat="48.89263" lon="1.83859">
        <ele>103</ele>
        <time>2023-01-29T04:12:28.821Z</time>
      </trkpt>
      <trkpt lat="48.89257" lon="1.83855">
        <ele>103</ele>
        <time>2023-01-29T04:12:33.364Z</time>
      </trkpt>
      <trkpt lat="48.89251" lon="1.83849">
        <ele>103</ele>
        <time>2023-01-29T04:12:37.311Z</time>
      </trkpt>
      <trkpt lat="48.89245" lon="1.83843">
        <ele>103</ele>
        <time>2023-01-29T04:12:41.836Z</time>
      </trkpt>
      <trkpt lat="48.89239" lon="1.83836">
        <ele>103</ele>
        <time>2023-01-29T04:12:46.282Z</time>
      </trkpt>
      <trkpt lat="48.89233" lon="1.8383">
        <ele>104</ele>
        <time>2023-01-29T04:12:50.828Z</time>
      </trkpt>
      <trkpt lat="48.89228" lon="1.83825">
        <ele>104</ele>
        <time>2023-01-29T04:12:55.014Z</time>
      </trkpt>
      <trkpt lat="48.89222" lon="1.83819">
        <ele>104</ele>
        <time>2023-01-29T04:12:59.465Z</time>
      </trkpt>
      <trkpt lat="48.89216" lon="1.83813">
        <ele>104</ele>
        <time>2023-01-29T04:13:03.508Z</time>
      </trkpt>
      <trkpt lat="48.8921" lon="1.83807">
        <ele>104</ele>
        <time>2023-01-29T04:13:08.052Z</time>
      </trkpt>
      <trkpt lat="48.89204" lon="1.83801">
        <ele>105</ele>
        <time>2023-01-29T04:13:12.241Z</time>
      </trkpt>
      <trkpt lat="48.89199" lon="1.83797">
        <ele>105</ele>
        <time>2023-01-29T04:13:16.787Z</time>
      </trkpt>
      <trkpt lat="48.89192" lon="1.8379">
        <ele>105</ele>
        <time>2023-01-29T04:13:21.572Z</time>
      </trkpt>
      <trkpt lat="48.89186" lon="1.83785">
        <ele>105</ele>
        <time>2023-01-29T04:13:26.163Z</time>
      </trkpt>
      <trkpt lat="48.89181" lon="1.83781">
        <ele>105</ele>
        <time>2023-01-29T04:13:30.186Z</time>
      </trkpt>
      <trkpt lat="48.89176" lon="1.83776">
        <ele>106</ele>
        <time>2023-01-29T04:13:34.612Z</time>
      </trkpt>
      <trkpt lat="48.8917" lon="1.83771">
        <ele>106</ele>
        <time>2023-01-29T04:13:39.036Z</time>
      </trkpt>
      <trkpt lat="48.89164" lon="1.83765">
        <ele>106</ele>
        <time>2023-01-29T04:13:43.578Z</time>
      </trkpt>
      <trkpt lat="48.89158" lon="1.83759">
        <ele>106</ele>
        <time>2023-01-29T04:13:48.122Z</time>
      </trkpt>
      <trkpt lat="48.89152" lon="1.83753">
        <ele>106</ele>
        <time>2023-01-29T04:13:52.668Z</time>
      </trkpt>
      <trkpt lat="48.89147" lon="1.83747">
        <ele>106</ele>
        <time>2023-01-29T04:13:57.126Z</time>
      </trkpt>
      <trkpt lat="48.8914" lon="1.83741">
        <ele>106</ele>
        <time>2023-01-29T04:14:01.637Z</time>
      </trkpt>
      <trkpt lat="48.89134" lon="1.83735">
        <ele>106</ele>
        <time>2023-01-29T04:14:06.181Z</time>
      </trkpt>
      <trkpt lat="48.89128" lon="1.83729">
        <ele>106</ele>
        <time>2023-01-29T04:14:10.967Z</time>
      </trkpt>
      <trkpt lat="48.89122" lon="1.83723">
        <ele>106</ele>
        <time>2023-01-29T04:14:15.633Z</time>
      </trkpt>
      <trkpt lat="48.89117" lon="1.83718">
        <ele>106</ele>
        <time>2023-01-29T04:14:20.178Z</time>
      </trkpt>
      <trkpt lat="48.89111" lon="1.83712">
        <ele>106</ele>
        <time>2023-01-29T04:14:24.244Z</time>
      </trkpt>
      <trkpt lat="48.89106" lon="1.83705">
        <ele>106</ele>
        <time>2023-01-29T04:14:28.701Z</time>
      </trkpt>
      <trkpt lat="48.89101" lon="1.83698">
        <ele>106</ele>
        <time>2023-01-29T04:14:32.615Z</time>
      </trkpt>
      <trkpt lat="48.89096" lon="1.83693">
        <ele>106</ele>
        <time>2023-01-29T04:14:37.279Z</time>
      </trkpt>
      <trkpt lat="48.89092" lon="1.83685">
        <ele>106</ele>
        <time>2023-01-29T04:14:41.224Z</time>
      </trkpt>
      <trkpt lat="48.89087" lon="1.83679">
        <ele>106</ele>
        <time>2023-01-29T04:14:45.961Z</time>
      </trkpt>
      <trkpt lat="48.89082" lon="1.83672">
        <ele>106</ele>
        <time>2023-01-29T04:14:49.953Z</time>
      </trkpt>
      <trkpt lat="48.89078" lon="1.83667">
        <ele>106</ele>
        <time>2023-01-29T04:14:53.836Z</time>
      </trkpt>
      <trkpt lat="48.89072" lon="1.83657">
        <ele>106</ele>
        <time>2023-01-29T04:14:58.418Z</time>
      </trkpt>
      <trkpt lat="48.89068" lon="1.83649">
        <ele>107</ele>
        <time>2023-01-29T04:15:03.201Z</time>
      </trkpt>
      <trkpt lat="48.89063" lon="1.8364">
        <ele>107</ele>
        <time>2023-01-29T04:15:07.743Z</time>
      </trkpt>
      <trkpt lat="48.89058" lon="1.83632">
        <ele>107</ele>
        <time>2023-01-29T04:15:12.404Z</time>
      </trkpt>
      <trkpt lat="48.89053" lon="1.83624">
        <ele>106</ele>
        <time>2023-01-29T04:15:16.348Z</time>
      </trkpt>
      <trkpt lat="48.89049" lon="1.83616">
        <ele>106</ele>
        <time>2023-01-29T04:15:20.904Z</time>
      </trkpt>
      <trkpt lat="48.89044" lon="1.83608">
        <ele>106</ele>
        <time>2023-01-29T04:15:24.834Z</time>
      </trkpt>
      <trkpt lat="48.89039" lon="1.83599">
        <ele>106</ele>
        <time>2023-01-29T04:15:29.259Z</time>
      </trkpt>
      <trkpt lat="48.89034" lon="1.83592">
        <ele>106</ele>
        <time>2023-01-29T04:15:33.803Z</time>
      </trkpt>
      <trkpt lat="48.89029" lon="1.83584">
        <ele>106</ele>
        <time>2023-01-29T04:15:38.227Z</time>
      </trkpt>
      <trkpt lat="48.89024" lon="1.83576">
        <ele>106</ele>
        <time>2023-01-29T04:15:42.770Z</time>
      </trkpt>
      <trkpt lat="48.8902" lon="1.83569">
        <ele>106</ele>
        <time>2023-01-29T04:15:46.835Z</time>
      </trkpt>
      <trkpt lat="48.89015" lon="1.83562">
        <ele>106</ele>
        <time>2023-01-29T04:15:50.899Z</time>
      </trkpt>
      <trkpt lat="48.89011" lon="1.83556">
        <ele>108</ele>
        <time>2023-01-29T04:15:54.725Z</time>
      </trkpt>
      <trkpt lat="48.89006" lon="1.83549">
        <ele>108</ele>
        <time>2023-01-29T04:15:59.271Z</time>
      </trkpt>
      <trkpt lat="48.89001" lon="1.83543">
        <ele>108</ele>
        <time>2023-01-29T04:16:03.828Z</time>
      </trkpt>
      <trkpt lat="48.88997" lon="1.83536">
        <ele>108</ele>
        <time>2023-01-29T04:16:08Z</time>
      </trkpt>
      <trkpt lat="48.88992" lon="1.83528">
        <ele>108</ele>
        <time>2023-01-29T04:16:12.424Z</time>
      </trkpt>
      <trkpt lat="48.88988" lon="1.83521">
        <ele>108</ele>
        <time>2023-01-29T04:16:17.051Z</time>
      </trkpt>
      <trkpt lat="48.88982" lon="1.83514">
        <ele>108</ele>
        <time>2023-01-29T04:16:21.598Z</time>
      </trkpt>
      <trkpt lat="48.88978" lon="1.83507">
        <ele>107</ele>
        <time>2023-01-29T04:16:26.226Z</time>
      </trkpt>
      <trkpt lat="48.88974" lon="1.83498">
        <ele>107</ele>
        <time>2023-01-29T04:16:30.207Z</time>
      </trkpt>
      <trkpt lat="48.88969" lon="1.83491">
        <ele>107</ele>
        <time>2023-01-29T04:16:34.847Z</time>
      </trkpt>
      <trkpt lat="48.88964" lon="1.83481">
        <ele>108</ele>
        <time>2023-01-29T04:16:39.393Z</time>
      </trkpt>
      <trkpt lat="48.8896" lon="1.83473">
        <ele>108</ele>
        <time>2023-01-29T04:16:43.938Z</time>
      </trkpt>
      <trkpt lat="48.88955" lon="1.83465">
        <ele>109</ele>
        <time>2023-01-29T04:16:48.463Z</time>
      </trkpt>
      <trkpt lat="48.88951" lon="1.83458">
        <ele>109</ele>
        <time>2023-01-29T04:16:52.665Z</time>
      </trkpt>
      <trkpt lat="48.88947" lon="1.83453">
        <ele>109</ele>
        <time>2023-01-29T04:16:57.144Z</time>
      </trkpt>
      <trkpt lat="48.88941" lon="1.83446">
        <ele>109</ele>
        <time>2023-01-29T04:17:01.634Z</time>
      </trkpt>
      <trkpt lat="48.88936" lon="1.83438">
        <ele>109</ele>
        <time>2023-01-29T04:17:06.416Z</time>
      </trkpt>
      <trkpt lat="48.88931" lon="1.83431">
        <ele>109</ele>
        <time>2023-01-29T04:17:10.481Z</time>
      </trkpt>
      <trkpt lat="48.88926" lon="1.83422">
        <ele>109</ele>
        <time>2023-01-29T04:17:15.057Z</time>
      </trkpt>
      <trkpt lat="48.88922" lon="1.83416">
        <ele>109</ele>
        <time>2023-01-29T04:17:19.127Z</time>
      </trkpt>
      <trkpt lat="48.88917" lon="1.83409">
        <ele>109</ele>
        <time>2023-01-29T04:17:23.633Z</time>
      </trkpt>
      <trkpt lat="48.88911" lon="1.83403">
        <ele>109</ele>
        <time>2023-01-29T04:17:28.178Z</time>
      </trkpt>
      <trkpt lat="48.88906" lon="1.83394">
        <ele>109</ele>
        <time>2023-01-29T04:17:32.244Z</time>
      </trkpt>
      <trkpt lat="48.88901" lon="1.83386">
        <ele>110</ele>
        <time>2023-01-29T04:17:36.428Z</time>
      </trkpt>
      <trkpt lat="48.88897" lon="1.83377">
        <ele>110</ele>
        <time>2023-01-29T04:17:40.972Z</time>
      </trkpt>
      <trkpt lat="48.88892" lon="1.83368">
        <ele>110</ele>
        <time>2023-01-29T04:17:45.634Z</time>
      </trkpt>
      <trkpt lat="48.88887" lon="1.8336">
        <ele>110</ele>
        <time>2023-01-29T04:17:50.298Z</time>
      </trkpt>
      <trkpt lat="48.88883" lon="1.83351">
        <ele>110</ele>
        <time>2023-01-29T04:17:54.836Z</time>
      </trkpt>
      <trkpt lat="48.88879" lon="1.83345">
        <ele>111</ele>
        <time>2023-01-29T04:17:59.027Z</time>
      </trkpt>
      <trkpt lat="48.88874" lon="1.83337">
        <ele>112</ele>
        <time>2023-01-29T04:18:03.505Z</time>
      </trkpt>
      <trkpt lat="48.8887" lon="1.83331">
        <ele>112</ele>
        <time>2023-01-29T04:18:07.398Z</time>
      </trkpt>
      <trkpt lat="48.88861" lon="1.83316">
        <ele>112</ele>
        <time>2023-01-29T04:18:16.091Z</time>
      </trkpt>
      <trkpt lat="48.88856" lon="1.83308">
        <ele>112</ele>
        <time>2023-01-29T04:18:20.636Z</time>
      </trkpt>
      <trkpt lat="48.88851" lon="1.833">
        <ele>112</ele>
        <time>2023-01-29T04:18:24.704Z</time>
      </trkpt>
      <trkpt lat="48.88846" lon="1.83293">
        <ele>114</ele>
        <time>2023-01-29T04:18:29.181Z</time>
      </trkpt>
      <trkpt lat="48.88842" lon="1.83285">
        <ele>114</ele>
        <time>2023-01-29T04:18:33.191Z</time>
      </trkpt>
      <trkpt lat="48.88837" lon="1.83278">
        <ele>114</ele>
        <time>2023-01-29T04:18:37.787Z</time>
      </trkpt>
      <trkpt lat="48.88832" lon="1.83271">
        <ele>114</ele>
        <time>2023-01-29T04:18:41.799Z</time>
      </trkpt>
      <trkpt lat="48.88827" lon="1.83263">
        <ele>114</ele>
        <time>2023-01-29T04:18:46.460Z</time>
      </trkpt>
      <trkpt lat="48.88823" lon="1.83255">
        <ele>114</ele>
        <time>2023-01-29T04:18:51.002Z</time>
      </trkpt>
      <trkpt lat="48.88818" lon="1.83247">
        <ele>114</ele>
        <time>2023-01-29T04:18:55.663Z</time>
      </trkpt>
      <trkpt lat="48.88814" lon="1.83239">
        <ele>114</ele>
        <time>2023-01-29T04:18:59.608Z</time>
      </trkpt>
      <trkpt lat="48.8881" lon="1.83229">
        <ele>114</ele>
        <time>2023-01-29T04:19:04.268Z</time>
      </trkpt>
      <trkpt lat="48.88805" lon="1.8322">
        <ele>114</ele>
        <time>2023-01-29T04:19:08.689Z</time>
      </trkpt>
      <trkpt lat="48.88801" lon="1.83212">
        <ele>114</ele>
        <time>2023-01-29T04:19:13.230Z</time>
      </trkpt>
      <trkpt lat="48.88798" lon="1.83205">
        <ele>114</ele>
        <time>2023-01-29T04:19:17.651Z</time>
      </trkpt>
      <trkpt lat="48.88794" lon="1.83195">
        <ele>114</ele>
        <time>2023-01-29T04:19:22.412Z</time>
      </trkpt>
      <trkpt lat="48.88789" lon="1.83188">
        <ele>114</ele>
        <time>2023-01-29T04:19:27.084Z</time>
      </trkpt>
      <trkpt lat="48.88785" lon="1.83179">
        <ele>114</ele>
        <time>2023-01-29T04:19:31.586Z</time>
      </trkpt>
      <trkpt lat="48.8878" lon="1.8317">
        <ele>114</ele>
        <time>2023-01-29T04:19:35.777Z</time>
      </trkpt>
      <trkpt lat="48.88776" lon="1.83162">
        <ele>114</ele>
        <time>2023-01-29T04:19:39.721Z</time>
      </trkpt>
      <trkpt lat="48.88772" lon="1.83154">
        <ele>114</ele>
        <time>2023-01-29T04:19:44.264Z</time>
      </trkpt>
      <trkpt lat="48.88768" lon="1.83144">
        <ele>114</ele>
        <time>2023-01-29T04:19:48.806Z</time>
      </trkpt>
      <trkpt lat="48.88764" lon="1.83136">
        <ele>115</ele>
        <time>2023-01-29T04:19:53.349Z</time>
      </trkpt>
      <trkpt lat="48.8876" lon="1.83126">
        <ele>115</ele>
        <time>2023-01-29T04:19:57.836Z</time>
      </trkpt>
      <trkpt lat="48.88757" lon="1.83117">
        <ele>116</ele>
        <time>2023-01-29T04:20:02.316Z</time>
      </trkpt>
      <trkpt lat="48.88754" lon="1.83108">
        <ele>116</ele>
        <time>2023-01-29T04:20:06.977Z</time>
      </trkpt>
      <trkpt lat="48.8875" lon="1.83101">
        <ele>116</ele>
        <time>2023-01-29T04:20:10.836Z</time>
      </trkpt>
      <trkpt lat="48.88746" lon="1.83092">
        <ele>118</ele>
        <time>2023-01-29T04:20:15.345Z</time>
      </trkpt>
      <trkpt lat="48.88742" lon="1.83082">
        <ele>118</ele>
        <time>2023-01-29T04:20:19.836Z</time>
      </trkpt>
      <trkpt lat="48.88737" lon="1.83074">
        <ele>118</ele>
        <time>2023-01-29T04:20:24.381Z</time>
      </trkpt>
      <trkpt lat="48.88734" lon="1.83065">
        <ele>119</ele>
        <time>2023-01-29T04:20:28.372Z</time>
      </trkpt>
      <trkpt lat="48.8873" lon="1.83057">
        <ele>119</ele>
        <time>2023-01-29T04:20:33.033Z</time>
      </trkpt>
      <trkpt lat="48.88727" lon="1.83049">
        <ele>119</ele>
        <time>2023-01-29T04:20:37.693Z</time>
      </trkpt>
      <trkpt lat="48.88723" lon="1.83041">
        <ele>118</ele>
        <time>2023-01-29T04:20:41.636Z</time>
      </trkpt>
      <trkpt lat="48.88719" lon="1.83035">
        <ele>118</ele>
        <time>2023-01-29T04:20:45.700Z</time>
      </trkpt>
      <trkpt lat="48.88715" lon="1.83028">
        <ele>118</ele>
        <time>2023-01-29T04:20:50.240Z</time>
      </trkpt>
      <trkpt lat="48.88711" lon="1.8302">
        <ele>118</ele>
        <time>2023-01-29T04:20:55.019Z</time>
      </trkpt>
      <trkpt lat="48.88707" lon="1.83012">
        <ele>118</ele>
        <time>2023-01-29T04:20:59.066Z</time>
      </trkpt>
      <trkpt lat="48.88704" lon="1.83005">
        <ele>118</ele>
        <time>2023-01-29T04:21:03.245Z</time>
      </trkpt>
      <trkpt lat="48.887" lon="1.82997">
        <ele>118</ele>
        <time>2023-01-29T04:21:07.905Z</time>
      </trkpt>
      <trkpt lat="48.88695" lon="1.82989">
        <ele>118</ele>
        <time>2023-01-29T04:21:12.310Z</time>
      </trkpt>
      <trkpt lat="48.88692" lon="1.82982">
        <ele>118</ele>
        <time>2023-01-29T04:21:16.360Z</time>
      </trkpt>
      <trkpt lat="48.8869" lon="1.82978">
        <ele>118</ele>
        <time>2023-01-29T04:21:20.211Z</time>
      </trkpt>
      <trkpt lat="48.88685" lon="1.8297">
        <ele>118</ele>
        <time>2023-01-29T04:21:24.991Z</time>
      </trkpt>
      <trkpt lat="48.88681" lon="1.82962">
        <ele>118</ele>
        <time>2023-01-29T04:21:28.836Z</time>
      </trkpt>
      <trkpt lat="48.88677" lon="1.82955">
        <ele>119</ele>
        <time>2023-01-29T04:21:33.356Z</time>
      </trkpt>
      <trkpt lat="48.88674" lon="1.82947">
        <ele>119</ele>
        <time>2023-01-29T04:21:37.836Z</time>
      </trkpt>
      <trkpt lat="48.88669" lon="1.8294">
        <ele>119</ele>
        <time>2023-01-29T04:21:42.317Z</time>
      </trkpt>
      <trkpt lat="48.88665" lon="1.82932">
        <ele>119</ele>
        <time>2023-01-29T04:21:46.978Z</time>
      </trkpt>
      <trkpt lat="48.88661" lon="1.82926">
        <ele>119</ele>
        <time>2023-01-29T04:21:50.802Z</time>
      </trkpt>
      <trkpt lat="48.88657" lon="1.8292">
        <ele>119</ele>
        <time>2023-01-29T04:21:55.343Z</time>
      </trkpt>
      <trkpt lat="48.88652" lon="1.82915">
        <ele>119</ele>
        <time>2023-01-29T04:21:59.406Z</time>
      </trkpt>
      <trkpt lat="48.88646" lon="1.82909">
        <ele>119</ele>
        <time>2023-01-29T04:22:03.946Z</time>
      </trkpt>
      <trkpt lat="48.88642" lon="1.82902">
        <ele>119</ele>
        <time>2023-01-29T04:22:08.489Z</time>
      </trkpt>
      <trkpt lat="48.88636" lon="1.82895">
        <ele>119</ele>
        <time>2023-01-29T04:22:13.263Z</time>
      </trkpt>
      <trkpt lat="48.8863" lon="1.82888">
        <ele>119</ele>
        <time>2023-01-29T04:22:17.687Z</time>
      </trkpt>
      <trkpt lat="48.88625" lon="1.82882">
        <ele>119</ele>
        <time>2023-01-29T04:22:22.225Z</time>
      </trkpt>
      <trkpt lat="48.8862" lon="1.82876">
        <ele>119</ele>
        <time>2023-01-29T04:22:26.404Z</time>
      </trkpt>
      <trkpt lat="48.88617" lon="1.82872">
        <ele>119</ele>
        <time>2023-01-29T04:22:30.942Z</time>
      </trkpt>
      <trkpt lat="48.88611" lon="1.82862">
        <ele>119</ele>
        <time>2023-01-29T04:22:35.481Z</time>
      </trkpt>
      <trkpt lat="48.88606" lon="1.82857">
        <ele>119</ele>
        <time>2023-01-29T04:22:40.021Z</time>
      </trkpt>
      <trkpt lat="48.886" lon="1.82849">
        <ele>119</ele>
        <time>2023-01-29T04:22:44.662Z</time>
      </trkpt>
      <trkpt lat="48.88595" lon="1.82844">
        <ele>120</ele>
        <time>2023-01-29T04:22:48.618Z</time>
      </trkpt>
      <trkpt lat="48.88589" lon="1.82838">
        <ele>120</ele>
        <time>2023-01-29T04:22:53.274Z</time>
      </trkpt>
      <trkpt lat="48.88584" lon="1.82833">
        <ele>120</ele>
        <time>2023-01-29T04:22:57.692Z</time>
      </trkpt>
      <trkpt lat="48.88578" lon="1.82828">
        <ele>120</ele>
        <time>2023-01-29T04:23:01.632Z</time>
      </trkpt>
      <trkpt lat="48.88575" lon="1.82822">
        <ele>120</ele>
        <time>2023-01-29T04:23:06.409Z</time>
      </trkpt>
      <trkpt lat="48.88567" lon="1.82818">
        <ele>121</ele>
        <time>2023-01-29T04:23:10.469Z</time>
      </trkpt>
      <trkpt lat="48.88562" lon="1.82814">
        <ele>121</ele>
        <time>2023-01-29T04:23:15.188Z</time>
      </trkpt>
      <trkpt lat="48.88556" lon="1.8281">
        <ele>121</ele>
        <time>2023-01-29T04:23:19.663Z</time>
      </trkpt>
      <trkpt lat="48.8855" lon="1.82805">
        <ele>121</ele>
        <time>2023-01-29T04:23:24.403Z</time>
      </trkpt>
      <trkpt lat="48.88544" lon="1.82799">
        <ele>121</ele>
        <time>2023-01-29T04:23:28.859Z</time>
      </trkpt>
      <trkpt lat="48.88539" lon="1.82795">
        <ele>121</ele>
        <time>2023-01-29T04:23:33.040Z</time>
      </trkpt>
      <trkpt lat="48.88533" lon="1.82792">
        <ele>121</ele>
        <time>2023-01-29T04:23:37.542Z</time>
      </trkpt>
      <trkpt lat="48.88527" lon="1.82787">
        <ele>122</ele>
        <time>2023-01-29T04:23:41.983Z</time>
      </trkpt>
      <trkpt lat="48.88523" lon="1.82782">
        <ele>122</ele>
        <time>2023-01-29T04:23:46.539Z</time>
      </trkpt>
      <trkpt lat="48.88517" lon="1.82778">
        <ele>122</ele>
        <time>2023-01-29T04:23:51.081Z</time>
      </trkpt>
      <trkpt lat="48.88511" lon="1.82776">
        <ele>122</ele>
        <time>2023-01-29T04:23:55.621Z</time>
      </trkpt>
      <trkpt lat="48.88506" lon="1.82774">
        <ele>122</ele>
        <time>2023-01-29T04:23:59.563Z</time>
      </trkpt>
      <trkpt lat="48.885" lon="1.82771">
        <ele>122</ele>
        <time>2023-01-29T04:24:03.982Z</time>
      </trkpt>
      <trkpt lat="48.88494" lon="1.82766">
        <ele>122</ele>
        <time>2023-01-29T04:24:08.404Z</time>
      </trkpt>
      <trkpt lat="48.88487" lon="1.82762">
        <ele>122</ele>
        <time>2023-01-29T04:24:13.063Z</time>
      </trkpt>
      <trkpt lat="48.88481" lon="1.82759">
        <ele>123</ele>
        <time>2023-01-29T04:24:17.366Z</time>
      </trkpt>
      <trkpt lat="48.88476" lon="1.82757">
        <ele>123</ele>
        <time>2023-01-29T04:24:21.429Z</time>
      </trkpt>
      <trkpt lat="48.8847" lon="1.82753">
        <ele>123</ele>
        <time>2023-01-29T04:24:25.373Z</time>
      </trkpt>
      <trkpt lat="48.88464" lon="1.82749">
        <ele>123</ele>
        <time>2023-01-29T04:24:29.435Z</time>
      </trkpt>
      <trkpt lat="48.88458" lon="1.82746">
        <ele>123</ele>
        <time>2023-01-29T04:24:33.967Z</time>
      </trkpt>
      <trkpt lat="48.88452" lon="1.82743">
        <ele>123</ele>
        <time>2023-01-29T04:24:38.428Z</time>
      </trkpt>
      <trkpt lat="48.88445" lon="1.82739">
        <ele>123</ele>
        <time>2023-01-29T04:24:42.969Z</time>
      </trkpt>
      <trkpt lat="48.88439" lon="1.82737">
        <ele>123</ele>
        <time>2023-01-29T04:24:47.450Z</time>
      </trkpt>
      <trkpt lat="48.88434" lon="1.82734">
        <ele>123</ele>
        <time>2023-01-29T04:24:51.614Z</time>
      </trkpt>
      <trkpt lat="48.88428" lon="1.8273">
        <ele>123</ele>
        <time>2023-01-29T04:24:56.101Z</time>
      </trkpt>
      <trkpt lat="48.88421" lon="1.82726">
        <ele>123</ele>
        <time>2023-01-29T04:25:00.689Z</time>
      </trkpt>
      <trkpt lat="48.88415" lon="1.82723">
        <ele>123</ele>
        <time>2023-01-29T04:25:05.226Z</time>
      </trkpt>
      <trkpt lat="48.88409" lon="1.8272">
        <ele>123</ele>
        <time>2023-01-29T04:25:09.643Z</time>
      </trkpt>
      <trkpt lat="48.88403" lon="1.82718">
        <ele>122</ele>
        <time>2023-01-29T04:25:13.940Z</time>
      </trkpt>
      <trkpt lat="48.88398" lon="1.82715">
        <ele>122</ele>
        <time>2023-01-29T04:25:17.998Z</time>
      </trkpt>
      <trkpt lat="48.88391" lon="1.82711">
        <ele>122</ele>
        <time>2023-01-29T04:25:23.049Z</time>
      </trkpt>
      <trkpt lat="48.88385" lon="1.82708">
        <ele>122</ele>
        <time>2023-01-29T04:25:27.095Z</time>
      </trkpt>
      <trkpt lat="48.88379" lon="1.82704">
        <ele>122</ele>
        <time>2023-01-29T04:25:31.589Z</time>
      </trkpt>
      <trkpt lat="48.88374" lon="1.827">
        <ele>121</ele>
        <time>2023-01-29T04:25:36.186Z</time>
      </trkpt>
      <trkpt lat="48.88368" lon="1.82697">
        <ele>121</ele>
        <time>2023-01-29T04:25:40.661Z</time>
      </trkpt>
      <trkpt lat="48.88362" lon="1.82694">
        <ele>121</ele>
        <time>2023-01-29T04:25:45.143Z</time>
      </trkpt>
      <trkpt lat="48.88356" lon="1.8269">
        <ele>121</ele>
        <time>2023-01-29T04:25:49.615Z</time>
      </trkpt>
      <trkpt lat="48.8835" lon="1.82688">
        <ele>121</ele>
        <time>2023-01-29T04:25:54.032Z</time>
      </trkpt>
      <trkpt lat="48.88344" lon="1.82685">
        <ele>122</ele>
        <time>2023-01-29T04:25:58.689Z</time>
      </trkpt>
      <trkpt lat="48.88337" lon="1.82682">
        <ele>122</ele>
        <time>2023-01-29T04:26:03.184Z</time>
      </trkpt>
      <trkpt lat="48.88331" lon="1.8268">
        <ele>122</ele>
        <time>2023-01-29T04:26:07.646Z</time>
      </trkpt>
      <trkpt lat="48.88325" lon="1.82677">
        <ele>122</ele>
        <time>2023-01-29T04:26:12.347Z</time>
      </trkpt>
      <trkpt lat="48.88319" lon="1.82674">
        <ele>122</ele>
        <time>2023-01-29T04:26:16.362Z</time>
      </trkpt>
      <trkpt lat="48.88313" lon="1.82671">
        <ele>122</ele>
        <time>2023-01-29T04:26:21.019Z</time>
      </trkpt>
      <trkpt lat="48.88307" lon="1.82666">
        <ele>122</ele>
        <time>2023-01-29T04:26:25.656Z</time>
      </trkpt>
      <trkpt lat="48.88302" lon="1.82661">
        <ele>122</ele>
        <time>2023-01-29T04:26:30.191Z</time>
      </trkpt>
      <trkpt lat="48.88295" lon="1.82657">
        <ele>122</ele>
        <time>2023-01-29T04:26:34.130Z</time>
      </trkpt>
      <trkpt lat="48.88289" lon="1.82652">
        <ele>123</ele>
        <time>2023-01-29T04:26:38.665Z</time>
      </trkpt>
      <trkpt lat="48.88284" lon="1.8265">
        <ele>123</ele>
        <time>2023-01-29T04:26:42.605Z</time>
      </trkpt>
      <trkpt lat="48.88277" lon="1.82647">
        <ele>123</ele>
        <time>2023-01-29T04:26:47.262Z</time>
      </trkpt>
      <trkpt lat="48.88271" lon="1.82643">
        <ele>123</ele>
        <time>2023-01-29T04:26:51.785Z</time>
      </trkpt>
      <trkpt lat="48.88265" lon="1.82641">
        <ele>123</ele>
        <time>2023-01-29T04:26:55.836Z</time>
      </trkpt>
      <trkpt lat="48.88258" lon="1.82637">
        <ele>122</ele>
        <time>2023-01-29T04:27:00.400Z</time>
      </trkpt>
      <trkpt lat="48.88252" lon="1.82633">
        <ele>122</ele>
        <time>2023-01-29T04:27:04.939Z</time>
      </trkpt>
      <trkpt lat="48.88246" lon="1.82628">
        <ele>122</ele>
        <time>2023-01-29T04:27:08.836Z</time>
      </trkpt>
      <trkpt lat="48.88241" lon="1.82625">
        <ele>122</ele>
        <time>2023-01-29T04:27:13.426Z</time>
      </trkpt>
      <trkpt lat="48.88235" lon="1.82622">
        <ele>121</ele>
        <time>2023-01-29T04:27:17.362Z</time>
      </trkpt>
      <trkpt lat="48.88228" lon="1.82618">
        <ele>121</ele>
        <time>2023-01-29T04:27:21.924Z</time>
      </trkpt>
      <trkpt lat="48.88223" lon="1.82614">
        <ele>121</ele>
        <time>2023-01-29T04:27:25.963Z</time>
      </trkpt>
      <trkpt lat="48.88217" lon="1.82612">
        <ele>121</ele>
        <time>2023-01-29T04:27:30.023Z</time>
      </trkpt>
      <trkpt lat="48.8821" lon="1.82608">
        <ele>121</ele>
        <time>2023-01-29T04:27:34.443Z</time>
      </trkpt>
      <trkpt lat="48.88204" lon="1.82605">
        <ele>121</ele>
        <time>2023-01-29T04:27:38.983Z</time>
      </trkpt>
      <trkpt lat="48.88199" lon="1.82601">
        <ele>121</ele>
        <time>2023-01-29T04:27:43.485Z</time>
      </trkpt>
      <trkpt lat="48.88193" lon="1.82598">
        <ele>121</ele>
        <time>2023-01-29T04:27:47.342Z</time>
      </trkpt>
      <trkpt lat="48.88188" lon="1.82594">
        <ele>121</ele>
        <time>2023-01-29T04:27:51.836Z</time>
      </trkpt>
      <trkpt lat="48.88181" lon="1.82591">
        <ele>121</ele>
        <time>2023-01-29T04:27:56.298Z</time>
      </trkpt>
      <trkpt lat="48.88175" lon="1.82589">
        <ele>120</ele>
        <time>2023-01-29T04:28:00.902Z</time>
      </trkpt>
      <trkpt lat="48.88169" lon="1.82586">
        <ele>120</ele>
        <time>2023-01-29T04:28:05.018Z</time>
      </trkpt>
      <trkpt lat="48.88164" lon="1.82582">
        <ele>120</ele>
        <time>2023-01-29T04:28:09.557Z</time>
      </trkpt>
      <trkpt lat="48.88159" lon="1.82576">
        <ele>120</ele>
        <time>2023-01-29T04:28:13.975Z</time>
      </trkpt>
      <trkpt lat="48.88159" lon="1.82565">
        <ele>120</ele>
        <time>2023-01-29T04:28:18.513Z</time>
      </trkpt>
      <trkpt lat="48.88164" lon="1.82556">
        <ele>120</ele>
        <time>2023-01-29T04:28:23.051Z</time>
      </trkpt>
      <trkpt lat="48.88169" lon="1.8255">
        <ele>120</ele>
        <time>2023-01-29T04:28:27.230Z</time>
      </trkpt>
      <trkpt lat="48.88175" lon="1.82543">
        <ele>120</ele>
        <time>2023-01-29T04:28:31.402Z</time>
      </trkpt>
      <trkpt lat="48.8818" lon="1.82536">
        <ele>119</ele>
        <time>2023-01-29T04:28:35.349Z</time>
      </trkpt>
      <trkpt lat="48.88185" lon="1.82528">
        <ele>120</ele>
        <time>2023-01-29T04:28:39.886Z</time>
      </trkpt>
      <trkpt lat="48.8819" lon="1.82522">
        <ele>120</ele>
        <time>2023-01-29T04:28:43.946Z</time>
      </trkpt>
      <trkpt lat="48.88195" lon="1.82516">
        <ele>120</ele>
        <time>2023-01-29T04:28:48.008Z</time>
      </trkpt>
      <trkpt lat="48.88199" lon="1.8251">
        <ele>120</ele>
        <time>2023-01-29T04:28:51.948Z</time>
      </trkpt>
      <trkpt lat="48.88204" lon="1.82504">
        <ele>120</ele>
        <time>2023-01-29T04:28:56.006Z</time>
      </trkpt>
      <trkpt lat="48.88209" lon="1.82497">
        <ele>120</ele>
        <time>2023-01-29T04:29:00.426Z</time>
      </trkpt>
      <trkpt lat="48.88214" lon="1.82493">
        <ele>120</ele>
        <time>2023-01-29T04:29:04.962Z</time>
      </trkpt>
      <trkpt lat="48.88219" lon="1.82488">
        <ele>120</ele>
        <time>2023-01-29T04:29:09.380Z</time>
      </trkpt>
      <trkpt lat="48.88224" lon="1.82483">
        <ele>119</ele>
        <time>2023-01-29T04:29:13.760Z</time>
      </trkpt>
      <trkpt lat="48.88227" lon="1.8248">
        <ele>119</ele>
        <time>2023-01-29T04:29:18.122Z</time>
      </trkpt>
      <trkpt lat="48.88233" lon="1.82472">
        <ele>119</ele>
        <time>2023-01-29T04:29:22.635Z</time>
      </trkpt>
      <trkpt lat="48.88238" lon="1.82466">
        <ele>119</ele>
        <time>2023-01-29T04:29:26.815Z</time>
      </trkpt>
      <trkpt lat="48.88244" lon="1.8246">
        <ele>119</ele>
        <time>2023-01-29T04:29:31.409Z</time>
      </trkpt>
      <trkpt lat="48.88249" lon="1.82455">
        <ele>118</ele>
        <time>2023-01-29T04:29:35.415Z</time>
      </trkpt>
      <trkpt lat="48.88254" lon="1.82449">
        <ele>118</ele>
        <time>2023-01-29T04:29:39.926Z</time>
      </trkpt>
      <trkpt lat="48.8826" lon="1.82444">
        <ele>118</ele>
        <time>2023-01-29T04:29:43.836Z</time>
      </trkpt>
      <trkpt lat="48.88265" lon="1.82438">
        <ele>120</ele>
        <time>2023-01-29T04:29:48.195Z</time>
      </trkpt>
      <trkpt lat="48.88271" lon="1.82432">
        <ele>120</ele>
        <time>2023-01-29T04:29:52.733Z</time>
      </trkpt>
      <trkpt lat="48.88276" lon="1.82426">
        <ele>118</ele>
        <time>2023-01-29T04:29:57.392Z</time>
      </trkpt>
      <trkpt lat="48.88281" lon="1.82422">
        <ele>118</ele>
        <time>2023-01-29T04:30:01.453Z</time>
      </trkpt>
      <trkpt lat="48.88287" lon="1.82416">
        <ele>118</ele>
        <time>2023-01-29T04:30:05.991Z</time>
      </trkpt>
      <trkpt lat="48.88292" lon="1.82412">
        <ele>120</ele>
        <time>2023-01-29T04:30:09.932Z</time>
      </trkpt>
      <trkpt lat="48.88298" lon="1.82407">
        <ele>120</ele>
        <time>2023-01-29T04:30:14.349Z</time>
      </trkpt>
      <trkpt lat="48.88303" lon="1.82401">
        <ele>119</ele>
        <time>2023-01-29T04:30:19.007Z</time>
      </trkpt>
      <trkpt lat="48.8831" lon="1.82396">
        <ele>119</ele>
        <time>2023-01-29T04:30:23.545Z</time>
      </trkpt>
      <trkpt lat="48.88315" lon="1.82391">
        <ele>119</ele>
        <time>2023-01-29T04:30:28.082Z</time>
      </trkpt>
      <trkpt lat="48.88321" lon="1.82385">
        <ele>119</ele>
        <time>2023-01-29T04:30:32.621Z</time>
      </trkpt>
      <trkpt lat="48.88326" lon="1.8238">
        <ele>119</ele>
        <time>2023-01-29T04:30:37.279Z</time>
      </trkpt>
      <trkpt lat="48.88331" lon="1.82375">
        <ele>118</ele>
        <time>2023-01-29T04:30:41.818Z</time>
      </trkpt>
      <trkpt lat="48.88338" lon="1.82369">
        <ele>118</ele>
        <time>2023-01-29T04:30:46.475Z</time>
      </trkpt>
      <trkpt lat="48.88343" lon="1.82364">
        <ele>118</ele>
        <time>2023-01-29T04:30:51.105Z</time>
      </trkpt>
      <trkpt lat="48.8835" lon="1.82359">
        <ele>118</ele>
        <time>2023-01-29T04:30:55.684Z</time>
      </trkpt>
      <trkpt lat="48.88356" lon="1.82353">
        <ele>118</ele>
        <time>2023-01-29T04:30:59.609Z</time>
      </trkpt>
      <trkpt lat="48.88363" lon="1.82349">
        <ele>118</ele>
        <time>2023-01-29T04:31:04.266Z</time>
      </trkpt>
      <trkpt lat="48.8837" lon="1.82344">
        <ele>117</ele>
        <time>2023-01-29T04:31:08.684Z</time>
      </trkpt>
      <trkpt lat="48.88376" lon="1.82337">
        <ele>117</ele>
        <time>2023-01-29T04:31:13.221Z</time>
      </trkpt>
      <trkpt lat="48.88382" lon="1.8233">
        <ele>117</ele>
        <time>2023-01-29T04:31:17.400Z</time>
      </trkpt>
      <trkpt lat="48.88388" lon="1.82324">
        <ele>117</ele>
        <time>2023-01-29T04:31:21.342Z</time>
      </trkpt>
      <trkpt lat="48.88394" lon="1.82317">
        <ele>116</ele>
        <time>2023-01-29T04:31:25.998Z</time>
      </trkpt>
      <trkpt lat="48.884" lon="1.82311">
        <ele>116</ele>
        <time>2023-01-29T04:31:30.537Z</time>
      </trkpt>
      <trkpt lat="48.88405" lon="1.82304">
        <ele>117</ele>
        <time>2023-01-29T04:31:34.598Z</time>
      </trkpt>
      <trkpt lat="48.88411" lon="1.82298">
        <ele>117</ele>
        <time>2023-01-29T04:31:39.100Z</time>
      </trkpt>
      <trkpt lat="48.88417" lon="1.82293">
        <ele>117</ele>
        <time>2023-01-29T04:31:43.197Z</time>
      </trkpt>
      <trkpt lat="48.88423" lon="1.82288">
        <ele>116</ele>
        <time>2023-01-29T04:31:47.261Z</time>
      </trkpt>
      <trkpt lat="48.8843" lon="1.82284">
        <ele>116</ele>
        <time>2023-01-29T04:31:51.438Z</time>
      </trkpt>
      <trkpt lat="48.88436" lon="1.82279">
        <ele>116</ele>
        <time>2023-01-29T04:31:55.618Z</time>
      </trkpt>
      <trkpt lat="48.88442" lon="1.82274">
        <ele>116</ele>
        <time>2023-01-29T04:31:59.679Z</time>
      </trkpt>
      <trkpt lat="48.88447" lon="1.82267">
        <ele>116</ele>
        <time>2023-01-29T04:32:04.218Z</time>
      </trkpt>
      <trkpt lat="48.88454" lon="1.82261">
        <ele>116</ele>
        <time>2023-01-29T04:32:08.637Z</time>
      </trkpt>
      <trkpt lat="48.8846" lon="1.82255">
        <ele>115</ele>
        <time>2023-01-29T04:32:13.277Z</time>
      </trkpt>
      <trkpt lat="48.88466" lon="1.82249">
        <ele>115</ele>
        <time>2023-01-29T04:32:17.741Z</time>
      </trkpt>
      <trkpt lat="48.88472" lon="1.82244">
        <ele>115</ele>
        <time>2023-01-29T04:32:21.637Z</time>
      </trkpt>
      <trkpt lat="48.88477" lon="1.8224">
        <ele>115</ele>
        <time>2023-01-29T04:32:25.698Z</time>
      </trkpt>
      <trkpt lat="48.88484" lon="1.82234">
        <ele>115</ele>
        <time>2023-01-29T04:32:30.216Z</time>
      </trkpt>
      <trkpt lat="48.88489" lon="1.82228">
        <ele>115</ele>
        <time>2023-01-29T04:32:34.158Z</time>
      </trkpt>
      <trkpt lat="48.88496" lon="1.82222">
        <ele>115</ele>
        <time>2023-01-29T04:32:38.815Z</time>
      </trkpt>
      <trkpt lat="48.88503" lon="1.82216">
        <ele>115</ele>
        <time>2023-01-29T04:32:42.836Z</time>
      </trkpt>
      <trkpt lat="48.88509" lon="1.82208">
        <ele>115</ele>
        <time>2023-01-29T04:32:47.297Z</time>
      </trkpt>
      <trkpt lat="48.88515" lon="1.82203">
        <ele>115</ele>
        <time>2023-01-29T04:32:51.715Z</time>
      </trkpt>
      <trkpt lat="48.8852" lon="1.82198">
        <ele>115</ele>
        <time>2023-01-29T04:32:56.226Z</time>
      </trkpt>
      <trkpt lat="48.88526" lon="1.82192">
        <ele>115</ele>
        <time>2023-01-29T04:33:00.674Z</time>
      </trkpt>
      <trkpt lat="48.88532" lon="1.82186">
        <ele>115</ele>
        <time>2023-01-29T04:33:05.165Z</time>
      </trkpt>
      <trkpt lat="48.88538" lon="1.8218">
        <ele>114</ele>
        <time>2023-01-29T04:33:09.633Z</time>
      </trkpt>
      <trkpt lat="48.88544" lon="1.82175">
        <ele>114</ele>
        <time>2023-01-29T04:33:13.769Z</time>
      </trkpt>
      <trkpt lat="48.88549" lon="1.8217">
        <ele>114</ele>
        <time>2023-01-29T04:33:17.635Z</time>
      </trkpt>
      <trkpt lat="48.88555" lon="1.82164">
        <ele>114</ele>
        <time>2023-01-29T04:33:22.100Z</time>
      </trkpt>
      <trkpt lat="48.8856" lon="1.82157">
        <ele>114</ele>
        <time>2023-01-29T04:33:26.235Z</time>
      </trkpt>
      <trkpt lat="48.88566" lon="1.82149">
        <ele>113</ele>
        <time>2023-01-29T04:33:30.836Z</time>
      </trkpt>
      <trkpt lat="48.88571" lon="1.82139">
        <ele>113</ele>
        <time>2023-01-29T04:33:35.559Z</time>
      </trkpt>
      <trkpt lat="48.88575" lon="1.82129">
        <ele>113</ele>
        <time>2023-01-29T04:33:40.183Z</time>
      </trkpt>
      <trkpt lat="48.88579" lon="1.8212">
        <ele>113</ele>
        <time>2023-01-29T04:33:44.643Z</time>
      </trkpt>
      <trkpt lat="48.88584" lon="1.82111">
        <ele>113</ele>
        <time>2023-01-29T04:33:48.702Z</time>
      </trkpt>
      <trkpt lat="48.88587" lon="1.82102">
        <ele>113</ele>
        <time>2023-01-29T04:33:52.659Z</time>
      </trkpt>
      <trkpt lat="48.8859" lon="1.82092">
        <ele>114</ele>
        <time>2023-01-29T04:33:56.881Z</time>
      </trkpt>
      <trkpt lat="48.8859" lon="1.82083">
        <ele>114</ele>
        <time>2023-01-29T04:34:00.895Z</time>
      </trkpt>
      <trkpt lat="48.88591" lon="1.82073">
        <ele>114</ele>
        <time>2023-01-29T04:34:05.433Z</time>
      </trkpt>
      <trkpt lat="48.88594" lon="1.82066">
        <ele>114</ele>
        <time>2023-01-29T04:34:10.125Z</time>
      </trkpt>
      <trkpt lat="48.88596" lon="1.82054">
        <ele>114</ele>
        <time>2023-01-29T04:34:14.653Z</time>
      </trkpt>
      <trkpt lat="48.88598" lon="1.82042">
        <ele>113</ele>
        <time>2023-01-29T04:34:19.322Z</time>
      </trkpt>
      <trkpt lat="48.88599" lon="1.82032">
        <ele>113</ele>
        <time>2023-01-29T04:34:23.392Z</time>
      </trkpt>
      <trkpt lat="48.88601" lon="1.8202">
        <ele>113</ele>
        <time>2023-01-29T04:34:27.924Z</time>
      </trkpt>
      <trkpt lat="48.88602" lon="1.82009">
        <ele>113</ele>
        <time>2023-01-29T04:34:32.011Z</time>
      </trkpt>
      <trkpt lat="48.88603" lon="1.82">
        <ele>113</ele>
        <time>2023-01-29T04:34:36.559Z</time>
      </trkpt>
      <trkpt lat="48.88603" lon="1.81991">
        <ele>113</ele>
        <time>2023-01-29T04:34:40.627Z</time>
      </trkpt>
      <trkpt lat="48.88604" lon="1.81981">
        <ele>114</ele>
        <time>2023-01-29T04:34:45.171Z</time>
      </trkpt>
      <trkpt lat="48.88604" lon="1.8197">
        <ele>114</ele>
        <time>2023-01-29T04:34:49.747Z</time>
      </trkpt>
      <trkpt lat="48.88604" lon="1.8196">
        <ele>114</ele>
        <time>2023-01-29T04:34:53.661Z</time>
      </trkpt>
      <trkpt lat="48.88605" lon="1.81951">
        <ele>115</ele>
        <time>2023-01-29T04:34:58.206Z</time>
      </trkpt>
      <trkpt lat="48.88607" lon="1.81941">
        <ele>115</ele>
        <time>2023-01-29T04:35:02.630Z</time>
      </trkpt>
      <trkpt lat="48.88608" lon="1.81931">
        <ele>115</ele>
        <time>2023-01-29T04:35:07.175Z</time>
      </trkpt>
      <trkpt lat="48.88611" lon="1.81922">
        <ele>115</ele>
        <time>2023-01-29T04:35:11.240Z</time>
      </trkpt>
      <trkpt lat="48.88614" lon="1.81911">
        <ele>115</ele>
        <time>2023-01-29T04:35:15.764Z</time>
      </trkpt>
      <trkpt lat="48.88616" lon="1.81901">
        <ele>116</ele>
        <time>2023-01-29T04:35:20.425Z</time>
      </trkpt>
      <trkpt lat="48.8862" lon="1.81892">
        <ele>116</ele>
        <time>2023-01-29T04:35:24.490Z</time>
      </trkpt>
      <trkpt lat="48.88624" lon="1.81883">
        <ele>116</ele>
        <time>2023-01-29T04:35:29.110Z</time>
      </trkpt>
      <trkpt lat="48.88628" lon="1.81873">
        <ele>115</ele>
        <time>2023-01-29T04:35:33.574Z</time>
      </trkpt>
      <trkpt lat="48.88632" lon="1.81865">
        <ele>115</ele>
        <time>2023-01-29T04:35:37.998Z</time>
      </trkpt>
      <trkpt lat="48.88636" lon="1.81855">
        <ele>115</ele>
        <time>2023-01-29T04:35:42.422Z</time>
      </trkpt>
      <trkpt lat="48.88641" lon="1.81846">
        <ele>116</ele>
        <time>2023-01-29T04:35:46.946Z</time>
      </trkpt>
      <trkpt lat="48.88646" lon="1.81838">
        <ele>116</ele>
        <time>2023-01-29T04:35:51.027Z</time>
      </trkpt>
      <trkpt lat="48.88651" lon="1.81831">
        <ele>116</ele>
        <time>2023-01-29T04:35:54.969Z</time>
      </trkpt>
      <trkpt lat="48.88656" lon="1.81825">
        <ele>115</ele>
        <time>2023-01-29T04:35:59.391Z</time>
      </trkpt>
      <trkpt lat="48.88661" lon="1.81818">
        <ele>114</ele>
        <time>2023-01-29T04:36:03.335Z</time>
      </trkpt>
      <trkpt lat="48.88665" lon="1.81809">
        <ele>114</ele>
        <time>2023-01-29T04:36:07.886Z</time>
      </trkpt>
      <trkpt lat="48.8867" lon="1.81801">
        <ele>114</ele>
        <time>2023-01-29T04:36:11.802Z</time>
      </trkpt>
      <trkpt lat="48.88675" lon="1.81793">
        <ele>114</ele>
        <time>2023-01-29T04:36:16.344Z</time>
      </trkpt>
      <trkpt lat="48.88679" lon="1.81786">
        <ele>114</ele>
        <time>2023-01-29T04:36:20.408Z</time>
      </trkpt>
      <trkpt lat="48.88683" lon="1.81778">
        <ele>114</ele>
        <time>2023-01-29T04:36:24.471Z</time>
      </trkpt>
      <trkpt lat="48.88688" lon="1.8177">
        <ele>114</ele>
        <time>2023-01-29T04:36:29.083Z</time>
      </trkpt>
      <trkpt lat="48.88692" lon="1.81761">
        <ele>114</ele>
        <time>2023-01-29T04:36:33.672Z</time>
      </trkpt>
      <trkpt lat="48.88697" lon="1.81752">
        <ele>114</ele>
        <time>2023-01-29T04:36:38.106Z</time>
      </trkpt>
      <trkpt lat="48.88701" lon="1.81745">
        <ele>114</ele>
        <time>2023-01-29T04:36:42.014Z</time>
      </trkpt>
      <trkpt lat="48.88705" lon="1.81739">
        <ele>114</ele>
        <time>2023-01-29T04:36:46.147Z</time>
      </trkpt>
      <trkpt lat="48.8871" lon="1.81731">
        <ele>114</ele>
        <time>2023-01-29T04:36:50.238Z</time>
      </trkpt>
      <trkpt lat="48.88715" lon="1.81722">
        <ele>114</ele>
        <time>2023-01-29T04:36:54.658Z</time>
      </trkpt>
      <trkpt lat="48.88719" lon="1.81712">
        <ele>114</ele>
        <time>2023-01-29T04:36:59.797Z</time>
      </trkpt>
      <trkpt lat="48.88723" lon="1.81704">
        <ele>115</ele>
        <time>2023-01-29T04:37:03.836Z</time>
      </trkpt>
      <trkpt lat="48.88728" lon="1.81698">
        <ele>115</ele>
        <time>2023-01-29T04:37:07.802Z</time>
      </trkpt>
      <trkpt lat="48.88733" lon="1.81689">
        <ele>115</ele>
        <time>2023-01-29T04:37:12.343Z</time>
      </trkpt>
      <trkpt lat="48.88738" lon="1.81683">
        <ele>114</ele>
        <time>2023-01-29T04:37:16.836Z</time>
      </trkpt>
      <trkpt lat="48.88743" lon="1.81675">
        <ele>115</ele>
        <time>2023-01-29T04:37:21.101Z</time>
      </trkpt>
      <trkpt lat="48.88747" lon="1.81668">
        <ele>115</ele>
        <time>2023-01-29T04:37:25.100Z</time>
      </trkpt>
      <trkpt lat="48.88753" lon="1.8166">
        <ele>115</ele>
        <time>2023-01-29T04:37:29.552Z</time>
      </trkpt>
      <trkpt lat="48.88757" lon="1.81653">
        <ele>115</ele>
        <time>2023-01-29T04:37:33.975Z</time>
      </trkpt>
      <trkpt lat="48.88762" lon="1.81645">
        <ele>115</ele>
        <time>2023-01-29T04:37:38.402Z</time>
      </trkpt>
      <trkpt lat="48.88766" lon="1.81638">
        <ele>114</ele>
        <time>2023-01-29T04:37:42.342Z</time>
      </trkpt>
      <trkpt lat="48.88771" lon="1.8163">
        <ele>114</ele>
        <time>2023-01-29T04:37:46.407Z</time>
      </trkpt>
      <trkpt lat="48.88776" lon="1.81623">
        <ele>115</ele>
        <time>2023-01-29T04:37:50.883Z</time>
      </trkpt>
      <trkpt lat="48.88783" lon="1.81615">
        <ele>115</ele>
        <time>2023-01-29T04:37:55.011Z</time>
      </trkpt>
      <trkpt lat="48.88788" lon="1.81608">
        <ele>115</ele>
        <time>2023-01-29T04:37:59.193Z</time>
      </trkpt>
      <trkpt lat="48.88794" lon="1.816">
        <ele>112</ele>
        <time>2023-01-29T04:38:03.735Z</time>
      </trkpt>
      <trkpt lat="48.88799" lon="1.81592">
        <ele>112</ele>
        <time>2023-01-29T04:38:08.277Z</time>
      </trkpt>
      <trkpt lat="48.88805" lon="1.81584">
        <ele>112</ele>
        <time>2023-01-29T04:38:12.820Z</time>
      </trkpt>
      <trkpt lat="48.8881" lon="1.81576">
        <ele>112</ele>
        <time>2023-01-29T04:38:17.247Z</time>
      </trkpt>
      <trkpt lat="48.88815" lon="1.81568">
        <ele>112</ele>
        <time>2023-01-29T04:38:21.407Z</time>
      </trkpt>
      <trkpt lat="48.8882" lon="1.81561">
        <ele>111</ele>
        <time>2023-01-29T04:38:25.368Z</time>
      </trkpt>
      <trkpt lat="48.88826" lon="1.81553">
        <ele>111</ele>
        <time>2023-01-29T04:38:29.942Z</time>
      </trkpt>
      <trkpt lat="48.8883" lon="1.81547">
        <ele>111</ele>
        <time>2023-01-29T04:38:33.971Z</time>
      </trkpt>
      <trkpt lat="48.88836" lon="1.81539">
        <ele>111</ele>
        <time>2023-01-29T04:38:38.632Z</time>
      </trkpt>
      <trkpt lat="48.88842" lon="1.81532">
        <ele>111</ele>
        <time>2023-01-29T04:38:43.645Z</time>
      </trkpt>
      <trkpt lat="48.88847" lon="1.81525">
        <ele>111</ele>
        <time>2023-01-29T04:38:47.833Z</time>
      </trkpt>
      <trkpt lat="48.88852" lon="1.81519">
        <ele>111</ele>
        <time>2023-01-29T04:38:52.246Z</time>
      </trkpt>
      <trkpt lat="48.88857" lon="1.81512">
        <ele>111</ele>
        <time>2023-01-29T04:38:56.676Z</time>
      </trkpt>
      <trkpt lat="48.88863" lon="1.81506">
        <ele>111</ele>
        <time>2023-01-29T04:39:01.218Z</time>
      </trkpt>
      <trkpt lat="48.88869" lon="1.815">
        <ele>111</ele>
        <time>2023-01-29T04:39:05.639Z</time>
      </trkpt>
      <trkpt lat="48.88874" lon="1.81494">
        <ele>111</ele>
        <time>2023-01-29T04:39:09.821Z</time>
      </trkpt>
      <trkpt lat="48.8888" lon="1.81487">
        <ele>112</ele>
        <time>2023-01-29T04:39:14.364Z</time>
      </trkpt>
      <trkpt lat="48.88885" lon="1.81482">
        <ele>112</ele>
        <time>2023-01-29T04:39:18.426Z</time>
      </trkpt>
      <trkpt lat="48.88892" lon="1.81476">
        <ele>112</ele>
        <time>2023-01-29T04:39:23.082Z</time>
      </trkpt>
      <trkpt lat="48.88898" lon="1.81469">
        <ele>112</ele>
        <time>2023-01-29T04:39:27.622Z</time>
      </trkpt>
      <trkpt lat="48.88904" lon="1.81464">
        <ele>113</ele>
        <time>2023-01-29T04:39:32.282Z</time>
      </trkpt>
      <trkpt lat="48.88909" lon="1.81459">
        <ele>113</ele>
        <time>2023-01-29T04:39:36.227Z</time>
      </trkpt>
      <trkpt lat="48.88915" lon="1.81453">
        <ele>113</ele>
        <time>2023-01-29T04:39:40.787Z</time>
      </trkpt>
      <trkpt lat="48.8892" lon="1.81447">
        <ele>113</ele>
        <time>2023-01-29T04:39:44.691Z</time>
      </trkpt>
      <trkpt lat="48.88926" lon="1.81442">
        <ele>113</ele>
        <time>2023-01-29T04:39:49.230Z</time>
      </trkpt>
      <trkpt lat="48.88933" lon="1.81435">
        <ele>113</ele>
        <time>2023-01-29T04:39:53.651Z</time>
      </trkpt>
      <trkpt lat="48.88939" lon="1.81429">
        <ele>113</ele>
        <time>2023-01-29T04:39:58.311Z</time>
      </trkpt>
      <trkpt lat="48.88944" lon="1.81423">
        <ele>113</ele>
        <time>2023-01-29T04:40:02.836Z</time>
      </trkpt>
      <trkpt lat="48.88951" lon="1.81417">
        <ele>113</ele>
        <time>2023-01-29T04:40:07.393Z</time>
      </trkpt>
      <trkpt lat="48.88957" lon="1.81411">
        <ele>113</ele>
        <time>2023-01-29T04:40:11.918Z</time>
      </trkpt>
      <trkpt lat="48.88962" lon="1.81406">
        <ele>113</ele>
        <time>2023-01-29T04:40:15.836Z</time>
      </trkpt>
      <trkpt lat="48.88969" lon="1.81401">
        <ele>114</ele>
        <time>2023-01-29T04:40:20.423Z</time>
      </trkpt>
      <trkpt lat="48.88976" lon="1.81397">
        <ele>114</ele>
        <time>2023-01-29T04:40:25.204Z</time>
      </trkpt>
      <trkpt lat="48.88982" lon="1.81392">
        <ele>114</ele>
        <time>2023-01-29T04:40:29.820Z</time>
      </trkpt>
      <trkpt lat="48.88988" lon="1.81388">
        <ele>115</ele>
        <time>2023-01-29T04:40:33.693Z</time>
      </trkpt>
      <trkpt lat="48.88995" lon="1.81384">
        <ele>115</ele>
        <time>2023-01-29T04:40:38.236Z</time>
      </trkpt>
      <trkpt lat="48.89001" lon="1.81378">
        <ele>115</ele>
        <time>2023-01-29T04:40:42.779Z</time>
      </trkpt>
      <trkpt lat="48.89008" lon="1.81373">
        <ele>116</ele>
        <time>2023-01-29T04:40:47.443Z</time>
      </trkpt>
      <trkpt lat="48.89013" lon="1.81367">
        <ele>116</ele>
        <time>2023-01-29T04:40:52.227Z</time>
      </trkpt>
      <trkpt lat="48.89019" lon="1.81363">
        <ele>117</ele>
        <time>2023-01-29T04:40:57.009Z</time>
      </trkpt>
      <trkpt lat="48.89025" lon="1.81359">
        <ele>117</ele>
        <time>2023-01-29T04:41:01.208Z</time>
      </trkpt>
      <trkpt lat="48.89031" lon="1.81355">
        <ele>117</ele>
        <time>2023-01-29T04:41:05.260Z</time>
      </trkpt>
      <trkpt lat="48.89037" lon="1.8135">
        <ele>117</ele>
        <time>2023-01-29T04:41:09.803Z</time>
      </trkpt>
      <trkpt lat="48.89043" lon="1.81345">
        <ele>117</ele>
        <time>2023-01-29T04:41:14.318Z</time>
      </trkpt>
      <trkpt lat="48.89049" lon="1.81339">
        <ele>117</ele>
        <time>2023-01-29T04:41:18.413Z</time>
      </trkpt>
      <trkpt lat="48.89054" lon="1.81334">
        <ele>117</ele>
        <time>2023-01-29T04:41:22.958Z</time>
      </trkpt>
      <trkpt lat="48.89059" lon="1.81329">
        <ele>117</ele>
        <time>2023-01-29T04:41:26.904Z</time>
      </trkpt>
      <trkpt lat="48.89065" lon="1.81323">
        <ele>117</ele>
        <time>2023-01-29T04:41:31.448Z</time>
      </trkpt>
      <trkpt lat="48.8907" lon="1.81317">
        <ele>115</ele>
        <time>2023-01-29T04:41:35.989Z</time>
      </trkpt>
      <trkpt lat="48.89075" lon="1.81311">
        <ele>115</ele>
        <time>2023-01-29T04:41:40.093Z</time>
      </trkpt>
      <trkpt lat="48.89082" lon="1.81305">
        <ele>115</ele>
        <time>2023-01-29T04:41:44.597Z</time>
      </trkpt>
      <trkpt lat="48.89088" lon="1.81299">
        <ele>115</ele>
        <time>2023-01-29T04:41:49.339Z</time>
      </trkpt>
      <trkpt lat="48.89093" lon="1.81293">
        <ele>115</ele>
        <time>2023-01-29T04:41:53.442Z</time>
      </trkpt>
      <trkpt lat="48.89098" lon="1.81287">
        <ele>115</ele>
        <time>2023-01-29T04:41:57.625Z</time>
      </trkpt>
      <trkpt lat="48.89103" lon="1.81281">
        <ele>115</ele>
        <time>2023-01-29T04:42:01.809Z</time>
      </trkpt>
      <trkpt lat="48.89108" lon="1.81274">
        <ele>115</ele>
        <time>2023-01-29T04:42:06.350Z</time>
      </trkpt>
      <trkpt lat="48.89114" lon="1.81267">
        <ele>115</ele>
        <time>2023-01-29T04:42:10.890Z</time>
      </trkpt>
      <trkpt lat="48.8912" lon="1.81261">
        <ele>116</ele>
        <time>2023-01-29T04:42:15.504Z</time>
      </trkpt>
      <trkpt lat="48.89125" lon="1.81255">
        <ele>116</ele>
        <time>2023-01-29T04:42:19.494Z</time>
      </trkpt>
      <trkpt lat="48.89131" lon="1.81248">
        <ele>116</ele>
        <time>2023-01-29T04:42:24.091Z</time>
      </trkpt>
      <trkpt lat="48.89136" lon="1.81241">
        <ele>116</ele>
        <time>2023-01-29T04:42:28.696Z</time>
      </trkpt>
      <trkpt lat="48.89141" lon="1.81235">
        <ele>116</ele>
        <time>2023-01-29T04:42:32.640Z</time>
      </trkpt>
      <trkpt lat="48.89148" lon="1.81228">
        <ele>116</ele>
        <time>2023-01-29T04:42:37.661Z</time>
      </trkpt>
      <trkpt lat="48.89154" lon="1.81222">
        <ele>116</ele>
        <time>2023-01-29T04:42:42.082Z</time>
      </trkpt>
      <trkpt lat="48.8916" lon="1.81215">
        <ele>116</ele>
        <time>2023-01-29T04:42:46.623Z</time>
      </trkpt>
      <trkpt lat="48.89165" lon="1.81209">
        <ele>116</ele>
        <time>2023-01-29T04:42:51.088Z</time>
      </trkpt>
      <trkpt lat="48.89171" lon="1.81201">
        <ele>115</ele>
        <time>2023-01-29T04:42:56.099Z</time>
      </trkpt>
      <trkpt lat="48.89177" lon="1.81195">
        <ele>115</ele>
        <time>2023-01-29T04:43:00.247Z</time>
      </trkpt>
      <trkpt lat="48.89182" lon="1.81188">
        <ele>115</ele>
        <time>2023-01-29T04:43:04.836Z</time>
      </trkpt>
      <trkpt lat="48.89187" lon="1.81182">
        <ele>115</ele>
        <time>2023-01-29T04:43:08.732Z</time>
      </trkpt>
      <trkpt lat="48.89191" lon="1.81176">
        <ele>115</ele>
        <time>2023-01-29T04:43:12.676Z</time>
      </trkpt>
      <trkpt lat="48.89195" lon="1.8117">
        <ele>115</ele>
        <time>2023-01-29T04:43:17.218Z</time>
      </trkpt>
      <trkpt lat="48.89201" lon="1.81164">
        <ele>115</ele>
        <time>2023-01-29T04:43:21.282Z</time>
      </trkpt>
      <trkpt lat="48.89207" lon="1.81158">
        <ele>115</ele>
        <time>2023-01-29T04:43:25.829Z</time>
      </trkpt>
      <trkpt lat="48.89212" lon="1.81152">
        <ele>115</ele>
        <time>2023-01-29T04:43:30.002Z</time>
      </trkpt>
      <trkpt lat="48.89217" lon="1.81147">
        <ele>115</ele>
        <time>2023-01-29T04:43:33.945Z</time>
      </trkpt>
      <trkpt lat="48.89222" lon="1.8114">
        <ele>115</ele>
        <time>2023-01-29T04:43:38.470Z</time>
      </trkpt>
      <trkpt lat="48.89227" lon="1.81134">
        <ele>115</ele>
        <time>2023-01-29T04:43:42.308Z</time>
      </trkpt>
      <trkpt lat="48.89232" lon="1.81128">
        <ele>115</ele>
        <time>2023-01-29T04:43:46.836Z</time>
      </trkpt>
      <trkpt lat="48.89238" lon="1.81122">
        <ele>114</ele>
        <time>2023-01-29T04:43:51.392Z</time>
      </trkpt>
      <trkpt lat="48.89243" lon="1.81116">
        <ele>114</ele>
        <time>2023-01-29T04:43:55.336Z</time>
      </trkpt>
      <trkpt lat="48.89249" lon="1.8111">
        <ele>114</ele>
        <time>2023-01-29T04:43:59.997Z</time>
      </trkpt>
      <trkpt lat="48.89254" lon="1.81105">
        <ele>114</ele>
        <time>2023-01-29T04:44:04.061Z</time>
      </trkpt>
      <trkpt lat="48.89259" lon="1.81099">
        <ele>114</ele>
        <time>2023-01-29T04:44:08.126Z</time>
      </trkpt>
      <trkpt lat="48.89265" lon="1.81093">
        <ele>115</ele>
        <time>2023-01-29T04:44:12.670Z</time>
      </trkpt>
      <trkpt lat="48.89271" lon="1.81084">
        <ele>115</ele>
        <time>2023-01-29T04:44:17.332Z</time>
      </trkpt>
      <trkpt lat="48.89276" lon="1.81078">
        <ele>115</ele>
        <time>2023-01-29T04:44:21.995Z</time>
      </trkpt>
      <trkpt lat="48.89282" lon="1.81072">
        <ele>115</ele>
        <time>2023-01-29T04:44:26.460Z</time>
      </trkpt>
      <trkpt lat="48.89287" lon="1.81066">
        <ele>115</ele>
        <time>2023-01-29T04:44:30.902Z</time>
      </trkpt>
      <trkpt lat="48.89292" lon="1.8106">
        <ele>115</ele>
        <time>2023-01-29T04:44:35.222Z</time>
      </trkpt>
      <trkpt lat="48.89297" lon="1.81053">
        <ele>115</ele>
        <time>2023-01-29T04:44:39.676Z</time>
      </trkpt>
      <trkpt lat="48.89303" lon="1.81047">
        <ele>115</ele>
        <time>2023-01-29T04:44:44.213Z</time>
      </trkpt>
      <trkpt lat="48.89309" lon="1.81041">
        <ele>115</ele>
        <time>2023-01-29T04:44:48.991Z</time>
      </trkpt>
      <trkpt lat="48.89314" lon="1.81033">
        <ele>115</ele>
        <time>2023-01-29T04:44:53.532Z</time>
      </trkpt>
      <trkpt lat="48.89319" lon="1.81027">
        <ele>116</ele>
        <time>2023-01-29T04:44:58.071Z</time>
      </trkpt>
      <trkpt lat="48.89325" lon="1.8102">
        <ele>116</ele>
        <time>2023-01-29T04:45:02.593Z</time>
      </trkpt>
      <trkpt lat="48.8933" lon="1.81013">
        <ele>117</ele>
        <time>2023-01-29T04:45:07.245Z</time>
      </trkpt>
      <trkpt lat="48.89335" lon="1.81008">
        <ele>117</ele>
        <time>2023-01-29T04:45:11.277Z</time>
      </trkpt>
      <trkpt lat="48.8934" lon="1.81001">
        <ele>117</ele>
        <time>2023-01-29T04:45:15.820Z</time>
      </trkpt>
      <trkpt lat="48.89346" lon="1.80995">
        <ele>117</ele>
        <time>2023-01-29T04:45:19.760Z</time>
      </trkpt>
      <trkpt lat="48.89351" lon="1.8099">
        <ele>118</ele>
        <time>2023-01-29T04:45:23.824Z</time>
      </trkpt>
      <trkpt lat="48.89357" lon="1.80983">
        <ele>118</ele>
        <time>2023-01-29T04:45:28.363Z</time>
      </trkpt>
      <trkpt lat="48.89362" lon="1.80977">
        <ele>118</ele>
        <time>2023-01-29T04:45:33.025Z</time>
      </trkpt>
      <trkpt lat="48.89367" lon="1.80971">
        <ele>118</ele>
        <time>2023-01-29T04:45:37.201Z</time>
      </trkpt>
      <trkpt lat="48.89372" lon="1.80964">
        <ele>118</ele>
        <time>2023-01-29T04:45:41.620Z</time>
      </trkpt>
      <trkpt lat="48.89377" lon="1.80957">
        <ele>119</ele>
        <time>2023-01-29T04:45:46.244Z</time>
      </trkpt>
      <trkpt lat="48.89383" lon="1.80951">
        <ele>119</ele>
        <time>2023-01-29T04:45:50.697Z</time>
      </trkpt>
      <trkpt lat="48.89388" lon="1.80945">
        <ele>119</ele>
        <time>2023-01-29T04:45:55.235Z</time>
      </trkpt>
      <trkpt lat="48.89394" lon="1.80938">
        <ele>119</ele>
        <time>2023-01-29T04:45:59.415Z</time>
      </trkpt>
      <trkpt lat="48.89399" lon="1.80932">
        <ele>119</ele>
        <time>2023-01-29T04:46:03.952Z</time>
      </trkpt>
      <trkpt lat="48.89404" lon="1.80927">
        <ele>118</ele>
        <time>2023-01-29T04:46:08.491Z</time>
      </trkpt>
      <trkpt lat="48.8941" lon="1.80922">
        <ele>118</ele>
        <time>2023-01-29T04:46:13.084Z</time>
      </trkpt>
      <trkpt lat="48.89415" lon="1.80916">
        <ele>118</ele>
        <time>2023-01-29T04:46:17.206Z</time>
      </trkpt>
      <trkpt lat="48.89421" lon="1.8091">
        <ele>118</ele>
        <time>2023-01-29T04:46:21.789Z</time>
      </trkpt>
      <trkpt lat="48.89427" lon="1.80905">
        <ele>118</ele>
        <time>2023-01-29T04:46:25.681Z</time>
      </trkpt>
      <trkpt lat="48.89433" lon="1.80901">
        <ele>118</ele>
        <time>2023-01-29T04:46:30.216Z</time>
      </trkpt>
      <trkpt lat="48.89439" lon="1.80896">
        <ele>118</ele>
        <time>2023-01-29T04:46:34.277Z</time>
      </trkpt>
      <trkpt lat="48.89445" lon="1.80891">
        <ele>118</ele>
        <time>2023-01-29T04:46:38.732Z</time>
      </trkpt>
      <trkpt lat="48.89451" lon="1.80887">
        <ele>118</ele>
        <time>2023-01-29T04:46:42.635Z</time>
      </trkpt>
      <trkpt lat="48.89457" lon="1.80882">
        <ele>118</ele>
        <time>2023-01-29T04:46:47.412Z</time>
      </trkpt>
      <trkpt lat="48.89464" lon="1.80877">
        <ele>118</ele>
        <time>2023-01-29T04:46:52.189Z</time>
      </trkpt>
      <trkpt lat="48.8947" lon="1.80872">
        <ele>118</ele>
        <time>2023-01-29T04:46:56.607Z</time>
      </trkpt>
      <trkpt lat="48.89476" lon="1.80867">
        <ele>118</ele>
        <time>2023-01-29T04:47:01.249Z</time>
      </trkpt>
      <trkpt lat="48.89482" lon="1.80863">
        <ele>118</ele>
        <time>2023-01-29T04:47:05.204Z</time>
      </trkpt>
      <trkpt lat="48.89488" lon="1.80858">
        <ele>117</ele>
        <time>2023-01-29T04:47:09.808Z</time>
      </trkpt>
      <trkpt lat="48.89494" lon="1.80853">
        <ele>117</ele>
        <time>2023-01-29T04:47:14.282Z</time>
      </trkpt>
      <trkpt lat="48.89501" lon="1.80848">
        <ele>117</ele>
        <time>2023-01-29T04:47:18.819Z</time>
      </trkpt>
      <trkpt lat="48.89508" lon="1.80843">
        <ele>118</ele>
        <time>2023-01-29T04:47:23.238Z</time>
      </trkpt>
      <trkpt lat="48.89514" lon="1.80839">
        <ele>118</ele>
        <time>2023-01-29T04:47:28.002Z</time>
      </trkpt>
      <trkpt lat="48.8952" lon="1.80834">
        <ele>118</ele>
        <time>2023-01-29T04:47:32.434Z</time>
      </trkpt>
      <trkpt lat="48.89526" lon="1.80828">
        <ele>118</ele>
        <time>2023-01-29T04:47:37.032Z</time>
      </trkpt>
      <trkpt lat="48.89533" lon="1.80823">
        <ele>118</ele>
        <time>2023-01-29T04:47:41.630Z</time>
      </trkpt>
      <trkpt lat="48.89539" lon="1.80819">
        <ele>119</ele>
        <time>2023-01-29T04:47:46.097Z</time>
      </trkpt>
      <trkpt lat="48.89546" lon="1.80814">
        <ele>118</ele>
        <time>2023-01-29T04:47:50.588Z</time>
      </trkpt>
      <trkpt lat="48.89552" lon="1.8081">
        <ele>118</ele>
        <time>2023-01-29T04:47:55.228Z</time>
      </trkpt>
      <trkpt lat="48.89558" lon="1.80805">
        <ele>118</ele>
        <time>2023-01-29T04:47:59.646Z</time>
      </trkpt>
      <trkpt lat="48.89564" lon="1.808">
        <ele>118</ele>
        <time>2023-01-29T04:48:03.706Z</time>
      </trkpt>
      <trkpt lat="48.8957" lon="1.80796">
        <ele>117</ele>
        <time>2023-01-29T04:48:08.362Z</time>
      </trkpt>
      <trkpt lat="48.89576" lon="1.80792">
        <ele>118</ele>
        <time>2023-01-29T04:48:12.302Z</time>
      </trkpt>
      <trkpt lat="48.89584" lon="1.80787">
        <ele>118</ele>
        <time>2023-01-29T04:48:16.836Z</time>
      </trkpt>
      <trkpt lat="48.89591" lon="1.80781">
        <ele>118</ele>
        <time>2023-01-29T04:48:21.478Z</time>
      </trkpt>
      <trkpt lat="48.89597" lon="1.80776">
        <ele>118</ele>
        <time>2023-01-29T04:48:26.098Z</time>
      </trkpt>
      <trkpt lat="48.89602" lon="1.80772">
        <ele>117</ele>
        <time>2023-01-29T04:48:30.121Z</time>
      </trkpt>
      <trkpt lat="48.89608" lon="1.80767">
        <ele>117</ele>
        <time>2023-01-29T04:48:34.727Z</time>
      </trkpt>
      <trkpt lat="48.89614" lon="1.80762">
        <ele>117</ele>
        <time>2023-01-29T04:48:39.622Z</time>
      </trkpt>
      <trkpt lat="48.89621" lon="1.80758">
        <ele>117</ele>
        <time>2023-01-29T04:48:44.278Z</time>
      </trkpt>
      <trkpt lat="48.89627" lon="1.80753">
        <ele>116</ele>
        <time>2023-01-29T04:48:48.696Z</time>
      </trkpt>
      <trkpt lat="48.89633" lon="1.80749">
        <ele>116</ele>
        <time>2023-01-29T04:48:53.236Z</time>
      </trkpt>
      <trkpt lat="48.89639" lon="1.80744">
        <ele>116</ele>
        <time>2023-01-29T04:48:57.415Z</time>
      </trkpt>
      <trkpt lat="48.89645" lon="1.80739">
        <ele>116</ele>
        <time>2023-01-29T04:49:01.906Z</time>
      </trkpt>
      <trkpt lat="48.8965" lon="1.80735">
        <ele>116</ele>
        <time>2023-01-29T04:49:05.836Z</time>
      </trkpt>
      <trkpt lat="48.89655" lon="1.80731">
        <ele>116</ele>
        <time>2023-01-29T04:49:10.430Z</time>
      </trkpt>
      <trkpt lat="48.89661" lon="1.80726">
        <ele>116</ele>
        <time>2023-01-29T04:49:14.489Z</time>
      </trkpt>
      <trkpt lat="48.89667" lon="1.80722">
        <ele>116</ele>
        <time>2023-01-29T04:49:19.087Z</time>
      </trkpt>
      <trkpt lat="48.89674" lon="1.80717">
        <ele>116</ele>
        <time>2023-01-29T04:49:23.470Z</time>
      </trkpt>
      <trkpt lat="48.89679" lon="1.80712">
        <ele>116</ele>
        <time>2023-01-29T04:49:27.623Z</time>
      </trkpt>
      <trkpt lat="48.89686" lon="1.80707">
        <ele>116</ele>
        <time>2023-01-29T04:49:32.106Z</time>
      </trkpt>
      <trkpt lat="48.89693" lon="1.80702">
        <ele>116</ele>
        <time>2023-01-29T04:49:36.701Z</time>
      </trkpt>
      <trkpt lat="48.89698" lon="1.80695">
        <ele>116</ele>
        <time>2023-01-29T04:49:40.642Z</time>
      </trkpt>
      <trkpt lat="48.89703" lon="1.80691">
        <ele>116</ele>
        <time>2023-01-29T04:49:45.323Z</time>
      </trkpt>
      <trkpt lat="48.8971" lon="1.80686">
        <ele>115</ele>
        <time>2023-01-29T04:49:49.240Z</time>
      </trkpt>
      <trkpt lat="48.89717" lon="1.80682">
        <ele>115</ele>
        <time>2023-01-29T04:49:53.916Z</time>
      </trkpt>
      <trkpt lat="48.89723" lon="1.80678">
        <ele>115</ele>
        <time>2023-01-29T04:49:57.948Z</time>
      </trkpt>
      <trkpt lat="48.89729" lon="1.80673">
        <ele>115</ele>
        <time>2023-01-29T04:50:02.603Z</time>
      </trkpt>
      <trkpt lat="48.89735" lon="1.80669">
        <ele>115</ele>
        <time>2023-01-29T04:50:07.139Z</time>
      </trkpt>
      <trkpt lat="48.8974" lon="1.80665">
        <ele>114</ele>
        <time>2023-01-29T04:50:11.197Z</time>
      </trkpt>
      <trkpt lat="48.89747" lon="1.80662">
        <ele>114</ele>
        <time>2023-01-29T04:50:15.734Z</time>
      </trkpt>
      <trkpt lat="48.89752" lon="1.80657">
        <ele>114</ele>
        <time>2023-01-29T04:50:20.251Z</time>
      </trkpt>
      <trkpt lat="48.89759" lon="1.80651">
        <ele>115</ele>
        <time>2023-01-29T04:50:24.668Z</time>
      </trkpt>
      <trkpt lat="48.89764" lon="1.80647">
        <ele>115</ele>
        <time>2023-01-29T04:50:29.204Z</time>
      </trkpt>
      <trkpt lat="48.8977" lon="1.80643">
        <ele>115</ele>
        <time>2023-01-29T04:50:33.263Z</time>
      </trkpt>
      <trkpt lat="48.89777" lon="1.80638">
        <ele>115</ele>
        <time>2023-01-29T04:50:37.681Z</time>
      </trkpt>
      <trkpt lat="48.89782" lon="1.80634">
        <ele>115</ele>
        <time>2023-01-29T04:50:42.218Z</time>
      </trkpt>
      <trkpt lat="48.89789" lon="1.80631">
        <ele>115</ele>
        <time>2023-01-29T04:50:46.755Z</time>
      </trkpt>
      <trkpt lat="48.89795" lon="1.80625">
        <ele>114</ele>
        <time>2023-01-29T04:50:51.410Z</time>
      </trkpt>
      <trkpt lat="48.89801" lon="1.8062">
        <ele>114</ele>
        <time>2023-01-29T04:50:55.900Z</time>
      </trkpt>
      <trkpt lat="48.89807" lon="1.80615">
        <ele>114</ele>
        <time>2023-01-29T04:50:59.836Z</time>
      </trkpt>
      <trkpt lat="48.89814" lon="1.8061">
        <ele>114</ele>
        <time>2023-01-29T04:51:04.308Z</time>
      </trkpt>
      <trkpt lat="48.89819" lon="1.80606">
        <ele>114</ele>
        <time>2023-01-29T04:51:08.606Z</time>
      </trkpt>
      <trkpt lat="48.89825" lon="1.80601">
        <ele>114</ele>
        <time>2023-01-29T04:51:13.265Z</time>
      </trkpt>
      <trkpt lat="48.89831" lon="1.80597">
        <ele>115</ele>
        <time>2023-01-29T04:51:17.767Z</time>
      </trkpt>
      <trkpt lat="48.89838" lon="1.80592">
        <ele>115</ele>
        <time>2023-01-29T04:51:22.152Z</time>
      </trkpt>
      <trkpt lat="48.89844" lon="1.80587">
        <ele>115</ele>
        <time>2023-01-29T04:51:26.605Z</time>
      </trkpt>
      <trkpt lat="48.89851" lon="1.80582">
        <ele>114</ele>
        <time>2023-01-29T04:51:31.057Z</time>
      </trkpt>
      <trkpt lat="48.89856" lon="1.80578">
        <ele>114</ele>
        <time>2023-01-29T04:51:35.237Z</time>
      </trkpt>
      <trkpt lat="48.89862" lon="1.80573">
        <ele>114</ele>
        <time>2023-01-29T04:51:39.836Z</time>
      </trkpt>
      <trkpt lat="48.89869" lon="1.80568">
        <ele>117</ele>
        <time>2023-01-29T04:51:44.432Z</time>
      </trkpt>
      <trkpt lat="48.89874" lon="1.80564">
        <ele>117</ele>
        <time>2023-01-29T04:51:48.971Z</time>
      </trkpt>
      <trkpt lat="48.8988" lon="1.80561">
        <ele>115</ele>
        <time>2023-01-29T04:51:53.012Z</time>
      </trkpt>
      <trkpt lat="48.89886" lon="1.80556">
        <ele>115</ele>
        <time>2023-01-29T04:51:57.503Z</time>
      </trkpt>
      <trkpt lat="48.89892" lon="1.80551">
        <ele>115</ele>
        <time>2023-01-29T04:52:01.608Z</time>
      </trkpt>
      <trkpt lat="48.89898" lon="1.80547">
        <ele>115</ele>
        <time>2023-01-29T04:52:06.115Z</time>
      </trkpt>
      <trkpt lat="48.89904" lon="1.80542">
        <ele>116</ele>
        <time>2023-01-29T04:52:10.564Z</time>
      </trkpt>
      <trkpt lat="48.89909" lon="1.80537">
        <ele>116</ele>
        <time>2023-01-29T04:52:14.983Z</time>
      </trkpt>
      <trkpt lat="48.89915" lon="1.80531">
        <ele>116</ele>
        <time>2023-01-29T04:52:19.638Z</time>
      </trkpt>
      <trkpt lat="48.89921" lon="1.80526">
        <ele>116</ele>
        <time>2023-01-29T04:52:24.275Z</time>
      </trkpt>
      <trkpt lat="48.89927" lon="1.80522">
        <ele>116</ele>
        <time>2023-01-29T04:52:28.830Z</time>
      </trkpt>
      <trkpt lat="48.89932" lon="1.80517">
        <ele>116</ele>
        <time>2023-01-29T04:52:33.233Z</time>
      </trkpt>
      <trkpt lat="48.89938" lon="1.80512">
        <ele>117</ele>
        <time>2023-01-29T04:52:37.651Z</time>
      </trkpt>
      <trkpt lat="48.89944" lon="1.80506">
        <ele>117</ele>
        <time>2023-01-29T04:52:42.667Z</time>
      </trkpt>
      <trkpt lat="48.89949" lon="1.805">
        <ele>117</ele>
        <time>2023-01-29T04:52:47.205Z</time>
      </trkpt>
      <trkpt lat="48.89955" lon="1.80495">
        <ele>117</ele>
        <time>2023-01-29T04:52:51.768Z</time>
      </trkpt>
      <trkpt lat="48.8996" lon="1.8049">
        <ele>117</ele>
        <time>2023-01-29T04:52:56.097Z</time>
      </trkpt>
      <trkpt lat="48.89966" lon="1.80484">
        <ele>117</ele>
        <time>2023-01-29T04:53:00.557Z</time>
      </trkpt>
      <trkpt lat="48.89971" lon="1.80479">
        <ele>117</ele>
        <time>2023-01-29T04:53:04.616Z</time>
      </trkpt>
      <trkpt lat="48.89977" lon="1.80472">
        <ele>117</ele>
        <time>2023-01-29T04:53:09.274Z</time>
      </trkpt>
      <trkpt lat="48.89982" lon="1.80466">
        <ele>117</ele>
        <time>2023-01-29T04:53:13.694Z</time>
      </trkpt>
      <trkpt lat="48.89987" lon="1.8046">
        <ele>117</ele>
        <time>2023-01-29T04:53:18.234Z</time>
      </trkpt>
      <trkpt lat="48.89992" lon="1.80454">
        <ele>117</ele>
        <time>2023-01-29T04:53:22.296Z</time>
      </trkpt>
      <trkpt lat="48.89997" lon="1.80447">
        <ele>117</ele>
        <time>2023-01-29T04:53:26.834Z</time>
      </trkpt>
      <trkpt lat="48.90004" lon="1.80441">
        <ele>117</ele>
        <time>2023-01-29T04:53:31.252Z</time>
      </trkpt>
      <trkpt lat="48.9001" lon="1.80434">
        <ele>117</ele>
        <time>2023-01-29T04:53:35.836Z</time>
      </trkpt>
      <trkpt lat="48.90017" lon="1.80426">
        <ele>116</ele>
        <time>2023-01-29T04:53:40.949Z</time>
      </trkpt>
      <trkpt lat="48.90021" lon="1.8042">
        <ele>116</ele>
        <time>2023-01-29T04:53:44.985Z</time>
      </trkpt>
      <trkpt lat="48.90026" lon="1.80415">
        <ele>116</ele>
        <time>2023-01-29T04:53:48.836Z</time>
      </trkpt>
      <trkpt lat="48.90031" lon="1.80408">
        <ele>116</ele>
        <time>2023-01-29T04:53:53.347Z</time>
      </trkpt>
      <trkpt lat="48.90037" lon="1.80401">
        <ele>115</ele>
        <time>2023-01-29T04:53:57.836Z</time>
      </trkpt>
      <trkpt lat="48.90043" lon="1.80395">
        <ele>115</ele>
        <time>2023-01-29T04:54:02.422Z</time>
      </trkpt>
      <trkpt lat="48.90049" lon="1.80388">
        <ele>115</ele>
        <time>2023-01-29T04:54:06.923Z</time>
      </trkpt>
      <trkpt lat="48.90054" lon="1.80382">
        <ele>115</ele>
        <time>2023-01-29T04:54:11.019Z</time>
      </trkpt>
      <trkpt lat="48.90058" lon="1.80374">
        <ele>114</ele>
        <time>2023-01-29T04:54:15.198Z</time>
      </trkpt>
      <trkpt lat="48.90063" lon="1.80367">
        <ele>114</ele>
        <time>2023-01-29T04:54:19.618Z</time>
      </trkpt>
      <trkpt lat="48.90068" lon="1.8036">
        <ele>114</ele>
        <time>2023-01-29T04:54:24.121Z</time>
      </trkpt>
      <trkpt lat="48.90072" lon="1.80354">
        <ele>115</ele>
        <time>2023-01-29T04:54:28.218Z</time>
      </trkpt>
      <trkpt lat="48.90077" lon="1.80346">
        <ele>115</ele>
        <time>2023-01-29T04:54:32.638Z</time>
      </trkpt>
      <trkpt lat="48.90082" lon="1.80339">
        <ele>115</ele>
        <time>2023-01-29T04:54:36.681Z</time>
      </trkpt>
      <trkpt lat="48.90086" lon="1.8033">
        <ele>115</ele>
        <time>2023-01-29T04:54:41.220Z</time>
      </trkpt>
      <trkpt lat="48.9009" lon="1.80323">
        <ele>115</ele>
        <time>2023-01-29T04:54:45.282Z</time>
      </trkpt>
      <trkpt lat="48.90094" lon="1.80315">
        <ele>115</ele>
        <time>2023-01-29T04:54:49.786Z</time>
      </trkpt>
      <trkpt lat="48.90099" lon="1.80307">
        <ele>114</ele>
        <time>2023-01-29T04:54:53.836Z</time>
      </trkpt>
      <trkpt lat="48.90103" lon="1.80299">
        <ele>114</ele>
        <time>2023-01-29T04:54:58.383Z</time>
      </trkpt>
      <trkpt lat="48.90105" lon="1.80292">
        <ele>114</ele>
        <time>2023-01-29T04:55:02.340Z</time>
      </trkpt>
      <trkpt lat="48.90109" lon="1.80283">
        <ele>114</ele>
        <time>2023-01-29T04:55:06.902Z</time>
      </trkpt>
      <trkpt lat="48.90114" lon="1.80275">
        <ele>114</ele>
        <time>2023-01-29T04:55:11.038Z</time>
      </trkpt>
      <trkpt lat="48.90118" lon="1.80267">
        <ele>114</ele>
        <time>2023-01-29T04:55:15.561Z</time>
      </trkpt>
      <trkpt lat="48.90122" lon="1.8026">
        <ele>113</ele>
        <time>2023-01-29T04:55:19.637Z</time>
      </trkpt>
      <trkpt lat="48.90126" lon="1.80253">
        <ele>113</ele>
        <time>2023-01-29T04:55:24.109Z</time>
      </trkpt>
      <trkpt lat="48.9013" lon="1.80245">
        <ele>113</ele>
        <time>2023-01-29T04:55:28.237Z</time>
      </trkpt>
      <trkpt lat="48.90134" lon="1.80237">
        <ele>113</ele>
        <time>2023-01-29T04:55:32.770Z</time>
      </trkpt>
      <trkpt lat="48.90138" lon="1.8023">
        <ele>113</ele>
        <time>2023-01-29T04:55:36.832Z</time>
      </trkpt>
      <trkpt lat="48.90142" lon="1.80222">
        <ele>113</ele>
        <time>2023-01-29T04:55:41.369Z</time>
      </trkpt>
      <trkpt lat="48.90146" lon="1.80214">
        <ele>113</ele>
        <time>2023-01-29T04:55:46.100Z</time>
      </trkpt>
      <trkpt lat="48.9015" lon="1.80206">
        <ele>113</ele>
        <time>2023-01-29T04:55:50.207Z</time>
      </trkpt>
      <trkpt lat="48.90153" lon="1.80198">
        <ele>114</ele>
        <time>2023-01-29T04:55:54.827Z</time>
      </trkpt>
      <trkpt lat="48.90158" lon="1.80192">
        <ele>114</ele>
        <time>2023-01-29T04:55:58.836Z</time>
      </trkpt>
      <trkpt lat="48.90162" lon="1.80185">
        <ele>114</ele>
        <time>2023-01-29T04:56:02.836Z</time>
      </trkpt>
      <trkpt lat="48.90167" lon="1.80178">
        <ele>114</ele>
        <time>2023-01-29T04:56:07.647Z</time>
      </trkpt>
      <trkpt lat="48.90171" lon="1.80172">
        <ele>114</ele>
        <time>2023-01-29T04:56:11.572Z</time>
      </trkpt>
      <trkpt lat="48.90175" lon="1.80165">
        <ele>114</ele>
        <time>2023-01-29T04:56:15.990Z</time>
      </trkpt>
      <trkpt lat="48.9018" lon="1.80159">
        <ele>114</ele>
        <time>2023-01-29T04:56:20.288Z</time>
      </trkpt>
      <trkpt lat="48.90185" lon="1.80153">
        <ele>115</ele>
        <time>2023-01-29T04:56:24.227Z</time>
      </trkpt>
      <trkpt lat="48.9019" lon="1.80147">
        <ele>115</ele>
        <time>2023-01-29T04:56:28.625Z</time>
      </trkpt>
      <trkpt lat="48.90195" lon="1.8014">
        <ele>115</ele>
        <time>2023-01-29T04:56:32.545Z</time>
      </trkpt>
      <trkpt lat="48.90199" lon="1.80135">
        <ele>115</ele>
        <time>2023-01-29T04:56:36.365Z</time>
      </trkpt>
      <trkpt lat="48.90205" lon="1.80129">
        <ele>115</ele>
        <time>2023-01-29T04:56:40.843Z</time>
      </trkpt>
      <trkpt lat="48.9021" lon="1.80124">
        <ele>115</ele>
        <time>2023-01-29T04:56:44.911Z</time>
      </trkpt>
      <trkpt lat="48.90215" lon="1.80118">
        <ele>115</ele>
        <time>2023-01-29T04:56:48.896Z</time>
      </trkpt>
      <trkpt lat="48.9022" lon="1.80111">
        <ele>115</ele>
        <time>2023-01-29T04:56:53.552Z</time>
      </trkpt>
      <trkpt lat="48.90225" lon="1.80105">
        <ele>115</ele>
        <time>2023-01-29T04:56:57.611Z</time>
      </trkpt>
      <trkpt lat="48.90231" lon="1.801">
        <ele>115</ele>
        <time>2023-01-29T04:57:02.341Z</time>
      </trkpt>
      <trkpt lat="48.90237" lon="1.80093">
        <ele>116</ele>
        <time>2023-01-29T04:57:06.913Z</time>
      </trkpt>
      <trkpt lat="48.90241" lon="1.80086">
        <ele>116</ele>
        <time>2023-01-29T04:57:10.836Z</time>
      </trkpt>
      <trkpt lat="48.90247" lon="1.80079">
        <ele>116</ele>
        <time>2023-01-29T04:57:15.404Z</time>
      </trkpt>
      <trkpt lat="48.90251" lon="1.80073">
        <ele>116</ele>
        <time>2023-01-29T04:57:19.342Z</time>
      </trkpt>
      <trkpt lat="48.90255" lon="1.80067">
        <ele>115</ele>
        <time>2023-01-29T04:57:23.836Z</time>
      </trkpt>
      <trkpt lat="48.9026" lon="1.80061">
        <ele>115</ele>
        <time>2023-01-29T04:57:28.299Z</time>
      </trkpt>
      <trkpt lat="48.90266" lon="1.80055">
        <ele>116</ele>
        <time>2023-01-29T04:57:32.596Z</time>
      </trkpt>
      <trkpt lat="48.90271" lon="1.80049">
        <ele>116</ele>
        <time>2023-01-29T04:57:37.123Z</time>
      </trkpt>
      <trkpt lat="48.90276" lon="1.80043">
        <ele>116</ele>
        <time>2023-01-29T04:57:41.110Z</time>
      </trkpt>
      <trkpt lat="48.90281" lon="1.80037">
        <ele>115</ele>
        <time>2023-01-29T04:57:45.548Z</time>
      </trkpt>
      <trkpt lat="48.90287" lon="1.80031">
        <ele>115</ele>
        <time>2023-01-29T04:57:49.963Z</time>
      </trkpt>
      <trkpt lat="48.90293" lon="1.80025">
        <ele>116</ele>
        <time>2023-01-29T04:57:54.090Z</time>
      </trkpt>
      <trkpt lat="48.90299" lon="1.80019">
        <ele>116</ele>
        <time>2023-01-29T04:57:58.626Z</time>
      </trkpt>
      <trkpt lat="48.90304" lon="1.80013">
        <ele>116</ele>
        <time>2023-01-29T04:58:03.111Z</time>
      </trkpt>
      <trkpt lat="48.9031" lon="1.80006">
        <ele>116</ele>
        <time>2023-01-29T04:58:07.699Z</time>
      </trkpt>
      <trkpt lat="48.90315" lon="1.80001">
        <ele>116</ele>
        <time>2023-01-29T04:58:12.236Z</time>
      </trkpt>
      <trkpt lat="48.9032" lon="1.79993">
        <ele>116</ele>
        <time>2023-01-29T04:58:16.654Z</time>
      </trkpt>
      <trkpt lat="48.90324" lon="1.79987">
        <ele>116</ele>
        <time>2023-01-29T04:58:20.832Z</time>
      </trkpt>
      <trkpt lat="48.9033" lon="1.79981">
        <ele>116</ele>
        <time>2023-01-29T04:58:25.366Z</time>
      </trkpt>
      <trkpt lat="48.90336" lon="1.79975">
        <ele>116</ele>
        <time>2023-01-29T04:58:29.905Z</time>
      </trkpt>
      <trkpt lat="48.90342" lon="1.7997">
        <ele>116</ele>
        <time>2023-01-29T04:58:34.384Z</time>
      </trkpt>
      <trkpt lat="48.90347" lon="1.79965">
        <ele>116</ele>
        <time>2023-01-29T04:58:38.364Z</time>
      </trkpt>
      <trkpt lat="48.9035" lon="1.79961">
        <ele>116</ele>
        <time>2023-01-29T04:58:42.438Z</time>
      </trkpt>
      <trkpt lat="48.90355" lon="1.79954">
        <ele>116</ele>
        <time>2023-01-29T04:58:46.974Z</time>
      </trkpt>
      <trkpt lat="48.90361" lon="1.79948">
        <ele>116</ele>
        <time>2023-01-29T04:58:51.511Z</time>
      </trkpt>
      <trkpt lat="48.90366" lon="1.79943">
        <ele>116</ele>
        <time>2023-01-29T04:58:56.103Z</time>
      </trkpt>
      <trkpt lat="48.90371" lon="1.79938">
        <ele>116</ele>
        <time>2023-01-29T04:59:00.229Z</time>
      </trkpt>
      <trkpt lat="48.90375" lon="1.79934">
        <ele>115</ele>
        <time>2023-01-29T04:59:04.289Z</time>
      </trkpt>
      <trkpt lat="48.9038" lon="1.7993">
        <ele>115</ele>
        <time>2023-01-29T04:59:08.706Z</time>
      </trkpt>
      <trkpt lat="48.90387" lon="1.79927">
        <ele>115</ele>
        <time>2023-01-29T04:59:13.719Z</time>
      </trkpt>
      <trkpt lat="48.90393" lon="1.79924">
        <ele>115</ele>
        <time>2023-01-29T04:59:18.254Z</time>
      </trkpt>
      <trkpt lat="48.90398" lon="1.79919">
        <ele>115</ele>
        <time>2023-01-29T04:59:22.836Z</time>
      </trkpt>
      <trkpt lat="48.90404" lon="1.79915">
        <ele>113</ele>
        <time>2023-01-29T04:59:27.447Z</time>
      </trkpt>
      <trkpt lat="48.9041" lon="1.79912">
        <ele>113</ele>
        <time>2023-01-29T04:59:31.626Z</time>
      </trkpt>
      <trkpt lat="48.90415" lon="1.79908">
        <ele>113</ele>
        <time>2023-01-29T04:59:36.087Z</time>
      </trkpt>
      <trkpt lat="48.90421" lon="1.79904">
        <ele>113</ele>
        <time>2023-01-29T04:59:40.202Z</time>
      </trkpt>
      <trkpt lat="48.90427" lon="1.79901">
        <ele>114</ele>
        <time>2023-01-29T04:59:44.799Z</time>
      </trkpt>
      <trkpt lat="48.90434" lon="1.79898">
        <ele>113</ele>
        <time>2023-01-29T04:59:49.271Z</time>
      </trkpt>
      <trkpt lat="48.90441" lon="1.79894">
        <ele>113</ele>
        <time>2023-01-29T04:59:53.805Z</time>
      </trkpt>
      <trkpt lat="48.90447" lon="1.7989">
        <ele>113</ele>
        <time>2023-01-29T04:59:58.340Z</time>
      </trkpt>
      <trkpt lat="48.90454" lon="1.79887">
        <ele>113</ele>
        <time>2023-01-29T05:00:02.911Z</time>
      </trkpt>
      <trkpt lat="48.9046" lon="1.79884">
        <ele>113</ele>
        <time>2023-01-29T05:00:06.933Z</time>
      </trkpt>
      <trkpt lat="48.90468" lon="1.79881">
        <ele>113</ele>
        <time>2023-01-29T05:00:11.562Z</time>
      </trkpt>
      <trkpt lat="48.90474" lon="1.79879">
        <ele>113</ele>
        <time>2023-01-29T05:00:15.646Z</time>
      </trkpt>
      <trkpt lat="48.9048" lon="1.79875">
        <ele>113</ele>
        <time>2023-01-29T05:00:20.114Z</time>
      </trkpt>
      <trkpt lat="48.90487" lon="1.79871">
        <ele>112</ele>
        <time>2023-01-29T05:00:24.601Z</time>
      </trkpt>
      <trkpt lat="48.90493" lon="1.79867">
        <ele>112</ele>
        <time>2023-01-29T05:00:28.536Z</time>
      </trkpt>
      <trkpt lat="48.90498" lon="1.79864">
        <ele>112</ele>
        <time>2023-01-29T05:00:33.072Z</time>
      </trkpt>
      <trkpt lat="48.90505" lon="1.7986">
        <ele>112</ele>
        <time>2023-01-29T05:00:37.622Z</time>
      </trkpt>
      <trkpt lat="48.90511" lon="1.79856">
        <ele>112</ele>
        <time>2023-01-29T05:00:41.667Z</time>
      </trkpt>
      <trkpt lat="48.90517" lon="1.79852">
        <ele>110</ele>
        <time>2023-01-29T05:00:46.185Z</time>
      </trkpt>
      <trkpt lat="48.90523" lon="1.79848">
        <ele>110</ele>
        <time>2023-01-29T05:00:50.619Z</time>
      </trkpt>
      <trkpt lat="48.90529" lon="1.79844">
        <ele>111</ele>
        <time>2023-01-29T05:00:55.346Z</time>
      </trkpt>
      <trkpt lat="48.90535" lon="1.79839">
        <ele>111</ele>
        <time>2023-01-29T05:00:59.451Z</time>
      </trkpt>
      <trkpt lat="48.90542" lon="1.79833">
        <ele>110</ele>
        <time>2023-01-29T05:01:04.105Z</time>
      </trkpt>
      <trkpt lat="48.90547" lon="1.79829">
        <ele>110</ele>
        <time>2023-01-29T05:01:08.282Z</time>
      </trkpt>
      <trkpt lat="48.90553" lon="1.79823">
        <ele>110</ele>
        <time>2023-01-29T05:01:12.698Z</time>
      </trkpt>
      <trkpt lat="48.90559" lon="1.79817">
        <ele>112</ele>
        <time>2023-01-29T05:01:17.233Z</time>
      </trkpt>
      <trkpt lat="48.90564" lon="1.79811">
        <ele>112</ele>
        <time>2023-01-29T05:01:21.768Z</time>
      </trkpt>
      <trkpt lat="48.90569" lon="1.79805">
        <ele>112</ele>
        <time>2023-01-29T05:01:25.944Z</time>
      </trkpt>
      <trkpt lat="48.90574" lon="1.798">
        <ele>110</ele>
        <time>2023-01-29T05:01:30.104Z</time>
      </trkpt>
      <trkpt lat="48.9058" lon="1.79794">
        <ele>110</ele>
        <time>2023-01-29T05:01:34.627Z</time>
      </trkpt>
      <trkpt lat="48.90586" lon="1.79788">
        <ele>111</ele>
        <time>2023-01-29T05:01:39.001Z</time>
      </trkpt>
      <trkpt lat="48.90592" lon="1.79784">
        <ele>111</ele>
        <time>2023-01-29T05:01:43.002Z</time>
      </trkpt>
      <trkpt lat="48.90598" lon="1.79779">
        <ele>109</ele>
        <time>2023-01-29T05:01:46.937Z</time>
      </trkpt>
      <trkpt lat="48.90603" lon="1.79773">
        <ele>109</ele>
        <time>2023-01-29T05:01:51.589Z</time>
      </trkpt>
      <trkpt lat="48.90609" lon="1.79767">
        <ele>109</ele>
        <time>2023-01-29T05:01:55.526Z</time>
      </trkpt>
      <trkpt lat="48.90615" lon="1.79761">
        <ele>110</ele>
        <time>2023-01-29T05:02:00.140Z</time>
      </trkpt>
      <trkpt lat="48.90621" lon="1.79755">
        <ele>110</ele>
        <time>2023-01-29T05:02:04.589Z</time>
      </trkpt>
      <trkpt lat="48.90626" lon="1.79749">
        <ele>109</ele>
        <time>2023-01-29T05:02:09.242Z</time>
      </trkpt>
      <trkpt lat="48.90632" lon="1.79744">
        <ele>109</ele>
        <time>2023-01-29T05:02:13.947Z</time>
      </trkpt>
      <trkpt lat="48.90636" lon="1.79738">
        <ele>109</ele>
        <time>2023-01-29T05:02:17.950Z</time>
      </trkpt>
      <trkpt lat="48.90642" lon="1.79732">
        <ele>110</ele>
        <time>2023-01-29T05:02:22.581Z</time>
      </trkpt>
      <trkpt lat="48.90647" lon="1.79726">
        <ele>110</ele>
        <time>2023-01-29T05:02:26.544Z</time>
      </trkpt>
      <trkpt lat="48.90652" lon="1.7972">
        <ele>110</ele>
        <time>2023-01-29T05:02:31.106Z</time>
      </trkpt>
      <trkpt lat="48.90657" lon="1.79714">
        <ele>108</ele>
        <time>2023-01-29T05:02:35.593Z</time>
      </trkpt>
      <trkpt lat="48.90663" lon="1.79708">
        <ele>108</ele>
        <time>2023-01-29T05:02:40.006Z</time>
      </trkpt>
      <trkpt lat="48.90668" lon="1.79702">
        <ele>108</ele>
        <time>2023-01-29T05:02:44.464Z</time>
      </trkpt>
      <trkpt lat="48.90673" lon="1.79695">
        <ele>108</ele>
        <time>2023-01-29T05:02:48.474Z</time>
      </trkpt>
      <trkpt lat="48.90678" lon="1.79689">
        <ele>108</ele>
        <time>2023-01-29T05:02:53.085Z</time>
      </trkpt>
      <trkpt lat="48.90684" lon="1.79682">
        <ele>104</ele>
        <time>2023-01-29T05:02:57.421Z</time>
      </trkpt>
      <trkpt lat="48.9069" lon="1.79676">
        <ele>103</ele>
        <time>2023-01-29T05:03:02.075Z</time>
      </trkpt>
      <trkpt lat="48.90695" lon="1.7967">
        <ele>103</ele>
        <time>2023-01-29T05:03:06.610Z</time>
      </trkpt>
      <trkpt lat="48.90702" lon="1.79662">
        <ele>103</ele>
        <time>2023-01-29T05:03:11.264Z</time>
      </trkpt>
      <trkpt lat="48.90707" lon="1.79656">
        <ele>103</ele>
        <time>2023-01-29T05:03:15.680Z</time>
      </trkpt>
      <trkpt lat="48.90712" lon="1.7965">
        <ele>101</ele>
        <time>2023-01-29T05:03:20.217Z</time>
      </trkpt>
      <trkpt lat="48.90717" lon="1.79642">
        <ele>101</ele>
        <time>2023-01-29T05:03:24.394Z</time>
      </trkpt>
      <trkpt lat="48.90721" lon="1.79635">
        <ele>101</ele>
        <time>2023-01-29T05:03:28.836Z</time>
      </trkpt>
      <trkpt lat="48.90727" lon="1.79628">
        <ele>101</ele>
        <time>2023-01-29T05:03:33.845Z</time>
      </trkpt>
      <trkpt lat="48.90733" lon="1.79621">
        <ele>101</ele>
        <time>2023-01-29T05:03:37.995Z</time>
      </trkpt>
      <trkpt lat="48.90738" lon="1.79614">
        <ele>100</ele>
        <time>2023-01-29T05:03:42.541Z</time>
      </trkpt>
      <trkpt lat="48.90742" lon="1.79609">
        <ele>100</ele>
        <time>2023-01-29T05:03:46.587Z</time>
      </trkpt>
      <trkpt lat="48.90747" lon="1.79601">
        <ele>100</ele>
        <time>2023-01-29T05:03:50.645Z</time>
      </trkpt>
      <trkpt lat="48.9075" lon="1.79595">
        <ele>99</ele>
        <time>2023-01-29T05:03:54.821Z</time>
      </trkpt>
      <trkpt lat="48.90755" lon="1.79588">
        <ele>99</ele>
        <time>2023-01-29T05:03:59.356Z</time>
      </trkpt>
      <trkpt lat="48.9076" lon="1.79581">
        <ele>99</ele>
        <time>2023-01-29T05:04:03.982Z</time>
      </trkpt>
      <trkpt lat="48.90765" lon="1.79575">
        <ele>99</ele>
        <time>2023-01-29T05:04:07.946Z</time>
      </trkpt>
      <trkpt lat="48.90771" lon="1.79568">
        <ele>99</ele>
        <time>2023-01-29T05:04:12.605Z</time>
      </trkpt>
      <trkpt lat="48.90776" lon="1.79561">
        <ele>99</ele>
        <time>2023-01-29T05:04:17.028Z</time>
      </trkpt>
      <trkpt lat="48.90781" lon="1.79555">
        <ele>99</ele>
        <time>2023-01-29T05:04:21.071Z</time>
      </trkpt>
      <trkpt lat="48.90786" lon="1.79548">
        <ele>99</ele>
        <time>2023-01-29T05:04:25.724Z</time>
      </trkpt>
      <trkpt lat="48.90791" lon="1.79541">
        <ele>99</ele>
        <time>2023-01-29T05:04:29.661Z</time>
      </trkpt>
      <trkpt lat="48.90796" lon="1.79535">
        <ele>103</ele>
        <time>2023-01-29T05:04:34.312Z</time>
      </trkpt>
      <trkpt lat="48.90801" lon="1.79529">
        <ele>103</ele>
        <time>2023-01-29T05:04:38.836Z</time>
      </trkpt>
      <trkpt lat="48.90807" lon="1.79522">
        <ele>103</ele>
        <time>2023-01-29T05:04:43.975Z</time>
      </trkpt>
      <trkpt lat="48.90811" lon="1.79515">
        <ele>103</ele>
        <time>2023-01-29T05:04:48.629Z</time>
      </trkpt>
      <trkpt lat="48.90817" lon="1.79509">
        <ele>101</ele>
        <time>2023-01-29T05:04:53.071Z</time>
      </trkpt>
      <trkpt lat="48.90822" lon="1.79502">
        <ele>102</ele>
        <time>2023-01-29T05:04:57.226Z</time>
      </trkpt>
      <trkpt lat="48.90828" lon="1.79497">
        <ele>102</ele>
        <time>2023-01-29T05:05:01.771Z</time>
      </trkpt>
      <trkpt lat="48.90834" lon="1.79492">
        <ele>102</ele>
        <time>2023-01-29T05:05:06.317Z</time>
      </trkpt>
      <trkpt lat="48.90841" lon="1.79489">
        <ele>102</ele>
        <time>2023-01-29T05:05:10.617Z</time>
      </trkpt>
      <trkpt lat="48.90848" lon="1.79485">
        <ele>100</ele>
        <time>2023-01-29T05:05:15.261Z</time>
      </trkpt>
      <trkpt lat="48.90853" lon="1.79482">
        <ele>100</ele>
        <time>2023-01-29T05:05:19.224Z</time>
      </trkpt>
      <trkpt lat="48.90859" lon="1.79479">
        <ele>100</ele>
        <time>2023-01-29T05:05:23.770Z</time>
      </trkpt>
      <trkpt lat="48.90865" lon="1.79476">
        <ele>100</ele>
        <time>2023-01-29T05:05:27.709Z</time>
      </trkpt>
      <trkpt lat="48.90872" lon="1.79474">
        <ele>100</ele>
        <time>2023-01-29T05:05:32.249Z</time>
      </trkpt>
      <trkpt lat="48.90878" lon="1.79472">
        <ele>100</ele>
        <time>2023-01-29T05:05:36.310Z</time>
      </trkpt>
      <trkpt lat="48.90885" lon="1.79469">
        <ele>100</ele>
        <time>2023-01-29T05:05:40.836Z</time>
      </trkpt>
      <trkpt lat="48.90891" lon="1.79465">
        <ele>100</ele>
        <time>2023-01-29T05:05:45.386Z</time>
      </trkpt>
      <trkpt lat="48.90897" lon="1.79461">
        <ele>100</ele>
        <time>2023-01-29T05:05:49.446Z</time>
      </trkpt>
      <trkpt lat="48.90903" lon="1.79457">
        <ele>100</ele>
        <time>2023-01-29T05:05:53.625Z</time>
      </trkpt>
      <trkpt lat="48.90908" lon="1.79451">
        <ele>100</ele>
        <time>2023-01-29T05:05:58.242Z</time>
      </trkpt>
      <trkpt lat="48.90914" lon="1.79446">
        <ele>100</ele>
        <time>2023-01-29T05:06:02.221Z</time>
      </trkpt>
      <trkpt lat="48.90919" lon="1.79441">
        <ele>100</ele>
        <time>2023-01-29T05:06:06.879Z</time>
      </trkpt>
      <trkpt lat="48.90924" lon="1.79436">
        <ele>100</ele>
        <time>2023-01-29T05:06:10.821Z</time>
      </trkpt>
      <trkpt lat="48.90928" lon="1.79429">
        <ele>100</ele>
        <time>2023-01-29T05:06:15Z</time>
      </trkpt>
      <trkpt lat="48.90932" lon="1.79421">
        <ele>99</ele>
        <time>2023-01-29T05:06:19.538Z</time>
      </trkpt>
      <trkpt lat="48.90936" lon="1.79412">
        <ele>99</ele>
        <time>2023-01-29T05:06:23.956Z</time>
      </trkpt>
      <trkpt lat="48.9094" lon="1.79404">
        <ele>99</ele>
        <time>2023-01-29T05:06:28.491Z</time>
      </trkpt>
      <trkpt lat="48.90944" lon="1.79395">
        <ele>99</ele>
        <time>2023-01-29T05:06:32.551Z</time>
      </trkpt>
      <trkpt lat="48.90947" lon="1.79387">
        <ele>99</ele>
        <time>2023-01-29T05:06:36.968Z</time>
      </trkpt>
      <trkpt lat="48.9095" lon="1.79378">
        <ele>99</ele>
        <time>2023-01-29T05:06:41.028Z</time>
      </trkpt>
      <trkpt lat="48.90954" lon="1.79372">
        <ele>99</ele>
        <time>2023-01-29T05:06:45.209Z</time>
      </trkpt>
      <trkpt lat="48.90958" lon="1.79364">
        <ele>99</ele>
        <time>2023-01-29T05:06:49.836Z</time>
      </trkpt>
      <trkpt lat="48.9096" lon="1.79355">
        <ele>101</ele>
        <time>2023-01-29T05:06:53.807Z</time>
      </trkpt>
      <trkpt lat="48.90964" lon="1.79345">
        <ele>101</ele>
        <time>2023-01-29T05:06:58.347Z</time>
      </trkpt>
      <trkpt lat="48.90967" lon="1.79336">
        <ele>101</ele>
        <time>2023-01-29T05:07:02.885Z</time>
      </trkpt>
      <trkpt lat="48.9097" lon="1.79326">
        <ele>101</ele>
        <time>2023-01-29T05:07:07.304Z</time>
      </trkpt>
      <trkpt lat="48.90972" lon="1.79316">
        <ele>100</ele>
        <time>2023-01-29T05:07:11.825Z</time>
      </trkpt>
      <trkpt lat="48.90974" lon="1.79306">
        <ele>100</ele>
        <time>2023-01-29T05:07:15.836Z</time>
      </trkpt>
      <trkpt lat="48.90974" lon="1.79296">
        <ele>100</ele>
        <time>2023-01-29T05:07:20.338Z</time>
      </trkpt>
      <trkpt lat="48.90977" lon="1.79285">
        <ele>99</ele>
        <time>2023-01-29T05:07:24.876Z</time>
      </trkpt>
      <trkpt lat="48.90978" lon="1.79275">
        <ele>99</ele>
        <time>2023-01-29T05:07:29.295Z</time>
      </trkpt>
      <trkpt lat="48.90978" lon="1.79263">
        <ele>99</ele>
        <time>2023-01-29T05:07:33.834Z</time>
      </trkpt>
      <trkpt lat="48.90978" lon="1.79253">
        <ele>99</ele>
        <time>2023-01-29T05:07:37.836Z</time>
      </trkpt>
      <trkpt lat="48.9098" lon="1.79243">
        <ele>99</ele>
        <time>2023-01-29T05:07:42.435Z</time>
      </trkpt>
      <trkpt lat="48.90982" lon="1.79234">
        <ele>99</ele>
        <time>2023-01-29T05:07:46.376Z</time>
      </trkpt>
      <trkpt lat="48.90984" lon="1.79224">
        <ele>99</ele>
        <time>2023-01-29T05:07:51.035Z</time>
      </trkpt>
      <trkpt lat="48.90986" lon="1.79214">
        <ele>99</ele>
        <time>2023-01-29T05:07:55.455Z</time>
      </trkpt>
      <trkpt lat="48.90988" lon="1.79203">
        <ele>98</ele>
        <time>2023-01-29T05:07:59.637Z</time>
      </trkpt>
      <trkpt lat="48.90989" lon="1.79193">
        <ele>98</ele>
        <time>2023-01-29T05:08:04.370Z</time>
      </trkpt>
      <trkpt lat="48.9099" lon="1.79183">
        <ele>98</ele>
        <time>2023-01-29T05:08:08.337Z</time>
      </trkpt>
      <trkpt lat="48.90992" lon="1.79173">
        <ele>98</ele>
        <time>2023-01-29T05:08:12.996Z</time>
      </trkpt>
      <trkpt lat="48.90993" lon="1.79162">
        <ele>98</ele>
        <time>2023-01-29T05:08:17.535Z</time>
      </trkpt>
      <trkpt lat="48.90994" lon="1.79152">
        <ele>98</ele>
        <time>2023-01-29T05:08:21.952Z</time>
      </trkpt>
      <trkpt lat="48.90995" lon="1.79141">
        <ele>98</ele>
        <time>2023-01-29T05:08:26.522Z</time>
      </trkpt>
      <trkpt lat="48.90996" lon="1.79132">
        <ele>98</ele>
        <time>2023-01-29T05:08:30.432Z</time>
      </trkpt>
      <trkpt lat="48.90997" lon="1.79123">
        <ele>99</ele>
        <time>2023-01-29T05:08:34.494Z</time>
      </trkpt>
      <trkpt lat="48.90997" lon="1.79112">
        <ele>99</ele>
        <time>2023-01-29T05:08:39.033Z</time>
      </trkpt>
      <trkpt lat="48.91" lon="1.79101">
        <ele>99</ele>
        <time>2023-01-29T05:08:43.694Z</time>
      </trkpt>
      <trkpt lat="48.91002" lon="1.79092">
        <ele>99</ele>
        <time>2023-01-29T05:08:47.637Z</time>
      </trkpt>
      <trkpt lat="48.91005" lon="1.79084">
        <ele>99</ele>
        <time>2023-01-29T05:08:52.114Z</time>
      </trkpt>
      <trkpt lat="48.91007" lon="1.79076">
        <ele>99</ele>
        <time>2023-01-29T05:08:56.202Z</time>
      </trkpt>
      <trkpt lat="48.91011" lon="1.79067">
        <ele>98</ele>
        <time>2023-01-29T05:09:00.658Z</time>
      </trkpt>
      <trkpt lat="48.91014" lon="1.79058">
        <ele>98</ele>
        <time>2023-01-29T05:09:04.836Z</time>
      </trkpt>
      <trkpt lat="48.91017" lon="1.79049">
        <ele>98</ele>
        <time>2023-01-29T05:09:09.378Z</time>
      </trkpt>
      <trkpt lat="48.91021" lon="1.79041">
        <ele>97</ele>
        <time>2023-01-29T05:09:13.439Z</time>
      </trkpt>
      <trkpt lat="48.91026" lon="1.79032">
        <ele>97</ele>
        <time>2023-01-29T05:09:17.978Z</time>
      </trkpt>
      <trkpt lat="48.9103" lon="1.79023">
        <ele>97</ele>
        <time>2023-01-29T05:09:22.516Z</time>
      </trkpt>
      <trkpt lat="48.91033" lon="1.79015">
        <ele>97</ele>
        <time>2023-01-29T05:09:26.934Z</time>
      </trkpt>
      <trkpt lat="48.91037" lon="1.79006">
        <ele>96</ele>
        <time>2023-01-29T05:09:31.490Z</time>
      </trkpt>
      <trkpt lat="48.91041" lon="1.78999">
        <ele>96</ele>
        <time>2023-01-29T05:09:35.535Z</time>
      </trkpt>
      <trkpt lat="48.91046" lon="1.7899">
        <ele>97</ele>
        <time>2023-01-29T05:09:40.072Z</time>
      </trkpt>
      <trkpt lat="48.9105" lon="1.78981">
        <ele>97</ele>
        <time>2023-01-29T05:09:44.491Z</time>
      </trkpt>
      <trkpt lat="48.91053" lon="1.78971">
        <ele>97</ele>
        <time>2023-01-29T05:09:49.029Z</time>
      </trkpt>
      <trkpt lat="48.91055" lon="1.78963">
        <ele>97</ele>
        <time>2023-01-29T05:09:52.970Z</time>
      </trkpt>
      <trkpt lat="48.91058" lon="1.78953">
        <ele>98</ele>
        <time>2023-01-29T05:09:57.509Z</time>
      </trkpt>
      <trkpt lat="48.91061" lon="1.78943">
        <ele>98</ele>
        <time>2023-01-29T05:10:02.096Z</time>
      </trkpt>
      <trkpt lat="48.91062" lon="1.78932">
        <ele>98</ele>
        <time>2023-01-29T05:10:06.706Z</time>
      </trkpt>
      <trkpt lat="48.91062" lon="1.78922">
        <ele>99</ele>
        <time>2023-01-29T05:10:11.248Z</time>
      </trkpt>
      <trkpt lat="48.91061" lon="1.78912">
        <ele>99</ele>
        <time>2023-01-29T05:10:15.425Z</time>
      </trkpt>
      <trkpt lat="48.91059" lon="1.78903">
        <ele>99</ele>
        <time>2023-01-29T05:10:19.486Z</time>
      </trkpt>
      <trkpt lat="48.91056" lon="1.78894">
        <ele>99</ele>
        <time>2023-01-29T05:10:24.096Z</time>
      </trkpt>
      <trkpt lat="48.91053" lon="1.78884">
        <ele>99</ele>
        <time>2023-01-29T05:10:28.206Z</time>
      </trkpt>
      <trkpt lat="48.91049" lon="1.78875">
        <ele>99</ele>
        <time>2023-01-29T05:10:32.829Z</time>
      </trkpt>
      <trkpt lat="48.91046" lon="1.78865">
        <ele>98</ele>
        <time>2023-01-29T05:10:37.285Z</time>
      </trkpt>
      <trkpt lat="48.91043" lon="1.78855">
        <ele>98</ele>
        <time>2023-01-29T05:10:41.808Z</time>
      </trkpt>
      <trkpt lat="48.91042" lon="1.78845">
        <ele>98</ele>
        <time>2023-01-29T05:10:45.836Z</time>
      </trkpt>
      <trkpt lat="48.91041" lon="1.78834">
        <ele>98</ele>
        <time>2023-01-29T05:10:50.307Z</time>
      </trkpt>
      <trkpt lat="48.91041" lon="1.78824">
        <ele>98</ele>
        <time>2023-01-29T05:10:54.836Z</time>
      </trkpt>
      <trkpt lat="48.91043" lon="1.78814">
        <ele>97</ele>
        <time>2023-01-29T05:10:59.264Z</time>
      </trkpt>
      <trkpt lat="48.91046" lon="1.78805">
        <ele>97</ele>
        <time>2023-01-29T05:11:03.804Z</time>
      </trkpt>
      <trkpt lat="48.9105" lon="1.78796">
        <ele>97</ele>
        <time>2023-01-29T05:11:08.345Z</time>
      </trkpt>
      <trkpt lat="48.91055" lon="1.78788">
        <ele>97</ele>
        <time>2023-01-29T05:11:12.407Z</time>
      </trkpt>
      <trkpt lat="48.91061" lon="1.78783">
        <ele>97</ele>
        <time>2023-01-29T05:11:16.940Z</time>
      </trkpt>
      <trkpt lat="48.91065" lon="1.78778">
        <ele>97</ele>
        <time>2023-01-29T05:11:21.008Z</time>
      </trkpt>
      <trkpt lat="48.91071" lon="1.78773">
        <ele>97</ele>
        <time>2023-01-29T05:11:25.464Z</time>
      </trkpt>
      <trkpt lat="48.91075" lon="1.78768">
        <ele>97</ele>
        <time>2023-01-29T05:11:29.584Z</time>
      </trkpt>
      <trkpt lat="48.91079" lon="1.78761">
        <ele>97</ele>
        <time>2023-01-29T05:11:33.551Z</time>
      </trkpt>
      <trkpt lat="48.91085" lon="1.78757">
        <ele>97</ele>
        <time>2023-01-29T05:11:38.110Z</time>
      </trkpt>
      <trkpt lat="48.91091" lon="1.78753">
        <ele>97</ele>
        <time>2023-01-29T05:11:42.112Z</time>
      </trkpt>
      <trkpt lat="48.91096" lon="1.78748">
        <ele>97</ele>
        <time>2023-01-29T05:11:46.118Z</time>
      </trkpt>
      <trkpt lat="48.91102" lon="1.78737">
        <ele>98</ele>
        <time>2023-01-29T05:11:50.729Z</time>
      </trkpt>
      <trkpt lat="48.91105" lon="1.78726">
        <ele>98</ele>
        <time>2023-01-29T05:11:55.269Z</time>
      </trkpt>
      <trkpt lat="48.91107" lon="1.78715">
        <ele>98</ele>
        <time>2023-01-29T05:11:59.808Z</time>
      </trkpt>
      <trkpt lat="48.9111" lon="1.78706">
        <ele>98</ele>
        <time>2023-01-29T05:12:04.347Z</time>
      </trkpt>
      <trkpt lat="48.91114" lon="1.78698">
        <ele>98</ele>
        <time>2023-01-29T05:12:08.883Z</time>
      </trkpt>
      <trkpt lat="48.91119" lon="1.78691">
        <ele>98</ele>
        <time>2023-01-29T05:12:12.941Z</time>
      </trkpt>
      <trkpt lat="48.91125" lon="1.78685">
        <ele>98</ele>
        <time>2023-01-29T05:12:17.985Z</time>
      </trkpt>
      <trkpt lat="48.9113" lon="1.78682">
        <ele>97</ele>
        <time>2023-01-29T05:12:22.011Z</time>
      </trkpt>
      <trkpt lat="48.91135" lon="1.78676">
        <ele>98</ele>
        <time>2023-01-29T05:12:26.068Z</time>
      </trkpt>
      <trkpt lat="48.91142" lon="1.78674">
        <ele>98</ele>
        <time>2023-01-29T05:12:30.245Z</time>
      </trkpt>
      <trkpt lat="48.91151" lon="1.78672">
        <ele>98</ele>
        <time>2023-01-29T05:12:34.836Z</time>
      </trkpt>
      <trkpt lat="48.91159" lon="1.7867">
        <ele>97</ele>
        <time>2023-01-29T05:12:39.417Z</time>
      </trkpt>
      <trkpt lat="48.91167" lon="1.78667">
        <ele>97</ele>
        <time>2023-01-29T05:12:44.073Z</time>
      </trkpt>
      <trkpt lat="48.91174" lon="1.78666">
        <ele>97</ele>
        <time>2023-01-29T05:12:48.608Z</time>
      </trkpt>
      <trkpt lat="48.91182" lon="1.78666">
        <ele>97</ele>
        <time>2023-01-29T05:12:53.026Z</time>
      </trkpt>
      <trkpt lat="48.91188" lon="1.78667">
        <ele>97</ele>
        <time>2023-01-29T05:12:57.443Z</time>
      </trkpt>
      <trkpt lat="48.91195" lon="1.78668">
        <ele>97</ele>
        <time>2023-01-29T05:13:01.979Z</time>
      </trkpt>
      <trkpt lat="48.91201" lon="1.78669">
        <ele>97</ele>
        <time>2023-01-29T05:13:05.836Z</time>
      </trkpt>
      <trkpt lat="48.91207" lon="1.78672">
        <ele>97</ele>
        <time>2023-01-29T05:13:10.448Z</time>
      </trkpt>
      <trkpt lat="48.91214" lon="1.78674">
        <ele>96</ele>
        <time>2023-01-29T05:13:14.547Z</time>
      </trkpt>
      <trkpt lat="48.9122" lon="1.78676">
        <ele>96</ele>
        <time>2023-01-29T05:13:18.452Z</time>
      </trkpt>
      <trkpt lat="48.91226" lon="1.7868">
        <ele>96</ele>
        <time>2023-01-29T05:13:22.963Z</time>
      </trkpt>
      <trkpt lat="48.91233" lon="1.78683">
        <ele>94</ele>
        <time>2023-01-29T05:13:26.809Z</time>
      </trkpt>
      <trkpt lat="48.91239" lon="1.78686">
        <ele>94</ele>
        <time>2023-01-29T05:13:30.836Z</time>
      </trkpt>
      <trkpt lat="48.91246" lon="1.78688">
        <ele>94</ele>
        <time>2023-01-29T05:13:35.404Z</time>
      </trkpt>
      <trkpt lat="48.91255" lon="1.78689">
        <ele>94</ele>
        <time>2023-01-29T05:13:39.940Z</time>
      </trkpt>
      <trkpt lat="48.91262" lon="1.78689">
        <ele>94</ele>
        <time>2023-01-29T05:13:44.594Z</time>
      </trkpt>
      <trkpt lat="48.91268" lon="1.78688">
        <ele>96</ele>
        <time>2023-01-29T05:13:49.129Z</time>
      </trkpt>
      <trkpt lat="48.91275" lon="1.78687">
        <ele>96</ele>
        <time>2023-01-29T05:13:53.664Z</time>
      </trkpt>
      <trkpt lat="48.91281" lon="1.78686">
        <ele>96</ele>
        <time>2023-01-29T05:13:57.836Z</time>
      </trkpt>
      <trkpt lat="48.91288" lon="1.78684">
        <ele>96</ele>
        <time>2023-01-29T05:14:01.836Z</time>
      </trkpt>
      <trkpt lat="48.91296" lon="1.78683">
        <ele>97</ele>
        <time>2023-01-29T05:14:06.319Z</time>
      </trkpt>
      <trkpt lat="48.91303" lon="1.78681">
        <ele>97</ele>
        <time>2023-01-29T05:14:10.768Z</time>
      </trkpt>
      <trkpt lat="48.9131" lon="1.78679">
        <ele>96</ele>
        <time>2023-01-29T05:14:14.557Z</time>
      </trkpt>
      <trkpt lat="48.91317" lon="1.78676">
        <ele>96</ele>
        <time>2023-01-29T05:14:19.095Z</time>
      </trkpt>
      <trkpt lat="48.91323" lon="1.78674">
        <ele>95</ele>
        <time>2023-01-29T05:14:23.608Z</time>
      </trkpt>
      <trkpt lat="48.9133" lon="1.78671">
        <ele>95</ele>
        <time>2023-01-29T05:14:27.931Z</time>
      </trkpt>
      <trkpt lat="48.91336" lon="1.78668">
        <ele>95</ele>
        <time>2023-01-29T05:14:32.350Z</time>
      </trkpt>
      <trkpt lat="48.91343" lon="1.78667">
        <ele>95</ele>
        <time>2023-01-29T05:14:36.291Z</time>
      </trkpt>
      <trkpt lat="48.91351" lon="1.78664">
        <ele>95</ele>
        <time>2023-01-29T05:14:41.307Z</time>
      </trkpt>
      <trkpt lat="48.91358" lon="1.78661">
        <ele>95</ele>
        <time>2023-01-29T05:14:45.248Z</time>
      </trkpt>
      <trkpt lat="48.91364" lon="1.78658">
        <ele>95</ele>
        <time>2023-01-29T05:14:49.310Z</time>
      </trkpt>
      <trkpt lat="48.91369" lon="1.78654">
        <ele>95</ele>
        <time>2023-01-29T05:14:53.836Z</time>
      </trkpt>
      <trkpt lat="48.91374" lon="1.78654">
        <ele>95</ele>
        <time>2023-01-29T05:14:57.836Z</time>
      </trkpt>
      <trkpt lat="48.9138" lon="1.78651">
        <ele>93</ele>
        <time>2023-01-29T05:15:02.447Z</time>
      </trkpt>
      <trkpt lat="48.91387" lon="1.78648">
        <ele>93</ele>
        <time>2023-01-29T05:15:06.628Z</time>
      </trkpt>
      <trkpt lat="48.91393" lon="1.78645">
        <ele>93</ele>
        <time>2023-01-29T05:15:11.107Z</time>
      </trkpt>
      <trkpt lat="48.91402" lon="1.78643">
        <ele>93</ele>
        <time>2023-01-29T05:15:15.706Z</time>
      </trkpt>
      <trkpt lat="48.91409" lon="1.78639">
        <ele>94</ele>
        <time>2023-01-29T05:15:20.080Z</time>
      </trkpt>
      <trkpt lat="48.91415" lon="1.78635">
        <ele>94</ele>
        <time>2023-01-29T05:15:23.926Z</time>
      </trkpt>
      <trkpt lat="48.91423" lon="1.78631">
        <ele>94</ele>
        <time>2023-01-29T05:15:28.587Z</time>
      </trkpt>
      <trkpt lat="48.9143" lon="1.78627">
        <ele>94</ele>
        <time>2023-01-29T05:15:32.524Z</time>
      </trkpt>
      <trkpt lat="48.91437" lon="1.78622">
        <ele>93</ele>
        <time>2023-01-29T05:15:37.108Z</time>
      </trkpt>
      <trkpt lat="48.91443" lon="1.78619">
        <ele>93</ele>
        <time>2023-01-29T05:15:41.108Z</time>
      </trkpt>
      <trkpt lat="48.91451" lon="1.78617">
        <ele>93</ele>
        <time>2023-01-29T05:15:45.154Z</time>
      </trkpt>
      <trkpt lat="48.91459" lon="1.78613">
        <ele>94</ele>
        <time>2023-01-29T05:15:49.604Z</time>
      </trkpt>
      <trkpt lat="48.91466" lon="1.78608">
        <ele>94</ele>
        <time>2023-01-29T05:15:54.262Z</time>
      </trkpt>
      <trkpt lat="48.91472" lon="1.78605">
        <ele>94</ele>
        <time>2023-01-29T05:15:58.799Z</time>
      </trkpt>
      <trkpt lat="48.91477" lon="1.78602">
        <ele>94</ele>
        <time>2023-01-29T05:16:02.740Z</time>
      </trkpt>
      <trkpt lat="48.91484" lon="1.78599">
        <ele>94</ele>
        <time>2023-01-29T05:16:07.279Z</time>
      </trkpt>
      <trkpt lat="48.91491" lon="1.78596">
        <ele>95</ele>
        <time>2023-01-29T05:16:11.762Z</time>
      </trkpt>
      <trkpt lat="48.91498" lon="1.78593">
        <ele>95</ele>
        <time>2023-01-29T05:16:16.119Z</time>
      </trkpt>
      <trkpt lat="48.91506" lon="1.78591">
        <ele>95</ele>
        <time>2023-01-29T05:16:20.657Z</time>
      </trkpt>
      <trkpt lat="48.91512" lon="1.78589">
        <ele>95</ele>
        <time>2023-01-29T05:16:25.112Z</time>
      </trkpt>
      <trkpt lat="48.91519" lon="1.78587">
        <ele>94</ele>
        <time>2023-01-29T05:16:29.615Z</time>
      </trkpt>
      <trkpt lat="48.91526" lon="1.78585">
        <ele>94</ele>
        <time>2023-01-29T05:16:34.108Z</time>
      </trkpt>
      <trkpt lat="48.91534" lon="1.78582">
        <ele>94</ele>
        <time>2023-01-29T05:16:38.448Z</time>
      </trkpt>
      <trkpt lat="48.91541" lon="1.7858">
        <ele>94</ele>
        <time>2023-01-29T05:16:42.632Z</time>
      </trkpt>
      <trkpt lat="48.91547" lon="1.78578">
        <ele>96</ele>
        <time>2023-01-29T05:16:47.052Z</time>
      </trkpt>
      <trkpt lat="48.91554" lon="1.78576">
        <ele>96</ele>
        <time>2023-01-29T05:16:51.589Z</time>
      </trkpt>
      <trkpt lat="48.91561" lon="1.78575">
        <ele>96</ele>
        <time>2023-01-29T05:16:56.128Z</time>
      </trkpt>
      <trkpt lat="48.91568" lon="1.78573">
        <ele>96</ele>
        <time>2023-01-29T05:17:00.666Z</time>
      </trkpt>
      <trkpt lat="48.91575" lon="1.78573">
        <ele>96</ele>
        <time>2023-01-29T05:17:04.726Z</time>
      </trkpt>
      <trkpt lat="48.91582" lon="1.78573">
        <ele>96</ele>
        <time>2023-01-29T05:17:08.667Z</time>
      </trkpt>
      <trkpt lat="48.91589" lon="1.78573">
        <ele>96</ele>
        <time>2023-01-29T05:17:13.205Z</time>
      </trkpt>
      <trkpt lat="48.91596" lon="1.78574">
        <ele>96</ele>
        <time>2023-01-29T05:17:17.741Z</time>
      </trkpt>
      <trkpt lat="48.91602" lon="1.78575">
        <ele>94</ele>
        <time>2023-01-29T05:17:22.399Z</time>
      </trkpt>
      <trkpt lat="48.91609" lon="1.78575">
        <ele>94</ele>
        <time>2023-01-29T05:17:26.818Z</time>
      </trkpt>
      <trkpt lat="48.91615" lon="1.78575">
        <ele>94</ele>
        <time>2023-01-29T05:17:30.760Z</time>
      </trkpt>
      <trkpt lat="48.9162" lon="1.78574">
        <ele>94</ele>
        <time>2023-01-29T05:17:35.416Z</time>
      </trkpt>
      <trkpt lat="48.91628" lon="1.78574">
        <ele>94</ele>
        <time>2023-01-29T05:17:39.848Z</time>
      </trkpt>
      <trkpt lat="48.91634" lon="1.78575">
        <ele>94</ele>
        <time>2023-01-29T05:17:43.836Z</time>
      </trkpt>
      <trkpt lat="48.91641" lon="1.78576">
        <ele>94</ele>
        <time>2023-01-29T05:17:48.293Z</time>
      </trkpt>
      <trkpt lat="48.91648" lon="1.78577">
        <ele>94</ele>
        <time>2023-01-29T05:17:52.829Z</time>
      </trkpt>
      <trkpt lat="48.91655" lon="1.78578">
        <ele>93</ele>
        <time>2023-01-29T05:17:56.836Z</time>
      </trkpt>
      <trkpt lat="48.91662" lon="1.78579">
        <ele>93</ele>
        <time>2023-01-29T05:18:01.414Z</time>
      </trkpt>
      <trkpt lat="48.91669" lon="1.78579">
        <ele>93</ele>
        <time>2023-01-29T05:18:05.605Z</time>
      </trkpt>
      <trkpt lat="48.91676" lon="1.78579">
        <ele>93</ele>
        <time>2023-01-29T05:18:09.665Z</time>
      </trkpt>
      <trkpt lat="48.91683" lon="1.7858">
        <ele>91</ele>
        <time>2023-01-29T05:18:14.203Z</time>
      </trkpt>
      <trkpt lat="48.91689" lon="1.78582">
        <ele>91</ele>
        <time>2023-01-29T05:18:18.265Z</time>
      </trkpt>
      <trkpt lat="48.91696" lon="1.78584">
        <ele>91</ele>
        <time>2023-01-29T05:18:22.802Z</time>
      </trkpt>
      <trkpt lat="48.91703" lon="1.78584">
        <ele>91</ele>
        <time>2023-01-29T05:18:27.323Z</time>
      </trkpt>
      <trkpt lat="48.91711" lon="1.78585">
        <ele>90</ele>
        <time>2023-01-29T05:18:31.281Z</time>
      </trkpt>
      <trkpt lat="48.91717" lon="1.78584">
        <ele>90</ele>
        <time>2023-01-29T05:18:35.761Z</time>
      </trkpt>
      <trkpt lat="48.91724" lon="1.78584">
        <ele>90</ele>
        <time>2023-01-29T05:18:39.639Z</time>
      </trkpt>
      <trkpt lat="48.91731" lon="1.78583">
        <ele>90</ele>
        <time>2023-01-29T05:18:44.295Z</time>
      </trkpt>
      <trkpt lat="48.91738" lon="1.78583">
        <ele>90</ele>
        <time>2023-01-29T05:18:48.832Z</time>
      </trkpt>
      <trkpt lat="48.91746" lon="1.78582">
        <ele>90</ele>
        <time>2023-01-29T05:18:53.248Z</time>
      </trkpt>
      <trkpt lat="48.91754" lon="1.78581">
        <ele>90</ele>
        <time>2023-01-29T05:18:57.646Z</time>
      </trkpt>
      <trkpt lat="48.91761" lon="1.7858">
        <ele>90</ele>
        <time>2023-01-29T05:19:02.304Z</time>
      </trkpt>
      <trkpt lat="48.91768" lon="1.7858">
        <ele>89</ele>
        <time>2023-01-29T05:19:06.245Z</time>
      </trkpt>
      <trkpt lat="48.91775" lon="1.7858">
        <ele>89</ele>
        <time>2023-01-29T05:19:10.907Z</time>
      </trkpt>
      <trkpt lat="48.91782" lon="1.78579">
        <ele>89</ele>
        <time>2023-01-29T05:19:14.960Z</time>
      </trkpt>
      <trkpt lat="48.91789" lon="1.78578">
        <ele>89</ele>
        <time>2023-01-29T05:19:19.499Z</time>
      </trkpt>
      <trkpt lat="48.91796" lon="1.78578">
        <ele>88</ele>
        <time>2023-01-29T05:19:23.800Z</time>
      </trkpt>
      <trkpt lat="48.91803" lon="1.78576">
        <ele>88</ele>
        <time>2023-01-29T05:19:27.863Z</time>
      </trkpt>
      <trkpt lat="48.91809" lon="1.78576">
        <ele>88</ele>
        <time>2023-01-29T05:19:32.400Z</time>
      </trkpt>
      <trkpt lat="48.91817" lon="1.78575">
        <ele>88</ele>
        <time>2023-01-29T05:19:36.462Z</time>
      </trkpt>
      <trkpt lat="48.91824" lon="1.78576">
        <ele>89</ele>
        <time>2023-01-29T05:19:41Z</time>
      </trkpt>
      <trkpt lat="48.91831" lon="1.78575">
        <ele>89</ele>
        <time>2023-01-29T05:19:45.419Z</time>
      </trkpt>
      <trkpt lat="48.91838" lon="1.78574">
        <ele>89</ele>
        <time>2023-01-29T05:19:50.105Z</time>
      </trkpt>
      <trkpt lat="48.91845" lon="1.78573">
        <ele>89</ele>
        <time>2023-01-29T05:19:54.478Z</time>
      </trkpt>
      <trkpt lat="48.91851" lon="1.78572">
        <ele>90</ele>
        <time>2023-01-29T05:19:59.135Z</time>
      </trkpt>
      <trkpt lat="48.91857" lon="1.78571">
        <ele>90</ele>
        <time>2023-01-29T05:20:03.075Z</time>
      </trkpt>
      <trkpt lat="48.91863" lon="1.78571">
        <ele>90</ele>
        <time>2023-01-29T05:20:07.095Z</time>
      </trkpt>
      <trkpt lat="48.91871" lon="1.78569">
        <ele>91</ele>
        <time>2023-01-29T05:20:11.671Z</time>
      </trkpt>
      <trkpt lat="48.91878" lon="1.78567">
        <ele>91</ele>
        <time>2023-01-29T05:20:15.731Z</time>
      </trkpt>
      <trkpt lat="48.91884" lon="1.78563">
        <ele>91</ele>
        <time>2023-01-29T05:20:20.389Z</time>
      </trkpt>
      <trkpt lat="48.91891" lon="1.78558">
        <ele>91</ele>
        <time>2023-01-29T05:20:24.927Z</time>
      </trkpt>
      <trkpt lat="48.91896" lon="1.78552">
        <ele>91</ele>
        <time>2023-01-29T05:20:29.309Z</time>
      </trkpt>
      <trkpt lat="48.919" lon="1.78547">
        <ele>91</ele>
        <time>2023-01-29T05:20:33.331Z</time>
      </trkpt>
      <trkpt lat="48.91906" lon="1.7854">
        <ele>91</ele>
        <time>2023-01-29T05:20:37.825Z</time>
      </trkpt>
      <trkpt lat="48.91911" lon="1.78533">
        <ele>91</ele>
        <time>2023-01-29T05:20:42.345Z</time>
      </trkpt>
      <trkpt lat="48.91915" lon="1.78525">
        <ele>91</ele>
        <time>2023-01-29T05:20:47.004Z</time>
      </trkpt>
      <trkpt lat="48.9192" lon="1.78518">
        <ele>91</ele>
        <time>2023-01-29T05:20:51.663Z</time>
      </trkpt>
      <trkpt lat="48.91926" lon="1.78511">
        <ele>92</ele>
        <time>2023-01-29T05:20:55.836Z</time>
      </trkpt>
      <trkpt lat="48.91931" lon="1.78502">
        <ele>89</ele>
        <time>2023-01-29T05:21:00.502Z</time>
      </trkpt>
      <trkpt lat="48.91936" lon="1.78494">
        <ele>89</ele>
        <time>2023-01-29T05:21:04.928Z</time>
      </trkpt>
      <trkpt lat="48.9194" lon="1.78486">
        <ele>89</ele>
        <time>2023-01-29T05:21:09.344Z</time>
      </trkpt>
      <trkpt lat="48.91945" lon="1.78476">
        <ele>91</ele>
        <time>2023-01-29T05:21:14.240Z</time>
      </trkpt>
      <trkpt lat="48.91949" lon="1.78468">
        <ele>91</ele>
        <time>2023-01-29T05:21:18.959Z</time>
      </trkpt>
      <trkpt lat="48.91954" lon="1.78458">
        <ele>91</ele>
        <time>2023-01-29T05:21:23.434Z</time>
      </trkpt>
      <trkpt lat="48.91958" lon="1.78451">
        <ele>92</ele>
        <time>2023-01-29T05:21:27.971Z</time>
      </trkpt>
      <trkpt lat="48.91963" lon="1.78442">
        <ele>89</ele>
        <time>2023-01-29T05:21:32.012Z</time>
      </trkpt>
      <trkpt lat="48.91965" lon="1.78432">
        <ele>89</ele>
        <time>2023-01-29T05:21:36.665Z</time>
      </trkpt>
      <trkpt lat="48.9197" lon="1.78425">
        <ele>89</ele>
        <time>2023-01-29T05:21:40.610Z</time>
      </trkpt>
      <trkpt lat="48.91973" lon="1.78416">
        <ele>89</ele>
        <time>2023-01-29T05:21:45.250Z</time>
      </trkpt>
      <trkpt lat="48.91977" lon="1.78408">
        <ele>89</ele>
        <time>2023-01-29T05:21:49.670Z</time>
      </trkpt>
      <trkpt lat="48.9198" lon="1.78399">
        <ele>90</ele>
        <time>2023-01-29T05:21:53.730Z</time>
      </trkpt>
      <trkpt lat="48.91985" lon="1.78391">
        <ele>90</ele>
        <time>2023-01-29T05:21:58.268Z</time>
      </trkpt>
      <trkpt lat="48.91989" lon="1.78381">
        <ele>86</ele>
        <time>2023-01-29T05:22:02.688Z</time>
      </trkpt>
      <trkpt lat="48.91993" lon="1.78372">
        <ele>87</ele>
        <time>2023-01-29T05:22:07.138Z</time>
      </trkpt>
      <trkpt lat="48.91997" lon="1.78364">
        <ele>87</ele>
        <time>2023-01-29T05:22:11.644Z</time>
      </trkpt>
      <trkpt lat="48.92" lon="1.78355">
        <ele>87</ele>
        <time>2023-01-29T05:22:16.183Z</time>
      </trkpt>
      <trkpt lat="48.92004" lon="1.78346">
        <ele>87</ele>
        <time>2023-01-29T05:22:20.243Z</time>
      </trkpt>
      <trkpt lat="48.92008" lon="1.78338">
        <ele>87</ele>
        <time>2023-01-29T05:22:25.005Z</time>
      </trkpt>
      <trkpt lat="48.92011" lon="1.7833">
        <ele>87</ele>
        <time>2023-01-29T05:22:28.962Z</time>
      </trkpt>
      <trkpt lat="48.92015" lon="1.78321">
        <ele>86</ele>
        <time>2023-01-29T05:22:33.382Z</time>
      </trkpt>
      <trkpt lat="48.9202" lon="1.78314">
        <ele>87</ele>
        <time>2023-01-29T05:22:37.325Z</time>
      </trkpt>
      <trkpt lat="48.92024" lon="1.78306">
        <ele>87</ele>
        <time>2023-01-29T05:22:41.836Z</time>
      </trkpt>
      <trkpt lat="48.92029" lon="1.78297">
        <ele>87</ele>
        <time>2023-01-29T05:22:46.404Z</time>
      </trkpt>
      <trkpt lat="48.92034" lon="1.7829">
        <ele>87</ele>
        <time>2023-01-29T05:22:50.345Z</time>
      </trkpt>
      <trkpt lat="48.92038" lon="1.78283">
        <ele>87</ele>
        <time>2023-01-29T05:22:54.836Z</time>
      </trkpt>
      <trkpt lat="48.92043" lon="1.78277">
        <ele>88</ele>
        <time>2023-01-29T05:22:58.825Z</time>
      </trkpt>
      <trkpt lat="48.92048" lon="1.7827">
        <ele>88</ele>
        <time>2023-01-29T05:23:03.545Z</time>
      </trkpt>
      <trkpt lat="48.92053" lon="1.78264">
        <ele>88</ele>
        <time>2023-01-29T05:23:07.421Z</time>
      </trkpt>
      <trkpt lat="48.92058" lon="1.78258">
        <ele>87</ele>
        <time>2023-01-29T05:23:12.203Z</time>
      </trkpt>
      <trkpt lat="48.92064" lon="1.78253">
        <ele>87</ele>
        <time>2023-01-29T05:23:16.738Z</time>
      </trkpt>
      <trkpt lat="48.9207" lon="1.78248">
        <ele>86</ele>
        <time>2023-01-29T05:23:21.278Z</time>
      </trkpt>
      <trkpt lat="48.92076" lon="1.78242">
        <ele>86</ele>
        <time>2023-01-29T05:23:25.741Z</time>
      </trkpt>
      <trkpt lat="48.92082" lon="1.78238">
        <ele>86</ele>
        <time>2023-01-29T05:23:30.236Z</time>
      </trkpt>
      <trkpt lat="48.92088" lon="1.78235">
        <ele>86</ele>
        <time>2023-01-29T05:23:34.418Z</time>
      </trkpt>
      <trkpt lat="48.92096" lon="1.78231">
        <ele>86</ele>
        <time>2023-01-29T05:23:38.937Z</time>
      </trkpt>
      <trkpt lat="48.92102" lon="1.78228">
        <ele>84</ele>
        <time>2023-01-29T05:23:43.357Z</time>
      </trkpt>
      <trkpt lat="48.92108" lon="1.78224">
        <ele>84</ele>
        <time>2023-01-29T05:23:47.836Z</time>
      </trkpt>
      <trkpt lat="48.92115" lon="1.7822">
        <ele>84</ele>
        <time>2023-01-29T05:23:52.298Z</time>
      </trkpt>
      <trkpt lat="48.92122" lon="1.78218">
        <ele>84</ele>
        <time>2023-01-29T05:23:56.836Z</time>
      </trkpt>
      <trkpt lat="48.92129" lon="1.78216">
        <ele>84</ele>
        <time>2023-01-29T05:24:01.410Z</time>
      </trkpt>
      <trkpt lat="48.92136" lon="1.78215">
        <ele>84</ele>
        <time>2023-01-29T05:24:05.429Z</time>
      </trkpt>
      <trkpt lat="48.92142" lon="1.78212">
        <ele>84</ele>
        <time>2023-01-29T05:24:09.836Z</time>
      </trkpt>
      <trkpt lat="48.92148" lon="1.78211">
        <ele>84</ele>
        <time>2023-01-29T05:24:13.836Z</time>
      </trkpt>
      <trkpt lat="48.92154" lon="1.78209">
        <ele>85</ele>
        <time>2023-01-29T05:24:17.729Z</time>
      </trkpt>
      <trkpt lat="48.9216" lon="1.78206">
        <ele>85</ele>
        <time>2023-01-29T05:24:22.181Z</time>
      </trkpt>
      <trkpt lat="48.92167" lon="1.78204">
        <ele>85</ele>
        <time>2023-01-29T05:24:26.330Z</time>
      </trkpt>
      <trkpt lat="48.92174" lon="1.78201">
        <ele>85</ele>
        <time>2023-01-29T05:24:30.836Z</time>
      </trkpt>
      <trkpt lat="48.9218" lon="1.782">
        <ele>85</ele>
        <time>2023-01-29T05:24:34.809Z</time>
      </trkpt>
      <trkpt lat="48.92186" lon="1.78197">
        <ele>85</ele>
        <time>2023-01-29T05:24:38.988Z</time>
      </trkpt>
      <trkpt lat="48.92192" lon="1.78195">
        <ele>85</ele>
        <time>2023-01-29T05:24:43.047Z</time>
      </trkpt>
      <trkpt lat="48.92198" lon="1.78193">
        <ele>85</ele>
        <time>2023-01-29T05:24:47.106Z</time>
      </trkpt>
      <trkpt lat="48.92205" lon="1.78191">
        <ele>85</ele>
        <time>2023-01-29T05:24:51.645Z</time>
      </trkpt>
      <trkpt lat="48.92211" lon="1.78189">
        <ele>85</ele>
        <time>2023-01-29T05:24:56.110Z</time>
      </trkpt>
      <trkpt lat="48.92217" lon="1.78186">
        <ele>85</ele>
        <time>2023-01-29T05:25:00.598Z</time>
      </trkpt>
      <trkpt lat="48.92223" lon="1.78185">
        <ele>85</ele>
        <time>2023-01-29T05:25:05.121Z</time>
      </trkpt>
      <trkpt lat="48.92229" lon="1.78183">
        <ele>85</ele>
        <time>2023-01-29T05:25:09.656Z</time>
      </trkpt>
      <trkpt lat="48.92235" lon="1.7818">
        <ele>90</ele>
        <time>2023-01-29T05:25:14.130Z</time>
      </trkpt>
      <trkpt lat="48.92241" lon="1.78177">
        <ele>89</ele>
        <time>2023-01-29T05:25:18.009Z</time>
      </trkpt>
      <trkpt lat="48.92247" lon="1.78175">
        <ele>89</ele>
        <time>2023-01-29T05:25:22.132Z</time>
      </trkpt>
      <trkpt lat="48.92255" lon="1.78171">
        <ele>89</ele>
        <time>2023-01-29T05:25:26.730Z</time>
      </trkpt>
      <trkpt lat="48.92261" lon="1.78167">
        <ele>89</ele>
        <time>2023-01-29T05:25:31.269Z</time>
      </trkpt>
      <trkpt lat="48.92268" lon="1.78163">
        <ele>87</ele>
        <time>2023-01-29T05:25:35.682Z</time>
      </trkpt>
      <trkpt lat="48.92274" lon="1.78158">
        <ele>87</ele>
        <time>2023-01-29T05:25:39.610Z</time>
      </trkpt>
      <trkpt lat="48.92279" lon="1.78153">
        <ele>87</ele>
        <time>2023-01-29T05:25:44.248Z</time>
      </trkpt>
      <trkpt lat="48.92285" lon="1.78148">
        <ele>89</ele>
        <time>2023-01-29T05:25:48.308Z</time>
      </trkpt>
      <trkpt lat="48.92292" lon="1.78142">
        <ele>84</ele>
        <time>2023-01-29T05:25:52.836Z</time>
      </trkpt>
      <trkpt lat="48.92297" lon="1.78137">
        <ele>84</ele>
        <time>2023-01-29T05:25:56.836Z</time>
      </trkpt>
      <trkpt lat="48.92302" lon="1.7813">
        <ele>84</ele>
        <time>2023-01-29T05:26:01.445Z</time>
      </trkpt>
      <trkpt lat="48.92308" lon="1.78122">
        <ele>85</ele>
        <time>2023-01-29T05:26:05.626Z</time>
      </trkpt>
      <trkpt lat="48.92313" lon="1.78115">
        <ele>85</ele>
        <time>2023-01-29T05:26:09.685Z</time>
      </trkpt>
      <trkpt lat="48.92318" lon="1.78109">
        <ele>85</ele>
        <time>2023-01-29T05:26:14.223Z</time>
      </trkpt>
      <trkpt lat="48.92322" lon="1.78101">
        <ele>83</ele>
        <time>2023-01-29T05:26:18.282Z</time>
      </trkpt>
      <trkpt lat="48.92327" lon="1.78093">
        <ele>83</ele>
        <time>2023-01-29T05:26:22.818Z</time>
      </trkpt>
      <trkpt lat="48.92332" lon="1.78085">
        <ele>83</ele>
        <time>2023-01-29T05:26:27.228Z</time>
      </trkpt>
      <trkpt lat="48.92336" lon="1.78075">
        <ele>83</ele>
        <time>2023-01-29T05:26:31.295Z</time>
      </trkpt>
      <trkpt lat="48.9234" lon="1.78066">
        <ele>83</ele>
        <time>2023-01-29T05:26:35.805Z</time>
      </trkpt>
      <trkpt lat="48.92344" lon="1.78057">
        <ele>83</ele>
        <time>2023-01-29T05:26:39.652Z</time>
      </trkpt>
      <trkpt lat="48.92347" lon="1.78048">
        <ele>82</ele>
        <time>2023-01-29T05:26:44.104Z</time>
      </trkpt>
      <trkpt lat="48.9235" lon="1.78039">
        <ele>82</ele>
        <time>2023-01-29T05:26:48.114Z</time>
      </trkpt>
      <trkpt lat="48.92353" lon="1.78029">
        <ele>82</ele>
        <time>2023-01-29T05:26:52.652Z</time>
      </trkpt>
      <trkpt lat="48.92357" lon="1.78019">
        <ele>82</ele>
        <time>2023-01-29T05:26:57.124Z</time>
      </trkpt>
      <trkpt lat="48.9236" lon="1.7801">
        <ele>82</ele>
        <time>2023-01-29T05:27:01.126Z</time>
      </trkpt>
      <trkpt lat="48.92363" lon="1.78">
        <ele>82</ele>
        <time>2023-01-29T05:27:05.665Z</time>
      </trkpt>
      <trkpt lat="48.92366" lon="1.7799">
        <ele>82</ele>
        <time>2023-01-29T05:27:09.721Z</time>
      </trkpt>
      <trkpt lat="48.92369" lon="1.77981">
        <ele>84</ele>
        <time>2023-01-29T05:27:14.259Z</time>
      </trkpt>
      <trkpt lat="48.92373" lon="1.77972">
        <ele>84</ele>
        <time>2023-01-29T05:27:18.318Z</time>
      </trkpt>
      <trkpt lat="48.92376" lon="1.77962">
        <ele>83</ele>
        <time>2023-01-29T05:27:22.836Z</time>
      </trkpt>
      <trkpt lat="48.92379" lon="1.77953">
        <ele>84</ele>
        <time>2023-01-29T05:27:26.793Z</time>
      </trkpt>
      <trkpt lat="48.92381" lon="1.77943">
        <ele>84</ele>
        <time>2023-01-29T05:27:31.448Z</time>
      </trkpt>
      <trkpt lat="48.92383" lon="1.77934">
        <ele>84</ele>
        <time>2023-01-29T05:27:35.508Z</time>
      </trkpt>
      <trkpt lat="48.92387" lon="1.77925">
        <ele>83</ele>
        <time>2023-01-29T05:27:40.045Z</time>
      </trkpt>
      <trkpt lat="48.92389" lon="1.77916">
        <ele>83</ele>
        <time>2023-01-29T05:27:43.965Z</time>
      </trkpt>
      <trkpt lat="48.92392" lon="1.77905">
        <ele>83</ele>
        <time>2023-01-29T05:27:48.621Z</time>
      </trkpt>
      <trkpt lat="48.92394" lon="1.77894">
        <ele>81</ele>
        <time>2023-01-29T05:27:53.262Z</time>
      </trkpt>
      <trkpt lat="48.92397" lon="1.77886">
        <ele>81</ele>
        <time>2023-01-29T05:27:57.220Z</time>
      </trkpt>
      <trkpt lat="48.92398" lon="1.77875">
        <ele>80</ele>
        <time>2023-01-29T05:28:01.836Z</time>
      </trkpt>
      <trkpt lat="48.92398" lon="1.77864">
        <ele>80</ele>
        <time>2023-01-29T05:28:06.410Z</time>
      </trkpt>
      <trkpt lat="48.92398" lon="1.77853">
        <ele>80</ele>
        <time>2023-01-29T05:28:10.351Z</time>
      </trkpt>
      <trkpt lat="48.92399" lon="1.77843">
        <ele>80</ele>
        <time>2023-01-29T05:28:14.836Z</time>
      </trkpt>
      <trkpt lat="48.924" lon="1.77832">
        <ele>80</ele>
        <time>2023-01-29T05:28:19.424Z</time>
      </trkpt>
      <trkpt lat="48.92402" lon="1.77822">
        <ele>80</ele>
        <time>2023-01-29T05:28:23.925Z</time>
      </trkpt>
      <trkpt lat="48.92405" lon="1.77814">
        <ele>78</ele>
        <time>2023-01-29T05:28:28.021Z</time>
      </trkpt>
      <trkpt lat="48.92412" lon="1.7781">
        <ele>78</ele>
        <time>2023-01-29T05:28:32.676Z</time>
      </trkpt>
      <trkpt lat="48.92418" lon="1.77806">
        <ele>78</ele>
        <time>2023-01-29T05:28:37.123Z</time>
      </trkpt>
      <trkpt lat="48.92424" lon="1.778">
        <ele>78</ele>
        <time>2023-01-29T05:28:41.628Z</time>
      </trkpt>
      <trkpt lat="48.92431" lon="1.77794">
        <ele>77</ele>
        <time>2023-01-29T05:28:46.489Z</time>
      </trkpt>
      <trkpt lat="48.92437" lon="1.77788">
        <ele>78</ele>
        <time>2023-01-29T05:28:50.913Z</time>
      </trkpt>
      <trkpt lat="48.92443" lon="1.77781">
        <ele>78</ele>
        <time>2023-01-29T05:28:55.268Z</time>
      </trkpt>
      <trkpt lat="48.92448" lon="1.77776">
        <ele>78</ele>
        <time>2023-01-29T05:28:59.414Z</time>
      </trkpt>
      <trkpt lat="48.92454" lon="1.7777">
        <ele>78</ele>
        <time>2023-01-29T05:29:03.829Z</time>
      </trkpt>
      <trkpt lat="48.9246" lon="1.77764">
        <ele>78</ele>
        <time>2023-01-29T05:29:08.365Z</time>
      </trkpt>
      <trkpt lat="48.92466" lon="1.77758">
        <ele>80</ele>
        <time>2023-01-29T05:29:13.020Z</time>
      </trkpt>
      <trkpt lat="48.92472" lon="1.77753">
        <ele>80</ele>
        <time>2023-01-29T05:29:17.436Z</time>
      </trkpt>
      <trkpt lat="48.92479" lon="1.77749">
        <ele>80</ele>
        <time>2023-01-29T05:29:21.930Z</time>
      </trkpt>
      <trkpt lat="48.92486" lon="1.77746">
        <ele>80</ele>
        <time>2023-01-29T05:29:26.030Z</time>
      </trkpt>
      <trkpt lat="48.92494" lon="1.77744">
        <ele>82</ele>
        <time>2023-01-29T05:29:30.684Z</time>
      </trkpt>
      <trkpt lat="48.92501" lon="1.77741">
        <ele>82</ele>
        <time>2023-01-29T05:29:35.181Z</time>
      </trkpt>
      <trkpt lat="48.92508" lon="1.77738">
        <ele>82</ele>
        <time>2023-01-29T05:29:39.587Z</time>
      </trkpt>
      <trkpt lat="48.92514" lon="1.77737">
        <ele>82</ele>
        <time>2023-01-29T05:29:44.048Z</time>
      </trkpt>
      <trkpt lat="48.92521" lon="1.77733">
        <ele>86</ele>
        <time>2023-01-29T05:29:48.702Z</time>
      </trkpt>
      <trkpt lat="48.92527" lon="1.7773">
        <ele>86</ele>
        <time>2023-01-29T05:29:53.097Z</time>
      </trkpt>
      <trkpt lat="48.92534" lon="1.77726">
        <ele>86</ele>
        <time>2023-01-29T05:29:57.652Z</time>
      </trkpt>
      <trkpt lat="48.9254" lon="1.77724">
        <ele>86</ele>
        <time>2023-01-29T05:30:01.830Z</time>
      </trkpt>
      <trkpt lat="48.92546" lon="1.77723">
        <ele>86</ele>
        <time>2023-01-29T05:30:05.979Z</time>
      </trkpt>
      <trkpt lat="48.92551" lon="1.77719">
        <ele>86</ele>
        <time>2023-01-29T05:30:09.943Z</time>
      </trkpt>
      <trkpt lat="48.92556" lon="1.77716">
        <ele>86</ele>
        <time>2023-01-29T05:30:14.001Z</time>
      </trkpt>
      <trkpt lat="48.92562" lon="1.77713">
        <ele>86</ele>
        <time>2023-01-29T05:30:17.939Z</time>
      </trkpt>
      <trkpt lat="48.92568" lon="1.7771">
        <ele>86</ele>
        <time>2023-01-29T05:30:21.639Z</time>
      </trkpt>
      <trkpt lat="48.92573" lon="1.77704">
        <ele>88</ele>
        <time>2023-01-29T05:30:26.166Z</time>
      </trkpt>
      <trkpt lat="48.92578" lon="1.777">
        <ele>88</ele>
        <time>2023-01-29T05:30:30.223Z</time>
      </trkpt>
      <trkpt lat="48.92584" lon="1.77694">
        <ele>88</ele>
        <time>2023-01-29T05:30:34.240Z</time>
      </trkpt>
      <trkpt lat="48.92588" lon="1.77688">
        <ele>88</ele>
        <time>2023-01-29T05:30:38.223Z</time>
      </trkpt>
      <trkpt lat="48.92594" lon="1.77681">
        <ele>90</ele>
        <time>2023-01-29T05:30:42.619Z</time>
      </trkpt>
      <trkpt lat="48.92597" lon="1.77673">
        <ele>90</ele>
        <time>2023-01-29T05:30:46.557Z</time>
      </trkpt>
      <trkpt lat="48.926" lon="1.77666">
        <ele>88</ele>
        <time>2023-01-29T05:30:51.046Z</time>
      </trkpt>
      <trkpt lat="48.92603" lon="1.77658">
        <ele>88</ele>
        <time>2023-01-29T05:30:55.027Z</time>
      </trkpt>
      <trkpt lat="48.92607" lon="1.77649">
        <ele>89</ele>
        <time>2023-01-29T05:30:59.545Z</time>
      </trkpt>
      <trkpt lat="48.92612" lon="1.77641">
        <ele>89</ele>
        <time>2023-01-29T05:31:03.560Z</time>
      </trkpt>
      <trkpt lat="48.92615" lon="1.77634">
        <ele>89</ele>
        <time>2023-01-29T05:31:07.554Z</time>
      </trkpt>
      <trkpt lat="48.92618" lon="1.77627">
        <ele>89</ele>
        <time>2023-01-29T05:31:11.372Z</time>
      </trkpt>
      <trkpt lat="48.92621" lon="1.7762">
        <ele>94</ele>
        <time>2023-01-29T05:31:15.310Z</time>
      </trkpt>
      <trkpt lat="48.92625" lon="1.77612">
        <ele>94</ele>
        <time>2023-01-29T05:31:19.711Z</time>
      </trkpt>
      <trkpt lat="48.92628" lon="1.77603">
        <ele>90</ele>
        <time>2023-01-29T05:31:24.202Z</time>
      </trkpt>
      <trkpt lat="48.92632" lon="1.77594">
        <ele>93</ele>
        <time>2023-01-29T05:31:28.675Z</time>
      </trkpt>
      <trkpt lat="48.92635" lon="1.77587">
        <ele>93</ele>
        <time>2023-01-29T05:31:32.377Z</time>
      </trkpt>
      <trkpt lat="48.92639" lon="1.77578">
        <ele>93</ele>
        <time>2023-01-29T05:31:36.836Z</time>
      </trkpt>
      <trkpt lat="48.92643" lon="1.77569">
        <ele>95</ele>
        <time>2023-01-29T05:31:41.447Z</time>
      </trkpt>
      <trkpt lat="48.92645" lon="1.7756">
        <ele>95</ele>
        <time>2023-01-29T05:31:45.385Z</time>
      </trkpt>
      <trkpt lat="48.92648" lon="1.77552">
        <ele>95</ele>
        <time>2023-01-29T05:31:50.038Z</time>
      </trkpt>
      <trkpt lat="48.92652" lon="1.77542">
        <ele>95</ele>
        <time>2023-01-29T05:31:54.691Z</time>
      </trkpt>
      <trkpt lat="48.92656" lon="1.77535">
        <ele>94</ele>
        <time>2023-01-29T05:31:58.747Z</time>
      </trkpt>
      <trkpt lat="48.9266" lon="1.77527">
        <ele>94</ele>
        <time>2023-01-29T05:32:03.278Z</time>
      </trkpt>
      <trkpt lat="48.92664" lon="1.77518">
        <ele>94</ele>
        <time>2023-01-29T05:32:07.810Z</time>
      </trkpt>
      <trkpt lat="48.92667" lon="1.77509">
        <ele>97</ele>
        <time>2023-01-29T05:32:12.310Z</time>
      </trkpt>
      <trkpt lat="48.9267" lon="1.775">
        <ele>97</ele>
        <time>2023-01-29T05:32:16.754Z</time>
      </trkpt>
      <trkpt lat="48.92673" lon="1.77493">
        <ele>97</ele>
        <time>2023-01-29T05:32:20.571Z</time>
      </trkpt>
      <trkpt lat="48.92678" lon="1.77485">
        <ele>99</ele>
        <time>2023-01-29T05:32:25.206Z</time>
      </trkpt>
      <trkpt lat="48.9268" lon="1.77476">
        <ele>99</ele>
        <time>2023-01-29T05:32:29.264Z</time>
      </trkpt>
      <trkpt lat="48.92683" lon="1.77469">
        <ele>98</ele>
        <time>2023-01-29T05:32:33.644Z</time>
      </trkpt>
      <trkpt lat="48.92687" lon="1.77461">
        <ele>98</ele>
        <time>2023-01-29T05:32:37.836Z</time>
      </trkpt>
      <trkpt lat="48.92691" lon="1.77452">
        <ele>102</ele>
        <time>2023-01-29T05:32:42.373Z</time>
      </trkpt>
      <trkpt lat="48.92696" lon="1.77444">
        <ele>102</ele>
        <time>2023-01-29T05:32:47.027Z</time>
      </trkpt>
      <trkpt lat="48.92702" lon="1.77435">
        <ele>102</ele>
        <time>2023-01-29T05:32:51.682Z</time>
      </trkpt>
      <trkpt lat="48.92709" lon="1.77428">
        <ele>106</ele>
        <time>2023-01-29T05:32:56.336Z</time>
      </trkpt>
      <trkpt lat="48.92714" lon="1.77423">
        <ele>106</ele>
        <time>2023-01-29T05:33:00.836Z</time>
      </trkpt>
      <trkpt lat="48.92719" lon="1.77419">
        <ele>106</ele>
        <time>2023-01-29T05:33:04.691Z</time>
      </trkpt>
      <trkpt lat="48.92725" lon="1.77415">
        <ele>106</ele>
        <time>2023-01-29T05:33:09.179Z</time>
      </trkpt>
      <trkpt lat="48.92731" lon="1.77409">
        <ele>106</ele>
        <time>2023-01-29T05:33:13.650Z</time>
      </trkpt>
      <trkpt lat="48.92735" lon="1.77403">
        <ele>106</ele>
        <time>2023-01-29T05:33:18.180Z</time>
      </trkpt>
      <trkpt lat="48.92741" lon="1.77398">
        <ele>109</ele>
        <time>2023-01-29T05:33:22.836Z</time>
      </trkpt>
      <trkpt lat="48.92746" lon="1.77393">
        <ele>109</ele>
        <time>2023-01-29T05:33:27.253Z</time>
      </trkpt>
      <trkpt lat="48.92753" lon="1.77388">
        <ele>109</ele>
        <time>2023-01-29T05:33:31.836Z</time>
      </trkpt>
      <trkpt lat="48.92759" lon="1.77383">
        <ele>109</ele>
        <time>2023-01-29T05:33:36.443Z</time>
      </trkpt>
      <trkpt lat="48.92765" lon="1.77379">
        <ele>108</ele>
        <time>2023-01-29T05:33:40.383Z</time>
      </trkpt>
      <trkpt lat="48.9277" lon="1.77372">
        <ele>110</ele>
        <time>2023-01-29T05:33:44.836Z</time>
      </trkpt>
      <trkpt lat="48.92775" lon="1.77365">
        <ele>110</ele>
        <time>2023-01-29T05:33:49.729Z</time>
      </trkpt>
      <trkpt lat="48.9278" lon="1.77359">
        <ele>110</ele>
        <time>2023-01-29T05:33:53.616Z</time>
      </trkpt>
      <trkpt lat="48.92785" lon="1.77353">
        <ele>110</ele>
        <time>2023-01-29T05:33:57.674Z</time>
      </trkpt>
      <trkpt lat="48.92789" lon="1.77346">
        <ele>111</ele>
        <time>2023-01-29T05:34:01.614Z</time>
      </trkpt>
      <trkpt lat="48.92793" lon="1.77338">
        <ele>110</ele>
        <time>2023-01-29T05:34:06.030Z</time>
      </trkpt>
      <trkpt lat="48.92796" lon="1.77328">
        <ele>110</ele>
        <time>2023-01-29T05:34:10.088Z</time>
      </trkpt>
      <trkpt lat="48.928" lon="1.77317">
        <ele>110</ele>
        <time>2023-01-29T05:34:14.622Z</time>
      </trkpt>
      <trkpt lat="48.92804" lon="1.77309">
        <ele>110</ele>
        <time>2023-01-29T05:34:19.124Z</time>
      </trkpt>
      <trkpt lat="48.92806" lon="1.77297">
        <ele>110</ele>
        <time>2023-01-29T05:34:23.574Z</time>
      </trkpt>
      <trkpt lat="48.92807" lon="1.77287">
        <ele>111</ele>
        <time>2023-01-29T05:34:28.111Z</time>
      </trkpt>
      <trkpt lat="48.92807" lon="1.77275">
        <ele>111</ele>
        <time>2023-01-29T05:34:32.646Z</time>
      </trkpt>
      <trkpt lat="48.92808" lon="1.77263">
        <ele>112</ele>
        <time>2023-01-29T05:34:37.419Z</time>
      </trkpt>
      <trkpt lat="48.92808" lon="1.77254">
        <ele>112</ele>
        <time>2023-01-29T05:34:41.954Z</time>
      </trkpt>
      <trkpt lat="48.92809" lon="1.77245">
        <ele>112</ele>
        <time>2023-01-29T05:34:45.836Z</time>
      </trkpt>
      <trkpt lat="48.9281" lon="1.77235">
        <ele>111</ele>
        <time>2023-01-29T05:34:50.428Z</time>
      </trkpt>
      <trkpt lat="48.92811" lon="1.77225">
        <ele>111</ele>
        <time>2023-01-29T05:34:54.365Z</time>
      </trkpt>
      <trkpt lat="48.92812" lon="1.77215">
        <ele>111</ele>
        <time>2023-01-29T05:34:58.544Z</time>
      </trkpt>
      <trkpt lat="48.92812" lon="1.77204">
        <ele>111</ele>
        <time>2023-01-29T05:35:02.483Z</time>
      </trkpt>
      <trkpt lat="48.92812" lon="1.77194">
        <ele>111</ele>
        <time>2023-01-29T05:35:07.258Z</time>
      </trkpt>
      <trkpt lat="48.92813" lon="1.77183">
        <ele>111</ele>
        <time>2023-01-29T05:35:11.913Z</time>
      </trkpt>
      <trkpt lat="48.92813" lon="1.7717">
        <ele>112</ele>
        <time>2023-01-29T05:35:16.568Z</time>
      </trkpt>
      <trkpt lat="48.92814" lon="1.77161">
        <ele>112</ele>
        <time>2023-01-29T05:35:20.983Z</time>
      </trkpt>
      <trkpt lat="48.92815" lon="1.77151">
        <ele>113</ele>
        <time>2023-01-29T05:35:24.836Z</time>
      </trkpt>
      <trkpt lat="48.92816" lon="1.77141">
        <ele>113</ele>
        <time>2023-01-29T05:35:29.289Z</time>
      </trkpt>
      <trkpt lat="48.92817" lon="1.77131">
        <ele>113</ele>
        <time>2023-01-29T05:35:33.290Z</time>
      </trkpt>
      <trkpt lat="48.92818" lon="1.7712">
        <ele>114</ele>
        <time>2023-01-29T05:35:37.329Z</time>
      </trkpt>
      <trkpt lat="48.9282" lon="1.7711">
        <ele>110</ele>
        <time>2023-01-29T05:35:41.836Z</time>
      </trkpt>
      <trkpt lat="48.92821" lon="1.77098">
        <ele>110</ele>
        <time>2023-01-29T05:35:46.280Z</time>
      </trkpt>
      <trkpt lat="48.92822" lon="1.77089">
        <ele>112</ele>
        <time>2023-01-29T05:35:50.745Z</time>
      </trkpt>
      <trkpt lat="48.92822" lon="1.77081">
        <ele>112</ele>
        <time>2023-01-29T05:35:54.642Z</time>
      </trkpt>
      <trkpt lat="48.92823" lon="1.77071">
        <ele>112</ele>
        <time>2023-01-29T05:35:58.344Z</time>
      </trkpt>
      <trkpt lat="48.92825" lon="1.77059">
        <ele>113</ele>
        <time>2023-01-29T05:36:03.359Z</time>
      </trkpt>
      <trkpt lat="48.92826" lon="1.77049">
        <ele>113</ele>
        <time>2023-01-29T05:36:08.014Z</time>
      </trkpt>
      <trkpt lat="48.92826" lon="1.77038">
        <ele>115</ele>
        <time>2023-01-29T05:36:12.531Z</time>
      </trkpt>
      <trkpt lat="48.92827" lon="1.77028">
        <ele>115</ele>
        <time>2023-01-29T05:36:16.591Z</time>
      </trkpt>
      <trkpt lat="48.92827" lon="1.77019">
        <ele>115</ele>
        <time>2023-01-29T05:36:21.007Z</time>
      </trkpt>
      <trkpt lat="48.92829" lon="1.77008">
        <ele>119</ele>
        <time>2023-01-29T05:36:25.663Z</time>
      </trkpt>
      <trkpt lat="48.92829" lon="1.76998">
        <ele>119</ele>
        <time>2023-01-29T05:36:30.087Z</time>
      </trkpt>
      <trkpt lat="48.92829" lon="1.76989">
        <ele>119</ele>
        <time>2023-01-29T05:36:34.376Z</time>
      </trkpt>
      <trkpt lat="48.92829" lon="1.76978">
        <ele>121</ele>
        <time>2023-01-29T05:36:38.791Z</time>
      </trkpt>
      <trkpt lat="48.92829" lon="1.76968">
        <ele>121</ele>
        <time>2023-01-29T05:36:43.208Z</time>
      </trkpt>
      <trkpt lat="48.92829" lon="1.76959">
        <ele>121</ele>
        <time>2023-01-29T05:36:47.709Z</time>
      </trkpt>
      <trkpt lat="48.92831" lon="1.7695">
        <ele>123</ele>
        <time>2023-01-29T05:36:52.262Z</time>
      </trkpt>
      <trkpt lat="48.92833" lon="1.76941">
        <ele>123</ele>
        <time>2023-01-29T05:36:56.219Z</time>
      </trkpt>
      <trkpt lat="48.92833" lon="1.7693">
        <ele>124</ele>
        <time>2023-01-29T05:37:00.635Z</time>
      </trkpt>
      <trkpt lat="48.92834" lon="1.7692">
        <ele>124</ele>
        <time>2023-01-29T05:37:04.691Z</time>
      </trkpt>
      <trkpt lat="48.92834" lon="1.76909">
        <ele>124</ele>
        <time>2023-01-29T05:37:09.346Z</time>
      </trkpt>
      <trkpt lat="48.92834" lon="1.76899">
        <ele>125</ele>
        <time>2023-01-29T05:37:13.643Z</time>
      </trkpt>
      <trkpt lat="48.92835" lon="1.76887">
        <ele>125</ele>
        <time>2023-01-29T05:37:18.297Z</time>
      </trkpt>
      <trkpt lat="48.92836" lon="1.76877">
        <ele>125</ele>
        <time>2023-01-29T05:37:22.685Z</time>
      </trkpt>
      <trkpt lat="48.92836" lon="1.76868">
        <ele>125</ele>
        <time>2023-01-29T05:37:27.179Z</time>
      </trkpt>
      <trkpt lat="48.92838" lon="1.76857">
        <ele>125</ele>
        <time>2023-01-29T05:37:31.662Z</time>
      </trkpt>
      <trkpt lat="48.92839" lon="1.76847">
        <ele>125</ele>
        <time>2023-01-29T05:37:35.601Z</time>
      </trkpt>
      <trkpt lat="48.92839" lon="1.76836">
        <ele>125</ele>
        <time>2023-01-29T05:37:40.256Z</time>
      </trkpt>
      <trkpt lat="48.9284" lon="1.76825">
        <ele>125</ele>
        <time>2023-01-29T05:37:44.671Z</time>
      </trkpt>
      <trkpt lat="48.92839" lon="1.76815">
        <ele>124</ele>
        <time>2023-01-29T05:37:49.289Z</time>
      </trkpt>
      <trkpt lat="48.92839" lon="1.76804">
        <ele>124</ele>
        <time>2023-01-29T05:37:53.836Z</time>
      </trkpt>
      <trkpt lat="48.9284" lon="1.76795">
        <ele>124</ele>
        <time>2023-01-29T05:37:58.396Z</time>
      </trkpt>
      <trkpt lat="48.9284" lon="1.76785">
        <ele>124</ele>
        <time>2023-01-29T05:38:02.847Z</time>
      </trkpt>
      <trkpt lat="48.92841" lon="1.76774">
        <ele>124</ele>
        <time>2023-01-29T05:38:06.836Z</time>
      </trkpt>
      <trkpt lat="48.92843" lon="1.76763">
        <ele>125</ele>
        <time>2023-01-29T05:38:11.606Z</time>
      </trkpt>
      <trkpt lat="48.92845" lon="1.76756">
        <ele>125</ele>
        <time>2023-01-29T05:38:16.205Z</time>
      </trkpt>
      <trkpt lat="48.92846" lon="1.76745">
        <ele>125</ele>
        <time>2023-01-29T05:38:20.677Z</time>
      </trkpt>
      <trkpt lat="48.92848" lon="1.76735">
        <ele>119</ele>
        <time>2023-01-29T05:38:25.212Z</time>
      </trkpt>
      <trkpt lat="48.9285" lon="1.76724">
        <ele>119</ele>
        <time>2023-01-29T05:38:29.630Z</time>
      </trkpt>
      <trkpt lat="48.92852" lon="1.76713">
        <ele>119</ele>
        <time>2023-01-29T05:38:34.122Z</time>
      </trkpt>
      <trkpt lat="48.92854" lon="1.76702">
        <ele>120</ele>
        <time>2023-01-29T05:38:38.224Z</time>
      </trkpt>
      <trkpt lat="48.92857" lon="1.76691">
        <ele>120</ele>
        <time>2023-01-29T05:38:42.836Z</time>
      </trkpt>
      <trkpt lat="48.92858" lon="1.76681">
        <ele>120</ele>
        <time>2023-01-29T05:38:47.265Z</time>
      </trkpt>
      <trkpt lat="48.92859" lon="1.76671">
        <ele>120</ele>
        <time>2023-01-29T05:38:51.708Z</time>
      </trkpt>
      <trkpt lat="48.92861" lon="1.76662">
        <ele>120</ele>
        <time>2023-01-29T05:38:56.244Z</time>
      </trkpt>
      <trkpt lat="48.92864" lon="1.76652">
        <ele>121</ele>
        <time>2023-01-29T05:39:00.836Z</time>
      </trkpt>
      <trkpt lat="48.92865" lon="1.76641">
        <ele>121</ele>
        <time>2023-01-29T05:39:05.311Z</time>
      </trkpt>
      <trkpt lat="48.92867" lon="1.76631">
        <ele>121</ele>
        <time>2023-01-29T05:39:09.726Z</time>
      </trkpt>
      <trkpt lat="48.92868" lon="1.76621">
        <ele>121</ele>
        <time>2023-01-29T05:39:14.207Z</time>
      </trkpt>
      <trkpt lat="48.9287" lon="1.7661">
        <ele>121</ele>
        <time>2023-01-29T05:39:18.201Z</time>
      </trkpt>
      <trkpt lat="48.92873" lon="1.76598">
        <ele>121</ele>
        <time>2023-01-29T05:39:22.836Z</time>
      </trkpt>
      <trkpt lat="48.92875" lon="1.7659">
        <ele>120</ele>
        <time>2023-01-29T05:39:26.836Z</time>
      </trkpt>
      <trkpt lat="48.92877" lon="1.7658">
        <ele>121</ele>
        <time>2023-01-29T05:39:31.451Z</time>
      </trkpt>
      <trkpt lat="48.9288" lon="1.76568">
        <ele>121</ele>
        <time>2023-01-29T05:39:35.986Z</time>
      </trkpt>
      <trkpt lat="48.92882" lon="1.76559">
        <ele>121</ele>
        <time>2023-01-29T05:39:40.070Z</time>
      </trkpt>
      <trkpt lat="48.92883" lon="1.76548">
        <ele>121</ele>
        <time>2023-01-29T05:39:44.700Z</time>
      </trkpt>
      <trkpt lat="48.92885" lon="1.76538">
        <ele>121</ele>
        <time>2023-01-29T05:39:49.235Z</time>
      </trkpt>
      <trkpt lat="48.92887" lon="1.76527">
        <ele>121</ele>
        <time>2023-01-29T05:39:53.836Z</time>
      </trkpt>
      <trkpt lat="48.9289" lon="1.76518">
        <ele>121</ele>
        <time>2023-01-29T05:39:58.426Z</time>
      </trkpt>
      <trkpt lat="48.92891" lon="1.76507">
        <ele>122</ele>
        <time>2023-01-29T05:40:02.965Z</time>
      </trkpt>
      <trkpt lat="48.92893" lon="1.76497">
        <ele>122</ele>
        <time>2023-01-29T05:40:06.988Z</time>
      </trkpt>
      <trkpt lat="48.92894" lon="1.76488">
        <ele>122</ele>
        <time>2023-01-29T05:40:10.961Z</time>
      </trkpt>
      <trkpt lat="48.92896" lon="1.7648">
        <ele>123</ele>
        <time>2023-01-29T05:40:14.662Z</time>
      </trkpt>
      <trkpt lat="48.92898" lon="1.7647">
        <ele>123</ele>
        <time>2023-01-29T05:40:19.437Z</time>
      </trkpt>
      <trkpt lat="48.929" lon="1.7646">
        <ele>123</ele>
        <time>2023-01-29T05:40:23.836Z</time>
      </trkpt>
      <trkpt lat="48.92902" lon="1.76448">
        <ele>124</ele>
        <time>2023-01-29T05:40:28.506Z</time>
      </trkpt>
      <trkpt lat="48.92902" lon="1.76439">
        <ele>124</ele>
        <time>2023-01-29T05:40:32.675Z</time>
      </trkpt>
      <trkpt lat="48.92904" lon="1.76427">
        <ele>126</ele>
        <time>2023-01-29T05:40:37.332Z</time>
      </trkpt>
      <trkpt lat="48.92906" lon="1.76416">
        <ele>126</ele>
        <time>2023-01-29T05:40:42.002Z</time>
      </trkpt>
      <trkpt lat="48.92906" lon="1.76407">
        <ele>126</ele>
        <time>2023-01-29T05:40:46.092Z</time>
      </trkpt>
      <trkpt lat="48.92907" lon="1.76398">
        <ele>127</ele>
        <time>2023-01-29T05:40:50.204Z</time>
      </trkpt>
      <trkpt lat="48.92908" lon="1.76389">
        <ele>127</ele>
        <time>2023-01-29T05:40:54.199Z</time>
      </trkpt>
      <trkpt lat="48.92909" lon="1.76379">
        <ele>127</ele>
        <time>2023-01-29T05:40:58.683Z</time>
      </trkpt>
      <trkpt lat="48.92911" lon="1.7637">
        <ele>128</ele>
        <time>2023-01-29T05:41:02.675Z</time>
      </trkpt>
      <trkpt lat="48.92912" lon="1.76359">
        <ele>128</ele>
        <time>2023-01-29T05:41:07.369Z</time>
      </trkpt>
      <trkpt lat="48.92913" lon="1.7635">
        <ele>128</ele>
        <time>2023-01-29T05:41:11.398Z</time>
      </trkpt>
      <trkpt lat="48.92913" lon="1.7634">
        <ele>129</ele>
        <time>2023-01-29T05:41:15.343Z</time>
      </trkpt>
      <trkpt lat="48.92914" lon="1.7633">
        <ele>129</ele>
        <time>2023-01-29T05:41:19.836Z</time>
      </trkpt>
      <trkpt lat="48.92914" lon="1.76321">
        <ele>129</ele>
        <time>2023-01-29T05:41:23.708Z</time>
      </trkpt>
      <trkpt lat="48.92915" lon="1.7631">
        <ele>129</ele>
        <time>2023-01-29T05:41:28.249Z</time>
      </trkpt>
      <trkpt lat="48.92916" lon="1.76299">
        <ele>129</ele>
        <time>2023-01-29T05:41:32.670Z</time>
      </trkpt>
      <trkpt lat="48.92917" lon="1.7629">
        <ele>131</ele>
        <time>2023-01-29T05:41:37.211Z</time>
      </trkpt>
      <trkpt lat="48.92917" lon="1.7628">
        <ele>131</ele>
        <time>2023-01-29T05:41:41.751Z</time>
      </trkpt>
      <trkpt lat="48.92918" lon="1.7627">
        <ele>131</ele>
        <time>2023-01-29T05:41:46.270Z</time>
      </trkpt>
      <trkpt lat="48.92919" lon="1.76261">
        <ele>132</ele>
        <time>2023-01-29T05:41:50.240Z</time>
      </trkpt>
      <trkpt lat="48.92919" lon="1.76251">
        <ele>132</ele>
        <time>2023-01-29T05:41:54.662Z</time>
      </trkpt>
      <trkpt lat="48.92919" lon="1.76242">
        <ele>132</ele>
        <time>2023-01-29T05:41:58.836Z</time>
      </trkpt>
      <trkpt lat="48.9292" lon="1.76234">
        <ele>133</ele>
        <time>2023-01-29T05:42:02.669Z</time>
      </trkpt>
      <trkpt lat="48.9292" lon="1.76225">
        <ele>133</ele>
        <time>2023-01-29T05:42:06.612Z</time>
      </trkpt>
      <trkpt lat="48.92919" lon="1.76216">
        <ele>133</ele>
        <time>2023-01-29T05:42:11.098Z</time>
      </trkpt>
      <trkpt lat="48.92916" lon="1.76215">
        <ele>133</ele>
        <time>2023-01-29T05:42:14.975Z</time>
      </trkpt>
      <trkpt lat="48.9292" lon="1.76198">
        <ele>133</ele>
        <time>2023-01-29T05:42:19.379Z</time>
      </trkpt>
      <trkpt lat="48.92919" lon="1.76188">
        <ele>133</ele>
        <time>2023-01-29T05:42:23.836Z</time>
      </trkpt>
      <trkpt lat="48.92919" lon="1.76177">
        <ele>132</ele>
        <time>2023-01-29T05:42:28.343Z</time>
      </trkpt>
      <trkpt lat="48.9292" lon="1.76167">
        <ele>132</ele>
        <time>2023-01-29T05:42:32.836Z</time>
      </trkpt>
      <trkpt lat="48.9292" lon="1.76156">
        <ele>132</ele>
        <time>2023-01-29T05:42:37.320Z</time>
      </trkpt>
      <trkpt lat="48.92919" lon="1.76144">
        <ele>133</ele>
        <time>2023-01-29T05:42:41.829Z</time>
      </trkpt>
      <trkpt lat="48.92919" lon="1.76133">
        <ele>133</ele>
        <time>2023-01-29T05:42:46.351Z</time>
      </trkpt>
      <trkpt lat="48.92918" lon="1.76123">
        <ele>134</ele>
        <time>2023-01-29T05:42:50.849Z</time>
      </trkpt>
      <trkpt lat="48.92918" lon="1.76113">
        <ele>134</ele>
        <time>2023-01-29T05:42:54.836Z</time>
      </trkpt>
      <trkpt lat="48.92918" lon="1.76101">
        <ele>134</ele>
        <time>2023-01-29T05:42:59.379Z</time>
      </trkpt>
      <trkpt lat="48.92918" lon="1.76091">
        <ele>135</ele>
        <time>2023-01-29T05:43:03.944Z</time>
      </trkpt>
      <trkpt lat="48.92916" lon="1.76081">
        <ele>135</ele>
        <time>2023-01-29T05:43:08.104Z</time>
      </trkpt>
      <trkpt lat="48.92915" lon="1.76071">
        <ele>135</ele>
        <time>2023-01-29T05:43:12.286Z</time>
      </trkpt>
      <trkpt lat="48.92914" lon="1.76059">
        <ele>135</ele>
        <time>2023-01-29T05:43:16.827Z</time>
      </trkpt>
      <trkpt lat="48.92914" lon="1.76051">
        <ele>135</ele>
        <time>2023-01-29T05:43:20.836Z</time>
      </trkpt>
      <trkpt lat="48.92913" lon="1.76041">
        <ele>135</ele>
        <time>2023-01-29T05:43:25.315Z</time>
      </trkpt>
      <trkpt lat="48.92912" lon="1.7603">
        <ele>135</ele>
        <time>2023-01-29T05:43:29.737Z</time>
      </trkpt>
      <trkpt lat="48.92911" lon="1.76019">
        <ele>135</ele>
        <time>2023-01-29T05:43:34.279Z</time>
      </trkpt>
      <trkpt lat="48.9291" lon="1.76009">
        <ele>135</ele>
        <time>2023-01-29T05:43:38.819Z</time>
      </trkpt>
      <trkpt lat="48.92909" lon="1.75996">
        <ele>135</ele>
        <time>2023-01-29T05:43:43.479Z</time>
      </trkpt>
      <trkpt lat="48.92907" lon="1.75986">
        <ele>136</ele>
        <time>2023-01-29T05:43:48.258Z</time>
      </trkpt>
      <trkpt lat="48.92906" lon="1.75975">
        <ele>136</ele>
        <time>2023-01-29T05:43:52.678Z</time>
      </trkpt>
      <trkpt lat="48.92904" lon="1.75965">
        <ele>136</ele>
        <time>2023-01-29T05:43:57.220Z</time>
      </trkpt>
      <trkpt lat="48.92902" lon="1.75953">
        <ele>135</ele>
        <time>2023-01-29T05:44:02Z</time>
      </trkpt>
      <trkpt lat="48.929" lon="1.75943">
        <ele>135</ele>
        <time>2023-01-29T05:44:06.543Z</time>
      </trkpt>
      <trkpt lat="48.92898" lon="1.75934">
        <ele>135</ele>
        <time>2023-01-29T05:44:10.485Z</time>
      </trkpt>
      <trkpt lat="48.92895" lon="1.75925">
        <ele>136</ele>
        <time>2023-01-29T05:44:15.122Z</time>
      </trkpt>
      <trkpt lat="48.92894" lon="1.75913">
        <ele>136</ele>
        <time>2023-01-29T05:44:19.689Z</time>
      </trkpt>
      <trkpt lat="48.92894" lon="1.75902">
        <ele>138</ele>
        <time>2023-01-29T05:44:24.111Z</time>
      </trkpt>
      <trkpt lat="48.92891" lon="1.7589">
        <ele>138</ele>
        <time>2023-01-29T05:44:28.533Z</time>
      </trkpt>
      <trkpt lat="48.9289" lon="1.75881">
        <ele>138</ele>
        <time>2023-01-29T05:44:32.955Z</time>
      </trkpt>
      <trkpt lat="48.92889" lon="1.75871">
        <ele>138</ele>
        <time>2023-01-29T05:44:37.020Z</time>
      </trkpt>
      <trkpt lat="48.92888" lon="1.75862">
        <ele>138</ele>
        <time>2023-01-29T05:44:40.947Z</time>
      </trkpt>
      <trkpt lat="48.92885" lon="1.75852">
        <ele>138</ele>
        <time>2023-01-29T05:44:45.490Z</time>
      </trkpt>
      <trkpt lat="48.92883" lon="1.75843">
        <ele>138</ele>
        <time>2023-01-29T05:44:50.127Z</time>
      </trkpt>
      <trkpt lat="48.92882" lon="1.75833">
        <ele>138</ele>
        <time>2023-01-29T05:44:54.212Z</time>
      </trkpt>
      <trkpt lat="48.92881" lon="1.75822">
        <ele>138</ele>
        <time>2023-01-29T05:44:58.635Z</time>
      </trkpt>
      <trkpt lat="48.92878" lon="1.75812">
        <ele>138</ele>
        <time>2023-01-29T05:45:03.297Z</time>
      </trkpt>
      <trkpt lat="48.92876" lon="1.75802">
        <ele>138</ele>
        <time>2023-01-29T05:45:07.821Z</time>
      </trkpt>
      <trkpt lat="48.92874" lon="1.75792">
        <ele>137</ele>
        <time>2023-01-29T05:45:11.780Z</time>
      </trkpt>
      <trkpt lat="48.92873" lon="1.75782">
        <ele>137</ele>
        <time>2023-01-29T05:45:16.349Z</time>
      </trkpt>
      <trkpt lat="48.92874" lon="1.75773">
        <ele>137</ele>
        <time>2023-01-29T05:45:20.364Z</time>
      </trkpt>
      <trkpt lat="48.9288" lon="1.75767">
        <ele>138</ele>
        <time>2023-01-29T05:45:24.825Z</time>
      </trkpt>
      <trkpt lat="48.92886" lon="1.75767">
        <ele>138</ele>
        <time>2023-01-29T05:45:28.836Z</time>
      </trkpt>
      <trkpt lat="48.92894" lon="1.75763">
        <ele>138</ele>
        <time>2023-01-29T05:45:33.970Z</time>
      </trkpt>
      <trkpt lat="48.92899" lon="1.7576">
        <ele>138</ele>
        <time>2023-01-29T05:45:37.836Z</time>
      </trkpt>
      <trkpt lat="48.92905" lon="1.75761">
        <ele>139</ele>
        <time>2023-01-29T05:45:41.836Z</time>
      </trkpt>
      <trkpt lat="48.92912" lon="1.75763">
        <ele>139</ele>
        <time>2023-01-29T05:45:46.396Z</time>
      </trkpt>
      <trkpt lat="48.92918" lon="1.7576">
        <ele>139</ele>
        <time>2023-01-29T05:45:50.723Z</time>
      </trkpt>
      <trkpt lat="48.92924" lon="1.75752">
        <ele>139</ele>
        <time>2023-01-29T05:45:55.146Z</time>
      </trkpt>
      <trkpt lat="48.92928" lon="1.75741">
        <ele>139</ele>
        <time>2023-01-29T05:45:59.663Z</time>
      </trkpt>
      <trkpt lat="48.92932" lon="1.75732">
        <ele>138</ele>
        <time>2023-01-29T05:46:04.206Z</time>
      </trkpt>
      <trkpt lat="48.92936" lon="1.75723">
        <ele>138</ele>
        <time>2023-01-29T05:46:08.906Z</time>
      </trkpt>
      <trkpt lat="48.9294" lon="1.75715">
        <ele>138</ele>
        <time>2023-01-29T05:46:12.836Z</time>
      </trkpt>
      <trkpt lat="48.92943" lon="1.75705">
        <ele>137</ele>
        <time>2023-01-29T05:46:17.357Z</time>
      </trkpt>
      <trkpt lat="48.92948" lon="1.75696">
        <ele>137</ele>
        <time>2023-01-29T05:46:21.836Z</time>
      </trkpt>
      <trkpt lat="48.92953" lon="1.75687">
        <ele>137</ele>
        <time>2023-01-29T05:46:26.326Z</time>
      </trkpt>
      <trkpt lat="48.92957" lon="1.75678">
        <ele>137</ele>
        <time>2023-01-29T05:46:30.836Z</time>
      </trkpt>
      <trkpt lat="48.92961" lon="1.75671">
        <ele>138</ele>
        <time>2023-01-29T05:46:34.702Z</time>
      </trkpt>
      <trkpt lat="48.92966" lon="1.75664">
        <ele>138</ele>
        <time>2023-01-29T05:46:39.248Z</time>
      </trkpt>
      <trkpt lat="48.92972" lon="1.75659">
        <ele>138</ele>
        <time>2023-01-29T05:46:43.673Z</time>
      </trkpt>
      <trkpt lat="48.92979" lon="1.75657">
        <ele>138</ele>
        <time>2023-01-29T05:46:48.131Z</time>
      </trkpt>
      <trkpt lat="48.92987" lon="1.75655">
        <ele>139</ele>
        <time>2023-01-29T05:46:52.640Z</time>
      </trkpt>
      <trkpt lat="48.92994" lon="1.75653">
        <ele>139</ele>
        <time>2023-01-29T05:46:57.661Z</time>
      </trkpt>
      <trkpt lat="48.93001" lon="1.7565">
        <ele>140</ele>
        <time>2023-01-29T05:47:02.323Z</time>
      </trkpt>
      <trkpt lat="48.93006" lon="1.75644">
        <ele>140</ele>
        <time>2023-01-29T05:47:06.747Z</time>
      </trkpt>
      <trkpt lat="48.93011" lon="1.75637">
        <ele>140</ele>
        <time>2023-01-29T05:47:10.812Z</time>
      </trkpt>
      <trkpt lat="48.93015" lon="1.75627">
        <ele>139</ele>
        <time>2023-01-29T05:47:15.354Z</time>
      </trkpt>
      <trkpt lat="48.93019" lon="1.75618">
        <ele>140</ele>
        <time>2023-01-29T05:47:19.836Z</time>
      </trkpt>
      <trkpt lat="48.93021" lon="1.75608">
        <ele>140</ele>
        <time>2023-01-29T05:47:24.441Z</time>
      </trkpt>
      <trkpt lat="48.93024" lon="1.75598">
        <ele>140</ele>
        <time>2023-01-29T05:47:28.506Z</time>
      </trkpt>
      <trkpt lat="48.93027" lon="1.75589">
        <ele>141</ele>
        <time>2023-01-29T05:47:33.106Z</time>
      </trkpt>
      <trkpt lat="48.9303" lon="1.75581">
        <ele>141</ele>
        <time>2023-01-29T05:47:37.113Z</time>
      </trkpt>
      <trkpt lat="48.93033" lon="1.75569">
        <ele>141</ele>
        <time>2023-01-29T05:47:41.657Z</time>
      </trkpt>
      <trkpt lat="48.93035" lon="1.75559">
        <ele>141</ele>
        <time>2023-01-29T05:47:45.722Z</time>
      </trkpt>
      <trkpt lat="48.93036" lon="1.75549">
        <ele>141</ele>
        <time>2023-01-29T05:47:50.266Z</time>
      </trkpt>
      <trkpt lat="48.93039" lon="1.7554">
        <ele>142</ele>
        <time>2023-01-29T05:47:54.332Z</time>
      </trkpt>
      <trkpt lat="48.93042" lon="1.7553">
        <ele>141</ele>
        <time>2023-01-29T05:47:58.779Z</time>
      </trkpt>
      <trkpt lat="48.93044" lon="1.75519">
        <ele>141</ele>
        <time>2023-01-29T05:48:02.703Z</time>
      </trkpt>
      <trkpt lat="48.93046" lon="1.7551">
        <ele>140</ele>
        <time>2023-01-29T05:48:07.248Z</time>
      </trkpt>
      <trkpt lat="48.9305" lon="1.755">
        <ele>140</ele>
        <time>2023-01-29T05:48:11.652Z</time>
      </trkpt>
      <trkpt lat="48.93054" lon="1.75492">
        <ele>140</ele>
        <time>2023-01-29T05:48:15.617Z</time>
      </trkpt>
      <trkpt lat="48.93058" lon="1.75483">
        <ele>140</ele>
        <time>2023-01-29T05:48:20.222Z</time>
      </trkpt>
      <trkpt lat="48.93062" lon="1.75475">
        <ele>140</ele>
        <time>2023-01-29T05:48:24.224Z</time>
      </trkpt>
      <trkpt lat="48.93066" lon="1.75467">
        <ele>140</ele>
        <time>2023-01-29T05:48:28.290Z</time>
      </trkpt>
      <trkpt lat="48.93072" lon="1.75462">
        <ele>138</ele>
        <time>2023-01-29T05:48:32.831Z</time>
      </trkpt>
      <trkpt lat="48.9308" lon="1.75461">
        <ele>138</ele>
        <time>2023-01-29T05:48:36.776Z</time>
      </trkpt>
      <trkpt lat="48.93087" lon="1.75461">
        <ele>138</ele>
        <time>2023-01-29T05:48:41.361Z</time>
      </trkpt>
      <trkpt lat="48.93093" lon="1.75463">
        <ele>138</ele>
        <time>2023-01-29T05:48:45.383Z</time>
      </trkpt>
      <trkpt lat="48.93099" lon="1.75464">
        <ele>139</ele>
        <time>2023-01-29T05:48:49.327Z</time>
      </trkpt>
      <trkpt lat="48.93106" lon="1.75467">
        <ele>139</ele>
        <time>2023-01-29T05:48:53.836Z</time>
      </trkpt>
      <trkpt lat="48.93113" lon="1.75471">
        <ele>139</ele>
        <time>2023-01-29T05:48:58.414Z</time>
      </trkpt>
      <trkpt lat="48.9312" lon="1.75474">
        <ele>139</ele>
        <time>2023-01-29T05:49:03.102Z</time>
      </trkpt>
      <trkpt lat="48.93127" lon="1.75476">
        <ele>139</ele>
        <time>2023-01-29T05:49:07.121Z</time>
      </trkpt>
      <trkpt lat="48.93135" lon="1.75475">
        <ele>139</ele>
        <time>2023-01-29T05:49:11.687Z</time>
      </trkpt>
      <trkpt lat="48.93142" lon="1.75472">
        <ele>139</ele>
        <time>2023-01-29T05:49:16.202Z</time>
      </trkpt>
      <trkpt lat="48.9315" lon="1.7547">
        <ele>139</ele>
        <time>2023-01-29T05:49:20.654Z</time>
      </trkpt>
      <trkpt lat="48.93157" lon="1.75467">
        <ele>137</ele>
        <time>2023-01-29T05:49:25.318Z</time>
      </trkpt>
      <trkpt lat="48.93164" lon="1.75463">
        <ele>137</ele>
        <time>2023-01-29T05:49:29.740Z</time>
      </trkpt>
      <trkpt lat="48.93171" lon="1.75458">
        <ele>137</ele>
        <time>2023-01-29T05:49:34.283Z</time>
      </trkpt>
      <trkpt lat="48.93179" lon="1.75455">
        <ele>137</ele>
        <time>2023-01-29T05:49:38.708Z</time>
      </trkpt>
      <trkpt lat="48.93186" lon="1.75451">
        <ele>136</ele>
        <time>2023-01-29T05:49:43.264Z</time>
      </trkpt>
      <trkpt lat="48.93193" lon="1.75448">
        <ele>136</ele>
        <time>2023-01-29T05:49:47.436Z</time>
      </trkpt>
      <trkpt lat="48.932" lon="1.75447">
        <ele>136</ele>
        <time>2023-01-29T05:49:51.382Z</time>
      </trkpt>
      <trkpt lat="48.93207" lon="1.75446">
        <ele>136</ele>
        <time>2023-01-29T05:49:55.836Z</time>
      </trkpt>
      <trkpt lat="48.93214" lon="1.75442">
        <ele>135</ele>
        <time>2023-01-29T05:49:59.836Z</time>
      </trkpt>
      <trkpt lat="48.93221" lon="1.7544">
        <ele>135</ele>
        <time>2023-01-29T05:50:04.411Z</time>
      </trkpt>
      <trkpt lat="48.93228" lon="1.75438">
        <ele>135</ele>
        <time>2023-01-29T05:50:08.953Z</time>
      </trkpt>
      <trkpt lat="48.93235" lon="1.75435">
        <ele>135</ele>
        <time>2023-01-29T05:50:13.379Z</time>
      </trkpt>
      <trkpt lat="48.93241" lon="1.7543">
        <ele>134</ele>
        <time>2023-01-29T05:50:18.044Z</time>
      </trkpt>
      <trkpt lat="48.93247" lon="1.75427">
        <ele>134</ele>
        <time>2023-01-29T05:50:22.244Z</time>
      </trkpt>
      <trkpt lat="48.93254" lon="1.75424">
        <ele>134</ele>
        <time>2023-01-29T05:50:26.417Z</time>
      </trkpt>
      <trkpt lat="48.93261" lon="1.75422">
        <ele>134</ele>
        <time>2023-01-29T05:50:30.868Z</time>
      </trkpt>
      <trkpt lat="48.93268" lon="1.75419">
        <ele>134</ele>
        <time>2023-01-29T05:50:35.027Z</time>
      </trkpt>
      <trkpt lat="48.93275" lon="1.75414">
        <ele>134</ele>
        <time>2023-01-29T05:50:39.451Z</time>
      </trkpt>
      <trkpt lat="48.93281" lon="1.75409">
        <ele>134</ele>
        <time>2023-01-29T05:50:44.185Z</time>
      </trkpt>
      <trkpt lat="48.93288" lon="1.75403">
        <ele>134</ele>
        <time>2023-01-29T05:50:48.654Z</time>
      </trkpt>
      <trkpt lat="48.93292" lon="1.75397">
        <ele>132</ele>
        <time>2023-01-29T05:50:53.227Z</time>
      </trkpt>
      <trkpt lat="48.93297" lon="1.7539">
        <ele>132</ele>
        <time>2023-01-29T05:50:57.257Z</time>
      </trkpt>
      <trkpt lat="48.93302" lon="1.75383">
        <ele>132</ele>
        <time>2023-01-29T05:51:01.322Z</time>
      </trkpt>
      <trkpt lat="48.93307" lon="1.75377">
        <ele>132</ele>
        <time>2023-01-29T05:51:05.836Z</time>
      </trkpt>
      <trkpt lat="48.93313" lon="1.75373">
        <ele>133</ele>
        <time>2023-01-29T05:51:09.690Z</time>
      </trkpt>
      <trkpt lat="48.9332" lon="1.7537">
        <ele>132</ele>
        <time>2023-01-29T05:51:14.234Z</time>
      </trkpt>
      <trkpt lat="48.93326" lon="1.75364">
        <ele>132</ele>
        <time>2023-01-29T05:51:18.657Z</time>
      </trkpt>
      <trkpt lat="48.93335" lon="1.75358">
        <ele>132</ele>
        <time>2023-01-29T05:51:23.439Z</time>
      </trkpt>
      <trkpt lat="48.9334" lon="1.75353">
        <ele>132</ele>
        <time>2023-01-29T05:51:27.982Z</time>
      </trkpt>
      <trkpt lat="48.93346" lon="1.75349">
        <ele>132</ele>
        <time>2023-01-29T05:51:32.047Z</time>
      </trkpt>
      <trkpt lat="48.93353" lon="1.75344">
        <ele>132</ele>
        <time>2023-01-29T05:51:36.232Z</time>
      </trkpt>
      <trkpt lat="48.9336" lon="1.75338">
        <ele>132</ele>
        <time>2023-01-29T05:51:40.606Z</time>
      </trkpt>
      <trkpt lat="48.93366" lon="1.75334">
        <ele>132</ele>
        <time>2023-01-29T05:51:45.078Z</time>
      </trkpt>
      <trkpt lat="48.93372" lon="1.75327">
        <ele>132</ele>
        <time>2023-01-29T05:51:49.622Z</time>
      </trkpt>
      <trkpt lat="48.93378" lon="1.75322">
        <ele>132</ele>
        <time>2023-01-29T05:51:53.686Z</time>
      </trkpt>
      <trkpt lat="48.93384" lon="1.75316">
        <ele>132</ele>
        <time>2023-01-29T05:51:58.108Z</time>
      </trkpt>
      <trkpt lat="48.93389" lon="1.75312">
        <ele>132</ele>
        <time>2023-01-29T05:52:02.105Z</time>
      </trkpt>
      <trkpt lat="48.93396" lon="1.75307">
        <ele>132</ele>
        <time>2023-01-29T05:52:06.596Z</time>
      </trkpt>
      <trkpt lat="48.93403" lon="1.75301">
        <ele>132</ele>
        <time>2023-01-29T05:52:11.019Z</time>
      </trkpt>
      <trkpt lat="48.9341" lon="1.75298">
        <ele>132</ele>
        <time>2023-01-29T05:52:15.682Z</time>
      </trkpt>
      <trkpt lat="48.93416" lon="1.75293">
        <ele>132</ele>
        <time>2023-01-29T05:52:19.627Z</time>
      </trkpt>
      <trkpt lat="48.93422" lon="1.75288">
        <ele>133</ele>
        <time>2023-01-29T05:52:24.382Z</time>
      </trkpt>
      <trkpt lat="48.93428" lon="1.75284">
        <ele>133</ele>
        <time>2023-01-29T05:52:28.352Z</time>
      </trkpt>
      <trkpt lat="48.93435" lon="1.75281">
        <ele>132</ele>
        <time>2023-01-29T05:52:32.836Z</time>
      </trkpt>
      <trkpt lat="48.93441" lon="1.75278">
        <ele>132</ele>
        <time>2023-01-29T05:52:37.438Z</time>
      </trkpt>
      <trkpt lat="48.93448" lon="1.75275">
        <ele>132</ele>
        <time>2023-01-29T05:52:41.384Z</time>
      </trkpt>
      <trkpt lat="48.93455" lon="1.75272">
        <ele>132</ele>
        <time>2023-01-29T05:52:45.836Z</time>
      </trkpt>
      <trkpt lat="48.93462" lon="1.7527">
        <ele>132</ele>
        <time>2023-01-29T05:52:49.990Z</time>
      </trkpt>
      <trkpt lat="48.93469" lon="1.75269">
        <ele>132</ele>
        <time>2023-01-29T05:52:54.533Z</time>
      </trkpt>
      <trkpt lat="48.93475" lon="1.75269">
        <ele>132</ele>
        <time>2023-01-29T05:52:58.598Z</time>
      </trkpt>
      <trkpt lat="48.93483" lon="1.75269">
        <ele>132</ele>
        <time>2023-01-29T05:53:03.118Z</time>
      </trkpt>
      <trkpt lat="48.9349" lon="1.75269">
        <ele>133</ele>
        <time>2023-01-29T05:53:07.565Z</time>
      </trkpt>
      <trkpt lat="48.93496" lon="1.7527">
        <ele>133</ele>
        <time>2023-01-29T05:53:11.989Z</time>
      </trkpt>
      <trkpt lat="48.93504" lon="1.75272">
        <ele>133</ele>
        <time>2023-01-29T05:53:16.467Z</time>
      </trkpt>
      <trkpt lat="48.9351" lon="1.75274">
        <ele>133</ele>
        <time>2023-01-29T05:53:20.357Z</time>
      </trkpt>
      <trkpt lat="48.93517" lon="1.75275">
        <ele>134</ele>
        <time>2023-01-29T05:53:25.022Z</time>
      </trkpt>
      <trkpt lat="48.93524" lon="1.75277">
        <ele>134</ele>
        <time>2023-01-29T05:53:29.444Z</time>
      </trkpt>
      <trkpt lat="48.9353" lon="1.75279">
        <ele>134</ele>
        <time>2023-01-29T05:53:33.985Z</time>
      </trkpt>
      <trkpt lat="48.93537" lon="1.7528">
        <ele>134</ele>
        <time>2023-01-29T05:53:37.836Z</time>
      </trkpt>
      <trkpt lat="48.93544" lon="1.75282">
        <ele>133</ele>
        <time>2023-01-29T05:53:42.454Z</time>
      </trkpt>
      <trkpt lat="48.9355" lon="1.75283">
        <ele>133</ele>
        <time>2023-01-29T05:53:46.520Z</time>
      </trkpt>
      <trkpt lat="48.93556" lon="1.75283">
        <ele>133</ele>
        <time>2023-01-29T05:53:51.062Z</time>
      </trkpt>
      <trkpt lat="48.93563" lon="1.75284">
        <ele>133</ele>
        <time>2023-01-29T05:53:55.115Z</time>
      </trkpt>
      <trkpt lat="48.93571" lon="1.75285">
        <ele>132</ele>
        <time>2023-01-29T05:53:59.671Z</time>
      </trkpt>
      <trkpt lat="48.93579" lon="1.75289">
        <ele>132</ele>
        <time>2023-01-29T05:54:04.216Z</time>
      </trkpt>
      <trkpt lat="48.93587" lon="1.75291">
        <ele>132</ele>
        <time>2023-01-29T05:54:08.641Z</time>
      </trkpt>
      <trkpt lat="48.93594" lon="1.75293">
        <ele>132</ele>
        <time>2023-01-29T05:54:13.304Z</time>
      </trkpt>
      <trkpt lat="48.93601" lon="1.75293">
        <ele>132</ele>
        <time>2023-01-29T05:54:17.836Z</time>
      </trkpt>
      <trkpt lat="48.93608" lon="1.75291">
        <ele>134</ele>
        <time>2023-01-29T05:54:22.394Z</time>
      </trkpt>
      <trkpt lat="48.93615" lon="1.75291">
        <ele>134</ele>
        <time>2023-01-29T05:54:26.943Z</time>
      </trkpt>
      <trkpt lat="48.93621" lon="1.7529">
        <ele>134</ele>
        <time>2023-01-29T05:54:31.005Z</time>
      </trkpt>
      <trkpt lat="48.93627" lon="1.75289">
        <ele>133</ele>
        <time>2023-01-29T05:54:35.070Z</time>
      </trkpt>
      <trkpt lat="48.93634" lon="1.75287">
        <ele>133</ele>
        <time>2023-01-29T05:54:39.613Z</time>
      </trkpt>
      <trkpt lat="48.9364" lon="1.75284">
        <ele>133</ele>
        <time>2023-01-29T05:54:44.117Z</time>
      </trkpt>
      <trkpt lat="48.93647" lon="1.75281">
        <ele>133</ele>
        <time>2023-01-29T05:54:48.222Z</time>
      </trkpt>
      <trkpt lat="48.93653" lon="1.75276">
        <ele>133</ele>
        <time>2023-01-29T05:54:52.618Z</time>
      </trkpt>
      <trkpt lat="48.93658" lon="1.75272">
        <ele>131</ele>
        <time>2023-01-29T05:54:56.474Z</time>
      </trkpt>
      <trkpt lat="48.93664" lon="1.75266">
        <ele>131</ele>
        <time>2023-01-29T05:55:01.083Z</time>
      </trkpt>
      <trkpt lat="48.93671" lon="1.7526">
        <ele>135</ele>
        <time>2023-01-29T05:55:05.560Z</time>
      </trkpt>
      <trkpt lat="48.93676" lon="1.75254">
        <ele>135</ele>
        <time>2023-01-29T05:55:09.984Z</time>
      </trkpt>
      <trkpt lat="48.93682" lon="1.75248">
        <ele>133</ele>
        <time>2023-01-29T05:55:14.648Z</time>
      </trkpt>
      <trkpt lat="48.93687" lon="1.75241">
        <ele>133</ele>
        <time>2023-01-29T05:55:19.323Z</time>
      </trkpt>
      <trkpt lat="48.9369" lon="1.75233">
        <ele>135</ele>
        <time>2023-01-29T05:55:23.737Z</time>
      </trkpt>
      <trkpt lat="48.93695" lon="1.75225">
        <ele>135</ele>
        <time>2023-01-29T05:55:28.163Z</time>
      </trkpt>
      <trkpt lat="48.93699" lon="1.75217">
        <ele>135</ele>
        <time>2023-01-29T05:55:32.782Z</time>
      </trkpt>
      <trkpt lat="48.93705" lon="1.75209">
        <ele>135</ele>
        <time>2023-01-29T05:55:36.655Z</time>
      </trkpt>
      <trkpt lat="48.93709" lon="1.75201">
        <ele>133</ele>
        <time>2023-01-29T05:55:41.341Z</time>
      </trkpt>
      <trkpt lat="48.93713" lon="1.75193">
        <ele>133</ele>
        <time>2023-01-29T05:55:45.383Z</time>
      </trkpt>
      <trkpt lat="48.93718" lon="1.75187">
        <ele>133</ele>
        <time>2023-01-29T05:55:50.047Z</time>
      </trkpt>
      <trkpt lat="48.93722" lon="1.75177">
        <ele>134</ele>
        <time>2023-01-29T05:55:54.591Z</time>
      </trkpt>
      <trkpt lat="48.93725" lon="1.75168">
        <ele>134</ele>
        <time>2023-01-29T05:55:59.113Z</time>
      </trkpt>
      <trkpt lat="48.93731" lon="1.7516">
        <ele>134</ele>
        <time>2023-01-29T05:56:03.562Z</time>
      </trkpt>
      <trkpt lat="48.93736" lon="1.75153">
        <ele>134</ele>
        <time>2023-01-29T05:56:08.228Z</time>
      </trkpt>
      <trkpt lat="48.93742" lon="1.75148">
        <ele>132</ele>
        <time>2023-01-29T05:56:12.822Z</time>
      </trkpt>
      <trkpt lat="48.93748" lon="1.75144">
        <ele>132</ele>
        <time>2023-01-29T05:56:16.834Z</time>
      </trkpt>
      <trkpt lat="48.93755" lon="1.75141">
        <ele>132</ele>
        <time>2023-01-29T05:56:21.377Z</time>
      </trkpt>
      <trkpt lat="48.93762" lon="1.75137">
        <ele>132</ele>
        <time>2023-01-29T05:56:25.801Z</time>
      </trkpt>
      <trkpt lat="48.93769" lon="1.75134">
        <ele>129</ele>
        <time>2023-01-29T05:56:30.345Z</time>
      </trkpt>
      <trkpt lat="48.93775" lon="1.75132">
        <ele>129</ele>
        <time>2023-01-29T05:56:34.411Z</time>
      </trkpt>
      <trkpt lat="48.93781" lon="1.7513">
        <ele>129</ele>
        <time>2023-01-29T05:56:38.836Z</time>
      </trkpt>
      <trkpt lat="48.93788" lon="1.75128">
        <ele>129</ele>
        <time>2023-01-29T05:56:42.836Z</time>
      </trkpt>
      <trkpt lat="48.93794" lon="1.75124">
        <ele>126</ele>
        <time>2023-01-29T05:56:47.328Z</time>
      </trkpt>
      <trkpt lat="48.93801" lon="1.75121">
        <ele>126</ele>
        <time>2023-01-29T05:56:51.917Z</time>
      </trkpt>
      <trkpt lat="48.93807" lon="1.7512">
        <ele>126</ele>
        <time>2023-01-29T05:56:55.938Z</time>
      </trkpt>
      <trkpt lat="48.93815" lon="1.75118">
        <ele>126</ele>
        <time>2023-01-29T05:57:00.468Z</time>
      </trkpt>
      <trkpt lat="48.93821" lon="1.75116">
        <ele>125</ele>
        <time>2023-01-29T05:57:04.553Z</time>
      </trkpt>
      <trkpt lat="48.93828" lon="1.75113">
        <ele>125</ele>
        <time>2023-01-29T05:57:08.978Z</time>
      </trkpt>
      <trkpt lat="48.93831" lon="1.75113">
        <ele>125</ele>
        <time>2023-01-29T05:57:13.044Z</time>
      </trkpt>
      <trkpt lat="48.93838" lon="1.7511">
        <ele>125</ele>
        <time>2023-01-29T05:57:17.709Z</time>
      </trkpt>
      <trkpt lat="48.93845" lon="1.75106">
        <ele>125</ele>
        <time>2023-01-29T05:57:21.656Z</time>
      </trkpt>
      <trkpt lat="48.93854" lon="1.75102">
        <ele>121</ele>
        <time>2023-01-29T05:57:26.680Z</time>
      </trkpt>
      <trkpt lat="48.9386" lon="1.75099">
        <ele>121</ele>
        <time>2023-01-29T05:57:31.169Z</time>
      </trkpt>
      <trkpt lat="48.93867" lon="1.75096">
        <ele>121</ele>
        <time>2023-01-29T05:57:35.652Z</time>
      </trkpt>
      <trkpt lat="48.93874" lon="1.75093">
        <ele>121</ele>
        <time>2023-01-29T05:57:39.836Z</time>
      </trkpt>
      <trkpt lat="48.9388" lon="1.75089">
        <ele>118</ele>
        <time>2023-01-29T05:57:43.836Z</time>
      </trkpt>
      <trkpt lat="48.93887" lon="1.75085">
        <ele>118</ele>
        <time>2023-01-29T05:57:48.332Z</time>
      </trkpt>
      <trkpt lat="48.93892" lon="1.7508">
        <ele>118</ele>
        <time>2023-01-29T05:57:52.400Z</time>
      </trkpt>
      <trkpt lat="48.93898" lon="1.75074">
        <ele>118</ele>
        <time>2023-01-29T05:57:56.944Z</time>
      </trkpt>
      <trkpt lat="48.93903" lon="1.75068">
        <ele>116</ele>
        <time>2023-01-29T05:58:00.836Z</time>
      </trkpt>
      <trkpt lat="48.93908" lon="1.75062">
        <ele>116</ele>
        <time>2023-01-29T05:58:04.719Z</time>
      </trkpt>
      <trkpt lat="48.93914" lon="1.75055">
        <ele>116</ele>
        <time>2023-01-29T05:58:09.265Z</time>
      </trkpt>
      <trkpt lat="48.93918" lon="1.75048">
        <ele>116</ele>
        <time>2023-01-29T05:58:13.810Z</time>
      </trkpt>
      <trkpt lat="48.93923" lon="1.75041">
        <ele>116</ele>
        <time>2023-01-29T05:58:17.903Z</time>
      </trkpt>
      <trkpt lat="48.93927" lon="1.75033">
        <ele>116</ele>
        <time>2023-01-29T05:58:21.946Z</time>
      </trkpt>
      <trkpt lat="48.9393" lon="1.75024">
        <ele>116</ele>
        <time>2023-01-29T05:58:26.015Z</time>
      </trkpt>
      <trkpt lat="48.93934" lon="1.75016">
        <ele>113</ele>
        <time>2023-01-29T05:58:30.323Z</time>
      </trkpt>
      <trkpt lat="48.93938" lon="1.75008">
        <ele>113</ele>
        <time>2023-01-29T05:58:34.729Z</time>
      </trkpt>
      <trkpt lat="48.93942" lon="1.75">
        <ele>113</ele>
        <time>2023-01-29T05:58:38.676Z</time>
      </trkpt>
      <trkpt lat="48.93946" lon="1.74991">
        <ele>113</ele>
        <time>2023-01-29T05:58:43.222Z</time>
      </trkpt>
      <trkpt lat="48.9395" lon="1.74983">
        <ele>113</ele>
        <time>2023-01-29T05:58:47.287Z</time>
      </trkpt>
      <trkpt lat="48.93955" lon="1.74974">
        <ele>113</ele>
        <time>2023-01-29T05:58:51.832Z</time>
      </trkpt>
      <trkpt lat="48.9396" lon="1.74966">
        <ele>111</ele>
        <time>2023-01-29T05:58:56.377Z</time>
      </trkpt>
      <trkpt lat="48.93964" lon="1.74958">
        <ele>111</ele>
        <time>2023-01-29T05:59:00.836Z</time>
      </trkpt>
      <trkpt lat="48.93969" lon="1.74953">
        <ele>112</ele>
        <time>2023-01-29T05:59:05.462Z</time>
      </trkpt>
      <trkpt lat="48.93974" lon="1.74949">
        <ele>112</ele>
        <time>2023-01-29T05:59:09.637Z</time>
      </trkpt>
      <trkpt lat="48.9398" lon="1.74945">
        <ele>112</ele>
        <time>2023-01-29T05:59:13.703Z</time>
      </trkpt>
      <trkpt lat="48.93987" lon="1.74946">
        <ele>110</ele>
        <time>2023-01-29T05:59:18.249Z</time>
      </trkpt>
      <trkpt lat="48.93995" lon="1.74946">
        <ele>110</ele>
        <time>2023-01-29T05:59:22.674Z</time>
      </trkpt>
      <trkpt lat="48.94003" lon="1.74949">
        <ele>110</ele>
        <time>2023-01-29T05:59:27.183Z</time>
      </trkpt>
      <trkpt lat="48.9401" lon="1.7495">
        <ele>110</ele>
        <time>2023-01-29T05:59:31.646Z</time>
      </trkpt>
      <trkpt lat="48.94017" lon="1.74953">
        <ele>108</ele>
        <time>2023-01-29T05:59:36.310Z</time>
      </trkpt>
      <trkpt lat="48.94024" lon="1.74954">
        <ele>108</ele>
        <time>2023-01-29T05:59:40.836Z</time>
      </trkpt>
      <trkpt lat="48.9403" lon="1.74955">
        <ele>108</ele>
        <time>2023-01-29T05:59:45.201Z</time>
      </trkpt>
      <trkpt lat="48.94036" lon="1.74957">
        <ele>108</ele>
        <time>2023-01-29T05:59:49.205Z</time>
      </trkpt>
      <trkpt lat="48.94042" lon="1.74959">
        <ele>107</ele>
        <time>2023-01-29T05:59:53.272Z</time>
      </trkpt>
      <trkpt lat="48.94049" lon="1.74959">
        <ele>107</ele>
        <time>2023-01-29T05:59:57.936Z</time>
      </trkpt>
      <trkpt lat="48.94056" lon="1.74959">
        <ele>107</ele>
        <time>2023-01-29T06:00:01.966Z</time>
      </trkpt>
      <trkpt lat="48.94062" lon="1.74959">
        <ele>107</ele>
        <time>2023-01-29T06:00:06.393Z</time>
      </trkpt>
      <trkpt lat="48.94069" lon="1.74959">
        <ele>107</ele>
        <time>2023-01-29T06:00:10.462Z</time>
      </trkpt>
      <trkpt lat="48.94076" lon="1.74959">
        <ele>108</ele>
        <time>2023-01-29T06:00:15.008Z</time>
      </trkpt>
      <trkpt lat="48.94082" lon="1.74958">
        <ele>111</ele>
        <time>2023-01-29T06:00:19.556Z</time>
      </trkpt>
      <trkpt lat="48.94088" lon="1.74958">
        <ele>111</ele>
        <time>2023-01-29T06:00:23.503Z</time>
      </trkpt>
      <trkpt lat="48.94096" lon="1.74958">
        <ele>111</ele>
        <time>2023-01-29T06:00:28.127Z</time>
      </trkpt>
      <trkpt lat="48.94103" lon="1.74957">
        <ele>110</ele>
        <time>2023-01-29T06:00:32.713Z</time>
      </trkpt>
      <trkpt lat="48.94109" lon="1.74958">
        <ele>110</ele>
        <time>2023-01-29T06:00:37.138Z</time>
      </trkpt>
      <trkpt lat="48.94116" lon="1.74958">
        <ele>110</ele>
        <time>2023-01-29T06:00:41.210Z</time>
      </trkpt>
      <trkpt lat="48.94121" lon="1.74957">
        <ele>110</ele>
        <time>2023-01-29T06:00:45.205Z</time>
      </trkpt>
      <trkpt lat="48.94129" lon="1.74954">
        <ele>107</ele>
        <time>2023-01-29T06:00:49.679Z</time>
      </trkpt>
      <trkpt lat="48.94135" lon="1.74956">
        <ele>107</ele>
        <time>2023-01-29T06:00:54.224Z</time>
      </trkpt>
      <trkpt lat="48.94141" lon="1.74959">
        <ele>104</ele>
        <time>2023-01-29T06:00:58.770Z</time>
      </trkpt>
      <trkpt lat="48.94148" lon="1.74965">
        <ele>104</ele>
        <time>2023-01-29T06:01:03.434Z</time>
      </trkpt>
      <trkpt lat="48.94153" lon="1.74971">
        <ele>100</ele>
        <time>2023-01-29T06:01:07.906Z</time>
      </trkpt>
      <trkpt lat="48.94159" lon="1.74977">
        <ele>100</ele>
        <time>2023-01-29T06:01:12.264Z</time>
      </trkpt>
      <trkpt lat="48.94165" lon="1.74981">
        <ele>100</ele>
        <time>2023-01-29T06:01:16.226Z</time>
      </trkpt>
      <trkpt lat="48.9417" lon="1.74984">
        <ele>100</ele>
        <time>2023-01-29T06:01:20.172Z</time>
      </trkpt>
      <trkpt lat="48.94176" lon="1.74988">
        <ele>99</ele>
        <time>2023-01-29T06:01:24.747Z</time>
      </trkpt>
      <trkpt lat="48.94181" lon="1.74994">
        <ele>96</ele>
        <time>2023-01-29T06:01:29.257Z</time>
      </trkpt>
      <trkpt lat="48.94186" lon="1.74999">
        <ele>96</ele>
        <time>2023-01-29T06:01:33.802Z</time>
      </trkpt>
      <trkpt lat="48.9419" lon="1.75006">
        <ele>96</ele>
        <time>2023-01-29T06:01:38.465Z</time>
      </trkpt>
      <trkpt lat="48.94197" lon="1.7501">
        <ele>96</ele>
        <time>2023-01-29T06:01:43.008Z</time>
      </trkpt>
      <trkpt lat="48.94204" lon="1.75015">
        <ele>95</ele>
        <time>2023-01-29T06:01:47.464Z</time>
      </trkpt>
      <trkpt lat="48.94206" lon="1.75015">
        <ele>95</ele>
        <time>2023-01-29T06:01:51.616Z</time>
      </trkpt>
      <trkpt lat="48.94213" lon="1.75011">
        <ele>92</ele>
        <time>2023-01-29T06:01:56.259Z</time>
      </trkpt>
      <trkpt lat="48.94219" lon="1.75006">
        <ele>92</ele>
        <time>2023-01-29T06:02:00.323Z</time>
      </trkpt>
      <trkpt lat="48.94225" lon="1.75">
        <ele>92</ele>
        <time>2023-01-29T06:02:04.269Z</time>
      </trkpt>
      <trkpt lat="48.94232" lon="1.74992">
        <ele>92</ele>
        <time>2023-01-29T06:02:08.691Z</time>
      </trkpt>
      <trkpt lat="48.94236" lon="1.74984">
        <ele>89</ele>
        <time>2023-01-29T06:02:13.233Z</time>
      </trkpt>
      <trkpt lat="48.9424" lon="1.74973">
        <ele>89</ele>
        <time>2023-01-29T06:02:17.417Z</time>
      </trkpt>
      <trkpt lat="48.94246" lon="1.74965">
        <ele>89</ele>
        <time>2023-01-29T06:02:22.080Z</time>
      </trkpt>
      <trkpt lat="48.94251" lon="1.74959">
        <ele>89</ele>
        <time>2023-01-29T06:02:26.084Z</time>
      </trkpt>
      <trkpt lat="48.94256" lon="1.74953">
        <ele>91</ele>
        <time>2023-01-29T06:02:30.684Z</time>
      </trkpt>
      <trkpt lat="48.94262" lon="1.74953">
        <ele>91</ele>
        <time>2023-01-29T06:02:34.718Z</time>
      </trkpt>
      <trkpt lat="48.94266" lon="1.74953">
        <ele>88</ele>
        <time>2023-01-29T06:02:39.245Z</time>
      </trkpt>
      <trkpt lat="48.94272" lon="1.74954">
        <ele>88</ele>
        <time>2023-01-29T06:02:43.686Z</time>
      </trkpt>
      <trkpt lat="48.94279" lon="1.74953">
        <ele>88</ele>
        <time>2023-01-29T06:02:48.212Z</time>
      </trkpt>
      <trkpt lat="48.94285" lon="1.7495">
        <ele>88</ele>
        <time>2023-01-29T06:02:52.836Z</time>
      </trkpt>
      <trkpt lat="48.94288" lon="1.74948">
        <ele>88</ele>
        <time>2023-01-29T06:02:58.024Z</time>
      </trkpt>
      <trkpt lat="48.94288" lon="1.74945">
        <ele>88</ele>
        <time>2023-01-29T06:03:02.924Z</time>
      </trkpt>
      <trkpt lat="48.94293" lon="1.74943">
        <ele>85</ele>
        <time>2023-01-29T06:03:07.929Z</time>
      </trkpt>
      <trkpt lat="48.94299" lon="1.74932">
        <ele>85</ele>
        <time>2023-01-29T06:03:11.609Z</time>
      </trkpt>
      <trkpt lat="48.94305" lon="1.74921">
        <ele>88</ele>
        <time>2023-01-29T06:03:16.600Z</time>
      </trkpt>
      <trkpt lat="48.94308" lon="1.74909">
        <ele>88</ele>
        <time>2023-01-29T06:03:21.103Z</time>
      </trkpt>
      <trkpt lat="48.94313" lon="1.749">
        <ele>89</ele>
        <time>2023-01-29T06:03:25.694Z</time>
      </trkpt>
      <trkpt lat="48.94315" lon="1.74891">
        <ele>89</ele>
        <time>2023-01-29T06:03:29.645Z</time>
      </trkpt>
      <trkpt lat="48.94316" lon="1.74887">
        <ele>89</ele>
        <time>2023-01-29T06:03:34.327Z</time>
      </trkpt>
      <trkpt lat="48.94323" lon="1.74877">
        <ele>88</ele>
        <time>2023-01-29T06:03:39.367Z</time>
      </trkpt>
      <trkpt lat="48.9433" lon="1.74869">
        <ele>88</ele>
        <time>2023-01-29T06:03:43.836Z</time>
      </trkpt>
      <trkpt lat="48.94339" lon="1.74861">
        <ele>88</ele>
        <time>2023-01-29T06:03:48.319Z</time>
      </trkpt>
      <trkpt lat="48.94344" lon="1.74854">
        <ele>88</ele>
        <time>2023-01-29T06:03:52.994Z</time>
      </trkpt>
      <trkpt lat="48.94351" lon="1.74849">
        <ele>85</ele>
        <time>2023-01-29T06:03:57.430Z</time>
      </trkpt>
      <trkpt lat="48.94358" lon="1.74843">
        <ele>85</ele>
        <time>2023-01-29T06:04:01.624Z</time>
      </trkpt>
      <trkpt lat="48.94364" lon="1.74836">
        <ele>85</ele>
        <time>2023-01-29T06:04:06.239Z</time>
      </trkpt>
      <trkpt lat="48.94368" lon="1.74827">
        <ele>85</ele>
        <time>2023-01-29T06:04:10.177Z</time>
      </trkpt>
      <trkpt lat="48.94366" lon="1.74819">
        <ele>88</ele>
        <time>2023-01-29T06:04:14.592Z</time>
      </trkpt>
      <trkpt lat="48.94376" lon="1.74814">
        <ele>85</ele>
        <time>2023-01-29T06:04:18.652Z</time>
      </trkpt>
      <trkpt lat="48.94383" lon="1.74809">
        <ele>85</ele>
        <time>2023-01-29T06:04:22.790Z</time>
      </trkpt>
      <trkpt lat="48.9439" lon="1.74801">
        <ele>85</ele>
        <time>2023-01-29T06:04:27.584Z</time>
      </trkpt>
      <trkpt lat="48.94396" lon="1.74795">
        <ele>85</ele>
        <time>2023-01-29T06:04:32.079Z</time>
      </trkpt>
      <trkpt lat="48.94399" lon="1.74789">
        <ele>88</ele>
        <time>2023-01-29T06:04:36.217Z</time>
      </trkpt>
      <trkpt lat="48.94403" lon="1.74782">
        <ele>83</ele>
        <time>2023-01-29T06:04:40.294Z</time>
      </trkpt>
      <trkpt lat="48.94408" lon="1.74776">
        <ele>83</ele>
        <time>2023-01-29T06:04:44.251Z</time>
      </trkpt>
      <trkpt lat="48.94413" lon="1.74768">
        <ele>83</ele>
        <time>2023-01-29T06:04:49.046Z</time>
      </trkpt>
      <trkpt lat="48.9442" lon="1.74762">
        <ele>84</ele>
        <time>2023-01-29T06:04:52.824Z</time>
      </trkpt>
      <trkpt lat="48.94426" lon="1.74756">
        <ele>84</ele>
        <time>2023-01-29T06:04:57.379Z</time>
      </trkpt>
      <trkpt lat="48.94431" lon="1.74748">
        <ele>80</ele>
        <time>2023-01-29T06:05:01.335Z</time>
      </trkpt>
      <trkpt lat="48.94436" lon="1.74742">
        <ele>80</ele>
        <time>2023-01-29T06:05:05.836Z</time>
      </trkpt>
      <trkpt lat="48.94441" lon="1.74734">
        <ele>81</ele>
        <time>2023-01-29T06:05:10.266Z</time>
      </trkpt>
      <trkpt lat="48.94445" lon="1.74729">
        <ele>81</ele>
        <time>2023-01-29T06:05:14.203Z</time>
      </trkpt>
      <trkpt lat="48.9445" lon="1.74723">
        <ele>81</ele>
        <time>2023-01-29T06:05:18.620Z</time>
      </trkpt>
      <trkpt lat="48.94455" lon="1.74715">
        <ele>81</ele>
        <time>2023-01-29T06:05:23.089Z</time>
      </trkpt>
      <trkpt lat="48.94459" lon="1.74708">
        <ele>80</ele>
        <time>2023-01-29T06:05:27.194Z</time>
      </trkpt>
      <trkpt lat="48.94465" lon="1.74701">
        <ele>80</ele>
        <time>2023-01-29T06:05:31.812Z</time>
      </trkpt>
      <trkpt lat="48.94471" lon="1.74694">
        <ele>80</ele>
        <time>2023-01-29T06:05:36.402Z</time>
      </trkpt>
      <trkpt lat="48.94476" lon="1.74688">
        <ele>80</ele>
        <time>2023-01-29T06:05:40.325Z</time>
      </trkpt>
      <trkpt lat="48.94481" lon="1.74682">
        <ele>80</ele>
        <time>2023-01-29T06:05:44.821Z</time>
      </trkpt>
      <trkpt lat="48.94487" lon="1.74676">
        <ele>82</ele>
        <time>2023-01-29T06:05:49.017Z</time>
      </trkpt>
      <trkpt lat="48.94492" lon="1.7467">
        <ele>82</ele>
        <time>2023-01-29T06:05:53.495Z</time>
      </trkpt>
      <trkpt lat="48.94496" lon="1.74662">
        <ele>82</ele>
        <time>2023-01-29T06:05:58.031Z</time>
      </trkpt>
      <trkpt lat="48.94502" lon="1.74657">
        <ele>82</ele>
        <time>2023-01-29T06:06:02.708Z</time>
      </trkpt>
      <trkpt lat="48.94506" lon="1.74652">
        <ele>86</ele>
        <time>2023-01-29T06:06:07.088Z</time>
      </trkpt>
      <trkpt lat="48.94512" lon="1.74648">
        <ele>86</ele>
        <time>2023-01-29T06:06:11.469Z</time>
      </trkpt>
      <trkpt lat="48.94517" lon="1.74642">
        <ele>81</ele>
        <time>2023-01-29T06:06:16.109Z</time>
      </trkpt>
      <trkpt lat="48.94523" lon="1.74638">
        <ele>81</ele>
        <time>2023-01-29T06:06:20.455Z</time>
      </trkpt>
      <trkpt lat="48.94529" lon="1.74633">
        <ele>81</ele>
        <time>2023-01-29T06:06:24.645Z</time>
      </trkpt>
      <trkpt lat="48.94533" lon="1.74628">
        <ele>81</ele>
        <time>2023-01-29T06:06:28.834Z</time>
      </trkpt>
      <trkpt lat="48.94533" lon="1.74623">
        <ele>84</ele>
        <time>2023-01-29T06:06:33.626Z</time>
      </trkpt>
      <trkpt lat="48.9453" lon="1.74626">
        <ele>81</ele>
        <time>2023-01-29T06:13:13.134Z</time>
      </trkpt>
      <trkpt lat="48.94529" lon="1.74625">
        <ele>84</ele>
        <time>2023-01-29T06:13:17.727Z</time>
      </trkpt>
      <trkpt lat="48.94527" lon="1.74625">
        <ele>84</ele>
        <time>2023-01-29T06:13:22.836Z</time>
      </trkpt>
      <trkpt lat="48.94527" lon="1.74627">
        <ele>81</ele>
        <time>2023-01-29T06:13:26.950Z</time>
      </trkpt>
      <trkpt lat="48.94524" lon="1.7463">
        <ele>81</ele>
        <time>2023-01-29T06:13:32.125Z</time>
      </trkpt>
      <trkpt lat="48.94524" lon="1.7463">
        <ele>81</ele>
        <time>2023-01-29T06:13:36.138Z</time>
      </trkpt>
      <trkpt lat="48.94523" lon="1.7463">
        <ele>81</ele>
        <time>2023-01-29T06:13:40.836Z</time>
      </trkpt>
      <trkpt lat="48.94519" lon="1.74636">
        <ele>81</ele>
        <time>2023-01-29T06:13:45.393Z</time>
      </trkpt>
      <trkpt lat="48.94514" lon="1.74642">
        <ele>81</ele>
        <time>2023-01-29T06:13:50.046Z</time>
      </trkpt>
      <trkpt lat="48.94509" lon="1.74647">
        <ele>86</ele>
        <time>2023-01-29T06:13:54.547Z</time>
      </trkpt>
      <trkpt lat="48.94504" lon="1.74652">
        <ele>86</ele>
        <time>2023-01-29T06:13:58.840Z</time>
      </trkpt>
      <trkpt lat="48.94499" lon="1.74654">
        <ele>82</ele>
        <time>2023-01-29T06:14:02.836Z</time>
      </trkpt>
      <trkpt lat="48.94494" lon="1.74659">
        <ele>82</ele>
        <time>2023-01-29T06:14:06.836Z</time>
      </trkpt>
      <trkpt lat="48.9449" lon="1.74664">
        <ele>82</ele>
        <time>2023-01-29T06:14:10.821Z</time>
      </trkpt>
      <trkpt lat="48.94487" lon="1.74668">
        <ele>82</ele>
        <time>2023-01-29T06:14:14.653Z</time>
      </trkpt>
      <trkpt lat="48.94485" lon="1.74677">
        <ele>84</ele>
        <time>2023-01-29T06:14:19.387Z</time>
      </trkpt>
      <trkpt lat="48.94492" lon="1.74681">
        <ele>78</ele>
        <time>2023-01-29T06:14:23.361Z</time>
      </trkpt>
      <trkpt lat="48.94499" lon="1.74682">
        <ele>78</ele>
        <time>2023-01-29T06:14:27.942Z</time>
      </trkpt>
      <trkpt lat="48.94507" lon="1.74683">
        <ele>78</ele>
        <time>2023-01-29T06:14:31.836Z</time>
      </trkpt>
      <trkpt lat="48.94516" lon="1.74684">
        <ele>76</ele>
        <time>2023-01-29T06:14:36.441Z</time>
      </trkpt>
      <trkpt lat="48.94524" lon="1.74684">
        <ele>76</ele>
        <time>2023-01-29T06:14:40.403Z</time>
      </trkpt>
      <trkpt lat="48.9453" lon="1.74679">
        <ele>78</ele>
        <time>2023-01-29T06:14:44.963Z</time>
      </trkpt>
      <trkpt lat="48.94536" lon="1.7468">
        <ele>78</ele>
        <time>2023-01-29T06:14:49.350Z</time>
      </trkpt>
      <trkpt lat="48.94543" lon="1.74683">
        <ele>75</ele>
        <time>2023-01-29T06:14:53.836Z</time>
      </trkpt>
      <trkpt lat="48.94551" lon="1.74681">
        <ele>75</ele>
        <time>2023-01-29T06:14:58.434Z</time>
      </trkpt>
      <trkpt lat="48.94558" lon="1.74681">
        <ele>75</ele>
        <time>2023-01-29T06:15:02.387Z</time>
      </trkpt>
      <trkpt lat="48.94565" lon="1.74679">
        <ele>77</ele>
        <time>2023-01-29T06:15:06.939Z</time>
      </trkpt>
      <trkpt lat="48.94571" lon="1.74678">
        <ele>75</ele>
        <time>2023-01-29T06:15:11.010Z</time>
      </trkpt>
      <trkpt lat="48.94578" lon="1.74676">
        <ele>75</ele>
        <time>2023-01-29T06:15:15.422Z</time>
      </trkpt>
      <trkpt lat="48.94585" lon="1.74675">
        <ele>75</ele>
        <time>2023-01-29T06:15:19.914Z</time>
      </trkpt>
      <trkpt lat="48.94592" lon="1.74674">
        <ele>75</ele>
        <time>2023-01-29T06:15:24.027Z</time>
      </trkpt>
      <trkpt lat="48.946" lon="1.74673">
        <ele>73</ele>
        <time>2023-01-29T06:15:28.657Z</time>
      </trkpt>
      <trkpt lat="48.94607" lon="1.74674">
        <ele>73</ele>
        <time>2023-01-29T06:15:33.327Z</time>
      </trkpt>
      <trkpt lat="48.94614" lon="1.74672">
        <ele>73</ele>
        <time>2023-01-29T06:15:37.823Z</time>
      </trkpt>
      <trkpt lat="48.9462" lon="1.74671">
        <ele>73</ele>
        <time>2023-01-29T06:15:41.836Z</time>
      </trkpt>
      <trkpt lat="48.94626" lon="1.74669">
        <ele>69</ele>
        <time>2023-01-29T06:15:45.836Z</time>
      </trkpt>
      <trkpt lat="48.94634" lon="1.74668">
        <ele>69</ele>
        <time>2023-01-29T06:15:50.396Z</time>
      </trkpt>
      <trkpt lat="48.94642" lon="1.74667">
        <ele>69</ele>
        <time>2023-01-29T06:15:55.028Z</time>
      </trkpt>
      <trkpt lat="48.94648" lon="1.74667">
        <ele>69</ele>
        <time>2023-01-29T06:15:59.580Z</time>
      </trkpt>
      <trkpt lat="48.9465" lon="1.74667">
        <ele>69</ele>
        <time>2023-01-29T06:16:03.652Z</time>
      </trkpt>
      <trkpt lat="48.94655" lon="1.74663">
        <ele>65</ele>
        <time>2023-01-29T06:16:08.146Z</time>
      </trkpt>
      <trkpt lat="48.9466" lon="1.74663">
        <ele>65</ele>
        <time>2023-01-29T06:16:12.128Z</time>
      </trkpt>
      <trkpt lat="48.94666" lon="1.74658">
        <ele>65</ele>
        <time>2023-01-29T06:16:16.589Z</time>
      </trkpt>
      <trkpt lat="48.94672" lon="1.74655">
        <ele>65</ele>
        <time>2023-01-29T06:16:21.105Z</time>
      </trkpt>
      <trkpt lat="48.94678" lon="1.74651">
        <ele>67</ele>
        <time>2023-01-29T06:16:25.094Z</time>
      </trkpt>
      <trkpt lat="48.94684" lon="1.74648">
        <ele>63</ele>
        <time>2023-01-29T06:16:28.987Z</time>
      </trkpt>
      <trkpt lat="48.94691" lon="1.74643">
        <ele>63</ele>
        <time>2023-01-29T06:16:33.637Z</time>
      </trkpt>
      <trkpt lat="48.94697" lon="1.74637">
        <ele>63</ele>
        <time>2023-01-29T06:16:38.307Z</time>
      </trkpt>
      <trkpt lat="48.94703" lon="1.74632">
        <ele>63</ele>
        <time>2023-01-29T06:16:42.799Z</time>
      </trkpt>
      <trkpt lat="48.9471" lon="1.74626">
        <ele>60</ele>
        <time>2023-01-29T06:17:45.316Z</time>
      </trkpt>
      <trkpt lat="48.94718" lon="1.74616">
        <ele>62</ele>
        <time>2023-01-29T06:17:49.929Z</time>
      </trkpt>
      <trkpt lat="48.94725" lon="1.74612">
        <ele>62</ele>
        <time>2023-01-29T06:17:53.820Z</time>
      </trkpt>
      <trkpt lat="48.94732" lon="1.74605">
        <ele>62</ele>
        <time>2023-01-29T06:17:57.836Z</time>
      </trkpt>
      <trkpt lat="48.94738" lon="1.74596">
        <ele>59</ele>
        <time>2023-01-29T06:18:02.444Z</time>
      </trkpt>
      <trkpt lat="48.94745" lon="1.74588">
        <ele>59</ele>
        <time>2023-01-29T06:18:06.779Z</time>
      </trkpt>
      <trkpt lat="48.94751" lon="1.74581">
        <ele>59</ele>
        <time>2023-01-29T06:18:10.770Z</time>
      </trkpt>
      <trkpt lat="48.94758" lon="1.74572">
        <ele>59</ele>
        <time>2023-01-29T06:18:15.385Z</time>
      </trkpt>
      <trkpt lat="48.94764" lon="1.74564">
        <ele>63</ele>
        <time>2023-01-29T06:18:19.753Z</time>
      </trkpt>
      <trkpt lat="48.94769" lon="1.74556">
        <ele>58</ele>
        <time>2023-01-29T06:18:23.707Z</time>
      </trkpt>
      <trkpt lat="48.94775" lon="1.74548">
        <ele>58</ele>
        <time>2023-01-29T06:18:28.238Z</time>
      </trkpt>
      <trkpt lat="48.94781" lon="1.7454">
        <ele>62</ele>
        <time>2023-01-29T06:18:32.836Z</time>
      </trkpt>
      <trkpt lat="48.94788" lon="1.74533">
        <ele>62</ele>
        <time>2023-01-29T06:18:37.339Z</time>
      </trkpt>
      <trkpt lat="48.94795" lon="1.74526">
        <ele>55</ele>
        <time>2023-01-29T06:18:41.862Z</time>
      </trkpt>
      <trkpt lat="48.948" lon="1.74519">
        <ele>55</ele>
        <time>2023-01-29T06:18:45.844Z</time>
      </trkpt>
      <trkpt lat="48.94806" lon="1.74511">
        <ele>60</ele>
        <time>2023-01-29T06:18:49.965Z</time>
      </trkpt>
      <trkpt lat="48.94812" lon="1.74504">
        <ele>60</ele>
        <time>2023-01-29T06:18:54.464Z</time>
      </trkpt>
      <trkpt lat="48.94818" lon="1.74498">
        <ele>60</ele>
        <time>2023-01-29T06:18:58.538Z</time>
      </trkpt>
      <trkpt lat="48.94823" lon="1.74491">
        <ele>52</ele>
        <time>2023-01-29T06:19:02.926Z</time>
      </trkpt>
      <trkpt lat="48.94828" lon="1.74484">
        <ele>56</ele>
        <time>2023-01-29T06:19:06.836Z</time>
      </trkpt>
      <trkpt lat="48.94835" lon="1.74476">
        <ele>56</ele>
        <time>2023-01-29T06:19:11.339Z</time>
      </trkpt>
      <trkpt lat="48.94841" lon="1.74469">
        <ele>56</ele>
        <time>2023-01-29T06:19:15.733Z</time>
      </trkpt>
      <trkpt lat="48.94846" lon="1.74463">
        <ele>56</ele>
        <time>2023-01-29T06:19:20.408Z</time>
      </trkpt>
      <trkpt lat="48.94851" lon="1.74456">
        <ele>56</ele>
        <time>2023-01-29T06:19:24.365Z</time>
      </trkpt>
      <trkpt lat="48.94858" lon="1.74449">
        <ele>56</ele>
        <time>2023-01-29T06:19:28.798Z</time>
      </trkpt>
      <trkpt lat="48.94864" lon="1.74442">
        <ele>56</ele>
        <time>2023-01-29T06:19:32.751Z</time>
      </trkpt>
      <trkpt lat="48.94871" lon="1.74435">
        <ele>56</ele>
        <time>2023-01-29T06:19:37.131Z</time>
      </trkpt>
      <trkpt lat="48.94876" lon="1.74427">
        <ele>58</ele>
        <time>2023-01-29T06:19:41.335Z</time>
      </trkpt>
      <trkpt lat="48.94882" lon="1.74419">
        <ele>58</ele>
        <time>2023-01-29T06:19:45.708Z</time>
      </trkpt>
      <trkpt lat="48.94887" lon="1.74411">
        <ele>58</ele>
        <time>2023-01-29T06:19:49.681Z</time>
      </trkpt>
      <trkpt lat="48.94891" lon="1.74403">
        <ele>58</ele>
        <time>2023-01-29T06:19:54.194Z</time>
      </trkpt>
      <trkpt lat="48.94896" lon="1.74394">
        <ele>60</ele>
        <time>2023-01-29T06:19:58.631Z</time>
      </trkpt>
      <trkpt lat="48.94901" lon="1.74386">
        <ele>60</ele>
        <time>2023-01-29T06:20:02.700Z</time>
      </trkpt>
      <trkpt lat="48.94906" lon="1.74379">
        <ele>56</ele>
        <time>2023-01-29T06:20:06.648Z</time>
      </trkpt>
      <trkpt lat="48.94911" lon="1.74371">
        <ele>57</ele>
        <time>2023-01-29T06:20:10.478Z</time>
      </trkpt>
      <trkpt lat="48.94915" lon="1.74363">
        <ele>57</ele>
        <time>2023-01-29T06:20:15.028Z</time>
      </trkpt>
      <trkpt lat="48.94921" lon="1.74354">
        <ele>57</ele>
        <time>2023-01-29T06:20:19.100Z</time>
      </trkpt>
      <trkpt lat="48.94926" lon="1.74345">
        <ele>58</ele>
        <time>2023-01-29T06:20:23.651Z</time>
      </trkpt>
      <trkpt lat="48.94932" lon="1.74337">
        <ele>56</ele>
        <time>2023-01-29T06:20:28.081Z</time>
      </trkpt>
      <trkpt lat="48.94937" lon="1.74329">
        <ele>56</ele>
        <time>2023-01-29T06:20:32.136Z</time>
      </trkpt>
      <trkpt lat="48.94944" lon="1.7432">
        <ele>56</ele>
        <time>2023-01-29T06:20:36.700Z</time>
      </trkpt>
      <trkpt lat="48.94949" lon="1.74312">
        <ele>58</ele>
        <time>2023-01-29T06:20:41.212Z</time>
      </trkpt>
      <trkpt lat="48.94956" lon="1.74304">
        <ele>58</ele>
        <time>2023-01-29T06:20:45.836Z</time>
      </trkpt>
      <trkpt lat="48.94962" lon="1.74297">
        <ele>56</ele>
        <time>2023-01-29T06:20:50.313Z</time>
      </trkpt>
      <trkpt lat="48.94967" lon="1.74289">
        <ele>58</ele>
        <time>2023-01-29T06:20:54.767Z</time>
      </trkpt>
      <trkpt lat="48.94972" lon="1.74281">
        <ele>58</ele>
        <time>2023-01-29T06:20:58.676Z</time>
      </trkpt>
      <trkpt lat="48.94978" lon="1.74273">
        <ele>58</ele>
        <time>2023-01-29T06:21:03.125Z</time>
      </trkpt>
      <trkpt lat="48.94984" lon="1.74266">
        <ele>58</ele>
        <time>2023-01-29T06:21:07.659Z</time>
      </trkpt>
      <trkpt lat="48.94989" lon="1.74258">
        <ele>58</ele>
        <time>2023-01-29T06:21:11.731Z</time>
      </trkpt>
      <trkpt lat="48.94995" lon="1.74249">
        <ele>58</ele>
        <time>2023-01-29T06:21:16.605Z</time>
      </trkpt>
      <trkpt lat="48.95" lon="1.74241">
        <ele>58</ele>
        <time>2023-01-29T06:21:20.651Z</time>
      </trkpt>
      <trkpt lat="48.95006" lon="1.74233">
        <ele>58</ele>
        <time>2023-01-29T06:21:24.722Z</time>
      </trkpt>
      <trkpt lat="48.9501" lon="1.74225">
        <ele>58</ele>
        <time>2023-01-29T06:21:28.673Z</time>
      </trkpt>
      <trkpt lat="48.95014" lon="1.74218">
        <ele>58</ele>
        <time>2023-01-29T06:21:32.742Z</time>
      </trkpt>
      <trkpt lat="48.95018" lon="1.74209">
        <ele>56</ele>
        <time>2023-01-29T06:21:37.263Z</time>
      </trkpt>
      <trkpt lat="48.95023" lon="1.742">
        <ele>56</ele>
        <time>2023-01-29T06:21:41.240Z</time>
      </trkpt>
      <trkpt lat="48.95027" lon="1.74191">
        <ele>56</ele>
        <time>2023-01-29T06:21:45.669Z</time>
      </trkpt>
      <trkpt lat="48.9503" lon="1.74184">
        <ele>56</ele>
        <time>2023-01-29T06:21:49.619Z</time>
      </trkpt>
      <trkpt lat="48.95035" lon="1.74175">
        <ele>57</ele>
        <time>2023-01-29T06:21:54.135Z</time>
      </trkpt>
      <trkpt lat="48.9504" lon="1.74167">
        <ele>57</ele>
        <time>2023-01-29T06:21:58.238Z</time>
      </trkpt>
      <trkpt lat="48.95044" lon="1.7416">
        <ele>53</ele>
        <time>2023-01-29T06:22:02.308Z</time>
      </trkpt>
      <trkpt lat="48.95049" lon="1.74153">
        <ele>53</ele>
        <time>2023-01-29T06:22:06.619Z</time>
      </trkpt>
      <trkpt lat="48.95053" lon="1.74146">
        <ele>53</ele>
        <time>2023-01-29T06:22:11.116Z</time>
      </trkpt>
      <trkpt lat="48.95058" lon="1.74137">
        <ele>53</ele>
        <time>2023-01-29T06:22:15.480Z</time>
      </trkpt>
      <trkpt lat="48.95062" lon="1.7413">
        <ele>53</ele>
        <time>2023-01-29T06:22:19.984Z</time>
      </trkpt>
      <trkpt lat="48.95067" lon="1.74122">
        <ele>53</ele>
        <time>2023-01-29T06:22:23.981Z</time>
      </trkpt>
      <trkpt lat="48.95073" lon="1.74115">
        <ele>50</ele>
        <time>2023-01-29T06:22:28.410Z</time>
      </trkpt>
      <trkpt lat="48.95078" lon="1.74109">
        <ele>50</ele>
        <time>2023-01-29T06:22:32.360Z</time>
      </trkpt>
      <trkpt lat="48.95083" lon="1.741">
        <ele>50</ele>
        <time>2023-01-29T06:22:37.116Z</time>
      </trkpt>
      <trkpt lat="48.95087" lon="1.74093">
        <ele>50</ele>
        <time>2023-01-29T06:22:40.979Z</time>
      </trkpt>
      <trkpt lat="48.95093" lon="1.74084">
        <ele>50</ele>
        <time>2023-01-29T06:22:45.289Z</time>
      </trkpt>
      <trkpt lat="48.95098" lon="1.74077">
        <ele>48</ele>
        <time>2023-01-29T06:22:49.461Z</time>
      </trkpt>
      <trkpt lat="48.95103" lon="1.74071">
        <ele>48</ele>
        <time>2023-01-29T06:22:54.025Z</time>
      </trkpt>
      <trkpt lat="48.95108" lon="1.74064">
        <ele>49</ele>
        <time>2023-01-29T06:22:57.961Z</time>
      </trkpt>
      <trkpt lat="48.95114" lon="1.74057">
        <ele>49</ele>
        <time>2023-01-29T06:23:02.570Z</time>
      </trkpt>
      <trkpt lat="48.9512" lon="1.74051">
        <ele>49</ele>
        <time>2023-01-29T06:23:07.118Z</time>
      </trkpt>
      <trkpt lat="48.95126" lon="1.74045">
        <ele>47</ele>
        <time>2023-01-29T06:23:11.668Z</time>
      </trkpt>
      <trkpt lat="48.95131" lon="1.74038">
        <ele>48</ele>
        <time>2023-01-29T06:23:16.212Z</time>
      </trkpt>
      <trkpt lat="48.95138" lon="1.74032">
        <ele>48</ele>
        <time>2023-01-29T06:23:20.648Z</time>
      </trkpt>
      <trkpt lat="48.95143" lon="1.74027">
        <ele>48</ele>
        <time>2023-01-29T06:23:24.720Z</time>
      </trkpt>
      <trkpt lat="48.95149" lon="1.74021">
        <ele>48</ele>
        <time>2023-01-29T06:23:29.149Z</time>
      </trkpt>
      <trkpt lat="48.95156" lon="1.74015">
        <ele>45</ele>
        <time>2023-01-29T06:23:33.698Z</time>
      </trkpt>
      <trkpt lat="48.95162" lon="1.7401">
        <ele>46</ele>
        <time>2023-01-29T06:23:38.726Z</time>
      </trkpt>
      <trkpt lat="48.95168" lon="1.74005">
        <ele>46</ele>
        <time>2023-01-29T06:23:43.274Z</time>
      </trkpt>
      <trkpt lat="48.95174" lon="1.73999">
        <ele>46</ele>
        <time>2023-01-29T06:23:47.701Z</time>
      </trkpt>
      <trkpt lat="48.9518" lon="1.73994">
        <ele>46</ele>
        <time>2023-01-29T06:23:51.652Z</time>
      </trkpt>
      <trkpt lat="48.95187" lon="1.73989">
        <ele>44</ele>
        <time>2023-01-29T06:23:56.317Z</time>
      </trkpt>
      <trkpt lat="48.95193" lon="1.73985">
        <ele>46</ele>
        <time>2023-01-29T06:24:00.846Z</time>
      </trkpt>
      <trkpt lat="48.95199" lon="1.73979">
        <ele>46</ele>
        <time>2023-01-29T06:24:05.287Z</time>
      </trkpt>
      <trkpt lat="48.95204" lon="1.73974">
        <ele>46</ele>
        <time>2023-01-29T06:24:09.712Z</time>
      </trkpt>
      <trkpt lat="48.9521" lon="1.73969">
        <ele>43</ele>
        <time>2023-01-29T06:24:13.659Z</time>
      </trkpt>
      <trkpt lat="48.95217" lon="1.73963">
        <ele>43</ele>
        <time>2023-01-29T06:24:18.324Z</time>
      </trkpt>
      <trkpt lat="48.95223" lon="1.73958">
        <ele>45</ele>
        <time>2023-01-29T06:24:22.629Z</time>
      </trkpt>
      <trkpt lat="48.95229" lon="1.73952">
        <ele>45</ele>
        <time>2023-01-29T06:24:27.176Z</time>
      </trkpt>
      <trkpt lat="48.95235" lon="1.73946">
        <ele>45</ele>
        <time>2023-01-29T06:24:31.724Z</time>
      </trkpt>
      <trkpt lat="48.95241" lon="1.73941">
        <ele>42</ele>
        <time>2023-01-29T06:24:36.204Z</time>
      </trkpt>
      <trkpt lat="48.95247" lon="1.73934">
        <ele>42</ele>
        <time>2023-01-29T06:24:40.695Z</time>
      </trkpt>
      <trkpt lat="48.95253" lon="1.73928">
        <ele>44</ele>
        <time>2023-01-29T06:24:44.642Z</time>
      </trkpt>
      <trkpt lat="48.9526" lon="1.73923">
        <ele>44</ele>
        <time>2023-01-29T06:24:49.100Z</time>
      </trkpt>
      <trkpt lat="48.95265" lon="1.7392">
        <ele>43</ele>
        <time>2023-01-29T06:24:53.135Z</time>
      </trkpt>
      <trkpt lat="48.95272" lon="1.73916">
        <ele>43</ele>
        <time>2023-01-29T06:24:57.683Z</time>
      </trkpt>
      <trkpt lat="48.95279" lon="1.73915">
        <ele>43</ele>
        <time>2023-01-29T06:25:02.221Z</time>
      </trkpt>
      <trkpt lat="48.95286" lon="1.73915">
        <ele>43</ele>
        <time>2023-01-29T06:25:06.799Z</time>
      </trkpt>
      <trkpt lat="48.95291" lon="1.73911">
        <ele>43</ele>
        <time>2023-01-29T06:25:10.811Z</time>
      </trkpt>
      <trkpt lat="48.95297" lon="1.73909">
        <ele>41</ele>
        <time>2023-01-29T06:25:14.836Z</time>
      </trkpt>
      <trkpt lat="48.95303" lon="1.73906">
        <ele>41</ele>
        <time>2023-01-29T06:25:19.323Z</time>
      </trkpt>
      <trkpt lat="48.9531" lon="1.73905">
        <ele>41</ele>
        <time>2023-01-29T06:25:23.239Z</time>
      </trkpt>
      <trkpt lat="48.95316" lon="1.73903">
        <ele>41</ele>
        <time>2023-01-29T06:25:27.310Z</time>
      </trkpt>
      <trkpt lat="48.95324" lon="1.73903">
        <ele>41</ele>
        <time>2023-01-29T06:25:31.836Z</time>
      </trkpt>
      <trkpt lat="48.9533" lon="1.73901">
        <ele>41</ele>
        <time>2023-01-29T06:25:36.185Z</time>
      </trkpt>
      <trkpt lat="48.95337" lon="1.73899">
        <ele>41</ele>
        <time>2023-01-29T06:25:40.829Z</time>
      </trkpt>
      <trkpt lat="48.95342" lon="1.73898">
        <ele>41</ele>
        <time>2023-01-29T06:25:44.684Z</time>
      </trkpt>
      <trkpt lat="48.95349" lon="1.73895">
        <ele>42</ele>
        <time>2023-01-29T06:25:48.835Z</time>
      </trkpt>
      <trkpt lat="48.95355" lon="1.73892">
        <ele>42</ele>
        <time>2023-01-29T06:25:52.836Z</time>
      </trkpt>
      <trkpt lat="48.95362" lon="1.73891">
        <ele>42</ele>
        <time>2023-01-29T06:25:58.121Z</time>
      </trkpt>
      <trkpt lat="48.95366" lon="1.73889">
        <ele>42</ele>
        <time>2023-01-29T06:26:02.110Z</time>
      </trkpt>
      <trkpt lat="48.95369" lon="1.73885">
        <ele>42</ele>
        <time>2023-01-29T06:26:05.956Z</time>
      </trkpt>
      <trkpt lat="48.95376" lon="1.73883">
        <ele>42</ele>
        <time>2023-01-29T06:26:10.961Z</time>
      </trkpt>
      <trkpt lat="48.95382" lon="1.73884">
        <ele>42</ele>
        <time>2023-01-29T06:26:14.752Z</time>
      </trkpt>
      <trkpt lat="48.95388" lon="1.7388">
        <ele>42</ele>
        <time>2023-01-29T06:26:19.401Z</time>
      </trkpt>
      <trkpt lat="48.95394" lon="1.73876">
        <ele>42</ele>
        <time>2023-01-29T06:26:23.836Z</time>
      </trkpt>
      <trkpt lat="48.954" lon="1.73873">
        <ele>43</ele>
        <time>2023-01-29T06:26:28.360Z</time>
      </trkpt>
      <trkpt lat="48.95406" lon="1.7387">
        <ele>43</ele>
        <time>2023-01-29T06:26:33.008Z</time>
      </trkpt>
      <trkpt lat="48.95413" lon="1.73865">
        <ele>43</ele>
        <time>2023-01-29T06:26:37.489Z</time>
      </trkpt>
      <trkpt lat="48.95424" lon="1.73852">
        <ele>43</ele>
        <time>2023-01-29T06:26:46.634Z</time>
      </trkpt>
      <trkpt lat="48.95429" lon="1.73844">
        <ele>43</ele>
        <time>2023-01-29T06:26:51.307Z</time>
      </trkpt>
      <trkpt lat="48.95432" lon="1.73835">
        <ele>42</ele>
        <time>2023-01-29T06:26:55.302Z</time>
      </trkpt>
      <trkpt lat="48.95435" lon="1.73826">
        <ele>42</ele>
        <time>2023-01-29T06:26:59.642Z</time>
      </trkpt>
      <trkpt lat="48.95438" lon="1.7382">
        <ele>42</ele>
        <time>2023-01-29T06:27:03.443Z</time>
      </trkpt>
      <trkpt lat="48.95443" lon="1.73809">
        <ele>42</ele>
        <time>2023-01-29T06:27:07.999Z</time>
      </trkpt>
      <trkpt lat="48.95448" lon="1.73798">
        <ele>42</ele>
        <time>2023-01-29T06:27:12.466Z</time>
      </trkpt>
      <trkpt lat="48.95452" lon="1.73789">
        <ele>42</ele>
        <time>2023-01-29T06:27:16.329Z</time>
      </trkpt>
      <trkpt lat="48.95455" lon="1.73779">
        <ele>42</ele>
        <time>2023-01-29T06:27:20.836Z</time>
      </trkpt>
      <trkpt lat="48.95459" lon="1.7377">
        <ele>42</ele>
        <time>2023-01-29T06:27:25.411Z</time>
      </trkpt>
      <trkpt lat="48.95462" lon="1.73761">
        <ele>42</ele>
        <time>2023-01-29T06:27:29.944Z</time>
      </trkpt>
      <trkpt lat="48.95465" lon="1.73754">
        <ele>42</ele>
        <time>2023-01-29T06:27:33.792Z</time>
      </trkpt>
      <trkpt lat="48.95469" lon="1.73745">
        <ele>42</ele>
        <time>2023-01-29T06:27:38.340Z</time>
      </trkpt>
      <trkpt lat="48.95473" lon="1.73735">
        <ele>42</ele>
        <time>2023-01-29T06:27:42.409Z</time>
      </trkpt>
      <trkpt lat="48.95476" lon="1.73726">
        <ele>42</ele>
        <time>2023-01-29T06:27:46.359Z</time>
      </trkpt>
      <trkpt lat="48.95479" lon="1.73717">
        <ele>42</ele>
        <time>2023-01-29T06:27:50.372Z</time>
      </trkpt>
      <trkpt lat="48.95482" lon="1.73707">
        <ele>40</ele>
        <time>2023-01-29T06:27:54.836Z</time>
      </trkpt>
      <trkpt lat="48.95485" lon="1.73698">
        <ele>40</ele>
        <time>2023-01-29T06:27:59.421Z</time>
      </trkpt>
      <trkpt lat="48.9549" lon="1.73689">
        <ele>40</ele>
        <time>2023-01-29T06:28:03.971Z</time>
      </trkpt>
      <trkpt lat="48.95495" lon="1.73678">
        <ele>39</ele>
        <time>2023-01-29T06:28:08.521Z</time>
      </trkpt>
      <trkpt lat="48.95499" lon="1.73668">
        <ele>39</ele>
        <time>2023-01-29T06:28:12.951Z</time>
      </trkpt>
      <trkpt lat="48.95503" lon="1.73657">
        <ele>39</ele>
        <time>2023-01-29T06:28:17.926Z</time>
      </trkpt>
      <trkpt lat="48.95506" lon="1.73647">
        <ele>38</ele>
        <time>2023-01-29T06:28:22.390Z</time>
      </trkpt>
      <trkpt lat="48.95508" lon="1.73639">
        <ele>38</ele>
        <time>2023-01-29T06:28:26.342Z</time>
      </trkpt>
      <trkpt lat="48.95511" lon="1.7363">
        <ele>38</ele>
        <time>2023-01-29T06:28:30.414Z</time>
      </trkpt>
      <trkpt lat="48.95514" lon="1.7362">
        <ele>38</ele>
        <time>2023-01-29T06:28:34.365Z</time>
      </trkpt>
      <trkpt lat="48.95518" lon="1.73611">
        <ele>38</ele>
        <time>2023-01-29T06:28:38.436Z</time>
      </trkpt>
      <trkpt lat="48.95522" lon="1.73603">
        <ele>38</ele>
        <time>2023-01-29T06:28:42.866Z</time>
      </trkpt>
      <trkpt lat="48.95525" lon="1.73592">
        <ele>37</ele>
        <time>2023-01-29T06:28:47.415Z</time>
      </trkpt>
      <trkpt lat="48.95529" lon="1.73583">
        <ele>37</ele>
        <time>2023-01-29T06:28:51.903Z</time>
      </trkpt>
      <trkpt lat="48.95532" lon="1.73574">
        <ele>37</ele>
        <time>2023-01-29T06:28:55.836Z</time>
      </trkpt>
      <trkpt lat="48.95535" lon="1.73564">
        <ele>36</ele>
        <time>2023-01-29T06:28:59.836Z</time>
      </trkpt>
      <trkpt lat="48.95538" lon="1.73555">
        <ele>36</ele>
        <time>2023-01-29T06:29:03.836Z</time>
      </trkpt>
      <trkpt lat="48.95542" lon="1.73546">
        <ele>33</ele>
        <time>2023-01-29T06:29:08.345Z</time>
      </trkpt>
      <trkpt lat="48.95546" lon="1.73536">
        <ele>32</ele>
        <time>2023-01-29T06:29:12.836Z</time>
      </trkpt>
      <trkpt lat="48.9555" lon="1.73526">
        <ele>32</ele>
        <time>2023-01-29T06:29:17.444Z</time>
      </trkpt>
      <trkpt lat="48.95553" lon="1.73516">
        <ele>32</ele>
        <time>2023-01-29T06:29:21.916Z</time>
      </trkpt>
      <trkpt lat="48.95558" lon="1.73507">
        <ele>31</ele>
        <time>2023-01-29T06:29:25.836Z</time>
      </trkpt>
      <trkpt lat="48.95562" lon="1.73497">
        <ele>31</ele>
        <time>2023-01-29T06:29:30.438Z</time>
      </trkpt>
      <trkpt lat="48.95565" lon="1.73488">
        <ele>31</ele>
        <time>2023-01-29T06:29:34.627Z</time>
      </trkpt>
      <trkpt lat="48.95569" lon="1.73479">
        <ele>31</ele>
        <time>2023-01-29T06:29:39.174Z</time>
      </trkpt>
      <trkpt lat="48.95573" lon="1.73469">
        <ele>31</ele>
        <time>2023-01-29T06:29:43.722Z</time>
      </trkpt>
      <trkpt lat="48.95576" lon="1.73459">
        <ele>31</ele>
        <time>2023-01-29T06:29:47.634Z</time>
      </trkpt>
      <trkpt lat="48.95579" lon="1.7345">
        <ele>31</ele>
        <time>2023-01-29T06:29:51.822Z</time>
      </trkpt>
      <trkpt lat="48.95583" lon="1.7344">
        <ele>31</ele>
        <time>2023-01-29T06:29:56.368Z</time>
      </trkpt>
      <trkpt lat="48.95587" lon="1.7343">
        <ele>31</ele>
        <time>2023-01-29T06:30:00.836Z</time>
      </trkpt>
      <trkpt lat="48.95589" lon="1.7342">
        <ele>31</ele>
        <time>2023-01-29T06:30:05.223Z</time>
      </trkpt>
      <trkpt lat="48.95592" lon="1.7341">
        <ele>31</ele>
        <time>2023-01-29T06:30:09.873Z</time>
      </trkpt>
      <trkpt lat="48.95594" lon="1.734">
        <ele>31</ele>
        <time>2023-01-29T06:30:13.836Z</time>
      </trkpt>
      <trkpt lat="48.95594" lon="1.73392">
        <ele>31</ele>
        <time>2023-01-29T06:30:17.836Z</time>
      </trkpt>
      <trkpt lat="48.956" lon="1.73384">
        <ele>31</ele>
        <time>2023-01-29T06:30:22.529Z</time>
      </trkpt>
      <trkpt lat="48.95606" lon="1.73378">
        <ele>31</ele>
        <time>2023-01-29T06:30:27.084Z</time>
      </trkpt>
      <trkpt lat="48.95615" lon="1.73375">
        <ele>31</ele>
        <time>2023-01-29T06:30:31.754Z</time>
      </trkpt>
      <trkpt lat="48.95621" lon="1.73371">
        <ele>31</ele>
        <time>2023-01-29T06:30:36.263Z</time>
      </trkpt>
      <trkpt lat="48.95626" lon="1.73367">
        <ele>32</ele>
        <time>2023-01-29T06:30:40.811Z</time>
      </trkpt>
      <trkpt lat="48.95632" lon="1.73365">
        <ele>32</ele>
        <time>2023-01-29T06:30:44.836Z</time>
      </trkpt>
      <trkpt lat="48.95638" lon="1.73361">
        <ele>32</ele>
        <time>2023-01-29T06:30:48.832Z</time>
      </trkpt>
      <trkpt lat="48.95643" lon="1.73359">
        <ele>32</ele>
        <time>2023-01-29T06:30:52.836Z</time>
      </trkpt>
      <trkpt lat="48.9565" lon="1.73357">
        <ele>32</ele>
        <time>2023-01-29T06:30:57.467Z</time>
      </trkpt>
      <trkpt lat="48.95655" lon="1.73351">
        <ele>33</ele>
        <time>2023-01-29T06:31:01.527Z</time>
      </trkpt>
      <trkpt lat="48.95663" lon="1.73349">
        <ele>33</ele>
        <time>2023-01-29T06:31:05.957Z</time>
      </trkpt>
      <trkpt lat="48.9567" lon="1.73345">
        <ele>32</ele>
        <time>2023-01-29T06:31:10.600Z</time>
      </trkpt>
      <trkpt lat="48.95676" lon="1.73343">
        <ele>32</ele>
        <time>2023-01-29T06:31:14.576Z</time>
      </trkpt>
      <trkpt lat="48.95681" lon="1.73344">
        <ele>32</ele>
        <time>2023-01-29T06:31:18.928Z</time>
      </trkpt>
      <trkpt lat="48.95685" lon="1.73348">
        <ele>34</ele>
        <time>2023-01-29T06:31:22.836Z</time>
      </trkpt>
      <trkpt lat="48.95692" lon="1.73345">
        <ele>32</ele>
        <time>2023-01-29T06:31:27.388Z</time>
      </trkpt>
      <trkpt lat="48.95699" lon="1.73344">
        <ele>32</ele>
        <time>2023-01-29T06:31:32.297Z</time>
      </trkpt>
      <trkpt lat="48.95705" lon="1.73341">
        <ele>32</ele>
        <time>2023-01-29T06:31:36.836Z</time>
      </trkpt>
      <trkpt lat="48.95712" lon="1.7334">
        <ele>35</ele>
        <time>2023-01-29T06:31:41.035Z</time>
      </trkpt>
      <trkpt lat="48.9572" lon="1.73338">
        <ele>35</ele>
        <time>2023-01-29T06:31:45.463Z</time>
      </trkpt>
      <trkpt lat="48.95726" lon="1.73336">
        <ele>35</ele>
        <time>2023-01-29T06:31:50.114Z</time>
      </trkpt>
      <trkpt lat="48.95733" lon="1.73335">
        <ele>35</ele>
        <time>2023-01-29T06:31:54.128Z</time>
      </trkpt>
      <trkpt lat="48.95739" lon="1.73334">
        <ele>36</ele>
        <time>2023-01-29T06:31:58.185Z</time>
      </trkpt>
      <trkpt lat="48.95745" lon="1.73333">
        <ele>36</ele>
        <time>2023-01-29T06:32:02.662Z</time>
      </trkpt>
      <trkpt lat="48.9575" lon="1.73332">
        <ele>36</ele>
        <time>2023-01-29T06:32:06.731Z</time>
      </trkpt>
      <trkpt lat="48.95757" lon="1.7333">
        <ele>36</ele>
        <time>2023-01-29T06:32:11.281Z</time>
      </trkpt>
      <trkpt lat="48.95764" lon="1.7333">
        <ele>36</ele>
        <time>2023-01-29T06:32:15.711Z</time>
      </trkpt>
      <trkpt lat="48.95769" lon="1.73329">
        <ele>34</ele>
        <time>2023-01-29T06:32:19.660Z</time>
      </trkpt>
      <trkpt lat="48.95776" lon="1.73328">
        <ele>34</ele>
        <time>2023-01-29T06:32:24.089Z</time>
      </trkpt>
      <trkpt lat="48.95785" lon="1.73326">
        <ele>34</ele>
        <time>2023-01-29T06:32:28.638Z</time>
      </trkpt>
      <trkpt lat="48.95791" lon="1.73324">
        <ele>34</ele>
        <time>2023-01-29T06:32:32.708Z</time>
      </trkpt>
      <trkpt lat="48.95799" lon="1.73323">
        <ele>32</ele>
        <time>2023-01-29T06:32:36.836Z</time>
      </trkpt>
      <trkpt lat="48.95807" lon="1.73322">
        <ele>32</ele>
        <time>2023-01-29T06:32:41.324Z</time>
      </trkpt>
      <trkpt lat="48.95815" lon="1.73321">
        <ele>32</ele>
        <time>2023-01-29T06:32:45.836Z</time>
      </trkpt>
      <trkpt lat="48.95823" lon="1.73319">
        <ele>33</ele>
        <time>2023-01-29T06:32:50.415Z</time>
      </trkpt>
      <trkpt lat="48.9583" lon="1.73319">
        <ele>30</ele>
        <time>2023-01-29T06:32:54.892Z</time>
      </trkpt>
      <trkpt lat="48.95837" lon="1.73318">
        <ele>30</ele>
        <time>2023-01-29T06:32:58.961Z</time>
      </trkpt>
      <trkpt lat="48.95843" lon="1.73317">
        <ele>30</ele>
        <time>2023-01-29T06:33:02.977Z</time>
      </trkpt>
      <trkpt lat="48.9585" lon="1.73313">
        <ele>31</ele>
        <time>2023-01-29T06:33:06.836Z</time>
      </trkpt>
      <trkpt lat="48.95858" lon="1.73312">
        <ele>31</ele>
        <time>2023-01-29T06:33:11.353Z</time>
      </trkpt>
      <trkpt lat="48.95865" lon="1.7331">
        <ele>31</ele>
        <time>2023-01-29T06:33:15.943Z</time>
      </trkpt>
      <trkpt lat="48.95871" lon="1.73308">
        <ele>31</ele>
        <time>2023-01-29T06:33:19.969Z</time>
      </trkpt>
      <trkpt lat="48.95878" lon="1.73305">
        <ele>31</ele>
        <time>2023-01-29T06:33:24.036Z</time>
      </trkpt>
      <trkpt lat="48.95885" lon="1.73303">
        <ele>31</ele>
        <time>2023-01-29T06:33:28.224Z</time>
      </trkpt>
      <trkpt lat="48.95892" lon="1.73299">
        <ele>31</ele>
        <time>2023-01-29T06:33:32.652Z</time>
      </trkpt>
      <trkpt lat="48.959" lon="1.73296">
        <ele>31</ele>
        <time>2023-01-29T06:33:37.803Z</time>
      </trkpt>
      <trkpt lat="48.95907" lon="1.73292">
        <ele>32</ele>
        <time>2023-01-29T06:33:42.328Z</time>
      </trkpt>
      <trkpt lat="48.95915" lon="1.73289">
        <ele>30</ele>
        <time>2023-01-29T06:33:46.755Z</time>
      </trkpt>
      <trkpt lat="48.95921" lon="1.73287">
        <ele>30</ele>
        <time>2023-01-29T06:33:51.422Z</time>
      </trkpt>
      <trkpt lat="48.95927" lon="1.73283">
        <ele>30</ele>
        <time>2023-01-29T06:33:55.942Z</time>
      </trkpt>
      <trkpt lat="48.95933" lon="1.73281">
        <ele>32</ele>
        <time>2023-01-29T06:33:59.836Z</time>
      </trkpt>
      <trkpt lat="48.95939" lon="1.73278">
        <ele>32</ele>
        <time>2023-01-29T06:34:04.345Z</time>
      </trkpt>
      <trkpt lat="48.95947" lon="1.73275">
        <ele>32</ele>
        <time>2023-01-29T06:34:08.771Z</time>
      </trkpt>
      <trkpt lat="48.95953" lon="1.73271">
        <ele>32</ele>
        <time>2023-01-29T06:34:13.317Z</time>
      </trkpt>
      <trkpt lat="48.9596" lon="1.73269">
        <ele>32</ele>
        <time>2023-01-29T06:34:17.145Z</time>
      </trkpt>
      <trkpt lat="48.95966" lon="1.73266">
        <ele>32</ele>
        <time>2023-01-29T06:34:21.691Z</time>
      </trkpt>
      <trkpt lat="48.95973" lon="1.73262">
        <ele>29</ele>
        <time>2023-01-29T06:34:25.742Z</time>
      </trkpt>
      <trkpt lat="48.95979" lon="1.73258">
        <ele>29</ele>
        <time>2023-01-29T06:34:29.810Z</time>
      </trkpt>
      <trkpt lat="48.95987" lon="1.73255">
        <ele>29</ele>
        <time>2023-01-29T06:34:34.904Z</time>
      </trkpt>
      <trkpt lat="48.95993" lon="1.73253">
        <ele>29</ele>
        <time>2023-01-29T06:34:38.943Z</time>
      </trkpt>
      <trkpt lat="48.95999" lon="1.7325">
        <ele>29</ele>
        <time>2023-01-29T06:34:42.966Z</time>
      </trkpt>
      <trkpt lat="48.96006" lon="1.73247">
        <ele>29</ele>
        <time>2023-01-29T06:34:47.630Z</time>
      </trkpt>
      <trkpt lat="48.96012" lon="1.73242">
        <ele>29</ele>
        <time>2023-01-29T06:34:52.294Z</time>
      </trkpt>
      <trkpt lat="48.96018" lon="1.7324">
        <ele>30</ele>
        <time>2023-01-29T06:34:56.804Z</time>
      </trkpt>
      <trkpt lat="48.96025" lon="1.73236">
        <ele>30</ele>
        <time>2023-01-29T06:35:01.246Z</time>
      </trkpt>
      <trkpt lat="48.96031" lon="1.73234">
        <ele>28</ele>
        <time>2023-01-29T06:35:05.671Z</time>
      </trkpt>
      <trkpt lat="48.96038" lon="1.7323">
        <ele>28</ele>
        <time>2023-01-29T06:35:10.215Z</time>
      </trkpt>
      <trkpt lat="48.96045" lon="1.73227">
        <ele>29</ele>
        <time>2023-01-29T06:35:14.889Z</time>
      </trkpt>
      <trkpt lat="48.96051" lon="1.73224">
        <ele>29</ele>
        <time>2023-01-29T06:35:18.836Z</time>
      </trkpt>
      <trkpt lat="48.96058" lon="1.73222">
        <ele>29</ele>
        <time>2023-01-29T06:35:23.358Z</time>
      </trkpt>
      <trkpt lat="48.96064" lon="1.7322">
        <ele>29</ele>
        <time>2023-01-29T06:35:27.306Z</time>
      </trkpt>
      <trkpt lat="48.96072" lon="1.73216">
        <ele>29</ele>
        <time>2023-01-29T06:35:31.733Z</time>
      </trkpt>
      <trkpt lat="48.96079" lon="1.73212">
        <ele>29</ele>
        <time>2023-01-29T06:35:36.224Z</time>
      </trkpt>
      <trkpt lat="48.96086" lon="1.73209">
        <ele>29</ele>
        <time>2023-01-29T06:35:40.229Z</time>
      </trkpt>
      <trkpt lat="48.96092" lon="1.73206">
        <ele>28</ele>
        <time>2023-01-29T06:35:44.417Z</time>
      </trkpt>
      <trkpt lat="48.96099" lon="1.73204">
        <ele>29</ele>
        <time>2023-01-29T06:35:48.367Z</time>
      </trkpt>
      <trkpt lat="48.96105" lon="1.73202">
        <ele>29</ele>
        <time>2023-01-29T06:35:52.436Z</time>
      </trkpt>
      <trkpt lat="48.96112" lon="1.732">
        <ele>29</ele>
        <time>2023-01-29T06:35:56.906Z</time>
      </trkpt>
      <trkpt lat="48.96118" lon="1.73198">
        <ele>29</ele>
        <time>2023-01-29T06:36:00.836Z</time>
      </trkpt>
      <trkpt lat="48.96125" lon="1.73193">
        <ele>28</ele>
        <time>2023-01-29T06:36:05.361Z</time>
      </trkpt>
      <trkpt lat="48.96132" lon="1.73191">
        <ele>28</ele>
        <time>2023-01-29T06:36:10.029Z</time>
      </trkpt>
      <trkpt lat="48.96139" lon="1.73189">
        <ele>28</ele>
        <time>2023-01-29T06:36:13.981Z</time>
      </trkpt>
      <trkpt lat="48.96145" lon="1.73187">
        <ele>28</ele>
        <time>2023-01-29T06:36:18.049Z</time>
      </trkpt>
      <trkpt lat="48.96151" lon="1.73186">
        <ele>28</ele>
        <time>2023-01-29T06:36:22.237Z</time>
      </trkpt>
      <trkpt lat="48.96159" lon="1.73186">
        <ele>26</ele>
        <time>2023-01-29T06:36:26.425Z</time>
      </trkpt>
      <trkpt lat="48.96166" lon="1.73185">
        <ele>26</ele>
        <time>2023-01-29T06:36:30.836Z</time>
      </trkpt>
      <trkpt lat="48.96173" lon="1.73183">
        <ele>26</ele>
        <time>2023-01-29T06:36:35.382Z</time>
      </trkpt>
      <trkpt lat="48.96179" lon="1.73181">
        <ele>26</ele>
        <time>2023-01-29T06:36:39.348Z</time>
      </trkpt>
      <trkpt lat="48.96186" lon="1.73179">
        <ele>26</ele>
        <time>2023-01-29T06:36:43.829Z</time>
      </trkpt>
      <trkpt lat="48.96193" lon="1.73178">
        <ele>26</ele>
        <time>2023-01-29T06:36:47.836Z</time>
      </trkpt>
      <trkpt lat="48.96201" lon="1.73177">
        <ele>26</ele>
        <time>2023-01-29T06:36:52.511Z</time>
      </trkpt>
      <trkpt lat="48.96207" lon="1.73174">
        <ele>26</ele>
        <time>2023-01-29T06:36:57.057Z</time>
      </trkpt>
      <trkpt lat="48.96214" lon="1.73172">
        <ele>26</ele>
        <time>2023-01-29T06:37:01.686Z</time>
      </trkpt>
      <trkpt lat="48.9622" lon="1.7317">
        <ele>26</ele>
        <time>2023-01-29T06:37:05.674Z</time>
      </trkpt>
      <trkpt lat="48.96227" lon="1.73169">
        <ele>26</ele>
        <time>2023-01-29T06:37:09.620Z</time>
      </trkpt>
      <trkpt lat="48.96233" lon="1.73168">
        <ele>26</ele>
        <time>2023-01-29T06:37:13.808Z</time>
      </trkpt>
      <trkpt lat="48.96241" lon="1.73164">
        <ele>24</ele>
        <time>2023-01-29T06:37:18.352Z</time>
      </trkpt>
      <trkpt lat="48.96248" lon="1.73162">
        <ele>24</ele>
        <time>2023-01-29T06:37:22.836Z</time>
      </trkpt>
      <trkpt lat="48.96254" lon="1.7316">
        <ele>24</ele>
        <time>2023-01-29T06:37:26.836Z</time>
      </trkpt>
      <trkpt lat="48.96262" lon="1.7316">
        <ele>24</ele>
        <time>2023-01-29T06:37:31.393Z</time>
      </trkpt>
      <trkpt lat="48.96269" lon="1.73158">
        <ele>22</ele>
        <time>2023-01-29T06:37:35.883Z</time>
      </trkpt>
      <trkpt lat="48.96276" lon="1.73157">
        <ele>22</ele>
        <time>2023-01-29T06:37:40.009Z</time>
      </trkpt>
      <trkpt lat="48.96284" lon="1.73156">
        <ele>22</ele>
        <time>2023-01-29T06:37:44.555Z</time>
      </trkpt>
      <trkpt lat="48.9629" lon="1.73155">
        <ele>22</ele>
        <time>2023-01-29T06:37:48.983Z</time>
      </trkpt>
      <trkpt lat="48.96297" lon="1.73153">
        <ele>23</ele>
        <time>2023-01-29T06:37:52.836Z</time>
      </trkpt>
      <trkpt lat="48.96304" lon="1.73151">
        <ele>24</ele>
        <time>2023-01-29T06:37:57.361Z</time>
      </trkpt>
      <trkpt lat="48.96311" lon="1.7315">
        <ele>24</ele>
        <time>2023-01-29T06:38:01.311Z</time>
      </trkpt>
      <trkpt lat="48.96318" lon="1.7315">
        <ele>24</ele>
        <time>2023-01-29T06:38:05.861Z</time>
      </trkpt>
      <trkpt lat="48.96325" lon="1.73147">
        <ele>24</ele>
        <time>2023-01-29T06:38:09.806Z</time>
      </trkpt>
      <trkpt lat="48.96332" lon="1.73144">
        <ele>24</ele>
        <time>2023-01-29T06:38:14.453Z</time>
      </trkpt>
      <trkpt lat="48.96338" lon="1.73142">
        <ele>24</ele>
        <time>2023-01-29T06:38:18.963Z</time>
      </trkpt>
      <trkpt lat="48.96345" lon="1.73142">
        <ele>24</ele>
        <time>2023-01-29T06:38:22.950Z</time>
      </trkpt>
      <trkpt lat="48.96352" lon="1.73142">
        <ele>24</ele>
        <time>2023-01-29T06:38:27.617Z</time>
      </trkpt>
      <trkpt lat="48.9636" lon="1.73141">
        <ele>24</ele>
        <time>2023-01-29T06:38:32.044Z</time>
      </trkpt>
      <trkpt lat="48.96366" lon="1.7314">
        <ele>24</ele>
        <time>2023-01-29T06:38:36.183Z</time>
      </trkpt>
      <trkpt lat="48.96374" lon="1.73139">
        <ele>24</ele>
        <time>2023-01-29T06:38:40.656Z</time>
      </trkpt>
      <trkpt lat="48.96381" lon="1.73138">
        <ele>26</ele>
        <time>2023-01-29T06:38:45.082Z</time>
      </trkpt>
      <trkpt lat="48.96388" lon="1.73137">
        <ele>26</ele>
        <time>2023-01-29T06:38:49.601Z</time>
      </trkpt>
      <trkpt lat="48.96395" lon="1.73137">
        <ele>26</ele>
        <time>2023-01-29T06:38:53.437Z</time>
      </trkpt>
      <trkpt lat="48.96401" lon="1.73136">
        <ele>26</ele>
        <time>2023-01-29T06:38:57.984Z</time>
      </trkpt>
      <trkpt lat="48.96407" lon="1.73134">
        <ele>27</ele>
        <time>2023-01-29T06:39:01.930Z</time>
      </trkpt>
      <trkpt lat="48.96414" lon="1.73133">
        <ele>27</ele>
        <time>2023-01-29T06:39:06.410Z</time>
      </trkpt>
      <trkpt lat="48.96421" lon="1.73132">
        <ele>27</ele>
        <time>2023-01-29T06:39:10.302Z</time>
      </trkpt>
      <trkpt lat="48.96427" lon="1.73132">
        <ele>27</ele>
        <time>2023-01-29T06:39:14.763Z</time>
      </trkpt>
      <trkpt lat="48.96434" lon="1.73132">
        <ele>27</ele>
        <time>2023-01-29T06:39:18.676Z</time>
      </trkpt>
      <trkpt lat="48.96441" lon="1.73133">
        <ele>27</ele>
        <time>2023-01-29T06:39:22.743Z</time>
      </trkpt>
      <trkpt lat="48.96448" lon="1.73133">
        <ele>27</ele>
        <time>2023-01-29T06:39:26.810Z</time>
      </trkpt>
      <trkpt lat="48.96455" lon="1.73131">
        <ele>27</ele>
        <time>2023-01-29T06:39:31.340Z</time>
      </trkpt>
      <trkpt lat="48.96463" lon="1.73131">
        <ele>26</ele>
        <time>2023-01-29T06:39:35.305Z</time>
      </trkpt>
      <trkpt lat="48.9647" lon="1.73132">
        <ele>26</ele>
        <time>2023-01-29T06:39:39.825Z</time>
      </trkpt>
      <trkpt lat="48.96476" lon="1.73133">
        <ele>26</ele>
        <time>2023-01-29T06:39:43.680Z</time>
      </trkpt>
      <trkpt lat="48.96483" lon="1.73135">
        <ele>26</ele>
        <time>2023-01-29T06:39:48.141Z</time>
      </trkpt>
      <trkpt lat="48.96488" lon="1.73137">
        <ele>24</ele>
        <time>2023-01-29T06:39:52.135Z</time>
      </trkpt>
      <trkpt lat="48.96495" lon="1.73136">
        <ele>24</ele>
        <time>2023-01-29T06:39:56.222Z</time>
      </trkpt>
      <trkpt lat="48.96501" lon="1.73134">
        <ele>24</ele>
        <time>2023-01-29T06:40:00.350Z</time>
      </trkpt>
      <trkpt lat="48.96507" lon="1.73132">
        <ele>24</ele>
        <time>2023-01-29T06:40:04.742Z</time>
      </trkpt>
      <trkpt lat="48.96515" lon="1.7313">
        <ele>23</ele>
        <time>2023-01-29T06:40:09.836Z</time>
      </trkpt>
      <trkpt lat="48.96523" lon="1.73129">
        <ele>23</ele>
        <time>2023-01-29T06:40:14.444Z</time>
      </trkpt>
      <trkpt lat="48.9653" lon="1.7313">
        <ele>23</ele>
        <time>2023-01-29T06:40:18.636Z</time>
      </trkpt>
      <trkpt lat="48.96537" lon="1.73129">
        <ele>23</ele>
        <time>2023-01-29T06:40:22.829Z</time>
      </trkpt>
      <trkpt lat="48.96542" lon="1.7313">
        <ele>24</ele>
        <time>2023-01-29T06:40:27.379Z</time>
      </trkpt>
      <trkpt lat="48.96551" lon="1.73129">
        <ele>24</ele>
        <time>2023-01-29T06:40:32Z</time>
      </trkpt>
      <trkpt lat="48.96557" lon="1.73126">
        <ele>24</ele>
        <time>2023-01-29T06:40:36.361Z</time>
      </trkpt>
      <trkpt lat="48.96564" lon="1.73125">
        <ele>23</ele>
        <time>2023-01-29T06:40:40.429Z</time>
      </trkpt>
      <trkpt lat="48.96572" lon="1.73124">
        <ele>25</ele>
        <time>2023-01-29T06:40:44.958Z</time>
      </trkpt>
      <trkpt lat="48.9658" lon="1.73122">
        <ele>25</ele>
        <time>2023-01-29T06:40:49.506Z</time>
      </trkpt>
      <trkpt lat="48.96587" lon="1.7312">
        <ele>25</ele>
        <time>2023-01-29T06:40:54.118Z</time>
      </trkpt>
      <trkpt lat="48.96594" lon="1.73116">
        <ele>25</ele>
        <time>2023-01-29T06:40:58.244Z</time>
      </trkpt>
      <trkpt lat="48.96602" lon="1.73112">
        <ele>24</ele>
        <time>2023-01-29T06:41:02.671Z</time>
      </trkpt>
      <trkpt lat="48.96609" lon="1.73109">
        <ele>24</ele>
        <time>2023-01-29T06:41:06.619Z</time>
      </trkpt>
      <trkpt lat="48.96616" lon="1.73107">
        <ele>24</ele>
        <time>2023-01-29T06:41:11.287Z</time>
      </trkpt>
      <trkpt lat="48.96623" lon="1.73102">
        <ele>24</ele>
        <time>2023-01-29T06:41:15.836Z</time>
      </trkpt>
      <trkpt lat="48.9663" lon="1.73101">
        <ele>24</ele>
        <time>2023-01-29T06:41:20.503Z</time>
      </trkpt>
      <trkpt lat="48.96639" lon="1.73099">
        <ele>24</ele>
        <time>2023-01-29T06:41:25.099Z</time>
      </trkpt>
      <trkpt lat="48.96646" lon="1.73097">
        <ele>24</ele>
        <time>2023-01-29T06:41:28.618Z</time>
      </trkpt>
      <trkpt lat="48.96653" lon="1.73092">
        <ele>23</ele>
        <time>2023-01-29T06:41:33.621Z</time>
      </trkpt>
      <trkpt lat="48.9666" lon="1.73091">
        <ele>23</ele>
        <time>2023-01-29T06:41:37.570Z</time>
      </trkpt>
      <trkpt lat="48.96667" lon="1.73088">
        <ele>23</ele>
        <time>2023-01-29T06:41:41.639Z</time>
      </trkpt>
      <trkpt lat="48.96673" lon="1.73086">
        <ele>23</ele>
        <time>2023-01-29T06:41:45.468Z</time>
      </trkpt>
      <trkpt lat="48.9668" lon="1.73082">
        <ele>23</ele>
        <time>2023-01-29T06:41:50.016Z</time>
      </trkpt>
      <trkpt lat="48.96688" lon="1.7308">
        <ele>24</ele>
        <time>2023-01-29T06:41:54.563Z</time>
      </trkpt>
      <trkpt lat="48.96694" lon="1.73076">
        <ele>24</ele>
        <time>2023-01-29T06:41:58.989Z</time>
      </trkpt>
      <trkpt lat="48.967" lon="1.73074">
        <ele>24</ele>
        <time>2023-01-29T06:42:02.937Z</time>
      </trkpt>
      <trkpt lat="48.96706" lon="1.73071">
        <ele>24</ele>
        <time>2023-01-29T06:42:06.836Z</time>
      </trkpt>
      <trkpt lat="48.96713" lon="1.73068">
        <ele>27</ele>
        <time>2023-01-29T06:42:11.384Z</time>
      </trkpt>
      <trkpt lat="48.96719" lon="1.73066">
        <ele>27</ele>
        <time>2023-01-29T06:42:15.363Z</time>
      </trkpt>
      <trkpt lat="48.96726" lon="1.73062">
        <ele>27</ele>
        <time>2023-01-29T06:42:19.836Z</time>
      </trkpt>
      <trkpt lat="48.96732" lon="1.73058">
        <ele>27</ele>
        <time>2023-01-29T06:42:23.836Z</time>
      </trkpt>
      <trkpt lat="48.96738" lon="1.73053">
        <ele>28</ele>
        <time>2023-01-29T06:42:27.811Z</time>
      </trkpt>
      <trkpt lat="48.96744" lon="1.73049">
        <ele>28</ele>
        <time>2023-01-29T06:42:31.836Z</time>
      </trkpt>
      <trkpt lat="48.96752" lon="1.73048">
        <ele>28</ele>
        <time>2023-01-29T06:42:36.309Z</time>
      </trkpt>
      <trkpt lat="48.9676" lon="1.73046">
        <ele>28</ele>
        <time>2023-01-29T06:42:40.836Z</time>
      </trkpt>
      <trkpt lat="48.96767" lon="1.73044">
        <ele>27</ele>
        <time>2023-01-29T06:42:44.688Z</time>
      </trkpt>
      <trkpt lat="48.96774" lon="1.73041">
        <ele>29</ele>
        <time>2023-01-29T06:42:49.237Z</time>
      </trkpt>
      <trkpt lat="48.96782" lon="1.73039">
        <ele>29</ele>
        <time>2023-01-29T06:42:53.427Z</time>
      </trkpt>
      <trkpt lat="48.96789" lon="1.73037">
        <ele>29</ele>
        <time>2023-01-29T06:42:58.216Z</time>
      </trkpt>
      <trkpt lat="48.96797" lon="1.73033">
        <ele>28</ele>
        <time>2023-01-29T06:43:02.645Z</time>
      </trkpt>
      <trkpt lat="48.96804" lon="1.7303">
        <ele>28</ele>
        <time>2023-01-29T06:43:07.434Z</time>
      </trkpt>
      <trkpt lat="48.96812" lon="1.73027">
        <ele>28</ele>
        <time>2023-01-29T06:43:11.945Z</time>
      </trkpt>
      <trkpt lat="48.9682" lon="1.73024">
        <ele>25</ele>
        <time>2023-01-29T06:43:16.964Z</time>
      </trkpt>
      <trkpt lat="48.96826" lon="1.73021">
        <ele>25</ele>
        <time>2023-01-29T06:43:20.903Z</time>
      </trkpt>
      <trkpt lat="48.96833" lon="1.73018">
        <ele>25</ele>
        <time>2023-01-29T06:43:25.574Z</time>
      </trkpt>
      <trkpt lat="48.9684" lon="1.73017">
        <ele>25</ele>
        <time>2023-01-29T06:43:30.123Z</time>
      </trkpt>
      <trkpt lat="48.96848" lon="1.73014">
        <ele>22</ele>
        <time>2023-01-29T06:43:34.793Z</time>
      </trkpt>
      <trkpt lat="48.96855" lon="1.73011">
        <ele>22</ele>
        <time>2023-01-29T06:43:39.344Z</time>
      </trkpt>
      <trkpt lat="48.96863" lon="1.73009">
        <ele>22</ele>
        <time>2023-01-29T06:43:44.416Z</time>
      </trkpt>
      <trkpt lat="48.9687" lon="1.73007">
        <ele>22</ele>
        <time>2023-01-29T06:43:48.607Z</time>
      </trkpt>
      <trkpt lat="48.96877" lon="1.73006">
        <ele>21</ele>
        <time>2023-01-29T06:43:53.102Z</time>
      </trkpt>
      <trkpt lat="48.96884" lon="1.73007">
        <ele>21</ele>
        <time>2023-01-29T06:43:57.224Z</time>
      </trkpt>
      <trkpt lat="48.96892" lon="1.73008">
        <ele>21</ele>
        <time>2023-01-29T06:44:01.651Z</time>
      </trkpt>
      <trkpt lat="48.96899" lon="1.73007">
        <ele>21</ele>
        <time>2023-01-29T06:44:06.133Z</time>
      </trkpt>
      <trkpt lat="48.96907" lon="1.73007">
        <ele>24</ele>
        <time>2023-01-29T06:44:10.623Z</time>
      </trkpt>
      <trkpt lat="48.96914" lon="1.73006">
        <ele>24</ele>
        <time>2023-01-29T06:44:14.692Z</time>
      </trkpt>
      <trkpt lat="48.96921" lon="1.73006">
        <ele>24</ele>
        <time>2023-01-29T06:44:18.641Z</time>
      </trkpt>
      <trkpt lat="48.96928" lon="1.73008">
        <ele>24</ele>
        <time>2023-01-29T06:44:22.709Z</time>
      </trkpt>
      <trkpt lat="48.96934" lon="1.7301">
        <ele>27</ele>
        <time>2023-01-29T06:44:27.256Z</time>
      </trkpt>
      <trkpt lat="48.96941" lon="1.73012">
        <ele>27</ele>
        <time>2023-01-29T06:44:31.804Z</time>
      </trkpt>
      <trkpt lat="48.96948" lon="1.73013">
        <ele>27</ele>
        <time>2023-01-29T06:44:36.332Z</time>
      </trkpt>
      <trkpt lat="48.96955" lon="1.73015">
        <ele>25</ele>
        <time>2023-01-29T06:44:40.158Z</time>
      </trkpt>
      <trkpt lat="48.96962" lon="1.73017">
        <ele>26</ele>
        <time>2023-01-29T06:44:44.822Z</time>
      </trkpt>
      <trkpt lat="48.96968" lon="1.73018">
        <ele>26</ele>
        <time>2023-01-29T06:44:48.836Z</time>
      </trkpt>
      <trkpt lat="48.96975" lon="1.73019">
        <ele>26</ele>
        <time>2023-01-29T06:44:53.281Z</time>
      </trkpt>
      <trkpt lat="48.96983" lon="1.73022">
        <ele>26</ele>
        <time>2023-01-29T06:44:57.621Z</time>
      </trkpt>
      <trkpt lat="48.96989" lon="1.73023">
        <ele>27</ele>
        <time>2023-01-29T06:45:02.087Z</time>
      </trkpt>
      <trkpt lat="48.96997" lon="1.73024">
        <ele>27</ele>
        <time>2023-01-29T06:45:06.238Z</time>
      </trkpt>
      <trkpt lat="48.97004" lon="1.73026">
        <ele>27</ele>
        <time>2023-01-29T06:45:10.664Z</time>
      </trkpt>
      <trkpt lat="48.97009" lon="1.73028">
        <ele>27</ele>
        <time>2023-01-29T06:45:15.113Z</time>
      </trkpt>
      <trkpt lat="48.97017" lon="1.7303">
        <ele>24</ele>
        <time>2023-01-29T06:45:19.638Z</time>
      </trkpt>
      <trkpt lat="48.97024" lon="1.73031">
        <ele>24</ele>
        <time>2023-01-29T06:45:24.247Z</time>
      </trkpt>
      <trkpt lat="48.97032" lon="1.73032">
        <ele>24</ele>
        <time>2023-01-29T06:45:28.728Z</time>
      </trkpt>
      <trkpt lat="48.97039" lon="1.73034">
        <ele>24</ele>
        <time>2023-01-29T06:45:33.274Z</time>
      </trkpt>
      <trkpt lat="48.97046" lon="1.73036">
        <ele>26</ele>
        <time>2023-01-29T06:45:37.341Z</time>
      </trkpt>
      <trkpt lat="48.97052" lon="1.73036">
        <ele>26</ele>
        <time>2023-01-29T06:45:41.768Z</time>
      </trkpt>
      <trkpt lat="48.97058" lon="1.73036">
        <ele>26</ele>
        <time>2023-01-29T06:45:46.434Z</time>
      </trkpt>
      <trkpt lat="48.97066" lon="1.73036">
        <ele>26</ele>
        <time>2023-01-29T06:45:50.964Z</time>
      </trkpt>
      <trkpt lat="48.97071" lon="1.73037">
        <ele>32</ele>
        <time>2023-01-29T06:45:55.050Z</time>
      </trkpt>
      <trkpt lat="48.97077" lon="1.7304">
        <ele>32</ele>
        <time>2023-01-29T06:45:59.718Z</time>
      </trkpt>
      <trkpt lat="48.97083" lon="1.73042">
        <ele>28</ele>
        <time>2023-01-29T06:46:04.220Z</time>
      </trkpt>
      <trkpt lat="48.97091" lon="1.73044">
        <ele>28</ele>
        <time>2023-01-29T06:46:08.678Z</time>
      </trkpt>
      <trkpt lat="48.97098" lon="1.73046">
        <ele>28</ele>
        <time>2023-01-29T06:46:13.221Z</time>
      </trkpt>
      <trkpt lat="48.97105" lon="1.73047">
        <ele>28</ele>
        <time>2023-01-29T06:46:17.259Z</time>
      </trkpt>
      <trkpt lat="48.97113" lon="1.73049">
        <ele>28</ele>
        <time>2023-01-29T06:46:21.809Z</time>
      </trkpt>
      <trkpt lat="48.9712" lon="1.73049">
        <ele>28</ele>
        <time>2023-01-29T06:46:26.342Z</time>
      </trkpt>
      <trkpt lat="48.97127" lon="1.73051">
        <ele>30</ele>
        <time>2023-01-29T06:46:30.836Z</time>
      </trkpt>
      <trkpt lat="48.97135" lon="1.73051">
        <ele>30</ele>
        <time>2023-01-29T06:46:35.423Z</time>
      </trkpt>
      <trkpt lat="48.97142" lon="1.73052">
        <ele>30</ele>
        <time>2023-01-29T06:46:39.952Z</time>
      </trkpt>
      <trkpt lat="48.97149" lon="1.73054">
        <ele>30</ele>
        <time>2023-01-29T06:46:43.836Z</time>
      </trkpt>
      <trkpt lat="48.97155" lon="1.73056">
        <ele>30</ele>
        <time>2023-01-29T06:46:48.382Z</time>
      </trkpt>
      <trkpt lat="48.97162" lon="1.73057">
        <ele>30</ele>
        <time>2023-01-29T06:46:52.395Z</time>
      </trkpt>
      <trkpt lat="48.97169" lon="1.73059">
        <ele>30</ele>
        <time>2023-01-29T06:46:56.344Z</time>
      </trkpt>
      <trkpt lat="48.97176" lon="1.73061">
        <ele>30</ele>
        <time>2023-01-29T06:47:00.836Z</time>
      </trkpt>
      <trkpt lat="48.97183" lon="1.73062">
        <ele>33</ele>
        <time>2023-01-29T06:47:05.402Z</time>
      </trkpt>
      <trkpt lat="48.9719" lon="1.73064">
        <ele>33</ele>
        <time>2023-01-29T06:47:09.933Z</time>
      </trkpt>
      <trkpt lat="48.97196" lon="1.73065">
        <ele>33</ele>
        <time>2023-01-29T06:47:14.525Z</time>
      </trkpt>
      <trkpt lat="48.97202" lon="1.73066">
        <ele>33</ele>
        <time>2023-01-29T06:47:18.669Z</time>
      </trkpt>
      <trkpt lat="48.97208" lon="1.73068">
        <ele>33</ele>
        <time>2023-01-29T06:47:22.738Z</time>
      </trkpt>
      <trkpt lat="48.97215" lon="1.7307">
        <ele>33</ele>
        <time>2023-01-29T06:47:27.098Z</time>
      </trkpt>
      <trkpt lat="48.9722" lon="1.73069">
        <ele>33</ele>
        <time>2023-01-29T06:47:31.474Z</time>
      </trkpt>
      <trkpt lat="48.97227" lon="1.73065">
        <ele>35</ele>
        <time>2023-01-29T06:47:36.106Z</time>
      </trkpt>
      <trkpt lat="48.97235" lon="1.73062">
        <ele>35</ele>
        <time>2023-01-29T06:47:40.605Z</time>
      </trkpt>
      <trkpt lat="48.97244" lon="1.7306">
        <ele>35</ele>
        <time>2023-01-29T06:47:44.697Z</time>
      </trkpt>
      <trkpt lat="48.97253" lon="1.73059">
        <ele>35</ele>
        <time>2023-01-29T06:47:48.647Z</time>
      </trkpt>
      <trkpt lat="48.97262" lon="1.73061">
        <ele>35</ele>
        <time>2023-01-29T06:47:52.714Z</time>
      </trkpt>
      <trkpt lat="48.9727" lon="1.7307">
        <ele>32</ele>
        <time>2023-01-29T06:47:57.166Z</time>
      </trkpt>
      <trkpt lat="48.97276" lon="1.73081">
        <ele>32</ele>
        <time>2023-01-29T06:48:01.136Z</time>
      </trkpt>
      <trkpt lat="48.97282" lon="1.73081">
        <ele>32</ele>
        <time>2023-01-29T06:48:05.634Z</time>
      </trkpt>
      <trkpt lat="48.97289" lon="1.73082">
        <ele>32</ele>
        <time>2023-01-29T06:48:10.181Z</time>
      </trkpt>
      <trkpt lat="48.97297" lon="1.73084">
        <ele>32</ele>
        <time>2023-01-29T06:48:14.779Z</time>
      </trkpt>
      <trkpt lat="48.97304" lon="1.73085">
        <ele>32</ele>
        <time>2023-01-29T06:48:18.674Z</time>
      </trkpt>
      <trkpt lat="48.97311" lon="1.73086">
        <ele>32</ele>
        <time>2023-01-29T06:48:23.339Z</time>
      </trkpt>
      <trkpt lat="48.97318" lon="1.73088">
        <ele>32</ele>
        <time>2023-01-29T06:48:28.005Z</time>
      </trkpt>
      <trkpt lat="48.97325" lon="1.7309">
        <ele>34</ele>
        <time>2023-01-29T06:48:32.486Z</time>
      </trkpt>
      <trkpt lat="48.97332" lon="1.7309">
        <ele>34</ele>
        <time>2023-01-29T06:48:36.846Z</time>
      </trkpt>
      <trkpt lat="48.97339" lon="1.73092">
        <ele>34</ele>
        <time>2023-01-29T06:48:40.836Z</time>
      </trkpt>
      <trkpt lat="48.97345" lon="1.73093">
        <ele>34</ele>
        <time>2023-01-29T06:48:45.319Z</time>
      </trkpt>
      <trkpt lat="48.97352" lon="1.73095">
        <ele>33</ele>
        <time>2023-01-29T06:48:49.747Z</time>
      </trkpt>
      <trkpt lat="48.97359" lon="1.73098">
        <ele>28</ele>
        <time>2023-01-29T06:48:54.272Z</time>
      </trkpt>
      <trkpt lat="48.97366" lon="1.731">
        <ele>28</ele>
        <time>2023-01-29T06:48:58.699Z</time>
      </trkpt>
      <trkpt lat="48.97372" lon="1.73102">
        <ele>28</ele>
        <time>2023-01-29T06:49:02.646Z</time>
      </trkpt>
      <trkpt lat="48.97378" lon="1.73103">
        <ele>30</ele>
        <time>2023-01-29T06:49:06.832Z</time>
      </trkpt>
      <trkpt lat="48.97384" lon="1.73105">
        <ele>30</ele>
        <time>2023-01-29T06:49:11.363Z</time>
      </trkpt>
      <trkpt lat="48.97389" lon="1.73104">
        <ele>30</ele>
        <time>2023-01-29T06:49:15.304Z</time>
      </trkpt>
      <trkpt lat="48.97397" lon="1.73107">
        <ele>30</ele>
        <time>2023-01-29T06:49:19.889Z</time>
      </trkpt>
      <trkpt lat="48.97404" lon="1.7311">
        <ele>30</ele>
        <time>2023-01-29T06:49:23.836Z</time>
      </trkpt>
      <trkpt lat="48.97412" lon="1.73112">
        <ele>30</ele>
        <time>2023-01-29T06:49:28.325Z</time>
      </trkpt>
      <trkpt lat="48.97419" lon="1.73113">
        <ele>30</ele>
        <time>2023-01-29T06:49:32.836Z</time>
      </trkpt>
      <trkpt lat="48.97425" lon="1.73114">
        <ele>30</ele>
        <time>2023-01-29T06:49:36.699Z</time>
      </trkpt>
      <trkpt lat="48.97431" lon="1.73116">
        <ele>32</ele>
        <time>2023-01-29T06:49:41.244Z</time>
      </trkpt>
      <trkpt lat="48.97437" lon="1.73117">
        <ele>32</ele>
        <time>2023-01-29T06:49:45.672Z</time>
      </trkpt>
      <trkpt lat="48.97443" lon="1.73117">
        <ele>32</ele>
        <time>2023-01-29T06:49:49.742Z</time>
      </trkpt>
      <trkpt lat="48.97449" lon="1.73118">
        <ele>32</ele>
        <time>2023-01-29T06:49:54.290Z</time>
      </trkpt>
      <trkpt lat="48.97457" lon="1.73119">
        <ele>32</ele>
        <time>2023-01-29T06:49:58.836Z</time>
      </trkpt>
      <trkpt lat="48.97464" lon="1.73122">
        <ele>33</ele>
        <time>2023-01-29T06:50:03.383Z</time>
      </trkpt>
      <trkpt lat="48.97471" lon="1.73124">
        <ele>33</ele>
        <time>2023-01-29T06:50:07.331Z</time>
      </trkpt>
      <trkpt lat="48.97478" lon="1.73125">
        <ele>33</ele>
        <time>2023-01-29T06:50:11.836Z</time>
      </trkpt>
      <trkpt lat="48.97485" lon="1.73126">
        <ele>30</ele>
        <time>2023-01-29T06:50:16.485Z</time>
      </trkpt>
      <trkpt lat="48.97492" lon="1.73127">
        <ele>29</ele>
        <time>2023-01-29T06:50:20.370Z</time>
      </trkpt>
      <trkpt lat="48.97499" lon="1.73129">
        <ele>29</ele>
        <time>2023-01-29T06:50:25.039Z</time>
      </trkpt>
      <trkpt lat="48.97505" lon="1.73126">
        <ele>29</ele>
        <time>2023-01-29T06:50:29.589Z</time>
      </trkpt>
      <trkpt lat="48.97514" lon="1.73128">
        <ele>29</ele>
        <time>2023-01-29T06:50:34.260Z</time>
      </trkpt>
      <trkpt lat="48.97522" lon="1.7313">
        <ele>29</ele>
        <time>2023-01-29T06:50:38.439Z</time>
      </trkpt>
      <trkpt lat="48.97528" lon="1.73132">
        <ele>29</ele>
        <time>2023-01-29T06:50:42.638Z</time>
      </trkpt>
      <trkpt lat="48.97536" lon="1.73135">
        <ele>29</ele>
        <time>2023-01-29T06:50:47.067Z</time>
      </trkpt>
      <trkpt lat="48.97544" lon="1.73139">
        <ele>30</ele>
        <time>2023-01-29T06:50:51.617Z</time>
      </trkpt>
      <trkpt lat="48.9755" lon="1.73142">
        <ele>30</ele>
        <time>2023-01-29T06:50:55.567Z</time>
      </trkpt>
      <trkpt lat="48.97558" lon="1.73143">
        <ele>30</ele>
        <time>2023-01-29T06:51:00.235Z</time>
      </trkpt>
      <trkpt lat="48.97565" lon="1.73145">
        <ele>30</ele>
        <time>2023-01-29T06:51:04.836Z</time>
      </trkpt>
      <trkpt lat="48.97573" lon="1.73148">
        <ele>31</ele>
        <time>2023-01-29T06:51:09.207Z</time>
      </trkpt>
      <trkpt lat="48.9758" lon="1.73148">
        <ele>31</ele>
        <time>2023-01-29T06:51:13.276Z</time>
      </trkpt>
      <trkpt lat="48.97587" lon="1.7315">
        <ele>31</ele>
        <time>2023-01-29T06:51:17.784Z</time>
      </trkpt>
      <trkpt lat="48.97593" lon="1.7315">
        <ele>31</ele>
        <time>2023-01-29T06:51:22.425Z</time>
      </trkpt>
      <trkpt lat="48.976" lon="1.73153">
        <ele>30</ele>
        <time>2023-01-29T06:51:26.399Z</time>
      </trkpt>
      <trkpt lat="48.97607" lon="1.73157">
        <ele>26</ele>
        <time>2023-01-29T06:51:30.945Z</time>
      </trkpt>
      <trkpt lat="48.97613" lon="1.7316">
        <ele>26</ele>
        <time>2023-01-29T06:51:35.011Z</time>
      </trkpt>
      <trkpt lat="48.9762" lon="1.73161">
        <ele>26</ele>
        <time>2023-01-29T06:51:39.521Z</time>
      </trkpt>
      <trkpt lat="48.97627" lon="1.73162">
        <ele>24</ele>
        <time>2023-01-29T06:51:43.504Z</time>
      </trkpt>
      <trkpt lat="48.97633" lon="1.73162">
        <ele>24</ele>
        <time>2023-01-29T06:51:47.982Z</time>
      </trkpt>
      <trkpt lat="48.97639" lon="1.73162">
        <ele>24</ele>
        <time>2023-01-29T06:51:51.996Z</time>
      </trkpt>
      <trkpt lat="48.97646" lon="1.73162">
        <ele>24</ele>
        <time>2023-01-29T06:51:55.836Z</time>
      </trkpt>
      <trkpt lat="48.97653" lon="1.73161">
        <ele>24</ele>
        <time>2023-01-29T06:52:00.349Z</time>
      </trkpt>
      <trkpt lat="48.97658" lon="1.73154">
        <ele>23</ele>
        <time>2023-01-29T06:52:04.515Z</time>
      </trkpt>
      <trkpt lat="48.97663" lon="1.73147">
        <ele>25</ele>
        <time>2023-01-29T06:52:09.061Z</time>
      </trkpt>
      <trkpt lat="48.97667" lon="1.73138">
        <ele>25</ele>
        <time>2023-01-29T06:52:13.622Z</time>
      </trkpt>
      <trkpt lat="48.97671" lon="1.73129">
        <ele>25</ele>
        <time>2023-01-29T06:52:18.034Z</time>
      </trkpt>
      <trkpt lat="48.97675" lon="1.7312">
        <ele>26</ele>
        <time>2023-01-29T06:52:22.222Z</time>
      </trkpt>
      <trkpt lat="48.9768" lon="1.7311">
        <ele>26</ele>
        <time>2023-01-29T06:52:26.768Z</time>
      </trkpt>
      <trkpt lat="48.97684" lon="1.73102">
        <ele>26</ele>
        <time>2023-01-29T06:52:31.365Z</time>
      </trkpt>
      <trkpt lat="48.97688" lon="1.73094">
        <ele>27</ele>
        <time>2023-01-29T06:52:35.380Z</time>
      </trkpt>
      <trkpt lat="48.97692" lon="1.73086">
        <ele>27</ele>
        <time>2023-01-29T06:52:40.027Z</time>
      </trkpt>
      <trkpt lat="48.97697" lon="1.73077">
        <ele>27</ele>
        <time>2023-01-29T06:52:44.471Z</time>
      </trkpt>
      <trkpt lat="48.97701" lon="1.73069">
        <ele>30</ele>
        <time>2023-01-29T06:52:49.136Z</time>
      </trkpt>
      <trkpt lat="48.97707" lon="1.7306">
        <ele>30</ele>
        <time>2023-01-29T06:52:53.681Z</time>
      </trkpt>
      <trkpt lat="48.97711" lon="1.73052">
        <ele>27</ele>
        <time>2023-01-29T06:52:58.262Z</time>
      </trkpt>
      <trkpt lat="48.97715" lon="1.73043">
        <ele>27</ele>
        <time>2023-01-29T06:53:02.646Z</time>
      </trkpt>
      <trkpt lat="48.97719" lon="1.73035">
        <ele>29</ele>
        <time>2023-01-29T06:53:06.679Z</time>
      </trkpt>
      <trkpt lat="48.97723" lon="1.73027">
        <ele>29</ele>
        <time>2023-01-29T06:53:11.222Z</time>
      </trkpt>
      <trkpt lat="48.97727" lon="1.73018">
        <ele>29</ele>
        <time>2023-01-29T06:53:15.920Z</time>
      </trkpt>
      <trkpt lat="48.97731" lon="1.73009">
        <ele>31</ele>
        <time>2023-01-29T06:53:20.312Z</time>
      </trkpt>
      <trkpt lat="48.97735" lon="1.73">
        <ele>31</ele>
        <time>2023-01-29T06:53:24.836Z</time>
      </trkpt>
      <trkpt lat="48.97738" lon="1.72992">
        <ele>28</ele>
        <time>2023-01-29T06:53:28.836Z</time>
      </trkpt>
      <trkpt lat="48.97742" lon="1.72982">
        <ele>31</ele>
        <time>2023-01-29T06:53:33.344Z</time>
      </trkpt>
      <trkpt lat="48.97745" lon="1.72972">
        <ele>31</ele>
        <time>2023-01-29T06:53:37.411Z</time>
      </trkpt>
      <trkpt lat="48.97748" lon="1.72962">
        <ele>31</ele>
        <time>2023-01-29T06:53:41.954Z</time>
      </trkpt>
      <trkpt lat="48.97751" lon="1.7295">
        <ele>32</ele>
        <time>2023-01-29T06:53:46.379Z</time>
      </trkpt>
      <trkpt lat="48.97754" lon="1.72939">
        <ele>32</ele>
        <time>2023-01-29T06:53:51.043Z</time>
      </trkpt>
      <trkpt lat="48.97755" lon="1.72928">
        <ele>31</ele>
        <time>2023-01-29T06:53:55.109Z</time>
      </trkpt>
      <trkpt lat="48.97756" lon="1.72916">
        <ele>31</ele>
        <time>2023-01-29T06:53:59.653Z</time>
      </trkpt>
      <trkpt lat="48.97759" lon="1.72906">
        <ele>31</ele>
        <time>2023-01-29T06:54:04.076Z</time>
      </trkpt>
      <trkpt lat="48.97761" lon="1.72895">
        <ele>30</ele>
        <time>2023-01-29T06:54:08.481Z</time>
      </trkpt>
      <trkpt lat="48.97763" lon="1.72885">
        <ele>30</ele>
        <time>2023-01-29T06:54:13.144Z</time>
      </trkpt>
      <trkpt lat="48.97768" lon="1.72879">
        <ele>28</ele>
        <time>2023-01-29T06:54:17.667Z</time>
      </trkpt>
      <trkpt lat="48.97773" lon="1.72878">
        <ele>28</ele>
        <time>2023-01-29T06:54:21.612Z</time>
      </trkpt>
      <trkpt lat="48.97782" lon="1.72878">
        <ele>28</ele>
        <time>2023-01-29T06:54:26.273Z</time>
      </trkpt>
      <trkpt lat="48.97788" lon="1.72877">
        <ele>28</ele>
        <time>2023-01-29T06:54:30.217Z</time>
      </trkpt>
      <trkpt lat="48.97795" lon="1.72876">
        <ele>27</ele>
        <time>2023-01-29T06:54:34.836Z</time>
      </trkpt>
      <trkpt lat="48.97802" lon="1.72871">
        <ele>29</ele>
        <time>2023-01-29T06:54:39.228Z</time>
      </trkpt>
      <trkpt lat="48.97805" lon="1.7286">
        <ele>29</ele>
        <time>2023-01-29T06:54:43.708Z</time>
      </trkpt>
      <trkpt lat="48.97806" lon="1.7285">
        <ele>29</ele>
        <time>2023-01-29T06:54:47.654Z</time>
      </trkpt>
      <trkpt lat="48.97808" lon="1.72841">
        <ele>30</ele>
        <time>2023-01-29T06:54:51.601Z</time>
      </trkpt>
      <trkpt lat="48.97811" lon="1.72831">
        <ele>30</ele>
        <time>2023-01-29T06:54:56.469Z</time>
      </trkpt>
      <trkpt lat="48.97812" lon="1.72822">
        <ele>30</ele>
        <time>2023-01-29T06:55:00.982Z</time>
      </trkpt>
      <trkpt lat="48.97813" lon="1.72813">
        <ele>31</ele>
        <time>2023-01-29T06:55:05.117Z</time>
      </trkpt>
      <trkpt lat="48.97814" lon="1.72802">
        <ele>31</ele>
        <time>2023-01-29T06:55:09.662Z</time>
      </trkpt>
      <trkpt lat="48.97816" lon="1.72791">
        <ele>31</ele>
        <time>2023-01-29T06:55:13.728Z</time>
      </trkpt>
      <trkpt lat="48.97818" lon="1.7278">
        <ele>31</ele>
        <time>2023-01-29T06:55:17.673Z</time>
      </trkpt>
      <trkpt lat="48.97821" lon="1.72771">
        <ele>29</ele>
        <time>2023-01-29T06:55:22.198Z</time>
      </trkpt>
      <trkpt lat="48.97824" lon="1.72763">
        <ele>29</ele>
        <time>2023-01-29T06:55:26.262Z</time>
      </trkpt>
      <trkpt lat="48.97827" lon="1.72753">
        <ele>29</ele>
        <time>2023-01-29T06:55:30.686Z</time>
      </trkpt>
      <trkpt lat="48.97832" lon="1.72751">
        <ele>29</ele>
        <time>2023-01-29T06:55:35.706Z</time>
      </trkpt>
      <trkpt lat="48.97839" lon="1.72756">
        <ele>29</ele>
        <time>2023-01-29T06:55:40.117Z</time>
      </trkpt>
      <trkpt lat="48.97846" lon="1.72762">
        <ele>29</ele>
        <time>2023-01-29T06:55:44.676Z</time>
      </trkpt>
      <trkpt lat="48.97852" lon="1.72768">
        <ele>25</ele>
        <time>2023-01-29T06:55:48.623Z</time>
      </trkpt>
      <trkpt lat="48.97857" lon="1.72773">
        <ele>25</ele>
        <time>2023-01-29T06:55:53.136Z</time>
      </trkpt>
      <trkpt lat="48.97864" lon="1.72779">
        <ele>25</ele>
        <time>2023-01-29T06:55:57.235Z</time>
      </trkpt>
      <trkpt lat="48.97869" lon="1.72785">
        <ele>25</ele>
        <time>2023-01-29T06:56:01.423Z</time>
      </trkpt>
      <trkpt lat="48.97873" lon="1.72792">
        <ele>25</ele>
        <time>2023-01-29T06:56:06.092Z</time>
      </trkpt>
      <trkpt lat="48.97868" lon="1.72802">
        <ele>25</ele>
        <time>2023-01-29T06:56:10.642Z</time>
      </trkpt>
      <trkpt lat="48.97866" lon="1.7281">
        <ele>25</ele>
        <time>2023-01-29T06:56:15.225Z</time>
      </trkpt>
      <trkpt lat="48.97881" lon="1.72814">
        <ele>23</ele>
        <time>2023-01-29T06:56:19.665Z</time>
      </trkpt>
      <trkpt lat="48.97893" lon="1.7282">
        <ele>23</ele>
        <time>2023-01-29T06:56:24.092Z</time>
      </trkpt>
      <trkpt lat="48.97903" lon="1.72825">
        <ele>23</ele>
        <time>2023-01-29T06:56:28.620Z</time>
      </trkpt>
      <trkpt lat="48.9791" lon="1.72831">
        <ele>22</ele>
        <time>2023-01-29T06:56:33.042Z</time>
      </trkpt>
      <trkpt lat="48.97916" lon="1.72838">
        <ele>22</ele>
        <time>2023-01-29T06:56:37.540Z</time>
      </trkpt>
      <trkpt lat="48.97923" lon="1.72846">
        <ele>22</ele>
        <time>2023-01-29T06:56:41.652Z</time>
      </trkpt>
      <trkpt lat="48.97929" lon="1.72854">
        <ele>22</ele>
        <time>2023-01-29T06:56:45.478Z</time>
      </trkpt>
      <trkpt lat="48.97935" lon="1.72861">
        <ele>22</ele>
        <time>2023-01-29T06:56:50.141Z</time>
      </trkpt>
      <trkpt lat="48.97941" lon="1.72866">
        <ele>22</ele>
        <time>2023-01-29T06:56:54.685Z</time>
      </trkpt>
      <trkpt lat="48.97947" lon="1.72872">
        <ele>22</ele>
        <time>2023-01-29T06:56:58.630Z</time>
      </trkpt>
      <trkpt lat="48.97953" lon="1.72878">
        <ele>22</ele>
        <time>2023-01-29T06:57:03.142Z</time>
      </trkpt>
      <trkpt lat="48.97959" lon="1.72884">
        <ele>23</ele>
        <time>2023-01-29T06:57:07.717Z</time>
      </trkpt>
      <trkpt lat="48.97966" lon="1.7289">
        <ele>23</ele>
        <time>2023-01-29T06:57:11.542Z</time>
      </trkpt>
      <trkpt lat="48.97972" lon="1.72895">
        <ele>23</ele>
        <time>2023-01-29T06:57:16.112Z</time>
      </trkpt>
      <trkpt lat="48.97979" lon="1.72898">
        <ele>23</ele>
        <time>2023-01-29T06:57:20.096Z</time>
      </trkpt>
      <trkpt lat="48.97982" lon="1.72906">
        <ele>21</ele>
        <time>2023-01-29T06:57:24.775Z</time>
      </trkpt>
      <trkpt lat="48.97986" lon="1.72919">
        <ele>21</ele>
        <time>2023-01-29T06:57:29.483Z</time>
      </trkpt>
      <trkpt lat="48.97991" lon="1.72925">
        <ele>21</ele>
        <time>2023-01-29T06:57:34.092Z</time>
      </trkpt>
      <trkpt lat="48.97998" lon="1.72918">
        <ele>21</ele>
        <time>2023-01-29T06:57:37.622Z</time>
      </trkpt>
      <trkpt lat="48.98004" lon="1.72918">
        <ele>21</ele>
        <time>2023-01-29T06:57:42.628Z</time>
      </trkpt>
      <trkpt lat="48.98011" lon="1.72916">
        <ele>21</ele>
        <time>2023-01-29T06:57:46.631Z</time>
      </trkpt>
      <trkpt lat="48.98018" lon="1.72911">
        <ele>18</ele>
        <time>2023-01-29T06:57:50.640Z</time>
      </trkpt>
      <trkpt lat="48.98027" lon="1.72908">
        <ele>18</ele>
        <time>2023-01-29T06:57:55.114Z</time>
      </trkpt>
      <trkpt lat="48.98034" lon="1.729">
        <ele>19</ele>
        <time>2023-01-29T06:57:59.547Z</time>
      </trkpt>
      <trkpt lat="48.98039" lon="1.72895">
        <ele>19</ele>
        <time>2023-01-29T06:58:03.649Z</time>
      </trkpt>
      <trkpt lat="48.98042" lon="1.72891">
        <ele>17</ele>
        <time>2023-01-29T06:58:07.696Z</time>
      </trkpt>
      <trkpt lat="48.98048" lon="1.72885">
        <ele>17</ele>
        <time>2023-01-29T06:58:12.311Z</time>
      </trkpt>
      <trkpt lat="48.98056" lon="1.7288">
        <ele>17</ele>
        <time>2023-01-29T06:58:16.836Z</time>
      </trkpt>
      <trkpt lat="48.98063" lon="1.72871">
        <ele>20</ele>
        <time>2023-01-29T06:58:21.433Z</time>
      </trkpt>
      <trkpt lat="48.98067" lon="1.72866">
        <ele>20</ele>
        <time>2023-01-29T06:58:26.226Z</time>
      </trkpt>
      <trkpt lat="48.98073" lon="1.72862">
        <ele>20</ele>
        <time>2023-01-29T06:58:30.420Z</time>
      </trkpt>
      <trkpt lat="48.98078" lon="1.72858">
        <ele>20</ele>
        <time>2023-01-29T06:58:34.615Z</time>
      </trkpt>
      <trkpt lat="48.98084" lon="1.72854">
        <ele>20</ele>
        <time>2023-01-29T06:58:39.099Z</time>
      </trkpt>
      <trkpt lat="48.98089" lon="1.72848">
        <ele>20</ele>
        <time>2023-01-29T06:58:43.067Z</time>
      </trkpt>
      <trkpt lat="48.98095" lon="1.72843">
        <ele>21</ele>
        <time>2023-01-29T06:58:47.022Z</time>
      </trkpt>
      <trkpt lat="48.981" lon="1.72838">
        <ele>20</ele>
        <time>2023-01-29T06:58:51.216Z</time>
      </trkpt>
      <trkpt lat="48.98107" lon="1.72833">
        <ele>20</ele>
        <time>2023-01-29T06:58:55.648Z</time>
      </trkpt>
      <trkpt lat="48.98113" lon="1.72828">
        <ele>20</ele>
        <time>2023-01-29T06:58:59.602Z</time>
      </trkpt>
      <trkpt lat="48.98119" lon="1.72824">
        <ele>20</ele>
        <time>2023-01-29T06:59:04.033Z</time>
      </trkpt>
      <trkpt lat="48.98126" lon="1.72818">
        <ele>21</ele>
        <time>2023-01-29T06:59:08.588Z</time>
      </trkpt>
      <trkpt lat="48.98133" lon="1.72814">
        <ele>21</ele>
        <time>2023-01-29T06:59:12.416Z</time>
      </trkpt>
      <trkpt lat="48.98139" lon="1.72809">
        <ele>21</ele>
        <time>2023-01-29T06:59:16.966Z</time>
      </trkpt>
      <trkpt lat="48.98147" lon="1.72804">
        <ele>21</ele>
        <time>2023-01-29T06:59:21.635Z</time>
      </trkpt>
      <trkpt lat="48.98154" lon="1.728">
        <ele>21</ele>
        <time>2023-01-29T06:59:26.304Z</time>
      </trkpt>
      <trkpt lat="48.98161" lon="1.72796">
        <ele>21</ele>
        <time>2023-01-29T06:59:30.826Z</time>
      </trkpt>
      <trkpt lat="48.98167" lon="1.72791">
        <ele>21</ele>
        <time>2023-01-29T06:59:35.280Z</time>
      </trkpt>
      <trkpt lat="48.98173" lon="1.72787">
        <ele>21</ele>
        <time>2023-01-29T06:59:39.828Z</time>
      </trkpt>
      <trkpt lat="48.98178" lon="1.72784">
        <ele>21</ele>
        <time>2023-01-29T06:59:43.836Z</time>
      </trkpt>
      <trkpt lat="48.98186" lon="1.72779">
        <ele>22</ele>
        <time>2023-01-29T06:59:48.444Z</time>
      </trkpt>
      <trkpt lat="48.98192" lon="1.72774">
        <ele>22</ele>
        <time>2023-01-29T06:59:53.109Z</time>
      </trkpt>
      <trkpt lat="48.98199" lon="1.7277">
        <ele>22</ele>
        <time>2023-01-29T06:59:57.655Z</time>
      </trkpt>
      <trkpt lat="48.98204" lon="1.72768">
        <ele>22</ele>
        <time>2023-01-29T07:00:02.080Z</time>
      </trkpt>
      <trkpt lat="48.98213" lon="1.72767">
        <ele>16</ele>
        <time>2023-01-29T07:00:06.689Z</time>
      </trkpt>
      <trkpt lat="48.98219" lon="1.72764">
        <ele>16</ele>
        <time>2023-01-29T07:00:10.573Z</time>
      </trkpt>
      <trkpt lat="48.98224" lon="1.72762">
        <ele>23</ele>
        <time>2023-01-29T07:00:15.120Z</time>
      </trkpt>
      <trkpt lat="48.98231" lon="1.72758">
        <ele>23</ele>
        <time>2023-01-29T07:00:19.678Z</time>
      </trkpt>
      <trkpt lat="48.98235" lon="1.72757">
        <ele>23</ele>
        <time>2023-01-29T07:00:24.001Z</time>
      </trkpt>
      <trkpt lat="48.98236" lon="1.72762">
        <ele>23</ele>
        <time>2023-01-29T07:00:28.004Z</time>
      </trkpt>
      <trkpt lat="48.98248" lon="1.72745">
        <ele>22</ele>
        <time>2023-01-29T07:00:32.284Z</time>
      </trkpt>
      <trkpt lat="48.98255" lon="1.72739">
        <ele>22</ele>
        <time>2023-01-29T07:00:36.846Z</time>
      </trkpt>
      <trkpt lat="48.9826" lon="1.72738">
        <ele>22</ele>
        <time>2023-01-29T07:00:40.836Z</time>
      </trkpt>
      <trkpt lat="48.98265" lon="1.72738">
        <ele>16</ele>
        <time>2023-01-29T07:00:45.063Z</time>
      </trkpt>
      <trkpt lat="48.98272" lon="1.72738">
        <ele>16</ele>
        <time>2023-01-29T07:00:49.363Z</time>
      </trkpt>
      <trkpt lat="48.9828" lon="1.72736">
        <ele>22</ele>
        <time>2023-01-29T07:00:53.802Z</time>
      </trkpt>
      <trkpt lat="48.98288" lon="1.72732">
        <ele>22</ele>
        <time>2023-01-29T07:00:58.302Z</time>
      </trkpt>
      <trkpt lat="48.98294" lon="1.7273">
        <ele>21</ele>
        <time>2023-01-29T07:01:02.161Z</time>
      </trkpt>
      <trkpt lat="48.98303" lon="1.72729">
        <ele>21</ele>
        <time>2023-01-29T07:01:06.480Z</time>
      </trkpt>
      <trkpt lat="48.98312" lon="1.72725">
        <ele>21</ele>
        <time>2023-01-29T07:01:10.880Z</time>
      </trkpt>
      <trkpt lat="48.98319" lon="1.72723">
        <ele>21</ele>
        <time>2023-01-29T07:01:14.780Z</time>
      </trkpt>
      <trkpt lat="48.98326" lon="1.7272">
        <ele>16</ele>
        <time>2023-01-29T07:01:19.540Z</time>
      </trkpt>
      <trkpt lat="48.98333" lon="1.72717">
        <ele>16</ele>
        <time>2023-01-29T07:01:23.836Z</time>
      </trkpt>
      <trkpt lat="48.98339" lon="1.72715">
        <ele>16</ele>
        <time>2023-01-29T07:01:28.002Z</time>
      </trkpt>
      <trkpt lat="48.98346" lon="1.72711">
        <ele>16</ele>
        <time>2023-01-29T07:01:32.383Z</time>
      </trkpt>
      <trkpt lat="48.98353" lon="1.72708">
        <ele>19</ele>
        <time>2023-01-29T07:01:36.704Z</time>
      </trkpt>
      <trkpt lat="48.98356" lon="1.72702">
        <ele>19</ele>
        <time>2023-01-29T07:01:40.708Z</time>
      </trkpt>
      <trkpt lat="48.98361" lon="1.72695">
        <ele>19</ele>
        <time>2023-01-29T07:01:45.713Z</time>
      </trkpt>
      <trkpt lat="48.98363" lon="1.72695">
        <ele>19</ele>
        <time>2023-01-29T07:01:50.225Z</time>
      </trkpt>
      <trkpt lat="48.98367" lon="1.72693">
        <ele>19</ele>
        <time>2023-01-29T07:01:54.839Z</time>
      </trkpt>
      <trkpt lat="48.98375" lon="1.7269">
        <ele>16</ele>
        <time>2023-01-29T07:01:58.851Z</time>
      </trkpt>
      <trkpt lat="48.98384" lon="1.72688">
        <ele>16</ele>
        <time>2023-01-29T07:02:03.370Z</time>
      </trkpt>
      <trkpt lat="48.98392" lon="1.72686">
        <ele>16</ele>
        <time>2023-01-29T07:02:07.476Z</time>
      </trkpt>
      <trkpt lat="48.98396" lon="1.72682">
        <ele>16</ele>
        <time>2023-01-29T07:02:11.489Z</time>
      </trkpt>
      <trkpt lat="48.98404" lon="1.72676">
        <ele>23</ele>
        <time>2023-01-29T07:02:16.002Z</time>
      </trkpt>
      <trkpt lat="48.98411" lon="1.72676">
        <ele>23</ele>
        <time>2023-01-29T07:02:20.013Z</time>
      </trkpt>
      <trkpt lat="48.98419" lon="1.72674">
        <ele>23</ele>
        <time>2023-01-29T07:02:24.523Z</time>
      </trkpt>
      <trkpt lat="48.98426" lon="1.7267">
        <ele>23</ele>
        <time>2023-01-29T07:02:28.632Z</time>
      </trkpt>
      <trkpt lat="48.9843" lon="1.72662">
        <ele>23</ele>
        <time>2023-01-29T07:02:33.141Z</time>
      </trkpt>
      <trkpt lat="48.98438" lon="1.72661">
        <ele>16</ele>
        <time>2023-01-29T07:02:37.848Z</time>
      </trkpt>
      <trkpt lat="48.98446" lon="1.72661">
        <ele>16</ele>
        <time>2023-01-29T07:02:41.953Z</time>
      </trkpt>
      <trkpt lat="48.98454" lon="1.72657">
        <ele>16</ele>
        <time>2023-01-29T07:02:46.964Z</time>
      </trkpt>
      <trkpt lat="48.98459" lon="1.72653">
        <ele>16</ele>
        <time>2023-01-29T07:02:50.972Z</time>
      </trkpt>
      <trkpt lat="48.98468" lon="1.72647">
        <ele>22</ele>
        <time>2023-01-29T07:02:55.580Z</time>
      </trkpt>
      <trkpt lat="48.98475" lon="1.72644">
        <ele>22</ele>
        <time>2023-01-29T07:03:00.087Z</time>
      </trkpt>
      <trkpt lat="48.98481" lon="1.72643">
        <ele>22</ele>
        <time>2023-01-29T07:03:04.697Z</time>
      </trkpt>
      <trkpt lat="48.98485" lon="1.72633">
        <ele>22</ele>
        <time>2023-01-29T07:03:09.713Z</time>
      </trkpt>
      <trkpt lat="48.98491" lon="1.72632">
        <ele>16</ele>
        <time>2023-01-29T07:03:13.822Z</time>
      </trkpt>
      <trkpt lat="48.98499" lon="1.72625">
        <ele>16</ele>
        <time>2023-01-29T07:03:18.425Z</time>
      </trkpt>
      <trkpt lat="48.98505" lon="1.72624">
        <ele>22</ele>
        <time>2023-01-29T07:03:22.927Z</time>
      </trkpt>
      <trkpt lat="48.98513" lon="1.72621">
        <ele>22</ele>
        <time>2023-01-29T07:03:27.028Z</time>
      </trkpt>
      <trkpt lat="48.9852" lon="1.72614">
        <ele>16</ele>
        <time>2023-01-29T07:03:31.551Z</time>
      </trkpt>
      <trkpt lat="48.98526" lon="1.72608">
        <ele>16</ele>
        <time>2023-01-29T07:03:36.113Z</time>
      </trkpt>
      <trkpt lat="48.98532" lon="1.72602">
        <ele>16</ele>
        <time>2023-01-29T07:03:40.116Z</time>
      </trkpt>
      <trkpt lat="48.98537" lon="1.72596">
        <ele>23</ele>
        <time>2023-01-29T07:03:44.118Z</time>
      </trkpt>
      <trkpt lat="48.98542" lon="1.72592">
        <ele>23</ele>
        <time>2023-01-29T07:03:48.764Z</time>
      </trkpt>
      <trkpt lat="48.98547" lon="1.72588">
        <ele>23</ele>
        <time>2023-01-29T07:03:52.865Z</time>
      </trkpt>
      <trkpt lat="48.98551" lon="1.72579">
        <ele>23</ele>
        <time>2023-01-29T07:03:56.875Z</time>
      </trkpt>
      <trkpt lat="48.98556" lon="1.72575">
        <ele>23</ele>
        <time>2023-01-29T07:04:00.982Z</time>
      </trkpt>
      <trkpt lat="48.98563" lon="1.72573">
        <ele>23</ele>
        <time>2023-01-29T07:04:04.990Z</time>
      </trkpt>
      <trkpt lat="48.9857" lon="1.72564">
        <ele>26</ele>
        <time>2023-01-29T07:04:09.996Z</time>
      </trkpt>
      <trkpt lat="48.98577" lon="1.7256">
        <ele>26</ele>
        <time>2023-01-29T07:04:15.006Z</time>
      </trkpt>
      <trkpt lat="48.98583" lon="1.72552">
        <ele>26</ele>
        <time>2023-01-29T07:04:19.019Z</time>
      </trkpt>
      <trkpt lat="48.98589" lon="1.72547">
        <ele>26</ele>
        <time>2023-01-29T07:04:23.125Z</time>
      </trkpt>
      <trkpt lat="48.98593" lon="1.72544">
        <ele>26</ele>
        <time>2023-01-29T07:04:27.633Z</time>
      </trkpt>
      <trkpt lat="48.98593" lon="1.72545">
        <ele>26</ele>
        <time>2023-01-29T07:04:31.640Z</time>
      </trkpt>
      <trkpt lat="48.986" lon="1.72539">
        <ele>28</ele>
        <time>2023-01-29T07:04:35.650Z</time>
      </trkpt>
      <trkpt lat="48.98605" lon="1.72532">
        <ele>28</ele>
        <time>2023-01-29T07:04:40.159Z</time>
      </trkpt>
      <trkpt lat="48.98612" lon="1.72525">
        <ele>28</ele>
        <time>2023-01-29T07:04:44.665Z</time>
      </trkpt>
      <trkpt lat="48.98618" lon="1.7252">
        <ele>28</ele>
        <time>2023-01-29T07:04:48.668Z</time>
      </trkpt>
      <trkpt lat="48.98622" lon="1.72514">
        <ele>27</ele>
        <time>2023-01-29T07:04:52.836Z</time>
      </trkpt>
      <trkpt lat="48.98628" lon="1.72506">
        <ele>27</ele>
        <time>2023-01-29T07:04:57.927Z</time>
      </trkpt>
      <trkpt lat="48.98633" lon="1.725">
        <ele>27</ele>
        <time>2023-01-29T07:05:01.933Z</time>
      </trkpt>
      <trkpt lat="48.98639" lon="1.72492">
        <ele>27</ele>
        <time>2023-01-29T07:05:05.938Z</time>
      </trkpt>
      <trkpt lat="48.98645" lon="1.72487">
        <ele>27</ele>
        <time>2023-01-29T07:05:10.944Z</time>
      </trkpt>
      <trkpt lat="48.9865" lon="1.72484">
        <ele>26</ele>
        <time>2023-01-29T07:05:15.457Z</time>
      </trkpt>
      <trkpt lat="48.98657" lon="1.72479">
        <ele>25</ele>
        <time>2023-01-29T07:05:19.962Z</time>
      </trkpt>
      <trkpt lat="48.98663" lon="1.72469">
        <ele>25</ele>
        <time>2023-01-29T07:05:24.979Z</time>
      </trkpt>
      <trkpt lat="48.98669" lon="1.72468">
        <ele>25</ele>
        <time>2023-01-29T07:05:28.989Z</time>
      </trkpt>
      <trkpt lat="48.98672" lon="1.72462">
        <ele>25</ele>
        <time>2023-01-29T07:05:33.004Z</time>
      </trkpt>
      <trkpt lat="48.98681" lon="1.72458">
        <ele>23</ele>
        <time>2023-01-29T07:05:37.620Z</time>
      </trkpt>
      <trkpt lat="48.98688" lon="1.72452">
        <ele>23</ele>
        <time>2023-01-29T07:05:42.133Z</time>
      </trkpt>
      <trkpt lat="48.98697" lon="1.72445">
        <ele>23</ele>
        <time>2023-01-29T07:05:46.644Z</time>
      </trkpt>
      <trkpt lat="48.987" lon="1.72441">
        <ele>23</ele>
        <time>2023-01-29T07:05:51.173Z</time>
      </trkpt>
      <trkpt lat="48.98708" lon="1.72436">
        <ele>23</ele>
        <time>2023-01-29T07:05:55.362Z</time>
      </trkpt>
      <trkpt lat="48.98714" lon="1.72429">
        <ele>21</ele>
        <time>2023-01-29T07:05:59.872Z</time>
      </trkpt>
      <trkpt lat="48.9872" lon="1.72423">
        <ele>21</ele>
        <time>2023-01-29T07:06:03.896Z</time>
      </trkpt>
      <trkpt lat="48.98726" lon="1.72416">
        <ele>21</ele>
        <time>2023-01-29T07:06:07.903Z</time>
      </trkpt>
      <trkpt lat="48.98733" lon="1.7241">
        <ele>21</ele>
        <time>2023-01-29T07:06:12.913Z</time>
      </trkpt>
      <trkpt lat="48.98739" lon="1.72407">
        <ele>16</ele>
        <time>2023-01-29T07:06:16.921Z</time>
      </trkpt>
      <trkpt lat="48.98745" lon="1.72403">
        <ele>19</ele>
        <time>2023-01-29T07:06:20.931Z</time>
      </trkpt>
      <trkpt lat="48.98752" lon="1.72396">
        <ele>19</ele>
        <time>2023-01-29T07:06:24.944Z</time>
      </trkpt>
      <trkpt lat="48.98758" lon="1.7239">
        <ele>19</ele>
        <time>2023-01-29T07:06:29.464Z</time>
      </trkpt>
      <trkpt lat="48.98764" lon="1.72384">
        <ele>19</ele>
        <time>2023-01-29T07:06:33.982Z</time>
      </trkpt>
      <trkpt lat="48.98768" lon="1.72384">
        <ele>16</ele>
        <time>2023-01-29T07:06:38.500Z</time>
      </trkpt>
      <trkpt lat="48.98774" lon="1.72378">
        <ele>16</ele>
        <time>2023-01-29T07:06:42.615Z</time>
      </trkpt>
      <trkpt lat="48.9878" lon="1.72373">
        <ele>19</ele>
        <time>2023-01-29T07:06:47.131Z</time>
      </trkpt>
      <trkpt lat="48.98787" lon="1.72369">
        <ele>19</ele>
        <time>2023-01-29T07:06:51.144Z</time>
      </trkpt>
      <trkpt lat="48.98793" lon="1.72365">
        <ele>16</ele>
        <time>2023-01-29T07:06:55.659Z</time>
      </trkpt>
      <trkpt lat="48.98799" lon="1.72361">
        <ele>16</ele>
        <time>2023-01-29T07:06:59.672Z</time>
      </trkpt>
      <trkpt lat="48.98804" lon="1.72356">
        <ele>16</ele>
        <time>2023-01-29T07:07:04.185Z</time>
      </trkpt>
      <trkpt lat="48.9881" lon="1.72352">
        <ele>16</ele>
        <time>2023-01-29T07:07:08.200Z</time>
      </trkpt>
      <trkpt lat="48.98817" lon="1.72347">
        <ele>19</ele>
        <time>2023-01-29T07:07:12.714Z</time>
      </trkpt>
      <trkpt lat="48.98825" lon="1.72341">
        <ele>20</ele>
        <time>2023-01-29T07:07:17.227Z</time>
      </trkpt>
      <trkpt lat="48.98827" lon="1.72335">
        <ele>20</ele>
        <time>2023-01-29T07:07:21.243Z</time>
      </trkpt>
      <trkpt lat="48.98834" lon="1.72335">
        <ele>20</ele>
        <time>2023-01-29T07:07:25.762Z</time>
      </trkpt>
      <trkpt lat="48.98839" lon="1.7233">
        <ele>20</ele>
        <time>2023-01-29T07:07:29.779Z</time>
      </trkpt>
      <trkpt lat="48.98846" lon="1.72323">
        <ele>20</ele>
        <time>2023-01-29T07:07:34.793Z</time>
      </trkpt>
      <trkpt lat="48.98854" lon="1.72317">
        <ele>21</ele>
        <time>2023-01-29T07:07:38.807Z</time>
      </trkpt>
      <trkpt lat="48.98862" lon="1.72312">
        <ele>21</ele>
        <time>2023-01-29T07:07:43.825Z</time>
      </trkpt>
      <trkpt lat="48.98868" lon="1.72309">
        <ele>21</ele>
        <time>2023-01-29T07:07:48.345Z</time>
      </trkpt>
      <trkpt lat="48.98875" lon="1.72303">
        <ele>21</ele>
        <time>2023-01-29T07:07:52.359Z</time>
      </trkpt>
      <trkpt lat="48.98881" lon="1.72298">
        <ele>16</ele>
        <time>2023-01-29T07:07:56.876Z</time>
      </trkpt>
      <trkpt lat="48.98887" lon="1.72293">
        <ele>16</ele>
        <time>2023-01-29T07:08:00.890Z</time>
      </trkpt>
      <trkpt lat="48.98894" lon="1.72287">
        <ele>20</ele>
        <time>2023-01-29T07:08:05.405Z</time>
      </trkpt>
      <trkpt lat="48.989" lon="1.72283">
        <ele>20</ele>
        <time>2023-01-29T07:08:09.917Z</time>
      </trkpt>
      <trkpt lat="48.98905" lon="1.72277">
        <ele>22</ele>
        <time>2023-01-29T07:08:14.930Z</time>
      </trkpt>
      <trkpt lat="48.9891" lon="1.72271">
        <ele>22</ele>
        <time>2023-01-29T07:08:19.042Z</time>
      </trkpt>
      <trkpt lat="48.98917" lon="1.72265">
        <ele>22</ele>
        <time>2023-01-29T07:08:24.060Z</time>
      </trkpt>
      <trkpt lat="48.98922" lon="1.72262">
        <ele>22</ele>
        <time>2023-01-29T07:08:28.102Z</time>
      </trkpt>
      <trkpt lat="48.98929" lon="1.72257">
        <ele>22</ele>
        <time>2023-01-29T07:08:32.674Z</time>
      </trkpt>
      <trkpt lat="48.98934" lon="1.72252">
        <ele>25</ele>
        <time>2023-01-29T07:08:36.679Z</time>
      </trkpt>
      <trkpt lat="48.98939" lon="1.72245">
        <ele>25</ele>
        <time>2023-01-29T07:08:40.784Z</time>
      </trkpt>
      <trkpt lat="48.98944" lon="1.7224">
        <ele>25</ele>
        <time>2023-01-29T07:08:44.889Z</time>
      </trkpt>
      <trkpt lat="48.98949" lon="1.72236">
        <ele>25</ele>
        <time>2023-01-29T07:08:49.392Z</time>
      </trkpt>
      <trkpt lat="48.98955" lon="1.72231">
        <ele>25</ele>
        <time>2023-01-29T07:08:53.996Z</time>
      </trkpt>
      <trkpt lat="48.98958" lon="1.72228">
        <ele>25</ele>
        <time>2023-01-29T07:08:58Z</time>
      </trkpt>
      <trkpt lat="48.98964" lon="1.72223">
        <ele>25</ele>
        <time>2023-01-29T07:09:02.006Z</time>
      </trkpt>
      <trkpt lat="48.98972" lon="1.7222">
        <ele>25</ele>
        <time>2023-01-29T07:09:06.612Z</time>
      </trkpt>
      <trkpt lat="48.98979" lon="1.72216">
        <ele>25</ele>
        <time>2023-01-29T07:09:11.619Z</time>
      </trkpt>
      <trkpt lat="48.98985" lon="1.72209">
        <ele>25</ele>
        <time>2023-01-29T07:09:15.727Z</time>
      </trkpt>
      <trkpt lat="48.98992" lon="1.72205">
        <ele>25</ele>
        <time>2023-01-29T07:09:20.245Z</time>
      </trkpt>
      <trkpt lat="48.98999" lon="1.72198">
        <ele>25</ele>
        <time>2023-01-29T07:09:24.761Z</time>
      </trkpt>
      <trkpt lat="48.99004" lon="1.72192">
        <ele>25</ele>
        <time>2023-01-29T07:09:28.775Z</time>
      </trkpt>
      <trkpt lat="48.99013" lon="1.72188">
        <ele>25</ele>
        <time>2023-01-29T07:09:33.407Z</time>
      </trkpt>
      <trkpt lat="48.9902" lon="1.72182">
        <ele>26</ele>
        <time>2023-01-29T07:09:37.927Z</time>
      </trkpt>
      <trkpt lat="48.99026" lon="1.72175">
        <ele>26</ele>
        <time>2023-01-29T07:09:42.548Z</time>
      </trkpt>
      <trkpt lat="48.99033" lon="1.72168">
        <ele>26</ele>
        <time>2023-01-29T07:09:47.064Z</time>
      </trkpt>
      <trkpt lat="48.99042" lon="1.72163">
        <ele>22</ele>
        <time>2023-01-29T07:09:51.074Z</time>
      </trkpt>
      <trkpt lat="48.99049" lon="1.72158">
        <ele>22</ele>
        <time>2023-01-29T07:09:55.184Z</time>
      </trkpt>
      <trkpt lat="48.99053" lon="1.72154">
        <ele>22</ele>
        <time>2023-01-29T07:09:59.194Z</time>
      </trkpt>
      <trkpt lat="48.9906" lon="1.7215">
        <ele>26</ele>
        <time>2023-01-29T07:10:03.705Z</time>
      </trkpt>
      <trkpt lat="48.99066" lon="1.72145">
        <ele>26</ele>
        <time>2023-01-29T07:10:08.314Z</time>
      </trkpt>
      <trkpt lat="48.99071" lon="1.72139">
        <ele>26</ele>
        <time>2023-01-29T07:10:12.422Z</time>
      </trkpt>
      <trkpt lat="48.99076" lon="1.72132">
        <ele>26</ele>
        <time>2023-01-29T07:10:16.931Z</time>
      </trkpt>
      <trkpt lat="48.99084" lon="1.72128">
        <ele>26</ele>
        <time>2023-01-29T07:10:21.442Z</time>
      </trkpt>
      <trkpt lat="48.99089" lon="1.72123">
        <ele>31</ele>
        <time>2023-01-29T07:10:25.968Z</time>
      </trkpt>
      <trkpt lat="48.99095" lon="1.72117">
        <ele>31</ele>
        <time>2023-01-29T07:10:30.058Z</time>
      </trkpt>
      <trkpt lat="48.99101" lon="1.72112">
        <ele>29</ele>
        <time>2023-01-29T07:10:35.074Z</time>
      </trkpt>
      <trkpt lat="48.99105" lon="1.72106">
        <ele>29</ele>
        <time>2023-01-29T07:10:39.092Z</time>
      </trkpt>
      <trkpt lat="48.99111" lon="1.72098">
        <ele>29</ele>
        <time>2023-01-29T07:10:43.599Z</time>
      </trkpt>
      <trkpt lat="48.99119" lon="1.72091">
        <ele>27</ele>
        <time>2023-01-29T07:10:47.705Z</time>
      </trkpt>
      <trkpt lat="48.99128" lon="1.72086">
        <ele>16</ele>
        <time>2023-01-29T07:10:52.208Z</time>
      </trkpt>
      <trkpt lat="48.99135" lon="1.7208">
        <ele>16</ele>
        <time>2023-01-29T07:10:56.211Z</time>
      </trkpt>
      <trkpt lat="48.99141" lon="1.72076">
        <ele>16</ele>
        <time>2023-01-29T07:11:00.216Z</time>
      </trkpt>
      <trkpt lat="48.99143" lon="1.72071">
        <ele>16</ele>
        <time>2023-01-29T07:11:04.218Z</time>
      </trkpt>
      <trkpt lat="48.99142" lon="1.72061">
        <ele>25</ele>
        <time>2023-01-29T07:11:08.822Z</time>
      </trkpt>
      <trkpt lat="48.99135" lon="1.72051">
        <ele>25</ele>
        <time>2023-01-29T07:11:13.827Z</time>
      </trkpt>
      <trkpt lat="48.99132" lon="1.72048">
        <ele>25</ele>
        <time>2023-01-29T07:11:17.831Z</time>
      </trkpt>
      <trkpt lat="48.9913" lon="1.72043">
        <ele>25</ele>
        <time>2023-01-29T07:11:21.833Z</time>
      </trkpt>
      <trkpt lat="48.99129" lon="1.7204">
        <ele>26</ele>
        <time>2023-01-29T07:11:26.416Z</time>
      </trkpt>
      <trkpt lat="48.99129" lon="1.72037">
        <ele>26</ele>
        <time>2023-01-29T07:11:31.097Z</time>
      </trkpt>
      <trkpt lat="48.99128" lon="1.72035">
        <ele>26</ele>
        <time>2023-01-29T07:11:35.294Z</time>
      </trkpt>
      <trkpt lat="48.99129" lon="1.7203">
        <ele>26</ele>
        <time>2023-01-29T07:11:39.814Z</time>
      </trkpt>
      <trkpt lat="48.99127" lon="1.72026">
        <ele>26</ele>
        <time>2023-01-29T07:11:44.842Z</time>
      </trkpt>
      <trkpt lat="48.99125" lon="1.72017">
        <ele>29</ele>
        <time>2023-01-29T07:11:49.874Z</time>
      </trkpt>
      <trkpt lat="48.99116" lon="1.72003">
        <ele>31</ele>
        <time>2023-01-29T07:11:54.396Z</time>
      </trkpt>
      <trkpt lat="48.99116" lon="1.71989">
        <ele>31</ele>
        <time>2023-01-29T07:11:58.903Z</time>
      </trkpt>
      <trkpt lat="48.99115" lon="1.7198">
        <ele>33</ele>
        <time>2023-01-29T07:12:03.409Z</time>
      </trkpt>
      <trkpt lat="48.99115" lon="1.7197">
        <ele>33</ele>
        <time>2023-01-29T07:12:07.413Z</time>
      </trkpt>
      <trkpt lat="48.99116" lon="1.71961">
        <ele>33</ele>
        <time>2023-01-29T07:12:11.916Z</time>
      </trkpt>
      <trkpt lat="48.99113" lon="1.71956">
        <ele>34</ele>
        <time>2023-01-29T07:12:16.021Z</time>
      </trkpt>
      <trkpt lat="48.9911" lon="1.71946">
        <ele>34</ele>
        <time>2023-01-29T07:12:20.126Z</time>
      </trkpt>
      <trkpt lat="48.99106" lon="1.71939">
        <ele>34</ele>
        <time>2023-01-29T07:12:24.129Z</time>
      </trkpt>
      <trkpt lat="48.991" lon="1.71932">
        <ele>34</ele>
        <time>2023-01-29T07:12:28.490Z</time>
      </trkpt>
      <trkpt lat="48.99098" lon="1.71926">
        <ele>35</ele>
        <time>2023-01-29T07:12:32.711Z</time>
      </trkpt>
      <trkpt lat="48.99096" lon="1.7192">
        <ele>35</ele>
        <time>2023-01-29T07:12:36.952Z</time>
      </trkpt>
      <trkpt lat="48.99093" lon="1.71911">
        <ele>35</ele>
        <time>2023-01-29T07:12:41.334Z</time>
      </trkpt>
      <trkpt lat="48.99098" lon="1.71892">
        <ele>35</ele>
        <time>2023-01-29T07:12:45.495Z</time>
      </trkpt>
      <trkpt lat="48.99095" lon="1.71884">
        <ele>36</ele>
        <time>2023-01-29T07:12:49.815Z</time>
      </trkpt>
      <trkpt lat="48.99092" lon="1.71877">
        <ele>36</ele>
        <time>2023-01-29T07:12:53.636Z</time>
      </trkpt>
      <trkpt lat="48.99087" lon="1.71868">
        <ele>36</ele>
        <time>2023-01-29T07:12:57.817Z</time>
      </trkpt>
      <trkpt lat="48.99082" lon="1.7186">
        <ele>36</ele>
        <time>2023-01-29T07:13:02.297Z</time>
      </trkpt>
      <trkpt lat="48.99077" lon="1.71853">
        <ele>36</ele>
        <time>2023-01-29T07:13:06.617Z</time>
      </trkpt>
      <trkpt lat="48.99073" lon="1.71843">
        <ele>37</ele>
        <time>2023-01-29T07:13:11.095Z</time>
      </trkpt>
      <trkpt lat="48.9907" lon="1.71837">
        <ele>37</ele>
        <time>2023-01-29T07:13:15.123Z</time>
      </trkpt>
      <trkpt lat="48.99068" lon="1.7183">
        <ele>38</ele>
        <time>2023-01-29T07:13:18.991Z</time>
      </trkpt>
      <trkpt lat="48.99065" lon="1.71821">
        <ele>38</ele>
        <time>2023-01-29T07:13:23.458Z</time>
      </trkpt>
      <trkpt lat="48.99061" lon="1.71812">
        <ele>38</ele>
        <time>2023-01-29T07:13:27.366Z</time>
      </trkpt>
      <trkpt lat="48.99056" lon="1.71796">
        <ele>38</ele>
        <time>2023-01-29T07:13:32.246Z</time>
      </trkpt>
      <trkpt lat="48.99051" lon="1.71787">
        <ele>39</ele>
        <time>2023-01-29T07:13:36.666Z</time>
      </trkpt>
      <trkpt lat="48.99047" lon="1.71778">
        <ele>39</ele>
        <time>2023-01-29T07:13:41.064Z</time>
      </trkpt>
      <trkpt lat="48.99042" lon="1.71768">
        <ele>39</ele>
        <time>2023-01-29T07:13:45.443Z</time>
      </trkpt>
      <trkpt lat="48.99039" lon="1.7176">
        <ele>41</ele>
        <time>2023-01-29T07:13:50.096Z</time>
      </trkpt>
      <trkpt lat="48.99036" lon="1.71753">
        <ele>41</ele>
        <time>2023-01-29T07:13:53.960Z</time>
      </trkpt>
      <trkpt lat="48.99034" lon="1.71746">
        <ele>41</ele>
        <time>2023-01-29T07:13:57.798Z</time>
      </trkpt>
      <trkpt lat="48.99032" lon="1.71737">
        <ele>41</ele>
        <time>2023-01-29T07:14:02.476Z</time>
      </trkpt>
      <trkpt lat="48.99029" lon="1.7173">
        <ele>41</ele>
        <time>2023-01-29T07:14:06.913Z</time>
      </trkpt>
      <trkpt lat="48.99027" lon="1.71719">
        <ele>41</ele>
        <time>2023-01-29T07:14:11.351Z</time>
      </trkpt>
      <trkpt lat="48.99027" lon="1.71709">
        <ele>41</ele>
        <time>2023-01-29T07:14:15.829Z</time>
      </trkpt>
      <trkpt lat="48.99028" lon="1.71698">
        <ele>42</ele>
        <time>2023-01-29T07:14:20.506Z</time>
      </trkpt>
      <trkpt lat="48.99025" lon="1.71688">
        <ele>42</ele>
        <time>2023-01-29T07:14:25.003Z</time>
      </trkpt>
      <trkpt lat="48.99022" lon="1.71678">
        <ele>41</ele>
        <time>2023-01-29T07:14:29.558Z</time>
      </trkpt>
      <trkpt lat="48.99016" lon="1.71668">
        <ele>41</ele>
        <time>2023-01-29T07:14:33.992Z</time>
      </trkpt>
      <trkpt lat="48.99012" lon="1.71656">
        <ele>43</ele>
        <time>2023-01-29T07:14:37.836Z</time>
      </trkpt>
      <trkpt lat="48.99011" lon="1.71652">
        <ele>43</ele>
        <time>2023-01-29T07:14:42.343Z</time>
      </trkpt>
      <trkpt lat="48.99007" lon="1.71646">
        <ele>43</ele>
        <time>2023-01-29T07:14:46.836Z</time>
      </trkpt>
      <trkpt lat="48.99002" lon="1.71634">
        <ele>43</ele>
        <time>2023-01-29T07:14:51.397Z</time>
      </trkpt>
      <trkpt lat="48.98999" lon="1.71623">
        <ele>43</ele>
        <time>2023-01-29T07:14:55.353Z</time>
      </trkpt>
      <trkpt lat="48.98995" lon="1.71611">
        <ele>43</ele>
        <time>2023-01-29T07:15:00.368Z</time>
      </trkpt>
      <trkpt lat="48.98993" lon="1.716">
        <ele>43</ele>
        <time>2023-01-29T07:15:04.836Z</time>
      </trkpt>
      <trkpt lat="48.98989" lon="1.71591">
        <ele>43</ele>
        <time>2023-01-29T07:15:08.821Z</time>
      </trkpt>
      <trkpt lat="48.98992" lon="1.71576">
        <ele>43</ele>
        <time>2023-01-29T07:15:13.375Z</time>
      </trkpt>
      <trkpt lat="48.98989" lon="1.71569">
        <ele>42</ele>
        <time>2023-01-29T07:15:17.450Z</time>
      </trkpt>
      <trkpt lat="48.98981" lon="1.7156">
        <ele>43</ele>
        <time>2023-01-29T07:15:21.964Z</time>
      </trkpt>
      <trkpt lat="48.98983" lon="1.71546">
        <ele>43</ele>
        <time>2023-01-29T07:15:26.379Z</time>
      </trkpt>
      <trkpt lat="48.98979" lon="1.71538">
        <ele>41</ele>
        <time>2023-01-29T07:15:30.452Z</time>
      </trkpt>
      <trkpt lat="48.98974" lon="1.71527">
        <ele>41</ele>
        <time>2023-01-29T07:15:35.007Z</time>
      </trkpt>
      <trkpt lat="48.98967" lon="1.71521">
        <ele>41</ele>
        <time>2023-01-29T07:15:39.487Z</time>
      </trkpt>
      <trkpt lat="48.98959" lon="1.71522">
        <ele>41</ele>
        <time>2023-01-29T07:15:43.358Z</time>
      </trkpt>
      <trkpt lat="48.98952" lon="1.71527">
        <ele>42</ele>
        <time>2023-01-29T07:15:47.314Z</time>
      </trkpt>
      <trkpt lat="48.98945" lon="1.7153">
        <ele>42</ele>
        <time>2023-01-29T07:15:51.630Z</time>
      </trkpt>
      <trkpt lat="48.98938" lon="1.71527">
        <ele>42</ele>
        <time>2023-01-29T07:15:55.705Z</time>
      </trkpt>
      <trkpt lat="48.98929" lon="1.71523">
        <ele>42</ele>
        <time>2023-01-29T07:16:00.300Z</time>
      </trkpt>
      <trkpt lat="48.98922" lon="1.71519">
        <ele>42</ele>
        <time>2023-01-29T07:16:04.836Z</time>
      </trkpt>
      <trkpt lat="48.98917" lon="1.71516">
        <ele>42</ele>
        <time>2023-01-29T07:16:08.836Z</time>
      </trkpt>
      <trkpt lat="48.98913" lon="1.71515">
        <ele>42</ele>
        <time>2023-01-29T07:16:12.836Z</time>
      </trkpt>
      <trkpt lat="48.98906" lon="1.71513">
        <ele>42</ele>
        <time>2023-01-29T07:16:17.306Z</time>
      </trkpt>
      <trkpt lat="48.98898" lon="1.71508">
        <ele>42</ele>
        <time>2023-01-29T07:16:21.836Z</time>
      </trkpt>
      <trkpt lat="48.98894" lon="1.71504">
        <ele>42</ele>
        <time>2023-01-29T07:16:25.940Z</time>
      </trkpt>
      <trkpt lat="48.98886" lon="1.71497">
        <ele>42</ele>
        <time>2023-01-29T07:16:31.137Z</time>
      </trkpt>
      <trkpt lat="48.98881" lon="1.71491">
        <ele>42</ele>
        <time>2023-01-29T07:16:35.631Z</time>
      </trkpt>
      <trkpt lat="48.98876" lon="1.71487">
        <ele>42</ele>
        <time>2023-01-29T07:16:40.146Z</time>
      </trkpt>
      <trkpt lat="48.98864" lon="1.71485">
        <ele>41</ele>
        <time>2023-01-29T07:16:44.567Z</time>
      </trkpt>
      <trkpt lat="48.98859" lon="1.71479">
        <ele>41</ele>
        <time>2023-01-29T07:16:48.574Z</time>
      </trkpt>
      <trkpt lat="48.98854" lon="1.71468">
        <ele>41</ele>
        <time>2023-01-29T07:16:52.584Z</time>
      </trkpt>
      <trkpt lat="48.98852" lon="1.71453">
        <ele>41</ele>
        <time>2023-01-29T07:16:56.594Z</time>
      </trkpt>
      <trkpt lat="48.98847" lon="1.71442">
        <ele>41</ele>
        <time>2023-01-29T07:17:01.105Z</time>
      </trkpt>
      <trkpt lat="48.98841" lon="1.71438">
        <ele>41</ele>
        <time>2023-01-29T07:17:05.116Z</time>
      </trkpt>
      <trkpt lat="48.98834" lon="1.71438">
        <ele>41</ele>
        <time>2023-01-29T07:17:09.226Z</time>
      </trkpt>
      <trkpt lat="48.98825" lon="1.71433">
        <ele>41</ele>
        <time>2023-01-29T07:17:13.736Z</time>
      </trkpt>
      <trkpt lat="48.98818" lon="1.71431">
        <ele>38</ele>
        <time>2023-01-29T07:17:17.743Z</time>
      </trkpt>
      <trkpt lat="48.98811" lon="1.71429">
        <ele>39</ele>
        <time>2023-01-29T07:17:21.751Z</time>
      </trkpt>
      <trkpt lat="48.98805" lon="1.71426">
        <ele>39</ele>
        <time>2023-01-29T07:17:26.262Z</time>
      </trkpt>
      <trkpt lat="48.98802" lon="1.7142">
        <ele>39</ele>
        <time>2023-01-29T07:17:30.271Z</time>
      </trkpt>
      <trkpt lat="48.98797" lon="1.71412">
        <ele>39</ele>
        <time>2023-01-29T07:17:34.783Z</time>
      </trkpt>
      <trkpt lat="48.98789" lon="1.71404">
        <ele>38</ele>
        <time>2023-01-29T07:17:39.293Z</time>
      </trkpt>
      <trkpt lat="48.98784" lon="1.71397">
        <ele>38</ele>
        <time>2023-01-29T07:17:43.301Z</time>
      </trkpt>
      <trkpt lat="48.98779" lon="1.71391">
        <ele>38</ele>
        <time>2023-01-29T07:17:47.310Z</time>
      </trkpt>
      <trkpt lat="48.98773" lon="1.71383">
        <ele>38</ele>
        <time>2023-01-29T07:17:51.919Z</time>
      </trkpt>
      <trkpt lat="48.98767" lon="1.71377">
        <ele>38</ele>
        <time>2023-01-29T07:17:56.427Z</time>
      </trkpt>
      <trkpt lat="48.9876" lon="1.71376">
        <ele>38</ele>
        <time>2023-01-29T07:18:00.938Z</time>
      </trkpt>
      <trkpt lat="48.98756" lon="1.71381">
        <ele>38</ele>
        <time>2023-01-29T07:18:04.950Z</time>
      </trkpt>
      <trkpt lat="48.98753" lon="1.71387">
        <ele>38</ele>
        <time>2023-01-29T07:18:09.481Z</time>
      </trkpt>
      <trkpt lat="48.98749" lon="1.71386">
        <ele>38</ele>
        <time>2023-01-29T07:18:13.492Z</time>
      </trkpt>
      <trkpt lat="48.98744" lon="1.71383">
        <ele>38</ele>
        <time>2023-01-29T07:18:18.007Z</time>
      </trkpt>
      <trkpt lat="48.98743" lon="1.71378">
        <ele>38</ele>
        <time>2023-01-29T07:18:22.023Z</time>
      </trkpt>
      <trkpt lat="48.98742" lon="1.71378">
        <ele>38</ele>
        <time>2023-01-29T07:18:27.044Z</time>
      </trkpt>
      <trkpt lat="48.98741" lon="1.71377">
        <ele>38</ele>
        <time>2023-01-29T07:18:32.067Z</time>
      </trkpt>
      <trkpt lat="48.98739" lon="1.71376">
        <ele>38</ele>
        <time>2023-01-29T07:19:03.097Z</time>
      </trkpt>
      <trkpt lat="48.98738" lon="1.71377">
        <ele>38</ele>
        <time>2023-01-29T07:19:08.103Z</time>
      </trkpt>
      <trkpt lat="48.98736" lon="1.71376">
        <ele>38</ele>
        <time>2023-01-29T07:19:12.320Z</time>
      </trkpt>
      <trkpt lat="48.98739" lon="1.71364">
        <ele>38</ele>
        <time>2023-01-29T07:19:16.330Z</time>
      </trkpt>
      <trkpt lat="48.98743" lon="1.71359">
        <ele>38</ele>
        <time>2023-01-29T07:19:20.841Z</time>
      </trkpt>
      <trkpt lat="48.98747" lon="1.71349">
        <ele>38</ele>
        <time>2023-01-29T07:19:24.855Z</time>
      </trkpt>
      <trkpt lat="48.98743" lon="1.71342">
        <ele>39</ele>
        <time>2023-01-29T07:19:29.971Z</time>
      </trkpt>
      <trkpt lat="48.98737" lon="1.7133">
        <ele>39</ele>
        <time>2023-01-29T07:19:33.982Z</time>
      </trkpt>
      <trkpt lat="48.98732" lon="1.7132">
        <ele>40</ele>
        <time>2023-01-29T07:19:38.494Z</time>
      </trkpt>
      <trkpt lat="48.98728" lon="1.71311">
        <ele>40</ele>
        <time>2023-01-29T07:19:43.005Z</time>
      </trkpt>
      <trkpt lat="48.98723" lon="1.71305">
        <ele>40</ele>
        <time>2023-01-29T07:19:47.010Z</time>
      </trkpt>
      <trkpt lat="48.98717" lon="1.71298">
        <ele>40</ele>
        <time>2023-01-29T07:19:51.532Z</time>
      </trkpt>
      <trkpt lat="48.98712" lon="1.71292">
        <ele>40</ele>
        <time>2023-01-29T07:19:56.034Z</time>
      </trkpt>
    </trkseg>
  </trk>
</gpx>